<?xml version="1.0" encoding="UTF-8" standalone="no" ?>
<gpx xmlns="http://www.topografix.com/GPX/1/1" creator="www.cicloide.com" version="1.1" xmlns:xsi="http://www.w3.org/2001/XMLSchema-instance" xsi:schemaLocation="http://www.topografix.com/GPX/1/1 http://www.topografix.com/GPX/1/1/gpx.xsd">
  <trk>
    <name>www.cicloide.com 20613</name>
    <desc>www.cicloide.com 20613</desc>
    <trkseg>
      <trkpt lat="42.458991000" lon="-2.465007000">
        <ele>401.00</ele>
        <time>2015-01-17T07:04:27Z</time>
      </trkpt>
      <trkpt lat="42.459626000" lon="-2.465157000">
        <ele>401.00</ele>
        <time>2015-01-17T07:06:21Z</time>
      </trkpt>
      <trkpt lat="42.459601000" lon="-2.465073000">
        <ele>401.00</ele>
        <time>2015-01-17T07:06:27Z</time>
      </trkpt>
      <trkpt lat="42.459613000" lon="-2.465083000">
        <ele>401.00</ele>
        <time>2015-01-17T07:06:31Z</time>
      </trkpt>
      <trkpt lat="42.459618000" lon="-2.465100000">
        <ele>401.00</ele>
        <time>2015-01-17T07:06:35Z</time>
      </trkpt>
      <trkpt lat="42.459591000" lon="-2.465111000">
        <ele>401.00</ele>
        <time>2015-01-17T07:06:39Z</time>
      </trkpt>
      <trkpt lat="42.459556000" lon="-2.465134000">
        <ele>401.00</ele>
        <time>2015-01-17T07:06:43Z</time>
      </trkpt>
      <trkpt lat="42.459312000" lon="-2.465127000">
        <ele>401.00</ele>
        <time>2015-01-17T07:06:47Z</time>
      </trkpt>
      <trkpt lat="42.459189000" lon="-2.465168000">
        <ele>401.00</ele>
        <time>2015-01-17T07:06:51Z</time>
      </trkpt>
      <trkpt lat="42.459252000" lon="-2.465222000">
        <ele>401.00</ele>
        <time>2015-01-17T07:06:55Z</time>
      </trkpt>
      <trkpt lat="42.459286000" lon="-2.465300000">
        <ele>402.00</ele>
        <time>2015-01-17T07:06:59Z</time>
      </trkpt>
      <trkpt lat="42.459338000" lon="-2.465368000">
        <ele>403.00</ele>
        <time>2015-01-17T07:07:03Z</time>
      </trkpt>
      <trkpt lat="42.459378000" lon="-2.465442000">
        <ele>404.00</ele>
        <time>2015-01-17T07:07:07Z</time>
      </trkpt>
      <trkpt lat="42.459399000" lon="-2.465532000">
        <ele>404.00</ele>
        <time>2015-01-17T07:07:11Z</time>
      </trkpt>
      <trkpt lat="42.459432000" lon="-2.465609000">
        <ele>405.00</ele>
        <time>2015-01-17T07:07:15Z</time>
      </trkpt>
      <trkpt lat="42.459443000" lon="-2.465684000">
        <ele>405.00</ele>
        <time>2015-01-17T07:07:19Z</time>
      </trkpt>
      <trkpt lat="42.459426000" lon="-2.465783000">
        <ele>406.00</ele>
        <time>2015-01-17T07:07:23Z</time>
      </trkpt>
      <trkpt lat="42.459410000" lon="-2.465896000">
        <ele>406.00</ele>
        <time>2015-01-17T07:07:27Z</time>
      </trkpt>
      <trkpt lat="42.459400000" lon="-2.466015000">
        <ele>407.00</ele>
        <time>2015-01-17T07:07:31Z</time>
      </trkpt>
      <trkpt lat="42.459369000" lon="-2.466127000">
        <ele>407.00</ele>
        <time>2015-01-17T07:07:35Z</time>
      </trkpt>
      <trkpt lat="42.459335000" lon="-2.466257000">
        <ele>406.00</ele>
        <time>2015-01-17T07:07:39Z</time>
      </trkpt>
      <trkpt lat="42.459298000" lon="-2.466395000">
        <ele>406.00</ele>
        <time>2015-01-17T07:07:43Z</time>
      </trkpt>
      <trkpt lat="42.459250000" lon="-2.466525000">
        <ele>406.00</ele>
        <time>2015-01-17T07:07:47Z</time>
      </trkpt>
      <trkpt lat="42.459221000" lon="-2.466651000">
        <ele>406.00</ele>
        <time>2015-01-17T07:07:51Z</time>
      </trkpt>
      <trkpt lat="42.459211000" lon="-2.466796000">
        <ele>407.00</ele>
        <time>2015-01-17T07:07:55Z</time>
      </trkpt>
      <trkpt lat="42.459214000" lon="-2.466937000">
        <ele>407.00</ele>
        <time>2015-01-17T07:07:59Z</time>
      </trkpt>
      <trkpt lat="42.459229000" lon="-2.467073000">
        <ele>407.00</ele>
        <time>2015-01-17T07:08:03Z</time>
      </trkpt>
      <trkpt lat="42.459231000" lon="-2.467212000">
        <ele>407.00</ele>
        <time>2015-01-17T07:08:07Z</time>
      </trkpt>
      <trkpt lat="42.459223000" lon="-2.467357000">
        <ele>407.00</ele>
        <time>2015-01-17T07:08:11Z</time>
      </trkpt>
      <trkpt lat="42.459208000" lon="-2.467506000">
        <ele>407.00</ele>
        <time>2015-01-17T07:08:15Z</time>
      </trkpt>
      <trkpt lat="42.459190000" lon="-2.467640000">
        <ele>407.00</ele>
        <time>2015-01-17T07:08:19Z</time>
      </trkpt>
      <trkpt lat="42.459168000" lon="-2.467765000">
        <ele>407.00</ele>
        <time>2015-01-17T07:08:23Z</time>
      </trkpt>
      <trkpt lat="42.459124000" lon="-2.467870000">
        <ele>407.00</ele>
        <time>2015-01-17T07:08:27Z</time>
      </trkpt>
      <trkpt lat="42.459051000" lon="-2.467946000">
        <ele>408.00</ele>
        <time>2015-01-17T07:08:31Z</time>
      </trkpt>
      <trkpt lat="42.458873000" lon="-2.468043000">
        <ele>409.00</ele>
        <time>2015-01-17T07:08:39Z</time>
      </trkpt>
      <trkpt lat="42.458787000" lon="-2.468065000">
        <ele>409.00</ele>
        <time>2015-01-17T07:08:43Z</time>
      </trkpt>
      <trkpt lat="42.458694000" lon="-2.468074000">
        <ele>409.00</ele>
        <time>2015-01-17T07:08:47Z</time>
      </trkpt>
      <trkpt lat="42.458593000" lon="-2.468068000">
        <ele>409.00</ele>
        <time>2015-01-17T07:08:51Z</time>
      </trkpt>
      <trkpt lat="42.458482000" lon="-2.468081000">
        <ele>409.00</ele>
        <time>2015-01-17T07:08:55Z</time>
      </trkpt>
      <trkpt lat="42.458402000" lon="-2.468130000">
        <ele>410.00</ele>
        <time>2015-01-17T07:08:59Z</time>
      </trkpt>
      <trkpt lat="42.458268000" lon="-2.468238000">
        <ele>410.00</ele>
        <time>2015-01-17T07:09:03Z</time>
      </trkpt>
      <trkpt lat="42.458219000" lon="-2.468397000">
        <ele>410.00</ele>
        <time>2015-01-17T07:09:07Z</time>
      </trkpt>
      <trkpt lat="42.458223000" lon="-2.468547000">
        <ele>410.00</ele>
        <time>2015-01-17T07:09:11Z</time>
      </trkpt>
      <trkpt lat="42.458236000" lon="-2.468681000">
        <ele>411.00</ele>
        <time>2015-01-17T07:09:15Z</time>
      </trkpt>
      <trkpt lat="42.458240000" lon="-2.468838000">
        <ele>411.00</ele>
        <time>2015-01-17T07:09:19Z</time>
      </trkpt>
      <trkpt lat="42.458250000" lon="-2.468989000">
        <ele>411.00</ele>
        <time>2015-01-17T07:09:23Z</time>
      </trkpt>
      <trkpt lat="42.458263000" lon="-2.469140000">
        <ele>411.00</ele>
        <time>2015-01-17T07:09:27Z</time>
      </trkpt>
      <trkpt lat="42.458266000" lon="-2.469315000">
        <ele>411.00</ele>
        <time>2015-01-17T07:09:31Z</time>
      </trkpt>
      <trkpt lat="42.458266000" lon="-2.469493000">
        <ele>411.00</ele>
        <time>2015-01-17T07:09:35Z</time>
      </trkpt>
      <trkpt lat="42.458261000" lon="-2.469844000">
        <ele>411.00</ele>
        <time>2015-01-17T07:09:43Z</time>
      </trkpt>
      <trkpt lat="42.458249000" lon="-2.470005000">
        <ele>411.00</ele>
        <time>2015-01-17T07:09:47Z</time>
      </trkpt>
      <trkpt lat="42.458235000" lon="-2.470158000">
        <ele>411.00</ele>
        <time>2015-01-17T07:09:51Z</time>
      </trkpt>
      <trkpt lat="42.458218000" lon="-2.470302000">
        <ele>411.00</ele>
        <time>2015-01-17T07:09:55Z</time>
      </trkpt>
      <trkpt lat="42.458182000" lon="-2.470452000">
        <ele>411.00</ele>
        <time>2015-01-17T07:09:59Z</time>
      </trkpt>
      <trkpt lat="42.458139000" lon="-2.470595000">
        <ele>411.00</ele>
        <time>2015-01-17T07:10:03Z</time>
      </trkpt>
      <trkpt lat="42.458082000" lon="-2.470715000">
        <ele>411.00</ele>
        <time>2015-01-17T07:10:07Z</time>
      </trkpt>
      <trkpt lat="42.458016000" lon="-2.470835000">
        <ele>411.00</ele>
        <time>2015-01-17T07:10:11Z</time>
      </trkpt>
      <trkpt lat="42.457950000" lon="-2.470955000">
        <ele>412.00</ele>
        <time>2015-01-17T07:10:15Z</time>
      </trkpt>
      <trkpt lat="42.457887000" lon="-2.471082000">
        <ele>412.00</ele>
        <time>2015-01-17T07:10:19Z</time>
      </trkpt>
      <trkpt lat="42.457857000" lon="-2.471155000">
        <ele>412.20</ele>
        <time>2015-01-17T07:10:22Z</time>
      </trkpt>
      <trkpt lat="42.457844000" lon="-2.471190000">
        <ele>412.30</ele>
        <time>2015-01-17T07:10:23Z</time>
      </trkpt>
      <trkpt lat="42.457834000" lon="-2.471222000">
        <ele>412.50</ele>
        <time>2015-01-17T07:10:24Z</time>
      </trkpt>
      <trkpt lat="42.457821000" lon="-2.471258000">
        <ele>412.50</ele>
        <time>2015-01-17T07:10:25Z</time>
      </trkpt>
      <trkpt lat="42.457807000" lon="-2.471294000">
        <ele>412.50</ele>
        <time>2015-01-17T07:10:26Z</time>
      </trkpt>
      <trkpt lat="42.457794000" lon="-2.471331000">
        <ele>412.50</ele>
        <time>2015-01-17T07:10:27Z</time>
      </trkpt>
      <trkpt lat="42.457783000" lon="-2.471364000">
        <ele>412.50</ele>
        <time>2015-01-17T07:10:28Z</time>
      </trkpt>
      <trkpt lat="42.457771000" lon="-2.471397000">
        <ele>412.50</ele>
        <time>2015-01-17T07:10:29Z</time>
      </trkpt>
      <trkpt lat="42.457757000" lon="-2.471429000">
        <ele>412.40</ele>
        <time>2015-01-17T07:10:30Z</time>
      </trkpt>
      <trkpt lat="42.457743000" lon="-2.471464000">
        <ele>412.40</ele>
        <time>2015-01-17T07:10:31Z</time>
      </trkpt>
      <trkpt lat="42.457730000" lon="-2.471502000">
        <ele>412.30</ele>
        <time>2015-01-17T07:10:32Z</time>
      </trkpt>
      <trkpt lat="42.457715000" lon="-2.471540000">
        <ele>412.60</ele>
        <time>2015-01-17T07:10:33Z</time>
      </trkpt>
      <trkpt lat="42.457702000" lon="-2.471585000">
        <ele>412.90</ele>
        <time>2015-01-17T07:10:34Z</time>
      </trkpt>
      <trkpt lat="42.457688000" lon="-2.471630000">
        <ele>413.00</ele>
        <time>2015-01-17T07:10:35Z</time>
      </trkpt>
      <trkpt lat="42.457678000" lon="-2.471674000">
        <ele>413.10</ele>
        <time>2015-01-17T07:10:36Z</time>
      </trkpt>
      <trkpt lat="42.457663000" lon="-2.471709000">
        <ele>413.20</ele>
        <time>2015-01-17T07:10:37Z</time>
      </trkpt>
      <trkpt lat="42.457652000" lon="-2.471744000">
        <ele>413.20</ele>
        <time>2015-01-17T07:10:38Z</time>
      </trkpt>
      <trkpt lat="42.457628000" lon="-2.471818000">
        <ele>413.10</ele>
        <time>2015-01-17T07:10:40Z</time>
      </trkpt>
      <trkpt lat="42.457616000" lon="-2.471856000">
        <ele>412.80</ele>
        <time>2015-01-17T07:10:41Z</time>
      </trkpt>
      <trkpt lat="42.457606000" lon="-2.471895000">
        <ele>412.60</ele>
        <time>2015-01-17T07:10:42Z</time>
      </trkpt>
      <trkpt lat="42.457585000" lon="-2.471933000">
        <ele>412.40</ele>
        <time>2015-01-17T07:10:43Z</time>
      </trkpt>
      <trkpt lat="42.457569000" lon="-2.471970000">
        <ele>412.20</ele>
        <time>2015-01-17T07:10:44Z</time>
      </trkpt>
      <trkpt lat="42.457547000" lon="-2.471999000">
        <ele>412.00</ele>
        <time>2015-01-17T07:10:45Z</time>
      </trkpt>
      <trkpt lat="42.457520000" lon="-2.472026000">
        <ele>411.80</ele>
        <time>2015-01-17T07:10:46Z</time>
      </trkpt>
      <trkpt lat="42.457493000" lon="-2.472043000">
        <ele>411.70</ele>
        <time>2015-01-17T07:10:47Z</time>
      </trkpt>
      <trkpt lat="42.457465000" lon="-2.472057000">
        <ele>411.60</ele>
        <time>2015-01-17T07:10:48Z</time>
      </trkpt>
      <trkpt lat="42.457439000" lon="-2.472070000">
        <ele>411.20</ele>
        <time>2015-01-17T07:10:49Z</time>
      </trkpt>
      <trkpt lat="42.457422000" lon="-2.472108000">
        <ele>411.00</ele>
        <time>2015-01-17T07:10:50Z</time>
      </trkpt>
      <trkpt lat="42.457406000" lon="-2.472141000">
        <ele>410.60</ele>
        <time>2015-01-17T07:10:51Z</time>
      </trkpt>
      <trkpt lat="42.457387000" lon="-2.472167000">
        <ele>410.40</ele>
        <time>2015-01-17T07:10:52Z</time>
      </trkpt>
      <trkpt lat="42.457378000" lon="-2.472206000">
        <ele>410.00</ele>
        <time>2015-01-17T07:10:53Z</time>
      </trkpt>
      <trkpt lat="42.457367000" lon="-2.472246000">
        <ele>409.80</ele>
        <time>2015-01-17T07:10:54Z</time>
      </trkpt>
      <trkpt lat="42.457359000" lon="-2.472292000">
        <ele>409.60</ele>
        <time>2015-01-17T07:10:55Z</time>
      </trkpt>
      <trkpt lat="42.457349000" lon="-2.472333000">
        <ele>409.50</ele>
        <time>2015-01-17T07:10:56Z</time>
      </trkpt>
      <trkpt lat="42.457339000" lon="-2.472372000">
        <ele>409.20</ele>
        <time>2015-01-17T07:10:57Z</time>
      </trkpt>
      <trkpt lat="42.457330000" lon="-2.472411000">
        <ele>409.10</ele>
        <time>2015-01-17T07:10:58Z</time>
      </trkpt>
      <trkpt lat="42.457325000" lon="-2.472454000">
        <ele>409.10</ele>
        <time>2015-01-17T07:10:59Z</time>
      </trkpt>
      <trkpt lat="42.457320000" lon="-2.472493000">
        <ele>409.20</ele>
        <time>2015-01-17T07:11:00Z</time>
      </trkpt>
      <trkpt lat="42.457311000" lon="-2.472530000">
        <ele>409.10</ele>
        <time>2015-01-17T07:11:01Z</time>
      </trkpt>
      <trkpt lat="42.457302000" lon="-2.472558000">
        <ele>409.00</ele>
        <time>2015-01-17T07:11:02Z</time>
      </trkpt>
      <trkpt lat="42.457295000" lon="-2.472593000">
        <ele>409.10</ele>
        <time>2015-01-17T07:11:03Z</time>
      </trkpt>
      <trkpt lat="42.457283000" lon="-2.472629000">
        <ele>409.10</ele>
        <time>2015-01-17T07:11:04Z</time>
      </trkpt>
      <trkpt lat="42.457273000" lon="-2.472661000">
        <ele>409.10</ele>
        <time>2015-01-17T07:11:05Z</time>
      </trkpt>
      <trkpt lat="42.457259000" lon="-2.472693000">
        <ele>409.20</ele>
        <time>2015-01-17T07:11:06Z</time>
      </trkpt>
      <trkpt lat="42.457244000" lon="-2.472719000">
        <ele>409.20</ele>
        <time>2015-01-17T07:11:07Z</time>
      </trkpt>
      <trkpt lat="42.457230000" lon="-2.472746000">
        <ele>409.20</ele>
        <time>2015-01-17T07:11:08Z</time>
      </trkpt>
      <trkpt lat="42.457215000" lon="-2.472768000">
        <ele>409.30</ele>
        <time>2015-01-17T07:11:09Z</time>
      </trkpt>
      <trkpt lat="42.457198000" lon="-2.472791000">
        <ele>409.40</ele>
        <time>2015-01-17T07:11:10Z</time>
      </trkpt>
      <trkpt lat="42.457182000" lon="-2.472811000">
        <ele>409.50</ele>
        <time>2015-01-17T07:11:11Z</time>
      </trkpt>
      <trkpt lat="42.457165000" lon="-2.472832000">
        <ele>409.60</ele>
        <time>2015-01-17T07:11:12Z</time>
      </trkpt>
      <trkpt lat="42.457150000" lon="-2.472853000">
        <ele>409.60</ele>
        <time>2015-01-17T07:11:13Z</time>
      </trkpt>
      <trkpt lat="42.457133000" lon="-2.472868000">
        <ele>409.60</ele>
        <time>2015-01-17T07:11:14Z</time>
      </trkpt>
      <trkpt lat="42.457113000" lon="-2.472877000">
        <ele>409.70</ele>
        <time>2015-01-17T07:11:15Z</time>
      </trkpt>
      <trkpt lat="42.457093000" lon="-2.472881000">
        <ele>409.80</ele>
        <time>2015-01-17T07:11:16Z</time>
      </trkpt>
      <trkpt lat="42.457078000" lon="-2.472880000">
        <ele>409.80</ele>
        <time>2015-01-17T07:11:17Z</time>
      </trkpt>
      <trkpt lat="42.457066000" lon="-2.472873000">
        <ele>409.90</ele>
        <time>2015-01-17T07:11:18Z</time>
      </trkpt>
      <trkpt lat="42.457052000" lon="-2.472867000">
        <ele>409.90</ele>
        <time>2015-01-17T07:11:19Z</time>
      </trkpt>
      <trkpt lat="42.457032000" lon="-2.472862000">
        <ele>409.90</ele>
        <time>2015-01-17T07:11:20Z</time>
      </trkpt>
      <trkpt lat="42.457013000" lon="-2.472849000">
        <ele>409.80</ele>
        <time>2015-01-17T07:11:21Z</time>
      </trkpt>
      <trkpt lat="42.456992000" lon="-2.472844000">
        <ele>409.80</ele>
        <time>2015-01-17T07:11:22Z</time>
      </trkpt>
      <trkpt lat="42.456974000" lon="-2.472836000">
        <ele>409.80</ele>
        <time>2015-01-17T07:11:23Z</time>
      </trkpt>
      <trkpt lat="42.456950000" lon="-2.472848000">
        <ele>409.70</ele>
        <time>2015-01-17T07:11:24Z</time>
      </trkpt>
      <trkpt lat="42.456921000" lon="-2.472866000">
        <ele>409.70</ele>
        <time>2015-01-17T07:11:25Z</time>
      </trkpt>
      <trkpt lat="42.456895000" lon="-2.472889000">
        <ele>409.70</ele>
        <time>2015-01-17T07:11:26Z</time>
      </trkpt>
      <trkpt lat="42.456872000" lon="-2.472909000">
        <ele>409.80</ele>
        <time>2015-01-17T07:11:27Z</time>
      </trkpt>
      <trkpt lat="42.456851000" lon="-2.472929000">
        <ele>409.90</ele>
        <time>2015-01-17T07:11:28Z</time>
      </trkpt>
      <trkpt lat="42.456829000" lon="-2.472945000">
        <ele>410.00</ele>
        <time>2015-01-17T07:11:29Z</time>
      </trkpt>
      <trkpt lat="42.456809000" lon="-2.472961000">
        <ele>410.00</ele>
        <time>2015-01-17T07:11:30Z</time>
      </trkpt>
      <trkpt lat="42.456789000" lon="-2.472981000">
        <ele>410.10</ele>
        <time>2015-01-17T07:11:31Z</time>
      </trkpt>
      <trkpt lat="42.456769000" lon="-2.473006000">
        <ele>410.20</ele>
        <time>2015-01-17T07:11:32Z</time>
      </trkpt>
      <trkpt lat="42.456750000" lon="-2.473033000">
        <ele>410.20</ele>
        <time>2015-01-17T07:11:33Z</time>
      </trkpt>
      <trkpt lat="42.456732000" lon="-2.473058000">
        <ele>410.20</ele>
        <time>2015-01-17T07:11:34Z</time>
      </trkpt>
      <trkpt lat="42.456716000" lon="-2.473084000">
        <ele>410.50</ele>
        <time>2015-01-17T07:11:35Z</time>
      </trkpt>
      <trkpt lat="42.456698000" lon="-2.473115000">
        <ele>410.70</ele>
        <time>2015-01-17T07:11:36Z</time>
      </trkpt>
      <trkpt lat="42.456680000" lon="-2.473143000">
        <ele>411.00</ele>
        <time>2015-01-17T07:11:37Z</time>
      </trkpt>
      <trkpt lat="42.456669000" lon="-2.473166000">
        <ele>411.20</ele>
        <time>2015-01-17T07:11:38Z</time>
      </trkpt>
      <trkpt lat="42.456656000" lon="-2.473196000">
        <ele>411.40</ele>
        <time>2015-01-17T07:11:39Z</time>
      </trkpt>
      <trkpt lat="42.456625000" lon="-2.473254000">
        <ele>411.70</ele>
        <time>2015-01-17T07:11:41Z</time>
      </trkpt>
      <trkpt lat="42.456611000" lon="-2.473281000">
        <ele>411.80</ele>
        <time>2015-01-17T07:11:42Z</time>
      </trkpt>
      <trkpt lat="42.456599000" lon="-2.473308000">
        <ele>411.80</ele>
        <time>2015-01-17T07:11:43Z</time>
      </trkpt>
      <trkpt lat="42.456588000" lon="-2.473338000">
        <ele>411.90</ele>
        <time>2015-01-17T07:11:44Z</time>
      </trkpt>
      <trkpt lat="42.456582000" lon="-2.473370000">
        <ele>412.10</ele>
        <time>2015-01-17T07:11:45Z</time>
      </trkpt>
      <trkpt lat="42.456577000" lon="-2.473395000">
        <ele>412.20</ele>
        <time>2015-01-17T07:11:46Z</time>
      </trkpt>
      <trkpt lat="42.456567000" lon="-2.473422000">
        <ele>412.30</ele>
        <time>2015-01-17T07:11:47Z</time>
      </trkpt>
      <trkpt lat="42.456556000" lon="-2.473453000">
        <ele>412.40</ele>
        <time>2015-01-17T07:11:48Z</time>
      </trkpt>
      <trkpt lat="42.456546000" lon="-2.473480000">
        <ele>412.60</ele>
        <time>2015-01-17T07:11:49Z</time>
      </trkpt>
      <trkpt lat="42.456540000" lon="-2.473506000">
        <ele>412.80</ele>
        <time>2015-01-17T07:11:50Z</time>
      </trkpt>
      <trkpt lat="42.456530000" lon="-2.473537000">
        <ele>412.90</ele>
        <time>2015-01-17T07:11:51Z</time>
      </trkpt>
      <trkpt lat="42.456521000" lon="-2.473569000">
        <ele>413.00</ele>
        <time>2015-01-17T07:11:52Z</time>
      </trkpt>
      <trkpt lat="42.456515000" lon="-2.473596000">
        <ele>413.10</ele>
        <time>2015-01-17T07:11:53Z</time>
      </trkpt>
      <trkpt lat="42.456506000" lon="-2.473624000">
        <ele>413.10</ele>
        <time>2015-01-17T07:11:54Z</time>
      </trkpt>
      <trkpt lat="42.456499000" lon="-2.473656000">
        <ele>413.20</ele>
        <time>2015-01-17T07:11:55Z</time>
      </trkpt>
      <trkpt lat="42.456492000" lon="-2.473685000">
        <ele>413.20</ele>
        <time>2015-01-17T07:11:56Z</time>
      </trkpt>
      <trkpt lat="42.456488000" lon="-2.473720000">
        <ele>413.30</ele>
        <time>2015-01-17T07:11:57Z</time>
      </trkpt>
      <trkpt lat="42.456482000" lon="-2.473753000">
        <ele>413.30</ele>
        <time>2015-01-17T07:11:58Z</time>
      </trkpt>
      <trkpt lat="42.456480000" lon="-2.473784000">
        <ele>413.40</ele>
        <time>2015-01-17T07:11:59Z</time>
      </trkpt>
      <trkpt lat="42.456476000" lon="-2.473812000">
        <ele>413.40</ele>
        <time>2015-01-17T07:12:00Z</time>
      </trkpt>
      <trkpt lat="42.456472000" lon="-2.473841000">
        <ele>413.40</ele>
        <time>2015-01-17T07:12:01Z</time>
      </trkpt>
      <trkpt lat="42.456469000" lon="-2.473872000">
        <ele>413.50</ele>
        <time>2015-01-17T07:12:02Z</time>
      </trkpt>
      <trkpt lat="42.456467000" lon="-2.473909000">
        <ele>413.50</ele>
        <time>2015-01-17T07:12:03Z</time>
      </trkpt>
      <trkpt lat="42.456462000" lon="-2.473941000">
        <ele>413.50</ele>
        <time>2015-01-17T07:12:04Z</time>
      </trkpt>
      <trkpt lat="42.456458000" lon="-2.473972000">
        <ele>413.70</ele>
        <time>2015-01-17T07:12:05Z</time>
      </trkpt>
      <trkpt lat="42.456456000" lon="-2.474001000">
        <ele>413.80</ele>
        <time>2015-01-17T07:12:06Z</time>
      </trkpt>
      <trkpt lat="42.456454000" lon="-2.474035000">
        <ele>414.10</ele>
        <time>2015-01-17T07:12:07Z</time>
      </trkpt>
      <trkpt lat="42.456450000" lon="-2.474071000">
        <ele>414.30</ele>
        <time>2015-01-17T07:12:08Z</time>
      </trkpt>
      <trkpt lat="42.456446000" lon="-2.474104000">
        <ele>414.50</ele>
        <time>2015-01-17T07:12:09Z</time>
      </trkpt>
      <trkpt lat="42.456444000" lon="-2.474136000">
        <ele>414.60</ele>
        <time>2015-01-17T07:12:10Z</time>
      </trkpt>
      <trkpt lat="42.456442000" lon="-2.474171000">
        <ele>414.60</ele>
        <time>2015-01-17T07:12:11Z</time>
      </trkpt>
      <trkpt lat="42.456437000" lon="-2.474198000">
        <ele>414.70</ele>
        <time>2015-01-17T07:12:12Z</time>
      </trkpt>
      <trkpt lat="42.456438000" lon="-2.474229000">
        <ele>414.60</ele>
        <time>2015-01-17T07:12:13Z</time>
      </trkpt>
      <trkpt lat="42.456435000" lon="-2.474263000">
        <ele>414.50</ele>
        <time>2015-01-17T07:12:14Z</time>
      </trkpt>
      <trkpt lat="42.456436000" lon="-2.474293000">
        <ele>414.40</ele>
        <time>2015-01-17T07:12:15Z</time>
      </trkpt>
      <trkpt lat="42.456437000" lon="-2.474323000">
        <ele>414.40</ele>
        <time>2015-01-17T07:12:16Z</time>
      </trkpt>
      <trkpt lat="42.456435000" lon="-2.474353000">
        <ele>414.70</ele>
        <time>2015-01-17T07:12:17Z</time>
      </trkpt>
      <trkpt lat="42.456435000" lon="-2.474379000">
        <ele>414.90</ele>
        <time>2015-01-17T07:12:18Z</time>
      </trkpt>
      <trkpt lat="42.456436000" lon="-2.474412000">
        <ele>415.10</ele>
        <time>2015-01-17T07:12:19Z</time>
      </trkpt>
      <trkpt lat="42.456435000" lon="-2.474448000">
        <ele>415.20</ele>
        <time>2015-01-17T07:12:20Z</time>
      </trkpt>
      <trkpt lat="42.456439000" lon="-2.474478000">
        <ele>415.30</ele>
        <time>2015-01-17T07:12:21Z</time>
      </trkpt>
      <trkpt lat="42.456434000" lon="-2.474509000">
        <ele>415.40</ele>
        <time>2015-01-17T07:12:22Z</time>
      </trkpt>
      <trkpt lat="42.456432000" lon="-2.474543000">
        <ele>415.60</ele>
        <time>2015-01-17T07:12:23Z</time>
      </trkpt>
      <trkpt lat="42.456430000" lon="-2.474571000">
        <ele>415.70</ele>
        <time>2015-01-17T07:12:24Z</time>
      </trkpt>
      <trkpt lat="42.456427000" lon="-2.474605000">
        <ele>415.80</ele>
        <time>2015-01-17T07:12:25Z</time>
      </trkpt>
      <trkpt lat="42.456424000" lon="-2.474643000">
        <ele>415.90</ele>
        <time>2015-01-17T07:12:26Z</time>
      </trkpt>
      <trkpt lat="42.456419000" lon="-2.474678000">
        <ele>416.00</ele>
        <time>2015-01-17T07:12:27Z</time>
      </trkpt>
      <trkpt lat="42.456415000" lon="-2.474712000">
        <ele>416.10</ele>
        <time>2015-01-17T07:12:28Z</time>
      </trkpt>
      <trkpt lat="42.456408000" lon="-2.474748000">
        <ele>416.20</ele>
        <time>2015-01-17T07:12:29Z</time>
      </trkpt>
      <trkpt lat="42.456400000" lon="-2.474781000">
        <ele>416.30</ele>
        <time>2015-01-17T07:12:30Z</time>
      </trkpt>
      <trkpt lat="42.456391000" lon="-2.474813000">
        <ele>416.30</ele>
        <time>2015-01-17T07:12:31Z</time>
      </trkpt>
      <trkpt lat="42.456382000" lon="-2.474843000">
        <ele>416.40</ele>
        <time>2015-01-17T07:12:32Z</time>
      </trkpt>
      <trkpt lat="42.456371000" lon="-2.474873000">
        <ele>416.40</ele>
        <time>2015-01-17T07:12:33Z</time>
      </trkpt>
      <trkpt lat="42.456360000" lon="-2.474901000">
        <ele>416.50</ele>
        <time>2015-01-17T07:12:34Z</time>
      </trkpt>
      <trkpt lat="42.456351000" lon="-2.474932000">
        <ele>416.60</ele>
        <time>2015-01-17T07:12:35Z</time>
      </trkpt>
      <trkpt lat="42.456342000" lon="-2.474965000">
        <ele>416.70</ele>
        <time>2015-01-17T07:12:36Z</time>
      </trkpt>
      <trkpt lat="42.456329000" lon="-2.474996000">
        <ele>416.80</ele>
        <time>2015-01-17T07:12:37Z</time>
      </trkpt>
      <trkpt lat="42.456317000" lon="-2.475029000">
        <ele>416.90</ele>
        <time>2015-01-17T07:12:38Z</time>
      </trkpt>
      <trkpt lat="42.456304000" lon="-2.475058000">
        <ele>416.90</ele>
        <time>2015-01-17T07:12:39Z</time>
      </trkpt>
      <trkpt lat="42.456289000" lon="-2.475087000">
        <ele>416.90</ele>
        <time>2015-01-17T07:12:40Z</time>
      </trkpt>
      <trkpt lat="42.456263000" lon="-2.475152000">
        <ele>417.10</ele>
        <time>2015-01-17T07:12:42Z</time>
      </trkpt>
      <trkpt lat="42.456248000" lon="-2.475184000">
        <ele>417.10</ele>
        <time>2015-01-17T07:12:43Z</time>
      </trkpt>
      <trkpt lat="42.456234000" lon="-2.475220000">
        <ele>417.10</ele>
        <time>2015-01-17T07:12:44Z</time>
      </trkpt>
      <trkpt lat="42.456222000" lon="-2.475255000">
        <ele>417.20</ele>
        <time>2015-01-17T07:12:45Z</time>
      </trkpt>
      <trkpt lat="42.456210000" lon="-2.475286000">
        <ele>417.20</ele>
        <time>2015-01-17T07:12:46Z</time>
      </trkpt>
      <trkpt lat="42.456195000" lon="-2.475319000">
        <ele>417.20</ele>
        <time>2015-01-17T07:12:47Z</time>
      </trkpt>
      <trkpt lat="42.456181000" lon="-2.475354000">
        <ele>417.30</ele>
        <time>2015-01-17T07:12:48Z</time>
      </trkpt>
      <trkpt lat="42.456164000" lon="-2.475383000">
        <ele>417.30</ele>
        <time>2015-01-17T07:12:49Z</time>
      </trkpt>
      <trkpt lat="42.456153000" lon="-2.475417000">
        <ele>417.40</ele>
        <time>2015-01-17T07:12:50Z</time>
      </trkpt>
      <trkpt lat="42.456141000" lon="-2.475452000">
        <ele>417.20</ele>
        <time>2015-01-17T07:12:51Z</time>
      </trkpt>
      <trkpt lat="42.456131000" lon="-2.475487000">
        <ele>417.10</ele>
        <time>2015-01-17T07:12:52Z</time>
      </trkpt>
      <trkpt lat="42.456119000" lon="-2.475528000">
        <ele>416.90</ele>
        <time>2015-01-17T07:12:53Z</time>
      </trkpt>
      <trkpt lat="42.456109000" lon="-2.475566000">
        <ele>416.70</ele>
        <time>2015-01-17T07:12:54Z</time>
      </trkpt>
      <trkpt lat="42.456104000" lon="-2.475605000">
        <ele>416.40</ele>
        <time>2015-01-17T07:12:55Z</time>
      </trkpt>
      <trkpt lat="42.456097000" lon="-2.475648000">
        <ele>416.10</ele>
        <time>2015-01-17T07:12:56Z</time>
      </trkpt>
      <trkpt lat="42.456094000" lon="-2.475690000">
        <ele>416.10</ele>
        <time>2015-01-17T07:12:57Z</time>
      </trkpt>
      <trkpt lat="42.456092000" lon="-2.475731000">
        <ele>416.00</ele>
        <time>2015-01-17T07:12:58Z</time>
      </trkpt>
      <trkpt lat="42.456086000" lon="-2.475768000">
        <ele>415.80</ele>
        <time>2015-01-17T07:12:59Z</time>
      </trkpt>
      <trkpt lat="42.456086000" lon="-2.475808000">
        <ele>415.70</ele>
        <time>2015-01-17T07:13:00Z</time>
      </trkpt>
      <trkpt lat="42.456086000" lon="-2.475851000">
        <ele>415.70</ele>
        <time>2015-01-17T07:13:01Z</time>
      </trkpt>
      <trkpt lat="42.456081000" lon="-2.475890000">
        <ele>415.80</ele>
        <time>2015-01-17T07:13:02Z</time>
      </trkpt>
      <trkpt lat="42.456080000" lon="-2.475929000">
        <ele>415.80</ele>
        <time>2015-01-17T07:13:03Z</time>
      </trkpt>
      <trkpt lat="42.456075000" lon="-2.475967000">
        <ele>415.70</ele>
        <time>2015-01-17T07:13:04Z</time>
      </trkpt>
      <trkpt lat="42.456067000" lon="-2.476002000">
        <ele>415.80</ele>
        <time>2015-01-17T07:13:05Z</time>
      </trkpt>
      <trkpt lat="42.456061000" lon="-2.476043000">
        <ele>415.80</ele>
        <time>2015-01-17T07:13:06Z</time>
      </trkpt>
      <trkpt lat="42.456056000" lon="-2.476086000">
        <ele>415.80</ele>
        <time>2015-01-17T07:13:07Z</time>
      </trkpt>
      <trkpt lat="42.456047000" lon="-2.476134000">
        <ele>415.70</ele>
        <time>2015-01-17T07:13:08Z</time>
      </trkpt>
      <trkpt lat="42.456041000" lon="-2.476184000">
        <ele>415.70</ele>
        <time>2015-01-17T07:13:09Z</time>
      </trkpt>
      <trkpt lat="42.456037000" lon="-2.476241000">
        <ele>415.70</ele>
        <time>2015-01-17T07:13:10Z</time>
      </trkpt>
      <trkpt lat="42.456027000" lon="-2.476300000">
        <ele>415.60</ele>
        <time>2015-01-17T07:13:11Z</time>
      </trkpt>
      <trkpt lat="42.456019000" lon="-2.476362000">
        <ele>415.50</ele>
        <time>2015-01-17T07:13:12Z</time>
      </trkpt>
      <trkpt lat="42.456005000" lon="-2.476424000">
        <ele>415.30</ele>
        <time>2015-01-17T07:13:13Z</time>
      </trkpt>
      <trkpt lat="42.455991000" lon="-2.476492000">
        <ele>415.10</ele>
        <time>2015-01-17T07:13:14Z</time>
      </trkpt>
      <trkpt lat="42.455978000" lon="-2.476564000">
        <ele>414.70</ele>
        <time>2015-01-17T07:13:15Z</time>
      </trkpt>
      <trkpt lat="42.455962000" lon="-2.476641000">
        <ele>414.40</ele>
        <time>2015-01-17T07:13:16Z</time>
      </trkpt>
      <trkpt lat="42.455946000" lon="-2.476724000">
        <ele>414.10</ele>
        <time>2015-01-17T07:13:17Z</time>
      </trkpt>
      <trkpt lat="42.455927000" lon="-2.476808000">
        <ele>413.90</ele>
        <time>2015-01-17T07:13:18Z</time>
      </trkpt>
      <trkpt lat="42.455908000" lon="-2.476891000">
        <ele>413.50</ele>
        <time>2015-01-17T07:13:19Z</time>
      </trkpt>
      <trkpt lat="42.455890000" lon="-2.476976000">
        <ele>413.20</ele>
        <time>2015-01-17T07:13:20Z</time>
      </trkpt>
      <trkpt lat="42.455868000" lon="-2.477053000">
        <ele>412.90</ele>
        <time>2015-01-17T07:13:21Z</time>
      </trkpt>
      <trkpt lat="42.455846000" lon="-2.477127000">
        <ele>412.60</ele>
        <time>2015-01-17T07:13:22Z</time>
      </trkpt>
      <trkpt lat="42.455825000" lon="-2.477199000">
        <ele>412.00</ele>
        <time>2015-01-17T07:13:23Z</time>
      </trkpt>
      <trkpt lat="42.455808000" lon="-2.477264000">
        <ele>411.50</ele>
        <time>2015-01-17T07:13:24Z</time>
      </trkpt>
      <trkpt lat="42.455788000" lon="-2.477321000">
        <ele>411.20</ele>
        <time>2015-01-17T07:13:25Z</time>
      </trkpt>
      <trkpt lat="42.455766000" lon="-2.477373000">
        <ele>410.90</ele>
        <time>2015-01-17T07:13:26Z</time>
      </trkpt>
      <trkpt lat="42.455737000" lon="-2.477412000">
        <ele>410.10</ele>
        <time>2015-01-17T07:13:27Z</time>
      </trkpt>
      <trkpt lat="42.455701000" lon="-2.477432000">
        <ele>409.50</ele>
        <time>2015-01-17T07:13:28Z</time>
      </trkpt>
      <trkpt lat="42.455666000" lon="-2.477431000">
        <ele>409.00</ele>
        <time>2015-01-17T07:13:29Z</time>
      </trkpt>
      <trkpt lat="42.455629000" lon="-2.477427000">
        <ele>408.60</ele>
        <time>2015-01-17T07:13:30Z</time>
      </trkpt>
      <trkpt lat="42.455589000" lon="-2.477422000">
        <ele>408.40</ele>
        <time>2015-01-17T07:13:31Z</time>
      </trkpt>
      <trkpt lat="42.455543000" lon="-2.477412000">
        <ele>408.20</ele>
        <time>2015-01-17T07:13:32Z</time>
      </trkpt>
      <trkpt lat="42.455494000" lon="-2.477402000">
        <ele>408.10</ele>
        <time>2015-01-17T07:13:33Z</time>
      </trkpt>
      <trkpt lat="42.455438000" lon="-2.477397000">
        <ele>408.00</ele>
        <time>2015-01-17T07:13:34Z</time>
      </trkpt>
      <trkpt lat="42.455387000" lon="-2.477398000">
        <ele>407.90</ele>
        <time>2015-01-17T07:13:35Z</time>
      </trkpt>
      <trkpt lat="42.455362000" lon="-2.477384000">
        <ele>407.90</ele>
        <time>2015-01-17T07:13:36Z</time>
      </trkpt>
      <trkpt lat="42.455336000" lon="-2.477408000">
        <ele>407.90</ele>
        <time>2015-01-17T07:13:37Z</time>
      </trkpt>
      <trkpt lat="42.455317000" lon="-2.477457000">
        <ele>407.80</ele>
        <time>2015-01-17T07:13:38Z</time>
      </trkpt>
      <trkpt lat="42.455306000" lon="-2.477512000">
        <ele>407.80</ele>
        <time>2015-01-17T07:13:39Z</time>
      </trkpt>
      <trkpt lat="42.455302000" lon="-2.477569000">
        <ele>407.70</ele>
        <time>2015-01-17T07:13:40Z</time>
      </trkpt>
      <trkpt lat="42.455299000" lon="-2.477623000">
        <ele>407.60</ele>
        <time>2015-01-17T07:13:41Z</time>
      </trkpt>
      <trkpt lat="42.455287000" lon="-2.477721000">
        <ele>407.50</ele>
        <time>2015-01-17T07:13:43Z</time>
      </trkpt>
      <trkpt lat="42.455287000" lon="-2.477767000">
        <ele>407.50</ele>
        <time>2015-01-17T07:13:44Z</time>
      </trkpt>
      <trkpt lat="42.455285000" lon="-2.477808000">
        <ele>407.40</ele>
        <time>2015-01-17T07:13:45Z</time>
      </trkpt>
      <trkpt lat="42.455277000" lon="-2.477854000">
        <ele>407.40</ele>
        <time>2015-01-17T07:13:46Z</time>
      </trkpt>
      <trkpt lat="42.455269000" lon="-2.477904000">
        <ele>407.50</ele>
        <time>2015-01-17T07:13:47Z</time>
      </trkpt>
      <trkpt lat="42.455261000" lon="-2.477950000">
        <ele>407.50</ele>
        <time>2015-01-17T07:13:48Z</time>
      </trkpt>
      <trkpt lat="42.455252000" lon="-2.478001000">
        <ele>407.80</ele>
        <time>2015-01-17T07:13:49Z</time>
      </trkpt>
      <trkpt lat="42.455242000" lon="-2.478048000">
        <ele>408.00</ele>
        <time>2015-01-17T07:13:50Z</time>
      </trkpt>
      <trkpt lat="42.455235000" lon="-2.478098000">
        <ele>408.30</ele>
        <time>2015-01-17T07:13:51Z</time>
      </trkpt>
      <trkpt lat="42.455225000" lon="-2.478146000">
        <ele>408.50</ele>
        <time>2015-01-17T07:13:52Z</time>
      </trkpt>
      <trkpt lat="42.455215000" lon="-2.478190000">
        <ele>408.80</ele>
        <time>2015-01-17T07:13:53Z</time>
      </trkpt>
      <trkpt lat="42.455205000" lon="-2.478237000">
        <ele>408.90</ele>
        <time>2015-01-17T07:13:54Z</time>
      </trkpt>
      <trkpt lat="42.455195000" lon="-2.478279000">
        <ele>409.10</ele>
        <time>2015-01-17T07:13:55Z</time>
      </trkpt>
      <trkpt lat="42.455186000" lon="-2.478327000">
        <ele>409.20</ele>
        <time>2015-01-17T07:13:56Z</time>
      </trkpt>
      <trkpt lat="42.455176000" lon="-2.478374000">
        <ele>409.30</ele>
        <time>2015-01-17T07:13:57Z</time>
      </trkpt>
      <trkpt lat="42.455168000" lon="-2.478421000">
        <ele>409.40</ele>
        <time>2015-01-17T07:13:58Z</time>
      </trkpt>
      <trkpt lat="42.455160000" lon="-2.478468000">
        <ele>409.60</ele>
        <time>2015-01-17T07:13:59Z</time>
      </trkpt>
      <trkpt lat="42.455151000" lon="-2.478518000">
        <ele>409.60</ele>
        <time>2015-01-17T07:14:00Z</time>
      </trkpt>
      <trkpt lat="42.455142000" lon="-2.478565000">
        <ele>409.80</ele>
        <time>2015-01-17T07:14:01Z</time>
      </trkpt>
      <trkpt lat="42.455133000" lon="-2.478613000">
        <ele>409.90</ele>
        <time>2015-01-17T07:14:02Z</time>
      </trkpt>
      <trkpt lat="42.455128000" lon="-2.478659000">
        <ele>410.00</ele>
        <time>2015-01-17T07:14:03Z</time>
      </trkpt>
      <trkpt lat="42.455121000" lon="-2.478704000">
        <ele>410.10</ele>
        <time>2015-01-17T07:14:04Z</time>
      </trkpt>
      <trkpt lat="42.455113000" lon="-2.478753000">
        <ele>410.20</ele>
        <time>2015-01-17T07:14:05Z</time>
      </trkpt>
      <trkpt lat="42.455104000" lon="-2.478801000">
        <ele>410.30</ele>
        <time>2015-01-17T07:14:06Z</time>
      </trkpt>
      <trkpt lat="42.455096000" lon="-2.478848000">
        <ele>410.10</ele>
        <time>2015-01-17T07:14:07Z</time>
      </trkpt>
      <trkpt lat="42.455089000" lon="-2.478895000">
        <ele>410.00</ele>
        <time>2015-01-17T07:14:08Z</time>
      </trkpt>
      <trkpt lat="42.455083000" lon="-2.478942000">
        <ele>409.90</ele>
        <time>2015-01-17T07:14:09Z</time>
      </trkpt>
      <trkpt lat="42.455077000" lon="-2.478992000">
        <ele>409.80</ele>
        <time>2015-01-17T07:14:10Z</time>
      </trkpt>
      <trkpt lat="42.455068000" lon="-2.479041000">
        <ele>409.80</ele>
        <time>2015-01-17T07:14:11Z</time>
      </trkpt>
      <trkpt lat="42.455063000" lon="-2.479089000">
        <ele>409.80</ele>
        <time>2015-01-17T07:14:12Z</time>
      </trkpt>
      <trkpt lat="42.455060000" lon="-2.479136000">
        <ele>409.70</ele>
        <time>2015-01-17T07:14:13Z</time>
      </trkpt>
      <trkpt lat="42.455058000" lon="-2.479180000">
        <ele>409.70</ele>
        <time>2015-01-17T07:14:14Z</time>
      </trkpt>
      <trkpt lat="42.455055000" lon="-2.479222000">
        <ele>409.70</ele>
        <time>2015-01-17T07:14:15Z</time>
      </trkpt>
      <trkpt lat="42.455050000" lon="-2.479260000">
        <ele>409.70</ele>
        <time>2015-01-17T07:14:16Z</time>
      </trkpt>
      <trkpt lat="42.455047000" lon="-2.479305000">
        <ele>409.70</ele>
        <time>2015-01-17T07:14:17Z</time>
      </trkpt>
      <trkpt lat="42.455039000" lon="-2.479351000">
        <ele>409.70</ele>
        <time>2015-01-17T07:14:18Z</time>
      </trkpt>
      <trkpt lat="42.455031000" lon="-2.479400000">
        <ele>409.70</ele>
        <time>2015-01-17T07:14:19Z</time>
      </trkpt>
      <trkpt lat="42.455024000" lon="-2.479447000">
        <ele>409.70</ele>
        <time>2015-01-17T07:14:20Z</time>
      </trkpt>
      <trkpt lat="42.455016000" lon="-2.479494000">
        <ele>409.60</ele>
        <time>2015-01-17T07:14:21Z</time>
      </trkpt>
      <trkpt lat="42.455006000" lon="-2.479540000">
        <ele>409.60</ele>
        <time>2015-01-17T07:14:22Z</time>
      </trkpt>
      <trkpt lat="42.454996000" lon="-2.479586000">
        <ele>409.60</ele>
        <time>2015-01-17T07:14:23Z</time>
      </trkpt>
      <trkpt lat="42.454986000" lon="-2.479629000">
        <ele>409.60</ele>
        <time>2015-01-17T07:14:24Z</time>
      </trkpt>
      <trkpt lat="42.454974000" lon="-2.479672000">
        <ele>409.60</ele>
        <time>2015-01-17T07:14:25Z</time>
      </trkpt>
      <trkpt lat="42.454957000" lon="-2.479714000">
        <ele>409.60</ele>
        <time>2015-01-17T07:14:26Z</time>
      </trkpt>
      <trkpt lat="42.454939000" lon="-2.479749000">
        <ele>409.70</ele>
        <time>2015-01-17T07:14:27Z</time>
      </trkpt>
      <trkpt lat="42.454918000" lon="-2.479784000">
        <ele>409.70</ele>
        <time>2015-01-17T07:14:28Z</time>
      </trkpt>
      <trkpt lat="42.454898000" lon="-2.479820000">
        <ele>409.90</ele>
        <time>2015-01-17T07:14:29Z</time>
      </trkpt>
      <trkpt lat="42.454876000" lon="-2.479852000">
        <ele>410.10</ele>
        <time>2015-01-17T07:14:30Z</time>
      </trkpt>
      <trkpt lat="42.454854000" lon="-2.479887000">
        <ele>410.20</ele>
        <time>2015-01-17T07:14:31Z</time>
      </trkpt>
      <trkpt lat="42.454832000" lon="-2.479923000">
        <ele>410.30</ele>
        <time>2015-01-17T07:14:32Z</time>
      </trkpt>
      <trkpt lat="42.454811000" lon="-2.479960000">
        <ele>410.30</ele>
        <time>2015-01-17T07:14:33Z</time>
      </trkpt>
      <trkpt lat="42.454788000" lon="-2.479996000">
        <ele>410.30</ele>
        <time>2015-01-17T07:14:34Z</time>
      </trkpt>
      <trkpt lat="42.454766000" lon="-2.480028000">
        <ele>410.20</ele>
        <time>2015-01-17T07:14:35Z</time>
      </trkpt>
      <trkpt lat="42.454745000" lon="-2.480062000">
        <ele>410.10</ele>
        <time>2015-01-17T07:14:36Z</time>
      </trkpt>
      <trkpt lat="42.454726000" lon="-2.480100000">
        <ele>410.00</ele>
        <time>2015-01-17T07:14:37Z</time>
      </trkpt>
      <trkpt lat="42.454709000" lon="-2.480142000">
        <ele>410.00</ele>
        <time>2015-01-17T07:14:38Z</time>
      </trkpt>
      <trkpt lat="42.454693000" lon="-2.480183000">
        <ele>410.10</ele>
        <time>2015-01-17T07:14:39Z</time>
      </trkpt>
      <trkpt lat="42.454675000" lon="-2.480223000">
        <ele>410.10</ele>
        <time>2015-01-17T07:14:40Z</time>
      </trkpt>
      <trkpt lat="42.454654000" lon="-2.480260000">
        <ele>410.20</ele>
        <time>2015-01-17T07:14:41Z</time>
      </trkpt>
      <trkpt lat="42.454632000" lon="-2.480294000">
        <ele>410.30</ele>
        <time>2015-01-17T07:14:42Z</time>
      </trkpt>
      <trkpt lat="42.454597000" lon="-2.480365000">
        <ele>410.50</ele>
        <time>2015-01-17T07:14:44Z</time>
      </trkpt>
      <trkpt lat="42.454580000" lon="-2.480402000">
        <ele>410.60</ele>
        <time>2015-01-17T07:14:45Z</time>
      </trkpt>
      <trkpt lat="42.454562000" lon="-2.480437000">
        <ele>410.60</ele>
        <time>2015-01-17T07:14:46Z</time>
      </trkpt>
      <trkpt lat="42.454542000" lon="-2.480475000">
        <ele>410.70</ele>
        <time>2015-01-17T07:14:47Z</time>
      </trkpt>
      <trkpt lat="42.454525000" lon="-2.480513000">
        <ele>410.70</ele>
        <time>2015-01-17T07:14:48Z</time>
      </trkpt>
      <trkpt lat="42.454506000" lon="-2.480548000">
        <ele>410.60</ele>
        <time>2015-01-17T07:14:49Z</time>
      </trkpt>
      <trkpt lat="42.454489000" lon="-2.480581000">
        <ele>410.60</ele>
        <time>2015-01-17T07:14:50Z</time>
      </trkpt>
      <trkpt lat="42.454471000" lon="-2.480615000">
        <ele>410.60</ele>
        <time>2015-01-17T07:14:51Z</time>
      </trkpt>
      <trkpt lat="42.454451000" lon="-2.480654000">
        <ele>410.60</ele>
        <time>2015-01-17T07:14:52Z</time>
      </trkpt>
      <trkpt lat="42.454432000" lon="-2.480691000">
        <ele>410.60</ele>
        <time>2015-01-17T07:14:53Z</time>
      </trkpt>
      <trkpt lat="42.454411000" lon="-2.480725000">
        <ele>410.50</ele>
        <time>2015-01-17T07:14:54Z</time>
      </trkpt>
      <trkpt lat="42.454394000" lon="-2.480761000">
        <ele>410.50</ele>
        <time>2015-01-17T07:14:55Z</time>
      </trkpt>
      <trkpt lat="42.454378000" lon="-2.480799000">
        <ele>410.40</ele>
        <time>2015-01-17T07:14:56Z</time>
      </trkpt>
      <trkpt lat="42.454359000" lon="-2.480836000">
        <ele>410.60</ele>
        <time>2015-01-17T07:14:57Z</time>
      </trkpt>
      <trkpt lat="42.454340000" lon="-2.480876000">
        <ele>410.70</ele>
        <time>2015-01-17T07:14:58Z</time>
      </trkpt>
      <trkpt lat="42.454321000" lon="-2.480911000">
        <ele>410.60</ele>
        <time>2015-01-17T07:14:59Z</time>
      </trkpt>
      <trkpt lat="42.454304000" lon="-2.480946000">
        <ele>410.50</ele>
        <time>2015-01-17T07:15:00Z</time>
      </trkpt>
      <trkpt lat="42.454287000" lon="-2.480979000">
        <ele>410.60</ele>
        <time>2015-01-17T07:15:01Z</time>
      </trkpt>
      <trkpt lat="42.454268000" lon="-2.481013000">
        <ele>410.70</ele>
        <time>2015-01-17T07:15:02Z</time>
      </trkpt>
      <trkpt lat="42.454248000" lon="-2.481051000">
        <ele>410.80</ele>
        <time>2015-01-17T07:15:03Z</time>
      </trkpt>
      <trkpt lat="42.454233000" lon="-2.481085000">
        <ele>410.80</ele>
        <time>2015-01-17T07:15:04Z</time>
      </trkpt>
      <trkpt lat="42.454217000" lon="-2.481123000">
        <ele>410.80</ele>
        <time>2015-01-17T07:15:05Z</time>
      </trkpt>
      <trkpt lat="42.454200000" lon="-2.481157000">
        <ele>410.90</ele>
        <time>2015-01-17T07:15:06Z</time>
      </trkpt>
      <trkpt lat="42.454181000" lon="-2.481192000">
        <ele>410.90</ele>
        <time>2015-01-17T07:15:07Z</time>
      </trkpt>
      <trkpt lat="42.454164000" lon="-2.481231000">
        <ele>410.90</ele>
        <time>2015-01-17T07:15:08Z</time>
      </trkpt>
      <trkpt lat="42.454146000" lon="-2.481268000">
        <ele>410.90</ele>
        <time>2015-01-17T07:15:09Z</time>
      </trkpt>
      <trkpt lat="42.454126000" lon="-2.481308000">
        <ele>410.80</ele>
        <time>2015-01-17T07:15:10Z</time>
      </trkpt>
      <trkpt lat="42.454106000" lon="-2.481347000">
        <ele>410.80</ele>
        <time>2015-01-17T07:15:11Z</time>
      </trkpt>
      <trkpt lat="42.454091000" lon="-2.481385000">
        <ele>410.80</ele>
        <time>2015-01-17T07:15:12Z</time>
      </trkpt>
      <trkpt lat="42.454073000" lon="-2.481420000">
        <ele>410.70</ele>
        <time>2015-01-17T07:15:13Z</time>
      </trkpt>
      <trkpt lat="42.454060000" lon="-2.481458000">
        <ele>410.60</ele>
        <time>2015-01-17T07:15:14Z</time>
      </trkpt>
      <trkpt lat="42.454041000" lon="-2.481496000">
        <ele>410.60</ele>
        <time>2015-01-17T07:15:15Z</time>
      </trkpt>
      <trkpt lat="42.454023000" lon="-2.481538000">
        <ele>410.50</ele>
        <time>2015-01-17T07:15:16Z</time>
      </trkpt>
      <trkpt lat="42.454006000" lon="-2.481581000">
        <ele>410.50</ele>
        <time>2015-01-17T07:15:17Z</time>
      </trkpt>
      <trkpt lat="42.453990000" lon="-2.481625000">
        <ele>410.50</ele>
        <time>2015-01-17T07:15:18Z</time>
      </trkpt>
      <trkpt lat="42.453973000" lon="-2.481668000">
        <ele>410.60</ele>
        <time>2015-01-17T07:15:19Z</time>
      </trkpt>
      <trkpt lat="42.453956000" lon="-2.481712000">
        <ele>410.70</ele>
        <time>2015-01-17T07:15:20Z</time>
      </trkpt>
      <trkpt lat="42.453942000" lon="-2.481752000">
        <ele>410.80</ele>
        <time>2015-01-17T07:15:21Z</time>
      </trkpt>
      <trkpt lat="42.453928000" lon="-2.481789000">
        <ele>410.90</ele>
        <time>2015-01-17T07:15:22Z</time>
      </trkpt>
      <trkpt lat="42.453913000" lon="-2.481824000">
        <ele>410.90</ele>
        <time>2015-01-17T07:15:23Z</time>
      </trkpt>
      <trkpt lat="42.453898000" lon="-2.481866000">
        <ele>410.90</ele>
        <time>2015-01-17T07:15:24Z</time>
      </trkpt>
      <trkpt lat="42.453881000" lon="-2.481902000">
        <ele>410.90</ele>
        <time>2015-01-17T07:15:25Z</time>
      </trkpt>
      <trkpt lat="42.453866000" lon="-2.481941000">
        <ele>410.80</ele>
        <time>2015-01-17T07:15:26Z</time>
      </trkpt>
      <trkpt lat="42.453851000" lon="-2.481977000">
        <ele>410.80</ele>
        <time>2015-01-17T07:15:27Z</time>
      </trkpt>
      <trkpt lat="42.453837000" lon="-2.482012000">
        <ele>410.80</ele>
        <time>2015-01-17T07:15:28Z</time>
      </trkpt>
      <trkpt lat="42.453826000" lon="-2.482053000">
        <ele>410.60</ele>
        <time>2015-01-17T07:15:29Z</time>
      </trkpt>
      <trkpt lat="42.453814000" lon="-2.482098000">
        <ele>410.50</ele>
        <time>2015-01-17T07:15:30Z</time>
      </trkpt>
      <trkpt lat="42.453802000" lon="-2.482143000">
        <ele>410.60</ele>
        <time>2015-01-17T07:15:31Z</time>
      </trkpt>
      <trkpt lat="42.453788000" lon="-2.482186000">
        <ele>410.70</ele>
        <time>2015-01-17T07:15:32Z</time>
      </trkpt>
      <trkpt lat="42.453774000" lon="-2.482226000">
        <ele>410.60</ele>
        <time>2015-01-17T07:15:33Z</time>
      </trkpt>
      <trkpt lat="42.453762000" lon="-2.482269000">
        <ele>410.60</ele>
        <time>2015-01-17T07:15:34Z</time>
      </trkpt>
      <trkpt lat="42.453751000" lon="-2.482309000">
        <ele>410.60</ele>
        <time>2015-01-17T07:15:35Z</time>
      </trkpt>
      <trkpt lat="42.453739000" lon="-2.482352000">
        <ele>410.60</ele>
        <time>2015-01-17T07:15:36Z</time>
      </trkpt>
      <trkpt lat="42.453727000" lon="-2.482397000">
        <ele>410.60</ele>
        <time>2015-01-17T07:15:37Z</time>
      </trkpt>
      <trkpt lat="42.453715000" lon="-2.482435000">
        <ele>410.60</ele>
        <time>2015-01-17T07:15:38Z</time>
      </trkpt>
      <trkpt lat="42.453701000" lon="-2.482477000">
        <ele>410.60</ele>
        <time>2015-01-17T07:15:39Z</time>
      </trkpt>
      <trkpt lat="42.453687000" lon="-2.482516000">
        <ele>410.60</ele>
        <time>2015-01-17T07:15:40Z</time>
      </trkpt>
      <trkpt lat="42.453673000" lon="-2.482555000">
        <ele>410.50</ele>
        <time>2015-01-17T07:15:41Z</time>
      </trkpt>
      <trkpt lat="42.453659000" lon="-2.482596000">
        <ele>410.50</ele>
        <time>2015-01-17T07:15:42Z</time>
      </trkpt>
      <trkpt lat="42.453646000" lon="-2.482641000">
        <ele>410.50</ele>
        <time>2015-01-17T07:15:43Z</time>
      </trkpt>
      <trkpt lat="42.453626000" lon="-2.482715000">
        <ele>410.40</ele>
        <time>2015-01-17T07:15:45Z</time>
      </trkpt>
      <trkpt lat="42.453613000" lon="-2.482754000">
        <ele>410.40</ele>
        <time>2015-01-17T07:15:46Z</time>
      </trkpt>
      <trkpt lat="42.453599000" lon="-2.482794000">
        <ele>410.50</ele>
        <time>2015-01-17T07:15:47Z</time>
      </trkpt>
      <trkpt lat="42.453586000" lon="-2.482830000">
        <ele>410.60</ele>
        <time>2015-01-17T07:15:48Z</time>
      </trkpt>
      <trkpt lat="42.453574000" lon="-2.482866000">
        <ele>410.70</ele>
        <time>2015-01-17T07:15:49Z</time>
      </trkpt>
      <trkpt lat="42.453562000" lon="-2.482909000">
        <ele>410.70</ele>
        <time>2015-01-17T07:15:50Z</time>
      </trkpt>
      <trkpt lat="42.453549000" lon="-2.482952000">
        <ele>410.80</ele>
        <time>2015-01-17T07:15:51Z</time>
      </trkpt>
      <trkpt lat="42.453538000" lon="-2.482992000">
        <ele>410.80</ele>
        <time>2015-01-17T07:15:52Z</time>
      </trkpt>
      <trkpt lat="42.453529000" lon="-2.483031000">
        <ele>410.80</ele>
        <time>2015-01-17T07:15:53Z</time>
      </trkpt>
      <trkpt lat="42.453520000" lon="-2.483073000">
        <ele>410.80</ele>
        <time>2015-01-17T07:15:54Z</time>
      </trkpt>
      <trkpt lat="42.453509000" lon="-2.483117000">
        <ele>410.70</ele>
        <time>2015-01-17T07:15:55Z</time>
      </trkpt>
      <trkpt lat="42.453500000" lon="-2.483162000">
        <ele>410.60</ele>
        <time>2015-01-17T07:15:56Z</time>
      </trkpt>
      <trkpt lat="42.453491000" lon="-2.483206000">
        <ele>410.60</ele>
        <time>2015-01-17T07:15:57Z</time>
      </trkpt>
      <trkpt lat="42.453481000" lon="-2.483255000">
        <ele>410.60</ele>
        <time>2015-01-17T07:15:58Z</time>
      </trkpt>
      <trkpt lat="42.453471000" lon="-2.483302000">
        <ele>410.60</ele>
        <time>2015-01-17T07:15:59Z</time>
      </trkpt>
      <trkpt lat="42.453461000" lon="-2.483349000">
        <ele>410.50</ele>
        <time>2015-01-17T07:16:00Z</time>
      </trkpt>
      <trkpt lat="42.453456000" lon="-2.483391000">
        <ele>410.50</ele>
        <time>2015-01-17T07:16:01Z</time>
      </trkpt>
      <trkpt lat="42.453452000" lon="-2.483433000">
        <ele>410.50</ele>
        <time>2015-01-17T07:16:02Z</time>
      </trkpt>
      <trkpt lat="42.453450000" lon="-2.483475000">
        <ele>410.50</ele>
        <time>2015-01-17T07:16:03Z</time>
      </trkpt>
      <trkpt lat="42.453444000" lon="-2.483518000">
        <ele>410.50</ele>
        <time>2015-01-17T07:16:04Z</time>
      </trkpt>
      <trkpt lat="42.453438000" lon="-2.483562000">
        <ele>410.50</ele>
        <time>2015-01-17T07:16:05Z</time>
      </trkpt>
      <trkpt lat="42.453431000" lon="-2.483603000">
        <ele>410.50</ele>
        <time>2015-01-17T07:16:06Z</time>
      </trkpt>
      <trkpt lat="42.453422000" lon="-2.483649000">
        <ele>410.50</ele>
        <time>2015-01-17T07:16:07Z</time>
      </trkpt>
      <trkpt lat="42.453414000" lon="-2.483693000">
        <ele>410.50</ele>
        <time>2015-01-17T07:16:08Z</time>
      </trkpt>
      <trkpt lat="42.453406000" lon="-2.483739000">
        <ele>410.60</ele>
        <time>2015-01-17T07:16:09Z</time>
      </trkpt>
      <trkpt lat="42.453399000" lon="-2.483786000">
        <ele>410.60</ele>
        <time>2015-01-17T07:16:10Z</time>
      </trkpt>
      <trkpt lat="42.453393000" lon="-2.483831000">
        <ele>410.70</ele>
        <time>2015-01-17T07:16:11Z</time>
      </trkpt>
      <trkpt lat="42.453385000" lon="-2.483875000">
        <ele>410.70</ele>
        <time>2015-01-17T07:16:12Z</time>
      </trkpt>
      <trkpt lat="42.453376000" lon="-2.483919000">
        <ele>410.70</ele>
        <time>2015-01-17T07:16:13Z</time>
      </trkpt>
      <trkpt lat="42.453367000" lon="-2.483962000">
        <ele>410.70</ele>
        <time>2015-01-17T07:16:14Z</time>
      </trkpt>
      <trkpt lat="42.453360000" lon="-2.484006000">
        <ele>410.70</ele>
        <time>2015-01-17T07:16:15Z</time>
      </trkpt>
      <trkpt lat="42.453353000" lon="-2.484050000">
        <ele>410.80</ele>
        <time>2015-01-17T07:16:16Z</time>
      </trkpt>
      <trkpt lat="42.453347000" lon="-2.484096000">
        <ele>410.80</ele>
        <time>2015-01-17T07:16:17Z</time>
      </trkpt>
      <trkpt lat="42.453342000" lon="-2.484142000">
        <ele>410.80</ele>
        <time>2015-01-17T07:16:18Z</time>
      </trkpt>
      <trkpt lat="42.453336000" lon="-2.484186000">
        <ele>410.70</ele>
        <time>2015-01-17T07:16:19Z</time>
      </trkpt>
      <trkpt lat="42.453332000" lon="-2.484227000">
        <ele>410.70</ele>
        <time>2015-01-17T07:16:20Z</time>
      </trkpt>
      <trkpt lat="42.453326000" lon="-2.484271000">
        <ele>410.60</ele>
        <time>2015-01-17T07:16:21Z</time>
      </trkpt>
      <trkpt lat="42.453322000" lon="-2.484318000">
        <ele>410.60</ele>
        <time>2015-01-17T07:16:22Z</time>
      </trkpt>
      <trkpt lat="42.453315000" lon="-2.484357000">
        <ele>410.80</ele>
        <time>2015-01-17T07:16:23Z</time>
      </trkpt>
      <trkpt lat="42.453310000" lon="-2.484400000">
        <ele>411.00</ele>
        <time>2015-01-17T07:16:24Z</time>
      </trkpt>
      <trkpt lat="42.453302000" lon="-2.484443000">
        <ele>411.10</ele>
        <time>2015-01-17T07:16:25Z</time>
      </trkpt>
      <trkpt lat="42.453295000" lon="-2.484490000">
        <ele>411.20</ele>
        <time>2015-01-17T07:16:26Z</time>
      </trkpt>
      <trkpt lat="42.453288000" lon="-2.484537000">
        <ele>411.10</ele>
        <time>2015-01-17T07:16:27Z</time>
      </trkpt>
      <trkpt lat="42.453281000" lon="-2.484580000">
        <ele>411.00</ele>
        <time>2015-01-17T07:16:28Z</time>
      </trkpt>
      <trkpt lat="42.453274000" lon="-2.484623000">
        <ele>410.90</ele>
        <time>2015-01-17T07:16:29Z</time>
      </trkpt>
      <trkpt lat="42.453268000" lon="-2.484663000">
        <ele>410.80</ele>
        <time>2015-01-17T07:16:30Z</time>
      </trkpt>
      <trkpt lat="42.453260000" lon="-2.484706000">
        <ele>410.80</ele>
        <time>2015-01-17T07:16:31Z</time>
      </trkpt>
      <trkpt lat="42.453254000" lon="-2.484748000">
        <ele>410.80</ele>
        <time>2015-01-17T07:16:32Z</time>
      </trkpt>
      <trkpt lat="42.453248000" lon="-2.484790000">
        <ele>410.80</ele>
        <time>2015-01-17T07:16:33Z</time>
      </trkpt>
      <trkpt lat="42.453241000" lon="-2.484833000">
        <ele>410.70</ele>
        <time>2015-01-17T07:16:34Z</time>
      </trkpt>
      <trkpt lat="42.453236000" lon="-2.484876000">
        <ele>410.90</ele>
        <time>2015-01-17T07:16:35Z</time>
      </trkpt>
      <trkpt lat="42.453229000" lon="-2.484920000">
        <ele>411.10</ele>
        <time>2015-01-17T07:16:36Z</time>
      </trkpt>
      <trkpt lat="42.453219000" lon="-2.484964000">
        <ele>411.20</ele>
        <time>2015-01-17T07:16:37Z</time>
      </trkpt>
      <trkpt lat="42.453214000" lon="-2.485006000">
        <ele>411.20</ele>
        <time>2015-01-17T07:16:38Z</time>
      </trkpt>
      <trkpt lat="42.453207000" lon="-2.485050000">
        <ele>411.20</ele>
        <time>2015-01-17T07:16:39Z</time>
      </trkpt>
      <trkpt lat="42.453201000" lon="-2.485093000">
        <ele>411.10</ele>
        <time>2015-01-17T07:16:40Z</time>
      </trkpt>
      <trkpt lat="42.453197000" lon="-2.485137000">
        <ele>410.90</ele>
        <time>2015-01-17T07:16:41Z</time>
      </trkpt>
      <trkpt lat="42.453193000" lon="-2.485180000">
        <ele>410.80</ele>
        <time>2015-01-17T07:16:42Z</time>
      </trkpt>
      <trkpt lat="42.453188000" lon="-2.485225000">
        <ele>410.70</ele>
        <time>2015-01-17T07:16:43Z</time>
      </trkpt>
      <trkpt lat="42.453183000" lon="-2.485271000">
        <ele>410.60</ele>
        <time>2015-01-17T07:16:44Z</time>
      </trkpt>
      <trkpt lat="42.453174000" lon="-2.485364000">
        <ele>410.60</ele>
        <time>2015-01-17T07:16:46Z</time>
      </trkpt>
      <trkpt lat="42.453167000" lon="-2.485410000">
        <ele>410.70</ele>
        <time>2015-01-17T07:16:47Z</time>
      </trkpt>
      <trkpt lat="42.453160000" lon="-2.485453000">
        <ele>410.80</ele>
        <time>2015-01-17T07:16:48Z</time>
      </trkpt>
      <trkpt lat="42.453154000" lon="-2.485498000">
        <ele>410.90</ele>
        <time>2015-01-17T07:16:49Z</time>
      </trkpt>
      <trkpt lat="42.453148000" lon="-2.485543000">
        <ele>410.90</ele>
        <time>2015-01-17T07:16:50Z</time>
      </trkpt>
      <trkpt lat="42.453137000" lon="-2.485589000">
        <ele>410.70</ele>
        <time>2015-01-17T07:16:51Z</time>
      </trkpt>
      <trkpt lat="42.453132000" lon="-2.485633000">
        <ele>410.60</ele>
        <time>2015-01-17T07:16:52Z</time>
      </trkpt>
      <trkpt lat="42.453126000" lon="-2.485676000">
        <ele>410.50</ele>
        <time>2015-01-17T07:16:53Z</time>
      </trkpt>
      <trkpt lat="42.453122000" lon="-2.485720000">
        <ele>410.40</ele>
        <time>2015-01-17T07:16:54Z</time>
      </trkpt>
      <trkpt lat="42.453115000" lon="-2.485766000">
        <ele>410.50</ele>
        <time>2015-01-17T07:16:55Z</time>
      </trkpt>
      <trkpt lat="42.453112000" lon="-2.485812000">
        <ele>410.60</ele>
        <time>2015-01-17T07:16:56Z</time>
      </trkpt>
      <trkpt lat="42.453107000" lon="-2.485858000">
        <ele>410.70</ele>
        <time>2015-01-17T07:16:57Z</time>
      </trkpt>
      <trkpt lat="42.453103000" lon="-2.485901000">
        <ele>410.70</ele>
        <time>2015-01-17T07:16:58Z</time>
      </trkpt>
      <trkpt lat="42.453098000" lon="-2.485944000">
        <ele>410.70</ele>
        <time>2015-01-17T07:16:59Z</time>
      </trkpt>
      <trkpt lat="42.453096000" lon="-2.485987000">
        <ele>410.70</ele>
        <time>2015-01-17T07:17:00Z</time>
      </trkpt>
      <trkpt lat="42.453093000" lon="-2.486031000">
        <ele>410.70</ele>
        <time>2015-01-17T07:17:01Z</time>
      </trkpt>
      <trkpt lat="42.453089000" lon="-2.486078000">
        <ele>410.60</ele>
        <time>2015-01-17T07:17:02Z</time>
      </trkpt>
      <trkpt lat="42.453086000" lon="-2.486122000">
        <ele>410.80</ele>
        <time>2015-01-17T07:17:03Z</time>
      </trkpt>
      <trkpt lat="42.453082000" lon="-2.486165000">
        <ele>410.90</ele>
        <time>2015-01-17T07:17:04Z</time>
      </trkpt>
      <trkpt lat="42.453080000" lon="-2.486211000">
        <ele>410.90</ele>
        <time>2015-01-17T07:17:05Z</time>
      </trkpt>
      <trkpt lat="42.453076000" lon="-2.486256000">
        <ele>411.00</ele>
        <time>2015-01-17T07:17:06Z</time>
      </trkpt>
      <trkpt lat="42.453072000" lon="-2.486298000">
        <ele>411.00</ele>
        <time>2015-01-17T07:17:07Z</time>
      </trkpt>
      <trkpt lat="42.453068000" lon="-2.486341000">
        <ele>411.00</ele>
        <time>2015-01-17T07:17:08Z</time>
      </trkpt>
      <trkpt lat="42.453065000" lon="-2.486384000">
        <ele>411.00</ele>
        <time>2015-01-17T07:17:09Z</time>
      </trkpt>
      <trkpt lat="42.453060000" lon="-2.486427000">
        <ele>411.00</ele>
        <time>2015-01-17T07:17:10Z</time>
      </trkpt>
      <trkpt lat="42.453058000" lon="-2.486468000">
        <ele>411.10</ele>
        <time>2015-01-17T07:17:11Z</time>
      </trkpt>
      <trkpt lat="42.453055000" lon="-2.486513000">
        <ele>411.10</ele>
        <time>2015-01-17T07:17:12Z</time>
      </trkpt>
      <trkpt lat="42.453053000" lon="-2.486556000">
        <ele>411.20</ele>
        <time>2015-01-17T07:17:13Z</time>
      </trkpt>
      <trkpt lat="42.453048000" lon="-2.486597000">
        <ele>411.20</ele>
        <time>2015-01-17T07:17:14Z</time>
      </trkpt>
      <trkpt lat="42.453047000" lon="-2.486642000">
        <ele>411.30</ele>
        <time>2015-01-17T07:17:15Z</time>
      </trkpt>
      <trkpt lat="42.453043000" lon="-2.486685000">
        <ele>411.30</ele>
        <time>2015-01-17T07:17:16Z</time>
      </trkpt>
      <trkpt lat="42.453038000" lon="-2.486725000">
        <ele>411.30</ele>
        <time>2015-01-17T07:17:17Z</time>
      </trkpt>
      <trkpt lat="42.453031000" lon="-2.486763000">
        <ele>411.20</ele>
        <time>2015-01-17T07:17:18Z</time>
      </trkpt>
      <trkpt lat="42.453022000" lon="-2.486800000">
        <ele>411.20</ele>
        <time>2015-01-17T07:17:19Z</time>
      </trkpt>
      <trkpt lat="42.453012000" lon="-2.486842000">
        <ele>411.20</ele>
        <time>2015-01-17T07:17:20Z</time>
      </trkpt>
      <trkpt lat="42.453002000" lon="-2.486881000">
        <ele>411.20</ele>
        <time>2015-01-17T07:17:21Z</time>
      </trkpt>
      <trkpt lat="42.452989000" lon="-2.486917000">
        <ele>411.20</ele>
        <time>2015-01-17T07:17:22Z</time>
      </trkpt>
      <trkpt lat="42.452974000" lon="-2.486956000">
        <ele>411.20</ele>
        <time>2015-01-17T07:17:23Z</time>
      </trkpt>
      <trkpt lat="42.452956000" lon="-2.486995000">
        <ele>411.20</ele>
        <time>2015-01-17T07:17:24Z</time>
      </trkpt>
      <trkpt lat="42.452938000" lon="-2.487031000">
        <ele>411.20</ele>
        <time>2015-01-17T07:17:25Z</time>
      </trkpt>
      <trkpt lat="42.452922000" lon="-2.487068000">
        <ele>411.20</ele>
        <time>2015-01-17T07:17:26Z</time>
      </trkpt>
      <trkpt lat="42.452905000" lon="-2.487104000">
        <ele>411.30</ele>
        <time>2015-01-17T07:17:27Z</time>
      </trkpt>
      <trkpt lat="42.452889000" lon="-2.487143000">
        <ele>411.30</ele>
        <time>2015-01-17T07:17:28Z</time>
      </trkpt>
      <trkpt lat="42.452873000" lon="-2.487182000">
        <ele>411.50</ele>
        <time>2015-01-17T07:17:29Z</time>
      </trkpt>
      <trkpt lat="42.452853000" lon="-2.487221000">
        <ele>411.70</ele>
        <time>2015-01-17T07:17:30Z</time>
      </trkpt>
      <trkpt lat="42.452836000" lon="-2.487261000">
        <ele>411.90</ele>
        <time>2015-01-17T07:17:31Z</time>
      </trkpt>
      <trkpt lat="42.452818000" lon="-2.487300000">
        <ele>412.10</ele>
        <time>2015-01-17T07:17:32Z</time>
      </trkpt>
      <trkpt lat="42.452805000" lon="-2.487341000">
        <ele>412.20</ele>
        <time>2015-01-17T07:17:33Z</time>
      </trkpt>
      <trkpt lat="42.452786000" lon="-2.487381000">
        <ele>412.30</ele>
        <time>2015-01-17T07:17:34Z</time>
      </trkpt>
      <trkpt lat="42.452767000" lon="-2.487418000">
        <ele>412.20</ele>
        <time>2015-01-17T07:17:35Z</time>
      </trkpt>
      <trkpt lat="42.452752000" lon="-2.487459000">
        <ele>412.20</ele>
        <time>2015-01-17T07:17:36Z</time>
      </trkpt>
      <trkpt lat="42.452736000" lon="-2.487500000">
        <ele>412.20</ele>
        <time>2015-01-17T07:17:37Z</time>
      </trkpt>
      <trkpt lat="42.452719000" lon="-2.487540000">
        <ele>412.10</ele>
        <time>2015-01-17T07:17:38Z</time>
      </trkpt>
      <trkpt lat="42.452701000" lon="-2.487581000">
        <ele>412.10</ele>
        <time>2015-01-17T07:17:39Z</time>
      </trkpt>
      <trkpt lat="42.452684000" lon="-2.487619000">
        <ele>412.10</ele>
        <time>2015-01-17T07:17:40Z</time>
      </trkpt>
      <trkpt lat="42.452668000" lon="-2.487657000">
        <ele>412.10</ele>
        <time>2015-01-17T07:17:41Z</time>
      </trkpt>
      <trkpt lat="42.452653000" lon="-2.487696000">
        <ele>412.10</ele>
        <time>2015-01-17T07:17:42Z</time>
      </trkpt>
      <trkpt lat="42.452639000" lon="-2.487736000">
        <ele>412.00</ele>
        <time>2015-01-17T07:17:43Z</time>
      </trkpt>
      <trkpt lat="42.452623000" lon="-2.487771000">
        <ele>411.90</ele>
        <time>2015-01-17T07:17:44Z</time>
      </trkpt>
      <trkpt lat="42.452609000" lon="-2.487811000">
        <ele>411.80</ele>
        <time>2015-01-17T07:17:45Z</time>
      </trkpt>
      <trkpt lat="42.452576000" lon="-2.487896000">
        <ele>411.80</ele>
        <time>2015-01-17T07:17:47Z</time>
      </trkpt>
      <trkpt lat="42.452562000" lon="-2.487934000">
        <ele>411.90</ele>
        <time>2015-01-17T07:17:48Z</time>
      </trkpt>
      <trkpt lat="42.452548000" lon="-2.487972000">
        <ele>412.00</ele>
        <time>2015-01-17T07:17:49Z</time>
      </trkpt>
      <trkpt lat="42.452531000" lon="-2.488011000">
        <ele>412.10</ele>
        <time>2015-01-17T07:17:50Z</time>
      </trkpt>
      <trkpt lat="42.452515000" lon="-2.488051000">
        <ele>412.10</ele>
        <time>2015-01-17T07:17:51Z</time>
      </trkpt>
      <trkpt lat="42.452499000" lon="-2.488087000">
        <ele>412.10</ele>
        <time>2015-01-17T07:17:52Z</time>
      </trkpt>
      <trkpt lat="42.452480000" lon="-2.488127000">
        <ele>412.20</ele>
        <time>2015-01-17T07:17:53Z</time>
      </trkpt>
      <trkpt lat="42.452466000" lon="-2.488167000">
        <ele>412.20</ele>
        <time>2015-01-17T07:17:54Z</time>
      </trkpt>
      <trkpt lat="42.452450000" lon="-2.488207000">
        <ele>412.20</ele>
        <time>2015-01-17T07:17:55Z</time>
      </trkpt>
      <trkpt lat="42.452434000" lon="-2.488248000">
        <ele>412.20</ele>
        <time>2015-01-17T07:17:56Z</time>
      </trkpt>
      <trkpt lat="42.452419000" lon="-2.488288000">
        <ele>412.40</ele>
        <time>2015-01-17T07:17:57Z</time>
      </trkpt>
      <trkpt lat="42.452404000" lon="-2.488324000">
        <ele>412.60</ele>
        <time>2015-01-17T07:17:58Z</time>
      </trkpt>
      <trkpt lat="42.452389000" lon="-2.488358000">
        <ele>412.70</ele>
        <time>2015-01-17T07:17:59Z</time>
      </trkpt>
      <trkpt lat="42.452373000" lon="-2.488396000">
        <ele>412.80</ele>
        <time>2015-01-17T07:18:00Z</time>
      </trkpt>
      <trkpt lat="42.452359000" lon="-2.488436000">
        <ele>412.90</ele>
        <time>2015-01-17T07:18:01Z</time>
      </trkpt>
      <trkpt lat="42.452345000" lon="-2.488472000">
        <ele>413.00</ele>
        <time>2015-01-17T07:18:02Z</time>
      </trkpt>
      <trkpt lat="42.452333000" lon="-2.488511000">
        <ele>412.90</ele>
        <time>2015-01-17T07:18:03Z</time>
      </trkpt>
      <trkpt lat="42.452320000" lon="-2.488550000">
        <ele>412.90</ele>
        <time>2015-01-17T07:18:04Z</time>
      </trkpt>
      <trkpt lat="42.452307000" lon="-2.488586000">
        <ele>412.80</ele>
        <time>2015-01-17T07:18:05Z</time>
      </trkpt>
      <trkpt lat="42.452293000" lon="-2.488624000">
        <ele>412.80</ele>
        <time>2015-01-17T07:18:06Z</time>
      </trkpt>
      <trkpt lat="42.452278000" lon="-2.488667000">
        <ele>412.80</ele>
        <time>2015-01-17T07:18:07Z</time>
      </trkpt>
      <trkpt lat="42.452262000" lon="-2.488707000">
        <ele>412.80</ele>
        <time>2015-01-17T07:18:08Z</time>
      </trkpt>
      <trkpt lat="42.452244000" lon="-2.488749000">
        <ele>413.00</ele>
        <time>2015-01-17T07:18:09Z</time>
      </trkpt>
      <trkpt lat="42.452229000" lon="-2.488792000">
        <ele>413.20</ele>
        <time>2015-01-17T07:18:10Z</time>
      </trkpt>
      <trkpt lat="42.452214000" lon="-2.488833000">
        <ele>413.30</ele>
        <time>2015-01-17T07:18:11Z</time>
      </trkpt>
      <trkpt lat="42.452197000" lon="-2.488878000">
        <ele>413.40</ele>
        <time>2015-01-17T07:18:12Z</time>
      </trkpt>
      <trkpt lat="42.452182000" lon="-2.488923000">
        <ele>413.50</ele>
        <time>2015-01-17T07:18:13Z</time>
      </trkpt>
      <trkpt lat="42.452167000" lon="-2.488964000">
        <ele>413.50</ele>
        <time>2015-01-17T07:18:14Z</time>
      </trkpt>
      <trkpt lat="42.452153000" lon="-2.489003000">
        <ele>413.40</ele>
        <time>2015-01-17T07:18:15Z</time>
      </trkpt>
      <trkpt lat="42.452141000" lon="-2.489043000">
        <ele>413.40</ele>
        <time>2015-01-17T07:18:16Z</time>
      </trkpt>
      <trkpt lat="42.452127000" lon="-2.489085000">
        <ele>413.40</ele>
        <time>2015-01-17T07:18:17Z</time>
      </trkpt>
      <trkpt lat="42.452112000" lon="-2.489124000">
        <ele>413.40</ele>
        <time>2015-01-17T07:18:18Z</time>
      </trkpt>
      <trkpt lat="42.452097000" lon="-2.489163000">
        <ele>413.40</ele>
        <time>2015-01-17T07:18:19Z</time>
      </trkpt>
      <trkpt lat="42.452082000" lon="-2.489201000">
        <ele>413.30</ele>
        <time>2015-01-17T07:18:20Z</time>
      </trkpt>
      <trkpt lat="42.452065000" lon="-2.489240000">
        <ele>413.30</ele>
        <time>2015-01-17T07:18:21Z</time>
      </trkpt>
      <trkpt lat="42.452051000" lon="-2.489277000">
        <ele>413.40</ele>
        <time>2015-01-17T07:18:22Z</time>
      </trkpt>
      <trkpt lat="42.452036000" lon="-2.489317000">
        <ele>413.40</ele>
        <time>2015-01-17T07:18:23Z</time>
      </trkpt>
      <trkpt lat="42.452023000" lon="-2.489351000">
        <ele>413.50</ele>
        <time>2015-01-17T07:18:24Z</time>
      </trkpt>
      <trkpt lat="42.452008000" lon="-2.489388000">
        <ele>413.70</ele>
        <time>2015-01-17T07:18:25Z</time>
      </trkpt>
      <trkpt lat="42.451994000" lon="-2.489431000">
        <ele>413.80</ele>
        <time>2015-01-17T07:18:26Z</time>
      </trkpt>
      <trkpt lat="42.451973000" lon="-2.489470000">
        <ele>414.00</ele>
        <time>2015-01-17T07:18:27Z</time>
      </trkpt>
      <trkpt lat="42.451956000" lon="-2.489509000">
        <ele>414.20</ele>
        <time>2015-01-17T07:18:28Z</time>
      </trkpt>
      <trkpt lat="42.451940000" lon="-2.489550000">
        <ele>414.30</ele>
        <time>2015-01-17T07:18:29Z</time>
      </trkpt>
      <trkpt lat="42.451928000" lon="-2.489588000">
        <ele>414.40</ele>
        <time>2015-01-17T07:18:30Z</time>
      </trkpt>
      <trkpt lat="42.451916000" lon="-2.489627000">
        <ele>414.40</ele>
        <time>2015-01-17T07:18:31Z</time>
      </trkpt>
      <trkpt lat="42.451902000" lon="-2.489665000">
        <ele>414.40</ele>
        <time>2015-01-17T07:18:32Z</time>
      </trkpt>
      <trkpt lat="42.451888000" lon="-2.489703000">
        <ele>414.40</ele>
        <time>2015-01-17T07:18:33Z</time>
      </trkpt>
      <trkpt lat="42.451871000" lon="-2.489743000">
        <ele>414.30</ele>
        <time>2015-01-17T07:18:34Z</time>
      </trkpt>
      <trkpt lat="42.451857000" lon="-2.489781000">
        <ele>414.20</ele>
        <time>2015-01-17T07:18:35Z</time>
      </trkpt>
      <trkpt lat="42.451843000" lon="-2.489817000">
        <ele>414.20</ele>
        <time>2015-01-17T07:18:36Z</time>
      </trkpt>
      <trkpt lat="42.451828000" lon="-2.489854000">
        <ele>414.10</ele>
        <time>2015-01-17T07:18:37Z</time>
      </trkpt>
      <trkpt lat="42.451813000" lon="-2.489893000">
        <ele>414.10</ele>
        <time>2015-01-17T07:18:38Z</time>
      </trkpt>
      <trkpt lat="42.451798000" lon="-2.489936000">
        <ele>414.20</ele>
        <time>2015-01-17T07:18:39Z</time>
      </trkpt>
      <trkpt lat="42.451785000" lon="-2.489975000">
        <ele>414.30</ele>
        <time>2015-01-17T07:18:40Z</time>
      </trkpt>
      <trkpt lat="42.451771000" lon="-2.490009000">
        <ele>414.40</ele>
        <time>2015-01-17T07:18:41Z</time>
      </trkpt>
      <trkpt lat="42.451758000" lon="-2.490044000">
        <ele>414.50</ele>
        <time>2015-01-17T07:18:42Z</time>
      </trkpt>
      <trkpt lat="42.451743000" lon="-2.490085000">
        <ele>414.60</ele>
        <time>2015-01-17T07:18:43Z</time>
      </trkpt>
      <trkpt lat="42.451729000" lon="-2.490125000">
        <ele>414.70</ele>
        <time>2015-01-17T07:18:44Z</time>
      </trkpt>
      <trkpt lat="42.451715000" lon="-2.490165000">
        <ele>414.80</ele>
        <time>2015-01-17T07:18:45Z</time>
      </trkpt>
      <trkpt lat="42.451702000" lon="-2.490207000">
        <ele>414.90</ele>
        <time>2015-01-17T07:18:46Z</time>
      </trkpt>
      <trkpt lat="42.451676000" lon="-2.490289000">
        <ele>415.00</ele>
        <time>2015-01-17T07:18:48Z</time>
      </trkpt>
      <trkpt lat="42.451664000" lon="-2.490330000">
        <ele>415.00</ele>
        <time>2015-01-17T07:18:49Z</time>
      </trkpt>
      <trkpt lat="42.451654000" lon="-2.490369000">
        <ele>415.00</ele>
        <time>2015-01-17T07:18:50Z</time>
      </trkpt>
      <trkpt lat="42.451644000" lon="-2.490409000">
        <ele>415.20</ele>
        <time>2015-01-17T07:18:51Z</time>
      </trkpt>
      <trkpt lat="42.451631000" lon="-2.490449000">
        <ele>415.40</ele>
        <time>2015-01-17T07:18:52Z</time>
      </trkpt>
      <trkpt lat="42.451623000" lon="-2.490492000">
        <ele>415.50</ele>
        <time>2015-01-17T07:18:53Z</time>
      </trkpt>
      <trkpt lat="42.451614000" lon="-2.490538000">
        <ele>415.70</ele>
        <time>2015-01-17T07:18:54Z</time>
      </trkpt>
      <trkpt lat="42.451601000" lon="-2.490582000">
        <ele>415.70</ele>
        <time>2015-01-17T07:18:55Z</time>
      </trkpt>
      <trkpt lat="42.451593000" lon="-2.490627000">
        <ele>415.80</ele>
        <time>2015-01-17T07:18:56Z</time>
      </trkpt>
      <trkpt lat="42.451583000" lon="-2.490669000">
        <ele>415.90</ele>
        <time>2015-01-17T07:18:57Z</time>
      </trkpt>
      <trkpt lat="42.451574000" lon="-2.490711000">
        <ele>415.90</ele>
        <time>2015-01-17T07:18:58Z</time>
      </trkpt>
      <trkpt lat="42.451564000" lon="-2.490753000">
        <ele>416.00</ele>
        <time>2015-01-17T07:18:59Z</time>
      </trkpt>
      <trkpt lat="42.451557000" lon="-2.490795000">
        <ele>416.10</ele>
        <time>2015-01-17T07:19:00Z</time>
      </trkpt>
      <trkpt lat="42.451549000" lon="-2.490837000">
        <ele>416.40</ele>
        <time>2015-01-17T07:19:01Z</time>
      </trkpt>
      <trkpt lat="42.451540000" lon="-2.490877000">
        <ele>416.60</ele>
        <time>2015-01-17T07:19:02Z</time>
      </trkpt>
      <trkpt lat="42.451529000" lon="-2.490915000">
        <ele>416.80</ele>
        <time>2015-01-17T07:19:03Z</time>
      </trkpt>
      <trkpt lat="42.451519000" lon="-2.490962000">
        <ele>416.90</ele>
        <time>2015-01-17T07:19:04Z</time>
      </trkpt>
      <trkpt lat="42.451509000" lon="-2.491003000">
        <ele>416.90</ele>
        <time>2015-01-17T07:19:05Z</time>
      </trkpt>
      <trkpt lat="42.451499000" lon="-2.491047000">
        <ele>416.90</ele>
        <time>2015-01-17T07:19:06Z</time>
      </trkpt>
      <trkpt lat="42.451493000" lon="-2.491092000">
        <ele>416.80</ele>
        <time>2015-01-17T07:19:07Z</time>
      </trkpt>
      <trkpt lat="42.451481000" lon="-2.491131000">
        <ele>416.70</ele>
        <time>2015-01-17T07:19:08Z</time>
      </trkpt>
      <trkpt lat="42.451472000" lon="-2.491172000">
        <ele>416.70</ele>
        <time>2015-01-17T07:19:09Z</time>
      </trkpt>
      <trkpt lat="42.451463000" lon="-2.491213000">
        <ele>416.70</ele>
        <time>2015-01-17T07:19:10Z</time>
      </trkpt>
      <trkpt lat="42.451452000" lon="-2.491253000">
        <ele>416.80</ele>
        <time>2015-01-17T07:19:11Z</time>
      </trkpt>
      <trkpt lat="42.451440000" lon="-2.491297000">
        <ele>416.90</ele>
        <time>2015-01-17T07:19:12Z</time>
      </trkpt>
      <trkpt lat="42.451428000" lon="-2.491341000">
        <ele>417.00</ele>
        <time>2015-01-17T07:19:13Z</time>
      </trkpt>
      <trkpt lat="42.451419000" lon="-2.491381000">
        <ele>417.00</ele>
        <time>2015-01-17T07:19:14Z</time>
      </trkpt>
      <trkpt lat="42.451405000" lon="-2.491421000">
        <ele>417.00</ele>
        <time>2015-01-17T07:19:15Z</time>
      </trkpt>
      <trkpt lat="42.451392000" lon="-2.491462000">
        <ele>417.00</ele>
        <time>2015-01-17T07:19:16Z</time>
      </trkpt>
      <trkpt lat="42.451380000" lon="-2.491502000">
        <ele>417.00</ele>
        <time>2015-01-17T07:19:17Z</time>
      </trkpt>
      <trkpt lat="42.451369000" lon="-2.491544000">
        <ele>416.90</ele>
        <time>2015-01-17T07:19:18Z</time>
      </trkpt>
      <trkpt lat="42.451359000" lon="-2.491587000">
        <ele>416.80</ele>
        <time>2015-01-17T07:19:19Z</time>
      </trkpt>
      <trkpt lat="42.451348000" lon="-2.491630000">
        <ele>416.70</ele>
        <time>2015-01-17T07:19:20Z</time>
      </trkpt>
      <trkpt lat="42.451337000" lon="-2.491672000">
        <ele>416.70</ele>
        <time>2015-01-17T07:19:21Z</time>
      </trkpt>
      <trkpt lat="42.451326000" lon="-2.491713000">
        <ele>416.60</ele>
        <time>2015-01-17T07:19:22Z</time>
      </trkpt>
      <trkpt lat="42.451316000" lon="-2.491752000">
        <ele>416.60</ele>
        <time>2015-01-17T07:19:23Z</time>
      </trkpt>
      <trkpt lat="42.451305000" lon="-2.491793000">
        <ele>416.60</ele>
        <time>2015-01-17T07:19:24Z</time>
      </trkpt>
      <trkpt lat="42.451293000" lon="-2.491836000">
        <ele>416.60</ele>
        <time>2015-01-17T07:19:25Z</time>
      </trkpt>
      <trkpt lat="42.451280000" lon="-2.491877000">
        <ele>416.60</ele>
        <time>2015-01-17T07:19:26Z</time>
      </trkpt>
      <trkpt lat="42.451267000" lon="-2.491918000">
        <ele>416.90</ele>
        <time>2015-01-17T07:19:27Z</time>
      </trkpt>
      <trkpt lat="42.451258000" lon="-2.491959000">
        <ele>417.10</ele>
        <time>2015-01-17T07:19:28Z</time>
      </trkpt>
      <trkpt lat="42.451247000" lon="-2.492003000">
        <ele>417.30</ele>
        <time>2015-01-17T07:19:29Z</time>
      </trkpt>
      <trkpt lat="42.451233000" lon="-2.492045000">
        <ele>417.50</ele>
        <time>2015-01-17T07:19:30Z</time>
      </trkpt>
      <trkpt lat="42.451220000" lon="-2.492088000">
        <ele>417.60</ele>
        <time>2015-01-17T07:19:31Z</time>
      </trkpt>
      <trkpt lat="42.451210000" lon="-2.492129000">
        <ele>417.70</ele>
        <time>2015-01-17T07:19:32Z</time>
      </trkpt>
      <trkpt lat="42.451198000" lon="-2.492171000">
        <ele>417.70</ele>
        <time>2015-01-17T07:19:33Z</time>
      </trkpt>
      <trkpt lat="42.451184000" lon="-2.492215000">
        <ele>417.70</ele>
        <time>2015-01-17T07:19:34Z</time>
      </trkpt>
      <trkpt lat="42.451170000" lon="-2.492255000">
        <ele>417.70</ele>
        <time>2015-01-17T07:19:35Z</time>
      </trkpt>
      <trkpt lat="42.451160000" lon="-2.492294000">
        <ele>417.70</ele>
        <time>2015-01-17T07:19:36Z</time>
      </trkpt>
      <trkpt lat="42.451150000" lon="-2.492334000">
        <ele>417.70</ele>
        <time>2015-01-17T07:19:37Z</time>
      </trkpt>
      <trkpt lat="42.451140000" lon="-2.492374000">
        <ele>417.60</ele>
        <time>2015-01-17T07:19:38Z</time>
      </trkpt>
      <trkpt lat="42.451129000" lon="-2.492415000">
        <ele>417.60</ele>
        <time>2015-01-17T07:19:39Z</time>
      </trkpt>
      <trkpt lat="42.451116000" lon="-2.492453000">
        <ele>417.60</ele>
        <time>2015-01-17T07:19:40Z</time>
      </trkpt>
      <trkpt lat="42.451105000" lon="-2.492493000">
        <ele>417.50</ele>
        <time>2015-01-17T07:19:41Z</time>
      </trkpt>
      <trkpt lat="42.451093000" lon="-2.492535000">
        <ele>417.50</ele>
        <time>2015-01-17T07:19:42Z</time>
      </trkpt>
      <trkpt lat="42.451080000" lon="-2.492577000">
        <ele>417.50</ele>
        <time>2015-01-17T07:19:43Z</time>
      </trkpt>
      <trkpt lat="42.451067000" lon="-2.492621000">
        <ele>417.50</ele>
        <time>2015-01-17T07:19:44Z</time>
      </trkpt>
      <trkpt lat="42.451057000" lon="-2.492666000">
        <ele>417.50</ele>
        <time>2015-01-17T07:19:45Z</time>
      </trkpt>
      <trkpt lat="42.451047000" lon="-2.492709000">
        <ele>417.60</ele>
        <time>2015-01-17T07:19:46Z</time>
      </trkpt>
      <trkpt lat="42.451039000" lon="-2.492750000">
        <ele>417.60</ele>
        <time>2015-01-17T07:19:47Z</time>
      </trkpt>
      <trkpt lat="42.451020000" lon="-2.492835000">
        <ele>417.60</ele>
        <time>2015-01-17T07:19:49Z</time>
      </trkpt>
      <trkpt lat="42.451009000" lon="-2.492877000">
        <ele>417.60</ele>
        <time>2015-01-17T07:19:50Z</time>
      </trkpt>
      <trkpt lat="42.451001000" lon="-2.492918000">
        <ele>417.60</ele>
        <time>2015-01-17T07:19:51Z</time>
      </trkpt>
      <trkpt lat="42.450991000" lon="-2.492958000">
        <ele>417.60</ele>
        <time>2015-01-17T07:19:52Z</time>
      </trkpt>
      <trkpt lat="42.450982000" lon="-2.493000000">
        <ele>417.60</ele>
        <time>2015-01-17T07:19:53Z</time>
      </trkpt>
      <trkpt lat="42.450975000" lon="-2.493044000">
        <ele>417.50</ele>
        <time>2015-01-17T07:19:54Z</time>
      </trkpt>
      <trkpt lat="42.450964000" lon="-2.493082000">
        <ele>417.70</ele>
        <time>2015-01-17T07:19:55Z</time>
      </trkpt>
      <trkpt lat="42.450954000" lon="-2.493123000">
        <ele>417.80</ele>
        <time>2015-01-17T07:19:56Z</time>
      </trkpt>
      <trkpt lat="42.450942000" lon="-2.493167000">
        <ele>418.00</ele>
        <time>2015-01-17T07:19:57Z</time>
      </trkpt>
      <trkpt lat="42.450931000" lon="-2.493209000">
        <ele>418.20</ele>
        <time>2015-01-17T07:19:58Z</time>
      </trkpt>
      <trkpt lat="42.450921000" lon="-2.493250000">
        <ele>418.40</ele>
        <time>2015-01-17T07:19:59Z</time>
      </trkpt>
      <trkpt lat="42.450910000" lon="-2.493291000">
        <ele>418.50</ele>
        <time>2015-01-17T07:20:00Z</time>
      </trkpt>
      <trkpt lat="42.450900000" lon="-2.493332000">
        <ele>418.80</ele>
        <time>2015-01-17T07:20:01Z</time>
      </trkpt>
      <trkpt lat="42.450887000" lon="-2.493371000">
        <ele>419.00</ele>
        <time>2015-01-17T07:20:02Z</time>
      </trkpt>
      <trkpt lat="42.450879000" lon="-2.493412000">
        <ele>419.10</ele>
        <time>2015-01-17T07:20:03Z</time>
      </trkpt>
      <trkpt lat="42.450866000" lon="-2.493453000">
        <ele>419.30</ele>
        <time>2015-01-17T07:20:04Z</time>
      </trkpt>
      <trkpt lat="42.450852000" lon="-2.493492000">
        <ele>419.40</ele>
        <time>2015-01-17T07:20:05Z</time>
      </trkpt>
      <trkpt lat="42.450838000" lon="-2.493533000">
        <ele>419.50</ele>
        <time>2015-01-17T07:20:06Z</time>
      </trkpt>
      <trkpt lat="42.450827000" lon="-2.493573000">
        <ele>419.60</ele>
        <time>2015-01-17T07:20:07Z</time>
      </trkpt>
      <trkpt lat="42.450816000" lon="-2.493613000">
        <ele>419.60</ele>
        <time>2015-01-17T07:20:08Z</time>
      </trkpt>
      <trkpt lat="42.450801000" lon="-2.493651000">
        <ele>419.70</ele>
        <time>2015-01-17T07:20:09Z</time>
      </trkpt>
      <trkpt lat="42.450788000" lon="-2.493691000">
        <ele>419.70</ele>
        <time>2015-01-17T07:20:10Z</time>
      </trkpt>
      <trkpt lat="42.450774000" lon="-2.493734000">
        <ele>419.70</ele>
        <time>2015-01-17T07:20:11Z</time>
      </trkpt>
      <trkpt lat="42.450761000" lon="-2.493778000">
        <ele>419.70</ele>
        <time>2015-01-17T07:20:12Z</time>
      </trkpt>
      <trkpt lat="42.450748000" lon="-2.493822000">
        <ele>419.60</ele>
        <time>2015-01-17T07:20:13Z</time>
      </trkpt>
      <trkpt lat="42.450735000" lon="-2.493865000">
        <ele>419.50</ele>
        <time>2015-01-17T07:20:14Z</time>
      </trkpt>
      <trkpt lat="42.450721000" lon="-2.493909000">
        <ele>419.40</ele>
        <time>2015-01-17T07:20:15Z</time>
      </trkpt>
      <trkpt lat="42.450708000" lon="-2.493952000">
        <ele>419.40</ele>
        <time>2015-01-17T07:20:16Z</time>
      </trkpt>
      <trkpt lat="42.450696000" lon="-2.493994000">
        <ele>419.30</ele>
        <time>2015-01-17T07:20:17Z</time>
      </trkpt>
      <trkpt lat="42.450685000" lon="-2.494034000">
        <ele>419.20</ele>
        <time>2015-01-17T07:20:18Z</time>
      </trkpt>
      <trkpt lat="42.450672000" lon="-2.494073000">
        <ele>419.20</ele>
        <time>2015-01-17T07:20:19Z</time>
      </trkpt>
      <trkpt lat="42.450660000" lon="-2.494114000">
        <ele>419.20</ele>
        <time>2015-01-17T07:20:20Z</time>
      </trkpt>
      <trkpt lat="42.450647000" lon="-2.494149000">
        <ele>419.10</ele>
        <time>2015-01-17T07:20:21Z</time>
      </trkpt>
      <trkpt lat="42.450633000" lon="-2.494188000">
        <ele>419.00</ele>
        <time>2015-01-17T07:20:22Z</time>
      </trkpt>
      <trkpt lat="42.450622000" lon="-2.494224000">
        <ele>419.00</ele>
        <time>2015-01-17T07:20:23Z</time>
      </trkpt>
      <trkpt lat="42.450610000" lon="-2.494262000">
        <ele>419.00</ele>
        <time>2015-01-17T07:20:24Z</time>
      </trkpt>
      <trkpt lat="42.450600000" lon="-2.494302000">
        <ele>418.90</ele>
        <time>2015-01-17T07:20:25Z</time>
      </trkpt>
      <trkpt lat="42.450584000" lon="-2.494340000">
        <ele>418.90</ele>
        <time>2015-01-17T07:20:26Z</time>
      </trkpt>
      <trkpt lat="42.450572000" lon="-2.494380000">
        <ele>418.90</ele>
        <time>2015-01-17T07:20:27Z</time>
      </trkpt>
      <trkpt lat="42.450560000" lon="-2.494422000">
        <ele>418.90</ele>
        <time>2015-01-17T07:20:28Z</time>
      </trkpt>
      <trkpt lat="42.450547000" lon="-2.494462000">
        <ele>418.90</ele>
        <time>2015-01-17T07:20:29Z</time>
      </trkpt>
      <trkpt lat="42.450534000" lon="-2.494505000">
        <ele>418.90</ele>
        <time>2015-01-17T07:20:30Z</time>
      </trkpt>
      <trkpt lat="42.450522000" lon="-2.494546000">
        <ele>419.10</ele>
        <time>2015-01-17T07:20:31Z</time>
      </trkpt>
      <trkpt lat="42.450511000" lon="-2.494587000">
        <ele>419.30</ele>
        <time>2015-01-17T07:20:32Z</time>
      </trkpt>
      <trkpt lat="42.450500000" lon="-2.494623000">
        <ele>419.40</ele>
        <time>2015-01-17T07:20:33Z</time>
      </trkpt>
      <trkpt lat="42.450487000" lon="-2.494663000">
        <ele>419.50</ele>
        <time>2015-01-17T07:20:34Z</time>
      </trkpt>
      <trkpt lat="42.450474000" lon="-2.494702000">
        <ele>419.60</ele>
        <time>2015-01-17T07:20:35Z</time>
      </trkpt>
      <trkpt lat="42.450460000" lon="-2.494744000">
        <ele>419.60</ele>
        <time>2015-01-17T07:20:36Z</time>
      </trkpt>
      <trkpt lat="42.450447000" lon="-2.494781000">
        <ele>419.70</ele>
        <time>2015-01-17T07:20:37Z</time>
      </trkpt>
      <trkpt lat="42.450433000" lon="-2.494819000">
        <ele>419.70</ele>
        <time>2015-01-17T07:20:38Z</time>
      </trkpt>
      <trkpt lat="42.450420000" lon="-2.494855000">
        <ele>419.70</ele>
        <time>2015-01-17T07:20:39Z</time>
      </trkpt>
      <trkpt lat="42.450407000" lon="-2.494893000">
        <ele>419.60</ele>
        <time>2015-01-17T07:20:40Z</time>
      </trkpt>
      <trkpt lat="42.450395000" lon="-2.494927000">
        <ele>419.60</ele>
        <time>2015-01-17T07:20:41Z</time>
      </trkpt>
      <trkpt lat="42.450381000" lon="-2.494956000">
        <ele>419.60</ele>
        <time>2015-01-17T07:20:42Z</time>
      </trkpt>
      <trkpt lat="42.450364000" lon="-2.494981000">
        <ele>419.60</ele>
        <time>2015-01-17T07:20:43Z</time>
      </trkpt>
      <trkpt lat="42.450342000" lon="-2.494998000">
        <ele>419.70</ele>
        <time>2015-01-17T07:20:44Z</time>
      </trkpt>
      <trkpt lat="42.450320000" lon="-2.495004000">
        <ele>419.70</ele>
        <time>2015-01-17T07:20:45Z</time>
      </trkpt>
      <trkpt lat="42.450299000" lon="-2.495003000">
        <ele>419.70</ele>
        <time>2015-01-17T07:20:46Z</time>
      </trkpt>
      <trkpt lat="42.450276000" lon="-2.494990000">
        <ele>420.00</ele>
        <time>2015-01-17T07:20:47Z</time>
      </trkpt>
      <trkpt lat="42.450251000" lon="-2.494967000">
        <ele>420.20</ele>
        <time>2015-01-17T07:20:48Z</time>
      </trkpt>
      <trkpt lat="42.450204000" lon="-2.494927000">
        <ele>420.50</ele>
        <time>2015-01-17T07:20:50Z</time>
      </trkpt>
      <trkpt lat="42.450174000" lon="-2.494912000">
        <ele>420.70</ele>
        <time>2015-01-17T07:20:51Z</time>
      </trkpt>
      <trkpt lat="42.450145000" lon="-2.494903000">
        <ele>420.90</ele>
        <time>2015-01-17T07:20:52Z</time>
      </trkpt>
      <trkpt lat="42.450114000" lon="-2.494903000">
        <ele>421.00</ele>
        <time>2015-01-17T07:20:53Z</time>
      </trkpt>
      <trkpt lat="42.450079000" lon="-2.494915000">
        <ele>421.10</ele>
        <time>2015-01-17T07:20:54Z</time>
      </trkpt>
      <trkpt lat="42.450049000" lon="-2.494934000">
        <ele>421.20</ele>
        <time>2015-01-17T07:20:55Z</time>
      </trkpt>
      <trkpt lat="42.450022000" lon="-2.494965000">
        <ele>421.30</ele>
        <time>2015-01-17T07:20:56Z</time>
      </trkpt>
      <trkpt lat="42.450005000" lon="-2.495000000">
        <ele>421.30</ele>
        <time>2015-01-17T07:20:57Z</time>
      </trkpt>
      <trkpt lat="42.449989000" lon="-2.495039000">
        <ele>421.30</ele>
        <time>2015-01-17T07:20:58Z</time>
      </trkpt>
      <trkpt lat="42.449974000" lon="-2.495072000">
        <ele>421.50</ele>
        <time>2015-01-17T07:20:59Z</time>
      </trkpt>
      <trkpt lat="42.449964000" lon="-2.495110000">
        <ele>421.60</ele>
        <time>2015-01-17T07:21:00Z</time>
      </trkpt>
      <trkpt lat="42.449957000" lon="-2.495152000">
        <ele>421.80</ele>
        <time>2015-01-17T07:21:01Z</time>
      </trkpt>
      <trkpt lat="42.449951000" lon="-2.495195000">
        <ele>421.90</ele>
        <time>2015-01-17T07:21:02Z</time>
      </trkpt>
      <trkpt lat="42.449949000" lon="-2.495237000">
        <ele>422.10</ele>
        <time>2015-01-17T07:21:03Z</time>
      </trkpt>
      <trkpt lat="42.449944000" lon="-2.495280000">
        <ele>422.20</ele>
        <time>2015-01-17T07:21:04Z</time>
      </trkpt>
      <trkpt lat="42.449943000" lon="-2.495328000">
        <ele>422.40</ele>
        <time>2015-01-17T07:21:05Z</time>
      </trkpt>
      <trkpt lat="42.449942000" lon="-2.495369000">
        <ele>422.50</ele>
        <time>2015-01-17T07:21:06Z</time>
      </trkpt>
      <trkpt lat="42.449942000" lon="-2.495410000">
        <ele>422.50</ele>
        <time>2015-01-17T07:21:07Z</time>
      </trkpt>
      <trkpt lat="42.449946000" lon="-2.495450000">
        <ele>422.60</ele>
        <time>2015-01-17T07:21:08Z</time>
      </trkpt>
      <trkpt lat="42.449953000" lon="-2.495488000">
        <ele>422.70</ele>
        <time>2015-01-17T07:21:09Z</time>
      </trkpt>
      <trkpt lat="42.449956000" lon="-2.495529000">
        <ele>422.70</ele>
        <time>2015-01-17T07:21:10Z</time>
      </trkpt>
      <trkpt lat="42.449954000" lon="-2.495570000">
        <ele>422.80</ele>
        <time>2015-01-17T07:21:11Z</time>
      </trkpt>
      <trkpt lat="42.449955000" lon="-2.495609000">
        <ele>422.90</ele>
        <time>2015-01-17T07:21:12Z</time>
      </trkpt>
      <trkpt lat="42.449955000" lon="-2.495645000">
        <ele>423.00</ele>
        <time>2015-01-17T07:21:13Z</time>
      </trkpt>
      <trkpt lat="42.449954000" lon="-2.495684000">
        <ele>423.20</ele>
        <time>2015-01-17T07:21:14Z</time>
      </trkpt>
      <trkpt lat="42.449957000" lon="-2.495724000">
        <ele>423.30</ele>
        <time>2015-01-17T07:21:15Z</time>
      </trkpt>
      <trkpt lat="42.449964000" lon="-2.495765000">
        <ele>423.40</ele>
        <time>2015-01-17T07:21:16Z</time>
      </trkpt>
      <trkpt lat="42.449968000" lon="-2.495806000">
        <ele>423.50</ele>
        <time>2015-01-17T07:21:17Z</time>
      </trkpt>
      <trkpt lat="42.449972000" lon="-2.495846000">
        <ele>423.50</ele>
        <time>2015-01-17T07:21:18Z</time>
      </trkpt>
      <trkpt lat="42.449976000" lon="-2.495886000">
        <ele>423.60</ele>
        <time>2015-01-17T07:21:19Z</time>
      </trkpt>
      <trkpt lat="42.449978000" lon="-2.495929000">
        <ele>423.70</ele>
        <time>2015-01-17T07:21:20Z</time>
      </trkpt>
      <trkpt lat="42.449981000" lon="-2.495971000">
        <ele>423.70</ele>
        <time>2015-01-17T07:21:21Z</time>
      </trkpt>
      <trkpt lat="42.449983000" lon="-2.496014000">
        <ele>423.80</ele>
        <time>2015-01-17T07:21:22Z</time>
      </trkpt>
      <trkpt lat="42.449985000" lon="-2.496057000">
        <ele>423.80</ele>
        <time>2015-01-17T07:21:23Z</time>
      </trkpt>
      <trkpt lat="42.449987000" lon="-2.496097000">
        <ele>424.00</ele>
        <time>2015-01-17T07:21:24Z</time>
      </trkpt>
      <trkpt lat="42.449987000" lon="-2.496139000">
        <ele>424.10</ele>
        <time>2015-01-17T07:21:25Z</time>
      </trkpt>
      <trkpt lat="42.449986000" lon="-2.496180000">
        <ele>424.30</ele>
        <time>2015-01-17T07:21:26Z</time>
      </trkpt>
      <trkpt lat="42.449985000" lon="-2.496223000">
        <ele>424.50</ele>
        <time>2015-01-17T07:21:27Z</time>
      </trkpt>
      <trkpt lat="42.449982000" lon="-2.496266000">
        <ele>424.70</ele>
        <time>2015-01-17T07:21:28Z</time>
      </trkpt>
      <trkpt lat="42.449982000" lon="-2.496305000">
        <ele>424.80</ele>
        <time>2015-01-17T07:21:29Z</time>
      </trkpt>
      <trkpt lat="42.449977000" lon="-2.496349000">
        <ele>425.00</ele>
        <time>2015-01-17T07:21:30Z</time>
      </trkpt>
      <trkpt lat="42.449972000" lon="-2.496392000">
        <ele>425.20</ele>
        <time>2015-01-17T07:21:31Z</time>
      </trkpt>
      <trkpt lat="42.449966000" lon="-2.496435000">
        <ele>425.30</ele>
        <time>2015-01-17T07:21:32Z</time>
      </trkpt>
      <trkpt lat="42.449959000" lon="-2.496478000">
        <ele>425.40</ele>
        <time>2015-01-17T07:21:33Z</time>
      </trkpt>
      <trkpt lat="42.449952000" lon="-2.496521000">
        <ele>425.40</ele>
        <time>2015-01-17T07:21:34Z</time>
      </trkpt>
      <trkpt lat="42.449943000" lon="-2.496560000">
        <ele>425.50</ele>
        <time>2015-01-17T07:21:35Z</time>
      </trkpt>
      <trkpt lat="42.449936000" lon="-2.496600000">
        <ele>425.70</ele>
        <time>2015-01-17T07:21:36Z</time>
      </trkpt>
      <trkpt lat="42.449929000" lon="-2.496643000">
        <ele>425.80</ele>
        <time>2015-01-17T07:21:37Z</time>
      </trkpt>
      <trkpt lat="42.449925000" lon="-2.496688000">
        <ele>425.90</ele>
        <time>2015-01-17T07:21:38Z</time>
      </trkpt>
      <trkpt lat="42.449923000" lon="-2.496727000">
        <ele>426.00</ele>
        <time>2015-01-17T07:21:39Z</time>
      </trkpt>
      <trkpt lat="42.449921000" lon="-2.496765000">
        <ele>426.20</ele>
        <time>2015-01-17T07:21:40Z</time>
      </trkpt>
      <trkpt lat="42.449920000" lon="-2.496803000">
        <ele>426.40</ele>
        <time>2015-01-17T07:21:41Z</time>
      </trkpt>
      <trkpt lat="42.449918000" lon="-2.496842000">
        <ele>426.60</ele>
        <time>2015-01-17T07:21:42Z</time>
      </trkpt>
      <trkpt lat="42.449918000" lon="-2.496881000">
        <ele>426.70</ele>
        <time>2015-01-17T07:21:43Z</time>
      </trkpt>
      <trkpt lat="42.449920000" lon="-2.496919000">
        <ele>426.80</ele>
        <time>2015-01-17T07:21:44Z</time>
      </trkpt>
      <trkpt lat="42.449923000" lon="-2.496959000">
        <ele>426.90</ele>
        <time>2015-01-17T07:21:45Z</time>
      </trkpt>
      <trkpt lat="42.449925000" lon="-2.496999000">
        <ele>426.90</ele>
        <time>2015-01-17T07:21:46Z</time>
      </trkpt>
      <trkpt lat="42.449925000" lon="-2.497040000">
        <ele>427.00</ele>
        <time>2015-01-17T07:21:47Z</time>
      </trkpt>
      <trkpt lat="42.449927000" lon="-2.497079000">
        <ele>427.10</ele>
        <time>2015-01-17T07:21:48Z</time>
      </trkpt>
      <trkpt lat="42.449929000" lon="-2.497121000">
        <ele>427.30</ele>
        <time>2015-01-17T07:21:49Z</time>
      </trkpt>
      <trkpt lat="42.449927000" lon="-2.497205000">
        <ele>427.50</ele>
        <time>2015-01-17T07:21:51Z</time>
      </trkpt>
      <trkpt lat="42.449925000" lon="-2.497247000">
        <ele>427.80</ele>
        <time>2015-01-17T07:21:52Z</time>
      </trkpt>
      <trkpt lat="42.449920000" lon="-2.497289000">
        <ele>428.00</ele>
        <time>2015-01-17T07:21:53Z</time>
      </trkpt>
      <trkpt lat="42.449914000" lon="-2.497329000">
        <ele>428.20</ele>
        <time>2015-01-17T07:21:54Z</time>
      </trkpt>
      <trkpt lat="42.449908000" lon="-2.497370000">
        <ele>428.30</ele>
        <time>2015-01-17T07:21:55Z</time>
      </trkpt>
      <trkpt lat="42.449900000" lon="-2.497407000">
        <ele>428.50</ele>
        <time>2015-01-17T07:21:56Z</time>
      </trkpt>
      <trkpt lat="42.449890000" lon="-2.497444000">
        <ele>428.60</ele>
        <time>2015-01-17T07:21:57Z</time>
      </trkpt>
      <trkpt lat="42.449885000" lon="-2.497484000">
        <ele>428.80</ele>
        <time>2015-01-17T07:21:58Z</time>
      </trkpt>
      <trkpt lat="42.449875000" lon="-2.497525000">
        <ele>429.00</ele>
        <time>2015-01-17T07:21:59Z</time>
      </trkpt>
      <trkpt lat="42.449868000" lon="-2.497564000">
        <ele>429.20</ele>
        <time>2015-01-17T07:22:00Z</time>
      </trkpt>
      <trkpt lat="42.449861000" lon="-2.497599000">
        <ele>429.30</ele>
        <time>2015-01-17T07:22:01Z</time>
      </trkpt>
      <trkpt lat="42.449849000" lon="-2.497628000">
        <ele>429.40</ele>
        <time>2015-01-17T07:22:02Z</time>
      </trkpt>
      <trkpt lat="42.449832000" lon="-2.497658000">
        <ele>429.50</ele>
        <time>2015-01-17T07:22:03Z</time>
      </trkpt>
      <trkpt lat="42.449821000" lon="-2.497689000">
        <ele>429.70</ele>
        <time>2015-01-17T07:22:04Z</time>
      </trkpt>
      <trkpt lat="42.449807000" lon="-2.497714000">
        <ele>429.80</ele>
        <time>2015-01-17T07:22:05Z</time>
      </trkpt>
      <trkpt lat="42.449789000" lon="-2.497737000">
        <ele>429.90</ele>
        <time>2015-01-17T07:22:06Z</time>
      </trkpt>
      <trkpt lat="42.449768000" lon="-2.497758000">
        <ele>429.90</ele>
        <time>2015-01-17T07:22:07Z</time>
      </trkpt>
      <trkpt lat="42.449746000" lon="-2.497778000">
        <ele>430.30</ele>
        <time>2015-01-17T07:22:08Z</time>
      </trkpt>
      <trkpt lat="42.449725000" lon="-2.497797000">
        <ele>430.60</ele>
        <time>2015-01-17T07:22:09Z</time>
      </trkpt>
      <trkpt lat="42.449707000" lon="-2.497816000">
        <ele>431.00</ele>
        <time>2015-01-17T07:22:10Z</time>
      </trkpt>
      <trkpt lat="42.449691000" lon="-2.497835000">
        <ele>431.20</ele>
        <time>2015-01-17T07:22:11Z</time>
      </trkpt>
      <trkpt lat="42.449672000" lon="-2.497854000">
        <ele>431.50</ele>
        <time>2015-01-17T07:22:12Z</time>
      </trkpt>
      <trkpt lat="42.449649000" lon="-2.497873000">
        <ele>431.70</ele>
        <time>2015-01-17T07:22:13Z</time>
      </trkpt>
      <trkpt lat="42.449626000" lon="-2.497890000">
        <ele>432.00</ele>
        <time>2015-01-17T07:22:14Z</time>
      </trkpt>
      <trkpt lat="42.449601000" lon="-2.497909000">
        <ele>432.10</ele>
        <time>2015-01-17T07:22:15Z</time>
      </trkpt>
      <trkpt lat="42.449579000" lon="-2.497930000">
        <ele>432.20</ele>
        <time>2015-01-17T07:22:16Z</time>
      </trkpt>
      <trkpt lat="42.449554000" lon="-2.497952000">
        <ele>432.30</ele>
        <time>2015-01-17T07:22:17Z</time>
      </trkpt>
      <trkpt lat="42.449530000" lon="-2.497973000">
        <ele>432.60</ele>
        <time>2015-01-17T07:22:18Z</time>
      </trkpt>
      <trkpt lat="42.449502000" lon="-2.497995000">
        <ele>432.80</ele>
        <time>2015-01-17T07:22:19Z</time>
      </trkpt>
      <trkpt lat="42.449476000" lon="-2.498012000">
        <ele>432.90</ele>
        <time>2015-01-17T07:22:20Z</time>
      </trkpt>
      <trkpt lat="42.449454000" lon="-2.498029000">
        <ele>433.00</ele>
        <time>2015-01-17T07:22:21Z</time>
      </trkpt>
      <trkpt lat="42.449436000" lon="-2.498044000">
        <ele>433.00</ele>
        <time>2015-01-17T07:22:22Z</time>
      </trkpt>
      <trkpt lat="42.449418000" lon="-2.498060000">
        <ele>433.00</ele>
        <time>2015-01-17T07:22:23Z</time>
      </trkpt>
      <trkpt lat="42.449396000" lon="-2.498077000">
        <ele>433.00</ele>
        <time>2015-01-17T07:22:24Z</time>
      </trkpt>
      <trkpt lat="42.449377000" lon="-2.498095000">
        <ele>433.00</ele>
        <time>2015-01-17T07:22:25Z</time>
      </trkpt>
      <trkpt lat="42.449356000" lon="-2.498110000">
        <ele>433.20</ele>
        <time>2015-01-17T07:22:26Z</time>
      </trkpt>
      <trkpt lat="42.449334000" lon="-2.498126000">
        <ele>433.30</ele>
        <time>2015-01-17T07:22:27Z</time>
      </trkpt>
      <trkpt lat="42.449314000" lon="-2.498143000">
        <ele>433.30</ele>
        <time>2015-01-17T07:22:28Z</time>
      </trkpt>
      <trkpt lat="42.449292000" lon="-2.498163000">
        <ele>433.40</ele>
        <time>2015-01-17T07:22:29Z</time>
      </trkpt>
      <trkpt lat="42.449272000" lon="-2.498184000">
        <ele>433.30</ele>
        <time>2015-01-17T07:22:30Z</time>
      </trkpt>
      <trkpt lat="42.449247000" lon="-2.498199000">
        <ele>433.20</ele>
        <time>2015-01-17T07:22:31Z</time>
      </trkpt>
      <trkpt lat="42.449219000" lon="-2.498211000">
        <ele>433.10</ele>
        <time>2015-01-17T07:22:32Z</time>
      </trkpt>
      <trkpt lat="42.449187000" lon="-2.498223000">
        <ele>433.00</ele>
        <time>2015-01-17T07:22:33Z</time>
      </trkpt>
      <trkpt lat="42.449154000" lon="-2.498227000">
        <ele>433.00</ele>
        <time>2015-01-17T07:22:34Z</time>
      </trkpt>
      <trkpt lat="42.449115000" lon="-2.498229000">
        <ele>433.00</ele>
        <time>2015-01-17T07:22:35Z</time>
      </trkpt>
      <trkpt lat="42.449070000" lon="-2.498227000">
        <ele>432.90</ele>
        <time>2015-01-17T07:22:36Z</time>
      </trkpt>
      <trkpt lat="42.449023000" lon="-2.498220000">
        <ele>432.80</ele>
        <time>2015-01-17T07:22:37Z</time>
      </trkpt>
      <trkpt lat="42.448974000" lon="-2.498215000">
        <ele>432.70</ele>
        <time>2015-01-17T07:22:38Z</time>
      </trkpt>
      <trkpt lat="42.448927000" lon="-2.498211000">
        <ele>432.60</ele>
        <time>2015-01-17T07:22:39Z</time>
      </trkpt>
      <trkpt lat="42.448883000" lon="-2.498216000">
        <ele>432.40</ele>
        <time>2015-01-17T07:22:40Z</time>
      </trkpt>
      <trkpt lat="42.448847000" lon="-2.498222000">
        <ele>432.30</ele>
        <time>2015-01-17T07:22:41Z</time>
      </trkpt>
      <trkpt lat="42.448818000" lon="-2.498237000">
        <ele>432.10</ele>
        <time>2015-01-17T07:22:42Z</time>
      </trkpt>
      <trkpt lat="42.448795000" lon="-2.498260000">
        <ele>432.00</ele>
        <time>2015-01-17T07:22:43Z</time>
      </trkpt>
      <trkpt lat="42.448783000" lon="-2.498294000">
        <ele>431.80</ele>
        <time>2015-01-17T07:22:44Z</time>
      </trkpt>
      <trkpt lat="42.448775000" lon="-2.498326000">
        <ele>431.60</ele>
        <time>2015-01-17T07:22:45Z</time>
      </trkpt>
      <trkpt lat="42.448772000" lon="-2.498366000">
        <ele>431.40</ele>
        <time>2015-01-17T07:22:46Z</time>
      </trkpt>
      <trkpt lat="42.448770000" lon="-2.498405000">
        <ele>431.20</ele>
        <time>2015-01-17T07:22:47Z</time>
      </trkpt>
      <trkpt lat="42.448770000" lon="-2.498448000">
        <ele>431.10</ele>
        <time>2015-01-17T07:22:48Z</time>
      </trkpt>
      <trkpt lat="42.448768000" lon="-2.498491000">
        <ele>431.10</ele>
        <time>2015-01-17T07:22:49Z</time>
      </trkpt>
      <trkpt lat="42.448762000" lon="-2.498535000">
        <ele>430.80</ele>
        <time>2015-01-17T07:22:50Z</time>
      </trkpt>
      <trkpt lat="42.448740000" lon="-2.498626000">
        <ele>430.40</ele>
        <time>2015-01-17T07:22:52Z</time>
      </trkpt>
      <trkpt lat="42.448724000" lon="-2.498670000">
        <ele>430.20</ele>
        <time>2015-01-17T07:22:53Z</time>
      </trkpt>
      <trkpt lat="42.448702000" lon="-2.498718000">
        <ele>430.00</ele>
        <time>2015-01-17T07:22:54Z</time>
      </trkpt>
      <trkpt lat="42.448679000" lon="-2.498763000">
        <ele>429.90</ele>
        <time>2015-01-17T07:22:55Z</time>
      </trkpt>
      <trkpt lat="42.448655000" lon="-2.498811000">
        <ele>429.80</ele>
        <time>2015-01-17T07:22:56Z</time>
      </trkpt>
      <trkpt lat="42.448630000" lon="-2.498855000">
        <ele>429.80</ele>
        <time>2015-01-17T07:22:57Z</time>
      </trkpt>
      <trkpt lat="42.448605000" lon="-2.498896000">
        <ele>429.70</ele>
        <time>2015-01-17T07:22:58Z</time>
      </trkpt>
      <trkpt lat="42.448578000" lon="-2.498933000">
        <ele>429.70</ele>
        <time>2015-01-17T07:22:59Z</time>
      </trkpt>
      <trkpt lat="42.448549000" lon="-2.498964000">
        <ele>429.70</ele>
        <time>2015-01-17T07:23:00Z</time>
      </trkpt>
      <trkpt lat="42.448519000" lon="-2.498986000">
        <ele>429.70</ele>
        <time>2015-01-17T07:23:01Z</time>
      </trkpt>
      <trkpt lat="42.448486000" lon="-2.499012000">
        <ele>429.60</ele>
        <time>2015-01-17T07:23:02Z</time>
      </trkpt>
      <trkpt lat="42.448453000" lon="-2.499036000">
        <ele>429.50</ele>
        <time>2015-01-17T07:23:03Z</time>
      </trkpt>
      <trkpt lat="42.448418000" lon="-2.499055000">
        <ele>429.50</ele>
        <time>2015-01-17T07:23:04Z</time>
      </trkpt>
      <trkpt lat="42.448383000" lon="-2.499079000">
        <ele>429.40</ele>
        <time>2015-01-17T07:23:05Z</time>
      </trkpt>
      <trkpt lat="42.448352000" lon="-2.499114000">
        <ele>429.40</ele>
        <time>2015-01-17T07:23:06Z</time>
      </trkpt>
      <trkpt lat="42.448325000" lon="-2.499152000">
        <ele>429.40</ele>
        <time>2015-01-17T07:23:07Z</time>
      </trkpt>
      <trkpt lat="42.448303000" lon="-2.499198000">
        <ele>429.20</ele>
        <time>2015-01-17T07:23:08Z</time>
      </trkpt>
      <trkpt lat="42.448283000" lon="-2.499248000">
        <ele>429.00</ele>
        <time>2015-01-17T07:23:09Z</time>
      </trkpt>
      <trkpt lat="42.448262000" lon="-2.499298000">
        <ele>428.90</ele>
        <time>2015-01-17T07:23:10Z</time>
      </trkpt>
      <trkpt lat="42.448247000" lon="-2.499354000">
        <ele>428.80</ele>
        <time>2015-01-17T07:23:11Z</time>
      </trkpt>
      <trkpt lat="42.448230000" lon="-2.499413000">
        <ele>428.80</ele>
        <time>2015-01-17T07:23:12Z</time>
      </trkpt>
      <trkpt lat="42.448211000" lon="-2.499474000">
        <ele>428.70</ele>
        <time>2015-01-17T07:23:13Z</time>
      </trkpt>
      <trkpt lat="42.448190000" lon="-2.499536000">
        <ele>428.50</ele>
        <time>2015-01-17T07:23:14Z</time>
      </trkpt>
      <trkpt lat="42.448168000" lon="-2.499603000">
        <ele>428.30</ele>
        <time>2015-01-17T07:23:15Z</time>
      </trkpt>
      <trkpt lat="42.448140000" lon="-2.499670000">
        <ele>428.10</ele>
        <time>2015-01-17T07:23:16Z</time>
      </trkpt>
      <trkpt lat="42.448107000" lon="-2.499730000">
        <ele>427.90</ele>
        <time>2015-01-17T07:23:17Z</time>
      </trkpt>
      <trkpt lat="42.448072000" lon="-2.499774000">
        <ele>427.60</ele>
        <time>2015-01-17T07:23:18Z</time>
      </trkpt>
      <trkpt lat="42.448040000" lon="-2.499806000">
        <ele>427.40</ele>
        <time>2015-01-17T07:23:19Z</time>
      </trkpt>
      <trkpt lat="42.448015000" lon="-2.499828000">
        <ele>427.20</ele>
        <time>2015-01-17T07:23:20Z</time>
      </trkpt>
      <trkpt lat="42.447998000" lon="-2.499844000">
        <ele>427.00</ele>
        <time>2015-01-17T07:23:21Z</time>
      </trkpt>
      <trkpt lat="42.447972000" lon="-2.499855000">
        <ele>426.80</ele>
        <time>2015-01-17T07:23:22Z</time>
      </trkpt>
      <trkpt lat="42.447943000" lon="-2.499868000">
        <ele>426.70</ele>
        <time>2015-01-17T07:23:23Z</time>
      </trkpt>
      <trkpt lat="42.447911000" lon="-2.499881000">
        <ele>426.60</ele>
        <time>2015-01-17T07:23:24Z</time>
      </trkpt>
      <trkpt lat="42.447879000" lon="-2.499887000">
        <ele>426.50</ele>
        <time>2015-01-17T07:23:25Z</time>
      </trkpt>
      <trkpt lat="42.447849000" lon="-2.499888000">
        <ele>426.40</ele>
        <time>2015-01-17T07:23:26Z</time>
      </trkpt>
      <trkpt lat="42.447819000" lon="-2.499878000">
        <ele>426.40</ele>
        <time>2015-01-17T07:23:27Z</time>
      </trkpt>
      <trkpt lat="42.447787000" lon="-2.499868000">
        <ele>426.40</ele>
        <time>2015-01-17T07:23:28Z</time>
      </trkpt>
      <trkpt lat="42.447754000" lon="-2.499857000">
        <ele>426.40</ele>
        <time>2015-01-17T07:23:29Z</time>
      </trkpt>
      <trkpt lat="42.447724000" lon="-2.499854000">
        <ele>426.70</ele>
        <time>2015-01-17T07:23:30Z</time>
      </trkpt>
      <trkpt lat="42.447695000" lon="-2.499863000">
        <ele>426.90</ele>
        <time>2015-01-17T07:23:31Z</time>
      </trkpt>
      <trkpt lat="42.447668000" lon="-2.499876000">
        <ele>427.10</ele>
        <time>2015-01-17T07:23:32Z</time>
      </trkpt>
      <trkpt lat="42.447643000" lon="-2.499898000">
        <ele>427.30</ele>
        <time>2015-01-17T07:23:33Z</time>
      </trkpt>
      <trkpt lat="42.447626000" lon="-2.499931000">
        <ele>427.60</ele>
        <time>2015-01-17T07:23:34Z</time>
      </trkpt>
      <trkpt lat="42.447611000" lon="-2.499964000">
        <ele>427.80</ele>
        <time>2015-01-17T07:23:35Z</time>
      </trkpt>
      <trkpt lat="42.447593000" lon="-2.499996000">
        <ele>428.20</ele>
        <time>2015-01-17T07:23:36Z</time>
      </trkpt>
      <trkpt lat="42.447575000" lon="-2.500028000">
        <ele>428.50</ele>
        <time>2015-01-17T07:23:37Z</time>
      </trkpt>
      <trkpt lat="42.447557000" lon="-2.500055000">
        <ele>428.70</ele>
        <time>2015-01-17T07:23:38Z</time>
      </trkpt>
      <trkpt lat="42.447539000" lon="-2.500088000">
        <ele>428.90</ele>
        <time>2015-01-17T07:23:39Z</time>
      </trkpt>
      <trkpt lat="42.447516000" lon="-2.500120000">
        <ele>429.10</ele>
        <time>2015-01-17T07:23:40Z</time>
      </trkpt>
      <trkpt lat="42.447497000" lon="-2.500149000">
        <ele>429.30</ele>
        <time>2015-01-17T07:23:41Z</time>
      </trkpt>
      <trkpt lat="42.447476000" lon="-2.500176000">
        <ele>429.40</ele>
        <time>2015-01-17T07:23:42Z</time>
      </trkpt>
      <trkpt lat="42.447454000" lon="-2.500200000">
        <ele>429.50</ele>
        <time>2015-01-17T07:23:43Z</time>
      </trkpt>
      <trkpt lat="42.447432000" lon="-2.500226000">
        <ele>429.90</ele>
        <time>2015-01-17T07:23:44Z</time>
      </trkpt>
      <trkpt lat="42.447411000" lon="-2.500252000">
        <ele>430.30</ele>
        <time>2015-01-17T07:23:45Z</time>
      </trkpt>
      <trkpt lat="42.447389000" lon="-2.500276000">
        <ele>430.50</ele>
        <time>2015-01-17T07:23:46Z</time>
      </trkpt>
      <trkpt lat="42.447365000" lon="-2.500299000">
        <ele>430.70</ele>
        <time>2015-01-17T07:23:47Z</time>
      </trkpt>
      <trkpt lat="42.447338000" lon="-2.500320000">
        <ele>431.20</ele>
        <time>2015-01-17T07:23:48Z</time>
      </trkpt>
      <trkpt lat="42.447309000" lon="-2.500339000">
        <ele>431.60</ele>
        <time>2015-01-17T07:23:49Z</time>
      </trkpt>
      <trkpt lat="42.447281000" lon="-2.500353000">
        <ele>431.90</ele>
        <time>2015-01-17T07:23:50Z</time>
      </trkpt>
      <trkpt lat="42.447253000" lon="-2.500359000">
        <ele>432.10</ele>
        <time>2015-01-17T07:23:51Z</time>
      </trkpt>
      <trkpt lat="42.447203000" lon="-2.500353000">
        <ele>432.30</ele>
        <time>2015-01-17T07:23:53Z</time>
      </trkpt>
      <trkpt lat="42.447181000" lon="-2.500343000">
        <ele>432.40</ele>
        <time>2015-01-17T07:23:54Z</time>
      </trkpt>
      <trkpt lat="42.447160000" lon="-2.500332000">
        <ele>432.50</ele>
        <time>2015-01-17T07:23:55Z</time>
      </trkpt>
      <trkpt lat="42.447141000" lon="-2.500321000">
        <ele>432.60</ele>
        <time>2015-01-17T07:23:56Z</time>
      </trkpt>
      <trkpt lat="42.447121000" lon="-2.500315000">
        <ele>432.60</ele>
        <time>2015-01-17T07:23:57Z</time>
      </trkpt>
      <trkpt lat="42.447102000" lon="-2.500304000">
        <ele>432.90</ele>
        <time>2015-01-17T07:23:58Z</time>
      </trkpt>
      <trkpt lat="42.447084000" lon="-2.500288000">
        <ele>433.10</ele>
        <time>2015-01-17T07:23:59Z</time>
      </trkpt>
      <trkpt lat="42.447069000" lon="-2.500273000">
        <ele>433.20</ele>
        <time>2015-01-17T07:24:00Z</time>
      </trkpt>
      <trkpt lat="42.447054000" lon="-2.500262000">
        <ele>433.30</ele>
        <time>2015-01-17T07:24:01Z</time>
      </trkpt>
      <trkpt lat="42.447041000" lon="-2.500249000">
        <ele>433.40</ele>
        <time>2015-01-17T07:24:02Z</time>
      </trkpt>
      <trkpt lat="42.447033000" lon="-2.500241000">
        <ele>433.50</ele>
        <time>2015-01-17T07:24:03Z</time>
      </trkpt>
      <trkpt lat="42.447027000" lon="-2.500230000">
        <ele>433.60</ele>
        <time>2015-01-17T07:24:04Z</time>
      </trkpt>
      <trkpt lat="42.447018000" lon="-2.500223000">
        <ele>433.70</ele>
        <time>2015-01-17T07:24:05Z</time>
      </trkpt>
      <trkpt lat="42.447011000" lon="-2.500212000">
        <ele>433.90</ele>
        <time>2015-01-17T07:24:06Z</time>
      </trkpt>
      <trkpt lat="42.447003000" lon="-2.500196000">
        <ele>434.00</ele>
        <time>2015-01-17T07:24:07Z</time>
      </trkpt>
      <trkpt lat="42.446997000" lon="-2.500186000">
        <ele>434.10</ele>
        <time>2015-01-17T07:24:08Z</time>
      </trkpt>
      <trkpt lat="42.446988000" lon="-2.500171000">
        <ele>434.30</ele>
        <time>2015-01-17T07:24:09Z</time>
      </trkpt>
      <trkpt lat="42.446978000" lon="-2.500165000">
        <ele>434.40</ele>
        <time>2015-01-17T07:24:10Z</time>
      </trkpt>
      <trkpt lat="42.446969000" lon="-2.500156000">
        <ele>434.50</ele>
        <time>2015-01-17T07:24:11Z</time>
      </trkpt>
      <trkpt lat="42.446960000" lon="-2.500146000">
        <ele>434.50</ele>
        <time>2015-01-17T07:24:12Z</time>
      </trkpt>
      <trkpt lat="42.446953000" lon="-2.500133000">
        <ele>434.60</ele>
        <time>2015-01-17T07:24:13Z</time>
      </trkpt>
      <trkpt lat="42.446943000" lon="-2.500117000">
        <ele>434.60</ele>
        <time>2015-01-17T07:24:14Z</time>
      </trkpt>
      <trkpt lat="42.446936000" lon="-2.500098000">
        <ele>434.70</ele>
        <time>2015-01-17T07:24:15Z</time>
      </trkpt>
      <trkpt lat="42.446928000" lon="-2.500078000">
        <ele>434.70</ele>
        <time>2015-01-17T07:24:16Z</time>
      </trkpt>
      <trkpt lat="42.446918000" lon="-2.500061000">
        <ele>434.60</ele>
        <time>2015-01-17T07:24:17Z</time>
      </trkpt>
      <trkpt lat="42.446906000" lon="-2.500034000">
        <ele>434.80</ele>
        <time>2015-01-17T07:24:18Z</time>
      </trkpt>
      <trkpt lat="42.446893000" lon="-2.500005000">
        <ele>434.90</ele>
        <time>2015-01-17T07:24:19Z</time>
      </trkpt>
      <trkpt lat="42.446875000" lon="-2.499971000">
        <ele>434.90</ele>
        <time>2015-01-17T07:24:20Z</time>
      </trkpt>
      <trkpt lat="42.446852000" lon="-2.499937000">
        <ele>435.00</ele>
        <time>2015-01-17T07:24:21Z</time>
      </trkpt>
      <trkpt lat="42.446830000" lon="-2.499901000">
        <ele>435.00</ele>
        <time>2015-01-17T07:24:22Z</time>
      </trkpt>
      <trkpt lat="42.446809000" lon="-2.499866000">
        <ele>435.00</ele>
        <time>2015-01-17T07:24:23Z</time>
      </trkpt>
      <trkpt lat="42.446782000" lon="-2.499833000">
        <ele>435.10</ele>
        <time>2015-01-17T07:24:24Z</time>
      </trkpt>
      <trkpt lat="42.446757000" lon="-2.499800000">
        <ele>435.10</ele>
        <time>2015-01-17T07:24:25Z</time>
      </trkpt>
      <trkpt lat="42.446731000" lon="-2.499768000">
        <ele>435.10</ele>
        <time>2015-01-17T07:24:26Z</time>
      </trkpt>
      <trkpt lat="42.446703000" lon="-2.499736000">
        <ele>435.10</ele>
        <time>2015-01-17T07:24:27Z</time>
      </trkpt>
      <trkpt lat="42.446671000" lon="-2.499705000">
        <ele>435.20</ele>
        <time>2015-01-17T07:24:28Z</time>
      </trkpt>
      <trkpt lat="42.446638000" lon="-2.499674000">
        <ele>435.20</ele>
        <time>2015-01-17T07:24:29Z</time>
      </trkpt>
      <trkpt lat="42.446607000" lon="-2.499643000">
        <ele>435.30</ele>
        <time>2015-01-17T07:24:30Z</time>
      </trkpt>
      <trkpt lat="42.446574000" lon="-2.499616000">
        <ele>435.30</ele>
        <time>2015-01-17T07:24:31Z</time>
      </trkpt>
      <trkpt lat="42.446542000" lon="-2.499587000">
        <ele>435.40</ele>
        <time>2015-01-17T07:24:32Z</time>
      </trkpt>
      <trkpt lat="42.446510000" lon="-2.499561000">
        <ele>435.40</ele>
        <time>2015-01-17T07:24:33Z</time>
      </trkpt>
      <trkpt lat="42.446482000" lon="-2.499527000">
        <ele>435.50</ele>
        <time>2015-01-17T07:24:34Z</time>
      </trkpt>
      <trkpt lat="42.446456000" lon="-2.499497000">
        <ele>435.50</ele>
        <time>2015-01-17T07:24:35Z</time>
      </trkpt>
      <trkpt lat="42.446435000" lon="-2.499464000">
        <ele>435.50</ele>
        <time>2015-01-17T07:24:36Z</time>
      </trkpt>
      <trkpt lat="42.446414000" lon="-2.499431000">
        <ele>435.50</ele>
        <time>2015-01-17T07:24:37Z</time>
      </trkpt>
      <trkpt lat="42.446396000" lon="-2.499401000">
        <ele>435.40</ele>
        <time>2015-01-17T07:24:38Z</time>
      </trkpt>
      <trkpt lat="42.446383000" lon="-2.499371000">
        <ele>435.40</ele>
        <time>2015-01-17T07:24:39Z</time>
      </trkpt>
      <trkpt lat="42.446373000" lon="-2.499345000">
        <ele>435.30</ele>
        <time>2015-01-17T07:24:40Z</time>
      </trkpt>
      <trkpt lat="42.446362000" lon="-2.499322000">
        <ele>435.20</ele>
        <time>2015-01-17T07:24:41Z</time>
      </trkpt>
      <trkpt lat="42.446350000" lon="-2.499301000">
        <ele>435.10</ele>
        <time>2015-01-17T07:24:42Z</time>
      </trkpt>
      <trkpt lat="42.446338000" lon="-2.499283000">
        <ele>435.00</ele>
        <time>2015-01-17T07:24:43Z</time>
      </trkpt>
      <trkpt lat="42.446323000" lon="-2.499262000">
        <ele>435.10</ele>
        <time>2015-01-17T07:24:44Z</time>
      </trkpt>
      <trkpt lat="42.446305000" lon="-2.499241000">
        <ele>435.10</ele>
        <time>2015-01-17T07:24:45Z</time>
      </trkpt>
      <trkpt lat="42.446286000" lon="-2.499215000">
        <ele>435.10</ele>
        <time>2015-01-17T07:24:46Z</time>
      </trkpt>
      <trkpt lat="42.446268000" lon="-2.499192000">
        <ele>435.10</ele>
        <time>2015-01-17T07:24:47Z</time>
      </trkpt>
      <trkpt lat="42.446247000" lon="-2.499166000">
        <ele>435.10</ele>
        <time>2015-01-17T07:24:48Z</time>
      </trkpt>
      <trkpt lat="42.446225000" lon="-2.499147000">
        <ele>435.10</ele>
        <time>2015-01-17T07:24:49Z</time>
      </trkpt>
      <trkpt lat="42.446202000" lon="-2.499128000">
        <ele>435.20</ele>
        <time>2015-01-17T07:24:50Z</time>
      </trkpt>
      <trkpt lat="42.446174000" lon="-2.499113000">
        <ele>435.20</ele>
        <time>2015-01-17T07:24:51Z</time>
      </trkpt>
      <trkpt lat="42.446146000" lon="-2.499102000">
        <ele>435.30</ele>
        <time>2015-01-17T07:24:52Z</time>
      </trkpt>
      <trkpt lat="42.446093000" lon="-2.499090000">
        <ele>435.40</ele>
        <time>2015-01-17T07:24:54Z</time>
      </trkpt>
      <trkpt lat="42.446066000" lon="-2.499080000">
        <ele>435.40</ele>
        <time>2015-01-17T07:24:55Z</time>
      </trkpt>
      <trkpt lat="42.446039000" lon="-2.499078000">
        <ele>435.30</ele>
        <time>2015-01-17T07:24:56Z</time>
      </trkpt>
      <trkpt lat="42.446015000" lon="-2.499081000">
        <ele>435.20</ele>
        <time>2015-01-17T07:24:57Z</time>
      </trkpt>
      <trkpt lat="42.445986000" lon="-2.499083000">
        <ele>435.00</ele>
        <time>2015-01-17T07:24:58Z</time>
      </trkpt>
      <trkpt lat="42.445956000" lon="-2.499085000">
        <ele>434.90</ele>
        <time>2015-01-17T07:24:59Z</time>
      </trkpt>
      <trkpt lat="42.445927000" lon="-2.499089000">
        <ele>434.80</ele>
        <time>2015-01-17T07:25:00Z</time>
      </trkpt>
      <trkpt lat="42.445899000" lon="-2.499093000">
        <ele>434.80</ele>
        <time>2015-01-17T07:25:01Z</time>
      </trkpt>
      <trkpt lat="42.445866000" lon="-2.499098000">
        <ele>434.80</ele>
        <time>2015-01-17T07:25:02Z</time>
      </trkpt>
      <trkpt lat="42.445834000" lon="-2.499099000">
        <ele>434.80</ele>
        <time>2015-01-17T07:25:03Z</time>
      </trkpt>
      <trkpt lat="42.445802000" lon="-2.499100000">
        <ele>434.90</ele>
        <time>2015-01-17T07:25:04Z</time>
      </trkpt>
      <trkpt lat="42.445770000" lon="-2.499107000">
        <ele>435.00</ele>
        <time>2015-01-17T07:25:05Z</time>
      </trkpt>
      <trkpt lat="42.445739000" lon="-2.499115000">
        <ele>435.10</ele>
        <time>2015-01-17T07:25:06Z</time>
      </trkpt>
      <trkpt lat="42.445707000" lon="-2.499123000">
        <ele>435.10</ele>
        <time>2015-01-17T07:25:07Z</time>
      </trkpt>
      <trkpt lat="42.445676000" lon="-2.499129000">
        <ele>435.10</ele>
        <time>2015-01-17T07:25:08Z</time>
      </trkpt>
      <trkpt lat="42.445645000" lon="-2.499136000">
        <ele>435.10</ele>
        <time>2015-01-17T07:25:09Z</time>
      </trkpt>
      <trkpt lat="42.445614000" lon="-2.499146000">
        <ele>435.10</ele>
        <time>2015-01-17T07:25:10Z</time>
      </trkpt>
      <trkpt lat="42.445584000" lon="-2.499156000">
        <ele>435.10</ele>
        <time>2015-01-17T07:25:11Z</time>
      </trkpt>
      <trkpt lat="42.445555000" lon="-2.499167000">
        <ele>435.20</ele>
        <time>2015-01-17T07:25:12Z</time>
      </trkpt>
      <trkpt lat="42.445529000" lon="-2.499179000">
        <ele>435.20</ele>
        <time>2015-01-17T07:25:13Z</time>
      </trkpt>
      <trkpt lat="42.445504000" lon="-2.499188000">
        <ele>435.30</ele>
        <time>2015-01-17T07:25:14Z</time>
      </trkpt>
      <trkpt lat="42.445475000" lon="-2.499198000">
        <ele>435.40</ele>
        <time>2015-01-17T07:25:15Z</time>
      </trkpt>
      <trkpt lat="42.445447000" lon="-2.499207000">
        <ele>435.40</ele>
        <time>2015-01-17T07:25:16Z</time>
      </trkpt>
      <trkpt lat="42.445420000" lon="-2.499210000">
        <ele>435.40</ele>
        <time>2015-01-17T07:25:17Z</time>
      </trkpt>
      <trkpt lat="42.445393000" lon="-2.499219000">
        <ele>435.50</ele>
        <time>2015-01-17T07:25:18Z</time>
      </trkpt>
      <trkpt lat="42.445365000" lon="-2.499227000">
        <ele>435.70</ele>
        <time>2015-01-17T07:25:19Z</time>
      </trkpt>
      <trkpt lat="42.445341000" lon="-2.499234000">
        <ele>435.80</ele>
        <time>2015-01-17T07:25:20Z</time>
      </trkpt>
      <trkpt lat="42.445314000" lon="-2.499244000">
        <ele>435.80</ele>
        <time>2015-01-17T07:25:21Z</time>
      </trkpt>
      <trkpt lat="42.445288000" lon="-2.499252000">
        <ele>435.90</ele>
        <time>2015-01-17T07:25:22Z</time>
      </trkpt>
      <trkpt lat="42.445266000" lon="-2.499259000">
        <ele>435.90</ele>
        <time>2015-01-17T07:25:23Z</time>
      </trkpt>
      <trkpt lat="42.445244000" lon="-2.499268000">
        <ele>435.90</ele>
        <time>2015-01-17T07:25:24Z</time>
      </trkpt>
      <trkpt lat="42.445225000" lon="-2.499278000">
        <ele>435.90</ele>
        <time>2015-01-17T07:25:25Z</time>
      </trkpt>
      <trkpt lat="42.445202000" lon="-2.499288000">
        <ele>435.90</ele>
        <time>2015-01-17T07:25:26Z</time>
      </trkpt>
      <trkpt lat="42.445179000" lon="-2.499300000">
        <ele>435.80</ele>
        <time>2015-01-17T07:25:27Z</time>
      </trkpt>
      <trkpt lat="42.445157000" lon="-2.499310000">
        <ele>435.80</ele>
        <time>2015-01-17T07:25:28Z</time>
      </trkpt>
      <trkpt lat="42.445129000" lon="-2.499324000">
        <ele>435.80</ele>
        <time>2015-01-17T07:25:29Z</time>
      </trkpt>
      <trkpt lat="42.445102000" lon="-2.499336000">
        <ele>435.80</ele>
        <time>2015-01-17T07:25:30Z</time>
      </trkpt>
      <trkpt lat="42.445077000" lon="-2.499347000">
        <ele>435.80</ele>
        <time>2015-01-17T07:25:31Z</time>
      </trkpt>
      <trkpt lat="42.445051000" lon="-2.499357000">
        <ele>435.80</ele>
        <time>2015-01-17T07:25:32Z</time>
      </trkpt>
      <trkpt lat="42.445026000" lon="-2.499371000">
        <ele>435.80</ele>
        <time>2015-01-17T07:25:33Z</time>
      </trkpt>
      <trkpt lat="42.444999000" lon="-2.499381000">
        <ele>435.80</ele>
        <time>2015-01-17T07:25:34Z</time>
      </trkpt>
      <trkpt lat="42.444972000" lon="-2.499396000">
        <ele>435.80</ele>
        <time>2015-01-17T07:25:35Z</time>
      </trkpt>
      <trkpt lat="42.444945000" lon="-2.499403000">
        <ele>435.80</ele>
        <time>2015-01-17T07:25:36Z</time>
      </trkpt>
      <trkpt lat="42.444924000" lon="-2.499419000">
        <ele>435.80</ele>
        <time>2015-01-17T07:25:37Z</time>
      </trkpt>
      <trkpt lat="42.444902000" lon="-2.499435000">
        <ele>435.80</ele>
        <time>2015-01-17T07:25:38Z</time>
      </trkpt>
      <trkpt lat="42.444879000" lon="-2.499452000">
        <ele>435.80</ele>
        <time>2015-01-17T07:25:39Z</time>
      </trkpt>
      <trkpt lat="42.444857000" lon="-2.499471000">
        <ele>436.10</ele>
        <time>2015-01-17T07:25:40Z</time>
      </trkpt>
      <trkpt lat="42.444835000" lon="-2.499493000">
        <ele>436.30</ele>
        <time>2015-01-17T07:25:41Z</time>
      </trkpt>
      <trkpt lat="42.444812000" lon="-2.499510000">
        <ele>436.50</ele>
        <time>2015-01-17T07:25:42Z</time>
      </trkpt>
      <trkpt lat="42.444788000" lon="-2.499526000">
        <ele>436.60</ele>
        <time>2015-01-17T07:25:43Z</time>
      </trkpt>
      <trkpt lat="42.444762000" lon="-2.499541000">
        <ele>436.70</ele>
        <time>2015-01-17T07:25:44Z</time>
      </trkpt>
      <trkpt lat="42.444737000" lon="-2.499554000">
        <ele>436.80</ele>
        <time>2015-01-17T07:25:45Z</time>
      </trkpt>
      <trkpt lat="42.444714000" lon="-2.499570000">
        <ele>437.00</ele>
        <time>2015-01-17T07:25:46Z</time>
      </trkpt>
      <trkpt lat="42.444689000" lon="-2.499584000">
        <ele>437.10</ele>
        <time>2015-01-17T07:25:47Z</time>
      </trkpt>
      <trkpt lat="42.444665000" lon="-2.499592000">
        <ele>437.20</ele>
        <time>2015-01-17T07:25:48Z</time>
      </trkpt>
      <trkpt lat="42.444639000" lon="-2.499585000">
        <ele>437.30</ele>
        <time>2015-01-17T07:25:49Z</time>
      </trkpt>
      <trkpt lat="42.444613000" lon="-2.499582000">
        <ele>437.40</ele>
        <time>2015-01-17T07:25:50Z</time>
      </trkpt>
      <trkpt lat="42.444590000" lon="-2.499570000">
        <ele>437.50</ele>
        <time>2015-01-17T07:25:51Z</time>
      </trkpt>
      <trkpt lat="42.444565000" lon="-2.499554000">
        <ele>437.20</ele>
        <time>2015-01-17T07:25:52Z</time>
      </trkpt>
      <trkpt lat="42.444539000" lon="-2.499538000">
        <ele>437.00</ele>
        <time>2015-01-17T07:25:53Z</time>
      </trkpt>
      <trkpt lat="42.444491000" lon="-2.499498000">
        <ele>436.60</ele>
        <time>2015-01-17T07:25:55Z</time>
      </trkpt>
      <trkpt lat="42.444468000" lon="-2.499477000">
        <ele>436.30</ele>
        <time>2015-01-17T07:25:56Z</time>
      </trkpt>
      <trkpt lat="42.444449000" lon="-2.499454000">
        <ele>436.10</ele>
        <time>2015-01-17T07:25:57Z</time>
      </trkpt>
      <trkpt lat="42.444431000" lon="-2.499434000">
        <ele>436.10</ele>
        <time>2015-01-17T07:25:58Z</time>
      </trkpt>
      <trkpt lat="42.444413000" lon="-2.499410000">
        <ele>436.10</ele>
        <time>2015-01-17T07:25:59Z</time>
      </trkpt>
      <trkpt lat="42.444396000" lon="-2.499387000">
        <ele>435.90</ele>
        <time>2015-01-17T07:26:00Z</time>
      </trkpt>
      <trkpt lat="42.444377000" lon="-2.499360000">
        <ele>435.70</ele>
        <time>2015-01-17T07:26:01Z</time>
      </trkpt>
      <trkpt lat="42.444356000" lon="-2.499334000">
        <ele>436.10</ele>
        <time>2015-01-17T07:26:02Z</time>
      </trkpt>
      <trkpt lat="42.444337000" lon="-2.499310000">
        <ele>436.30</ele>
        <time>2015-01-17T07:26:03Z</time>
      </trkpt>
      <trkpt lat="42.444317000" lon="-2.499286000">
        <ele>436.60</ele>
        <time>2015-01-17T07:26:04Z</time>
      </trkpt>
      <trkpt lat="42.444299000" lon="-2.499264000">
        <ele>436.90</ele>
        <time>2015-01-17T07:26:05Z</time>
      </trkpt>
      <trkpt lat="42.444282000" lon="-2.499240000">
        <ele>437.10</ele>
        <time>2015-01-17T07:26:06Z</time>
      </trkpt>
      <trkpt lat="42.444266000" lon="-2.499214000">
        <ele>437.30</ele>
        <time>2015-01-17T07:26:07Z</time>
      </trkpt>
      <trkpt lat="42.444250000" lon="-2.499186000">
        <ele>437.20</ele>
        <time>2015-01-17T07:26:08Z</time>
      </trkpt>
      <trkpt lat="42.444237000" lon="-2.499160000">
        <ele>437.10</ele>
        <time>2015-01-17T07:26:09Z</time>
      </trkpt>
      <trkpt lat="42.444226000" lon="-2.499132000">
        <ele>437.10</ele>
        <time>2015-01-17T07:26:10Z</time>
      </trkpt>
      <trkpt lat="42.444210000" lon="-2.499107000">
        <ele>437.00</ele>
        <time>2015-01-17T07:26:11Z</time>
      </trkpt>
      <trkpt lat="42.444195000" lon="-2.499079000">
        <ele>436.90</ele>
        <time>2015-01-17T07:26:12Z</time>
      </trkpt>
      <trkpt lat="42.444176000" lon="-2.499056000">
        <ele>436.70</ele>
        <time>2015-01-17T07:26:13Z</time>
      </trkpt>
      <trkpt lat="42.444156000" lon="-2.499029000">
        <ele>436.80</ele>
        <time>2015-01-17T07:26:14Z</time>
      </trkpt>
      <trkpt lat="42.444139000" lon="-2.499001000">
        <ele>436.80</ele>
        <time>2015-01-17T07:26:15Z</time>
      </trkpt>
      <trkpt lat="42.444120000" lon="-2.498973000">
        <ele>437.00</ele>
        <time>2015-01-17T07:26:16Z</time>
      </trkpt>
      <trkpt lat="42.444097000" lon="-2.498948000">
        <ele>437.10</ele>
        <time>2015-01-17T07:26:17Z</time>
      </trkpt>
      <trkpt lat="42.444072000" lon="-2.498924000">
        <ele>437.50</ele>
        <time>2015-01-17T07:26:18Z</time>
      </trkpt>
      <trkpt lat="42.444049000" lon="-2.498899000">
        <ele>437.80</ele>
        <time>2015-01-17T07:26:19Z</time>
      </trkpt>
      <trkpt lat="42.444024000" lon="-2.498874000">
        <ele>438.10</ele>
        <time>2015-01-17T07:26:20Z</time>
      </trkpt>
      <trkpt lat="42.443999000" lon="-2.498854000">
        <ele>438.30</ele>
        <time>2015-01-17T07:26:21Z</time>
      </trkpt>
      <trkpt lat="42.443972000" lon="-2.498836000">
        <ele>438.60</ele>
        <time>2015-01-17T07:26:22Z</time>
      </trkpt>
      <trkpt lat="42.443943000" lon="-2.498818000">
        <ele>438.80</ele>
        <time>2015-01-17T07:26:23Z</time>
      </trkpt>
      <trkpt lat="42.443918000" lon="-2.498799000">
        <ele>439.00</ele>
        <time>2015-01-17T07:26:24Z</time>
      </trkpt>
      <trkpt lat="42.443894000" lon="-2.498783000">
        <ele>439.10</ele>
        <time>2015-01-17T07:26:25Z</time>
      </trkpt>
      <trkpt lat="42.443865000" lon="-2.498766000">
        <ele>439.20</ele>
        <time>2015-01-17T07:26:26Z</time>
      </trkpt>
      <trkpt lat="42.443836000" lon="-2.498755000">
        <ele>439.30</ele>
        <time>2015-01-17T07:26:27Z</time>
      </trkpt>
      <trkpt lat="42.443810000" lon="-2.498742000">
        <ele>439.40</ele>
        <time>2015-01-17T07:26:28Z</time>
      </trkpt>
      <trkpt lat="42.443784000" lon="-2.498732000">
        <ele>439.50</ele>
        <time>2015-01-17T07:26:29Z</time>
      </trkpt>
      <trkpt lat="42.443756000" lon="-2.498720000">
        <ele>439.60</ele>
        <time>2015-01-17T07:26:30Z</time>
      </trkpt>
      <trkpt lat="42.443730000" lon="-2.498713000">
        <ele>439.70</ele>
        <time>2015-01-17T07:26:31Z</time>
      </trkpt>
      <trkpt lat="42.443704000" lon="-2.498706000">
        <ele>439.80</ele>
        <time>2015-01-17T07:26:32Z</time>
      </trkpt>
      <trkpt lat="42.443676000" lon="-2.498706000">
        <ele>439.90</ele>
        <time>2015-01-17T07:26:33Z</time>
      </trkpt>
      <trkpt lat="42.443647000" lon="-2.498711000">
        <ele>440.20</ele>
        <time>2015-01-17T07:26:34Z</time>
      </trkpt>
      <trkpt lat="42.443615000" lon="-2.498720000">
        <ele>440.40</ele>
        <time>2015-01-17T07:26:35Z</time>
      </trkpt>
      <trkpt lat="42.443586000" lon="-2.498729000">
        <ele>440.50</ele>
        <time>2015-01-17T07:26:36Z</time>
      </trkpt>
      <trkpt lat="42.443559000" lon="-2.498745000">
        <ele>440.60</ele>
        <time>2015-01-17T07:26:37Z</time>
      </trkpt>
      <trkpt lat="42.443535000" lon="-2.498767000">
        <ele>440.70</ele>
        <time>2015-01-17T07:26:38Z</time>
      </trkpt>
      <trkpt lat="42.443511000" lon="-2.498790000">
        <ele>440.80</ele>
        <time>2015-01-17T07:26:39Z</time>
      </trkpt>
      <trkpt lat="42.443491000" lon="-2.498817000">
        <ele>440.90</ele>
        <time>2015-01-17T07:26:40Z</time>
      </trkpt>
      <trkpt lat="42.443474000" lon="-2.498848000">
        <ele>441.00</ele>
        <time>2015-01-17T07:26:41Z</time>
      </trkpt>
      <trkpt lat="42.443455000" lon="-2.498879000">
        <ele>441.00</ele>
        <time>2015-01-17T07:26:42Z</time>
      </trkpt>
      <trkpt lat="42.443437000" lon="-2.498902000">
        <ele>441.10</ele>
        <time>2015-01-17T07:26:43Z</time>
      </trkpt>
      <trkpt lat="42.443416000" lon="-2.498933000">
        <ele>441.10</ele>
        <time>2015-01-17T07:26:44Z</time>
      </trkpt>
      <trkpt lat="42.443394000" lon="-2.498958000">
        <ele>441.10</ele>
        <time>2015-01-17T07:26:45Z</time>
      </trkpt>
      <trkpt lat="42.443374000" lon="-2.498980000">
        <ele>441.30</ele>
        <time>2015-01-17T07:26:46Z</time>
      </trkpt>
      <trkpt lat="42.443353000" lon="-2.499003000">
        <ele>441.40</ele>
        <time>2015-01-17T07:26:47Z</time>
      </trkpt>
      <trkpt lat="42.443333000" lon="-2.499025000">
        <ele>441.60</ele>
        <time>2015-01-17T07:26:48Z</time>
      </trkpt>
      <trkpt lat="42.443309000" lon="-2.499041000">
        <ele>441.70</ele>
        <time>2015-01-17T07:26:49Z</time>
      </trkpt>
      <trkpt lat="42.443284000" lon="-2.499055000">
        <ele>441.70</ele>
        <time>2015-01-17T07:26:50Z</time>
      </trkpt>
      <trkpt lat="42.443262000" lon="-2.499070000">
        <ele>441.70</ele>
        <time>2015-01-17T07:26:51Z</time>
      </trkpt>
      <trkpt lat="42.443240000" lon="-2.499085000">
        <ele>441.80</ele>
        <time>2015-01-17T07:26:52Z</time>
      </trkpt>
      <trkpt lat="42.443218000" lon="-2.499093000">
        <ele>441.80</ele>
        <time>2015-01-17T07:26:53Z</time>
      </trkpt>
      <trkpt lat="42.443197000" lon="-2.499103000">
        <ele>442.10</ele>
        <time>2015-01-17T07:26:54Z</time>
      </trkpt>
      <trkpt lat="42.443152000" lon="-2.499107000">
        <ele>442.50</ele>
        <time>2015-01-17T07:26:56Z</time>
      </trkpt>
      <trkpt lat="42.443129000" lon="-2.499095000">
        <ele>442.70</ele>
        <time>2015-01-17T07:26:57Z</time>
      </trkpt>
      <trkpt lat="42.443109000" lon="-2.499077000">
        <ele>442.80</ele>
        <time>2015-01-17T07:26:58Z</time>
      </trkpt>
      <trkpt lat="42.443094000" lon="-2.499050000">
        <ele>442.90</ele>
        <time>2015-01-17T07:26:59Z</time>
      </trkpt>
      <trkpt lat="42.443079000" lon="-2.499030000">
        <ele>443.00</ele>
        <time>2015-01-17T07:27:00Z</time>
      </trkpt>
      <trkpt lat="42.443061000" lon="-2.499009000">
        <ele>443.10</ele>
        <time>2015-01-17T07:27:01Z</time>
      </trkpt>
      <trkpt lat="42.443042000" lon="-2.498987000">
        <ele>443.00</ele>
        <time>2015-01-17T07:27:02Z</time>
      </trkpt>
      <trkpt lat="42.443023000" lon="-2.498970000">
        <ele>442.90</ele>
        <time>2015-01-17T07:27:03Z</time>
      </trkpt>
      <trkpt lat="42.443000000" lon="-2.498957000">
        <ele>443.40</ele>
        <time>2015-01-17T07:27:04Z</time>
      </trkpt>
      <trkpt lat="42.442973000" lon="-2.498949000">
        <ele>443.70</ele>
        <time>2015-01-17T07:27:05Z</time>
      </trkpt>
      <trkpt lat="42.442944000" lon="-2.498950000">
        <ele>444.00</ele>
        <time>2015-01-17T07:27:06Z</time>
      </trkpt>
      <trkpt lat="42.442914000" lon="-2.498952000">
        <ele>444.20</ele>
        <time>2015-01-17T07:27:07Z</time>
      </trkpt>
      <trkpt lat="42.442886000" lon="-2.498958000">
        <ele>444.50</ele>
        <time>2015-01-17T07:27:08Z</time>
      </trkpt>
      <trkpt lat="42.442855000" lon="-2.498957000">
        <ele>444.70</ele>
        <time>2015-01-17T07:27:09Z</time>
      </trkpt>
      <trkpt lat="42.442822000" lon="-2.498957000">
        <ele>444.90</ele>
        <time>2015-01-17T07:27:10Z</time>
      </trkpt>
      <trkpt lat="42.442788000" lon="-2.498962000">
        <ele>445.00</ele>
        <time>2015-01-17T07:27:11Z</time>
      </trkpt>
      <trkpt lat="42.442756000" lon="-2.498959000">
        <ele>445.10</ele>
        <time>2015-01-17T07:27:12Z</time>
      </trkpt>
      <trkpt lat="42.442724000" lon="-2.498962000">
        <ele>445.20</ele>
        <time>2015-01-17T07:27:13Z</time>
      </trkpt>
      <trkpt lat="42.442690000" lon="-2.498964000">
        <ele>445.30</ele>
        <time>2015-01-17T07:27:14Z</time>
      </trkpt>
      <trkpt lat="42.442651000" lon="-2.498968000">
        <ele>445.30</ele>
        <time>2015-01-17T07:27:15Z</time>
      </trkpt>
      <trkpt lat="42.442614000" lon="-2.498970000">
        <ele>445.30</ele>
        <time>2015-01-17T07:27:16Z</time>
      </trkpt>
      <trkpt lat="42.442580000" lon="-2.498970000">
        <ele>445.30</ele>
        <time>2015-01-17T07:27:17Z</time>
      </trkpt>
      <trkpt lat="42.442541000" lon="-2.498971000">
        <ele>445.20</ele>
        <time>2015-01-17T07:27:18Z</time>
      </trkpt>
      <trkpt lat="42.442503000" lon="-2.498965000">
        <ele>445.20</ele>
        <time>2015-01-17T07:27:19Z</time>
      </trkpt>
      <trkpt lat="42.442467000" lon="-2.498956000">
        <ele>445.20</ele>
        <time>2015-01-17T07:27:20Z</time>
      </trkpt>
      <trkpt lat="42.442431000" lon="-2.498948000">
        <ele>445.20</ele>
        <time>2015-01-17T07:27:21Z</time>
      </trkpt>
      <trkpt lat="42.442396000" lon="-2.498942000">
        <ele>445.20</ele>
        <time>2015-01-17T07:27:22Z</time>
      </trkpt>
      <trkpt lat="42.442361000" lon="-2.498938000">
        <ele>445.20</ele>
        <time>2015-01-17T07:27:23Z</time>
      </trkpt>
      <trkpt lat="42.442327000" lon="-2.498940000">
        <ele>445.10</ele>
        <time>2015-01-17T07:27:24Z</time>
      </trkpt>
      <trkpt lat="42.442293000" lon="-2.498938000">
        <ele>445.00</ele>
        <time>2015-01-17T07:27:25Z</time>
      </trkpt>
      <trkpt lat="42.442258000" lon="-2.498940000">
        <ele>444.90</ele>
        <time>2015-01-17T07:27:26Z</time>
      </trkpt>
      <trkpt lat="42.442220000" lon="-2.498941000">
        <ele>444.90</ele>
        <time>2015-01-17T07:27:27Z</time>
      </trkpt>
      <trkpt lat="42.442183000" lon="-2.498945000">
        <ele>444.90</ele>
        <time>2015-01-17T07:27:28Z</time>
      </trkpt>
      <trkpt lat="42.442148000" lon="-2.498954000">
        <ele>444.90</ele>
        <time>2015-01-17T07:27:29Z</time>
      </trkpt>
      <trkpt lat="42.442115000" lon="-2.498968000">
        <ele>445.00</ele>
        <time>2015-01-17T07:27:30Z</time>
      </trkpt>
      <trkpt lat="42.442085000" lon="-2.498987000">
        <ele>445.00</ele>
        <time>2015-01-17T07:27:31Z</time>
      </trkpt>
      <trkpt lat="42.442056000" lon="-2.499002000">
        <ele>445.00</ele>
        <time>2015-01-17T07:27:32Z</time>
      </trkpt>
      <trkpt lat="42.442024000" lon="-2.499018000">
        <ele>445.00</ele>
        <time>2015-01-17T07:27:33Z</time>
      </trkpt>
      <trkpt lat="42.441994000" lon="-2.499035000">
        <ele>444.90</ele>
        <time>2015-01-17T07:27:34Z</time>
      </trkpt>
      <trkpt lat="42.441966000" lon="-2.499053000">
        <ele>444.90</ele>
        <time>2015-01-17T07:27:35Z</time>
      </trkpt>
      <trkpt lat="42.441940000" lon="-2.499071000">
        <ele>444.90</ele>
        <time>2015-01-17T07:27:36Z</time>
      </trkpt>
      <trkpt lat="42.441917000" lon="-2.499091000">
        <ele>444.80</ele>
        <time>2015-01-17T07:27:37Z</time>
      </trkpt>
      <trkpt lat="42.441897000" lon="-2.499114000">
        <ele>444.80</ele>
        <time>2015-01-17T07:27:38Z</time>
      </trkpt>
      <trkpt lat="42.441879000" lon="-2.499146000">
        <ele>444.80</ele>
        <time>2015-01-17T07:27:39Z</time>
      </trkpt>
      <trkpt lat="42.441867000" lon="-2.499177000">
        <ele>444.80</ele>
        <time>2015-01-17T07:27:40Z</time>
      </trkpt>
      <trkpt lat="42.441857000" lon="-2.499215000">
        <ele>444.90</ele>
        <time>2015-01-17T07:27:41Z</time>
      </trkpt>
      <trkpt lat="42.441854000" lon="-2.499255000">
        <ele>445.10</ele>
        <time>2015-01-17T07:27:42Z</time>
      </trkpt>
      <trkpt lat="42.441852000" lon="-2.499295000">
        <ele>445.30</ele>
        <time>2015-01-17T07:27:43Z</time>
      </trkpt>
      <trkpt lat="42.441853000" lon="-2.499337000">
        <ele>445.60</ele>
        <time>2015-01-17T07:27:44Z</time>
      </trkpt>
      <trkpt lat="42.441853000" lon="-2.499379000">
        <ele>445.80</ele>
        <time>2015-01-17T07:27:45Z</time>
      </trkpt>
      <trkpt lat="42.441851000" lon="-2.499424000">
        <ele>445.90</ele>
        <time>2015-01-17T07:27:46Z</time>
      </trkpt>
      <trkpt lat="42.441847000" lon="-2.499468000">
        <ele>446.00</ele>
        <time>2015-01-17T07:27:47Z</time>
      </trkpt>
      <trkpt lat="42.441839000" lon="-2.499508000">
        <ele>446.20</ele>
        <time>2015-01-17T07:27:48Z</time>
      </trkpt>
      <trkpt lat="42.441829000" lon="-2.499548000">
        <ele>446.30</ele>
        <time>2015-01-17T07:27:49Z</time>
      </trkpt>
      <trkpt lat="42.441814000" lon="-2.499588000">
        <ele>446.40</ele>
        <time>2015-01-17T07:27:50Z</time>
      </trkpt>
      <trkpt lat="42.441795000" lon="-2.499619000">
        <ele>446.50</ele>
        <time>2015-01-17T07:27:51Z</time>
      </trkpt>
      <trkpt lat="42.441774000" lon="-2.499644000">
        <ele>446.70</ele>
        <time>2015-01-17T07:27:52Z</time>
      </trkpt>
      <trkpt lat="42.441749000" lon="-2.499665000">
        <ele>446.80</ele>
        <time>2015-01-17T07:27:53Z</time>
      </trkpt>
      <trkpt lat="42.441724000" lon="-2.499687000">
        <ele>446.90</ele>
        <time>2015-01-17T07:27:54Z</time>
      </trkpt>
      <trkpt lat="42.441695000" lon="-2.499710000">
        <ele>447.00</ele>
        <time>2015-01-17T07:27:55Z</time>
      </trkpt>
      <trkpt lat="42.441628000" lon="-2.499768000">
        <ele>446.90</ele>
        <time>2015-01-17T07:27:57Z</time>
      </trkpt>
      <trkpt lat="42.441592000" lon="-2.499790000">
        <ele>446.70</ele>
        <time>2015-01-17T07:27:58Z</time>
      </trkpt>
      <trkpt lat="42.441555000" lon="-2.499815000">
        <ele>446.50</ele>
        <time>2015-01-17T07:27:59Z</time>
      </trkpt>
      <trkpt lat="42.441520000" lon="-2.499844000">
        <ele>446.30</ele>
        <time>2015-01-17T07:28:00Z</time>
      </trkpt>
      <trkpt lat="42.441486000" lon="-2.499875000">
        <ele>446.20</ele>
        <time>2015-01-17T07:28:01Z</time>
      </trkpt>
      <trkpt lat="42.441452000" lon="-2.499907000">
        <ele>446.00</ele>
        <time>2015-01-17T07:28:02Z</time>
      </trkpt>
      <trkpt lat="42.441418000" lon="-2.499938000">
        <ele>446.00</ele>
        <time>2015-01-17T07:28:03Z</time>
      </trkpt>
      <trkpt lat="42.441387000" lon="-2.499973000">
        <ele>445.70</ele>
        <time>2015-01-17T07:28:04Z</time>
      </trkpt>
      <trkpt lat="42.441360000" lon="-2.500009000">
        <ele>445.40</ele>
        <time>2015-01-17T07:28:05Z</time>
      </trkpt>
      <trkpt lat="42.441334000" lon="-2.500048000">
        <ele>445.30</ele>
        <time>2015-01-17T07:28:06Z</time>
      </trkpt>
      <trkpt lat="42.441306000" lon="-2.500089000">
        <ele>445.10</ele>
        <time>2015-01-17T07:28:07Z</time>
      </trkpt>
      <trkpt lat="42.441283000" lon="-2.500132000">
        <ele>445.00</ele>
        <time>2015-01-17T07:28:08Z</time>
      </trkpt>
      <trkpt lat="42.441260000" lon="-2.500173000">
        <ele>445.00</ele>
        <time>2015-01-17T07:28:09Z</time>
      </trkpt>
      <trkpt lat="42.441238000" lon="-2.500216000">
        <ele>445.10</ele>
        <time>2015-01-17T07:28:10Z</time>
      </trkpt>
      <trkpt lat="42.441219000" lon="-2.500258000">
        <ele>445.20</ele>
        <time>2015-01-17T07:28:11Z</time>
      </trkpt>
      <trkpt lat="42.441203000" lon="-2.500301000">
        <ele>445.30</ele>
        <time>2015-01-17T07:28:12Z</time>
      </trkpt>
      <trkpt lat="42.441184000" lon="-2.500347000">
        <ele>445.40</ele>
        <time>2015-01-17T07:28:13Z</time>
      </trkpt>
      <trkpt lat="42.441165000" lon="-2.500390000">
        <ele>445.50</ele>
        <time>2015-01-17T07:28:14Z</time>
      </trkpt>
      <trkpt lat="42.441147000" lon="-2.500430000">
        <ele>445.50</ele>
        <time>2015-01-17T07:28:15Z</time>
      </trkpt>
      <trkpt lat="42.441129000" lon="-2.500468000">
        <ele>445.60</ele>
        <time>2015-01-17T07:28:16Z</time>
      </trkpt>
      <trkpt lat="42.441109000" lon="-2.500507000">
        <ele>445.60</ele>
        <time>2015-01-17T07:28:17Z</time>
      </trkpt>
      <trkpt lat="42.441092000" lon="-2.500549000">
        <ele>445.60</ele>
        <time>2015-01-17T07:28:18Z</time>
      </trkpt>
      <trkpt lat="42.441073000" lon="-2.500586000">
        <ele>445.70</ele>
        <time>2015-01-17T07:28:19Z</time>
      </trkpt>
      <trkpt lat="42.441054000" lon="-2.500624000">
        <ele>445.80</ele>
        <time>2015-01-17T07:28:20Z</time>
      </trkpt>
      <trkpt lat="42.441034000" lon="-2.500663000">
        <ele>445.90</ele>
        <time>2015-01-17T07:28:21Z</time>
      </trkpt>
      <trkpt lat="42.441013000" lon="-2.500700000">
        <ele>446.00</ele>
        <time>2015-01-17T07:28:22Z</time>
      </trkpt>
      <trkpt lat="42.440990000" lon="-2.500737000">
        <ele>446.00</ele>
        <time>2015-01-17T07:28:23Z</time>
      </trkpt>
      <trkpt lat="42.440967000" lon="-2.500773000">
        <ele>446.00</ele>
        <time>2015-01-17T07:28:24Z</time>
      </trkpt>
      <trkpt lat="42.440943000" lon="-2.500809000">
        <ele>446.00</ele>
        <time>2015-01-17T07:28:25Z</time>
      </trkpt>
      <trkpt lat="42.440918000" lon="-2.500845000">
        <ele>446.00</ele>
        <time>2015-01-17T07:28:26Z</time>
      </trkpt>
      <trkpt lat="42.440892000" lon="-2.500881000">
        <ele>446.00</ele>
        <time>2015-01-17T07:28:27Z</time>
      </trkpt>
      <trkpt lat="42.440868000" lon="-2.500917000">
        <ele>445.90</ele>
        <time>2015-01-17T07:28:28Z</time>
      </trkpt>
      <trkpt lat="42.440845000" lon="-2.500953000">
        <ele>445.90</ele>
        <time>2015-01-17T07:28:29Z</time>
      </trkpt>
      <trkpt lat="42.440820000" lon="-2.500989000">
        <ele>445.80</ele>
        <time>2015-01-17T07:28:30Z</time>
      </trkpt>
      <trkpt lat="42.440798000" lon="-2.501027000">
        <ele>445.80</ele>
        <time>2015-01-17T07:28:31Z</time>
      </trkpt>
      <trkpt lat="42.440776000" lon="-2.501062000">
        <ele>445.70</ele>
        <time>2015-01-17T07:28:32Z</time>
      </trkpt>
      <trkpt lat="42.440755000" lon="-2.501096000">
        <ele>445.60</ele>
        <time>2015-01-17T07:28:33Z</time>
      </trkpt>
      <trkpt lat="42.440733000" lon="-2.501134000">
        <ele>445.50</ele>
        <time>2015-01-17T07:28:34Z</time>
      </trkpt>
      <trkpt lat="42.440708000" lon="-2.501164000">
        <ele>445.40</ele>
        <time>2015-01-17T07:28:35Z</time>
      </trkpt>
      <trkpt lat="42.440685000" lon="-2.501199000">
        <ele>445.20</ele>
        <time>2015-01-17T07:28:36Z</time>
      </trkpt>
      <trkpt lat="42.440660000" lon="-2.501230000">
        <ele>445.00</ele>
        <time>2015-01-17T07:28:37Z</time>
      </trkpt>
      <trkpt lat="42.440639000" lon="-2.501258000">
        <ele>444.80</ele>
        <time>2015-01-17T07:28:38Z</time>
      </trkpt>
      <trkpt lat="42.440616000" lon="-2.501288000">
        <ele>444.60</ele>
        <time>2015-01-17T07:28:39Z</time>
      </trkpt>
      <trkpt lat="42.440591000" lon="-2.501316000">
        <ele>444.60</ele>
        <time>2015-01-17T07:28:40Z</time>
      </trkpt>
      <trkpt lat="42.440568000" lon="-2.501342000">
        <ele>444.50</ele>
        <time>2015-01-17T07:28:41Z</time>
      </trkpt>
      <trkpt lat="42.440542000" lon="-2.501376000">
        <ele>444.60</ele>
        <time>2015-01-17T07:28:42Z</time>
      </trkpt>
      <trkpt lat="42.440517000" lon="-2.501410000">
        <ele>444.70</ele>
        <time>2015-01-17T07:28:43Z</time>
      </trkpt>
      <trkpt lat="42.440493000" lon="-2.501448000">
        <ele>444.90</ele>
        <time>2015-01-17T07:28:44Z</time>
      </trkpt>
      <trkpt lat="42.440472000" lon="-2.501491000">
        <ele>445.00</ele>
        <time>2015-01-17T07:28:45Z</time>
      </trkpt>
      <trkpt lat="42.440453000" lon="-2.501536000">
        <ele>445.10</ele>
        <time>2015-01-17T07:28:46Z</time>
      </trkpt>
      <trkpt lat="42.440440000" lon="-2.501581000">
        <ele>445.10</ele>
        <time>2015-01-17T07:28:47Z</time>
      </trkpt>
      <trkpt lat="42.440430000" lon="-2.501631000">
        <ele>445.20</ele>
        <time>2015-01-17T07:28:48Z</time>
      </trkpt>
      <trkpt lat="42.440422000" lon="-2.501679000">
        <ele>445.30</ele>
        <time>2015-01-17T07:28:49Z</time>
      </trkpt>
      <trkpt lat="42.440412000" lon="-2.501727000">
        <ele>445.30</ele>
        <time>2015-01-17T07:28:50Z</time>
      </trkpt>
      <trkpt lat="42.440403000" lon="-2.501778000">
        <ele>445.30</ele>
        <time>2015-01-17T07:28:51Z</time>
      </trkpt>
      <trkpt lat="42.440392000" lon="-2.501826000">
        <ele>445.50</ele>
        <time>2015-01-17T07:28:52Z</time>
      </trkpt>
      <trkpt lat="42.440381000" lon="-2.501875000">
        <ele>445.60</ele>
        <time>2015-01-17T07:28:53Z</time>
      </trkpt>
      <trkpt lat="42.440369000" lon="-2.501924000">
        <ele>445.60</ele>
        <time>2015-01-17T07:28:54Z</time>
      </trkpt>
      <trkpt lat="42.440356000" lon="-2.501969000">
        <ele>445.50</ele>
        <time>2015-01-17T07:28:55Z</time>
      </trkpt>
      <trkpt lat="42.440343000" lon="-2.502018000">
        <ele>445.60</ele>
        <time>2015-01-17T07:28:56Z</time>
      </trkpt>
      <trkpt lat="42.440317000" lon="-2.502113000">
        <ele>445.60</ele>
        <time>2015-01-17T07:28:58Z</time>
      </trkpt>
      <trkpt lat="42.440303000" lon="-2.502161000">
        <ele>445.50</ele>
        <time>2015-01-17T07:28:59Z</time>
      </trkpt>
      <trkpt lat="42.440290000" lon="-2.502211000">
        <ele>445.50</ele>
        <time>2015-01-17T07:29:00Z</time>
      </trkpt>
      <trkpt lat="42.440275000" lon="-2.502258000">
        <ele>445.40</ele>
        <time>2015-01-17T07:29:01Z</time>
      </trkpt>
      <trkpt lat="42.440263000" lon="-2.502306000">
        <ele>445.30</ele>
        <time>2015-01-17T07:29:02Z</time>
      </trkpt>
      <trkpt lat="42.440253000" lon="-2.502352000">
        <ele>445.30</ele>
        <time>2015-01-17T07:29:03Z</time>
      </trkpt>
      <trkpt lat="42.440242000" lon="-2.502403000">
        <ele>445.20</ele>
        <time>2015-01-17T07:29:04Z</time>
      </trkpt>
      <trkpt lat="42.440233000" lon="-2.502452000">
        <ele>445.10</ele>
        <time>2015-01-17T07:29:05Z</time>
      </trkpt>
      <trkpt lat="42.440225000" lon="-2.502500000">
        <ele>445.00</ele>
        <time>2015-01-17T07:29:06Z</time>
      </trkpt>
      <trkpt lat="42.440218000" lon="-2.502548000">
        <ele>444.80</ele>
        <time>2015-01-17T07:29:07Z</time>
      </trkpt>
      <trkpt lat="42.440212000" lon="-2.502600000">
        <ele>444.60</ele>
        <time>2015-01-17T07:29:08Z</time>
      </trkpt>
      <trkpt lat="42.440205000" lon="-2.502647000">
        <ele>444.40</ele>
        <time>2015-01-17T07:29:09Z</time>
      </trkpt>
      <trkpt lat="42.440200000" lon="-2.502697000">
        <ele>444.30</ele>
        <time>2015-01-17T07:29:10Z</time>
      </trkpt>
      <trkpt lat="42.440200000" lon="-2.502745000">
        <ele>444.20</ele>
        <time>2015-01-17T07:29:11Z</time>
      </trkpt>
      <trkpt lat="42.440194000" lon="-2.502793000">
        <ele>444.10</ele>
        <time>2015-01-17T07:29:12Z</time>
      </trkpt>
      <trkpt lat="42.440187000" lon="-2.502840000">
        <ele>444.10</ele>
        <time>2015-01-17T07:29:13Z</time>
      </trkpt>
      <trkpt lat="42.440178000" lon="-2.502887000">
        <ele>444.00</ele>
        <time>2015-01-17T07:29:14Z</time>
      </trkpt>
      <trkpt lat="42.440167000" lon="-2.502938000">
        <ele>444.00</ele>
        <time>2015-01-17T07:29:15Z</time>
      </trkpt>
      <trkpt lat="42.440156000" lon="-2.502985000">
        <ele>444.00</ele>
        <time>2015-01-17T07:29:16Z</time>
      </trkpt>
      <trkpt lat="42.440142000" lon="-2.503030000">
        <ele>444.10</ele>
        <time>2015-01-17T07:29:17Z</time>
      </trkpt>
      <trkpt lat="42.440129000" lon="-2.503076000">
        <ele>444.20</ele>
        <time>2015-01-17T07:29:18Z</time>
      </trkpt>
      <trkpt lat="42.440115000" lon="-2.503122000">
        <ele>444.20</ele>
        <time>2015-01-17T07:29:19Z</time>
      </trkpt>
      <trkpt lat="42.440102000" lon="-2.503165000">
        <ele>444.40</ele>
        <time>2015-01-17T07:29:20Z</time>
      </trkpt>
      <trkpt lat="42.440093000" lon="-2.503208000">
        <ele>444.60</ele>
        <time>2015-01-17T07:29:21Z</time>
      </trkpt>
      <trkpt lat="42.440084000" lon="-2.503251000">
        <ele>444.70</ele>
        <time>2015-01-17T07:29:22Z</time>
      </trkpt>
      <trkpt lat="42.440073000" lon="-2.503293000">
        <ele>444.80</ele>
        <time>2015-01-17T07:29:23Z</time>
      </trkpt>
      <trkpt lat="42.440064000" lon="-2.503338000">
        <ele>444.90</ele>
        <time>2015-01-17T07:29:24Z</time>
      </trkpt>
      <trkpt lat="42.440052000" lon="-2.503381000">
        <ele>444.90</ele>
        <time>2015-01-17T07:29:25Z</time>
      </trkpt>
      <trkpt lat="42.440040000" lon="-2.503422000">
        <ele>445.00</ele>
        <time>2015-01-17T07:29:26Z</time>
      </trkpt>
      <trkpt lat="42.440031000" lon="-2.503462000">
        <ele>445.00</ele>
        <time>2015-01-17T07:29:27Z</time>
      </trkpt>
      <trkpt lat="42.440019000" lon="-2.503506000">
        <ele>445.00</ele>
        <time>2015-01-17T07:29:28Z</time>
      </trkpt>
      <trkpt lat="42.440010000" lon="-2.503552000">
        <ele>445.10</ele>
        <time>2015-01-17T07:29:29Z</time>
      </trkpt>
      <trkpt lat="42.439998000" lon="-2.503591000">
        <ele>445.10</ele>
        <time>2015-01-17T07:29:30Z</time>
      </trkpt>
      <trkpt lat="42.439985000" lon="-2.503630000">
        <ele>445.10</ele>
        <time>2015-01-17T07:29:31Z</time>
      </trkpt>
      <trkpt lat="42.439975000" lon="-2.503673000">
        <ele>444.80</ele>
        <time>2015-01-17T07:29:32Z</time>
      </trkpt>
      <trkpt lat="42.439964000" lon="-2.503716000">
        <ele>444.60</ele>
        <time>2015-01-17T07:29:33Z</time>
      </trkpt>
      <trkpt lat="42.439955000" lon="-2.503757000">
        <ele>444.50</ele>
        <time>2015-01-17T07:29:34Z</time>
      </trkpt>
      <trkpt lat="42.439948000" lon="-2.503799000">
        <ele>444.40</ele>
        <time>2015-01-17T07:29:35Z</time>
      </trkpt>
      <trkpt lat="42.439936000" lon="-2.503839000">
        <ele>444.30</ele>
        <time>2015-01-17T07:29:36Z</time>
      </trkpt>
      <trkpt lat="42.439925000" lon="-2.503882000">
        <ele>444.30</ele>
        <time>2015-01-17T07:29:37Z</time>
      </trkpt>
      <trkpt lat="42.439915000" lon="-2.503926000">
        <ele>444.30</ele>
        <time>2015-01-17T07:29:38Z</time>
      </trkpt>
      <trkpt lat="42.439908000" lon="-2.503967000">
        <ele>444.30</ele>
        <time>2015-01-17T07:29:39Z</time>
      </trkpt>
      <trkpt lat="42.439902000" lon="-2.504010000">
        <ele>444.30</ele>
        <time>2015-01-17T07:29:40Z</time>
      </trkpt>
      <trkpt lat="42.439895000" lon="-2.504051000">
        <ele>444.30</ele>
        <time>2015-01-17T07:29:41Z</time>
      </trkpt>
      <trkpt lat="42.439889000" lon="-2.504097000">
        <ele>444.50</ele>
        <time>2015-01-17T07:29:42Z</time>
      </trkpt>
      <trkpt lat="42.439882000" lon="-2.504139000">
        <ele>444.70</ele>
        <time>2015-01-17T07:29:43Z</time>
      </trkpt>
      <trkpt lat="42.439874000" lon="-2.504183000">
        <ele>445.00</ele>
        <time>2015-01-17T07:29:44Z</time>
      </trkpt>
      <trkpt lat="42.439868000" lon="-2.504228000">
        <ele>445.30</ele>
        <time>2015-01-17T07:29:45Z</time>
      </trkpt>
      <trkpt lat="42.439862000" lon="-2.504271000">
        <ele>445.50</ele>
        <time>2015-01-17T07:29:46Z</time>
      </trkpt>
      <trkpt lat="42.439853000" lon="-2.504315000">
        <ele>445.60</ele>
        <time>2015-01-17T07:29:47Z</time>
      </trkpt>
      <trkpt lat="42.439848000" lon="-2.504360000">
        <ele>445.50</ele>
        <time>2015-01-17T07:29:48Z</time>
      </trkpt>
      <trkpt lat="42.439842000" lon="-2.504407000">
        <ele>445.50</ele>
        <time>2015-01-17T07:29:49Z</time>
      </trkpt>
      <trkpt lat="42.439833000" lon="-2.504452000">
        <ele>445.40</ele>
        <time>2015-01-17T07:29:50Z</time>
      </trkpt>
      <trkpt lat="42.439825000" lon="-2.504496000">
        <ele>445.40</ele>
        <time>2015-01-17T07:29:51Z</time>
      </trkpt>
      <trkpt lat="42.439817000" lon="-2.504545000">
        <ele>445.30</ele>
        <time>2015-01-17T07:29:52Z</time>
      </trkpt>
      <trkpt lat="42.439809000" lon="-2.504592000">
        <ele>445.20</ele>
        <time>2015-01-17T07:29:53Z</time>
      </trkpt>
      <trkpt lat="42.439801000" lon="-2.504638000">
        <ele>445.00</ele>
        <time>2015-01-17T07:29:54Z</time>
      </trkpt>
      <trkpt lat="42.439792000" lon="-2.504687000">
        <ele>444.90</ele>
        <time>2015-01-17T07:29:55Z</time>
      </trkpt>
      <trkpt lat="42.439785000" lon="-2.504737000">
        <ele>444.80</ele>
        <time>2015-01-17T07:29:56Z</time>
      </trkpt>
      <trkpt lat="42.439777000" lon="-2.504783000">
        <ele>444.70</ele>
        <time>2015-01-17T07:29:57Z</time>
      </trkpt>
      <trkpt lat="42.439757000" lon="-2.504872000">
        <ele>444.70</ele>
        <time>2015-01-17T07:29:59Z</time>
      </trkpt>
      <trkpt lat="42.439745000" lon="-2.504915000">
        <ele>444.90</ele>
        <time>2015-01-17T07:30:00Z</time>
      </trkpt>
      <trkpt lat="42.439730000" lon="-2.504955000">
        <ele>445.00</ele>
        <time>2015-01-17T07:30:01Z</time>
      </trkpt>
      <trkpt lat="42.439713000" lon="-2.504994000">
        <ele>445.10</ele>
        <time>2015-01-17T07:30:02Z</time>
      </trkpt>
      <trkpt lat="42.439694000" lon="-2.505030000">
        <ele>445.20</ele>
        <time>2015-01-17T07:30:03Z</time>
      </trkpt>
      <trkpt lat="42.439675000" lon="-2.505067000">
        <ele>445.20</ele>
        <time>2015-01-17T07:30:04Z</time>
      </trkpt>
      <trkpt lat="42.439655000" lon="-2.505100000">
        <ele>445.20</ele>
        <time>2015-01-17T07:30:05Z</time>
      </trkpt>
      <trkpt lat="42.439631000" lon="-2.505132000">
        <ele>445.30</ele>
        <time>2015-01-17T07:30:06Z</time>
      </trkpt>
      <trkpt lat="42.439605000" lon="-2.505164000">
        <ele>445.30</ele>
        <time>2015-01-17T07:30:07Z</time>
      </trkpt>
      <trkpt lat="42.439578000" lon="-2.505195000">
        <ele>445.30</ele>
        <time>2015-01-17T07:30:08Z</time>
      </trkpt>
      <trkpt lat="42.439552000" lon="-2.505229000">
        <ele>445.30</ele>
        <time>2015-01-17T07:30:09Z</time>
      </trkpt>
      <trkpt lat="42.439530000" lon="-2.505268000">
        <ele>445.30</ele>
        <time>2015-01-17T07:30:10Z</time>
      </trkpt>
      <trkpt lat="42.439503000" lon="-2.505300000">
        <ele>445.40</ele>
        <time>2015-01-17T07:30:11Z</time>
      </trkpt>
      <trkpt lat="42.439477000" lon="-2.505335000">
        <ele>445.40</ele>
        <time>2015-01-17T07:30:12Z</time>
      </trkpt>
      <trkpt lat="42.439454000" lon="-2.505368000">
        <ele>445.50</ele>
        <time>2015-01-17T07:30:13Z</time>
      </trkpt>
      <trkpt lat="42.439426000" lon="-2.505403000">
        <ele>445.50</ele>
        <time>2015-01-17T07:30:14Z</time>
      </trkpt>
      <trkpt lat="42.439403000" lon="-2.505439000">
        <ele>445.50</ele>
        <time>2015-01-17T07:30:15Z</time>
      </trkpt>
      <trkpt lat="42.439381000" lon="-2.505474000">
        <ele>445.50</ele>
        <time>2015-01-17T07:30:16Z</time>
      </trkpt>
      <trkpt lat="42.439358000" lon="-2.505506000">
        <ele>445.50</ele>
        <time>2015-01-17T07:30:17Z</time>
      </trkpt>
      <trkpt lat="42.439334000" lon="-2.505542000">
        <ele>445.50</ele>
        <time>2015-01-17T07:30:18Z</time>
      </trkpt>
      <trkpt lat="42.439310000" lon="-2.505576000">
        <ele>445.50</ele>
        <time>2015-01-17T07:30:19Z</time>
      </trkpt>
      <trkpt lat="42.439288000" lon="-2.505609000">
        <ele>445.50</ele>
        <time>2015-01-17T07:30:20Z</time>
      </trkpt>
      <trkpt lat="42.439266000" lon="-2.505643000">
        <ele>445.50</ele>
        <time>2015-01-17T07:30:21Z</time>
      </trkpt>
      <trkpt lat="42.439242000" lon="-2.505676000">
        <ele>445.50</ele>
        <time>2015-01-17T07:30:22Z</time>
      </trkpt>
      <trkpt lat="42.439221000" lon="-2.505710000">
        <ele>445.50</ele>
        <time>2015-01-17T07:30:23Z</time>
      </trkpt>
      <trkpt lat="42.439200000" lon="-2.505746000">
        <ele>445.50</ele>
        <time>2015-01-17T07:30:24Z</time>
      </trkpt>
      <trkpt lat="42.439178000" lon="-2.505781000">
        <ele>445.50</ele>
        <time>2015-01-17T07:30:25Z</time>
      </trkpt>
      <trkpt lat="42.439158000" lon="-2.505822000">
        <ele>445.50</ele>
        <time>2015-01-17T07:30:26Z</time>
      </trkpt>
      <trkpt lat="42.439137000" lon="-2.505856000">
        <ele>445.60</ele>
        <time>2015-01-17T07:30:27Z</time>
      </trkpt>
      <trkpt lat="42.439117000" lon="-2.505891000">
        <ele>445.70</ele>
        <time>2015-01-17T07:30:28Z</time>
      </trkpt>
      <trkpt lat="42.439100000" lon="-2.505926000">
        <ele>445.70</ele>
        <time>2015-01-17T07:30:29Z</time>
      </trkpt>
      <trkpt lat="42.439082000" lon="-2.505962000">
        <ele>445.90</ele>
        <time>2015-01-17T07:30:30Z</time>
      </trkpt>
      <trkpt lat="42.439062000" lon="-2.505998000">
        <ele>446.00</ele>
        <time>2015-01-17T07:30:31Z</time>
      </trkpt>
      <trkpt lat="42.439044000" lon="-2.506033000">
        <ele>446.00</ele>
        <time>2015-01-17T07:30:32Z</time>
      </trkpt>
      <trkpt lat="42.439027000" lon="-2.506069000">
        <ele>446.10</ele>
        <time>2015-01-17T07:30:33Z</time>
      </trkpt>
      <trkpt lat="42.439010000" lon="-2.506104000">
        <ele>446.00</ele>
        <time>2015-01-17T07:30:34Z</time>
      </trkpt>
      <trkpt lat="42.438994000" lon="-2.506141000">
        <ele>446.00</ele>
        <time>2015-01-17T07:30:35Z</time>
      </trkpt>
      <trkpt lat="42.438979000" lon="-2.506178000">
        <ele>446.00</ele>
        <time>2015-01-17T07:30:36Z</time>
      </trkpt>
      <trkpt lat="42.438964000" lon="-2.506215000">
        <ele>446.00</ele>
        <time>2015-01-17T07:30:37Z</time>
      </trkpt>
      <trkpt lat="42.438948000" lon="-2.506251000">
        <ele>446.00</ele>
        <time>2015-01-17T07:30:38Z</time>
      </trkpt>
      <trkpt lat="42.438935000" lon="-2.506286000">
        <ele>446.10</ele>
        <time>2015-01-17T07:30:39Z</time>
      </trkpt>
      <trkpt lat="42.438919000" lon="-2.506320000">
        <ele>446.30</ele>
        <time>2015-01-17T07:30:40Z</time>
      </trkpt>
      <trkpt lat="42.438904000" lon="-2.506351000">
        <ele>446.40</ele>
        <time>2015-01-17T07:30:41Z</time>
      </trkpt>
      <trkpt lat="42.438888000" lon="-2.506381000">
        <ele>446.60</ele>
        <time>2015-01-17T07:30:42Z</time>
      </trkpt>
      <trkpt lat="42.438875000" lon="-2.506413000">
        <ele>446.60</ele>
        <time>2015-01-17T07:30:43Z</time>
      </trkpt>
      <trkpt lat="42.438862000" lon="-2.506445000">
        <ele>446.80</ele>
        <time>2015-01-17T07:30:44Z</time>
      </trkpt>
      <trkpt lat="42.438847000" lon="-2.506476000">
        <ele>447.00</ele>
        <time>2015-01-17T07:30:45Z</time>
      </trkpt>
      <trkpt lat="42.438832000" lon="-2.506509000">
        <ele>447.10</ele>
        <time>2015-01-17T07:30:46Z</time>
      </trkpt>
      <trkpt lat="42.438816000" lon="-2.506538000">
        <ele>447.30</ele>
        <time>2015-01-17T07:30:47Z</time>
      </trkpt>
      <trkpt lat="42.438802000" lon="-2.506572000">
        <ele>447.40</ele>
        <time>2015-01-17T07:30:48Z</time>
      </trkpt>
      <trkpt lat="42.438787000" lon="-2.506605000">
        <ele>447.50</ele>
        <time>2015-01-17T07:30:49Z</time>
      </trkpt>
      <trkpt lat="42.438772000" lon="-2.506641000">
        <ele>447.80</ele>
        <time>2015-01-17T07:30:50Z</time>
      </trkpt>
      <trkpt lat="42.438758000" lon="-2.506675000">
        <ele>448.00</ele>
        <time>2015-01-17T07:30:51Z</time>
      </trkpt>
      <trkpt lat="42.438744000" lon="-2.506708000">
        <ele>448.20</ele>
        <time>2015-01-17T07:30:52Z</time>
      </trkpt>
      <trkpt lat="42.438730000" lon="-2.506739000">
        <ele>448.30</ele>
        <time>2015-01-17T07:30:53Z</time>
      </trkpt>
      <trkpt lat="42.438713000" lon="-2.506766000">
        <ele>448.60</ele>
        <time>2015-01-17T07:30:54Z</time>
      </trkpt>
      <trkpt lat="42.438699000" lon="-2.506797000">
        <ele>448.80</ele>
        <time>2015-01-17T07:30:55Z</time>
      </trkpt>
      <trkpt lat="42.438682000" lon="-2.506830000">
        <ele>449.00</ele>
        <time>2015-01-17T07:30:56Z</time>
      </trkpt>
      <trkpt lat="42.438666000" lon="-2.506860000">
        <ele>449.10</ele>
        <time>2015-01-17T07:30:57Z</time>
      </trkpt>
      <trkpt lat="42.438650000" lon="-2.506890000">
        <ele>449.30</ele>
        <time>2015-01-17T07:30:58Z</time>
      </trkpt>
      <trkpt lat="42.438618000" lon="-2.506957000">
        <ele>449.80</ele>
        <time>2015-01-17T07:31:00Z</time>
      </trkpt>
      <trkpt lat="42.438603000" lon="-2.506988000">
        <ele>450.10</ele>
        <time>2015-01-17T07:31:01Z</time>
      </trkpt>
      <trkpt lat="42.438587000" lon="-2.507017000">
        <ele>450.40</ele>
        <time>2015-01-17T07:31:02Z</time>
      </trkpt>
      <trkpt lat="42.438573000" lon="-2.507046000">
        <ele>450.70</ele>
        <time>2015-01-17T07:31:03Z</time>
      </trkpt>
      <trkpt lat="42.438563000" lon="-2.507079000">
        <ele>451.00</ele>
        <time>2015-01-17T07:31:04Z</time>
      </trkpt>
      <trkpt lat="42.438552000" lon="-2.507111000">
        <ele>451.20</ele>
        <time>2015-01-17T07:31:05Z</time>
      </trkpt>
      <trkpt lat="42.438538000" lon="-2.507146000">
        <ele>451.40</ele>
        <time>2015-01-17T07:31:06Z</time>
      </trkpt>
      <trkpt lat="42.438522000" lon="-2.507182000">
        <ele>451.50</ele>
        <time>2015-01-17T07:31:07Z</time>
      </trkpt>
      <trkpt lat="42.438506000" lon="-2.507221000">
        <ele>451.70</ele>
        <time>2015-01-17T07:31:08Z</time>
      </trkpt>
      <trkpt lat="42.438489000" lon="-2.507261000">
        <ele>451.90</ele>
        <time>2015-01-17T07:31:09Z</time>
      </trkpt>
      <trkpt lat="42.438476000" lon="-2.507301000">
        <ele>452.00</ele>
        <time>2015-01-17T07:31:10Z</time>
      </trkpt>
      <trkpt lat="42.438465000" lon="-2.507340000">
        <ele>452.00</ele>
        <time>2015-01-17T07:31:11Z</time>
      </trkpt>
      <trkpt lat="42.438452000" lon="-2.507378000">
        <ele>452.10</ele>
        <time>2015-01-17T07:31:12Z</time>
      </trkpt>
      <trkpt lat="42.438439000" lon="-2.507424000">
        <ele>452.10</ele>
        <time>2015-01-17T07:31:13Z</time>
      </trkpt>
      <trkpt lat="42.438427000" lon="-2.507468000">
        <ele>452.20</ele>
        <time>2015-01-17T07:31:14Z</time>
      </trkpt>
      <trkpt lat="42.438415000" lon="-2.507516000">
        <ele>452.20</ele>
        <time>2015-01-17T07:31:15Z</time>
      </trkpt>
      <trkpt lat="42.438403000" lon="-2.507565000">
        <ele>452.20</ele>
        <time>2015-01-17T07:31:16Z</time>
      </trkpt>
      <trkpt lat="42.438392000" lon="-2.507615000">
        <ele>452.20</ele>
        <time>2015-01-17T07:31:17Z</time>
      </trkpt>
      <trkpt lat="42.438380000" lon="-2.507668000">
        <ele>452.20</ele>
        <time>2015-01-17T07:31:18Z</time>
      </trkpt>
      <trkpt lat="42.438367000" lon="-2.507727000">
        <ele>452.20</ele>
        <time>2015-01-17T07:31:19Z</time>
      </trkpt>
      <trkpt lat="42.438357000" lon="-2.507785000">
        <ele>452.00</ele>
        <time>2015-01-17T07:31:20Z</time>
      </trkpt>
      <trkpt lat="42.438345000" lon="-2.507840000">
        <ele>451.80</ele>
        <time>2015-01-17T07:31:21Z</time>
      </trkpt>
      <trkpt lat="42.438334000" lon="-2.507893000">
        <ele>451.50</ele>
        <time>2015-01-17T07:31:22Z</time>
      </trkpt>
      <trkpt lat="42.438323000" lon="-2.507947000">
        <ele>451.40</ele>
        <time>2015-01-17T07:31:23Z</time>
      </trkpt>
      <trkpt lat="42.438310000" lon="-2.508003000">
        <ele>451.20</ele>
        <time>2015-01-17T07:31:24Z</time>
      </trkpt>
      <trkpt lat="42.438298000" lon="-2.508058000">
        <ele>451.00</ele>
        <time>2015-01-17T07:31:25Z</time>
      </trkpt>
      <trkpt lat="42.438287000" lon="-2.508114000">
        <ele>450.80</ele>
        <time>2015-01-17T07:31:26Z</time>
      </trkpt>
      <trkpt lat="42.438276000" lon="-2.508169000">
        <ele>450.70</ele>
        <time>2015-01-17T07:31:27Z</time>
      </trkpt>
      <trkpt lat="42.438267000" lon="-2.508227000">
        <ele>450.50</ele>
        <time>2015-01-17T07:31:28Z</time>
      </trkpt>
      <trkpt lat="42.438257000" lon="-2.508285000">
        <ele>450.30</ele>
        <time>2015-01-17T07:31:29Z</time>
      </trkpt>
      <trkpt lat="42.438246000" lon="-2.508341000">
        <ele>450.20</ele>
        <time>2015-01-17T07:31:30Z</time>
      </trkpt>
      <trkpt lat="42.438237000" lon="-2.508399000">
        <ele>450.10</ele>
        <time>2015-01-17T07:31:31Z</time>
      </trkpt>
      <trkpt lat="42.438226000" lon="-2.508455000">
        <ele>450.00</ele>
        <time>2015-01-17T07:31:32Z</time>
      </trkpt>
      <trkpt lat="42.438218000" lon="-2.508510000">
        <ele>449.90</ele>
        <time>2015-01-17T07:31:33Z</time>
      </trkpt>
      <trkpt lat="42.438209000" lon="-2.508562000">
        <ele>449.80</ele>
        <time>2015-01-17T07:31:34Z</time>
      </trkpt>
      <trkpt lat="42.438203000" lon="-2.508614000">
        <ele>449.60</ele>
        <time>2015-01-17T07:31:35Z</time>
      </trkpt>
      <trkpt lat="42.438195000" lon="-2.508667000">
        <ele>449.50</ele>
        <time>2015-01-17T07:31:36Z</time>
      </trkpt>
      <trkpt lat="42.438190000" lon="-2.508715000">
        <ele>449.50</ele>
        <time>2015-01-17T07:31:37Z</time>
      </trkpt>
      <trkpt lat="42.438183000" lon="-2.508764000">
        <ele>449.20</ele>
        <time>2015-01-17T07:31:38Z</time>
      </trkpt>
      <trkpt lat="42.438170000" lon="-2.508819000">
        <ele>449.00</ele>
        <time>2015-01-17T07:31:39Z</time>
      </trkpt>
      <trkpt lat="42.438159000" lon="-2.508869000">
        <ele>448.90</ele>
        <time>2015-01-17T07:31:40Z</time>
      </trkpt>
      <trkpt lat="42.438148000" lon="-2.508922000">
        <ele>448.80</ele>
        <time>2015-01-17T07:31:41Z</time>
      </trkpt>
      <trkpt lat="42.438138000" lon="-2.508978000">
        <ele>448.70</ele>
        <time>2015-01-17T07:31:42Z</time>
      </trkpt>
      <trkpt lat="42.438126000" lon="-2.509033000">
        <ele>448.60</ele>
        <time>2015-01-17T07:31:43Z</time>
      </trkpt>
      <trkpt lat="42.438115000" lon="-2.509084000">
        <ele>448.60</ele>
        <time>2015-01-17T07:31:44Z</time>
      </trkpt>
      <trkpt lat="42.438106000" lon="-2.509141000">
        <ele>448.60</ele>
        <time>2015-01-17T07:31:45Z</time>
      </trkpt>
      <trkpt lat="42.438094000" lon="-2.509198000">
        <ele>448.30</ele>
        <time>2015-01-17T07:31:46Z</time>
      </trkpt>
      <trkpt lat="42.438083000" lon="-2.509255000">
        <ele>448.10</ele>
        <time>2015-01-17T07:31:47Z</time>
      </trkpt>
      <trkpt lat="42.438072000" lon="-2.509313000">
        <ele>447.90</ele>
        <time>2015-01-17T07:31:48Z</time>
      </trkpt>
      <trkpt lat="42.438059000" lon="-2.509367000">
        <ele>447.80</ele>
        <time>2015-01-17T07:31:49Z</time>
      </trkpt>
      <trkpt lat="42.438047000" lon="-2.509422000">
        <ele>447.70</ele>
        <time>2015-01-17T07:31:50Z</time>
      </trkpt>
      <trkpt lat="42.438036000" lon="-2.509473000">
        <ele>447.60</ele>
        <time>2015-01-17T07:31:51Z</time>
      </trkpt>
      <trkpt lat="42.438027000" lon="-2.509525000">
        <ele>447.60</ele>
        <time>2015-01-17T07:31:52Z</time>
      </trkpt>
      <trkpt lat="42.438017000" lon="-2.509575000">
        <ele>447.50</ele>
        <time>2015-01-17T07:31:53Z</time>
      </trkpt>
      <trkpt lat="42.438008000" lon="-2.509621000">
        <ele>447.50</ele>
        <time>2015-01-17T07:31:54Z</time>
      </trkpt>
      <trkpt lat="42.437999000" lon="-2.509668000">
        <ele>447.40</ele>
        <time>2015-01-17T07:31:55Z</time>
      </trkpt>
      <trkpt lat="42.437992000" lon="-2.509718000">
        <ele>447.40</ele>
        <time>2015-01-17T07:31:56Z</time>
      </trkpt>
      <trkpt lat="42.437985000" lon="-2.509763000">
        <ele>447.40</ele>
        <time>2015-01-17T07:31:57Z</time>
      </trkpt>
      <trkpt lat="42.437982000" lon="-2.509809000">
        <ele>447.10</ele>
        <time>2015-01-17T07:31:58Z</time>
      </trkpt>
      <trkpt lat="42.437978000" lon="-2.509853000">
        <ele>447.00</ele>
        <time>2015-01-17T07:31:59Z</time>
      </trkpt>
      <trkpt lat="42.437976000" lon="-2.509948000">
        <ele>446.80</ele>
        <time>2015-01-17T07:32:01Z</time>
      </trkpt>
      <trkpt lat="42.437976000" lon="-2.509993000">
        <ele>446.70</ele>
        <time>2015-01-17T07:32:02Z</time>
      </trkpt>
      <trkpt lat="42.437976000" lon="-2.510040000">
        <ele>446.60</ele>
        <time>2015-01-17T07:32:03Z</time>
      </trkpt>
      <trkpt lat="42.437981000" lon="-2.510088000">
        <ele>446.50</ele>
        <time>2015-01-17T07:32:04Z</time>
      </trkpt>
      <trkpt lat="42.437981000" lon="-2.510138000">
        <ele>446.50</ele>
        <time>2015-01-17T07:32:05Z</time>
      </trkpt>
      <trkpt lat="42.437973000" lon="-2.510181000">
        <ele>446.20</ele>
        <time>2015-01-17T07:32:06Z</time>
      </trkpt>
      <trkpt lat="42.437957000" lon="-2.510216000">
        <ele>446.00</ele>
        <time>2015-01-17T07:32:07Z</time>
      </trkpt>
      <trkpt lat="42.437936000" lon="-2.510235000">
        <ele>445.90</ele>
        <time>2015-01-17T07:32:08Z</time>
      </trkpt>
      <trkpt lat="42.437911000" lon="-2.510247000">
        <ele>445.80</ele>
        <time>2015-01-17T07:32:09Z</time>
      </trkpt>
      <trkpt lat="42.437879000" lon="-2.510254000">
        <ele>445.80</ele>
        <time>2015-01-17T07:32:10Z</time>
      </trkpt>
      <trkpt lat="42.437845000" lon="-2.510262000">
        <ele>445.70</ele>
        <time>2015-01-17T07:32:11Z</time>
      </trkpt>
      <trkpt lat="42.437813000" lon="-2.510271000">
        <ele>445.80</ele>
        <time>2015-01-17T07:32:12Z</time>
      </trkpt>
      <trkpt lat="42.437780000" lon="-2.510284000">
        <ele>445.80</ele>
        <time>2015-01-17T07:32:13Z</time>
      </trkpt>
      <trkpt lat="42.437748000" lon="-2.510296000">
        <ele>445.90</ele>
        <time>2015-01-17T07:32:14Z</time>
      </trkpt>
      <trkpt lat="42.437716000" lon="-2.510309000">
        <ele>446.00</ele>
        <time>2015-01-17T07:32:15Z</time>
      </trkpt>
      <trkpt lat="42.437686000" lon="-2.510320000">
        <ele>446.10</ele>
        <time>2015-01-17T07:32:16Z</time>
      </trkpt>
      <trkpt lat="42.437653000" lon="-2.510327000">
        <ele>446.20</ele>
        <time>2015-01-17T07:32:17Z</time>
      </trkpt>
      <trkpt lat="42.437619000" lon="-2.510334000">
        <ele>446.30</ele>
        <time>2015-01-17T07:32:18Z</time>
      </trkpt>
      <trkpt lat="42.437589000" lon="-2.510348000">
        <ele>446.30</ele>
        <time>2015-01-17T07:32:19Z</time>
      </trkpt>
      <trkpt lat="42.437558000" lon="-2.510359000">
        <ele>446.30</ele>
        <time>2015-01-17T07:32:20Z</time>
      </trkpt>
      <trkpt lat="42.437528000" lon="-2.510369000">
        <ele>446.30</ele>
        <time>2015-01-17T07:32:21Z</time>
      </trkpt>
      <trkpt lat="42.437495000" lon="-2.510377000">
        <ele>446.30</ele>
        <time>2015-01-17T07:32:22Z</time>
      </trkpt>
      <trkpt lat="42.437462000" lon="-2.510386000">
        <ele>446.30</ele>
        <time>2015-01-17T07:32:23Z</time>
      </trkpt>
      <trkpt lat="42.437428000" lon="-2.510395000">
        <ele>446.30</ele>
        <time>2015-01-17T07:32:24Z</time>
      </trkpt>
      <trkpt lat="42.437396000" lon="-2.510404000">
        <ele>446.20</ele>
        <time>2015-01-17T07:32:25Z</time>
      </trkpt>
      <trkpt lat="42.437366000" lon="-2.510416000">
        <ele>446.20</ele>
        <time>2015-01-17T07:32:26Z</time>
      </trkpt>
      <trkpt lat="42.437335000" lon="-2.510428000">
        <ele>446.20</ele>
        <time>2015-01-17T07:32:27Z</time>
      </trkpt>
      <trkpt lat="42.437302000" lon="-2.510443000">
        <ele>446.50</ele>
        <time>2015-01-17T07:32:28Z</time>
      </trkpt>
      <trkpt lat="42.437269000" lon="-2.510450000">
        <ele>446.60</ele>
        <time>2015-01-17T07:32:29Z</time>
      </trkpt>
      <trkpt lat="42.437240000" lon="-2.510464000">
        <ele>446.90</ele>
        <time>2015-01-17T07:32:30Z</time>
      </trkpt>
      <trkpt lat="42.437210000" lon="-2.510478000">
        <ele>447.10</ele>
        <time>2015-01-17T07:32:31Z</time>
      </trkpt>
      <trkpt lat="42.437181000" lon="-2.510495000">
        <ele>447.20</ele>
        <time>2015-01-17T07:32:32Z</time>
      </trkpt>
      <trkpt lat="42.437157000" lon="-2.510509000">
        <ele>447.30</ele>
        <time>2015-01-17T07:32:33Z</time>
      </trkpt>
      <trkpt lat="42.437126000" lon="-2.510530000">
        <ele>447.40</ele>
        <time>2015-01-17T07:32:34Z</time>
      </trkpt>
      <trkpt lat="42.437096000" lon="-2.510549000">
        <ele>447.40</ele>
        <time>2015-01-17T07:32:35Z</time>
      </trkpt>
      <trkpt lat="42.437066000" lon="-2.510568000">
        <ele>447.60</ele>
        <time>2015-01-17T07:32:36Z</time>
      </trkpt>
      <trkpt lat="42.437034000" lon="-2.510583000">
        <ele>447.70</ele>
        <time>2015-01-17T07:32:37Z</time>
      </trkpt>
      <trkpt lat="42.437004000" lon="-2.510596000">
        <ele>447.80</ele>
        <time>2015-01-17T07:32:38Z</time>
      </trkpt>
      <trkpt lat="42.436973000" lon="-2.510609000">
        <ele>447.90</ele>
        <time>2015-01-17T07:32:39Z</time>
      </trkpt>
      <trkpt lat="42.436946000" lon="-2.510625000">
        <ele>448.10</ele>
        <time>2015-01-17T07:32:40Z</time>
      </trkpt>
      <trkpt lat="42.436917000" lon="-2.510634000">
        <ele>448.20</ele>
        <time>2015-01-17T07:32:41Z</time>
      </trkpt>
      <trkpt lat="42.436889000" lon="-2.510644000">
        <ele>448.30</ele>
        <time>2015-01-17T07:32:42Z</time>
      </trkpt>
      <trkpt lat="42.436861000" lon="-2.510652000">
        <ele>448.40</ele>
        <time>2015-01-17T07:32:43Z</time>
      </trkpt>
      <trkpt lat="42.436836000" lon="-2.510661000">
        <ele>448.50</ele>
        <time>2015-01-17T07:32:44Z</time>
      </trkpt>
      <trkpt lat="42.436808000" lon="-2.510668000">
        <ele>448.50</ele>
        <time>2015-01-17T07:32:45Z</time>
      </trkpt>
      <trkpt lat="42.436781000" lon="-2.510677000">
        <ele>448.70</ele>
        <time>2015-01-17T07:32:46Z</time>
      </trkpt>
      <trkpt lat="42.436754000" lon="-2.510684000">
        <ele>448.80</ele>
        <time>2015-01-17T07:32:47Z</time>
      </trkpt>
      <trkpt lat="42.436727000" lon="-2.510693000">
        <ele>448.90</ele>
        <time>2015-01-17T07:32:48Z</time>
      </trkpt>
      <trkpt lat="42.436698000" lon="-2.510704000">
        <ele>449.00</ele>
        <time>2015-01-17T07:32:49Z</time>
      </trkpt>
      <trkpt lat="42.436672000" lon="-2.510711000">
        <ele>449.10</ele>
        <time>2015-01-17T07:32:50Z</time>
      </trkpt>
      <trkpt lat="42.436644000" lon="-2.510721000">
        <ele>449.10</ele>
        <time>2015-01-17T07:32:51Z</time>
      </trkpt>
      <trkpt lat="42.436616000" lon="-2.510736000">
        <ele>449.20</ele>
        <time>2015-01-17T07:32:52Z</time>
      </trkpt>
      <trkpt lat="42.436588000" lon="-2.510750000">
        <ele>449.20</ele>
        <time>2015-01-17T07:32:53Z</time>
      </trkpt>
      <trkpt lat="42.436557000" lon="-2.510758000">
        <ele>449.40</ele>
        <time>2015-01-17T07:32:54Z</time>
      </trkpt>
      <trkpt lat="42.436530000" lon="-2.510766000">
        <ele>449.50</ele>
        <time>2015-01-17T07:32:55Z</time>
      </trkpt>
      <trkpt lat="42.436501000" lon="-2.510774000">
        <ele>449.70</ele>
        <time>2015-01-17T07:32:56Z</time>
      </trkpt>
      <trkpt lat="42.436472000" lon="-2.510785000">
        <ele>449.80</ele>
        <time>2015-01-17T07:32:57Z</time>
      </trkpt>
      <trkpt lat="42.436444000" lon="-2.510798000">
        <ele>449.90</ele>
        <time>2015-01-17T07:32:58Z</time>
      </trkpt>
      <trkpt lat="42.436418000" lon="-2.510809000">
        <ele>450.00</ele>
        <time>2015-01-17T07:32:59Z</time>
      </trkpt>
      <trkpt lat="42.436390000" lon="-2.510817000">
        <ele>450.20</ele>
        <time>2015-01-17T07:33:00Z</time>
      </trkpt>
      <trkpt lat="42.436336000" lon="-2.510834000">
        <ele>450.50</ele>
        <time>2015-01-17T07:33:02Z</time>
      </trkpt>
      <trkpt lat="42.436310000" lon="-2.510847000">
        <ele>450.70</ele>
        <time>2015-01-17T07:33:03Z</time>
      </trkpt>
      <trkpt lat="42.436284000" lon="-2.510856000">
        <ele>450.90</ele>
        <time>2015-01-17T07:33:04Z</time>
      </trkpt>
      <trkpt lat="42.436257000" lon="-2.510865000">
        <ele>451.00</ele>
        <time>2015-01-17T07:33:05Z</time>
      </trkpt>
      <trkpt lat="42.436229000" lon="-2.510876000">
        <ele>451.10</ele>
        <time>2015-01-17T07:33:06Z</time>
      </trkpt>
      <trkpt lat="42.436202000" lon="-2.510884000">
        <ele>451.10</ele>
        <time>2015-01-17T07:33:07Z</time>
      </trkpt>
      <trkpt lat="42.436174000" lon="-2.510894000">
        <ele>451.30</ele>
        <time>2015-01-17T07:33:08Z</time>
      </trkpt>
      <trkpt lat="42.436149000" lon="-2.510901000">
        <ele>451.40</ele>
        <time>2015-01-17T07:33:09Z</time>
      </trkpt>
      <trkpt lat="42.436123000" lon="-2.510911000">
        <ele>451.60</ele>
        <time>2015-01-17T07:33:10Z</time>
      </trkpt>
      <trkpt lat="42.436098000" lon="-2.510917000">
        <ele>451.70</ele>
        <time>2015-01-17T07:33:11Z</time>
      </trkpt>
      <trkpt lat="42.436074000" lon="-2.510923000">
        <ele>452.00</ele>
        <time>2015-01-17T07:33:12Z</time>
      </trkpt>
      <trkpt lat="42.436051000" lon="-2.510926000">
        <ele>452.20</ele>
        <time>2015-01-17T07:33:13Z</time>
      </trkpt>
      <trkpt lat="42.436029000" lon="-2.510937000">
        <ele>452.40</ele>
        <time>2015-01-17T07:33:14Z</time>
      </trkpt>
      <trkpt lat="42.436013000" lon="-2.510962000">
        <ele>452.50</ele>
        <time>2015-01-17T07:33:15Z</time>
      </trkpt>
      <trkpt lat="42.436005000" lon="-2.510995000">
        <ele>452.70</ele>
        <time>2015-01-17T07:33:16Z</time>
      </trkpt>
      <trkpt lat="42.436001000" lon="-2.511031000">
        <ele>452.90</ele>
        <time>2015-01-17T07:33:17Z</time>
      </trkpt>
      <trkpt lat="42.436005000" lon="-2.511060000">
        <ele>453.00</ele>
        <time>2015-01-17T07:33:18Z</time>
      </trkpt>
      <trkpt lat="42.436009000" lon="-2.511091000">
        <ele>453.10</ele>
        <time>2015-01-17T07:33:19Z</time>
      </trkpt>
      <trkpt lat="42.436012000" lon="-2.511120000">
        <ele>453.20</ele>
        <time>2015-01-17T07:33:20Z</time>
      </trkpt>
      <trkpt lat="42.436020000" lon="-2.511153000">
        <ele>453.20</ele>
        <time>2015-01-17T07:33:21Z</time>
      </trkpt>
      <trkpt lat="42.436028000" lon="-2.511187000">
        <ele>453.10</ele>
        <time>2015-01-17T07:33:22Z</time>
      </trkpt>
      <trkpt lat="42.436039000" lon="-2.511222000">
        <ele>453.00</ele>
        <time>2015-01-17T07:33:23Z</time>
      </trkpt>
      <trkpt lat="42.436047000" lon="-2.511257000">
        <ele>452.90</ele>
        <time>2015-01-17T07:33:24Z</time>
      </trkpt>
      <trkpt lat="42.436057000" lon="-2.511294000">
        <ele>452.80</ele>
        <time>2015-01-17T07:33:25Z</time>
      </trkpt>
      <trkpt lat="42.436064000" lon="-2.511328000">
        <ele>453.00</ele>
        <time>2015-01-17T07:33:26Z</time>
      </trkpt>
      <trkpt lat="42.436072000" lon="-2.511362000">
        <ele>453.20</ele>
        <time>2015-01-17T07:33:27Z</time>
      </trkpt>
      <trkpt lat="42.436081000" lon="-2.511395000">
        <ele>453.30</ele>
        <time>2015-01-17T07:33:28Z</time>
      </trkpt>
      <trkpt lat="42.436089000" lon="-2.511426000">
        <ele>453.40</ele>
        <time>2015-01-17T07:33:29Z</time>
      </trkpt>
      <trkpt lat="42.436096000" lon="-2.511458000">
        <ele>453.40</ele>
        <time>2015-01-17T07:33:30Z</time>
      </trkpt>
      <trkpt lat="42.436104000" lon="-2.511493000">
        <ele>453.50</ele>
        <time>2015-01-17T07:33:31Z</time>
      </trkpt>
      <trkpt lat="42.436113000" lon="-2.511525000">
        <ele>453.50</ele>
        <time>2015-01-17T07:33:32Z</time>
      </trkpt>
      <trkpt lat="42.436119000" lon="-2.511563000">
        <ele>453.40</ele>
        <time>2015-01-17T07:33:33Z</time>
      </trkpt>
      <trkpt lat="42.436127000" lon="-2.511601000">
        <ele>453.60</ele>
        <time>2015-01-17T07:33:34Z</time>
      </trkpt>
      <trkpt lat="42.436134000" lon="-2.511641000">
        <ele>453.60</ele>
        <time>2015-01-17T07:33:35Z</time>
      </trkpt>
      <trkpt lat="42.436141000" lon="-2.511677000">
        <ele>453.70</ele>
        <time>2015-01-17T07:33:36Z</time>
      </trkpt>
      <trkpt lat="42.436148000" lon="-2.511715000">
        <ele>453.80</ele>
        <time>2015-01-17T07:33:37Z</time>
      </trkpt>
      <trkpt lat="42.436154000" lon="-2.511754000">
        <ele>454.00</ele>
        <time>2015-01-17T07:33:38Z</time>
      </trkpt>
      <trkpt lat="42.436164000" lon="-2.511795000">
        <ele>454.10</ele>
        <time>2015-01-17T07:33:39Z</time>
      </trkpt>
      <trkpt lat="42.436173000" lon="-2.511835000">
        <ele>454.40</ele>
        <time>2015-01-17T07:33:40Z</time>
      </trkpt>
      <trkpt lat="42.436185000" lon="-2.511878000">
        <ele>454.60</ele>
        <time>2015-01-17T07:33:41Z</time>
      </trkpt>
      <trkpt lat="42.436196000" lon="-2.511921000">
        <ele>454.60</ele>
        <time>2015-01-17T07:33:42Z</time>
      </trkpt>
      <trkpt lat="42.436208000" lon="-2.511966000">
        <ele>454.60</ele>
        <time>2015-01-17T07:33:43Z</time>
      </trkpt>
      <trkpt lat="42.436217000" lon="-2.512011000">
        <ele>454.60</ele>
        <time>2015-01-17T07:33:44Z</time>
      </trkpt>
      <trkpt lat="42.436227000" lon="-2.512056000">
        <ele>454.60</ele>
        <time>2015-01-17T07:33:45Z</time>
      </trkpt>
      <trkpt lat="42.436238000" lon="-2.512100000">
        <ele>454.40</ele>
        <time>2015-01-17T07:33:46Z</time>
      </trkpt>
      <trkpt lat="42.436247000" lon="-2.512148000">
        <ele>454.30</ele>
        <time>2015-01-17T07:33:47Z</time>
      </trkpt>
      <trkpt lat="42.436260000" lon="-2.512198000">
        <ele>454.00</ele>
        <time>2015-01-17T07:33:48Z</time>
      </trkpt>
      <trkpt lat="42.436274000" lon="-2.512249000">
        <ele>453.80</ele>
        <time>2015-01-17T07:33:49Z</time>
      </trkpt>
      <trkpt lat="42.436289000" lon="-2.512296000">
        <ele>453.50</ele>
        <time>2015-01-17T07:33:50Z</time>
      </trkpt>
      <trkpt lat="42.436303000" lon="-2.512343000">
        <ele>453.40</ele>
        <time>2015-01-17T07:33:51Z</time>
      </trkpt>
      <trkpt lat="42.436316000" lon="-2.512395000">
        <ele>453.30</ele>
        <time>2015-01-17T07:33:52Z</time>
      </trkpt>
      <trkpt lat="42.436330000" lon="-2.512443000">
        <ele>453.20</ele>
        <time>2015-01-17T07:33:53Z</time>
      </trkpt>
      <trkpt lat="42.436341000" lon="-2.512491000">
        <ele>453.10</ele>
        <time>2015-01-17T07:33:54Z</time>
      </trkpt>
      <trkpt lat="42.436353000" lon="-2.512536000">
        <ele>453.00</ele>
        <time>2015-01-17T07:33:55Z</time>
      </trkpt>
      <trkpt lat="42.436364000" lon="-2.512582000">
        <ele>452.70</ele>
        <time>2015-01-17T07:33:56Z</time>
      </trkpt>
      <trkpt lat="42.436373000" lon="-2.512631000">
        <ele>452.50</ele>
        <time>2015-01-17T07:33:57Z</time>
      </trkpt>
      <trkpt lat="42.436385000" lon="-2.512677000">
        <ele>452.30</ele>
        <time>2015-01-17T07:33:58Z</time>
      </trkpt>
      <trkpt lat="42.436395000" lon="-2.512722000">
        <ele>452.20</ele>
        <time>2015-01-17T07:33:59Z</time>
      </trkpt>
      <trkpt lat="42.436406000" lon="-2.512769000">
        <ele>452.10</ele>
        <time>2015-01-17T07:34:00Z</time>
      </trkpt>
      <trkpt lat="42.436417000" lon="-2.512817000">
        <ele>452.00</ele>
        <time>2015-01-17T07:34:01Z</time>
      </trkpt>
      <trkpt lat="42.436436000" lon="-2.512907000">
        <ele>452.00</ele>
        <time>2015-01-17T07:34:03Z</time>
      </trkpt>
      <trkpt lat="42.436444000" lon="-2.512949000">
        <ele>451.90</ele>
        <time>2015-01-17T07:34:04Z</time>
      </trkpt>
      <trkpt lat="42.436453000" lon="-2.512992000">
        <ele>451.90</ele>
        <time>2015-01-17T07:34:05Z</time>
      </trkpt>
      <trkpt lat="42.436462000" lon="-2.513038000">
        <ele>451.80</ele>
        <time>2015-01-17T07:34:06Z</time>
      </trkpt>
      <trkpt lat="42.436471000" lon="-2.513083000">
        <ele>451.60</ele>
        <time>2015-01-17T07:34:07Z</time>
      </trkpt>
      <trkpt lat="42.436480000" lon="-2.513126000">
        <ele>451.50</ele>
        <time>2015-01-17T07:34:08Z</time>
      </trkpt>
      <trkpt lat="42.436488000" lon="-2.513166000">
        <ele>451.40</ele>
        <time>2015-01-17T07:34:09Z</time>
      </trkpt>
      <trkpt lat="42.436500000" lon="-2.513207000">
        <ele>451.30</ele>
        <time>2015-01-17T07:34:10Z</time>
      </trkpt>
      <trkpt lat="42.436513000" lon="-2.513251000">
        <ele>451.20</ele>
        <time>2015-01-17T07:34:11Z</time>
      </trkpt>
      <trkpt lat="42.436528000" lon="-2.513292000">
        <ele>451.30</ele>
        <time>2015-01-17T07:34:12Z</time>
      </trkpt>
      <trkpt lat="42.436542000" lon="-2.513333000">
        <ele>451.40</ele>
        <time>2015-01-17T07:34:13Z</time>
      </trkpt>
      <trkpt lat="42.436558000" lon="-2.513369000">
        <ele>451.40</ele>
        <time>2015-01-17T07:34:14Z</time>
      </trkpt>
      <trkpt lat="42.436573000" lon="-2.513410000">
        <ele>451.50</ele>
        <time>2015-01-17T07:34:15Z</time>
      </trkpt>
      <trkpt lat="42.436590000" lon="-2.513451000">
        <ele>451.50</ele>
        <time>2015-01-17T07:34:16Z</time>
      </trkpt>
      <trkpt lat="42.436605000" lon="-2.513489000">
        <ele>451.50</ele>
        <time>2015-01-17T07:34:17Z</time>
      </trkpt>
      <trkpt lat="42.436621000" lon="-2.513525000">
        <ele>451.50</ele>
        <time>2015-01-17T07:34:18Z</time>
      </trkpt>
      <trkpt lat="42.436637000" lon="-2.513563000">
        <ele>451.40</ele>
        <time>2015-01-17T07:34:19Z</time>
      </trkpt>
      <trkpt lat="42.436654000" lon="-2.513602000">
        <ele>451.30</ele>
        <time>2015-01-17T07:34:20Z</time>
      </trkpt>
      <trkpt lat="42.436669000" lon="-2.513641000">
        <ele>451.30</ele>
        <time>2015-01-17T07:34:21Z</time>
      </trkpt>
      <trkpt lat="42.436683000" lon="-2.513679000">
        <ele>451.10</ele>
        <time>2015-01-17T07:34:22Z</time>
      </trkpt>
      <trkpt lat="42.436699000" lon="-2.513718000">
        <ele>451.00</ele>
        <time>2015-01-17T07:34:23Z</time>
      </trkpt>
      <trkpt lat="42.436716000" lon="-2.513753000">
        <ele>450.90</ele>
        <time>2015-01-17T07:34:24Z</time>
      </trkpt>
      <trkpt lat="42.436735000" lon="-2.513788000">
        <ele>450.90</ele>
        <time>2015-01-17T07:34:25Z</time>
      </trkpt>
      <trkpt lat="42.436750000" lon="-2.513822000">
        <ele>450.80</ele>
        <time>2015-01-17T07:34:26Z</time>
      </trkpt>
      <trkpt lat="42.436763000" lon="-2.513859000">
        <ele>450.80</ele>
        <time>2015-01-17T07:34:27Z</time>
      </trkpt>
      <trkpt lat="42.436778000" lon="-2.513896000">
        <ele>450.80</ele>
        <time>2015-01-17T07:34:28Z</time>
      </trkpt>
      <trkpt lat="42.436793000" lon="-2.513929000">
        <ele>450.80</ele>
        <time>2015-01-17T07:34:29Z</time>
      </trkpt>
      <trkpt lat="42.436808000" lon="-2.513965000">
        <ele>450.90</ele>
        <time>2015-01-17T07:34:30Z</time>
      </trkpt>
      <trkpt lat="42.436823000" lon="-2.514000000">
        <ele>451.00</ele>
        <time>2015-01-17T07:34:31Z</time>
      </trkpt>
      <trkpt lat="42.436838000" lon="-2.514038000">
        <ele>451.10</ele>
        <time>2015-01-17T07:34:32Z</time>
      </trkpt>
      <trkpt lat="42.436854000" lon="-2.514072000">
        <ele>451.10</ele>
        <time>2015-01-17T07:34:33Z</time>
      </trkpt>
      <trkpt lat="42.436871000" lon="-2.514106000">
        <ele>451.30</ele>
        <time>2015-01-17T07:34:34Z</time>
      </trkpt>
      <trkpt lat="42.436886000" lon="-2.514141000">
        <ele>451.40</ele>
        <time>2015-01-17T07:34:35Z</time>
      </trkpt>
      <trkpt lat="42.436903000" lon="-2.514175000">
        <ele>451.40</ele>
        <time>2015-01-17T07:34:36Z</time>
      </trkpt>
      <trkpt lat="42.436917000" lon="-2.514208000">
        <ele>451.40</ele>
        <time>2015-01-17T07:34:37Z</time>
      </trkpt>
      <trkpt lat="42.436931000" lon="-2.514243000">
        <ele>451.60</ele>
        <time>2015-01-17T07:34:38Z</time>
      </trkpt>
      <trkpt lat="42.436944000" lon="-2.514275000">
        <ele>451.70</ele>
        <time>2015-01-17T07:34:39Z</time>
      </trkpt>
      <trkpt lat="42.436960000" lon="-2.514309000">
        <ele>451.90</ele>
        <time>2015-01-17T07:34:40Z</time>
      </trkpt>
      <trkpt lat="42.436974000" lon="-2.514343000">
        <ele>452.00</ele>
        <time>2015-01-17T07:34:41Z</time>
      </trkpt>
      <trkpt lat="42.436990000" lon="-2.514377000">
        <ele>452.10</ele>
        <time>2015-01-17T07:34:42Z</time>
      </trkpt>
      <trkpt lat="42.437005000" lon="-2.514414000">
        <ele>452.30</ele>
        <time>2015-01-17T07:34:43Z</time>
      </trkpt>
      <trkpt lat="42.437021000" lon="-2.514446000">
        <ele>452.40</ele>
        <time>2015-01-17T07:34:44Z</time>
      </trkpt>
      <trkpt lat="42.437034000" lon="-2.514479000">
        <ele>452.50</ele>
        <time>2015-01-17T07:34:45Z</time>
      </trkpt>
      <trkpt lat="42.437046000" lon="-2.514510000">
        <ele>452.50</ele>
        <time>2015-01-17T07:34:46Z</time>
      </trkpt>
      <trkpt lat="42.437062000" lon="-2.514542000">
        <ele>452.50</ele>
        <time>2015-01-17T07:34:47Z</time>
      </trkpt>
      <trkpt lat="42.437076000" lon="-2.514573000">
        <ele>452.60</ele>
        <time>2015-01-17T07:34:48Z</time>
      </trkpt>
      <trkpt lat="42.437091000" lon="-2.514603000">
        <ele>452.60</ele>
        <time>2015-01-17T07:34:49Z</time>
      </trkpt>
      <trkpt lat="42.437107000" lon="-2.514633000">
        <ele>452.90</ele>
        <time>2015-01-17T07:34:50Z</time>
      </trkpt>
      <trkpt lat="42.437127000" lon="-2.514659000">
        <ele>453.00</ele>
        <time>2015-01-17T07:34:51Z</time>
      </trkpt>
      <trkpt lat="42.437149000" lon="-2.514681000">
        <ele>453.30</ele>
        <time>2015-01-17T07:34:52Z</time>
      </trkpt>
      <trkpt lat="42.437165000" lon="-2.514699000">
        <ele>453.50</ele>
        <time>2015-01-17T07:34:53Z</time>
      </trkpt>
      <trkpt lat="42.437185000" lon="-2.514710000">
        <ele>453.60</ele>
        <time>2015-01-17T07:34:54Z</time>
      </trkpt>
      <trkpt lat="42.437205000" lon="-2.514716000">
        <ele>453.70</ele>
        <time>2015-01-17T07:34:55Z</time>
      </trkpt>
      <trkpt lat="42.437231000" lon="-2.514722000">
        <ele>453.80</ele>
        <time>2015-01-17T07:34:56Z</time>
      </trkpt>
      <trkpt lat="42.437256000" lon="-2.514724000">
        <ele>453.80</ele>
        <time>2015-01-17T07:34:57Z</time>
      </trkpt>
      <trkpt lat="42.437280000" lon="-2.514725000">
        <ele>453.80</ele>
        <time>2015-01-17T07:34:58Z</time>
      </trkpt>
      <trkpt lat="42.437304000" lon="-2.514727000">
        <ele>453.80</ele>
        <time>2015-01-17T07:34:59Z</time>
      </trkpt>
      <trkpt lat="42.437327000" lon="-2.514721000">
        <ele>454.00</ele>
        <time>2015-01-17T07:35:00Z</time>
      </trkpt>
      <trkpt lat="42.437351000" lon="-2.514714000">
        <ele>454.10</ele>
        <time>2015-01-17T07:35:01Z</time>
      </trkpt>
      <trkpt lat="42.437375000" lon="-2.514701000">
        <ele>454.50</ele>
        <time>2015-01-17T07:35:02Z</time>
      </trkpt>
      <trkpt lat="42.437420000" lon="-2.514677000">
        <ele>455.10</ele>
        <time>2015-01-17T07:35:04Z</time>
      </trkpt>
      <trkpt lat="42.437441000" lon="-2.514665000">
        <ele>455.30</ele>
        <time>2015-01-17T07:35:05Z</time>
      </trkpt>
      <trkpt lat="42.437460000" lon="-2.514651000">
        <ele>455.40</ele>
        <time>2015-01-17T07:35:06Z</time>
      </trkpt>
      <trkpt lat="42.437481000" lon="-2.514635000">
        <ele>455.50</ele>
        <time>2015-01-17T07:35:07Z</time>
      </trkpt>
      <trkpt lat="42.437503000" lon="-2.514619000">
        <ele>455.70</ele>
        <time>2015-01-17T07:35:08Z</time>
      </trkpt>
      <trkpt lat="42.437525000" lon="-2.514602000">
        <ele>455.90</ele>
        <time>2015-01-17T07:35:09Z</time>
      </trkpt>
      <trkpt lat="42.437547000" lon="-2.514584000">
        <ele>456.00</ele>
        <time>2015-01-17T07:35:10Z</time>
      </trkpt>
      <trkpt lat="42.437567000" lon="-2.514566000">
        <ele>456.10</ele>
        <time>2015-01-17T07:35:11Z</time>
      </trkpt>
      <trkpt lat="42.437584000" lon="-2.514544000">
        <ele>456.20</ele>
        <time>2015-01-17T07:35:12Z</time>
      </trkpt>
      <trkpt lat="42.437602000" lon="-2.514524000">
        <ele>456.30</ele>
        <time>2015-01-17T07:35:13Z</time>
      </trkpt>
      <trkpt lat="42.437619000" lon="-2.514501000">
        <ele>456.40</ele>
        <time>2015-01-17T07:35:14Z</time>
      </trkpt>
      <trkpt lat="42.437635000" lon="-2.514482000">
        <ele>456.40</ele>
        <time>2015-01-17T07:35:15Z</time>
      </trkpt>
      <trkpt lat="42.437651000" lon="-2.514463000">
        <ele>456.50</ele>
        <time>2015-01-17T07:35:16Z</time>
      </trkpt>
      <trkpt lat="42.437667000" lon="-2.514444000">
        <ele>456.50</ele>
        <time>2015-01-17T07:35:17Z</time>
      </trkpt>
      <trkpt lat="42.437684000" lon="-2.514429000">
        <ele>456.40</ele>
        <time>2015-01-17T07:35:18Z</time>
      </trkpt>
      <trkpt lat="42.437704000" lon="-2.514428000">
        <ele>456.40</ele>
        <time>2015-01-17T07:35:19Z</time>
      </trkpt>
      <trkpt lat="42.437718000" lon="-2.514443000">
        <ele>456.40</ele>
        <time>2015-01-17T07:35:20Z</time>
      </trkpt>
      <trkpt lat="42.437727000" lon="-2.514462000">
        <ele>456.40</ele>
        <time>2015-01-17T07:35:21Z</time>
      </trkpt>
      <trkpt lat="42.437721000" lon="-2.514485000">
        <ele>456.40</ele>
        <time>2015-01-17T07:35:22Z</time>
      </trkpt>
      <trkpt lat="42.437712000" lon="-2.514503000">
        <ele>456.30</ele>
        <time>2015-01-17T07:35:23Z</time>
      </trkpt>
      <trkpt lat="42.437701000" lon="-2.514517000">
        <ele>456.30</ele>
        <time>2015-01-17T07:35:24Z</time>
      </trkpt>
      <trkpt lat="42.437687000" lon="-2.514538000">
        <ele>456.30</ele>
        <time>2015-01-17T07:35:25Z</time>
      </trkpt>
      <trkpt lat="42.437673000" lon="-2.514559000">
        <ele>456.40</ele>
        <time>2015-01-17T07:35:26Z</time>
      </trkpt>
      <trkpt lat="42.437660000" lon="-2.514580000">
        <ele>456.50</ele>
        <time>2015-01-17T07:35:27Z</time>
      </trkpt>
      <trkpt lat="42.437646000" lon="-2.514594000">
        <ele>456.90</ele>
        <time>2015-01-17T07:35:28Z</time>
      </trkpt>
      <trkpt lat="42.437634000" lon="-2.514613000">
        <ele>457.20</ele>
        <time>2015-01-17T07:35:29Z</time>
      </trkpt>
      <trkpt lat="42.437624000" lon="-2.514639000">
        <ele>457.50</ele>
        <time>2015-01-17T07:35:30Z</time>
      </trkpt>
      <trkpt lat="42.437615000" lon="-2.514659000">
        <ele>457.70</ele>
        <time>2015-01-17T07:35:31Z</time>
      </trkpt>
      <trkpt lat="42.437605000" lon="-2.514680000">
        <ele>458.00</ele>
        <time>2015-01-17T07:35:32Z</time>
      </trkpt>
      <trkpt lat="42.437594000" lon="-2.514698000">
        <ele>458.20</ele>
        <time>2015-01-17T07:35:33Z</time>
      </trkpt>
      <trkpt lat="42.437586000" lon="-2.514717000">
        <ele>458.30</ele>
        <time>2015-01-17T07:35:34Z</time>
      </trkpt>
      <trkpt lat="42.437575000" lon="-2.514737000">
        <ele>458.50</ele>
        <time>2015-01-17T07:35:35Z</time>
      </trkpt>
      <trkpt lat="42.437565000" lon="-2.514760000">
        <ele>458.90</ele>
        <time>2015-01-17T07:35:36Z</time>
      </trkpt>
      <trkpt lat="42.437554000" lon="-2.514779000">
        <ele>459.30</ele>
        <time>2015-01-17T07:35:37Z</time>
      </trkpt>
      <trkpt lat="42.437545000" lon="-2.514796000">
        <ele>459.50</ele>
        <time>2015-01-17T07:35:38Z</time>
      </trkpt>
      <trkpt lat="42.437536000" lon="-2.514820000">
        <ele>459.70</ele>
        <time>2015-01-17T07:35:39Z</time>
      </trkpt>
      <trkpt lat="42.437526000" lon="-2.514842000">
        <ele>459.90</ele>
        <time>2015-01-17T07:35:40Z</time>
      </trkpt>
      <trkpt lat="42.437513000" lon="-2.514862000">
        <ele>460.10</ele>
        <time>2015-01-17T07:35:41Z</time>
      </trkpt>
      <trkpt lat="42.437503000" lon="-2.514881000">
        <ele>460.30</ele>
        <time>2015-01-17T07:35:42Z</time>
      </trkpt>
      <trkpt lat="42.437493000" lon="-2.514907000">
        <ele>460.40</ele>
        <time>2015-01-17T07:35:43Z</time>
      </trkpt>
      <trkpt lat="42.437482000" lon="-2.514935000">
        <ele>460.60</ele>
        <time>2015-01-17T07:35:44Z</time>
      </trkpt>
      <trkpt lat="42.437472000" lon="-2.514960000">
        <ele>460.80</ele>
        <time>2015-01-17T07:35:45Z</time>
      </trkpt>
      <trkpt lat="42.437463000" lon="-2.514980000">
        <ele>460.90</ele>
        <time>2015-01-17T07:35:46Z</time>
      </trkpt>
      <trkpt lat="42.437452000" lon="-2.515002000">
        <ele>461.10</ele>
        <time>2015-01-17T07:35:47Z</time>
      </trkpt>
      <trkpt lat="42.437443000" lon="-2.515028000">
        <ele>461.20</ele>
        <time>2015-01-17T07:35:48Z</time>
      </trkpt>
      <trkpt lat="42.437434000" lon="-2.515056000">
        <ele>461.30</ele>
        <time>2015-01-17T07:35:49Z</time>
      </trkpt>
      <trkpt lat="42.437423000" lon="-2.515082000">
        <ele>461.60</ele>
        <time>2015-01-17T07:35:50Z</time>
      </trkpt>
      <trkpt lat="42.437414000" lon="-2.515109000">
        <ele>461.80</ele>
        <time>2015-01-17T07:35:51Z</time>
      </trkpt>
      <trkpt lat="42.437405000" lon="-2.515137000">
        <ele>462.10</ele>
        <time>2015-01-17T07:35:52Z</time>
      </trkpt>
      <trkpt lat="42.437393000" lon="-2.515162000">
        <ele>462.30</ele>
        <time>2015-01-17T07:35:53Z</time>
      </trkpt>
      <trkpt lat="42.437379000" lon="-2.515188000">
        <ele>462.50</ele>
        <time>2015-01-17T07:35:54Z</time>
      </trkpt>
      <trkpt lat="42.437369000" lon="-2.515215000">
        <ele>462.70</ele>
        <time>2015-01-17T07:35:55Z</time>
      </trkpt>
      <trkpt lat="42.437356000" lon="-2.515238000">
        <ele>463.10</ele>
        <time>2015-01-17T07:35:56Z</time>
      </trkpt>
      <trkpt lat="42.437343000" lon="-2.515255000">
        <ele>463.30</ele>
        <time>2015-01-17T07:35:57Z</time>
      </trkpt>
      <trkpt lat="42.437331000" lon="-2.515274000">
        <ele>463.70</ele>
        <time>2015-01-17T07:35:58Z</time>
      </trkpt>
      <trkpt lat="42.437318000" lon="-2.515297000">
        <ele>464.00</ele>
        <time>2015-01-17T07:35:59Z</time>
      </trkpt>
      <trkpt lat="42.437308000" lon="-2.515313000">
        <ele>464.30</ele>
        <time>2015-01-17T07:36:00Z</time>
      </trkpt>
      <trkpt lat="42.437292000" lon="-2.515334000">
        <ele>464.60</ele>
        <time>2015-01-17T07:36:01Z</time>
      </trkpt>
      <trkpt lat="42.437281000" lon="-2.515355000">
        <ele>464.70</ele>
        <time>2015-01-17T07:36:02Z</time>
      </trkpt>
      <trkpt lat="42.437265000" lon="-2.515374000">
        <ele>464.80</ele>
        <time>2015-01-17T07:36:03Z</time>
      </trkpt>
      <trkpt lat="42.437237000" lon="-2.515409000">
        <ele>465.00</ele>
        <time>2015-01-17T07:36:05Z</time>
      </trkpt>
      <trkpt lat="42.437223000" lon="-2.515428000">
        <ele>465.10</ele>
        <time>2015-01-17T07:36:06Z</time>
      </trkpt>
      <trkpt lat="42.437210000" lon="-2.515449000">
        <ele>465.10</ele>
        <time>2015-01-17T07:36:07Z</time>
      </trkpt>
      <trkpt lat="42.437192000" lon="-2.515465000">
        <ele>465.40</ele>
        <time>2015-01-17T07:36:08Z</time>
      </trkpt>
      <trkpt lat="42.437178000" lon="-2.515485000">
        <ele>465.60</ele>
        <time>2015-01-17T07:36:09Z</time>
      </trkpt>
      <trkpt lat="42.437164000" lon="-2.515500000">
        <ele>466.00</ele>
        <time>2015-01-17T07:36:10Z</time>
      </trkpt>
      <trkpt lat="42.437147000" lon="-2.515519000">
        <ele>466.30</ele>
        <time>2015-01-17T07:36:11Z</time>
      </trkpt>
      <trkpt lat="42.437130000" lon="-2.515533000">
        <ele>466.60</ele>
        <time>2015-01-17T07:36:12Z</time>
      </trkpt>
      <trkpt lat="42.437113000" lon="-2.515546000">
        <ele>466.80</ele>
        <time>2015-01-17T07:36:13Z</time>
      </trkpt>
      <trkpt lat="42.437100000" lon="-2.515561000">
        <ele>467.10</ele>
        <time>2015-01-17T07:36:14Z</time>
      </trkpt>
      <trkpt lat="42.437085000" lon="-2.515575000">
        <ele>467.30</ele>
        <time>2015-01-17T07:36:15Z</time>
      </trkpt>
      <trkpt lat="42.437073000" lon="-2.515585000">
        <ele>467.50</ele>
        <time>2015-01-17T07:36:16Z</time>
      </trkpt>
      <trkpt lat="42.437057000" lon="-2.515599000">
        <ele>467.60</ele>
        <time>2015-01-17T07:36:17Z</time>
      </trkpt>
      <trkpt lat="42.437043000" lon="-2.515612000">
        <ele>467.70</ele>
        <time>2015-01-17T07:36:18Z</time>
      </trkpt>
      <trkpt lat="42.437028000" lon="-2.515625000">
        <ele>467.80</ele>
        <time>2015-01-17T07:36:19Z</time>
      </trkpt>
      <trkpt lat="42.437012000" lon="-2.515639000">
        <ele>467.90</ele>
        <time>2015-01-17T07:36:20Z</time>
      </trkpt>
      <trkpt lat="42.437001000" lon="-2.515648000">
        <ele>468.10</ele>
        <time>2015-01-17T07:36:21Z</time>
      </trkpt>
      <trkpt lat="42.436986000" lon="-2.515659000">
        <ele>468.20</ele>
        <time>2015-01-17T07:36:22Z</time>
      </trkpt>
      <trkpt lat="42.436970000" lon="-2.515666000">
        <ele>468.30</ele>
        <time>2015-01-17T07:36:23Z</time>
      </trkpt>
      <trkpt lat="42.436954000" lon="-2.515677000">
        <ele>468.50</ele>
        <time>2015-01-17T07:36:24Z</time>
      </trkpt>
      <trkpt lat="42.436939000" lon="-2.515690000">
        <ele>468.70</ele>
        <time>2015-01-17T07:36:25Z</time>
      </trkpt>
      <trkpt lat="42.436924000" lon="-2.515695000">
        <ele>468.90</ele>
        <time>2015-01-17T07:36:26Z</time>
      </trkpt>
      <trkpt lat="42.436910000" lon="-2.515706000">
        <ele>469.00</ele>
        <time>2015-01-17T07:36:27Z</time>
      </trkpt>
      <trkpt lat="42.436897000" lon="-2.515717000">
        <ele>469.40</ele>
        <time>2015-01-17T07:36:28Z</time>
      </trkpt>
      <trkpt lat="42.436883000" lon="-2.515728000">
        <ele>469.60</ele>
        <time>2015-01-17T07:36:29Z</time>
      </trkpt>
      <trkpt lat="42.436870000" lon="-2.515742000">
        <ele>469.90</ele>
        <time>2015-01-17T07:36:30Z</time>
      </trkpt>
      <trkpt lat="42.436858000" lon="-2.515755000">
        <ele>470.10</ele>
        <time>2015-01-17T07:36:31Z</time>
      </trkpt>
      <trkpt lat="42.436845000" lon="-2.515765000">
        <ele>470.40</ele>
        <time>2015-01-17T07:36:32Z</time>
      </trkpt>
      <trkpt lat="42.436835000" lon="-2.515778000">
        <ele>470.60</ele>
        <time>2015-01-17T07:36:33Z</time>
      </trkpt>
      <trkpt lat="42.436823000" lon="-2.515793000">
        <ele>470.90</ele>
        <time>2015-01-17T07:36:34Z</time>
      </trkpt>
      <trkpt lat="42.436807000" lon="-2.515807000">
        <ele>471.10</ele>
        <time>2015-01-17T07:36:35Z</time>
      </trkpt>
      <trkpt lat="42.436795000" lon="-2.515821000">
        <ele>471.20</ele>
        <time>2015-01-17T07:36:36Z</time>
      </trkpt>
      <trkpt lat="42.436782000" lon="-2.515836000">
        <ele>471.30</ele>
        <time>2015-01-17T07:36:37Z</time>
      </trkpt>
      <trkpt lat="42.436771000" lon="-2.515853000">
        <ele>471.50</ele>
        <time>2015-01-17T07:36:38Z</time>
      </trkpt>
      <trkpt lat="42.436762000" lon="-2.515867000">
        <ele>471.60</ele>
        <time>2015-01-17T07:36:39Z</time>
      </trkpt>
      <trkpt lat="42.436751000" lon="-2.515881000">
        <ele>472.00</ele>
        <time>2015-01-17T07:36:40Z</time>
      </trkpt>
      <trkpt lat="42.436737000" lon="-2.515896000">
        <ele>472.20</ele>
        <time>2015-01-17T07:36:41Z</time>
      </trkpt>
      <trkpt lat="42.436728000" lon="-2.515912000">
        <ele>472.40</ele>
        <time>2015-01-17T07:36:42Z</time>
      </trkpt>
      <trkpt lat="42.436719000" lon="-2.515929000">
        <ele>472.50</ele>
        <time>2015-01-17T07:36:43Z</time>
      </trkpt>
      <trkpt lat="42.436708000" lon="-2.515943000">
        <ele>472.70</ele>
        <time>2015-01-17T07:36:44Z</time>
      </trkpt>
      <trkpt lat="42.436697000" lon="-2.515959000">
        <ele>472.70</ele>
        <time>2015-01-17T07:36:45Z</time>
      </trkpt>
      <trkpt lat="42.436686000" lon="-2.515972000">
        <ele>473.00</ele>
        <time>2015-01-17T07:36:46Z</time>
      </trkpt>
      <trkpt lat="42.436677000" lon="-2.515988000">
        <ele>473.20</ele>
        <time>2015-01-17T07:36:47Z</time>
      </trkpt>
      <trkpt lat="42.436667000" lon="-2.516004000">
        <ele>473.40</ele>
        <time>2015-01-17T07:36:48Z</time>
      </trkpt>
      <trkpt lat="42.436658000" lon="-2.516018000">
        <ele>473.50</ele>
        <time>2015-01-17T07:36:49Z</time>
      </trkpt>
      <trkpt lat="42.436648000" lon="-2.516032000">
        <ele>473.70</ele>
        <time>2015-01-17T07:36:50Z</time>
      </trkpt>
      <trkpt lat="42.436636000" lon="-2.516051000">
        <ele>473.80</ele>
        <time>2015-01-17T07:36:51Z</time>
      </trkpt>
      <trkpt lat="42.436625000" lon="-2.516069000">
        <ele>474.00</ele>
        <time>2015-01-17T07:36:52Z</time>
      </trkpt>
      <trkpt lat="42.436615000" lon="-2.516081000">
        <ele>474.10</ele>
        <time>2015-01-17T07:36:53Z</time>
      </trkpt>
      <trkpt lat="42.436606000" lon="-2.516102000">
        <ele>474.30</ele>
        <time>2015-01-17T07:36:54Z</time>
      </trkpt>
      <trkpt lat="42.436596000" lon="-2.516117000">
        <ele>474.50</ele>
        <time>2015-01-17T07:36:55Z</time>
      </trkpt>
      <trkpt lat="42.436586000" lon="-2.516133000">
        <ele>475.00</ele>
        <time>2015-01-17T07:36:56Z</time>
      </trkpt>
      <trkpt lat="42.436574000" lon="-2.516150000">
        <ele>475.30</ele>
        <time>2015-01-17T07:36:57Z</time>
      </trkpt>
      <trkpt lat="42.436566000" lon="-2.516169000">
        <ele>475.70</ele>
        <time>2015-01-17T07:36:58Z</time>
      </trkpt>
      <trkpt lat="42.436556000" lon="-2.516189000">
        <ele>476.00</ele>
        <time>2015-01-17T07:36:59Z</time>
      </trkpt>
      <trkpt lat="42.436546000" lon="-2.516215000">
        <ele>476.40</ele>
        <time>2015-01-17T07:37:00Z</time>
      </trkpt>
      <trkpt lat="42.436540000" lon="-2.516243000">
        <ele>476.60</ele>
        <time>2015-01-17T07:37:01Z</time>
      </trkpt>
      <trkpt lat="42.436538000" lon="-2.516271000">
        <ele>477.00</ele>
        <time>2015-01-17T07:37:02Z</time>
      </trkpt>
      <trkpt lat="42.436539000" lon="-2.516294000">
        <ele>477.20</ele>
        <time>2015-01-17T07:37:03Z</time>
      </trkpt>
      <trkpt lat="42.436543000" lon="-2.516322000">
        <ele>477.40</ele>
        <time>2015-01-17T07:37:04Z</time>
      </trkpt>
      <trkpt lat="42.436563000" lon="-2.516371000">
        <ele>477.80</ele>
        <time>2015-01-17T07:37:06Z</time>
      </trkpt>
      <trkpt lat="42.436578000" lon="-2.516389000">
        <ele>478.00</ele>
        <time>2015-01-17T07:37:07Z</time>
      </trkpt>
      <trkpt lat="42.436593000" lon="-2.516407000">
        <ele>478.30</ele>
        <time>2015-01-17T07:37:08Z</time>
      </trkpt>
      <trkpt lat="42.436607000" lon="-2.516424000">
        <ele>478.40</ele>
        <time>2015-01-17T07:37:09Z</time>
      </trkpt>
      <trkpt lat="42.436622000" lon="-2.516441000">
        <ele>478.60</ele>
        <time>2015-01-17T07:37:10Z</time>
      </trkpt>
      <trkpt lat="42.436634000" lon="-2.516455000">
        <ele>478.70</ele>
        <time>2015-01-17T07:37:11Z</time>
      </trkpt>
      <trkpt lat="42.436648000" lon="-2.516469000">
        <ele>478.90</ele>
        <time>2015-01-17T07:37:12Z</time>
      </trkpt>
      <trkpt lat="42.436662000" lon="-2.516486000">
        <ele>479.10</ele>
        <time>2015-01-17T07:37:13Z</time>
      </trkpt>
      <trkpt lat="42.436673000" lon="-2.516498000">
        <ele>479.30</ele>
        <time>2015-01-17T07:37:14Z</time>
      </trkpt>
      <trkpt lat="42.436683000" lon="-2.516512000">
        <ele>479.40</ele>
        <time>2015-01-17T07:37:15Z</time>
      </trkpt>
      <trkpt lat="42.436697000" lon="-2.516527000">
        <ele>479.50</ele>
        <time>2015-01-17T07:37:16Z</time>
      </trkpt>
      <trkpt lat="42.436709000" lon="-2.516540000">
        <ele>479.50</ele>
        <time>2015-01-17T07:37:17Z</time>
      </trkpt>
      <trkpt lat="42.436721000" lon="-2.516556000">
        <ele>479.80</ele>
        <time>2015-01-17T07:37:18Z</time>
      </trkpt>
      <trkpt lat="42.436731000" lon="-2.516575000">
        <ele>480.00</ele>
        <time>2015-01-17T07:37:19Z</time>
      </trkpt>
      <trkpt lat="42.436740000" lon="-2.516593000">
        <ele>480.10</ele>
        <time>2015-01-17T07:37:20Z</time>
      </trkpt>
      <trkpt lat="42.436749000" lon="-2.516616000">
        <ele>480.20</ele>
        <time>2015-01-17T07:37:21Z</time>
      </trkpt>
      <trkpt lat="42.436762000" lon="-2.516635000">
        <ele>480.30</ele>
        <time>2015-01-17T07:37:22Z</time>
      </trkpt>
      <trkpt lat="42.436774000" lon="-2.516652000">
        <ele>480.30</ele>
        <time>2015-01-17T07:37:23Z</time>
      </trkpt>
      <trkpt lat="42.436784000" lon="-2.516669000">
        <ele>480.50</ele>
        <time>2015-01-17T07:37:24Z</time>
      </trkpt>
      <trkpt lat="42.436796000" lon="-2.516685000">
        <ele>480.60</ele>
        <time>2015-01-17T07:37:25Z</time>
      </trkpt>
      <trkpt lat="42.436802000" lon="-2.516704000">
        <ele>480.90</ele>
        <time>2015-01-17T07:37:26Z</time>
      </trkpt>
      <trkpt lat="42.436816000" lon="-2.516725000">
        <ele>481.00</ele>
        <time>2015-01-17T07:37:27Z</time>
      </trkpt>
      <trkpt lat="42.436828000" lon="-2.516739000">
        <ele>481.20</ele>
        <time>2015-01-17T07:37:28Z</time>
      </trkpt>
      <trkpt lat="42.436841000" lon="-2.516755000">
        <ele>481.30</ele>
        <time>2015-01-17T07:37:29Z</time>
      </trkpt>
      <trkpt lat="42.436852000" lon="-2.516772000">
        <ele>481.40</ele>
        <time>2015-01-17T07:37:30Z</time>
      </trkpt>
      <trkpt lat="42.436864000" lon="-2.516794000">
        <ele>481.40</ele>
        <time>2015-01-17T07:37:31Z</time>
      </trkpt>
      <trkpt lat="42.436878000" lon="-2.516819000">
        <ele>481.50</ele>
        <time>2015-01-17T07:37:32Z</time>
      </trkpt>
      <trkpt lat="42.436894000" lon="-2.516845000">
        <ele>481.50</ele>
        <time>2015-01-17T07:37:33Z</time>
      </trkpt>
      <trkpt lat="42.436908000" lon="-2.516870000">
        <ele>481.60</ele>
        <time>2015-01-17T07:37:34Z</time>
      </trkpt>
      <trkpt lat="42.436923000" lon="-2.516895000">
        <ele>481.70</ele>
        <time>2015-01-17T07:37:35Z</time>
      </trkpt>
      <trkpt lat="42.436937000" lon="-2.516916000">
        <ele>481.70</ele>
        <time>2015-01-17T07:37:36Z</time>
      </trkpt>
      <trkpt lat="42.436953000" lon="-2.516943000">
        <ele>481.80</ele>
        <time>2015-01-17T07:37:37Z</time>
      </trkpt>
      <trkpt lat="42.436972000" lon="-2.516970000">
        <ele>481.70</ele>
        <time>2015-01-17T07:37:38Z</time>
      </trkpt>
      <trkpt lat="42.436988000" lon="-2.517000000">
        <ele>481.70</ele>
        <time>2015-01-17T07:37:39Z</time>
      </trkpt>
      <trkpt lat="42.437008000" lon="-2.517023000">
        <ele>481.60</ele>
        <time>2015-01-17T07:37:40Z</time>
      </trkpt>
      <trkpt lat="42.437030000" lon="-2.517046000">
        <ele>481.60</ele>
        <time>2015-01-17T07:37:41Z</time>
      </trkpt>
      <trkpt lat="42.437050000" lon="-2.517068000">
        <ele>481.50</ele>
        <time>2015-01-17T07:37:42Z</time>
      </trkpt>
      <trkpt lat="42.437069000" lon="-2.517093000">
        <ele>481.40</ele>
        <time>2015-01-17T07:37:43Z</time>
      </trkpt>
      <trkpt lat="42.437089000" lon="-2.517121000">
        <ele>481.30</ele>
        <time>2015-01-17T07:37:44Z</time>
      </trkpt>
      <trkpt lat="42.437110000" lon="-2.517142000">
        <ele>481.30</ele>
        <time>2015-01-17T07:37:45Z</time>
      </trkpt>
      <trkpt lat="42.437130000" lon="-2.517168000">
        <ele>481.30</ele>
        <time>2015-01-17T07:37:46Z</time>
      </trkpt>
      <trkpt lat="42.437147000" lon="-2.517190000">
        <ele>481.30</ele>
        <time>2015-01-17T07:37:47Z</time>
      </trkpt>
      <trkpt lat="42.437163000" lon="-2.517215000">
        <ele>481.20</ele>
        <time>2015-01-17T07:37:48Z</time>
      </trkpt>
      <trkpt lat="42.437182000" lon="-2.517243000">
        <ele>481.20</ele>
        <time>2015-01-17T07:37:49Z</time>
      </trkpt>
      <trkpt lat="42.437201000" lon="-2.517269000">
        <ele>481.10</ele>
        <time>2015-01-17T07:37:50Z</time>
      </trkpt>
      <trkpt lat="42.437220000" lon="-2.517296000">
        <ele>481.00</ele>
        <time>2015-01-17T07:37:51Z</time>
      </trkpt>
      <trkpt lat="42.437240000" lon="-2.517321000">
        <ele>481.10</ele>
        <time>2015-01-17T07:37:52Z</time>
      </trkpt>
      <trkpt lat="42.437257000" lon="-2.517346000">
        <ele>481.10</ele>
        <time>2015-01-17T07:37:53Z</time>
      </trkpt>
      <trkpt lat="42.437280000" lon="-2.517369000">
        <ele>481.00</ele>
        <time>2015-01-17T07:37:54Z</time>
      </trkpt>
      <trkpt lat="42.437298000" lon="-2.517393000">
        <ele>481.00</ele>
        <time>2015-01-17T07:37:55Z</time>
      </trkpt>
      <trkpt lat="42.437316000" lon="-2.517419000">
        <ele>481.30</ele>
        <time>2015-01-17T07:37:56Z</time>
      </trkpt>
      <trkpt lat="42.437334000" lon="-2.517446000">
        <ele>481.50</ele>
        <time>2015-01-17T07:37:57Z</time>
      </trkpt>
      <trkpt lat="42.437350000" lon="-2.517474000">
        <ele>481.30</ele>
        <time>2015-01-17T07:37:58Z</time>
      </trkpt>
      <trkpt lat="42.437365000" lon="-2.517497000">
        <ele>481.20</ele>
        <time>2015-01-17T07:37:59Z</time>
      </trkpt>
      <trkpt lat="42.437383000" lon="-2.517525000">
        <ele>481.30</ele>
        <time>2015-01-17T07:38:00Z</time>
      </trkpt>
      <trkpt lat="42.437401000" lon="-2.517557000">
        <ele>481.50</ele>
        <time>2015-01-17T07:38:01Z</time>
      </trkpt>
      <trkpt lat="42.437420000" lon="-2.517587000">
        <ele>481.60</ele>
        <time>2015-01-17T07:38:02Z</time>
      </trkpt>
      <trkpt lat="42.437440000" lon="-2.517614000">
        <ele>481.70</ele>
        <time>2015-01-17T07:38:03Z</time>
      </trkpt>
      <trkpt lat="42.437461000" lon="-2.517644000">
        <ele>481.70</ele>
        <time>2015-01-17T07:38:04Z</time>
      </trkpt>
      <trkpt lat="42.437483000" lon="-2.517673000">
        <ele>481.80</ele>
        <time>2015-01-17T07:38:05Z</time>
      </trkpt>
      <trkpt lat="42.437520000" lon="-2.517728000">
        <ele>481.60</ele>
        <time>2015-01-17T07:38:07Z</time>
      </trkpt>
      <trkpt lat="42.437538000" lon="-2.517760000">
        <ele>481.50</ele>
        <time>2015-01-17T07:38:08Z</time>
      </trkpt>
      <trkpt lat="42.437556000" lon="-2.517787000">
        <ele>481.50</ele>
        <time>2015-01-17T07:38:09Z</time>
      </trkpt>
      <trkpt lat="42.437574000" lon="-2.517815000">
        <ele>481.80</ele>
        <time>2015-01-17T07:38:10Z</time>
      </trkpt>
      <trkpt lat="42.437591000" lon="-2.517841000">
        <ele>482.00</ele>
        <time>2015-01-17T07:38:11Z</time>
      </trkpt>
      <trkpt lat="42.437609000" lon="-2.517866000">
        <ele>482.20</ele>
        <time>2015-01-17T07:38:12Z</time>
      </trkpt>
      <trkpt lat="42.437627000" lon="-2.517895000">
        <ele>482.30</ele>
        <time>2015-01-17T07:38:13Z</time>
      </trkpt>
      <trkpt lat="42.437641000" lon="-2.517926000">
        <ele>482.40</ele>
        <time>2015-01-17T07:38:14Z</time>
      </trkpt>
      <trkpt lat="42.437651000" lon="-2.517956000">
        <ele>482.50</ele>
        <time>2015-01-17T07:38:15Z</time>
      </trkpt>
      <trkpt lat="42.437665000" lon="-2.517985000">
        <ele>482.50</ele>
        <time>2015-01-17T07:38:16Z</time>
      </trkpt>
      <trkpt lat="42.437677000" lon="-2.518016000">
        <ele>482.50</ele>
        <time>2015-01-17T07:38:17Z</time>
      </trkpt>
      <trkpt lat="42.437688000" lon="-2.518051000">
        <ele>482.60</ele>
        <time>2015-01-17T07:38:18Z</time>
      </trkpt>
      <trkpt lat="42.437701000" lon="-2.518083000">
        <ele>482.60</ele>
        <time>2015-01-17T07:38:19Z</time>
      </trkpt>
      <trkpt lat="42.437713000" lon="-2.518122000">
        <ele>482.60</ele>
        <time>2015-01-17T07:38:20Z</time>
      </trkpt>
      <trkpt lat="42.437725000" lon="-2.518154000">
        <ele>482.60</ele>
        <time>2015-01-17T07:38:21Z</time>
      </trkpt>
      <trkpt lat="42.437735000" lon="-2.518191000">
        <ele>482.70</ele>
        <time>2015-01-17T07:38:22Z</time>
      </trkpt>
      <trkpt lat="42.437747000" lon="-2.518226000">
        <ele>482.80</ele>
        <time>2015-01-17T07:38:23Z</time>
      </trkpt>
      <trkpt lat="42.437760000" lon="-2.518260000">
        <ele>482.80</ele>
        <time>2015-01-17T07:38:24Z</time>
      </trkpt>
      <trkpt lat="42.437771000" lon="-2.518291000">
        <ele>482.80</ele>
        <time>2015-01-17T07:38:25Z</time>
      </trkpt>
      <trkpt lat="42.437779000" lon="-2.518323000">
        <ele>482.90</ele>
        <time>2015-01-17T07:38:26Z</time>
      </trkpt>
      <trkpt lat="42.437790000" lon="-2.518358000">
        <ele>482.90</ele>
        <time>2015-01-17T07:38:27Z</time>
      </trkpt>
      <trkpt lat="42.437802000" lon="-2.518390000">
        <ele>483.00</ele>
        <time>2015-01-17T07:38:28Z</time>
      </trkpt>
      <trkpt lat="42.437813000" lon="-2.518420000">
        <ele>483.10</ele>
        <time>2015-01-17T07:38:29Z</time>
      </trkpt>
      <trkpt lat="42.437823000" lon="-2.518452000">
        <ele>483.20</ele>
        <time>2015-01-17T07:38:30Z</time>
      </trkpt>
      <trkpt lat="42.437832000" lon="-2.518484000">
        <ele>483.20</ele>
        <time>2015-01-17T07:38:31Z</time>
      </trkpt>
      <trkpt lat="42.437840000" lon="-2.518514000">
        <ele>483.30</ele>
        <time>2015-01-17T07:38:32Z</time>
      </trkpt>
      <trkpt lat="42.437849000" lon="-2.518544000">
        <ele>483.30</ele>
        <time>2015-01-17T07:38:33Z</time>
      </trkpt>
      <trkpt lat="42.437856000" lon="-2.518575000">
        <ele>483.70</ele>
        <time>2015-01-17T07:38:34Z</time>
      </trkpt>
      <trkpt lat="42.437865000" lon="-2.518604000">
        <ele>484.00</ele>
        <time>2015-01-17T07:38:35Z</time>
      </trkpt>
      <trkpt lat="42.437868000" lon="-2.518626000">
        <ele>484.20</ele>
        <time>2015-01-17T07:38:36Z</time>
      </trkpt>
      <trkpt lat="42.437879000" lon="-2.518651000">
        <ele>484.40</ele>
        <time>2015-01-17T07:38:37Z</time>
      </trkpt>
      <trkpt lat="42.437889000" lon="-2.518672000">
        <ele>484.60</ele>
        <time>2015-01-17T07:38:38Z</time>
      </trkpt>
      <trkpt lat="42.437899000" lon="-2.518697000">
        <ele>484.70</ele>
        <time>2015-01-17T07:38:39Z</time>
      </trkpt>
      <trkpt lat="42.437908000" lon="-2.518726000">
        <ele>485.00</ele>
        <time>2015-01-17T07:38:40Z</time>
      </trkpt>
      <trkpt lat="42.437918000" lon="-2.518757000">
        <ele>485.10</ele>
        <time>2015-01-17T07:38:41Z</time>
      </trkpt>
      <trkpt lat="42.437927000" lon="-2.518789000">
        <ele>485.20</ele>
        <time>2015-01-17T07:38:42Z</time>
      </trkpt>
      <trkpt lat="42.437937000" lon="-2.518819000">
        <ele>485.30</ele>
        <time>2015-01-17T07:38:43Z</time>
      </trkpt>
      <trkpt lat="42.437946000" lon="-2.518853000">
        <ele>485.50</ele>
        <time>2015-01-17T07:38:44Z</time>
      </trkpt>
      <trkpt lat="42.437955000" lon="-2.518895000">
        <ele>485.70</ele>
        <time>2015-01-17T07:38:45Z</time>
      </trkpt>
      <trkpt lat="42.437966000" lon="-2.518934000">
        <ele>485.90</ele>
        <time>2015-01-17T07:38:46Z</time>
      </trkpt>
      <trkpt lat="42.437977000" lon="-2.518968000">
        <ele>486.00</ele>
        <time>2015-01-17T07:38:47Z</time>
      </trkpt>
      <trkpt lat="42.437987000" lon="-2.519002000">
        <ele>486.10</ele>
        <time>2015-01-17T07:38:48Z</time>
      </trkpt>
      <trkpt lat="42.437995000" lon="-2.519032000">
        <ele>486.20</ele>
        <time>2015-01-17T07:38:49Z</time>
      </trkpt>
      <trkpt lat="42.438006000" lon="-2.519064000">
        <ele>486.40</ele>
        <time>2015-01-17T07:38:50Z</time>
      </trkpt>
      <trkpt lat="42.438021000" lon="-2.519090000">
        <ele>486.60</ele>
        <time>2015-01-17T07:38:51Z</time>
      </trkpt>
      <trkpt lat="42.438034000" lon="-2.519117000">
        <ele>486.70</ele>
        <time>2015-01-17T07:38:52Z</time>
      </trkpt>
      <trkpt lat="42.438046000" lon="-2.519145000">
        <ele>486.80</ele>
        <time>2015-01-17T07:38:53Z</time>
      </trkpt>
      <trkpt lat="42.438058000" lon="-2.519169000">
        <ele>487.00</ele>
        <time>2015-01-17T07:38:54Z</time>
      </trkpt>
      <trkpt lat="42.438071000" lon="-2.519194000">
        <ele>487.10</ele>
        <time>2015-01-17T07:38:55Z</time>
      </trkpt>
      <trkpt lat="42.438085000" lon="-2.519219000">
        <ele>487.20</ele>
        <time>2015-01-17T07:38:56Z</time>
      </trkpt>
      <trkpt lat="42.438100000" lon="-2.519245000">
        <ele>487.20</ele>
        <time>2015-01-17T07:38:57Z</time>
      </trkpt>
      <trkpt lat="42.438111000" lon="-2.519267000">
        <ele>487.30</ele>
        <time>2015-01-17T07:38:58Z</time>
      </trkpt>
      <trkpt lat="42.438125000" lon="-2.519292000">
        <ele>487.40</ele>
        <time>2015-01-17T07:38:59Z</time>
      </trkpt>
      <trkpt lat="42.438136000" lon="-2.519314000">
        <ele>487.70</ele>
        <time>2015-01-17T07:39:00Z</time>
      </trkpt>
      <trkpt lat="42.438146000" lon="-2.519337000">
        <ele>487.90</ele>
        <time>2015-01-17T07:39:01Z</time>
      </trkpt>
      <trkpt lat="42.438157000" lon="-2.519362000">
        <ele>488.20</ele>
        <time>2015-01-17T07:39:02Z</time>
      </trkpt>
      <trkpt lat="42.438168000" lon="-2.519389000">
        <ele>488.40</ele>
        <time>2015-01-17T07:39:03Z</time>
      </trkpt>
      <trkpt lat="42.438180000" lon="-2.519415000">
        <ele>488.60</ele>
        <time>2015-01-17T07:39:04Z</time>
      </trkpt>
      <trkpt lat="42.438190000" lon="-2.519441000">
        <ele>488.70</ele>
        <time>2015-01-17T07:39:05Z</time>
      </trkpt>
      <trkpt lat="42.438201000" lon="-2.519464000">
        <ele>489.00</ele>
        <time>2015-01-17T07:39:06Z</time>
      </trkpt>
      <trkpt lat="42.438231000" lon="-2.519515000">
        <ele>489.30</ele>
        <time>2015-01-17T07:39:08Z</time>
      </trkpt>
      <trkpt lat="42.438244000" lon="-2.519539000">
        <ele>489.40</ele>
        <time>2015-01-17T07:39:09Z</time>
      </trkpt>
      <trkpt lat="42.438258000" lon="-2.519566000">
        <ele>489.50</ele>
        <time>2015-01-17T07:39:10Z</time>
      </trkpt>
      <trkpt lat="42.438270000" lon="-2.519592000">
        <ele>489.60</ele>
        <time>2015-01-17T07:39:11Z</time>
      </trkpt>
      <trkpt lat="42.438282000" lon="-2.519617000">
        <ele>489.70</ele>
        <time>2015-01-17T07:39:12Z</time>
      </trkpt>
      <trkpt lat="42.438294000" lon="-2.519644000">
        <ele>489.80</ele>
        <time>2015-01-17T07:39:13Z</time>
      </trkpt>
      <trkpt lat="42.438307000" lon="-2.519666000">
        <ele>489.80</ele>
        <time>2015-01-17T07:39:14Z</time>
      </trkpt>
      <trkpt lat="42.438324000" lon="-2.519686000">
        <ele>489.90</ele>
        <time>2015-01-17T07:39:15Z</time>
      </trkpt>
      <trkpt lat="42.438344000" lon="-2.519705000">
        <ele>490.20</ele>
        <time>2015-01-17T07:39:16Z</time>
      </trkpt>
      <trkpt lat="42.438360000" lon="-2.519726000">
        <ele>490.40</ele>
        <time>2015-01-17T07:39:17Z</time>
      </trkpt>
      <trkpt lat="42.438375000" lon="-2.519748000">
        <ele>490.60</ele>
        <time>2015-01-17T07:39:18Z</time>
      </trkpt>
      <trkpt lat="42.438390000" lon="-2.519769000">
        <ele>490.70</ele>
        <time>2015-01-17T07:39:19Z</time>
      </trkpt>
      <trkpt lat="42.438405000" lon="-2.519794000">
        <ele>491.00</ele>
        <time>2015-01-17T07:39:20Z</time>
      </trkpt>
      <trkpt lat="42.438423000" lon="-2.519809000">
        <ele>491.30</ele>
        <time>2015-01-17T07:39:21Z</time>
      </trkpt>
      <trkpt lat="42.438436000" lon="-2.519834000">
        <ele>491.50</ele>
        <time>2015-01-17T07:39:22Z</time>
      </trkpt>
      <trkpt lat="42.438453000" lon="-2.519854000">
        <ele>491.70</ele>
        <time>2015-01-17T07:39:23Z</time>
      </trkpt>
      <trkpt lat="42.438467000" lon="-2.519874000">
        <ele>491.80</ele>
        <time>2015-01-17T07:39:24Z</time>
      </trkpt>
      <trkpt lat="42.438482000" lon="-2.519892000">
        <ele>492.00</ele>
        <time>2015-01-17T07:39:25Z</time>
      </trkpt>
      <trkpt lat="42.438497000" lon="-2.519915000">
        <ele>492.30</ele>
        <time>2015-01-17T07:39:26Z</time>
      </trkpt>
      <trkpt lat="42.438507000" lon="-2.519939000">
        <ele>492.50</ele>
        <time>2015-01-17T07:39:27Z</time>
      </trkpt>
      <trkpt lat="42.438523000" lon="-2.519964000">
        <ele>492.70</ele>
        <time>2015-01-17T07:39:28Z</time>
      </trkpt>
      <trkpt lat="42.438537000" lon="-2.519986000">
        <ele>492.90</ele>
        <time>2015-01-17T07:39:29Z</time>
      </trkpt>
      <trkpt lat="42.438553000" lon="-2.520009000">
        <ele>493.00</ele>
        <time>2015-01-17T07:39:30Z</time>
      </trkpt>
      <trkpt lat="42.438564000" lon="-2.520034000">
        <ele>493.10</ele>
        <time>2015-01-17T07:39:31Z</time>
      </trkpt>
      <trkpt lat="42.438573000" lon="-2.520064000">
        <ele>493.10</ele>
        <time>2015-01-17T07:39:32Z</time>
      </trkpt>
      <trkpt lat="42.438585000" lon="-2.520091000">
        <ele>493.20</ele>
        <time>2015-01-17T07:39:33Z</time>
      </trkpt>
      <trkpt lat="42.438598000" lon="-2.520116000">
        <ele>493.40</ele>
        <time>2015-01-17T07:39:34Z</time>
      </trkpt>
      <trkpt lat="42.438610000" lon="-2.520141000">
        <ele>493.50</ele>
        <time>2015-01-17T07:39:35Z</time>
      </trkpt>
      <trkpt lat="42.438624000" lon="-2.520171000">
        <ele>493.70</ele>
        <time>2015-01-17T07:39:36Z</time>
      </trkpt>
      <trkpt lat="42.438633000" lon="-2.520199000">
        <ele>493.70</ele>
        <time>2015-01-17T07:39:37Z</time>
      </trkpt>
      <trkpt lat="42.438641000" lon="-2.520224000">
        <ele>493.80</ele>
        <time>2015-01-17T07:39:38Z</time>
      </trkpt>
      <trkpt lat="42.438653000" lon="-2.520247000">
        <ele>493.90</ele>
        <time>2015-01-17T07:39:39Z</time>
      </trkpt>
      <trkpt lat="42.438665000" lon="-2.520274000">
        <ele>493.80</ele>
        <time>2015-01-17T07:39:40Z</time>
      </trkpt>
      <trkpt lat="42.438676000" lon="-2.520295000">
        <ele>493.70</ele>
        <time>2015-01-17T07:39:41Z</time>
      </trkpt>
      <trkpt lat="42.438685000" lon="-2.520321000">
        <ele>493.60</ele>
        <time>2015-01-17T07:39:42Z</time>
      </trkpt>
      <trkpt lat="42.438691000" lon="-2.520351000">
        <ele>493.50</ele>
        <time>2015-01-17T07:39:43Z</time>
      </trkpt>
      <trkpt lat="42.438701000" lon="-2.520382000">
        <ele>493.50</ele>
        <time>2015-01-17T07:39:44Z</time>
      </trkpt>
      <trkpt lat="42.438710000" lon="-2.520408000">
        <ele>493.50</ele>
        <time>2015-01-17T07:39:45Z</time>
      </trkpt>
      <trkpt lat="42.438721000" lon="-2.520439000">
        <ele>493.70</ele>
        <time>2015-01-17T07:39:46Z</time>
      </trkpt>
      <trkpt lat="42.438730000" lon="-2.520468000">
        <ele>493.80</ele>
        <time>2015-01-17T07:39:47Z</time>
      </trkpt>
      <trkpt lat="42.438742000" lon="-2.520496000">
        <ele>493.90</ele>
        <time>2015-01-17T07:39:48Z</time>
      </trkpt>
      <trkpt lat="42.438753000" lon="-2.520524000">
        <ele>494.00</ele>
        <time>2015-01-17T07:39:49Z</time>
      </trkpt>
      <trkpt lat="42.438763000" lon="-2.520553000">
        <ele>494.20</ele>
        <time>2015-01-17T07:39:50Z</time>
      </trkpt>
      <trkpt lat="42.438774000" lon="-2.520579000">
        <ele>494.40</ele>
        <time>2015-01-17T07:39:51Z</time>
      </trkpt>
      <trkpt lat="42.438781000" lon="-2.520603000">
        <ele>494.40</ele>
        <time>2015-01-17T07:39:52Z</time>
      </trkpt>
      <trkpt lat="42.438790000" lon="-2.520629000">
        <ele>494.40</ele>
        <time>2015-01-17T07:39:53Z</time>
      </trkpt>
      <trkpt lat="42.438799000" lon="-2.520655000">
        <ele>494.60</ele>
        <time>2015-01-17T07:39:54Z</time>
      </trkpt>
      <trkpt lat="42.438808000" lon="-2.520678000">
        <ele>494.80</ele>
        <time>2015-01-17T07:39:55Z</time>
      </trkpt>
      <trkpt lat="42.438819000" lon="-2.520704000">
        <ele>494.90</ele>
        <time>2015-01-17T07:39:56Z</time>
      </trkpt>
      <trkpt lat="42.438826000" lon="-2.520730000">
        <ele>495.00</ele>
        <time>2015-01-17T07:39:57Z</time>
      </trkpt>
      <trkpt lat="42.438834000" lon="-2.520755000">
        <ele>495.00</ele>
        <time>2015-01-17T07:39:58Z</time>
      </trkpt>
      <trkpt lat="42.438846000" lon="-2.520774000">
        <ele>495.10</ele>
        <time>2015-01-17T07:39:59Z</time>
      </trkpt>
      <trkpt lat="42.438857000" lon="-2.520800000">
        <ele>495.10</ele>
        <time>2015-01-17T07:40:00Z</time>
      </trkpt>
      <trkpt lat="42.438870000" lon="-2.520819000">
        <ele>495.10</ele>
        <time>2015-01-17T07:40:01Z</time>
      </trkpt>
      <trkpt lat="42.438881000" lon="-2.520839000">
        <ele>495.50</ele>
        <time>2015-01-17T07:40:02Z</time>
      </trkpt>
      <trkpt lat="42.438894000" lon="-2.520859000">
        <ele>495.70</ele>
        <time>2015-01-17T07:40:03Z</time>
      </trkpt>
      <trkpt lat="42.438904000" lon="-2.520878000">
        <ele>496.10</ele>
        <time>2015-01-17T07:40:04Z</time>
      </trkpt>
      <trkpt lat="42.438914000" lon="-2.520901000">
        <ele>496.40</ele>
        <time>2015-01-17T07:40:05Z</time>
      </trkpt>
      <trkpt lat="42.438927000" lon="-2.520925000">
        <ele>496.60</ele>
        <time>2015-01-17T07:40:06Z</time>
      </trkpt>
      <trkpt lat="42.438939000" lon="-2.520942000">
        <ele>496.70</ele>
        <time>2015-01-17T07:40:07Z</time>
      </trkpt>
      <trkpt lat="42.438961000" lon="-2.520980000">
        <ele>496.90</ele>
        <time>2015-01-17T07:40:09Z</time>
      </trkpt>
      <trkpt lat="42.438973000" lon="-2.521002000">
        <ele>497.00</ele>
        <time>2015-01-17T07:40:10Z</time>
      </trkpt>
      <trkpt lat="42.438983000" lon="-2.521022000">
        <ele>497.10</ele>
        <time>2015-01-17T07:40:11Z</time>
      </trkpt>
      <trkpt lat="42.438991000" lon="-2.521035000">
        <ele>497.20</ele>
        <time>2015-01-17T07:40:12Z</time>
      </trkpt>
      <trkpt lat="42.439002000" lon="-2.521054000">
        <ele>497.40</ele>
        <time>2015-01-17T07:40:13Z</time>
      </trkpt>
      <trkpt lat="42.439014000" lon="-2.521072000">
        <ele>497.40</ele>
        <time>2015-01-17T07:40:14Z</time>
      </trkpt>
      <trkpt lat="42.439027000" lon="-2.521087000">
        <ele>497.50</ele>
        <time>2015-01-17T07:40:15Z</time>
      </trkpt>
      <trkpt lat="42.439038000" lon="-2.521104000">
        <ele>497.60</ele>
        <time>2015-01-17T07:40:16Z</time>
      </trkpt>
      <trkpt lat="42.439050000" lon="-2.521119000">
        <ele>497.60</ele>
        <time>2015-01-17T07:40:17Z</time>
      </trkpt>
      <trkpt lat="42.439062000" lon="-2.521141000">
        <ele>497.80</ele>
        <time>2015-01-17T07:40:18Z</time>
      </trkpt>
      <trkpt lat="42.439073000" lon="-2.521163000">
        <ele>498.00</ele>
        <time>2015-01-17T07:40:19Z</time>
      </trkpt>
      <trkpt lat="42.439085000" lon="-2.521179000">
        <ele>498.10</ele>
        <time>2015-01-17T07:40:20Z</time>
      </trkpt>
      <trkpt lat="42.439098000" lon="-2.521203000">
        <ele>498.30</ele>
        <time>2015-01-17T07:40:21Z</time>
      </trkpt>
      <trkpt lat="42.439111000" lon="-2.521221000">
        <ele>498.40</ele>
        <time>2015-01-17T07:40:22Z</time>
      </trkpt>
      <trkpt lat="42.439121000" lon="-2.521238000">
        <ele>498.50</ele>
        <time>2015-01-17T07:40:23Z</time>
      </trkpt>
      <trkpt lat="42.439129000" lon="-2.521263000">
        <ele>499.00</ele>
        <time>2015-01-17T07:40:24Z</time>
      </trkpt>
      <trkpt lat="42.439140000" lon="-2.521281000">
        <ele>499.40</ele>
        <time>2015-01-17T07:40:25Z</time>
      </trkpt>
      <trkpt lat="42.439147000" lon="-2.521305000">
        <ele>499.70</ele>
        <time>2015-01-17T07:40:26Z</time>
      </trkpt>
      <trkpt lat="42.439155000" lon="-2.521333000">
        <ele>500.00</ele>
        <time>2015-01-17T07:40:27Z</time>
      </trkpt>
      <trkpt lat="42.439162000" lon="-2.521355000">
        <ele>500.00</ele>
        <time>2015-01-17T07:40:28Z</time>
      </trkpt>
      <trkpt lat="42.439167000" lon="-2.521379000">
        <ele>500.10</ele>
        <time>2015-01-17T07:40:29Z</time>
      </trkpt>
      <trkpt lat="42.439172000" lon="-2.521408000">
        <ele>500.10</ele>
        <time>2015-01-17T07:40:30Z</time>
      </trkpt>
      <trkpt lat="42.439176000" lon="-2.521432000">
        <ele>500.20</ele>
        <time>2015-01-17T07:40:31Z</time>
      </trkpt>
      <trkpt lat="42.439184000" lon="-2.521460000">
        <ele>500.20</ele>
        <time>2015-01-17T07:40:32Z</time>
      </trkpt>
      <trkpt lat="42.439189000" lon="-2.521486000">
        <ele>500.30</ele>
        <time>2015-01-17T07:40:33Z</time>
      </trkpt>
      <trkpt lat="42.439194000" lon="-2.521509000">
        <ele>500.40</ele>
        <time>2015-01-17T07:40:34Z</time>
      </trkpt>
      <trkpt lat="42.439198000" lon="-2.521538000">
        <ele>500.60</ele>
        <time>2015-01-17T07:40:35Z</time>
      </trkpt>
      <trkpt lat="42.439206000" lon="-2.521565000">
        <ele>500.80</ele>
        <time>2015-01-17T07:40:36Z</time>
      </trkpt>
      <trkpt lat="42.439223000" lon="-2.521589000">
        <ele>500.90</ele>
        <time>2015-01-17T07:40:37Z</time>
      </trkpt>
      <trkpt lat="42.439236000" lon="-2.521617000">
        <ele>501.20</ele>
        <time>2015-01-17T07:40:38Z</time>
      </trkpt>
      <trkpt lat="42.439243000" lon="-2.521645000">
        <ele>501.30</ele>
        <time>2015-01-17T07:40:39Z</time>
      </trkpt>
      <trkpt lat="42.439249000" lon="-2.521671000">
        <ele>501.50</ele>
        <time>2015-01-17T07:40:40Z</time>
      </trkpt>
      <trkpt lat="42.439254000" lon="-2.521693000">
        <ele>501.70</ele>
        <time>2015-01-17T07:40:41Z</time>
      </trkpt>
      <trkpt lat="42.439263000" lon="-2.521720000">
        <ele>501.90</ele>
        <time>2015-01-17T07:40:42Z</time>
      </trkpt>
      <trkpt lat="42.439271000" lon="-2.521745000">
        <ele>502.10</ele>
        <time>2015-01-17T07:40:43Z</time>
      </trkpt>
      <trkpt lat="42.439279000" lon="-2.521768000">
        <ele>502.20</ele>
        <time>2015-01-17T07:40:44Z</time>
      </trkpt>
      <trkpt lat="42.439284000" lon="-2.521793000">
        <ele>502.30</ele>
        <time>2015-01-17T07:40:45Z</time>
      </trkpt>
      <trkpt lat="42.439290000" lon="-2.521823000">
        <ele>502.40</ele>
        <time>2015-01-17T07:40:46Z</time>
      </trkpt>
      <trkpt lat="42.439303000" lon="-2.521847000">
        <ele>502.40</ele>
        <time>2015-01-17T07:40:47Z</time>
      </trkpt>
      <trkpt lat="42.439312000" lon="-2.521875000">
        <ele>502.50</ele>
        <time>2015-01-17T07:40:48Z</time>
      </trkpt>
      <trkpt lat="42.439317000" lon="-2.521903000">
        <ele>502.50</ele>
        <time>2015-01-17T07:40:49Z</time>
      </trkpt>
      <trkpt lat="42.439322000" lon="-2.521926000">
        <ele>502.60</ele>
        <time>2015-01-17T07:40:50Z</time>
      </trkpt>
      <trkpt lat="42.439330000" lon="-2.521955000">
        <ele>502.80</ele>
        <time>2015-01-17T07:40:51Z</time>
      </trkpt>
      <trkpt lat="42.439331000" lon="-2.521983000">
        <ele>503.00</ele>
        <time>2015-01-17T07:40:52Z</time>
      </trkpt>
      <trkpt lat="42.439337000" lon="-2.522010000">
        <ele>503.10</ele>
        <time>2015-01-17T07:40:53Z</time>
      </trkpt>
      <trkpt lat="42.439345000" lon="-2.522038000">
        <ele>503.30</ele>
        <time>2015-01-17T07:40:54Z</time>
      </trkpt>
      <trkpt lat="42.439350000" lon="-2.522065000">
        <ele>503.40</ele>
        <time>2015-01-17T07:40:55Z</time>
      </trkpt>
      <trkpt lat="42.439354000" lon="-2.522087000">
        <ele>503.90</ele>
        <time>2015-01-17T07:40:56Z</time>
      </trkpt>
      <trkpt lat="42.439361000" lon="-2.522107000">
        <ele>504.20</ele>
        <time>2015-01-17T07:40:57Z</time>
      </trkpt>
      <trkpt lat="42.439368000" lon="-2.522127000">
        <ele>504.50</ele>
        <time>2015-01-17T07:40:58Z</time>
      </trkpt>
      <trkpt lat="42.439373000" lon="-2.522149000">
        <ele>504.70</ele>
        <time>2015-01-17T07:40:59Z</time>
      </trkpt>
      <trkpt lat="42.439379000" lon="-2.522180000">
        <ele>504.80</ele>
        <time>2015-01-17T07:41:00Z</time>
      </trkpt>
      <trkpt lat="42.439387000" lon="-2.522206000">
        <ele>504.90</ele>
        <time>2015-01-17T07:41:01Z</time>
      </trkpt>
      <trkpt lat="42.439391000" lon="-2.522237000">
        <ele>505.00</ele>
        <time>2015-01-17T07:41:02Z</time>
      </trkpt>
      <trkpt lat="42.439397000" lon="-2.522261000">
        <ele>505.00</ele>
        <time>2015-01-17T07:41:03Z</time>
      </trkpt>
      <trkpt lat="42.439406000" lon="-2.522286000">
        <ele>505.10</ele>
        <time>2015-01-17T07:41:04Z</time>
      </trkpt>
      <trkpt lat="42.439416000" lon="-2.522312000">
        <ele>505.20</ele>
        <time>2015-01-17T07:41:05Z</time>
      </trkpt>
      <trkpt lat="42.439425000" lon="-2.522340000">
        <ele>505.30</ele>
        <time>2015-01-17T07:41:06Z</time>
      </trkpt>
      <trkpt lat="42.439432000" lon="-2.522367000">
        <ele>505.30</ele>
        <time>2015-01-17T07:41:07Z</time>
      </trkpt>
      <trkpt lat="42.439437000" lon="-2.522395000">
        <ele>505.50</ele>
        <time>2015-01-17T07:41:08Z</time>
      </trkpt>
      <trkpt lat="42.439459000" lon="-2.522448000">
        <ele>505.70</ele>
        <time>2015-01-17T07:41:10Z</time>
      </trkpt>
      <trkpt lat="42.439472000" lon="-2.522474000">
        <ele>505.80</ele>
        <time>2015-01-17T07:41:11Z</time>
      </trkpt>
      <trkpt lat="42.439483000" lon="-2.522496000">
        <ele>505.90</ele>
        <time>2015-01-17T07:41:12Z</time>
      </trkpt>
      <trkpt lat="42.439497000" lon="-2.522523000">
        <ele>506.00</ele>
        <time>2015-01-17T07:41:13Z</time>
      </trkpt>
      <trkpt lat="42.439509000" lon="-2.522550000">
        <ele>506.10</ele>
        <time>2015-01-17T07:41:14Z</time>
      </trkpt>
      <trkpt lat="42.439521000" lon="-2.522573000">
        <ele>506.20</ele>
        <time>2015-01-17T07:41:15Z</time>
      </trkpt>
      <trkpt lat="42.439533000" lon="-2.522597000">
        <ele>506.30</ele>
        <time>2015-01-17T07:41:16Z</time>
      </trkpt>
      <trkpt lat="42.439546000" lon="-2.522622000">
        <ele>506.40</ele>
        <time>2015-01-17T07:41:17Z</time>
      </trkpt>
      <trkpt lat="42.439559000" lon="-2.522651000">
        <ele>506.60</ele>
        <time>2015-01-17T07:41:18Z</time>
      </trkpt>
      <trkpt lat="42.439569000" lon="-2.522682000">
        <ele>506.80</ele>
        <time>2015-01-17T07:41:19Z</time>
      </trkpt>
      <trkpt lat="42.439580000" lon="-2.522712000">
        <ele>506.90</ele>
        <time>2015-01-17T07:41:20Z</time>
      </trkpt>
      <trkpt lat="42.439591000" lon="-2.522739000">
        <ele>507.00</ele>
        <time>2015-01-17T07:41:21Z</time>
      </trkpt>
      <trkpt lat="42.439604000" lon="-2.522767000">
        <ele>507.10</ele>
        <time>2015-01-17T07:41:22Z</time>
      </trkpt>
      <trkpt lat="42.439616000" lon="-2.522796000">
        <ele>507.10</ele>
        <time>2015-01-17T07:41:23Z</time>
      </trkpt>
      <trkpt lat="42.439629000" lon="-2.522820000">
        <ele>507.40</ele>
        <time>2015-01-17T07:41:24Z</time>
      </trkpt>
      <trkpt lat="42.439641000" lon="-2.522844000">
        <ele>507.60</ele>
        <time>2015-01-17T07:41:25Z</time>
      </trkpt>
      <trkpt lat="42.439653000" lon="-2.522868000">
        <ele>507.80</ele>
        <time>2015-01-17T07:41:26Z</time>
      </trkpt>
      <trkpt lat="42.439667000" lon="-2.522891000">
        <ele>507.90</ele>
        <time>2015-01-17T07:41:27Z</time>
      </trkpt>
      <trkpt lat="42.439680000" lon="-2.522916000">
        <ele>508.10</ele>
        <time>2015-01-17T07:41:28Z</time>
      </trkpt>
      <trkpt lat="42.439694000" lon="-2.522941000">
        <ele>508.30</ele>
        <time>2015-01-17T07:41:29Z</time>
      </trkpt>
      <trkpt lat="42.439708000" lon="-2.522960000">
        <ele>508.40</ele>
        <time>2015-01-17T07:41:30Z</time>
      </trkpt>
      <trkpt lat="42.439724000" lon="-2.522978000">
        <ele>508.50</ele>
        <time>2015-01-17T07:41:31Z</time>
      </trkpt>
      <trkpt lat="42.439739000" lon="-2.523001000">
        <ele>508.60</ele>
        <time>2015-01-17T07:41:32Z</time>
      </trkpt>
      <trkpt lat="42.439753000" lon="-2.523025000">
        <ele>508.70</ele>
        <time>2015-01-17T07:41:33Z</time>
      </trkpt>
      <trkpt lat="42.439770000" lon="-2.523053000">
        <ele>508.90</ele>
        <time>2015-01-17T07:41:34Z</time>
      </trkpt>
      <trkpt lat="42.439789000" lon="-2.523078000">
        <ele>509.10</ele>
        <time>2015-01-17T07:41:35Z</time>
      </trkpt>
      <trkpt lat="42.439803000" lon="-2.523099000">
        <ele>509.70</ele>
        <time>2015-01-17T07:41:36Z</time>
      </trkpt>
      <trkpt lat="42.439819000" lon="-2.523124000">
        <ele>510.10</ele>
        <time>2015-01-17T07:41:37Z</time>
      </trkpt>
      <trkpt lat="42.439834000" lon="-2.523148000">
        <ele>510.50</ele>
        <time>2015-01-17T07:41:38Z</time>
      </trkpt>
      <trkpt lat="42.439849000" lon="-2.523171000">
        <ele>510.70</ele>
        <time>2015-01-17T07:41:39Z</time>
      </trkpt>
      <trkpt lat="42.439863000" lon="-2.523196000">
        <ele>510.80</ele>
        <time>2015-01-17T07:41:40Z</time>
      </trkpt>
      <trkpt lat="42.439877000" lon="-2.523224000">
        <ele>510.80</ele>
        <time>2015-01-17T07:41:41Z</time>
      </trkpt>
      <trkpt lat="42.439891000" lon="-2.523248000">
        <ele>510.90</ele>
        <time>2015-01-17T07:41:42Z</time>
      </trkpt>
      <trkpt lat="42.439903000" lon="-2.523273000">
        <ele>510.90</ele>
        <time>2015-01-17T07:41:43Z</time>
      </trkpt>
      <trkpt lat="42.439915000" lon="-2.523299000">
        <ele>511.00</ele>
        <time>2015-01-17T07:41:44Z</time>
      </trkpt>
      <trkpt lat="42.439925000" lon="-2.523326000">
        <ele>511.10</ele>
        <time>2015-01-17T07:41:45Z</time>
      </trkpt>
      <trkpt lat="42.439935000" lon="-2.523353000">
        <ele>511.20</ele>
        <time>2015-01-17T07:41:46Z</time>
      </trkpt>
      <trkpt lat="42.439945000" lon="-2.523381000">
        <ele>511.30</ele>
        <time>2015-01-17T07:41:47Z</time>
      </trkpt>
      <trkpt lat="42.439954000" lon="-2.523407000">
        <ele>511.30</ele>
        <time>2015-01-17T07:41:48Z</time>
      </trkpt>
      <trkpt lat="42.439965000" lon="-2.523441000">
        <ele>511.40</ele>
        <time>2015-01-17T07:41:49Z</time>
      </trkpt>
      <trkpt lat="42.439977000" lon="-2.523475000">
        <ele>511.70</ele>
        <time>2015-01-17T07:41:50Z</time>
      </trkpt>
      <trkpt lat="42.439990000" lon="-2.523508000">
        <ele>512.00</ele>
        <time>2015-01-17T07:41:51Z</time>
      </trkpt>
      <trkpt lat="42.440001000" lon="-2.523539000">
        <ele>512.00</ele>
        <time>2015-01-17T07:41:52Z</time>
      </trkpt>
      <trkpt lat="42.440011000" lon="-2.523567000">
        <ele>512.10</ele>
        <time>2015-01-17T07:41:53Z</time>
      </trkpt>
      <trkpt lat="42.440021000" lon="-2.523598000">
        <ele>512.30</ele>
        <time>2015-01-17T07:41:54Z</time>
      </trkpt>
      <trkpt lat="42.440029000" lon="-2.523625000">
        <ele>512.40</ele>
        <time>2015-01-17T07:41:55Z</time>
      </trkpt>
      <trkpt lat="42.440037000" lon="-2.523657000">
        <ele>512.50</ele>
        <time>2015-01-17T07:41:56Z</time>
      </trkpt>
      <trkpt lat="42.440043000" lon="-2.523689000">
        <ele>512.50</ele>
        <time>2015-01-17T07:41:57Z</time>
      </trkpt>
      <trkpt lat="42.440052000" lon="-2.523721000">
        <ele>512.60</ele>
        <time>2015-01-17T07:41:58Z</time>
      </trkpt>
      <trkpt lat="42.440059000" lon="-2.523752000">
        <ele>512.60</ele>
        <time>2015-01-17T07:41:59Z</time>
      </trkpt>
      <trkpt lat="42.440066000" lon="-2.523785000">
        <ele>512.60</ele>
        <time>2015-01-17T07:42:00Z</time>
      </trkpt>
      <trkpt lat="42.440072000" lon="-2.523813000">
        <ele>512.70</ele>
        <time>2015-01-17T07:42:01Z</time>
      </trkpt>
      <trkpt lat="42.440075000" lon="-2.523848000">
        <ele>512.70</ele>
        <time>2015-01-17T07:42:02Z</time>
      </trkpt>
      <trkpt lat="42.440076000" lon="-2.523879000">
        <ele>512.70</ele>
        <time>2015-01-17T07:42:03Z</time>
      </trkpt>
      <trkpt lat="42.440076000" lon="-2.523907000">
        <ele>512.80</ele>
        <time>2015-01-17T07:42:04Z</time>
      </trkpt>
      <trkpt lat="42.440076000" lon="-2.523939000">
        <ele>512.90</ele>
        <time>2015-01-17T07:42:05Z</time>
      </trkpt>
      <trkpt lat="42.440072000" lon="-2.523972000">
        <ele>513.00</ele>
        <time>2015-01-17T07:42:06Z</time>
      </trkpt>
      <trkpt lat="42.440069000" lon="-2.523999000">
        <ele>513.10</ele>
        <time>2015-01-17T07:42:07Z</time>
      </trkpt>
      <trkpt lat="42.440060000" lon="-2.524024000">
        <ele>513.10</ele>
        <time>2015-01-17T07:42:08Z</time>
      </trkpt>
      <trkpt lat="42.440055000" lon="-2.524053000">
        <ele>513.10</ele>
        <time>2015-01-17T07:42:09Z</time>
      </trkpt>
      <trkpt lat="42.440048000" lon="-2.524111000">
        <ele>513.60</ele>
        <time>2015-01-17T07:42:11Z</time>
      </trkpt>
      <trkpt lat="42.440041000" lon="-2.524143000">
        <ele>513.80</ele>
        <time>2015-01-17T07:42:12Z</time>
      </trkpt>
      <trkpt lat="42.440035000" lon="-2.524172000">
        <ele>513.90</ele>
        <time>2015-01-17T07:42:13Z</time>
      </trkpt>
      <trkpt lat="42.440027000" lon="-2.524204000">
        <ele>514.20</ele>
        <time>2015-01-17T07:42:14Z</time>
      </trkpt>
      <trkpt lat="42.440019000" lon="-2.524235000">
        <ele>514.50</ele>
        <time>2015-01-17T07:42:15Z</time>
      </trkpt>
      <trkpt lat="42.440013000" lon="-2.524266000">
        <ele>514.70</ele>
        <time>2015-01-17T07:42:16Z</time>
      </trkpt>
      <trkpt lat="42.440005000" lon="-2.524296000">
        <ele>514.80</ele>
        <time>2015-01-17T07:42:17Z</time>
      </trkpt>
      <trkpt lat="42.439999000" lon="-2.524325000">
        <ele>515.10</ele>
        <time>2015-01-17T07:42:18Z</time>
      </trkpt>
      <trkpt lat="42.439993000" lon="-2.524353000">
        <ele>515.20</ele>
        <time>2015-01-17T07:42:19Z</time>
      </trkpt>
      <trkpt lat="42.439986000" lon="-2.524383000">
        <ele>515.40</ele>
        <time>2015-01-17T07:42:20Z</time>
      </trkpt>
      <trkpt lat="42.439980000" lon="-2.524413000">
        <ele>515.60</ele>
        <time>2015-01-17T07:42:21Z</time>
      </trkpt>
      <trkpt lat="42.439973000" lon="-2.524446000">
        <ele>515.70</ele>
        <time>2015-01-17T07:42:22Z</time>
      </trkpt>
      <trkpt lat="42.439968000" lon="-2.524475000">
        <ele>515.80</ele>
        <time>2015-01-17T07:42:23Z</time>
      </trkpt>
      <trkpt lat="42.439964000" lon="-2.524510000">
        <ele>515.80</ele>
        <time>2015-01-17T07:42:24Z</time>
      </trkpt>
      <trkpt lat="42.439957000" lon="-2.524539000">
        <ele>515.90</ele>
        <time>2015-01-17T07:42:25Z</time>
      </trkpt>
      <trkpt lat="42.439954000" lon="-2.524571000">
        <ele>516.10</ele>
        <time>2015-01-17T07:42:26Z</time>
      </trkpt>
      <trkpt lat="42.439948000" lon="-2.524600000">
        <ele>516.30</ele>
        <time>2015-01-17T07:42:27Z</time>
      </trkpt>
      <trkpt lat="42.439943000" lon="-2.524626000">
        <ele>516.60</ele>
        <time>2015-01-17T07:42:28Z</time>
      </trkpt>
      <trkpt lat="42.439940000" lon="-2.524653000">
        <ele>516.80</ele>
        <time>2015-01-17T07:42:29Z</time>
      </trkpt>
      <trkpt lat="42.439935000" lon="-2.524682000">
        <ele>517.00</ele>
        <time>2015-01-17T07:42:30Z</time>
      </trkpt>
      <trkpt lat="42.439933000" lon="-2.524710000">
        <ele>517.20</ele>
        <time>2015-01-17T07:42:31Z</time>
      </trkpt>
      <trkpt lat="42.439930000" lon="-2.524737000">
        <ele>517.40</ele>
        <time>2015-01-17T07:42:32Z</time>
      </trkpt>
      <trkpt lat="42.439924000" lon="-2.524763000">
        <ele>517.60</ele>
        <time>2015-01-17T07:42:33Z</time>
      </trkpt>
      <trkpt lat="42.439919000" lon="-2.524791000">
        <ele>518.00</ele>
        <time>2015-01-17T07:42:34Z</time>
      </trkpt>
      <trkpt lat="42.439911000" lon="-2.524815000">
        <ele>518.30</ele>
        <time>2015-01-17T07:42:35Z</time>
      </trkpt>
      <trkpt lat="42.439906000" lon="-2.524842000">
        <ele>518.50</ele>
        <time>2015-01-17T07:42:36Z</time>
      </trkpt>
      <trkpt lat="42.439902000" lon="-2.524872000">
        <ele>518.70</ele>
        <time>2015-01-17T07:42:37Z</time>
      </trkpt>
      <trkpt lat="42.439898000" lon="-2.524900000">
        <ele>518.70</ele>
        <time>2015-01-17T07:42:38Z</time>
      </trkpt>
      <trkpt lat="42.439895000" lon="-2.524928000">
        <ele>518.80</ele>
        <time>2015-01-17T07:42:39Z</time>
      </trkpt>
      <trkpt lat="42.439893000" lon="-2.524958000">
        <ele>518.80</ele>
        <time>2015-01-17T07:42:40Z</time>
      </trkpt>
      <trkpt lat="42.439890000" lon="-2.524986000">
        <ele>518.80</ele>
        <time>2015-01-17T07:42:41Z</time>
      </trkpt>
      <trkpt lat="42.439887000" lon="-2.525011000">
        <ele>518.90</ele>
        <time>2015-01-17T07:42:42Z</time>
      </trkpt>
      <trkpt lat="42.439883000" lon="-2.525038000">
        <ele>519.00</ele>
        <time>2015-01-17T07:42:43Z</time>
      </trkpt>
      <trkpt lat="42.439881000" lon="-2.525064000">
        <ele>519.10</ele>
        <time>2015-01-17T07:42:44Z</time>
      </trkpt>
      <trkpt lat="42.439878000" lon="-2.525089000">
        <ele>519.30</ele>
        <time>2015-01-17T07:42:45Z</time>
      </trkpt>
      <trkpt lat="42.439875000" lon="-2.525115000">
        <ele>519.40</ele>
        <time>2015-01-17T07:42:46Z</time>
      </trkpt>
      <trkpt lat="42.439876000" lon="-2.525136000">
        <ele>519.40</ele>
        <time>2015-01-17T07:42:47Z</time>
      </trkpt>
      <trkpt lat="42.439876000" lon="-2.525162000">
        <ele>519.70</ele>
        <time>2015-01-17T07:42:48Z</time>
      </trkpt>
      <trkpt lat="42.439876000" lon="-2.525183000">
        <ele>519.90</ele>
        <time>2015-01-17T07:42:49Z</time>
      </trkpt>
      <trkpt lat="42.439874000" lon="-2.525209000">
        <ele>520.00</ele>
        <time>2015-01-17T07:42:50Z</time>
      </trkpt>
      <trkpt lat="42.439875000" lon="-2.525233000">
        <ele>520.10</ele>
        <time>2015-01-17T07:42:51Z</time>
      </trkpt>
      <trkpt lat="42.439874000" lon="-2.525255000">
        <ele>520.20</ele>
        <time>2015-01-17T07:42:52Z</time>
      </trkpt>
      <trkpt lat="42.439872000" lon="-2.525278000">
        <ele>520.30</ele>
        <time>2015-01-17T07:42:53Z</time>
      </trkpt>
      <trkpt lat="42.439871000" lon="-2.525301000">
        <ele>520.20</ele>
        <time>2015-01-17T07:42:54Z</time>
      </trkpt>
      <trkpt lat="42.439868000" lon="-2.525322000">
        <ele>520.10</ele>
        <time>2015-01-17T07:42:55Z</time>
      </trkpt>
      <trkpt lat="42.439866000" lon="-2.525345000">
        <ele>520.10</ele>
        <time>2015-01-17T07:42:56Z</time>
      </trkpt>
      <trkpt lat="42.439863000" lon="-2.525364000">
        <ele>520.00</ele>
        <time>2015-01-17T07:42:57Z</time>
      </trkpt>
      <trkpt lat="42.439861000" lon="-2.525383000">
        <ele>520.00</ele>
        <time>2015-01-17T07:42:58Z</time>
      </trkpt>
      <trkpt lat="42.439857000" lon="-2.525404000">
        <ele>520.00</ele>
        <time>2015-01-17T07:42:59Z</time>
      </trkpt>
      <trkpt lat="42.439858000" lon="-2.525426000">
        <ele>520.10</ele>
        <time>2015-01-17T07:43:00Z</time>
      </trkpt>
      <trkpt lat="42.439856000" lon="-2.525449000">
        <ele>520.30</ele>
        <time>2015-01-17T07:43:01Z</time>
      </trkpt>
      <trkpt lat="42.439855000" lon="-2.525470000">
        <ele>520.30</ele>
        <time>2015-01-17T07:43:02Z</time>
      </trkpt>
      <trkpt lat="42.439854000" lon="-2.525493000">
        <ele>520.30</ele>
        <time>2015-01-17T07:43:03Z</time>
      </trkpt>
      <trkpt lat="42.439851000" lon="-2.525519000">
        <ele>520.40</ele>
        <time>2015-01-17T07:43:04Z</time>
      </trkpt>
      <trkpt lat="42.439848000" lon="-2.525543000">
        <ele>520.40</ele>
        <time>2015-01-17T07:43:05Z</time>
      </trkpt>
      <trkpt lat="42.439847000" lon="-2.525565000">
        <ele>520.20</ele>
        <time>2015-01-17T07:43:06Z</time>
      </trkpt>
      <trkpt lat="42.439849000" lon="-2.525588000">
        <ele>520.10</ele>
        <time>2015-01-17T07:43:07Z</time>
      </trkpt>
      <trkpt lat="42.439850000" lon="-2.525614000">
        <ele>520.00</ele>
        <time>2015-01-17T07:43:08Z</time>
      </trkpt>
      <trkpt lat="42.439849000" lon="-2.525640000">
        <ele>519.90</ele>
        <time>2015-01-17T07:43:09Z</time>
      </trkpt>
      <trkpt lat="42.439850000" lon="-2.525669000">
        <ele>519.70</ele>
        <time>2015-01-17T07:43:10Z</time>
      </trkpt>
      <trkpt lat="42.439843000" lon="-2.525723000">
        <ele>519.70</ele>
        <time>2015-01-17T07:43:12Z</time>
      </trkpt>
      <trkpt lat="42.439843000" lon="-2.525751000">
        <ele>519.70</ele>
        <time>2015-01-17T07:43:13Z</time>
      </trkpt>
      <trkpt lat="42.439843000" lon="-2.525776000">
        <ele>519.50</ele>
        <time>2015-01-17T07:43:14Z</time>
      </trkpt>
      <trkpt lat="42.439844000" lon="-2.525799000">
        <ele>519.40</ele>
        <time>2015-01-17T07:43:15Z</time>
      </trkpt>
      <trkpt lat="42.439844000" lon="-2.525824000">
        <ele>519.20</ele>
        <time>2015-01-17T07:43:16Z</time>
      </trkpt>
      <trkpt lat="42.439843000" lon="-2.525851000">
        <ele>519.20</ele>
        <time>2015-01-17T07:43:17Z</time>
      </trkpt>
      <trkpt lat="42.439840000" lon="-2.525878000">
        <ele>519.10</ele>
        <time>2015-01-17T07:43:18Z</time>
      </trkpt>
      <trkpt lat="42.439834000" lon="-2.525906000">
        <ele>519.00</ele>
        <time>2015-01-17T07:43:19Z</time>
      </trkpt>
      <trkpt lat="42.439832000" lon="-2.525932000">
        <ele>519.00</ele>
        <time>2015-01-17T07:43:20Z</time>
      </trkpt>
      <trkpt lat="42.439831000" lon="-2.525958000">
        <ele>519.00</ele>
        <time>2015-01-17T07:43:21Z</time>
      </trkpt>
      <trkpt lat="42.439831000" lon="-2.525985000">
        <ele>519.00</ele>
        <time>2015-01-17T07:43:22Z</time>
      </trkpt>
      <trkpt lat="42.439830000" lon="-2.526009000">
        <ele>519.00</ele>
        <time>2015-01-17T07:43:23Z</time>
      </trkpt>
      <trkpt lat="42.439827000" lon="-2.526037000">
        <ele>519.10</ele>
        <time>2015-01-17T07:43:24Z</time>
      </trkpt>
      <trkpt lat="42.439824000" lon="-2.526065000">
        <ele>519.10</ele>
        <time>2015-01-17T07:43:25Z</time>
      </trkpt>
      <trkpt lat="42.439821000" lon="-2.526094000">
        <ele>519.00</ele>
        <time>2015-01-17T07:43:26Z</time>
      </trkpt>
      <trkpt lat="42.439819000" lon="-2.526124000">
        <ele>519.00</ele>
        <time>2015-01-17T07:43:27Z</time>
      </trkpt>
      <trkpt lat="42.439816000" lon="-2.526154000">
        <ele>519.00</ele>
        <time>2015-01-17T07:43:28Z</time>
      </trkpt>
      <trkpt lat="42.439812000" lon="-2.526185000">
        <ele>519.00</ele>
        <time>2015-01-17T07:43:29Z</time>
      </trkpt>
      <trkpt lat="42.439811000" lon="-2.526216000">
        <ele>518.90</ele>
        <time>2015-01-17T07:43:30Z</time>
      </trkpt>
      <trkpt lat="42.439810000" lon="-2.526247000">
        <ele>518.90</ele>
        <time>2015-01-17T07:43:31Z</time>
      </trkpt>
      <trkpt lat="42.439807000" lon="-2.526277000">
        <ele>518.90</ele>
        <time>2015-01-17T07:43:32Z</time>
      </trkpt>
      <trkpt lat="42.439801000" lon="-2.526305000">
        <ele>518.90</ele>
        <time>2015-01-17T07:43:33Z</time>
      </trkpt>
      <trkpt lat="42.439800000" lon="-2.526334000">
        <ele>519.00</ele>
        <time>2015-01-17T07:43:34Z</time>
      </trkpt>
      <trkpt lat="42.439800000" lon="-2.526361000">
        <ele>519.00</ele>
        <time>2015-01-17T07:43:35Z</time>
      </trkpt>
      <trkpt lat="42.439799000" lon="-2.526391000">
        <ele>519.00</ele>
        <time>2015-01-17T07:43:36Z</time>
      </trkpt>
      <trkpt lat="42.439797000" lon="-2.526413000">
        <ele>519.10</ele>
        <time>2015-01-17T07:43:37Z</time>
      </trkpt>
      <trkpt lat="42.439797000" lon="-2.526439000">
        <ele>519.10</ele>
        <time>2015-01-17T07:43:38Z</time>
      </trkpt>
      <trkpt lat="42.439796000" lon="-2.526461000">
        <ele>519.10</ele>
        <time>2015-01-17T07:43:39Z</time>
      </trkpt>
      <trkpt lat="42.439795000" lon="-2.526484000">
        <ele>519.10</ele>
        <time>2015-01-17T07:43:40Z</time>
      </trkpt>
      <trkpt lat="42.439794000" lon="-2.526508000">
        <ele>519.10</ele>
        <time>2015-01-17T07:43:41Z</time>
      </trkpt>
      <trkpt lat="42.439794000" lon="-2.526534000">
        <ele>518.90</ele>
        <time>2015-01-17T07:43:42Z</time>
      </trkpt>
      <trkpt lat="42.439793000" lon="-2.526560000">
        <ele>518.80</ele>
        <time>2015-01-17T07:43:43Z</time>
      </trkpt>
      <trkpt lat="42.439787000" lon="-2.526586000">
        <ele>518.70</ele>
        <time>2015-01-17T07:43:44Z</time>
      </trkpt>
      <trkpt lat="42.439787000" lon="-2.526607000">
        <ele>518.60</ele>
        <time>2015-01-17T07:43:45Z</time>
      </trkpt>
      <trkpt lat="42.439788000" lon="-2.526630000">
        <ele>518.50</ele>
        <time>2015-01-17T07:43:46Z</time>
      </trkpt>
      <trkpt lat="42.439784000" lon="-2.526653000">
        <ele>518.50</ele>
        <time>2015-01-17T07:43:47Z</time>
      </trkpt>
      <trkpt lat="42.439780000" lon="-2.526677000">
        <ele>518.50</ele>
        <time>2015-01-17T07:43:48Z</time>
      </trkpt>
      <trkpt lat="42.439776000" lon="-2.526683000">
        <ele>518.40</ele>
        <time>2015-01-17T07:43:49Z</time>
      </trkpt>
      <trkpt lat="42.439772000" lon="-2.526689000">
        <ele>518.40</ele>
        <time>2015-01-17T07:43:50Z</time>
      </trkpt>
      <trkpt lat="42.439771000" lon="-2.526694000">
        <ele>518.40</ele>
        <time>2015-01-17T07:43:51Z</time>
      </trkpt>
      <trkpt lat="42.439768000" lon="-2.526694000">
        <ele>518.30</ele>
        <time>2015-01-17T07:43:52Z</time>
      </trkpt>
      <trkpt lat="42.439768000" lon="-2.526694000">
        <ele>518.30</ele>
        <time>2015-01-17T07:43:53Z</time>
      </trkpt>
      <trkpt lat="42.439768000" lon="-2.526689000">
        <ele>518.20</ele>
        <time>2015-01-17T07:43:54Z</time>
      </trkpt>
      <trkpt lat="42.439769000" lon="-2.526690000">
        <ele>518.20</ele>
        <time>2015-01-17T07:43:55Z</time>
      </trkpt>
      <trkpt lat="42.439771000" lon="-2.526692000">
        <ele>518.20</ele>
        <time>2015-01-17T07:43:56Z</time>
      </trkpt>
      <trkpt lat="42.439774000" lon="-2.526694000">
        <ele>518.30</ele>
        <time>2015-01-17T07:43:57Z</time>
      </trkpt>
      <trkpt lat="42.439776000" lon="-2.526691000">
        <ele>518.40</ele>
        <time>2015-01-17T07:43:58Z</time>
      </trkpt>
      <trkpt lat="42.439781000" lon="-2.526693000">
        <ele>518.50</ele>
        <time>2015-01-17T07:43:59Z</time>
      </trkpt>
      <trkpt lat="42.439784000" lon="-2.526694000">
        <ele>518.70</ele>
        <time>2015-01-17T07:44:00Z</time>
      </trkpt>
      <trkpt lat="42.439785000" lon="-2.526695000">
        <ele>518.80</ele>
        <time>2015-01-17T07:44:01Z</time>
      </trkpt>
      <trkpt lat="42.439786000" lon="-2.526691000">
        <ele>518.80</ele>
        <time>2015-01-17T07:44:02Z</time>
      </trkpt>
      <trkpt lat="42.439788000" lon="-2.526692000">
        <ele>518.80</ele>
        <time>2015-01-17T07:44:03Z</time>
      </trkpt>
      <trkpt lat="42.439789000" lon="-2.526693000">
        <ele>518.90</ele>
        <time>2015-01-17T07:44:04Z</time>
      </trkpt>
      <trkpt lat="42.439788000" lon="-2.526693000">
        <ele>518.90</ele>
        <time>2015-01-17T07:44:05Z</time>
      </trkpt>
      <trkpt lat="42.439786000" lon="-2.526694000">
        <ele>518.90</ele>
        <time>2015-01-17T07:44:06Z</time>
      </trkpt>
      <trkpt lat="42.439785000" lon="-2.526692000">
        <ele>518.90</ele>
        <time>2015-01-17T07:44:07Z</time>
      </trkpt>
      <trkpt lat="42.439785000" lon="-2.526689000">
        <ele>518.90</ele>
        <time>2015-01-17T07:44:08Z</time>
      </trkpt>
      <trkpt lat="42.439783000" lon="-2.526686000">
        <ele>518.90</ele>
        <time>2015-01-17T07:44:09Z</time>
      </trkpt>
      <trkpt lat="42.439782000" lon="-2.526682000">
        <ele>518.70</ele>
        <time>2015-01-17T07:44:10Z</time>
      </trkpt>
      <trkpt lat="42.439781000" lon="-2.526686000">
        <ele>518.70</ele>
        <time>2015-01-17T07:44:11Z</time>
      </trkpt>
      <trkpt lat="42.439775000" lon="-2.526704000">
        <ele>518.40</ele>
        <time>2015-01-17T07:44:13Z</time>
      </trkpt>
      <trkpt lat="42.439776000" lon="-2.526717000">
        <ele>518.20</ele>
        <time>2015-01-17T07:44:14Z</time>
      </trkpt>
      <trkpt lat="42.439777000" lon="-2.526735000">
        <ele>518.10</ele>
        <time>2015-01-17T07:44:15Z</time>
      </trkpt>
      <trkpt lat="42.439776000" lon="-2.526762000">
        <ele>518.00</ele>
        <time>2015-01-17T07:44:16Z</time>
      </trkpt>
      <trkpt lat="42.439773000" lon="-2.526803000">
        <ele>517.90</ele>
        <time>2015-01-17T07:44:17Z</time>
      </trkpt>
      <trkpt lat="42.439773000" lon="-2.526864000">
        <ele>517.80</ele>
        <time>2015-01-17T07:44:18Z</time>
      </trkpt>
      <trkpt lat="42.439771000" lon="-2.526936000">
        <ele>517.70</ele>
        <time>2015-01-17T07:44:19Z</time>
      </trkpt>
      <trkpt lat="42.439770000" lon="-2.527006000">
        <ele>517.90</ele>
        <time>2015-01-17T07:44:20Z</time>
      </trkpt>
      <trkpt lat="42.439769000" lon="-2.527084000">
        <ele>518.00</ele>
        <time>2015-01-17T07:44:21Z</time>
      </trkpt>
      <trkpt lat="42.439766000" lon="-2.527169000">
        <ele>517.70</ele>
        <time>2015-01-17T07:44:22Z</time>
      </trkpt>
      <trkpt lat="42.439762000" lon="-2.527263000">
        <ele>517.50</ele>
        <time>2015-01-17T07:44:23Z</time>
      </trkpt>
      <trkpt lat="42.439758000" lon="-2.527359000">
        <ele>517.40</ele>
        <time>2015-01-17T07:44:24Z</time>
      </trkpt>
      <trkpt lat="42.439748000" lon="-2.527461000">
        <ele>517.20</ele>
        <time>2015-01-17T07:44:25Z</time>
      </trkpt>
      <trkpt lat="42.439739000" lon="-2.527568000">
        <ele>516.70</ele>
        <time>2015-01-17T07:44:26Z</time>
      </trkpt>
      <trkpt lat="42.439729000" lon="-2.527675000">
        <ele>516.40</ele>
        <time>2015-01-17T07:44:27Z</time>
      </trkpt>
      <trkpt lat="42.439720000" lon="-2.527780000">
        <ele>515.80</ele>
        <time>2015-01-17T07:44:28Z</time>
      </trkpt>
      <trkpt lat="42.439708000" lon="-2.527881000">
        <ele>515.30</ele>
        <time>2015-01-17T07:44:29Z</time>
      </trkpt>
      <trkpt lat="42.439695000" lon="-2.527981000">
        <ele>514.70</ele>
        <time>2015-01-17T07:44:30Z</time>
      </trkpt>
      <trkpt lat="42.439685000" lon="-2.528079000">
        <ele>514.30</ele>
        <time>2015-01-17T07:44:31Z</time>
      </trkpt>
      <trkpt lat="42.439674000" lon="-2.528168000">
        <ele>513.70</ele>
        <time>2015-01-17T07:44:32Z</time>
      </trkpt>
      <trkpt lat="42.439661000" lon="-2.528251000">
        <ele>513.40</ele>
        <time>2015-01-17T07:44:33Z</time>
      </trkpt>
      <trkpt lat="42.439651000" lon="-2.528332000">
        <ele>512.80</ele>
        <time>2015-01-17T07:44:34Z</time>
      </trkpt>
      <trkpt lat="42.439638000" lon="-2.528406000">
        <ele>512.40</ele>
        <time>2015-01-17T07:44:35Z</time>
      </trkpt>
      <trkpt lat="42.439628000" lon="-2.528478000">
        <ele>512.10</ele>
        <time>2015-01-17T07:44:36Z</time>
      </trkpt>
      <trkpt lat="42.439621000" lon="-2.528547000">
        <ele>511.90</ele>
        <time>2015-01-17T07:44:37Z</time>
      </trkpt>
      <trkpt lat="42.439613000" lon="-2.528614000">
        <ele>511.90</ele>
        <time>2015-01-17T07:44:38Z</time>
      </trkpt>
      <trkpt lat="42.439603000" lon="-2.528679000">
        <ele>511.90</ele>
        <time>2015-01-17T07:44:39Z</time>
      </trkpt>
      <trkpt lat="42.439592000" lon="-2.528754000">
        <ele>511.90</ele>
        <time>2015-01-17T07:44:40Z</time>
      </trkpt>
      <trkpt lat="42.439582000" lon="-2.528836000">
        <ele>511.90</ele>
        <time>2015-01-17T07:44:41Z</time>
      </trkpt>
      <trkpt lat="42.439574000" lon="-2.528928000">
        <ele>511.90</ele>
        <time>2015-01-17T07:44:42Z</time>
      </trkpt>
      <trkpt lat="42.439565000" lon="-2.529027000">
        <ele>511.90</ele>
        <time>2015-01-17T07:44:43Z</time>
      </trkpt>
      <trkpt lat="42.439548000" lon="-2.529127000">
        <ele>511.20</ele>
        <time>2015-01-17T07:44:44Z</time>
      </trkpt>
      <trkpt lat="42.439530000" lon="-2.529225000">
        <ele>510.60</ele>
        <time>2015-01-17T07:44:45Z</time>
      </trkpt>
      <trkpt lat="42.439510000" lon="-2.529315000">
        <ele>510.20</ele>
        <time>2015-01-17T07:44:46Z</time>
      </trkpt>
      <trkpt lat="42.439488000" lon="-2.529410000">
        <ele>509.90</ele>
        <time>2015-01-17T07:44:47Z</time>
      </trkpt>
      <trkpt lat="42.439470000" lon="-2.529506000">
        <ele>509.60</ele>
        <time>2015-01-17T07:44:48Z</time>
      </trkpt>
      <trkpt lat="42.439449000" lon="-2.529598000">
        <ele>509.30</ele>
        <time>2015-01-17T07:44:49Z</time>
      </trkpt>
      <trkpt lat="42.439431000" lon="-2.529690000">
        <ele>508.70</ele>
        <time>2015-01-17T07:44:50Z</time>
      </trkpt>
      <trkpt lat="42.439414000" lon="-2.529778000">
        <ele>508.20</ele>
        <time>2015-01-17T07:44:51Z</time>
      </trkpt>
      <trkpt lat="42.439397000" lon="-2.529867000">
        <ele>507.80</ele>
        <time>2015-01-17T07:44:52Z</time>
      </trkpt>
      <trkpt lat="42.439382000" lon="-2.529955000">
        <ele>507.40</ele>
        <time>2015-01-17T07:44:53Z</time>
      </trkpt>
      <trkpt lat="42.439367000" lon="-2.530045000">
        <ele>506.80</ele>
        <time>2015-01-17T07:44:54Z</time>
      </trkpt>
      <trkpt lat="42.439355000" lon="-2.530134000">
        <ele>506.40</ele>
        <time>2015-01-17T07:44:55Z</time>
      </trkpt>
      <trkpt lat="42.439341000" lon="-2.530221000">
        <ele>505.90</ele>
        <time>2015-01-17T07:44:56Z</time>
      </trkpt>
      <trkpt lat="42.439325000" lon="-2.530312000">
        <ele>505.50</ele>
        <time>2015-01-17T07:44:57Z</time>
      </trkpt>
      <trkpt lat="42.439305000" lon="-2.530403000">
        <ele>505.20</ele>
        <time>2015-01-17T07:44:58Z</time>
      </trkpt>
      <trkpt lat="42.439280000" lon="-2.530490000">
        <ele>505.00</ele>
        <time>2015-01-17T07:44:59Z</time>
      </trkpt>
      <trkpt lat="42.439250000" lon="-2.530575000">
        <ele>504.50</ele>
        <time>2015-01-17T07:45:00Z</time>
      </trkpt>
      <trkpt lat="42.439227000" lon="-2.530659000">
        <ele>504.10</ele>
        <time>2015-01-17T07:45:01Z</time>
      </trkpt>
      <trkpt lat="42.439202000" lon="-2.530746000">
        <ele>503.80</ele>
        <time>2015-01-17T07:45:02Z</time>
      </trkpt>
      <trkpt lat="42.439191000" lon="-2.530834000">
        <ele>503.60</ele>
        <time>2015-01-17T07:45:03Z</time>
      </trkpt>
      <trkpt lat="42.439173000" lon="-2.530917000">
        <ele>503.30</ele>
        <time>2015-01-17T07:45:04Z</time>
      </trkpt>
      <trkpt lat="42.439147000" lon="-2.530989000">
        <ele>503.10</ele>
        <time>2015-01-17T07:45:05Z</time>
      </trkpt>
      <trkpt lat="42.439129000" lon="-2.531062000">
        <ele>502.90</ele>
        <time>2015-01-17T07:45:06Z</time>
      </trkpt>
      <trkpt lat="42.439110000" lon="-2.531131000">
        <ele>502.80</ele>
        <time>2015-01-17T07:45:07Z</time>
      </trkpt>
      <trkpt lat="42.439098000" lon="-2.531197000">
        <ele>502.70</ele>
        <time>2015-01-17T07:45:08Z</time>
      </trkpt>
      <trkpt lat="42.439079000" lon="-2.531263000">
        <ele>502.60</ele>
        <time>2015-01-17T07:45:09Z</time>
      </trkpt>
      <trkpt lat="42.439063000" lon="-2.531329000">
        <ele>502.40</ele>
        <time>2015-01-17T07:45:10Z</time>
      </trkpt>
      <trkpt lat="42.439048000" lon="-2.531398000">
        <ele>502.30</ele>
        <time>2015-01-17T07:45:11Z</time>
      </trkpt>
      <trkpt lat="42.439032000" lon="-2.531467000">
        <ele>502.10</ele>
        <time>2015-01-17T07:45:12Z</time>
      </trkpt>
      <trkpt lat="42.438996000" lon="-2.531611000">
        <ele>501.80</ele>
        <time>2015-01-17T07:45:14Z</time>
      </trkpt>
      <trkpt lat="42.438975000" lon="-2.531681000">
        <ele>501.60</ele>
        <time>2015-01-17T07:45:15Z</time>
      </trkpt>
      <trkpt lat="42.438953000" lon="-2.531749000">
        <ele>501.50</ele>
        <time>2015-01-17T07:45:16Z</time>
      </trkpt>
      <trkpt lat="42.438933000" lon="-2.531816000">
        <ele>501.40</ele>
        <time>2015-01-17T07:45:17Z</time>
      </trkpt>
      <trkpt lat="42.438916000" lon="-2.531880000">
        <ele>501.40</ele>
        <time>2015-01-17T07:45:18Z</time>
      </trkpt>
      <trkpt lat="42.438903000" lon="-2.531942000">
        <ele>501.40</ele>
        <time>2015-01-17T07:45:19Z</time>
      </trkpt>
      <trkpt lat="42.438892000" lon="-2.532000000">
        <ele>501.40</ele>
        <time>2015-01-17T07:45:20Z</time>
      </trkpt>
      <trkpt lat="42.438886000" lon="-2.532058000">
        <ele>501.40</ele>
        <time>2015-01-17T07:45:21Z</time>
      </trkpt>
      <trkpt lat="42.438877000" lon="-2.532122000">
        <ele>501.40</ele>
        <time>2015-01-17T07:45:22Z</time>
      </trkpt>
      <trkpt lat="42.438871000" lon="-2.532188000">
        <ele>501.40</ele>
        <time>2015-01-17T07:45:23Z</time>
      </trkpt>
      <trkpt lat="42.438865000" lon="-2.532255000">
        <ele>501.40</ele>
        <time>2015-01-17T07:45:24Z</time>
      </trkpt>
      <trkpt lat="42.438858000" lon="-2.532323000">
        <ele>501.30</ele>
        <time>2015-01-17T07:45:25Z</time>
      </trkpt>
      <trkpt lat="42.438851000" lon="-2.532392000">
        <ele>501.40</ele>
        <time>2015-01-17T07:45:26Z</time>
      </trkpt>
      <trkpt lat="42.438848000" lon="-2.532461000">
        <ele>501.50</ele>
        <time>2015-01-17T07:45:27Z</time>
      </trkpt>
      <trkpt lat="42.438842000" lon="-2.532530000">
        <ele>501.40</ele>
        <time>2015-01-17T07:45:28Z</time>
      </trkpt>
      <trkpt lat="42.438838000" lon="-2.532598000">
        <ele>501.40</ele>
        <time>2015-01-17T07:45:29Z</time>
      </trkpt>
      <trkpt lat="42.438833000" lon="-2.532666000">
        <ele>501.20</ele>
        <time>2015-01-17T07:45:30Z</time>
      </trkpt>
      <trkpt lat="42.438827000" lon="-2.532731000">
        <ele>501.10</ele>
        <time>2015-01-17T07:45:31Z</time>
      </trkpt>
      <trkpt lat="42.438822000" lon="-2.532796000">
        <ele>500.80</ele>
        <time>2015-01-17T07:45:32Z</time>
      </trkpt>
      <trkpt lat="42.438811000" lon="-2.532860000">
        <ele>500.70</ele>
        <time>2015-01-17T07:45:33Z</time>
      </trkpt>
      <trkpt lat="42.438806000" lon="-2.532927000">
        <ele>500.50</ele>
        <time>2015-01-17T07:45:34Z</time>
      </trkpt>
      <trkpt lat="42.438807000" lon="-2.532988000">
        <ele>500.40</ele>
        <time>2015-01-17T07:45:35Z</time>
      </trkpt>
      <trkpt lat="42.438803000" lon="-2.533048000">
        <ele>500.50</ele>
        <time>2015-01-17T07:45:36Z</time>
      </trkpt>
      <trkpt lat="42.438801000" lon="-2.533110000">
        <ele>500.50</ele>
        <time>2015-01-17T07:45:37Z</time>
      </trkpt>
      <trkpt lat="42.438799000" lon="-2.533173000">
        <ele>500.50</ele>
        <time>2015-01-17T07:45:38Z</time>
      </trkpt>
      <trkpt lat="42.438796000" lon="-2.533235000">
        <ele>500.50</ele>
        <time>2015-01-17T07:45:39Z</time>
      </trkpt>
      <trkpt lat="42.438787000" lon="-2.533298000">
        <ele>500.20</ele>
        <time>2015-01-17T07:45:40Z</time>
      </trkpt>
      <trkpt lat="42.438776000" lon="-2.533364000">
        <ele>500.00</ele>
        <time>2015-01-17T07:45:41Z</time>
      </trkpt>
      <trkpt lat="42.438765000" lon="-2.533433000">
        <ele>499.70</ele>
        <time>2015-01-17T07:45:42Z</time>
      </trkpt>
      <trkpt lat="42.438753000" lon="-2.533504000">
        <ele>499.50</ele>
        <time>2015-01-17T07:45:43Z</time>
      </trkpt>
      <trkpt lat="42.438745000" lon="-2.533574000">
        <ele>499.30</ele>
        <time>2015-01-17T07:45:44Z</time>
      </trkpt>
      <trkpt lat="42.438734000" lon="-2.533639000">
        <ele>499.20</ele>
        <time>2015-01-17T07:45:45Z</time>
      </trkpt>
      <trkpt lat="42.438724000" lon="-2.533705000">
        <ele>499.10</ele>
        <time>2015-01-17T07:45:46Z</time>
      </trkpt>
      <trkpt lat="42.438714000" lon="-2.533769000">
        <ele>498.90</ele>
        <time>2015-01-17T07:45:47Z</time>
      </trkpt>
      <trkpt lat="42.438706000" lon="-2.533828000">
        <ele>498.80</ele>
        <time>2015-01-17T07:45:48Z</time>
      </trkpt>
      <trkpt lat="42.438695000" lon="-2.533886000">
        <ele>498.70</ele>
        <time>2015-01-17T07:45:49Z</time>
      </trkpt>
      <trkpt lat="42.438683000" lon="-2.533942000">
        <ele>498.70</ele>
        <time>2015-01-17T07:45:50Z</time>
      </trkpt>
      <trkpt lat="42.438672000" lon="-2.533998000">
        <ele>498.60</ele>
        <time>2015-01-17T07:45:51Z</time>
      </trkpt>
      <trkpt lat="42.438664000" lon="-2.534053000">
        <ele>498.60</ele>
        <time>2015-01-17T07:45:52Z</time>
      </trkpt>
      <trkpt lat="42.438653000" lon="-2.534107000">
        <ele>498.50</ele>
        <time>2015-01-17T07:45:53Z</time>
      </trkpt>
      <trkpt lat="42.438643000" lon="-2.534159000">
        <ele>498.50</ele>
        <time>2015-01-17T07:45:54Z</time>
      </trkpt>
      <trkpt lat="42.438640000" lon="-2.534214000">
        <ele>498.40</ele>
        <time>2015-01-17T07:45:55Z</time>
      </trkpt>
      <trkpt lat="42.438635000" lon="-2.534267000">
        <ele>498.40</ele>
        <time>2015-01-17T07:45:56Z</time>
      </trkpt>
      <trkpt lat="42.438626000" lon="-2.534317000">
        <ele>498.40</ele>
        <time>2015-01-17T07:45:57Z</time>
      </trkpt>
      <trkpt lat="42.438620000" lon="-2.534369000">
        <ele>498.60</ele>
        <time>2015-01-17T07:45:58Z</time>
      </trkpt>
      <trkpt lat="42.438616000" lon="-2.534421000">
        <ele>498.80</ele>
        <time>2015-01-17T07:45:59Z</time>
      </trkpt>
      <trkpt lat="42.438612000" lon="-2.534476000">
        <ele>499.00</ele>
        <time>2015-01-17T07:46:00Z</time>
      </trkpt>
      <trkpt lat="42.438608000" lon="-2.534535000">
        <ele>499.20</ele>
        <time>2015-01-17T07:46:01Z</time>
      </trkpt>
      <trkpt lat="42.438601000" lon="-2.534595000">
        <ele>499.40</ele>
        <time>2015-01-17T07:46:02Z</time>
      </trkpt>
      <trkpt lat="42.438593000" lon="-2.534656000">
        <ele>499.50</ele>
        <time>2015-01-17T07:46:03Z</time>
      </trkpt>
      <trkpt lat="42.438585000" lon="-2.534722000">
        <ele>499.60</ele>
        <time>2015-01-17T07:46:04Z</time>
      </trkpt>
      <trkpt lat="42.438577000" lon="-2.534792000">
        <ele>499.60</ele>
        <time>2015-01-17T07:46:05Z</time>
      </trkpt>
      <trkpt lat="42.438568000" lon="-2.534862000">
        <ele>499.50</ele>
        <time>2015-01-17T07:46:06Z</time>
      </trkpt>
      <trkpt lat="42.438559000" lon="-2.534936000">
        <ele>499.50</ele>
        <time>2015-01-17T07:46:07Z</time>
      </trkpt>
      <trkpt lat="42.438552000" lon="-2.535012000">
        <ele>499.40</ele>
        <time>2015-01-17T07:46:08Z</time>
      </trkpt>
      <trkpt lat="42.438544000" lon="-2.535084000">
        <ele>499.30</ele>
        <time>2015-01-17T07:46:09Z</time>
      </trkpt>
      <trkpt lat="42.438534000" lon="-2.535157000">
        <ele>499.00</ele>
        <time>2015-01-17T07:46:10Z</time>
      </trkpt>
      <trkpt lat="42.438525000" lon="-2.535230000">
        <ele>498.80</ele>
        <time>2015-01-17T07:46:11Z</time>
      </trkpt>
      <trkpt lat="42.438514000" lon="-2.535301000">
        <ele>498.50</ele>
        <time>2015-01-17T07:46:12Z</time>
      </trkpt>
      <trkpt lat="42.438504000" lon="-2.535371000">
        <ele>498.20</ele>
        <time>2015-01-17T07:46:13Z</time>
      </trkpt>
      <trkpt lat="42.438478000" lon="-2.535510000">
        <ele>497.90</ele>
        <time>2015-01-17T07:46:15Z</time>
      </trkpt>
      <trkpt lat="42.438458000" lon="-2.535579000">
        <ele>497.70</ele>
        <time>2015-01-17T07:46:16Z</time>
      </trkpt>
      <trkpt lat="42.438436000" lon="-2.535643000">
        <ele>497.50</ele>
        <time>2015-01-17T07:46:17Z</time>
      </trkpt>
      <trkpt lat="42.438410000" lon="-2.535710000">
        <ele>497.30</ele>
        <time>2015-01-17T07:46:18Z</time>
      </trkpt>
      <trkpt lat="42.438387000" lon="-2.535775000">
        <ele>497.20</ele>
        <time>2015-01-17T07:46:19Z</time>
      </trkpt>
      <trkpt lat="42.438363000" lon="-2.535841000">
        <ele>497.00</ele>
        <time>2015-01-17T07:46:20Z</time>
      </trkpt>
      <trkpt lat="42.438341000" lon="-2.535910000">
        <ele>496.90</ele>
        <time>2015-01-17T07:46:21Z</time>
      </trkpt>
      <trkpt lat="42.438318000" lon="-2.535977000">
        <ele>496.70</ele>
        <time>2015-01-17T07:46:22Z</time>
      </trkpt>
      <trkpt lat="42.438294000" lon="-2.536045000">
        <ele>496.50</ele>
        <time>2015-01-17T07:46:23Z</time>
      </trkpt>
      <trkpt lat="42.438263000" lon="-2.536110000">
        <ele>496.10</ele>
        <time>2015-01-17T07:46:24Z</time>
      </trkpt>
      <trkpt lat="42.438239000" lon="-2.536179000">
        <ele>495.90</ele>
        <time>2015-01-17T07:46:25Z</time>
      </trkpt>
      <trkpt lat="42.438216000" lon="-2.536247000">
        <ele>495.70</ele>
        <time>2015-01-17T07:46:26Z</time>
      </trkpt>
      <trkpt lat="42.438193000" lon="-2.536311000">
        <ele>495.50</ele>
        <time>2015-01-17T07:46:27Z</time>
      </trkpt>
      <trkpt lat="42.438171000" lon="-2.536372000">
        <ele>495.30</ele>
        <time>2015-01-17T07:46:28Z</time>
      </trkpt>
      <trkpt lat="42.438147000" lon="-2.536434000">
        <ele>495.20</ele>
        <time>2015-01-17T07:46:29Z</time>
      </trkpt>
      <trkpt lat="42.438125000" lon="-2.536495000">
        <ele>495.00</ele>
        <time>2015-01-17T07:46:30Z</time>
      </trkpt>
      <trkpt lat="42.438106000" lon="-2.536553000">
        <ele>494.90</ele>
        <time>2015-01-17T07:46:31Z</time>
      </trkpt>
      <trkpt lat="42.438089000" lon="-2.536612000">
        <ele>494.60</ele>
        <time>2015-01-17T07:46:32Z</time>
      </trkpt>
      <trkpt lat="42.438071000" lon="-2.536673000">
        <ele>494.40</ele>
        <time>2015-01-17T07:46:33Z</time>
      </trkpt>
      <trkpt lat="42.438056000" lon="-2.536736000">
        <ele>494.20</ele>
        <time>2015-01-17T07:46:34Z</time>
      </trkpt>
      <trkpt lat="42.438041000" lon="-2.536799000">
        <ele>494.10</ele>
        <time>2015-01-17T07:46:35Z</time>
      </trkpt>
      <trkpt lat="42.438025000" lon="-2.536861000">
        <ele>494.00</ele>
        <time>2015-01-17T07:46:36Z</time>
      </trkpt>
      <trkpt lat="42.438007000" lon="-2.536921000">
        <ele>493.80</ele>
        <time>2015-01-17T07:46:37Z</time>
      </trkpt>
      <trkpt lat="42.437990000" lon="-2.536979000">
        <ele>493.70</ele>
        <time>2015-01-17T07:46:38Z</time>
      </trkpt>
      <trkpt lat="42.437976000" lon="-2.537038000">
        <ele>493.70</ele>
        <time>2015-01-17T07:46:39Z</time>
      </trkpt>
      <trkpt lat="42.437966000" lon="-2.537096000">
        <ele>493.70</ele>
        <time>2015-01-17T07:46:40Z</time>
      </trkpt>
      <trkpt lat="42.437948000" lon="-2.537156000">
        <ele>493.70</ele>
        <time>2015-01-17T07:46:41Z</time>
      </trkpt>
      <trkpt lat="42.437929000" lon="-2.537217000">
        <ele>493.80</ele>
        <time>2015-01-17T07:46:42Z</time>
      </trkpt>
      <trkpt lat="42.437913000" lon="-2.537261000">
        <ele>493.80</ele>
        <time>2015-01-17T07:46:43Z</time>
      </trkpt>
      <trkpt lat="42.437892000" lon="-2.537295000">
        <ele>493.80</ele>
        <time>2015-01-17T07:46:44Z</time>
      </trkpt>
      <trkpt lat="42.437866000" lon="-2.537328000">
        <ele>493.90</ele>
        <time>2015-01-17T07:46:45Z</time>
      </trkpt>
      <trkpt lat="42.437849000" lon="-2.537367000">
        <ele>493.90</ele>
        <time>2015-01-17T07:46:46Z</time>
      </trkpt>
      <trkpt lat="42.437838000" lon="-2.537409000">
        <ele>494.00</ele>
        <time>2015-01-17T07:46:47Z</time>
      </trkpt>
      <trkpt lat="42.437833000" lon="-2.537452000">
        <ele>494.00</ele>
        <time>2015-01-17T07:46:48Z</time>
      </trkpt>
      <trkpt lat="42.437827000" lon="-2.537498000">
        <ele>494.10</ele>
        <time>2015-01-17T07:46:49Z</time>
      </trkpt>
      <trkpt lat="42.437820000" lon="-2.537544000">
        <ele>494.40</ele>
        <time>2015-01-17T07:46:50Z</time>
      </trkpt>
      <trkpt lat="42.437807000" lon="-2.537572000">
        <ele>494.60</ele>
        <time>2015-01-17T07:46:51Z</time>
      </trkpt>
      <trkpt lat="42.437791000" lon="-2.537602000">
        <ele>494.50</ele>
        <time>2015-01-17T07:46:52Z</time>
      </trkpt>
      <trkpt lat="42.437781000" lon="-2.537638000">
        <ele>494.40</ele>
        <time>2015-01-17T07:46:53Z</time>
      </trkpt>
      <trkpt lat="42.437768000" lon="-2.537674000">
        <ele>494.60</ele>
        <time>2015-01-17T07:46:54Z</time>
      </trkpt>
      <trkpt lat="42.437752000" lon="-2.537717000">
        <ele>494.80</ele>
        <time>2015-01-17T07:46:55Z</time>
      </trkpt>
      <trkpt lat="42.437733000" lon="-2.537761000">
        <ele>494.90</ele>
        <time>2015-01-17T07:46:56Z</time>
      </trkpt>
      <trkpt lat="42.437713000" lon="-2.537806000">
        <ele>495.00</ele>
        <time>2015-01-17T07:46:57Z</time>
      </trkpt>
      <trkpt lat="42.437690000" lon="-2.537844000">
        <ele>495.00</ele>
        <time>2015-01-17T07:46:58Z</time>
      </trkpt>
      <trkpt lat="42.437669000" lon="-2.537891000">
        <ele>495.10</ele>
        <time>2015-01-17T07:46:59Z</time>
      </trkpt>
      <trkpt lat="42.437649000" lon="-2.537939000">
        <ele>495.00</ele>
        <time>2015-01-17T07:47:00Z</time>
      </trkpt>
      <trkpt lat="42.437634000" lon="-2.537987000">
        <ele>494.90</ele>
        <time>2015-01-17T07:47:01Z</time>
      </trkpt>
      <trkpt lat="42.437622000" lon="-2.538033000">
        <ele>494.90</ele>
        <time>2015-01-17T07:47:02Z</time>
      </trkpt>
      <trkpt lat="42.437614000" lon="-2.538071000">
        <ele>494.80</ele>
        <time>2015-01-17T07:47:03Z</time>
      </trkpt>
      <trkpt lat="42.437609000" lon="-2.538105000">
        <ele>494.80</ele>
        <time>2015-01-17T07:47:04Z</time>
      </trkpt>
      <trkpt lat="42.437603000" lon="-2.538134000">
        <ele>494.80</ele>
        <time>2015-01-17T07:47:05Z</time>
      </trkpt>
      <trkpt lat="42.437599000" lon="-2.538155000">
        <ele>494.90</ele>
        <time>2015-01-17T07:47:06Z</time>
      </trkpt>
      <trkpt lat="42.437597000" lon="-2.538174000">
        <ele>495.00</ele>
        <time>2015-01-17T07:47:07Z</time>
      </trkpt>
      <trkpt lat="42.437597000" lon="-2.538193000">
        <ele>495.10</ele>
        <time>2015-01-17T07:47:08Z</time>
      </trkpt>
      <trkpt lat="42.437595000" lon="-2.538210000">
        <ele>495.20</ele>
        <time>2015-01-17T07:47:09Z</time>
      </trkpt>
      <trkpt lat="42.437594000" lon="-2.538213000">
        <ele>495.20</ele>
        <time>2015-01-17T07:47:10Z</time>
      </trkpt>
      <trkpt lat="42.437596000" lon="-2.538219000">
        <ele>495.20</ele>
        <time>2015-01-17T07:47:11Z</time>
      </trkpt>
      <trkpt lat="42.437595000" lon="-2.538224000">
        <ele>495.10</ele>
        <time>2015-01-17T07:47:12Z</time>
      </trkpt>
      <trkpt lat="42.437596000" lon="-2.538222000">
        <ele>495.00</ele>
        <time>2015-01-17T07:47:13Z</time>
      </trkpt>
      <trkpt lat="42.437595000" lon="-2.538223000">
        <ele>494.90</ele>
        <time>2015-01-17T07:47:14Z</time>
      </trkpt>
      <trkpt lat="42.437596000" lon="-2.538225000">
        <ele>494.80</ele>
        <time>2015-01-17T07:47:16Z</time>
      </trkpt>
      <trkpt lat="42.437596000" lon="-2.538227000">
        <ele>494.80</ele>
        <time>2015-01-17T07:47:17Z</time>
      </trkpt>
      <trkpt lat="42.437596000" lon="-2.538227000">
        <ele>494.90</ele>
        <time>2015-01-17T07:47:18Z</time>
      </trkpt>
      <trkpt lat="42.437596000" lon="-2.538228000">
        <ele>495.00</ele>
        <time>2015-01-17T07:47:19Z</time>
      </trkpt>
      <trkpt lat="42.437594000" lon="-2.538229000">
        <ele>495.00</ele>
        <time>2015-01-17T07:47:20Z</time>
      </trkpt>
      <trkpt lat="42.437594000" lon="-2.538229000">
        <ele>495.10</ele>
        <time>2015-01-17T07:47:21Z</time>
      </trkpt>
      <trkpt lat="42.437593000" lon="-2.538230000">
        <ele>495.10</ele>
        <time>2015-01-17T07:47:22Z</time>
      </trkpt>
      <trkpt lat="42.437591000" lon="-2.538230000">
        <ele>495.10</ele>
        <time>2015-01-17T07:47:23Z</time>
      </trkpt>
      <trkpt lat="42.437592000" lon="-2.538230000">
        <ele>495.20</ele>
        <time>2015-01-17T07:47:24Z</time>
      </trkpt>
      <trkpt lat="42.437590000" lon="-2.538230000">
        <ele>495.20</ele>
        <time>2015-01-17T07:47:25Z</time>
      </trkpt>
      <trkpt lat="42.437588000" lon="-2.538230000">
        <ele>495.20</ele>
        <time>2015-01-17T07:47:26Z</time>
      </trkpt>
      <trkpt lat="42.437587000" lon="-2.538231000">
        <ele>495.20</ele>
        <time>2015-01-17T07:47:27Z</time>
      </trkpt>
      <trkpt lat="42.437586000" lon="-2.538234000">
        <ele>495.20</ele>
        <time>2015-01-17T07:47:28Z</time>
      </trkpt>
      <trkpt lat="42.437584000" lon="-2.538243000">
        <ele>495.20</ele>
        <time>2015-01-17T07:47:29Z</time>
      </trkpt>
      <trkpt lat="42.437583000" lon="-2.538244000">
        <ele>495.10</ele>
        <time>2015-01-17T07:47:30Z</time>
      </trkpt>
      <trkpt lat="42.437583000" lon="-2.538243000">
        <ele>495.10</ele>
        <time>2015-01-17T07:47:31Z</time>
      </trkpt>
      <trkpt lat="42.437584000" lon="-2.538242000">
        <ele>495.10</ele>
        <time>2015-01-17T07:47:32Z</time>
      </trkpt>
      <trkpt lat="42.437586000" lon="-2.538242000">
        <ele>495.10</ele>
        <time>2015-01-17T07:47:33Z</time>
      </trkpt>
      <trkpt lat="42.437588000" lon="-2.538249000">
        <ele>495.30</ele>
        <time>2015-01-17T07:47:34Z</time>
      </trkpt>
      <trkpt lat="42.437585000" lon="-2.538262000">
        <ele>495.50</ele>
        <time>2015-01-17T07:47:35Z</time>
      </trkpt>
      <trkpt lat="42.437582000" lon="-2.538282000">
        <ele>495.60</ele>
        <time>2015-01-17T07:47:36Z</time>
      </trkpt>
      <trkpt lat="42.437575000" lon="-2.538304000">
        <ele>495.70</ele>
        <time>2015-01-17T07:47:37Z</time>
      </trkpt>
      <trkpt lat="42.437564000" lon="-2.538329000">
        <ele>495.70</ele>
        <time>2015-01-17T07:47:38Z</time>
      </trkpt>
      <trkpt lat="42.437547000" lon="-2.538355000">
        <ele>495.70</ele>
        <time>2015-01-17T07:47:39Z</time>
      </trkpt>
      <trkpt lat="42.437528000" lon="-2.538379000">
        <ele>495.70</ele>
        <time>2015-01-17T07:47:40Z</time>
      </trkpt>
      <trkpt lat="42.437510000" lon="-2.538405000">
        <ele>495.70</ele>
        <time>2015-01-17T07:47:41Z</time>
      </trkpt>
      <trkpt lat="42.437490000" lon="-2.538434000">
        <ele>495.70</ele>
        <time>2015-01-17T07:47:42Z</time>
      </trkpt>
      <trkpt lat="42.437470000" lon="-2.538461000">
        <ele>495.70</ele>
        <time>2015-01-17T07:47:43Z</time>
      </trkpt>
      <trkpt lat="42.437452000" lon="-2.538487000">
        <ele>495.50</ele>
        <time>2015-01-17T07:47:44Z</time>
      </trkpt>
      <trkpt lat="42.437433000" lon="-2.538512000">
        <ele>495.50</ele>
        <time>2015-01-17T07:47:45Z</time>
      </trkpt>
      <trkpt lat="42.437417000" lon="-2.538542000">
        <ele>495.40</ele>
        <time>2015-01-17T07:47:46Z</time>
      </trkpt>
      <trkpt lat="42.437398000" lon="-2.538569000">
        <ele>495.40</ele>
        <time>2015-01-17T07:47:47Z</time>
      </trkpt>
      <trkpt lat="42.437378000" lon="-2.538598000">
        <ele>495.60</ele>
        <time>2015-01-17T07:47:48Z</time>
      </trkpt>
      <trkpt lat="42.437360000" lon="-2.538625000">
        <ele>495.70</ele>
        <time>2015-01-17T07:47:49Z</time>
      </trkpt>
      <trkpt lat="42.437342000" lon="-2.538652000">
        <ele>495.80</ele>
        <time>2015-01-17T07:47:50Z</time>
      </trkpt>
      <trkpt lat="42.437321000" lon="-2.538677000">
        <ele>495.90</ele>
        <time>2015-01-17T07:47:51Z</time>
      </trkpt>
      <trkpt lat="42.437303000" lon="-2.538704000">
        <ele>496.10</ele>
        <time>2015-01-17T07:47:52Z</time>
      </trkpt>
      <trkpt lat="42.437283000" lon="-2.538730000">
        <ele>496.30</ele>
        <time>2015-01-17T07:47:53Z</time>
      </trkpt>
      <trkpt lat="42.437263000" lon="-2.538762000">
        <ele>496.40</ele>
        <time>2015-01-17T07:47:54Z</time>
      </trkpt>
      <trkpt lat="42.437243000" lon="-2.538793000">
        <ele>496.60</ele>
        <time>2015-01-17T07:47:55Z</time>
      </trkpt>
      <trkpt lat="42.437221000" lon="-2.538821000">
        <ele>496.70</ele>
        <time>2015-01-17T07:47:56Z</time>
      </trkpt>
      <trkpt lat="42.437199000" lon="-2.538848000">
        <ele>496.70</ele>
        <time>2015-01-17T07:47:57Z</time>
      </trkpt>
      <trkpt lat="42.437181000" lon="-2.538870000">
        <ele>496.80</ele>
        <time>2015-01-17T07:47:58Z</time>
      </trkpt>
      <trkpt lat="42.437159000" lon="-2.538896000">
        <ele>496.80</ele>
        <time>2015-01-17T07:47:59Z</time>
      </trkpt>
      <trkpt lat="42.437141000" lon="-2.538921000">
        <ele>496.90</ele>
        <time>2015-01-17T07:48:00Z</time>
      </trkpt>
      <trkpt lat="42.437120000" lon="-2.538947000">
        <ele>497.00</ele>
        <time>2015-01-17T07:48:01Z</time>
      </trkpt>
      <trkpt lat="42.437096000" lon="-2.538973000">
        <ele>497.00</ele>
        <time>2015-01-17T07:48:02Z</time>
      </trkpt>
      <trkpt lat="42.437073000" lon="-2.539003000">
        <ele>497.10</ele>
        <time>2015-01-17T07:48:03Z</time>
      </trkpt>
      <trkpt lat="42.437050000" lon="-2.539032000">
        <ele>497.00</ele>
        <time>2015-01-17T07:48:04Z</time>
      </trkpt>
      <trkpt lat="42.437029000" lon="-2.539062000">
        <ele>496.90</ele>
        <time>2015-01-17T07:48:05Z</time>
      </trkpt>
      <trkpt lat="42.437005000" lon="-2.539090000">
        <ele>496.90</ele>
        <time>2015-01-17T07:48:06Z</time>
      </trkpt>
      <trkpt lat="42.436982000" lon="-2.539114000">
        <ele>496.80</ele>
        <time>2015-01-17T07:48:07Z</time>
      </trkpt>
      <trkpt lat="42.436961000" lon="-2.539139000">
        <ele>496.80</ele>
        <time>2015-01-17T07:48:08Z</time>
      </trkpt>
      <trkpt lat="42.436940000" lon="-2.539163000">
        <ele>496.80</ele>
        <time>2015-01-17T07:48:09Z</time>
      </trkpt>
      <trkpt lat="42.436914000" lon="-2.539187000">
        <ele>497.00</ele>
        <time>2015-01-17T07:48:10Z</time>
      </trkpt>
      <trkpt lat="42.436889000" lon="-2.539215000">
        <ele>497.20</ele>
        <time>2015-01-17T07:48:11Z</time>
      </trkpt>
      <trkpt lat="42.436865000" lon="-2.539241000">
        <ele>497.40</ele>
        <time>2015-01-17T07:48:12Z</time>
      </trkpt>
      <trkpt lat="42.436838000" lon="-2.539265000">
        <ele>497.50</ele>
        <time>2015-01-17T07:48:13Z</time>
      </trkpt>
      <trkpt lat="42.436806000" lon="-2.539285000">
        <ele>497.60</ele>
        <time>2015-01-17T07:48:14Z</time>
      </trkpt>
      <trkpt lat="42.436771000" lon="-2.539309000">
        <ele>497.70</ele>
        <time>2015-01-17T07:48:15Z</time>
      </trkpt>
      <trkpt lat="42.436689000" lon="-2.539353000">
        <ele>497.60</ele>
        <time>2015-01-17T07:48:17Z</time>
      </trkpt>
      <trkpt lat="42.436642000" lon="-2.539373000">
        <ele>497.50</ele>
        <time>2015-01-17T07:48:18Z</time>
      </trkpt>
      <trkpt lat="42.436594000" lon="-2.539402000">
        <ele>497.40</ele>
        <time>2015-01-17T07:48:19Z</time>
      </trkpt>
      <trkpt lat="42.436545000" lon="-2.539436000">
        <ele>497.20</ele>
        <time>2015-01-17T07:48:20Z</time>
      </trkpt>
      <trkpt lat="42.436494000" lon="-2.539477000">
        <ele>497.00</ele>
        <time>2015-01-17T07:48:21Z</time>
      </trkpt>
      <trkpt lat="42.436441000" lon="-2.539528000">
        <ele>496.80</ele>
        <time>2015-01-17T07:48:22Z</time>
      </trkpt>
      <trkpt lat="42.436386000" lon="-2.539582000">
        <ele>496.70</ele>
        <time>2015-01-17T07:48:23Z</time>
      </trkpt>
      <trkpt lat="42.436328000" lon="-2.539642000">
        <ele>496.40</ele>
        <time>2015-01-17T07:48:24Z</time>
      </trkpt>
      <trkpt lat="42.436268000" lon="-2.539708000">
        <ele>496.10</ele>
        <time>2015-01-17T07:48:25Z</time>
      </trkpt>
      <trkpt lat="42.436208000" lon="-2.539779000">
        <ele>495.60</ele>
        <time>2015-01-17T07:48:26Z</time>
      </trkpt>
      <trkpt lat="42.436148000" lon="-2.539856000">
        <ele>495.20</ele>
        <time>2015-01-17T07:48:27Z</time>
      </trkpt>
      <trkpt lat="42.436088000" lon="-2.539935000">
        <ele>494.70</ele>
        <time>2015-01-17T07:48:28Z</time>
      </trkpt>
      <trkpt lat="42.436031000" lon="-2.540019000">
        <ele>494.30</ele>
        <time>2015-01-17T07:48:29Z</time>
      </trkpt>
      <trkpt lat="42.435973000" lon="-2.540105000">
        <ele>493.70</ele>
        <time>2015-01-17T07:48:30Z</time>
      </trkpt>
      <trkpt lat="42.435913000" lon="-2.540190000">
        <ele>493.20</ele>
        <time>2015-01-17T07:48:31Z</time>
      </trkpt>
      <trkpt lat="42.435852000" lon="-2.540275000">
        <ele>492.60</ele>
        <time>2015-01-17T07:48:32Z</time>
      </trkpt>
      <trkpt lat="42.435791000" lon="-2.540360000">
        <ele>492.10</ele>
        <time>2015-01-17T07:48:33Z</time>
      </trkpt>
      <trkpt lat="42.435731000" lon="-2.540447000">
        <ele>491.20</ele>
        <time>2015-01-17T07:48:34Z</time>
      </trkpt>
      <trkpt lat="42.435674000" lon="-2.540534000">
        <ele>490.50</ele>
        <time>2015-01-17T07:48:35Z</time>
      </trkpt>
      <trkpt lat="42.435618000" lon="-2.540623000">
        <ele>489.80</ele>
        <time>2015-01-17T07:48:36Z</time>
      </trkpt>
      <trkpt lat="42.435561000" lon="-2.540713000">
        <ele>489.30</ele>
        <time>2015-01-17T07:48:37Z</time>
      </trkpt>
      <trkpt lat="42.435502000" lon="-2.540796000">
        <ele>488.70</ele>
        <time>2015-01-17T07:48:38Z</time>
      </trkpt>
      <trkpt lat="42.435442000" lon="-2.540878000">
        <ele>488.30</ele>
        <time>2015-01-17T07:48:39Z</time>
      </trkpt>
      <trkpt lat="42.435383000" lon="-2.540960000">
        <ele>487.80</ele>
        <time>2015-01-17T07:48:40Z</time>
      </trkpt>
      <trkpt lat="42.435324000" lon="-2.541040000">
        <ele>487.40</ele>
        <time>2015-01-17T07:48:41Z</time>
      </trkpt>
      <trkpt lat="42.435265000" lon="-2.541123000">
        <ele>486.90</ele>
        <time>2015-01-17T07:48:42Z</time>
      </trkpt>
      <trkpt lat="42.435207000" lon="-2.541208000">
        <ele>486.60</ele>
        <time>2015-01-17T07:48:43Z</time>
      </trkpt>
      <trkpt lat="42.435153000" lon="-2.541295000">
        <ele>486.30</ele>
        <time>2015-01-17T07:48:44Z</time>
      </trkpt>
      <trkpt lat="42.435102000" lon="-2.541387000">
        <ele>486.00</ele>
        <time>2015-01-17T07:48:45Z</time>
      </trkpt>
      <trkpt lat="42.435060000" lon="-2.541484000">
        <ele>485.70</ele>
        <time>2015-01-17T07:48:46Z</time>
      </trkpt>
      <trkpt lat="42.435028000" lon="-2.541590000">
        <ele>485.50</ele>
        <time>2015-01-17T07:48:47Z</time>
      </trkpt>
      <trkpt lat="42.434991000" lon="-2.541696000">
        <ele>485.10</ele>
        <time>2015-01-17T07:48:48Z</time>
      </trkpt>
      <trkpt lat="42.434947000" lon="-2.541803000">
        <ele>484.70</ele>
        <time>2015-01-17T07:48:49Z</time>
      </trkpt>
      <trkpt lat="42.434902000" lon="-2.541904000">
        <ele>483.90</ele>
        <time>2015-01-17T07:48:50Z</time>
      </trkpt>
      <trkpt lat="42.434857000" lon="-2.542010000">
        <ele>483.30</ele>
        <time>2015-01-17T07:48:51Z</time>
      </trkpt>
      <trkpt lat="42.434809000" lon="-2.542116000">
        <ele>482.80</ele>
        <time>2015-01-17T07:48:52Z</time>
      </trkpt>
      <trkpt lat="42.434756000" lon="-2.542217000">
        <ele>482.40</ele>
        <time>2015-01-17T07:48:53Z</time>
      </trkpt>
      <trkpt lat="42.434700000" lon="-2.542315000">
        <ele>481.80</ele>
        <time>2015-01-17T07:48:54Z</time>
      </trkpt>
      <trkpt lat="42.434640000" lon="-2.542407000">
        <ele>481.40</ele>
        <time>2015-01-17T07:48:55Z</time>
      </trkpt>
      <trkpt lat="42.434575000" lon="-2.542492000">
        <ele>480.60</ele>
        <time>2015-01-17T07:48:56Z</time>
      </trkpt>
      <trkpt lat="42.434511000" lon="-2.542573000">
        <ele>480.10</ele>
        <time>2015-01-17T07:48:57Z</time>
      </trkpt>
      <trkpt lat="42.434447000" lon="-2.542651000">
        <ele>479.30</ele>
        <time>2015-01-17T07:48:58Z</time>
      </trkpt>
      <trkpt lat="42.434384000" lon="-2.542729000">
        <ele>478.80</ele>
        <time>2015-01-17T07:48:59Z</time>
      </trkpt>
      <trkpt lat="42.434322000" lon="-2.542809000">
        <ele>478.10</ele>
        <time>2015-01-17T07:49:00Z</time>
      </trkpt>
      <trkpt lat="42.434262000" lon="-2.542888000">
        <ele>477.60</ele>
        <time>2015-01-17T07:49:01Z</time>
      </trkpt>
      <trkpt lat="42.434202000" lon="-2.542968000">
        <ele>477.20</ele>
        <time>2015-01-17T07:49:02Z</time>
      </trkpt>
      <trkpt lat="42.434143000" lon="-2.543045000">
        <ele>476.90</ele>
        <time>2015-01-17T07:49:03Z</time>
      </trkpt>
      <trkpt lat="42.434084000" lon="-2.543119000">
        <ele>476.60</ele>
        <time>2015-01-17T07:49:04Z</time>
      </trkpt>
      <trkpt lat="42.434026000" lon="-2.543192000">
        <ele>476.30</ele>
        <time>2015-01-17T07:49:05Z</time>
      </trkpt>
      <trkpt lat="42.433972000" lon="-2.543265000">
        <ele>476.00</ele>
        <time>2015-01-17T07:49:06Z</time>
      </trkpt>
      <trkpt lat="42.433918000" lon="-2.543335000">
        <ele>475.80</ele>
        <time>2015-01-17T07:49:07Z</time>
      </trkpt>
      <trkpt lat="42.433864000" lon="-2.543401000">
        <ele>475.40</ele>
        <time>2015-01-17T07:49:08Z</time>
      </trkpt>
      <trkpt lat="42.433810000" lon="-2.543466000">
        <ele>475.10</ele>
        <time>2015-01-17T07:49:09Z</time>
      </trkpt>
      <trkpt lat="42.433757000" lon="-2.543528000">
        <ele>474.80</ele>
        <time>2015-01-17T07:49:10Z</time>
      </trkpt>
      <trkpt lat="42.433708000" lon="-2.543588000">
        <ele>474.60</ele>
        <time>2015-01-17T07:49:11Z</time>
      </trkpt>
      <trkpt lat="42.433663000" lon="-2.543647000">
        <ele>474.50</ele>
        <time>2015-01-17T07:49:12Z</time>
      </trkpt>
      <trkpt lat="42.433620000" lon="-2.543707000">
        <ele>474.40</ele>
        <time>2015-01-17T07:49:13Z</time>
      </trkpt>
      <trkpt lat="42.433580000" lon="-2.543767000">
        <ele>474.40</ele>
        <time>2015-01-17T07:49:14Z</time>
      </trkpt>
      <trkpt lat="42.433544000" lon="-2.543830000">
        <ele>474.50</ele>
        <time>2015-01-17T07:49:15Z</time>
      </trkpt>
      <trkpt lat="42.433511000" lon="-2.543891000">
        <ele>474.50</ele>
        <time>2015-01-17T07:49:16Z</time>
      </trkpt>
      <trkpt lat="42.433455000" lon="-2.544018000">
        <ele>474.60</ele>
        <time>2015-01-17T07:49:18Z</time>
      </trkpt>
      <trkpt lat="42.433434000" lon="-2.544080000">
        <ele>474.60</ele>
        <time>2015-01-17T07:49:19Z</time>
      </trkpt>
      <trkpt lat="42.433415000" lon="-2.544139000">
        <ele>474.70</ele>
        <time>2015-01-17T07:49:20Z</time>
      </trkpt>
      <trkpt lat="42.433401000" lon="-2.544198000">
        <ele>474.80</ele>
        <time>2015-01-17T07:49:21Z</time>
      </trkpt>
      <trkpt lat="42.433390000" lon="-2.544257000">
        <ele>474.90</ele>
        <time>2015-01-17T07:49:22Z</time>
      </trkpt>
      <trkpt lat="42.433385000" lon="-2.544314000">
        <ele>475.00</ele>
        <time>2015-01-17T07:49:23Z</time>
      </trkpt>
      <trkpt lat="42.433381000" lon="-2.544367000">
        <ele>475.00</ele>
        <time>2015-01-17T07:49:24Z</time>
      </trkpt>
      <trkpt lat="42.433382000" lon="-2.544419000">
        <ele>475.00</ele>
        <time>2015-01-17T07:49:25Z</time>
      </trkpt>
      <trkpt lat="42.433381000" lon="-2.544468000">
        <ele>475.30</ele>
        <time>2015-01-17T07:49:26Z</time>
      </trkpt>
      <trkpt lat="42.433384000" lon="-2.544517000">
        <ele>475.50</ele>
        <time>2015-01-17T07:49:27Z</time>
      </trkpt>
      <trkpt lat="42.433389000" lon="-2.544563000">
        <ele>475.90</ele>
        <time>2015-01-17T07:49:28Z</time>
      </trkpt>
      <trkpt lat="42.433396000" lon="-2.544609000">
        <ele>476.10</ele>
        <time>2015-01-17T07:49:29Z</time>
      </trkpt>
      <trkpt lat="42.433399000" lon="-2.544651000">
        <ele>476.50</ele>
        <time>2015-01-17T07:49:30Z</time>
      </trkpt>
      <trkpt lat="42.433403000" lon="-2.544690000">
        <ele>476.80</ele>
        <time>2015-01-17T07:49:31Z</time>
      </trkpt>
      <trkpt lat="42.433407000" lon="-2.544728000">
        <ele>477.00</ele>
        <time>2015-01-17T07:49:32Z</time>
      </trkpt>
      <trkpt lat="42.433411000" lon="-2.544764000">
        <ele>477.20</ele>
        <time>2015-01-17T07:49:33Z</time>
      </trkpt>
      <trkpt lat="42.433410000" lon="-2.544801000">
        <ele>477.30</ele>
        <time>2015-01-17T07:49:34Z</time>
      </trkpt>
      <trkpt lat="42.433410000" lon="-2.544842000">
        <ele>477.40</ele>
        <time>2015-01-17T07:49:35Z</time>
      </trkpt>
      <trkpt lat="42.433410000" lon="-2.544880000">
        <ele>477.40</ele>
        <time>2015-01-17T07:49:36Z</time>
      </trkpt>
      <trkpt lat="42.433407000" lon="-2.544908000">
        <ele>477.50</ele>
        <time>2015-01-17T07:49:37Z</time>
      </trkpt>
      <trkpt lat="42.433402000" lon="-2.544934000">
        <ele>477.70</ele>
        <time>2015-01-17T07:49:38Z</time>
      </trkpt>
      <trkpt lat="42.433398000" lon="-2.544959000">
        <ele>477.80</ele>
        <time>2015-01-17T07:49:39Z</time>
      </trkpt>
      <trkpt lat="42.433397000" lon="-2.544978000">
        <ele>477.90</ele>
        <time>2015-01-17T07:49:40Z</time>
      </trkpt>
      <trkpt lat="42.433394000" lon="-2.544996000">
        <ele>478.10</ele>
        <time>2015-01-17T07:49:41Z</time>
      </trkpt>
      <trkpt lat="42.433387000" lon="-2.545011000">
        <ele>478.10</ele>
        <time>2015-01-17T07:49:42Z</time>
      </trkpt>
      <trkpt lat="42.433385000" lon="-2.545021000">
        <ele>478.10</ele>
        <time>2015-01-17T07:49:43Z</time>
      </trkpt>
      <trkpt lat="42.433383000" lon="-2.545034000">
        <ele>478.10</ele>
        <time>2015-01-17T07:49:44Z</time>
      </trkpt>
      <trkpt lat="42.433379000" lon="-2.545044000">
        <ele>478.00</ele>
        <time>2015-01-17T07:49:45Z</time>
      </trkpt>
      <trkpt lat="42.433375000" lon="-2.545049000">
        <ele>478.00</ele>
        <time>2015-01-17T07:49:46Z</time>
      </trkpt>
      <trkpt lat="42.433374000" lon="-2.545051000">
        <ele>478.00</ele>
        <time>2015-01-17T07:49:47Z</time>
      </trkpt>
      <trkpt lat="42.433370000" lon="-2.545053000">
        <ele>478.00</ele>
        <time>2015-01-17T07:49:48Z</time>
      </trkpt>
      <trkpt lat="42.433367000" lon="-2.545059000">
        <ele>477.90</ele>
        <time>2015-01-17T07:49:49Z</time>
      </trkpt>
      <trkpt lat="42.433358000" lon="-2.545062000">
        <ele>477.90</ele>
        <time>2015-01-17T07:49:50Z</time>
      </trkpt>
      <trkpt lat="42.433356000" lon="-2.545066000">
        <ele>477.90</ele>
        <time>2015-01-17T07:49:51Z</time>
      </trkpt>
      <trkpt lat="42.433354000" lon="-2.545064000">
        <ele>477.90</ele>
        <time>2015-01-17T07:49:52Z</time>
      </trkpt>
      <trkpt lat="42.433351000" lon="-2.545061000">
        <ele>477.90</ele>
        <time>2015-01-17T07:49:53Z</time>
      </trkpt>
      <trkpt lat="42.433349000" lon="-2.545057000">
        <ele>477.90</ele>
        <time>2015-01-17T07:49:54Z</time>
      </trkpt>
      <trkpt lat="42.433349000" lon="-2.545053000">
        <ele>477.90</ele>
        <time>2015-01-17T07:49:55Z</time>
      </trkpt>
      <trkpt lat="42.433351000" lon="-2.545050000">
        <ele>477.90</ele>
        <time>2015-01-17T07:49:56Z</time>
      </trkpt>
      <trkpt lat="42.433352000" lon="-2.545049000">
        <ele>477.90</ele>
        <time>2015-01-17T07:49:57Z</time>
      </trkpt>
      <trkpt lat="42.433353000" lon="-2.545049000">
        <ele>477.90</ele>
        <time>2015-01-17T07:49:58Z</time>
      </trkpt>
      <trkpt lat="42.433348000" lon="-2.545051000">
        <ele>477.90</ele>
        <time>2015-01-17T07:49:59Z</time>
      </trkpt>
      <trkpt lat="42.433340000" lon="-2.545053000">
        <ele>477.80</ele>
        <time>2015-01-17T07:50:00Z</time>
      </trkpt>
      <trkpt lat="42.433332000" lon="-2.545061000">
        <ele>477.70</ele>
        <time>2015-01-17T07:50:01Z</time>
      </trkpt>
      <trkpt lat="42.433328000" lon="-2.545067000">
        <ele>477.80</ele>
        <time>2015-01-17T07:50:02Z</time>
      </trkpt>
      <trkpt lat="42.433326000" lon="-2.545070000">
        <ele>477.80</ele>
        <time>2015-01-17T07:50:03Z</time>
      </trkpt>
      <trkpt lat="42.433323000" lon="-2.545071000">
        <ele>477.90</ele>
        <time>2015-01-17T07:50:04Z</time>
      </trkpt>
      <trkpt lat="42.433318000" lon="-2.545076000">
        <ele>477.90</ele>
        <time>2015-01-17T07:50:05Z</time>
      </trkpt>
      <trkpt lat="42.433305000" lon="-2.545078000">
        <ele>478.00</ele>
        <time>2015-01-17T07:50:06Z</time>
      </trkpt>
      <trkpt lat="42.433289000" lon="-2.545081000">
        <ele>478.10</ele>
        <time>2015-01-17T07:50:07Z</time>
      </trkpt>
      <trkpt lat="42.433279000" lon="-2.545090000">
        <ele>478.20</ele>
        <time>2015-01-17T07:50:08Z</time>
      </trkpt>
      <trkpt lat="42.433267000" lon="-2.545103000">
        <ele>478.30</ele>
        <time>2015-01-17T07:50:09Z</time>
      </trkpt>
      <trkpt lat="42.433253000" lon="-2.545119000">
        <ele>478.30</ele>
        <time>2015-01-17T07:50:10Z</time>
      </trkpt>
      <trkpt lat="42.433235000" lon="-2.545131000">
        <ele>478.40</ele>
        <time>2015-01-17T07:50:11Z</time>
      </trkpt>
      <trkpt lat="42.433219000" lon="-2.545145000">
        <ele>478.50</ele>
        <time>2015-01-17T07:50:12Z</time>
      </trkpt>
      <trkpt lat="42.433194000" lon="-2.545161000">
        <ele>478.70</ele>
        <time>2015-01-17T07:50:13Z</time>
      </trkpt>
      <trkpt lat="42.433168000" lon="-2.545179000">
        <ele>478.80</ele>
        <time>2015-01-17T07:50:14Z</time>
      </trkpt>
      <trkpt lat="42.433146000" lon="-2.545198000">
        <ele>478.80</ele>
        <time>2015-01-17T07:50:15Z</time>
      </trkpt>
      <trkpt lat="42.433126000" lon="-2.545224000">
        <ele>478.90</ele>
        <time>2015-01-17T07:50:16Z</time>
      </trkpt>
      <trkpt lat="42.433103000" lon="-2.545243000">
        <ele>478.90</ele>
        <time>2015-01-17T07:50:17Z</time>
      </trkpt>
      <trkpt lat="42.433042000" lon="-2.545277000">
        <ele>479.00</ele>
        <time>2015-01-17T07:50:19Z</time>
      </trkpt>
      <trkpt lat="42.433013000" lon="-2.545294000">
        <ele>479.20</ele>
        <time>2015-01-17T07:50:20Z</time>
      </trkpt>
      <trkpt lat="42.432983000" lon="-2.545313000">
        <ele>479.30</ele>
        <time>2015-01-17T07:50:21Z</time>
      </trkpt>
      <trkpt lat="42.432954000" lon="-2.545332000">
        <ele>479.50</ele>
        <time>2015-01-17T07:50:22Z</time>
      </trkpt>
      <trkpt lat="42.432924000" lon="-2.545354000">
        <ele>479.70</ele>
        <time>2015-01-17T07:50:23Z</time>
      </trkpt>
      <trkpt lat="42.432891000" lon="-2.545377000">
        <ele>479.80</ele>
        <time>2015-01-17T07:50:24Z</time>
      </trkpt>
      <trkpt lat="42.432856000" lon="-2.545402000">
        <ele>479.80</ele>
        <time>2015-01-17T07:50:25Z</time>
      </trkpt>
      <trkpt lat="42.432820000" lon="-2.545427000">
        <ele>479.80</ele>
        <time>2015-01-17T07:50:26Z</time>
      </trkpt>
      <trkpt lat="42.432784000" lon="-2.545449000">
        <ele>479.70</ele>
        <time>2015-01-17T07:50:27Z</time>
      </trkpt>
      <trkpt lat="42.432745000" lon="-2.545477000">
        <ele>479.60</ele>
        <time>2015-01-17T07:50:28Z</time>
      </trkpt>
      <trkpt lat="42.432702000" lon="-2.545504000">
        <ele>479.50</ele>
        <time>2015-01-17T07:50:29Z</time>
      </trkpt>
      <trkpt lat="42.432656000" lon="-2.545533000">
        <ele>479.30</ele>
        <time>2015-01-17T07:50:30Z</time>
      </trkpt>
      <trkpt lat="42.432607000" lon="-2.545564000">
        <ele>479.10</ele>
        <time>2015-01-17T07:50:31Z</time>
      </trkpt>
      <trkpt lat="42.432556000" lon="-2.545600000">
        <ele>478.80</ele>
        <time>2015-01-17T07:50:32Z</time>
      </trkpt>
      <trkpt lat="42.432501000" lon="-2.545641000">
        <ele>478.60</ele>
        <time>2015-01-17T07:50:33Z</time>
      </trkpt>
      <trkpt lat="42.432442000" lon="-2.545684000">
        <ele>478.40</ele>
        <time>2015-01-17T07:50:34Z</time>
      </trkpt>
      <trkpt lat="42.432383000" lon="-2.545729000">
        <ele>478.20</ele>
        <time>2015-01-17T07:50:35Z</time>
      </trkpt>
      <trkpt lat="42.432321000" lon="-2.545776000">
        <ele>478.00</ele>
        <time>2015-01-17T07:50:36Z</time>
      </trkpt>
      <trkpt lat="42.432260000" lon="-2.545821000">
        <ele>477.80</ele>
        <time>2015-01-17T07:50:37Z</time>
      </trkpt>
      <trkpt lat="42.432203000" lon="-2.545873000">
        <ele>477.00</ele>
        <time>2015-01-17T07:50:38Z</time>
      </trkpt>
      <trkpt lat="42.432149000" lon="-2.545933000">
        <ele>476.40</ele>
        <time>2015-01-17T07:50:39Z</time>
      </trkpt>
      <trkpt lat="42.432096000" lon="-2.546005000">
        <ele>475.80</ele>
        <time>2015-01-17T07:50:40Z</time>
      </trkpt>
      <trkpt lat="42.432050000" lon="-2.546085000">
        <ele>475.50</ele>
        <time>2015-01-17T07:50:41Z</time>
      </trkpt>
      <trkpt lat="42.432009000" lon="-2.546174000">
        <ele>474.90</ele>
        <time>2015-01-17T07:50:42Z</time>
      </trkpt>
      <trkpt lat="42.431978000" lon="-2.546270000">
        <ele>474.60</ele>
        <time>2015-01-17T07:50:43Z</time>
      </trkpt>
      <trkpt lat="42.431949000" lon="-2.546372000">
        <ele>474.10</ele>
        <time>2015-01-17T07:50:44Z</time>
      </trkpt>
      <trkpt lat="42.431924000" lon="-2.546473000">
        <ele>473.80</ele>
        <time>2015-01-17T07:50:45Z</time>
      </trkpt>
      <trkpt lat="42.431898000" lon="-2.546574000">
        <ele>473.40</ele>
        <time>2015-01-17T07:50:46Z</time>
      </trkpt>
      <trkpt lat="42.431873000" lon="-2.546679000">
        <ele>473.10</ele>
        <time>2015-01-17T07:50:47Z</time>
      </trkpt>
      <trkpt lat="42.431845000" lon="-2.546780000">
        <ele>472.70</ele>
        <time>2015-01-17T07:50:48Z</time>
      </trkpt>
      <trkpt lat="42.431812000" lon="-2.546875000">
        <ele>472.40</ele>
        <time>2015-01-17T07:50:49Z</time>
      </trkpt>
      <trkpt lat="42.431773000" lon="-2.546963000">
        <ele>471.90</ele>
        <time>2015-01-17T07:50:50Z</time>
      </trkpt>
      <trkpt lat="42.431730000" lon="-2.547042000">
        <ele>471.50</ele>
        <time>2015-01-17T07:50:51Z</time>
      </trkpt>
      <trkpt lat="42.431688000" lon="-2.547119000">
        <ele>471.10</ele>
        <time>2015-01-17T07:50:52Z</time>
      </trkpt>
      <trkpt lat="42.431644000" lon="-2.547191000">
        <ele>470.80</ele>
        <time>2015-01-17T07:50:53Z</time>
      </trkpt>
      <trkpt lat="42.431606000" lon="-2.547263000">
        <ele>470.60</ele>
        <time>2015-01-17T07:50:54Z</time>
      </trkpt>
      <trkpt lat="42.431566000" lon="-2.547333000">
        <ele>470.40</ele>
        <time>2015-01-17T07:50:55Z</time>
      </trkpt>
      <trkpt lat="42.431528000" lon="-2.547404000">
        <ele>470.30</ele>
        <time>2015-01-17T07:50:56Z</time>
      </trkpt>
      <trkpt lat="42.431492000" lon="-2.547473000">
        <ele>470.20</ele>
        <time>2015-01-17T07:50:57Z</time>
      </trkpt>
      <trkpt lat="42.431455000" lon="-2.547540000">
        <ele>470.20</ele>
        <time>2015-01-17T07:50:58Z</time>
      </trkpt>
      <trkpt lat="42.431425000" lon="-2.547603000">
        <ele>470.10</ele>
        <time>2015-01-17T07:50:59Z</time>
      </trkpt>
      <trkpt lat="42.431396000" lon="-2.547667000">
        <ele>470.00</ele>
        <time>2015-01-17T07:51:00Z</time>
      </trkpt>
      <trkpt lat="42.431367000" lon="-2.547733000">
        <ele>469.90</ele>
        <time>2015-01-17T07:51:01Z</time>
      </trkpt>
      <trkpt lat="42.431344000" lon="-2.547804000">
        <ele>469.70</ele>
        <time>2015-01-17T07:51:02Z</time>
      </trkpt>
      <trkpt lat="42.431326000" lon="-2.547870000">
        <ele>469.50</ele>
        <time>2015-01-17T07:51:03Z</time>
      </trkpt>
      <trkpt lat="42.431305000" lon="-2.547934000">
        <ele>469.50</ele>
        <time>2015-01-17T07:51:04Z</time>
      </trkpt>
      <trkpt lat="42.431281000" lon="-2.547997000">
        <ele>469.50</ele>
        <time>2015-01-17T07:51:05Z</time>
      </trkpt>
      <trkpt lat="42.431254000" lon="-2.548060000">
        <ele>469.50</ele>
        <time>2015-01-17T07:51:06Z</time>
      </trkpt>
      <trkpt lat="42.431224000" lon="-2.548121000">
        <ele>469.50</ele>
        <time>2015-01-17T07:51:07Z</time>
      </trkpt>
      <trkpt lat="42.431196000" lon="-2.548182000">
        <ele>469.50</ele>
        <time>2015-01-17T07:51:08Z</time>
      </trkpt>
      <trkpt lat="42.431168000" lon="-2.548242000">
        <ele>469.40</ele>
        <time>2015-01-17T07:51:09Z</time>
      </trkpt>
      <trkpt lat="42.431143000" lon="-2.548307000">
        <ele>469.40</ele>
        <time>2015-01-17T07:51:10Z</time>
      </trkpt>
      <trkpt lat="42.431118000" lon="-2.548370000">
        <ele>469.30</ele>
        <time>2015-01-17T07:51:11Z</time>
      </trkpt>
      <trkpt lat="42.431096000" lon="-2.548433000">
        <ele>469.10</ele>
        <time>2015-01-17T07:51:12Z</time>
      </trkpt>
      <trkpt lat="42.431074000" lon="-2.548496000">
        <ele>469.00</ele>
        <time>2015-01-17T07:51:13Z</time>
      </trkpt>
      <trkpt lat="42.431049000" lon="-2.548557000">
        <ele>468.80</ele>
        <time>2015-01-17T07:51:14Z</time>
      </trkpt>
      <trkpt lat="42.431025000" lon="-2.548619000">
        <ele>468.80</ele>
        <time>2015-01-17T07:51:15Z</time>
      </trkpt>
      <trkpt lat="42.431002000" lon="-2.548680000">
        <ele>468.80</ele>
        <time>2015-01-17T07:51:16Z</time>
      </trkpt>
      <trkpt lat="42.430978000" lon="-2.548741000">
        <ele>468.80</ele>
        <time>2015-01-17T07:51:17Z</time>
      </trkpt>
      <trkpt lat="42.430954000" lon="-2.548808000">
        <ele>468.80</ele>
        <time>2015-01-17T07:51:18Z</time>
      </trkpt>
      <trkpt lat="42.430908000" lon="-2.548933000">
        <ele>468.70</ele>
        <time>2015-01-17T07:51:20Z</time>
      </trkpt>
      <trkpt lat="42.430886000" lon="-2.548995000">
        <ele>468.70</ele>
        <time>2015-01-17T07:51:21Z</time>
      </trkpt>
      <trkpt lat="42.430864000" lon="-2.549053000">
        <ele>468.90</ele>
        <time>2015-01-17T07:51:22Z</time>
      </trkpt>
      <trkpt lat="42.430843000" lon="-2.549115000">
        <ele>469.00</ele>
        <time>2015-01-17T07:51:23Z</time>
      </trkpt>
      <trkpt lat="42.430821000" lon="-2.549176000">
        <ele>469.10</ele>
        <time>2015-01-17T07:51:24Z</time>
      </trkpt>
      <trkpt lat="42.430802000" lon="-2.549238000">
        <ele>469.20</ele>
        <time>2015-01-17T07:51:25Z</time>
      </trkpt>
      <trkpt lat="42.430781000" lon="-2.549304000">
        <ele>469.30</ele>
        <time>2015-01-17T07:51:26Z</time>
      </trkpt>
      <trkpt lat="42.430760000" lon="-2.549370000">
        <ele>469.40</ele>
        <time>2015-01-17T07:51:27Z</time>
      </trkpt>
      <trkpt lat="42.430742000" lon="-2.549435000">
        <ele>469.50</ele>
        <time>2015-01-17T07:51:28Z</time>
      </trkpt>
      <trkpt lat="42.430722000" lon="-2.549498000">
        <ele>469.50</ele>
        <time>2015-01-17T07:51:29Z</time>
      </trkpt>
      <trkpt lat="42.430703000" lon="-2.549562000">
        <ele>469.40</ele>
        <time>2015-01-17T07:51:30Z</time>
      </trkpt>
      <trkpt lat="42.430684000" lon="-2.549628000">
        <ele>469.30</ele>
        <time>2015-01-17T07:51:31Z</time>
      </trkpt>
      <trkpt lat="42.430664000" lon="-2.549693000">
        <ele>469.20</ele>
        <time>2015-01-17T07:51:32Z</time>
      </trkpt>
      <trkpt lat="42.430645000" lon="-2.549753000">
        <ele>469.20</ele>
        <time>2015-01-17T07:51:33Z</time>
      </trkpt>
      <trkpt lat="42.430628000" lon="-2.549815000">
        <ele>469.10</ele>
        <time>2015-01-17T07:51:34Z</time>
      </trkpt>
      <trkpt lat="42.430610000" lon="-2.549878000">
        <ele>469.10</ele>
        <time>2015-01-17T07:51:35Z</time>
      </trkpt>
      <trkpt lat="42.430593000" lon="-2.549944000">
        <ele>469.10</ele>
        <time>2015-01-17T07:51:36Z</time>
      </trkpt>
      <trkpt lat="42.430574000" lon="-2.550008000">
        <ele>469.10</ele>
        <time>2015-01-17T07:51:37Z</time>
      </trkpt>
      <trkpt lat="42.430554000" lon="-2.550073000">
        <ele>469.00</ele>
        <time>2015-01-17T07:51:38Z</time>
      </trkpt>
      <trkpt lat="42.430535000" lon="-2.550141000">
        <ele>468.90</ele>
        <time>2015-01-17T07:51:39Z</time>
      </trkpt>
      <trkpt lat="42.430518000" lon="-2.550206000">
        <ele>468.90</ele>
        <time>2015-01-17T07:51:40Z</time>
      </trkpt>
      <trkpt lat="42.430504000" lon="-2.550273000">
        <ele>468.80</ele>
        <time>2015-01-17T07:51:41Z</time>
      </trkpt>
      <trkpt lat="42.430490000" lon="-2.550338000">
        <ele>469.00</ele>
        <time>2015-01-17T07:51:42Z</time>
      </trkpt>
      <trkpt lat="42.430477000" lon="-2.550405000">
        <ele>469.10</ele>
        <time>2015-01-17T07:51:43Z</time>
      </trkpt>
      <trkpt lat="42.430465000" lon="-2.550473000">
        <ele>469.20</ele>
        <time>2015-01-17T07:51:44Z</time>
      </trkpt>
      <trkpt lat="42.430457000" lon="-2.550542000">
        <ele>469.30</ele>
        <time>2015-01-17T07:51:45Z</time>
      </trkpt>
      <trkpt lat="42.430451000" lon="-2.550608000">
        <ele>469.40</ele>
        <time>2015-01-17T07:51:46Z</time>
      </trkpt>
      <trkpt lat="42.430445000" lon="-2.550673000">
        <ele>469.40</ele>
        <time>2015-01-17T07:51:47Z</time>
      </trkpt>
      <trkpt lat="42.430432000" lon="-2.550742000">
        <ele>469.30</ele>
        <time>2015-01-17T07:51:48Z</time>
      </trkpt>
      <trkpt lat="42.430420000" lon="-2.550805000">
        <ele>469.20</ele>
        <time>2015-01-17T07:51:49Z</time>
      </trkpt>
      <trkpt lat="42.430407000" lon="-2.550872000">
        <ele>469.20</ele>
        <time>2015-01-17T07:51:50Z</time>
      </trkpt>
      <trkpt lat="42.430391000" lon="-2.550936000">
        <ele>469.20</ele>
        <time>2015-01-17T07:51:51Z</time>
      </trkpt>
      <trkpt lat="42.430374000" lon="-2.550999000">
        <ele>469.30</ele>
        <time>2015-01-17T07:51:52Z</time>
      </trkpt>
      <trkpt lat="42.430357000" lon="-2.551058000">
        <ele>469.30</ele>
        <time>2015-01-17T07:51:53Z</time>
      </trkpt>
      <trkpt lat="42.430338000" lon="-2.551121000">
        <ele>469.30</ele>
        <time>2015-01-17T07:51:54Z</time>
      </trkpt>
      <trkpt lat="42.430318000" lon="-2.551182000">
        <ele>469.30</ele>
        <time>2015-01-17T07:51:55Z</time>
      </trkpt>
      <trkpt lat="42.430298000" lon="-2.551244000">
        <ele>469.30</ele>
        <time>2015-01-17T07:51:56Z</time>
      </trkpt>
      <trkpt lat="42.430276000" lon="-2.551306000">
        <ele>469.40</ele>
        <time>2015-01-17T07:51:57Z</time>
      </trkpt>
      <trkpt lat="42.430252000" lon="-2.551367000">
        <ele>469.40</ele>
        <time>2015-01-17T07:51:58Z</time>
      </trkpt>
      <trkpt lat="42.430231000" lon="-2.551427000">
        <ele>469.40</ele>
        <time>2015-01-17T07:51:59Z</time>
      </trkpt>
      <trkpt lat="42.430208000" lon="-2.551488000">
        <ele>469.50</ele>
        <time>2015-01-17T07:52:00Z</time>
      </trkpt>
      <trkpt lat="42.430185000" lon="-2.551549000">
        <ele>469.50</ele>
        <time>2015-01-17T07:52:01Z</time>
      </trkpt>
      <trkpt lat="42.430161000" lon="-2.551605000">
        <ele>469.60</ele>
        <time>2015-01-17T07:52:02Z</time>
      </trkpt>
      <trkpt lat="42.430137000" lon="-2.551664000">
        <ele>469.70</ele>
        <time>2015-01-17T07:52:03Z</time>
      </trkpt>
      <trkpt lat="42.430111000" lon="-2.551722000">
        <ele>469.60</ele>
        <time>2015-01-17T07:52:04Z</time>
      </trkpt>
      <trkpt lat="42.430089000" lon="-2.551778000">
        <ele>469.60</ele>
        <time>2015-01-17T07:52:05Z</time>
      </trkpt>
      <trkpt lat="42.430062000" lon="-2.551829000">
        <ele>469.50</ele>
        <time>2015-01-17T07:52:06Z</time>
      </trkpt>
      <trkpt lat="42.430033000" lon="-2.551873000">
        <ele>469.50</ele>
        <time>2015-01-17T07:52:07Z</time>
      </trkpt>
      <trkpt lat="42.430001000" lon="-2.551913000">
        <ele>469.40</ele>
        <time>2015-01-17T07:52:08Z</time>
      </trkpt>
      <trkpt lat="42.429967000" lon="-2.551947000">
        <ele>469.40</ele>
        <time>2015-01-17T07:52:09Z</time>
      </trkpt>
      <trkpt lat="42.429926000" lon="-2.551977000">
        <ele>469.40</ele>
        <time>2015-01-17T07:52:10Z</time>
      </trkpt>
      <trkpt lat="42.429885000" lon="-2.552003000">
        <ele>469.40</ele>
        <time>2015-01-17T07:52:11Z</time>
      </trkpt>
      <trkpt lat="42.429843000" lon="-2.552024000">
        <ele>469.40</ele>
        <time>2015-01-17T07:52:12Z</time>
      </trkpt>
      <trkpt lat="42.429799000" lon="-2.552045000">
        <ele>469.40</ele>
        <time>2015-01-17T07:52:13Z</time>
      </trkpt>
      <trkpt lat="42.429756000" lon="-2.552069000">
        <ele>469.50</ele>
        <time>2015-01-17T07:52:14Z</time>
      </trkpt>
      <trkpt lat="42.429716000" lon="-2.552103000">
        <ele>469.60</ele>
        <time>2015-01-17T07:52:15Z</time>
      </trkpt>
      <trkpt lat="42.429682000" lon="-2.552145000">
        <ele>469.70</ele>
        <time>2015-01-17T07:52:16Z</time>
      </trkpt>
      <trkpt lat="42.429658000" lon="-2.552200000">
        <ele>469.70</ele>
        <time>2015-01-17T07:52:17Z</time>
      </trkpt>
      <trkpt lat="42.429644000" lon="-2.552264000">
        <ele>469.80</ele>
        <time>2015-01-17T07:52:18Z</time>
      </trkpt>
      <trkpt lat="42.429645000" lon="-2.552331000">
        <ele>469.90</ele>
        <time>2015-01-17T07:52:19Z</time>
      </trkpt>
      <trkpt lat="42.429676000" lon="-2.552464000">
        <ele>470.00</ele>
        <time>2015-01-17T07:52:21Z</time>
      </trkpt>
      <trkpt lat="42.429701000" lon="-2.552523000">
        <ele>470.00</ele>
        <time>2015-01-17T07:52:22Z</time>
      </trkpt>
      <trkpt lat="42.429727000" lon="-2.552581000">
        <ele>470.10</ele>
        <time>2015-01-17T07:52:23Z</time>
      </trkpt>
      <trkpt lat="42.429755000" lon="-2.552634000">
        <ele>470.10</ele>
        <time>2015-01-17T07:52:24Z</time>
      </trkpt>
      <trkpt lat="42.429779000" lon="-2.552686000">
        <ele>470.20</ele>
        <time>2015-01-17T07:52:25Z</time>
      </trkpt>
      <trkpt lat="42.429799000" lon="-2.552742000">
        <ele>470.30</ele>
        <time>2015-01-17T07:52:26Z</time>
      </trkpt>
      <trkpt lat="42.429813000" lon="-2.552800000">
        <ele>470.40</ele>
        <time>2015-01-17T07:52:27Z</time>
      </trkpt>
      <trkpt lat="42.429824000" lon="-2.552859000">
        <ele>470.50</ele>
        <time>2015-01-17T07:52:28Z</time>
      </trkpt>
      <trkpt lat="42.429832000" lon="-2.552919000">
        <ele>470.50</ele>
        <time>2015-01-17T07:52:29Z</time>
      </trkpt>
      <trkpt lat="42.429839000" lon="-2.552982000">
        <ele>470.50</ele>
        <time>2015-01-17T07:52:30Z</time>
      </trkpt>
      <trkpt lat="42.429847000" lon="-2.553042000">
        <ele>470.60</ele>
        <time>2015-01-17T07:52:31Z</time>
      </trkpt>
      <trkpt lat="42.429854000" lon="-2.553103000">
        <ele>470.50</ele>
        <time>2015-01-17T07:52:32Z</time>
      </trkpt>
      <trkpt lat="42.429862000" lon="-2.553162000">
        <ele>470.40</ele>
        <time>2015-01-17T07:52:33Z</time>
      </trkpt>
      <trkpt lat="42.429870000" lon="-2.553223000">
        <ele>470.30</ele>
        <time>2015-01-17T07:52:34Z</time>
      </trkpt>
      <trkpt lat="42.429875000" lon="-2.553282000">
        <ele>470.20</ele>
        <time>2015-01-17T07:52:35Z</time>
      </trkpt>
      <trkpt lat="42.429879000" lon="-2.553343000">
        <ele>470.10</ele>
        <time>2015-01-17T07:52:36Z</time>
      </trkpt>
      <trkpt lat="42.429884000" lon="-2.553403000">
        <ele>470.00</ele>
        <time>2015-01-17T07:52:37Z</time>
      </trkpt>
      <trkpt lat="42.429886000" lon="-2.553466000">
        <ele>470.20</ele>
        <time>2015-01-17T07:52:38Z</time>
      </trkpt>
      <trkpt lat="42.429884000" lon="-2.553524000">
        <ele>470.30</ele>
        <time>2015-01-17T07:52:39Z</time>
      </trkpt>
      <trkpt lat="42.429880000" lon="-2.553581000">
        <ele>470.40</ele>
        <time>2015-01-17T07:52:40Z</time>
      </trkpt>
      <trkpt lat="42.429883000" lon="-2.553639000">
        <ele>470.50</ele>
        <time>2015-01-17T07:52:41Z</time>
      </trkpt>
      <trkpt lat="42.429882000" lon="-2.553698000">
        <ele>470.40</ele>
        <time>2015-01-17T07:52:42Z</time>
      </trkpt>
      <trkpt lat="42.429885000" lon="-2.553758000">
        <ele>470.40</ele>
        <time>2015-01-17T07:52:43Z</time>
      </trkpt>
      <trkpt lat="42.429883000" lon="-2.553818000">
        <ele>470.40</ele>
        <time>2015-01-17T07:52:44Z</time>
      </trkpt>
      <trkpt lat="42.429879000" lon="-2.553876000">
        <ele>470.30</ele>
        <time>2015-01-17T07:52:45Z</time>
      </trkpt>
      <trkpt lat="42.429874000" lon="-2.553931000">
        <ele>470.30</ele>
        <time>2015-01-17T07:52:46Z</time>
      </trkpt>
      <trkpt lat="42.429869000" lon="-2.553985000">
        <ele>470.20</ele>
        <time>2015-01-17T07:52:47Z</time>
      </trkpt>
      <trkpt lat="42.429864000" lon="-2.554039000">
        <ele>470.20</ele>
        <time>2015-01-17T07:52:48Z</time>
      </trkpt>
      <trkpt lat="42.429856000" lon="-2.554093000">
        <ele>470.20</ele>
        <time>2015-01-17T07:52:49Z</time>
      </trkpt>
      <trkpt lat="42.429851000" lon="-2.554147000">
        <ele>470.20</ele>
        <time>2015-01-17T07:52:50Z</time>
      </trkpt>
      <trkpt lat="42.429845000" lon="-2.554201000">
        <ele>470.30</ele>
        <time>2015-01-17T07:52:51Z</time>
      </trkpt>
      <trkpt lat="42.429840000" lon="-2.554255000">
        <ele>470.40</ele>
        <time>2015-01-17T07:52:52Z</time>
      </trkpt>
      <trkpt lat="42.429831000" lon="-2.554305000">
        <ele>470.40</ele>
        <time>2015-01-17T07:52:53Z</time>
      </trkpt>
      <trkpt lat="42.429822000" lon="-2.554354000">
        <ele>470.60</ele>
        <time>2015-01-17T07:52:54Z</time>
      </trkpt>
      <trkpt lat="42.429816000" lon="-2.554403000">
        <ele>470.80</ele>
        <time>2015-01-17T07:52:55Z</time>
      </trkpt>
      <trkpt lat="42.429815000" lon="-2.554451000">
        <ele>470.90</ele>
        <time>2015-01-17T07:52:56Z</time>
      </trkpt>
      <trkpt lat="42.429811000" lon="-2.554502000">
        <ele>470.90</ele>
        <time>2015-01-17T07:52:57Z</time>
      </trkpt>
      <trkpt lat="42.429807000" lon="-2.554554000">
        <ele>471.00</ele>
        <time>2015-01-17T07:52:58Z</time>
      </trkpt>
      <trkpt lat="42.429803000" lon="-2.554603000">
        <ele>471.00</ele>
        <time>2015-01-17T07:52:59Z</time>
      </trkpt>
      <trkpt lat="42.429797000" lon="-2.554652000">
        <ele>471.20</ele>
        <time>2015-01-17T07:53:00Z</time>
      </trkpt>
      <trkpt lat="42.429791000" lon="-2.554699000">
        <ele>471.40</ele>
        <time>2015-01-17T07:53:01Z</time>
      </trkpt>
      <trkpt lat="42.429786000" lon="-2.554746000">
        <ele>471.50</ele>
        <time>2015-01-17T07:53:02Z</time>
      </trkpt>
      <trkpt lat="42.429780000" lon="-2.554794000">
        <ele>471.60</ele>
        <time>2015-01-17T07:53:03Z</time>
      </trkpt>
      <trkpt lat="42.429773000" lon="-2.554842000">
        <ele>471.70</ele>
        <time>2015-01-17T07:53:04Z</time>
      </trkpt>
      <trkpt lat="42.429766000" lon="-2.554887000">
        <ele>471.70</ele>
        <time>2015-01-17T07:53:05Z</time>
      </trkpt>
      <trkpt lat="42.429759000" lon="-2.554930000">
        <ele>471.60</ele>
        <time>2015-01-17T07:53:06Z</time>
      </trkpt>
      <trkpt lat="42.429751000" lon="-2.554974000">
        <ele>471.50</ele>
        <time>2015-01-17T07:53:07Z</time>
      </trkpt>
      <trkpt lat="42.429743000" lon="-2.555013000">
        <ele>471.40</ele>
        <time>2015-01-17T07:53:08Z</time>
      </trkpt>
      <trkpt lat="42.429734000" lon="-2.555048000">
        <ele>471.30</ele>
        <time>2015-01-17T07:53:09Z</time>
      </trkpt>
      <trkpt lat="42.429724000" lon="-2.555087000">
        <ele>471.70</ele>
        <time>2015-01-17T07:53:10Z</time>
      </trkpt>
      <trkpt lat="42.429716000" lon="-2.555129000">
        <ele>471.90</ele>
        <time>2015-01-17T07:53:11Z</time>
      </trkpt>
      <trkpt lat="42.429708000" lon="-2.555172000">
        <ele>472.20</ele>
        <time>2015-01-17T07:53:12Z</time>
      </trkpt>
      <trkpt lat="42.429702000" lon="-2.555216000">
        <ele>472.30</ele>
        <time>2015-01-17T07:53:13Z</time>
      </trkpt>
      <trkpt lat="42.429694000" lon="-2.555257000">
        <ele>472.50</ele>
        <time>2015-01-17T07:53:14Z</time>
      </trkpt>
      <trkpt lat="42.429687000" lon="-2.555298000">
        <ele>472.60</ele>
        <time>2015-01-17T07:53:15Z</time>
      </trkpt>
      <trkpt lat="42.429679000" lon="-2.555341000">
        <ele>472.70</ele>
        <time>2015-01-17T07:53:16Z</time>
      </trkpt>
      <trkpt lat="42.429670000" lon="-2.555383000">
        <ele>472.70</ele>
        <time>2015-01-17T07:53:17Z</time>
      </trkpt>
      <trkpt lat="42.429664000" lon="-2.555426000">
        <ele>473.30</ele>
        <time>2015-01-17T07:53:18Z</time>
      </trkpt>
      <trkpt lat="42.429660000" lon="-2.555470000">
        <ele>473.70</ele>
        <time>2015-01-17T07:53:19Z</time>
      </trkpt>
      <trkpt lat="42.429656000" lon="-2.555515000">
        <ele>474.10</ele>
        <time>2015-01-17T07:53:20Z</time>
      </trkpt>
      <trkpt lat="42.429643000" lon="-2.555600000">
        <ele>474.50</ele>
        <time>2015-01-17T07:53:22Z</time>
      </trkpt>
      <trkpt lat="42.429638000" lon="-2.555644000">
        <ele>474.60</ele>
        <time>2015-01-17T07:53:23Z</time>
      </trkpt>
      <trkpt lat="42.429632000" lon="-2.555690000">
        <ele>474.90</ele>
        <time>2015-01-17T07:53:24Z</time>
      </trkpt>
      <trkpt lat="42.429626000" lon="-2.555736000">
        <ele>475.00</ele>
        <time>2015-01-17T07:53:25Z</time>
      </trkpt>
      <trkpt lat="42.429621000" lon="-2.555781000">
        <ele>475.20</ele>
        <time>2015-01-17T07:53:26Z</time>
      </trkpt>
      <trkpt lat="42.429614000" lon="-2.555825000">
        <ele>475.30</ele>
        <time>2015-01-17T07:53:27Z</time>
      </trkpt>
      <trkpt lat="42.429610000" lon="-2.555869000">
        <ele>475.50</ele>
        <time>2015-01-17T07:53:28Z</time>
      </trkpt>
      <trkpt lat="42.429605000" lon="-2.555913000">
        <ele>475.60</ele>
        <time>2015-01-17T07:53:29Z</time>
      </trkpt>
      <trkpt lat="42.429605000" lon="-2.555952000">
        <ele>475.70</ele>
        <time>2015-01-17T07:53:30Z</time>
      </trkpt>
      <trkpt lat="42.429601000" lon="-2.555995000">
        <ele>475.70</ele>
        <time>2015-01-17T07:53:31Z</time>
      </trkpt>
      <trkpt lat="42.429598000" lon="-2.556034000">
        <ele>475.90</ele>
        <time>2015-01-17T07:53:32Z</time>
      </trkpt>
      <trkpt lat="42.429591000" lon="-2.556076000">
        <ele>476.10</ele>
        <time>2015-01-17T07:53:33Z</time>
      </trkpt>
      <trkpt lat="42.429582000" lon="-2.556113000">
        <ele>476.40</ele>
        <time>2015-01-17T07:53:34Z</time>
      </trkpt>
      <trkpt lat="42.429579000" lon="-2.556150000">
        <ele>476.60</ele>
        <time>2015-01-17T07:53:35Z</time>
      </trkpt>
      <trkpt lat="42.429575000" lon="-2.556191000">
        <ele>476.80</ele>
        <time>2015-01-17T07:53:36Z</time>
      </trkpt>
      <trkpt lat="42.429573000" lon="-2.556230000">
        <ele>477.00</ele>
        <time>2015-01-17T07:53:37Z</time>
      </trkpt>
      <trkpt lat="42.429572000" lon="-2.556271000">
        <ele>477.40</ele>
        <time>2015-01-17T07:53:38Z</time>
      </trkpt>
      <trkpt lat="42.429572000" lon="-2.556313000">
        <ele>477.60</ele>
        <time>2015-01-17T07:53:39Z</time>
      </trkpt>
      <trkpt lat="42.429569000" lon="-2.556354000">
        <ele>477.90</ele>
        <time>2015-01-17T07:53:40Z</time>
      </trkpt>
      <trkpt lat="42.429564000" lon="-2.556393000">
        <ele>478.20</ele>
        <time>2015-01-17T07:53:41Z</time>
      </trkpt>
      <trkpt lat="42.429560000" lon="-2.556431000">
        <ele>478.40</ele>
        <time>2015-01-17T07:53:42Z</time>
      </trkpt>
      <trkpt lat="42.429557000" lon="-2.556471000">
        <ele>478.60</ele>
        <time>2015-01-17T07:53:43Z</time>
      </trkpt>
      <trkpt lat="42.429549000" lon="-2.556509000">
        <ele>478.80</ele>
        <time>2015-01-17T07:53:44Z</time>
      </trkpt>
      <trkpt lat="42.429542000" lon="-2.556547000">
        <ele>478.90</ele>
        <time>2015-01-17T07:53:45Z</time>
      </trkpt>
      <trkpt lat="42.429537000" lon="-2.556585000">
        <ele>479.00</ele>
        <time>2015-01-17T07:53:46Z</time>
      </trkpt>
      <trkpt lat="42.429532000" lon="-2.556622000">
        <ele>479.10</ele>
        <time>2015-01-17T07:53:47Z</time>
      </trkpt>
      <trkpt lat="42.429528000" lon="-2.556652000">
        <ele>479.20</ele>
        <time>2015-01-17T07:53:48Z</time>
      </trkpt>
      <trkpt lat="42.429522000" lon="-2.556682000">
        <ele>479.20</ele>
        <time>2015-01-17T07:53:49Z</time>
      </trkpt>
      <trkpt lat="42.429522000" lon="-2.556712000">
        <ele>479.50</ele>
        <time>2015-01-17T07:53:50Z</time>
      </trkpt>
      <trkpt lat="42.429519000" lon="-2.556736000">
        <ele>479.80</ele>
        <time>2015-01-17T07:53:51Z</time>
      </trkpt>
      <trkpt lat="42.429525000" lon="-2.556762000">
        <ele>479.90</ele>
        <time>2015-01-17T07:53:52Z</time>
      </trkpt>
      <trkpt lat="42.429526000" lon="-2.556776000">
        <ele>480.00</ele>
        <time>2015-01-17T07:53:53Z</time>
      </trkpt>
      <trkpt lat="42.429523000" lon="-2.556794000">
        <ele>480.10</ele>
        <time>2015-01-17T07:53:54Z</time>
      </trkpt>
      <trkpt lat="42.429519000" lon="-2.556803000">
        <ele>480.20</ele>
        <time>2015-01-17T07:53:55Z</time>
      </trkpt>
      <trkpt lat="42.429516000" lon="-2.556802000">
        <ele>480.50</ele>
        <time>2015-01-17T07:53:56Z</time>
      </trkpt>
      <trkpt lat="42.429522000" lon="-2.556815000">
        <ele>480.80</ele>
        <time>2015-01-17T07:53:57Z</time>
      </trkpt>
      <trkpt lat="42.429531000" lon="-2.556825000">
        <ele>481.00</ele>
        <time>2015-01-17T07:53:58Z</time>
      </trkpt>
      <trkpt lat="42.429536000" lon="-2.556842000">
        <ele>481.20</ele>
        <time>2015-01-17T07:53:59Z</time>
      </trkpt>
      <trkpt lat="42.429535000" lon="-2.556864000">
        <ele>481.30</ele>
        <time>2015-01-17T07:54:00Z</time>
      </trkpt>
      <trkpt lat="42.429529000" lon="-2.556881000">
        <ele>481.40</ele>
        <time>2015-01-17T07:54:01Z</time>
      </trkpt>
      <trkpt lat="42.429522000" lon="-2.556897000">
        <ele>481.70</ele>
        <time>2015-01-17T07:54:02Z</time>
      </trkpt>
      <trkpt lat="42.429508000" lon="-2.556909000">
        <ele>481.90</ele>
        <time>2015-01-17T07:54:03Z</time>
      </trkpt>
      <trkpt lat="42.429489000" lon="-2.556921000">
        <ele>482.10</ele>
        <time>2015-01-17T07:54:04Z</time>
      </trkpt>
      <trkpt lat="42.429461000" lon="-2.556927000">
        <ele>482.20</ele>
        <time>2015-01-17T07:54:05Z</time>
      </trkpt>
      <trkpt lat="42.429441000" lon="-2.556938000">
        <ele>482.20</ele>
        <time>2015-01-17T07:54:06Z</time>
      </trkpt>
      <trkpt lat="42.429414000" lon="-2.556942000">
        <ele>482.30</ele>
        <time>2015-01-17T07:54:07Z</time>
      </trkpt>
      <trkpt lat="42.429389000" lon="-2.556951000">
        <ele>482.30</ele>
        <time>2015-01-17T07:54:08Z</time>
      </trkpt>
      <trkpt lat="42.429358000" lon="-2.556963000">
        <ele>482.30</ele>
        <time>2015-01-17T07:54:09Z</time>
      </trkpt>
      <trkpt lat="42.429331000" lon="-2.556980000">
        <ele>482.40</ele>
        <time>2015-01-17T07:54:10Z</time>
      </trkpt>
      <trkpt lat="42.429304000" lon="-2.557003000">
        <ele>482.50</ele>
        <time>2015-01-17T07:54:11Z</time>
      </trkpt>
      <trkpt lat="42.429278000" lon="-2.557024000">
        <ele>482.90</ele>
        <time>2015-01-17T07:54:12Z</time>
      </trkpt>
      <trkpt lat="42.429256000" lon="-2.557050000">
        <ele>483.10</ele>
        <time>2015-01-17T07:54:13Z</time>
      </trkpt>
      <trkpt lat="42.429239000" lon="-2.557072000">
        <ele>483.30</ele>
        <time>2015-01-17T07:54:14Z</time>
      </trkpt>
      <trkpt lat="42.429224000" lon="-2.557111000">
        <ele>483.40</ele>
        <time>2015-01-17T07:54:15Z</time>
      </trkpt>
      <trkpt lat="42.429211000" lon="-2.557149000">
        <ele>483.60</ele>
        <time>2015-01-17T07:54:16Z</time>
      </trkpt>
      <trkpt lat="42.429200000" lon="-2.557188000">
        <ele>483.70</ele>
        <time>2015-01-17T07:54:17Z</time>
      </trkpt>
      <trkpt lat="42.429189000" lon="-2.557230000">
        <ele>484.00</ele>
        <time>2015-01-17T07:54:18Z</time>
      </trkpt>
      <trkpt lat="42.429177000" lon="-2.557272000">
        <ele>484.10</ele>
        <time>2015-01-17T07:54:19Z</time>
      </trkpt>
      <trkpt lat="42.429167000" lon="-2.557314000">
        <ele>484.40</ele>
        <time>2015-01-17T07:54:20Z</time>
      </trkpt>
      <trkpt lat="42.429159000" lon="-2.557356000">
        <ele>484.60</ele>
        <time>2015-01-17T07:54:21Z</time>
      </trkpt>
      <trkpt lat="42.429158000" lon="-2.557440000">
        <ele>484.90</ele>
        <time>2015-01-17T07:54:23Z</time>
      </trkpt>
      <trkpt lat="42.429160000" lon="-2.557482000">
        <ele>485.10</ele>
        <time>2015-01-17T07:54:24Z</time>
      </trkpt>
      <trkpt lat="42.429163000" lon="-2.557523000">
        <ele>485.20</ele>
        <time>2015-01-17T07:54:25Z</time>
      </trkpt>
      <trkpt lat="42.429162000" lon="-2.557564000">
        <ele>485.30</ele>
        <time>2015-01-17T07:54:26Z</time>
      </trkpt>
      <trkpt lat="42.429156000" lon="-2.557608000">
        <ele>485.40</ele>
        <time>2015-01-17T07:54:27Z</time>
      </trkpt>
      <trkpt lat="42.429148000" lon="-2.557653000">
        <ele>485.50</ele>
        <time>2015-01-17T07:54:28Z</time>
      </trkpt>
      <trkpt lat="42.429137000" lon="-2.557694000">
        <ele>485.60</ele>
        <time>2015-01-17T07:54:29Z</time>
      </trkpt>
      <trkpt lat="42.429129000" lon="-2.557734000">
        <ele>485.90</ele>
        <time>2015-01-17T07:54:30Z</time>
      </trkpt>
      <trkpt lat="42.429122000" lon="-2.557776000">
        <ele>486.10</ele>
        <time>2015-01-17T07:54:31Z</time>
      </trkpt>
      <trkpt lat="42.429112000" lon="-2.557817000">
        <ele>486.30</ele>
        <time>2015-01-17T07:54:32Z</time>
      </trkpt>
      <trkpt lat="42.429103000" lon="-2.557859000">
        <ele>486.40</ele>
        <time>2015-01-17T07:54:33Z</time>
      </trkpt>
      <trkpt lat="42.429096000" lon="-2.557902000">
        <ele>486.50</ele>
        <time>2015-01-17T07:54:34Z</time>
      </trkpt>
      <trkpt lat="42.429090000" lon="-2.557943000">
        <ele>486.60</ele>
        <time>2015-01-17T07:54:35Z</time>
      </trkpt>
      <trkpt lat="42.429084000" lon="-2.557982000">
        <ele>486.80</ele>
        <time>2015-01-17T07:54:36Z</time>
      </trkpt>
      <trkpt lat="42.429078000" lon="-2.558023000">
        <ele>486.90</ele>
        <time>2015-01-17T07:54:37Z</time>
      </trkpt>
      <trkpt lat="42.429071000" lon="-2.558060000">
        <ele>487.10</ele>
        <time>2015-01-17T07:54:38Z</time>
      </trkpt>
      <trkpt lat="42.429067000" lon="-2.558099000">
        <ele>487.20</ele>
        <time>2015-01-17T07:54:39Z</time>
      </trkpt>
      <trkpt lat="42.429062000" lon="-2.558142000">
        <ele>487.50</ele>
        <time>2015-01-17T07:54:40Z</time>
      </trkpt>
      <trkpt lat="42.429058000" lon="-2.558185000">
        <ele>487.70</ele>
        <time>2015-01-17T07:54:41Z</time>
      </trkpt>
      <trkpt lat="42.429054000" lon="-2.558228000">
        <ele>487.80</ele>
        <time>2015-01-17T07:54:42Z</time>
      </trkpt>
      <trkpt lat="42.429049000" lon="-2.558270000">
        <ele>487.90</ele>
        <time>2015-01-17T07:54:43Z</time>
      </trkpt>
      <trkpt lat="42.429049000" lon="-2.558311000">
        <ele>488.00</ele>
        <time>2015-01-17T07:54:44Z</time>
      </trkpt>
      <trkpt lat="42.429048000" lon="-2.558355000">
        <ele>488.00</ele>
        <time>2015-01-17T07:54:45Z</time>
      </trkpt>
      <trkpt lat="42.429053000" lon="-2.558400000">
        <ele>488.30</ele>
        <time>2015-01-17T07:54:46Z</time>
      </trkpt>
      <trkpt lat="42.429042000" lon="-2.558444000">
        <ele>488.50</ele>
        <time>2015-01-17T07:54:47Z</time>
      </trkpt>
      <trkpt lat="42.429034000" lon="-2.558488000">
        <ele>488.60</ele>
        <time>2015-01-17T07:54:48Z</time>
      </trkpt>
      <trkpt lat="42.429029000" lon="-2.558533000">
        <ele>488.70</ele>
        <time>2015-01-17T07:54:49Z</time>
      </trkpt>
      <trkpt lat="42.429024000" lon="-2.558577000">
        <ele>488.90</ele>
        <time>2015-01-17T07:54:50Z</time>
      </trkpt>
      <trkpt lat="42.429022000" lon="-2.558617000">
        <ele>489.00</ele>
        <time>2015-01-17T07:54:51Z</time>
      </trkpt>
      <trkpt lat="42.429020000" lon="-2.558658000">
        <ele>489.10</ele>
        <time>2015-01-17T07:54:52Z</time>
      </trkpt>
      <trkpt lat="42.429014000" lon="-2.558696000">
        <ele>489.10</ele>
        <time>2015-01-17T07:54:53Z</time>
      </trkpt>
      <trkpt lat="42.429007000" lon="-2.558736000">
        <ele>489.30</ele>
        <time>2015-01-17T07:54:54Z</time>
      </trkpt>
      <trkpt lat="42.429001000" lon="-2.558777000">
        <ele>489.40</ele>
        <time>2015-01-17T07:54:55Z</time>
      </trkpt>
      <trkpt lat="42.428991000" lon="-2.558815000">
        <ele>489.60</ele>
        <time>2015-01-17T07:54:56Z</time>
      </trkpt>
      <trkpt lat="42.428985000" lon="-2.558855000">
        <ele>489.70</ele>
        <time>2015-01-17T07:54:57Z</time>
      </trkpt>
      <trkpt lat="42.428980000" lon="-2.558895000">
        <ele>489.80</ele>
        <time>2015-01-17T07:54:58Z</time>
      </trkpt>
      <trkpt lat="42.428976000" lon="-2.558938000">
        <ele>489.90</ele>
        <time>2015-01-17T07:54:59Z</time>
      </trkpt>
      <trkpt lat="42.428969000" lon="-2.558978000">
        <ele>490.00</ele>
        <time>2015-01-17T07:55:00Z</time>
      </trkpt>
      <trkpt lat="42.428966000" lon="-2.559022000">
        <ele>490.10</ele>
        <time>2015-01-17T07:55:01Z</time>
      </trkpt>
      <trkpt lat="42.428962000" lon="-2.559065000">
        <ele>490.40</ele>
        <time>2015-01-17T07:55:02Z</time>
      </trkpt>
      <trkpt lat="42.428959000" lon="-2.559109000">
        <ele>490.60</ele>
        <time>2015-01-17T07:55:03Z</time>
      </trkpt>
      <trkpt lat="42.428953000" lon="-2.559154000">
        <ele>490.70</ele>
        <time>2015-01-17T07:55:04Z</time>
      </trkpt>
      <trkpt lat="42.428950000" lon="-2.559197000">
        <ele>490.80</ele>
        <time>2015-01-17T07:55:05Z</time>
      </trkpt>
      <trkpt lat="42.428948000" lon="-2.559241000">
        <ele>490.90</ele>
        <time>2015-01-17T07:55:06Z</time>
      </trkpt>
      <trkpt lat="42.428947000" lon="-2.559284000">
        <ele>491.00</ele>
        <time>2015-01-17T07:55:07Z</time>
      </trkpt>
      <trkpt lat="42.428940000" lon="-2.559326000">
        <ele>491.20</ele>
        <time>2015-01-17T07:55:08Z</time>
      </trkpt>
      <trkpt lat="42.428932000" lon="-2.559363000">
        <ele>491.40</ele>
        <time>2015-01-17T07:55:09Z</time>
      </trkpt>
      <trkpt lat="42.428917000" lon="-2.559401000">
        <ele>491.50</ele>
        <time>2015-01-17T07:55:10Z</time>
      </trkpt>
      <trkpt lat="42.428905000" lon="-2.559438000">
        <ele>491.60</ele>
        <time>2015-01-17T07:55:11Z</time>
      </trkpt>
      <trkpt lat="42.428892000" lon="-2.559477000">
        <ele>491.90</ele>
        <time>2015-01-17T07:55:12Z</time>
      </trkpt>
      <trkpt lat="42.428889000" lon="-2.559517000">
        <ele>492.20</ele>
        <time>2015-01-17T07:55:13Z</time>
      </trkpt>
      <trkpt lat="42.428881000" lon="-2.559554000">
        <ele>492.30</ele>
        <time>2015-01-17T07:55:14Z</time>
      </trkpt>
      <trkpt lat="42.428874000" lon="-2.559593000">
        <ele>492.50</ele>
        <time>2015-01-17T07:55:15Z</time>
      </trkpt>
      <trkpt lat="42.428865000" lon="-2.559629000">
        <ele>492.60</ele>
        <time>2015-01-17T07:55:16Z</time>
      </trkpt>
      <trkpt lat="42.428859000" lon="-2.559667000">
        <ele>492.70</ele>
        <time>2015-01-17T07:55:17Z</time>
      </trkpt>
      <trkpt lat="42.428852000" lon="-2.559704000">
        <ele>492.80</ele>
        <time>2015-01-17T07:55:18Z</time>
      </trkpt>
      <trkpt lat="42.428841000" lon="-2.559740000">
        <ele>492.80</ele>
        <time>2015-01-17T07:55:19Z</time>
      </trkpt>
      <trkpt lat="42.428834000" lon="-2.559778000">
        <ele>492.80</ele>
        <time>2015-01-17T07:55:20Z</time>
      </trkpt>
      <trkpt lat="42.428825000" lon="-2.559817000">
        <ele>492.90</ele>
        <time>2015-01-17T07:55:21Z</time>
      </trkpt>
      <trkpt lat="42.428817000" lon="-2.559854000">
        <ele>493.00</ele>
        <time>2015-01-17T07:55:22Z</time>
      </trkpt>
      <trkpt lat="42.428802000" lon="-2.559930000">
        <ele>493.40</ele>
        <time>2015-01-17T07:55:24Z</time>
      </trkpt>
      <trkpt lat="42.428798000" lon="-2.559971000">
        <ele>493.60</ele>
        <time>2015-01-17T07:55:25Z</time>
      </trkpt>
      <trkpt lat="42.428793000" lon="-2.560010000">
        <ele>493.70</ele>
        <time>2015-01-17T07:55:26Z</time>
      </trkpt>
      <trkpt lat="42.428788000" lon="-2.560051000">
        <ele>493.80</ele>
        <time>2015-01-17T07:55:27Z</time>
      </trkpt>
      <trkpt lat="42.428785000" lon="-2.560091000">
        <ele>493.90</ele>
        <time>2015-01-17T07:55:28Z</time>
      </trkpt>
      <trkpt lat="42.428783000" lon="-2.560135000">
        <ele>494.00</ele>
        <time>2015-01-17T07:55:29Z</time>
      </trkpt>
      <trkpt lat="42.428778000" lon="-2.560176000">
        <ele>494.10</ele>
        <time>2015-01-17T07:55:30Z</time>
      </trkpt>
      <trkpt lat="42.428792000" lon="-2.560216000">
        <ele>494.10</ele>
        <time>2015-01-17T07:55:31Z</time>
      </trkpt>
      <trkpt lat="42.428805000" lon="-2.560258000">
        <ele>494.20</ele>
        <time>2015-01-17T07:55:32Z</time>
      </trkpt>
      <trkpt lat="42.428804000" lon="-2.560297000">
        <ele>494.30</ele>
        <time>2015-01-17T07:55:33Z</time>
      </trkpt>
      <trkpt lat="42.428804000" lon="-2.560333000">
        <ele>494.40</ele>
        <time>2015-01-17T07:55:34Z</time>
      </trkpt>
      <trkpt lat="42.428801000" lon="-2.560363000">
        <ele>494.60</ele>
        <time>2015-01-17T07:55:35Z</time>
      </trkpt>
      <trkpt lat="42.428798000" lon="-2.560389000">
        <ele>494.70</ele>
        <time>2015-01-17T07:55:36Z</time>
      </trkpt>
      <trkpt lat="42.428794000" lon="-2.560416000">
        <ele>494.70</ele>
        <time>2015-01-17T07:55:37Z</time>
      </trkpt>
      <trkpt lat="42.428791000" lon="-2.560443000">
        <ele>494.90</ele>
        <time>2015-01-17T07:55:38Z</time>
      </trkpt>
      <trkpt lat="42.428787000" lon="-2.560480000">
        <ele>495.10</ele>
        <time>2015-01-17T07:55:39Z</time>
      </trkpt>
      <trkpt lat="42.428779000" lon="-2.560521000">
        <ele>495.10</ele>
        <time>2015-01-17T07:55:40Z</time>
      </trkpt>
      <trkpt lat="42.428770000" lon="-2.560564000">
        <ele>495.10</ele>
        <time>2015-01-17T07:55:41Z</time>
      </trkpt>
      <trkpt lat="42.428761000" lon="-2.560607000">
        <ele>495.30</ele>
        <time>2015-01-17T07:55:42Z</time>
      </trkpt>
      <trkpt lat="42.428754000" lon="-2.560651000">
        <ele>495.50</ele>
        <time>2015-01-17T07:55:43Z</time>
      </trkpt>
      <trkpt lat="42.428752000" lon="-2.560693000">
        <ele>495.60</ele>
        <time>2015-01-17T07:55:44Z</time>
      </trkpt>
      <trkpt lat="42.428747000" lon="-2.560732000">
        <ele>495.70</ele>
        <time>2015-01-17T07:55:45Z</time>
      </trkpt>
      <trkpt lat="42.428769000" lon="-2.560776000">
        <ele>495.80</ele>
        <time>2015-01-17T07:55:46Z</time>
      </trkpt>
      <trkpt lat="42.428777000" lon="-2.560816000">
        <ele>495.80</ele>
        <time>2015-01-17T07:55:47Z</time>
      </trkpt>
      <trkpt lat="42.428777000" lon="-2.560856000">
        <ele>495.90</ele>
        <time>2015-01-17T07:55:48Z</time>
      </trkpt>
      <trkpt lat="42.428780000" lon="-2.560897000">
        <ele>496.00</ele>
        <time>2015-01-17T07:55:49Z</time>
      </trkpt>
      <trkpt lat="42.428787000" lon="-2.560936000">
        <ele>496.10</ele>
        <time>2015-01-17T07:55:50Z</time>
      </trkpt>
      <trkpt lat="42.428794000" lon="-2.560978000">
        <ele>496.10</ele>
        <time>2015-01-17T07:55:51Z</time>
      </trkpt>
      <trkpt lat="42.428794000" lon="-2.561018000">
        <ele>496.30</ele>
        <time>2015-01-17T07:55:52Z</time>
      </trkpt>
      <trkpt lat="42.428796000" lon="-2.561057000">
        <ele>496.40</ele>
        <time>2015-01-17T07:55:53Z</time>
      </trkpt>
      <trkpt lat="42.428795000" lon="-2.561096000">
        <ele>496.60</ele>
        <time>2015-01-17T07:55:54Z</time>
      </trkpt>
      <trkpt lat="42.428796000" lon="-2.561138000">
        <ele>496.70</ele>
        <time>2015-01-17T07:55:55Z</time>
      </trkpt>
      <trkpt lat="42.428796000" lon="-2.561175000">
        <ele>496.80</ele>
        <time>2015-01-17T07:55:56Z</time>
      </trkpt>
      <trkpt lat="42.428799000" lon="-2.561214000">
        <ele>496.80</ele>
        <time>2015-01-17T07:55:57Z</time>
      </trkpt>
      <trkpt lat="42.428801000" lon="-2.561255000">
        <ele>496.90</ele>
        <time>2015-01-17T07:55:58Z</time>
      </trkpt>
      <trkpt lat="42.428807000" lon="-2.561296000">
        <ele>497.00</ele>
        <time>2015-01-17T07:55:59Z</time>
      </trkpt>
      <trkpt lat="42.428815000" lon="-2.561338000">
        <ele>497.20</ele>
        <time>2015-01-17T07:56:00Z</time>
      </trkpt>
      <trkpt lat="42.428822000" lon="-2.561377000">
        <ele>497.40</ele>
        <time>2015-01-17T07:56:01Z</time>
      </trkpt>
      <trkpt lat="42.428833000" lon="-2.561414000">
        <ele>497.40</ele>
        <time>2015-01-17T07:56:02Z</time>
      </trkpt>
      <trkpt lat="42.428840000" lon="-2.561454000">
        <ele>497.30</ele>
        <time>2015-01-17T07:56:03Z</time>
      </trkpt>
      <trkpt lat="42.428847000" lon="-2.561494000">
        <ele>497.50</ele>
        <time>2015-01-17T07:56:04Z</time>
      </trkpt>
      <trkpt lat="42.428850000" lon="-2.561533000">
        <ele>497.50</ele>
        <time>2015-01-17T07:56:05Z</time>
      </trkpt>
      <trkpt lat="42.428859000" lon="-2.561572000">
        <ele>497.60</ele>
        <time>2015-01-17T07:56:06Z</time>
      </trkpt>
      <trkpt lat="42.428867000" lon="-2.561608000">
        <ele>497.70</ele>
        <time>2015-01-17T07:56:07Z</time>
      </trkpt>
      <trkpt lat="42.428871000" lon="-2.561646000">
        <ele>497.80</ele>
        <time>2015-01-17T07:56:08Z</time>
      </trkpt>
      <trkpt lat="42.428877000" lon="-2.561683000">
        <ele>498.00</ele>
        <time>2015-01-17T07:56:09Z</time>
      </trkpt>
      <trkpt lat="42.428883000" lon="-2.561722000">
        <ele>498.10</ele>
        <time>2015-01-17T07:56:10Z</time>
      </trkpt>
      <trkpt lat="42.428894000" lon="-2.561760000">
        <ele>498.10</ele>
        <time>2015-01-17T07:56:11Z</time>
      </trkpt>
      <trkpt lat="42.428903000" lon="-2.561799000">
        <ele>498.20</ele>
        <time>2015-01-17T07:56:12Z</time>
      </trkpt>
      <trkpt lat="42.428917000" lon="-2.561836000">
        <ele>498.20</ele>
        <time>2015-01-17T07:56:13Z</time>
      </trkpt>
      <trkpt lat="42.428924000" lon="-2.561874000">
        <ele>498.40</ele>
        <time>2015-01-17T07:56:14Z</time>
      </trkpt>
      <trkpt lat="42.428945000" lon="-2.561914000">
        <ele>498.50</ele>
        <time>2015-01-17T07:56:15Z</time>
      </trkpt>
      <trkpt lat="42.428958000" lon="-2.561948000">
        <ele>498.70</ele>
        <time>2015-01-17T07:56:16Z</time>
      </trkpt>
      <trkpt lat="42.428971000" lon="-2.561977000">
        <ele>498.90</ele>
        <time>2015-01-17T07:56:17Z</time>
      </trkpt>
      <trkpt lat="42.428984000" lon="-2.562003000">
        <ele>499.00</ele>
        <time>2015-01-17T07:56:18Z</time>
      </trkpt>
      <trkpt lat="42.428995000" lon="-2.562028000">
        <ele>499.10</ele>
        <time>2015-01-17T07:56:19Z</time>
      </trkpt>
      <trkpt lat="42.429000000" lon="-2.562048000">
        <ele>499.30</ele>
        <time>2015-01-17T07:56:20Z</time>
      </trkpt>
      <trkpt lat="42.429007000" lon="-2.562067000">
        <ele>499.40</ele>
        <time>2015-01-17T07:56:21Z</time>
      </trkpt>
      <trkpt lat="42.429011000" lon="-2.562087000">
        <ele>499.60</ele>
        <time>2015-01-17T07:56:22Z</time>
      </trkpt>
      <trkpt lat="42.429016000" lon="-2.562104000">
        <ele>499.60</ele>
        <time>2015-01-17T07:56:23Z</time>
      </trkpt>
      <trkpt lat="42.429028000" lon="-2.562145000">
        <ele>499.80</ele>
        <time>2015-01-17T07:56:25Z</time>
      </trkpt>
      <trkpt lat="42.429040000" lon="-2.562170000">
        <ele>499.80</ele>
        <time>2015-01-17T07:56:26Z</time>
      </trkpt>
      <trkpt lat="42.429049000" lon="-2.562189000">
        <ele>499.80</ele>
        <time>2015-01-17T07:56:27Z</time>
      </trkpt>
      <trkpt lat="42.429061000" lon="-2.562211000">
        <ele>499.80</ele>
        <time>2015-01-17T07:56:28Z</time>
      </trkpt>
      <trkpt lat="42.429072000" lon="-2.562235000">
        <ele>499.80</ele>
        <time>2015-01-17T07:56:29Z</time>
      </trkpt>
      <trkpt lat="42.429080000" lon="-2.562260000">
        <ele>499.80</ele>
        <time>2015-01-17T07:56:30Z</time>
      </trkpt>
      <trkpt lat="42.429090000" lon="-2.562282000">
        <ele>499.80</ele>
        <time>2015-01-17T07:56:31Z</time>
      </trkpt>
      <trkpt lat="42.429098000" lon="-2.562302000">
        <ele>499.90</ele>
        <time>2015-01-17T07:56:32Z</time>
      </trkpt>
      <trkpt lat="42.429104000" lon="-2.562322000">
        <ele>500.00</ele>
        <time>2015-01-17T07:56:33Z</time>
      </trkpt>
      <trkpt lat="42.429112000" lon="-2.562342000">
        <ele>500.00</ele>
        <time>2015-01-17T07:56:34Z</time>
      </trkpt>
      <trkpt lat="42.429119000" lon="-2.562367000">
        <ele>500.10</ele>
        <time>2015-01-17T07:56:35Z</time>
      </trkpt>
      <trkpt lat="42.429125000" lon="-2.562392000">
        <ele>500.10</ele>
        <time>2015-01-17T07:56:36Z</time>
      </trkpt>
      <trkpt lat="42.429131000" lon="-2.562421000">
        <ele>500.20</ele>
        <time>2015-01-17T07:56:37Z</time>
      </trkpt>
      <trkpt lat="42.429138000" lon="-2.562451000">
        <ele>500.20</ele>
        <time>2015-01-17T07:56:38Z</time>
      </trkpt>
      <trkpt lat="42.429148000" lon="-2.562478000">
        <ele>500.30</ele>
        <time>2015-01-17T07:56:39Z</time>
      </trkpt>
      <trkpt lat="42.429164000" lon="-2.562494000">
        <ele>500.40</ele>
        <time>2015-01-17T07:56:40Z</time>
      </trkpt>
      <trkpt lat="42.429175000" lon="-2.562524000">
        <ele>500.40</ele>
        <time>2015-01-17T07:56:41Z</time>
      </trkpt>
      <trkpt lat="42.429190000" lon="-2.562543000">
        <ele>500.50</ele>
        <time>2015-01-17T07:56:42Z</time>
      </trkpt>
      <trkpt lat="42.429204000" lon="-2.562573000">
        <ele>500.50</ele>
        <time>2015-01-17T07:56:43Z</time>
      </trkpt>
      <trkpt lat="42.429220000" lon="-2.562603000">
        <ele>500.50</ele>
        <time>2015-01-17T07:56:44Z</time>
      </trkpt>
      <trkpt lat="42.429231000" lon="-2.562637000">
        <ele>500.50</ele>
        <time>2015-01-17T07:56:45Z</time>
      </trkpt>
      <trkpt lat="42.429240000" lon="-2.562672000">
        <ele>500.60</ele>
        <time>2015-01-17T07:56:46Z</time>
      </trkpt>
      <trkpt lat="42.429251000" lon="-2.562704000">
        <ele>500.70</ele>
        <time>2015-01-17T07:56:47Z</time>
      </trkpt>
      <trkpt lat="42.429265000" lon="-2.562735000">
        <ele>500.70</ele>
        <time>2015-01-17T07:56:48Z</time>
      </trkpt>
      <trkpt lat="42.429278000" lon="-2.562766000">
        <ele>500.70</ele>
        <time>2015-01-17T07:56:49Z</time>
      </trkpt>
      <trkpt lat="42.429291000" lon="-2.562796000">
        <ele>500.80</ele>
        <time>2015-01-17T07:56:50Z</time>
      </trkpt>
      <trkpt lat="42.429300000" lon="-2.562826000">
        <ele>500.80</ele>
        <time>2015-01-17T07:56:51Z</time>
      </trkpt>
      <trkpt lat="42.429313000" lon="-2.562855000">
        <ele>500.90</ele>
        <time>2015-01-17T07:56:52Z</time>
      </trkpt>
      <trkpt lat="42.429326000" lon="-2.562887000">
        <ele>501.00</ele>
        <time>2015-01-17T07:56:53Z</time>
      </trkpt>
      <trkpt lat="42.429338000" lon="-2.562924000">
        <ele>501.10</ele>
        <time>2015-01-17T07:56:54Z</time>
      </trkpt>
      <trkpt lat="42.429351000" lon="-2.562961000">
        <ele>501.10</ele>
        <time>2015-01-17T07:56:55Z</time>
      </trkpt>
      <trkpt lat="42.429365000" lon="-2.562997000">
        <ele>501.30</ele>
        <time>2015-01-17T07:56:56Z</time>
      </trkpt>
      <trkpt lat="42.429379000" lon="-2.563035000">
        <ele>501.40</ele>
        <time>2015-01-17T07:56:57Z</time>
      </trkpt>
      <trkpt lat="42.429393000" lon="-2.563073000">
        <ele>501.50</ele>
        <time>2015-01-17T07:56:58Z</time>
      </trkpt>
      <trkpt lat="42.429404000" lon="-2.563111000">
        <ele>501.60</ele>
        <time>2015-01-17T07:56:59Z</time>
      </trkpt>
      <trkpt lat="42.429417000" lon="-2.563153000">
        <ele>501.70</ele>
        <time>2015-01-17T07:57:00Z</time>
      </trkpt>
      <trkpt lat="42.429433000" lon="-2.563196000">
        <ele>501.80</ele>
        <time>2015-01-17T07:57:01Z</time>
      </trkpt>
      <trkpt lat="42.429450000" lon="-2.563233000">
        <ele>501.90</ele>
        <time>2015-01-17T07:57:02Z</time>
      </trkpt>
      <trkpt lat="42.429470000" lon="-2.563270000">
        <ele>501.90</ele>
        <time>2015-01-17T07:57:03Z</time>
      </trkpt>
      <trkpt lat="42.429491000" lon="-2.563305000">
        <ele>502.00</ele>
        <time>2015-01-17T07:57:04Z</time>
      </trkpt>
      <trkpt lat="42.429511000" lon="-2.563344000">
        <ele>502.10</ele>
        <time>2015-01-17T07:57:05Z</time>
      </trkpt>
      <trkpt lat="42.429532000" lon="-2.563382000">
        <ele>502.10</ele>
        <time>2015-01-17T07:57:06Z</time>
      </trkpt>
      <trkpt lat="42.429553000" lon="-2.563420000">
        <ele>502.10</ele>
        <time>2015-01-17T07:57:07Z</time>
      </trkpt>
      <trkpt lat="42.429574000" lon="-2.563457000">
        <ele>501.90</ele>
        <time>2015-01-17T07:57:08Z</time>
      </trkpt>
      <trkpt lat="42.429591000" lon="-2.563498000">
        <ele>501.80</ele>
        <time>2015-01-17T07:57:09Z</time>
      </trkpt>
      <trkpt lat="42.429607000" lon="-2.563541000">
        <ele>501.70</ele>
        <time>2015-01-17T07:57:10Z</time>
      </trkpt>
      <trkpt lat="42.429623000" lon="-2.563582000">
        <ele>501.60</ele>
        <time>2015-01-17T07:57:11Z</time>
      </trkpt>
      <trkpt lat="42.429644000" lon="-2.563620000">
        <ele>501.60</ele>
        <time>2015-01-17T07:57:12Z</time>
      </trkpt>
      <trkpt lat="42.429665000" lon="-2.563653000">
        <ele>501.60</ele>
        <time>2015-01-17T07:57:13Z</time>
      </trkpt>
      <trkpt lat="42.429686000" lon="-2.563689000">
        <ele>501.50</ele>
        <time>2015-01-17T07:57:14Z</time>
      </trkpt>
      <trkpt lat="42.429710000" lon="-2.563721000">
        <ele>501.40</ele>
        <time>2015-01-17T07:57:15Z</time>
      </trkpt>
      <trkpt lat="42.429733000" lon="-2.563754000">
        <ele>501.70</ele>
        <time>2015-01-17T07:57:16Z</time>
      </trkpt>
      <trkpt lat="42.429758000" lon="-2.563788000">
        <ele>501.80</ele>
        <time>2015-01-17T07:57:17Z</time>
      </trkpt>
      <trkpt lat="42.429780000" lon="-2.563824000">
        <ele>501.70</ele>
        <time>2015-01-17T07:57:18Z</time>
      </trkpt>
      <trkpt lat="42.429803000" lon="-2.563860000">
        <ele>501.60</ele>
        <time>2015-01-17T07:57:19Z</time>
      </trkpt>
      <trkpt lat="42.429828000" lon="-2.563896000">
        <ele>501.50</ele>
        <time>2015-01-17T07:57:20Z</time>
      </trkpt>
      <trkpt lat="42.429856000" lon="-2.563924000">
        <ele>501.50</ele>
        <time>2015-01-17T07:57:21Z</time>
      </trkpt>
      <trkpt lat="42.429879000" lon="-2.563961000">
        <ele>501.40</ele>
        <time>2015-01-17T07:57:22Z</time>
      </trkpt>
      <trkpt lat="42.429895000" lon="-2.564002000">
        <ele>501.40</ele>
        <time>2015-01-17T07:57:23Z</time>
      </trkpt>
      <trkpt lat="42.429914000" lon="-2.564039000">
        <ele>501.20</ele>
        <time>2015-01-17T07:57:24Z</time>
      </trkpt>
      <trkpt lat="42.429956000" lon="-2.564103000">
        <ele>501.20</ele>
        <time>2015-01-17T07:57:26Z</time>
      </trkpt>
      <trkpt lat="42.429979000" lon="-2.564130000">
        <ele>501.30</ele>
        <time>2015-01-17T07:57:27Z</time>
      </trkpt>
      <trkpt lat="42.429995000" lon="-2.564159000">
        <ele>501.40</ele>
        <time>2015-01-17T07:57:28Z</time>
      </trkpt>
      <trkpt lat="42.430012000" lon="-2.564191000">
        <ele>501.50</ele>
        <time>2015-01-17T07:57:29Z</time>
      </trkpt>
      <trkpt lat="42.430033000" lon="-2.564223000">
        <ele>501.60</ele>
        <time>2015-01-17T07:57:30Z</time>
      </trkpt>
      <trkpt lat="42.430053000" lon="-2.564255000">
        <ele>501.60</ele>
        <time>2015-01-17T07:57:31Z</time>
      </trkpt>
      <trkpt lat="42.430077000" lon="-2.564282000">
        <ele>501.50</ele>
        <time>2015-01-17T07:57:32Z</time>
      </trkpt>
      <trkpt lat="42.430101000" lon="-2.564311000">
        <ele>501.40</ele>
        <time>2015-01-17T07:57:33Z</time>
      </trkpt>
      <trkpt lat="42.430127000" lon="-2.564342000">
        <ele>501.40</ele>
        <time>2015-01-17T07:57:34Z</time>
      </trkpt>
      <trkpt lat="42.430152000" lon="-2.564370000">
        <ele>501.30</ele>
        <time>2015-01-17T07:57:35Z</time>
      </trkpt>
      <trkpt lat="42.430177000" lon="-2.564394000">
        <ele>501.30</ele>
        <time>2015-01-17T07:57:36Z</time>
      </trkpt>
      <trkpt lat="42.430204000" lon="-2.564411000">
        <ele>501.20</ele>
        <time>2015-01-17T07:57:37Z</time>
      </trkpt>
      <trkpt lat="42.430228000" lon="-2.564429000">
        <ele>501.20</ele>
        <time>2015-01-17T07:57:38Z</time>
      </trkpt>
      <trkpt lat="42.430251000" lon="-2.564448000">
        <ele>501.20</ele>
        <time>2015-01-17T07:57:39Z</time>
      </trkpt>
      <trkpt lat="42.430282000" lon="-2.564471000">
        <ele>501.20</ele>
        <time>2015-01-17T07:57:40Z</time>
      </trkpt>
      <trkpt lat="42.430314000" lon="-2.564494000">
        <ele>501.10</ele>
        <time>2015-01-17T07:57:41Z</time>
      </trkpt>
      <trkpt lat="42.430346000" lon="-2.564514000">
        <ele>501.10</ele>
        <time>2015-01-17T07:57:42Z</time>
      </trkpt>
      <trkpt lat="42.430378000" lon="-2.564533000">
        <ele>501.10</ele>
        <time>2015-01-17T07:57:43Z</time>
      </trkpt>
      <trkpt lat="42.430408000" lon="-2.564546000">
        <ele>501.10</ele>
        <time>2015-01-17T07:57:44Z</time>
      </trkpt>
      <trkpt lat="42.430438000" lon="-2.564566000">
        <ele>501.10</ele>
        <time>2015-01-17T07:57:45Z</time>
      </trkpt>
      <trkpt lat="42.430470000" lon="-2.564585000">
        <ele>501.40</ele>
        <time>2015-01-17T07:57:46Z</time>
      </trkpt>
      <trkpt lat="42.430505000" lon="-2.564613000">
        <ele>501.50</ele>
        <time>2015-01-17T07:57:47Z</time>
      </trkpt>
      <trkpt lat="42.430538000" lon="-2.564637000">
        <ele>501.70</ele>
        <time>2015-01-17T07:57:48Z</time>
      </trkpt>
      <trkpt lat="42.430572000" lon="-2.564661000">
        <ele>501.80</ele>
        <time>2015-01-17T07:57:49Z</time>
      </trkpt>
      <trkpt lat="42.430603000" lon="-2.564687000">
        <ele>501.60</ele>
        <time>2015-01-17T07:57:50Z</time>
      </trkpt>
      <trkpt lat="42.430611000" lon="-2.564723000">
        <ele>501.60</ele>
        <time>2015-01-17T07:57:51Z</time>
      </trkpt>
      <trkpt lat="42.430617000" lon="-2.564765000">
        <ele>501.40</ele>
        <time>2015-01-17T07:57:52Z</time>
      </trkpt>
      <trkpt lat="42.430615000" lon="-2.564811000">
        <ele>501.20</ele>
        <time>2015-01-17T07:57:53Z</time>
      </trkpt>
      <trkpt lat="42.430610000" lon="-2.564858000">
        <ele>501.10</ele>
        <time>2015-01-17T07:57:54Z</time>
      </trkpt>
      <trkpt lat="42.430604000" lon="-2.564910000">
        <ele>501.10</ele>
        <time>2015-01-17T07:57:55Z</time>
      </trkpt>
      <trkpt lat="42.430601000" lon="-2.564963000">
        <ele>500.90</ele>
        <time>2015-01-17T07:57:56Z</time>
      </trkpt>
      <trkpt lat="42.430603000" lon="-2.565019000">
        <ele>500.80</ele>
        <time>2015-01-17T07:57:57Z</time>
      </trkpt>
      <trkpt lat="42.430601000" lon="-2.565079000">
        <ele>500.80</ele>
        <time>2015-01-17T07:57:58Z</time>
      </trkpt>
      <trkpt lat="42.430598000" lon="-2.565139000">
        <ele>500.80</ele>
        <time>2015-01-17T07:57:59Z</time>
      </trkpt>
      <trkpt lat="42.430589000" lon="-2.565196000">
        <ele>500.80</ele>
        <time>2015-01-17T07:58:00Z</time>
      </trkpt>
      <trkpt lat="42.430582000" lon="-2.565255000">
        <ele>500.80</ele>
        <time>2015-01-17T07:58:01Z</time>
      </trkpt>
      <trkpt lat="42.430569000" lon="-2.565311000">
        <ele>500.80</ele>
        <time>2015-01-17T07:58:02Z</time>
      </trkpt>
      <trkpt lat="42.430553000" lon="-2.565365000">
        <ele>500.80</ele>
        <time>2015-01-17T07:58:03Z</time>
      </trkpt>
      <trkpt lat="42.430542000" lon="-2.565413000">
        <ele>500.90</ele>
        <time>2015-01-17T07:58:04Z</time>
      </trkpt>
      <trkpt lat="42.430532000" lon="-2.565461000">
        <ele>500.90</ele>
        <time>2015-01-17T07:58:05Z</time>
      </trkpt>
      <trkpt lat="42.430523000" lon="-2.565512000">
        <ele>500.90</ele>
        <time>2015-01-17T07:58:06Z</time>
      </trkpt>
      <trkpt lat="42.430510000" lon="-2.565561000">
        <ele>500.90</ele>
        <time>2015-01-17T07:58:07Z</time>
      </trkpt>
      <trkpt lat="42.430497000" lon="-2.565610000">
        <ele>500.80</ele>
        <time>2015-01-17T07:58:08Z</time>
      </trkpt>
      <trkpt lat="42.430485000" lon="-2.565659000">
        <ele>500.70</ele>
        <time>2015-01-17T07:58:09Z</time>
      </trkpt>
      <trkpt lat="42.430471000" lon="-2.565707000">
        <ele>500.60</ele>
        <time>2015-01-17T07:58:10Z</time>
      </trkpt>
      <trkpt lat="42.430462000" lon="-2.565756000">
        <ele>500.50</ele>
        <time>2015-01-17T07:58:11Z</time>
      </trkpt>
      <trkpt lat="42.430450000" lon="-2.565805000">
        <ele>500.40</ele>
        <time>2015-01-17T07:58:12Z</time>
      </trkpt>
      <trkpt lat="42.430440000" lon="-2.565854000">
        <ele>500.40</ele>
        <time>2015-01-17T07:58:13Z</time>
      </trkpt>
      <trkpt lat="42.430431000" lon="-2.565904000">
        <ele>500.30</ele>
        <time>2015-01-17T07:58:14Z</time>
      </trkpt>
      <trkpt lat="42.430419000" lon="-2.565952000">
        <ele>500.20</ele>
        <time>2015-01-17T07:58:15Z</time>
      </trkpt>
      <trkpt lat="42.430411000" lon="-2.566003000">
        <ele>500.30</ele>
        <time>2015-01-17T07:58:16Z</time>
      </trkpt>
      <trkpt lat="42.430403000" lon="-2.566057000">
        <ele>500.40</ele>
        <time>2015-01-17T07:58:17Z</time>
      </trkpt>
      <trkpt lat="42.430395000" lon="-2.566110000">
        <ele>500.50</ele>
        <time>2015-01-17T07:58:18Z</time>
      </trkpt>
      <trkpt lat="42.430387000" lon="-2.566161000">
        <ele>500.50</ele>
        <time>2015-01-17T07:58:19Z</time>
      </trkpt>
      <trkpt lat="42.430384000" lon="-2.566209000">
        <ele>500.60</ele>
        <time>2015-01-17T07:58:20Z</time>
      </trkpt>
      <trkpt lat="42.430379000" lon="-2.566260000">
        <ele>500.60</ele>
        <time>2015-01-17T07:58:21Z</time>
      </trkpt>
      <trkpt lat="42.430375000" lon="-2.566312000">
        <ele>500.70</ele>
        <time>2015-01-17T07:58:22Z</time>
      </trkpt>
      <trkpt lat="42.430368000" lon="-2.566360000">
        <ele>500.80</ele>
        <time>2015-01-17T07:58:23Z</time>
      </trkpt>
      <trkpt lat="42.430361000" lon="-2.566412000">
        <ele>500.80</ele>
        <time>2015-01-17T07:58:24Z</time>
      </trkpt>
      <trkpt lat="42.430352000" lon="-2.566460000">
        <ele>500.80</ele>
        <time>2015-01-17T07:58:25Z</time>
      </trkpt>
      <trkpt lat="42.430333000" lon="-2.566557000">
        <ele>500.80</ele>
        <time>2015-01-17T07:58:27Z</time>
      </trkpt>
      <trkpt lat="42.430326000" lon="-2.566610000">
        <ele>500.70</ele>
        <time>2015-01-17T07:58:28Z</time>
      </trkpt>
      <trkpt lat="42.430319000" lon="-2.566661000">
        <ele>500.60</ele>
        <time>2015-01-17T07:58:29Z</time>
      </trkpt>
      <trkpt lat="42.430312000" lon="-2.566710000">
        <ele>500.60</ele>
        <time>2015-01-17T07:58:30Z</time>
      </trkpt>
      <trkpt lat="42.430304000" lon="-2.566760000">
        <ele>500.60</ele>
        <time>2015-01-17T07:58:31Z</time>
      </trkpt>
      <trkpt lat="42.430298000" lon="-2.566810000">
        <ele>500.60</ele>
        <time>2015-01-17T07:58:32Z</time>
      </trkpt>
      <trkpt lat="42.430290000" lon="-2.566861000">
        <ele>500.50</ele>
        <time>2015-01-17T07:58:33Z</time>
      </trkpt>
      <trkpt lat="42.430281000" lon="-2.566910000">
        <ele>500.40</ele>
        <time>2015-01-17T07:58:34Z</time>
      </trkpt>
      <trkpt lat="42.430274000" lon="-2.566960000">
        <ele>500.40</ele>
        <time>2015-01-17T07:58:35Z</time>
      </trkpt>
      <trkpt lat="42.430264000" lon="-2.567007000">
        <ele>500.30</ele>
        <time>2015-01-17T07:58:36Z</time>
      </trkpt>
      <trkpt lat="42.430255000" lon="-2.567058000">
        <ele>500.30</ele>
        <time>2015-01-17T07:58:37Z</time>
      </trkpt>
      <trkpt lat="42.430248000" lon="-2.567111000">
        <ele>500.30</ele>
        <time>2015-01-17T07:58:38Z</time>
      </trkpt>
      <trkpt lat="42.430262000" lon="-2.567165000">
        <ele>500.40</ele>
        <time>2015-01-17T07:58:39Z</time>
      </trkpt>
      <trkpt lat="42.430253000" lon="-2.567218000">
        <ele>500.60</ele>
        <time>2015-01-17T07:58:40Z</time>
      </trkpt>
      <trkpt lat="42.430253000" lon="-2.567269000">
        <ele>500.70</ele>
        <time>2015-01-17T07:58:41Z</time>
      </trkpt>
      <trkpt lat="42.430245000" lon="-2.567319000">
        <ele>500.80</ele>
        <time>2015-01-17T07:58:42Z</time>
      </trkpt>
      <trkpt lat="42.430234000" lon="-2.567366000">
        <ele>500.90</ele>
        <time>2015-01-17T07:58:43Z</time>
      </trkpt>
      <trkpt lat="42.430224000" lon="-2.567415000">
        <ele>500.90</ele>
        <time>2015-01-17T07:58:44Z</time>
      </trkpt>
      <trkpt lat="42.430215000" lon="-2.567464000">
        <ele>501.00</ele>
        <time>2015-01-17T07:58:45Z</time>
      </trkpt>
      <trkpt lat="42.430201000" lon="-2.567511000">
        <ele>500.90</ele>
        <time>2015-01-17T07:58:46Z</time>
      </trkpt>
      <trkpt lat="42.430192000" lon="-2.567557000">
        <ele>500.90</ele>
        <time>2015-01-17T07:58:47Z</time>
      </trkpt>
      <trkpt lat="42.430181000" lon="-2.567603000">
        <ele>501.00</ele>
        <time>2015-01-17T07:58:48Z</time>
      </trkpt>
      <trkpt lat="42.430176000" lon="-2.567649000">
        <ele>501.00</ele>
        <time>2015-01-17T07:58:49Z</time>
      </trkpt>
      <trkpt lat="42.430170000" lon="-2.567694000">
        <ele>501.00</ele>
        <time>2015-01-17T07:58:50Z</time>
      </trkpt>
      <trkpt lat="42.430161000" lon="-2.567738000">
        <ele>500.90</ele>
        <time>2015-01-17T07:58:51Z</time>
      </trkpt>
      <trkpt lat="42.430150000" lon="-2.567781000">
        <ele>501.00</ele>
        <time>2015-01-17T07:58:52Z</time>
      </trkpt>
      <trkpt lat="42.430143000" lon="-2.567824000">
        <ele>501.00</ele>
        <time>2015-01-17T07:58:53Z</time>
      </trkpt>
      <trkpt lat="42.430137000" lon="-2.567868000">
        <ele>501.00</ele>
        <time>2015-01-17T07:58:54Z</time>
      </trkpt>
      <trkpt lat="42.430130000" lon="-2.567917000">
        <ele>501.10</ele>
        <time>2015-01-17T07:58:55Z</time>
      </trkpt>
      <trkpt lat="42.430122000" lon="-2.567966000">
        <ele>501.40</ele>
        <time>2015-01-17T07:58:56Z</time>
      </trkpt>
      <trkpt lat="42.430108000" lon="-2.568012000">
        <ele>501.60</ele>
        <time>2015-01-17T07:58:57Z</time>
      </trkpt>
      <trkpt lat="42.430096000" lon="-2.568057000">
        <ele>501.80</ele>
        <time>2015-01-17T07:58:58Z</time>
      </trkpt>
      <trkpt lat="42.430088000" lon="-2.568103000">
        <ele>501.90</ele>
        <time>2015-01-17T07:58:59Z</time>
      </trkpt>
      <trkpt lat="42.430075000" lon="-2.568150000">
        <ele>502.10</ele>
        <time>2015-01-17T07:59:00Z</time>
      </trkpt>
      <trkpt lat="42.430066000" lon="-2.568197000">
        <ele>502.20</ele>
        <time>2015-01-17T07:59:01Z</time>
      </trkpt>
      <trkpt lat="42.430049000" lon="-2.568243000">
        <ele>502.20</ele>
        <time>2015-01-17T07:59:02Z</time>
      </trkpt>
      <trkpt lat="42.430028000" lon="-2.568287000">
        <ele>502.10</ele>
        <time>2015-01-17T07:59:03Z</time>
      </trkpt>
      <trkpt lat="42.430010000" lon="-2.568329000">
        <ele>502.10</ele>
        <time>2015-01-17T07:59:04Z</time>
      </trkpt>
      <trkpt lat="42.429999000" lon="-2.568369000">
        <ele>502.10</ele>
        <time>2015-01-17T07:59:05Z</time>
      </trkpt>
      <trkpt lat="42.429978000" lon="-2.568413000">
        <ele>502.10</ele>
        <time>2015-01-17T07:59:06Z</time>
      </trkpt>
      <trkpt lat="42.429959000" lon="-2.568459000">
        <ele>502.10</ele>
        <time>2015-01-17T07:59:07Z</time>
      </trkpt>
      <trkpt lat="42.429943000" lon="-2.568497000">
        <ele>502.10</ele>
        <time>2015-01-17T07:59:08Z</time>
      </trkpt>
      <trkpt lat="42.429930000" lon="-2.568537000">
        <ele>502.10</ele>
        <time>2015-01-17T07:59:09Z</time>
      </trkpt>
      <trkpt lat="42.429909000" lon="-2.568577000">
        <ele>502.10</ele>
        <time>2015-01-17T07:59:10Z</time>
      </trkpt>
      <trkpt lat="42.429887000" lon="-2.568619000">
        <ele>502.20</ele>
        <time>2015-01-17T07:59:11Z</time>
      </trkpt>
      <trkpt lat="42.429869000" lon="-2.568662000">
        <ele>502.30</ele>
        <time>2015-01-17T07:59:12Z</time>
      </trkpt>
      <trkpt lat="42.429850000" lon="-2.568707000">
        <ele>502.30</ele>
        <time>2015-01-17T07:59:13Z</time>
      </trkpt>
      <trkpt lat="42.429830000" lon="-2.568751000">
        <ele>502.40</ele>
        <time>2015-01-17T07:59:14Z</time>
      </trkpt>
      <trkpt lat="42.429808000" lon="-2.568792000">
        <ele>502.50</ele>
        <time>2015-01-17T07:59:15Z</time>
      </trkpt>
      <trkpt lat="42.429790000" lon="-2.568837000">
        <ele>502.50</ele>
        <time>2015-01-17T07:59:16Z</time>
      </trkpt>
      <trkpt lat="42.429773000" lon="-2.568880000">
        <ele>502.50</ele>
        <time>2015-01-17T07:59:17Z</time>
      </trkpt>
      <trkpt lat="42.429750000" lon="-2.568926000">
        <ele>502.40</ele>
        <time>2015-01-17T07:59:18Z</time>
      </trkpt>
      <trkpt lat="42.429727000" lon="-2.568967000">
        <ele>502.40</ele>
        <time>2015-01-17T07:59:19Z</time>
      </trkpt>
      <trkpt lat="42.429706000" lon="-2.569009000">
        <ele>502.30</ele>
        <time>2015-01-17T07:59:20Z</time>
      </trkpt>
      <trkpt lat="42.429686000" lon="-2.569053000">
        <ele>502.30</ele>
        <time>2015-01-17T07:59:21Z</time>
      </trkpt>
      <trkpt lat="42.429666000" lon="-2.569095000">
        <ele>502.40</ele>
        <time>2015-01-17T07:59:22Z</time>
      </trkpt>
      <trkpt lat="42.429649000" lon="-2.569139000">
        <ele>502.50</ele>
        <time>2015-01-17T07:59:23Z</time>
      </trkpt>
      <trkpt lat="42.429630000" lon="-2.569181000">
        <ele>502.60</ele>
        <time>2015-01-17T07:59:24Z</time>
      </trkpt>
      <trkpt lat="42.429609000" lon="-2.569227000">
        <ele>502.60</ele>
        <time>2015-01-17T07:59:25Z</time>
      </trkpt>
      <trkpt lat="42.429587000" lon="-2.569271000">
        <ele>502.90</ele>
        <time>2015-01-17T07:59:26Z</time>
      </trkpt>
      <trkpt lat="42.429546000" lon="-2.569361000">
        <ele>503.00</ele>
        <time>2015-01-17T07:59:28Z</time>
      </trkpt>
      <trkpt lat="42.429527000" lon="-2.569408000">
        <ele>503.00</ele>
        <time>2015-01-17T07:59:29Z</time>
      </trkpt>
      <trkpt lat="42.429508000" lon="-2.569455000">
        <ele>503.00</ele>
        <time>2015-01-17T07:59:30Z</time>
      </trkpt>
      <trkpt lat="42.429488000" lon="-2.569501000">
        <ele>503.00</ele>
        <time>2015-01-17T07:59:31Z</time>
      </trkpt>
      <trkpt lat="42.429468000" lon="-2.569544000">
        <ele>503.00</ele>
        <time>2015-01-17T07:59:32Z</time>
      </trkpt>
      <trkpt lat="42.429448000" lon="-2.569588000">
        <ele>503.00</ele>
        <time>2015-01-17T07:59:33Z</time>
      </trkpt>
      <trkpt lat="42.429423000" lon="-2.569629000">
        <ele>503.10</ele>
        <time>2015-01-17T07:59:34Z</time>
      </trkpt>
      <trkpt lat="42.429404000" lon="-2.569672000">
        <ele>503.20</ele>
        <time>2015-01-17T07:59:35Z</time>
      </trkpt>
      <trkpt lat="42.429382000" lon="-2.569713000">
        <ele>503.30</ele>
        <time>2015-01-17T07:59:36Z</time>
      </trkpt>
      <trkpt lat="42.429361000" lon="-2.569760000">
        <ele>503.40</ele>
        <time>2015-01-17T07:59:37Z</time>
      </trkpt>
      <trkpt lat="42.429342000" lon="-2.569807000">
        <ele>503.40</ele>
        <time>2015-01-17T07:59:38Z</time>
      </trkpt>
      <trkpt lat="42.429320000" lon="-2.569854000">
        <ele>503.40</ele>
        <time>2015-01-17T07:59:39Z</time>
      </trkpt>
      <trkpt lat="42.429298000" lon="-2.569898000">
        <ele>503.70</ele>
        <time>2015-01-17T07:59:40Z</time>
      </trkpt>
      <trkpt lat="42.429278000" lon="-2.569943000">
        <ele>503.90</ele>
        <time>2015-01-17T07:59:41Z</time>
      </trkpt>
      <trkpt lat="42.429256000" lon="-2.569989000">
        <ele>504.10</ele>
        <time>2015-01-17T07:59:42Z</time>
      </trkpt>
      <trkpt lat="42.429235000" lon="-2.570034000">
        <ele>504.20</ele>
        <time>2015-01-17T07:59:43Z</time>
      </trkpt>
      <trkpt lat="42.429213000" lon="-2.570078000">
        <ele>504.30</ele>
        <time>2015-01-17T07:59:44Z</time>
      </trkpt>
      <trkpt lat="42.429193000" lon="-2.570125000">
        <ele>504.40</ele>
        <time>2015-01-17T07:59:45Z</time>
      </trkpt>
      <trkpt lat="42.429173000" lon="-2.570167000">
        <ele>504.30</ele>
        <time>2015-01-17T07:59:46Z</time>
      </trkpt>
      <trkpt lat="42.429154000" lon="-2.570211000">
        <ele>504.20</ele>
        <time>2015-01-17T07:59:47Z</time>
      </trkpt>
      <trkpt lat="42.429131000" lon="-2.570253000">
        <ele>504.10</ele>
        <time>2015-01-17T07:59:48Z</time>
      </trkpt>
      <trkpt lat="42.429107000" lon="-2.570295000">
        <ele>504.00</ele>
        <time>2015-01-17T07:59:49Z</time>
      </trkpt>
      <trkpt lat="42.429083000" lon="-2.570342000">
        <ele>504.10</ele>
        <time>2015-01-17T07:59:50Z</time>
      </trkpt>
      <trkpt lat="42.429060000" lon="-2.570390000">
        <ele>504.20</ele>
        <time>2015-01-17T07:59:51Z</time>
      </trkpt>
      <trkpt lat="42.429041000" lon="-2.570439000">
        <ele>504.30</ele>
        <time>2015-01-17T07:59:52Z</time>
      </trkpt>
      <trkpt lat="42.429019000" lon="-2.570485000">
        <ele>504.40</ele>
        <time>2015-01-17T07:59:53Z</time>
      </trkpt>
      <trkpt lat="42.428997000" lon="-2.570530000">
        <ele>504.50</ele>
        <time>2015-01-17T07:59:54Z</time>
      </trkpt>
      <trkpt lat="42.428976000" lon="-2.570574000">
        <ele>504.50</ele>
        <time>2015-01-17T07:59:55Z</time>
      </trkpt>
      <trkpt lat="42.428955000" lon="-2.570616000">
        <ele>504.70</ele>
        <time>2015-01-17T07:59:56Z</time>
      </trkpt>
      <trkpt lat="42.428933000" lon="-2.570660000">
        <ele>504.80</ele>
        <time>2015-01-17T07:59:57Z</time>
      </trkpt>
      <trkpt lat="42.428913000" lon="-2.570707000">
        <ele>504.90</ele>
        <time>2015-01-17T07:59:58Z</time>
      </trkpt>
      <trkpt lat="42.428892000" lon="-2.570751000">
        <ele>505.00</ele>
        <time>2015-01-17T07:59:59Z</time>
      </trkpt>
      <trkpt lat="42.428873000" lon="-2.570798000">
        <ele>504.80</ele>
        <time>2015-01-17T08:00:00Z</time>
      </trkpt>
      <trkpt lat="42.428852000" lon="-2.570841000">
        <ele>504.70</ele>
        <time>2015-01-17T08:00:01Z</time>
      </trkpt>
      <trkpt lat="42.428832000" lon="-2.570886000">
        <ele>504.60</ele>
        <time>2015-01-17T08:00:02Z</time>
      </trkpt>
      <trkpt lat="42.428812000" lon="-2.570931000">
        <ele>504.60</ele>
        <time>2015-01-17T08:00:03Z</time>
      </trkpt>
      <trkpt lat="42.428790000" lon="-2.570972000">
        <ele>504.50</ele>
        <time>2015-01-17T08:00:04Z</time>
      </trkpt>
      <trkpt lat="42.428768000" lon="-2.571014000">
        <ele>504.50</ele>
        <time>2015-01-17T08:00:05Z</time>
      </trkpt>
      <trkpt lat="42.428748000" lon="-2.571057000">
        <ele>504.60</ele>
        <time>2015-01-17T08:00:06Z</time>
      </trkpt>
      <trkpt lat="42.428728000" lon="-2.571099000">
        <ele>504.70</ele>
        <time>2015-01-17T08:00:07Z</time>
      </trkpt>
      <trkpt lat="42.428706000" lon="-2.571143000">
        <ele>504.70</ele>
        <time>2015-01-17T08:00:08Z</time>
      </trkpt>
      <trkpt lat="42.428685000" lon="-2.571187000">
        <ele>504.80</ele>
        <time>2015-01-17T08:00:09Z</time>
      </trkpt>
      <trkpt lat="42.428665000" lon="-2.571232000">
        <ele>504.90</ele>
        <time>2015-01-17T08:00:10Z</time>
      </trkpt>
      <trkpt lat="42.428646000" lon="-2.571276000">
        <ele>504.90</ele>
        <time>2015-01-17T08:00:11Z</time>
      </trkpt>
      <trkpt lat="42.428626000" lon="-2.571318000">
        <ele>505.20</ele>
        <time>2015-01-17T08:00:12Z</time>
      </trkpt>
      <trkpt lat="42.428606000" lon="-2.571361000">
        <ele>505.30</ele>
        <time>2015-01-17T08:00:13Z</time>
      </trkpt>
      <trkpt lat="42.428587000" lon="-2.571403000">
        <ele>505.50</ele>
        <time>2015-01-17T08:00:14Z</time>
      </trkpt>
      <trkpt lat="42.428566000" lon="-2.571444000">
        <ele>505.60</ele>
        <time>2015-01-17T08:00:15Z</time>
      </trkpt>
      <trkpt lat="42.428545000" lon="-2.571489000">
        <ele>505.50</ele>
        <time>2015-01-17T08:00:16Z</time>
      </trkpt>
      <trkpt lat="42.428525000" lon="-2.571532000">
        <ele>505.50</ele>
        <time>2015-01-17T08:00:17Z</time>
      </trkpt>
      <trkpt lat="42.428505000" lon="-2.571577000">
        <ele>505.40</ele>
        <time>2015-01-17T08:00:18Z</time>
      </trkpt>
      <trkpt lat="42.428486000" lon="-2.571620000">
        <ele>505.40</ele>
        <time>2015-01-17T08:00:19Z</time>
      </trkpt>
      <trkpt lat="42.428465000" lon="-2.571663000">
        <ele>505.50</ele>
        <time>2015-01-17T08:00:20Z</time>
      </trkpt>
      <trkpt lat="42.428445000" lon="-2.571707000">
        <ele>505.60</ele>
        <time>2015-01-17T08:00:21Z</time>
      </trkpt>
      <trkpt lat="42.428421000" lon="-2.571750000">
        <ele>505.70</ele>
        <time>2015-01-17T08:00:22Z</time>
      </trkpt>
      <trkpt lat="42.428398000" lon="-2.571794000">
        <ele>505.70</ele>
        <time>2015-01-17T08:00:23Z</time>
      </trkpt>
      <trkpt lat="42.428377000" lon="-2.571838000">
        <ele>505.80</ele>
        <time>2015-01-17T08:00:24Z</time>
      </trkpt>
      <trkpt lat="42.428355000" lon="-2.571883000">
        <ele>505.80</ele>
        <time>2015-01-17T08:00:25Z</time>
      </trkpt>
      <trkpt lat="42.428332000" lon="-2.571927000">
        <ele>505.70</ele>
        <time>2015-01-17T08:00:26Z</time>
      </trkpt>
      <trkpt lat="42.428310000" lon="-2.571972000">
        <ele>505.70</ele>
        <time>2015-01-17T08:00:27Z</time>
      </trkpt>
      <trkpt lat="42.428270000" lon="-2.572058000">
        <ele>506.00</ele>
        <time>2015-01-17T08:00:29Z</time>
      </trkpt>
      <trkpt lat="42.428247000" lon="-2.572103000">
        <ele>506.10</ele>
        <time>2015-01-17T08:00:30Z</time>
      </trkpt>
      <trkpt lat="42.428224000" lon="-2.572149000">
        <ele>506.20</ele>
        <time>2015-01-17T08:00:31Z</time>
      </trkpt>
      <trkpt lat="42.428202000" lon="-2.572196000">
        <ele>506.20</ele>
        <time>2015-01-17T08:00:32Z</time>
      </trkpt>
      <trkpt lat="42.428181000" lon="-2.572241000">
        <ele>506.30</ele>
        <time>2015-01-17T08:00:33Z</time>
      </trkpt>
      <trkpt lat="42.428161000" lon="-2.572286000">
        <ele>506.30</ele>
        <time>2015-01-17T08:00:34Z</time>
      </trkpt>
      <trkpt lat="42.428139000" lon="-2.572332000">
        <ele>506.30</ele>
        <time>2015-01-17T08:00:35Z</time>
      </trkpt>
      <trkpt lat="42.428116000" lon="-2.572377000">
        <ele>506.30</ele>
        <time>2015-01-17T08:00:36Z</time>
      </trkpt>
      <trkpt lat="42.428094000" lon="-2.572420000">
        <ele>506.40</ele>
        <time>2015-01-17T08:00:37Z</time>
      </trkpt>
      <trkpt lat="42.428073000" lon="-2.572467000">
        <ele>506.50</ele>
        <time>2015-01-17T08:00:38Z</time>
      </trkpt>
      <trkpt lat="42.428058000" lon="-2.572507000">
        <ele>506.70</ele>
        <time>2015-01-17T08:00:39Z</time>
      </trkpt>
      <trkpt lat="42.428040000" lon="-2.572549000">
        <ele>506.80</ele>
        <time>2015-01-17T08:00:40Z</time>
      </trkpt>
      <trkpt lat="42.428022000" lon="-2.572591000">
        <ele>506.90</ele>
        <time>2015-01-17T08:00:41Z</time>
      </trkpt>
      <trkpt lat="42.428003000" lon="-2.572633000">
        <ele>507.00</ele>
        <time>2015-01-17T08:00:42Z</time>
      </trkpt>
      <trkpt lat="42.427986000" lon="-2.572673000">
        <ele>507.10</ele>
        <time>2015-01-17T08:00:43Z</time>
      </trkpt>
      <trkpt lat="42.427966000" lon="-2.572714000">
        <ele>507.10</ele>
        <time>2015-01-17T08:00:44Z</time>
      </trkpt>
      <trkpt lat="42.427947000" lon="-2.572760000">
        <ele>507.20</ele>
        <time>2015-01-17T08:00:45Z</time>
      </trkpt>
      <trkpt lat="42.427928000" lon="-2.572807000">
        <ele>507.10</ele>
        <time>2015-01-17T08:00:46Z</time>
      </trkpt>
      <trkpt lat="42.427906000" lon="-2.572849000">
        <ele>507.00</ele>
        <time>2015-01-17T08:00:47Z</time>
      </trkpt>
      <trkpt lat="42.427887000" lon="-2.572893000">
        <ele>506.80</ele>
        <time>2015-01-17T08:00:48Z</time>
      </trkpt>
      <trkpt lat="42.427869000" lon="-2.572936000">
        <ele>506.70</ele>
        <time>2015-01-17T08:00:49Z</time>
      </trkpt>
      <trkpt lat="42.427850000" lon="-2.572981000">
        <ele>506.60</ele>
        <time>2015-01-17T08:00:50Z</time>
      </trkpt>
      <trkpt lat="42.427829000" lon="-2.573024000">
        <ele>506.60</ele>
        <time>2015-01-17T08:00:51Z</time>
      </trkpt>
      <trkpt lat="42.427809000" lon="-2.573068000">
        <ele>506.60</ele>
        <time>2015-01-17T08:00:52Z</time>
      </trkpt>
      <trkpt lat="42.427788000" lon="-2.573114000">
        <ele>506.60</ele>
        <time>2015-01-17T08:00:53Z</time>
      </trkpt>
      <trkpt lat="42.427766000" lon="-2.573155000">
        <ele>506.70</ele>
        <time>2015-01-17T08:00:54Z</time>
      </trkpt>
      <trkpt lat="42.427744000" lon="-2.573198000">
        <ele>506.80</ele>
        <time>2015-01-17T08:00:55Z</time>
      </trkpt>
      <trkpt lat="42.427722000" lon="-2.573234000">
        <ele>507.10</ele>
        <time>2015-01-17T08:00:56Z</time>
      </trkpt>
      <trkpt lat="42.427700000" lon="-2.573271000">
        <ele>507.40</ele>
        <time>2015-01-17T08:00:57Z</time>
      </trkpt>
      <trkpt lat="42.427674000" lon="-2.573305000">
        <ele>507.60</ele>
        <time>2015-01-17T08:00:58Z</time>
      </trkpt>
      <trkpt lat="42.427645000" lon="-2.573338000">
        <ele>507.70</ele>
        <time>2015-01-17T08:00:59Z</time>
      </trkpt>
      <trkpt lat="42.427619000" lon="-2.573371000">
        <ele>507.90</ele>
        <time>2015-01-17T08:01:00Z</time>
      </trkpt>
      <trkpt lat="42.427589000" lon="-2.573407000">
        <ele>508.00</ele>
        <time>2015-01-17T08:01:01Z</time>
      </trkpt>
      <trkpt lat="42.427559000" lon="-2.573439000">
        <ele>508.10</ele>
        <time>2015-01-17T08:01:02Z</time>
      </trkpt>
      <trkpt lat="42.427534000" lon="-2.573476000">
        <ele>508.20</ele>
        <time>2015-01-17T08:01:03Z</time>
      </trkpt>
      <trkpt lat="42.427509000" lon="-2.573513000">
        <ele>508.30</ele>
        <time>2015-01-17T08:01:04Z</time>
      </trkpt>
      <trkpt lat="42.427485000" lon="-2.573552000">
        <ele>508.40</ele>
        <time>2015-01-17T08:01:05Z</time>
      </trkpt>
      <trkpt lat="42.427464000" lon="-2.573597000">
        <ele>508.40</ele>
        <time>2015-01-17T08:01:06Z</time>
      </trkpt>
      <trkpt lat="42.427439000" lon="-2.573638000">
        <ele>508.50</ele>
        <time>2015-01-17T08:01:07Z</time>
      </trkpt>
      <trkpt lat="42.427403000" lon="-2.573674000">
        <ele>508.50</ele>
        <time>2015-01-17T08:01:08Z</time>
      </trkpt>
      <trkpt lat="42.427378000" lon="-2.573711000">
        <ele>508.60</ele>
        <time>2015-01-17T08:01:09Z</time>
      </trkpt>
      <trkpt lat="42.427352000" lon="-2.573750000">
        <ele>508.60</ele>
        <time>2015-01-17T08:01:10Z</time>
      </trkpt>
      <trkpt lat="42.427327000" lon="-2.573788000">
        <ele>508.60</ele>
        <time>2015-01-17T08:01:11Z</time>
      </trkpt>
      <trkpt lat="42.427303000" lon="-2.573824000">
        <ele>508.60</ele>
        <time>2015-01-17T08:01:12Z</time>
      </trkpt>
      <trkpt lat="42.427278000" lon="-2.573860000">
        <ele>508.60</ele>
        <time>2015-01-17T08:01:13Z</time>
      </trkpt>
      <trkpt lat="42.427253000" lon="-2.573896000">
        <ele>508.60</ele>
        <time>2015-01-17T08:01:14Z</time>
      </trkpt>
      <trkpt lat="42.427228000" lon="-2.573934000">
        <ele>508.50</ele>
        <time>2015-01-17T08:01:15Z</time>
      </trkpt>
      <trkpt lat="42.427204000" lon="-2.573975000">
        <ele>508.50</ele>
        <time>2015-01-17T08:01:16Z</time>
      </trkpt>
      <trkpt lat="42.427185000" lon="-2.574016000">
        <ele>508.50</ele>
        <time>2015-01-17T08:01:17Z</time>
      </trkpt>
      <trkpt lat="42.427166000" lon="-2.574060000">
        <ele>508.90</ele>
        <time>2015-01-17T08:01:18Z</time>
      </trkpt>
      <trkpt lat="42.427149000" lon="-2.574100000">
        <ele>509.20</ele>
        <time>2015-01-17T08:01:19Z</time>
      </trkpt>
      <trkpt lat="42.427130000" lon="-2.574141000">
        <ele>509.40</ele>
        <time>2015-01-17T08:01:20Z</time>
      </trkpt>
      <trkpt lat="42.427114000" lon="-2.574182000">
        <ele>509.60</ele>
        <time>2015-01-17T08:01:21Z</time>
      </trkpt>
      <trkpt lat="42.427098000" lon="-2.574226000">
        <ele>509.70</ele>
        <time>2015-01-17T08:01:22Z</time>
      </trkpt>
      <trkpt lat="42.427080000" lon="-2.574264000">
        <ele>509.80</ele>
        <time>2015-01-17T08:01:23Z</time>
      </trkpt>
      <trkpt lat="42.427059000" lon="-2.574300000">
        <ele>509.90</ele>
        <time>2015-01-17T08:01:24Z</time>
      </trkpt>
      <trkpt lat="42.427040000" lon="-2.574337000">
        <ele>510.00</ele>
        <time>2015-01-17T08:01:25Z</time>
      </trkpt>
      <trkpt lat="42.427021000" lon="-2.574374000">
        <ele>510.00</ele>
        <time>2015-01-17T08:01:26Z</time>
      </trkpt>
      <trkpt lat="42.427001000" lon="-2.574413000">
        <ele>510.00</ele>
        <time>2015-01-17T08:01:27Z</time>
      </trkpt>
      <trkpt lat="42.426986000" lon="-2.574451000">
        <ele>510.20</ele>
        <time>2015-01-17T08:01:28Z</time>
      </trkpt>
      <trkpt lat="42.426947000" lon="-2.574535000">
        <ele>510.40</ele>
        <time>2015-01-17T08:01:30Z</time>
      </trkpt>
      <trkpt lat="42.426928000" lon="-2.574579000">
        <ele>510.60</ele>
        <time>2015-01-17T08:01:31Z</time>
      </trkpt>
      <trkpt lat="42.426910000" lon="-2.574623000">
        <ele>510.90</ele>
        <time>2015-01-17T08:01:32Z</time>
      </trkpt>
      <trkpt lat="42.426888000" lon="-2.574663000">
        <ele>511.20</ele>
        <time>2015-01-17T08:01:33Z</time>
      </trkpt>
      <trkpt lat="42.426868000" lon="-2.574705000">
        <ele>511.40</ele>
        <time>2015-01-17T08:01:34Z</time>
      </trkpt>
      <trkpt lat="42.426845000" lon="-2.574741000">
        <ele>511.50</ele>
        <time>2015-01-17T08:01:35Z</time>
      </trkpt>
      <trkpt lat="42.426825000" lon="-2.574781000">
        <ele>511.50</ele>
        <time>2015-01-17T08:01:36Z</time>
      </trkpt>
      <trkpt lat="42.426804000" lon="-2.574824000">
        <ele>511.50</ele>
        <time>2015-01-17T08:01:37Z</time>
      </trkpt>
      <trkpt lat="42.426783000" lon="-2.574867000">
        <ele>511.40</ele>
        <time>2015-01-17T08:01:38Z</time>
      </trkpt>
      <trkpt lat="42.426763000" lon="-2.574907000">
        <ele>511.30</ele>
        <time>2015-01-17T08:01:39Z</time>
      </trkpt>
      <trkpt lat="42.426745000" lon="-2.574952000">
        <ele>511.20</ele>
        <time>2015-01-17T08:01:40Z</time>
      </trkpt>
      <trkpt lat="42.426727000" lon="-2.574995000">
        <ele>511.10</ele>
        <time>2015-01-17T08:01:41Z</time>
      </trkpt>
      <trkpt lat="42.426711000" lon="-2.575036000">
        <ele>511.20</ele>
        <time>2015-01-17T08:01:42Z</time>
      </trkpt>
      <trkpt lat="42.426694000" lon="-2.575077000">
        <ele>511.20</ele>
        <time>2015-01-17T08:01:43Z</time>
      </trkpt>
      <trkpt lat="42.426678000" lon="-2.575120000">
        <ele>511.20</ele>
        <time>2015-01-17T08:01:44Z</time>
      </trkpt>
      <trkpt lat="42.426657000" lon="-2.575162000">
        <ele>511.20</ele>
        <time>2015-01-17T08:01:45Z</time>
      </trkpt>
      <trkpt lat="42.426638000" lon="-2.575206000">
        <ele>511.50</ele>
        <time>2015-01-17T08:01:46Z</time>
      </trkpt>
      <trkpt lat="42.426618000" lon="-2.575244000">
        <ele>511.70</ele>
        <time>2015-01-17T08:01:47Z</time>
      </trkpt>
      <trkpt lat="42.426602000" lon="-2.575284000">
        <ele>511.90</ele>
        <time>2015-01-17T08:01:48Z</time>
      </trkpt>
      <trkpt lat="42.426586000" lon="-2.575323000">
        <ele>512.00</ele>
        <time>2015-01-17T08:01:49Z</time>
      </trkpt>
      <trkpt lat="42.426568000" lon="-2.575362000">
        <ele>512.20</ele>
        <time>2015-01-17T08:01:50Z</time>
      </trkpt>
      <trkpt lat="42.426553000" lon="-2.575400000">
        <ele>512.30</ele>
        <time>2015-01-17T08:01:51Z</time>
      </trkpt>
      <trkpt lat="42.426536000" lon="-2.575437000">
        <ele>512.40</ele>
        <time>2015-01-17T08:01:52Z</time>
      </trkpt>
      <trkpt lat="42.426519000" lon="-2.575476000">
        <ele>512.50</ele>
        <time>2015-01-17T08:01:53Z</time>
      </trkpt>
      <trkpt lat="42.426501000" lon="-2.575517000">
        <ele>512.80</ele>
        <time>2015-01-17T08:01:54Z</time>
      </trkpt>
      <trkpt lat="42.426485000" lon="-2.575558000">
        <ele>512.90</ele>
        <time>2015-01-17T08:01:55Z</time>
      </trkpt>
      <trkpt lat="42.426468000" lon="-2.575600000">
        <ele>513.10</ele>
        <time>2015-01-17T08:01:56Z</time>
      </trkpt>
      <trkpt lat="42.426450000" lon="-2.575640000">
        <ele>513.10</ele>
        <time>2015-01-17T08:01:57Z</time>
      </trkpt>
      <trkpt lat="42.426433000" lon="-2.575679000">
        <ele>513.20</ele>
        <time>2015-01-17T08:01:58Z</time>
      </trkpt>
      <trkpt lat="42.426416000" lon="-2.575719000">
        <ele>513.30</ele>
        <time>2015-01-17T08:01:59Z</time>
      </trkpt>
      <trkpt lat="42.426400000" lon="-2.575758000">
        <ele>513.30</ele>
        <time>2015-01-17T08:02:00Z</time>
      </trkpt>
      <trkpt lat="42.426383000" lon="-2.575798000">
        <ele>513.30</ele>
        <time>2015-01-17T08:02:01Z</time>
      </trkpt>
      <trkpt lat="42.426367000" lon="-2.575841000">
        <ele>513.50</ele>
        <time>2015-01-17T08:02:02Z</time>
      </trkpt>
      <trkpt lat="42.426349000" lon="-2.575883000">
        <ele>513.60</ele>
        <time>2015-01-17T08:02:03Z</time>
      </trkpt>
      <trkpt lat="42.426332000" lon="-2.575922000">
        <ele>513.80</ele>
        <time>2015-01-17T08:02:04Z</time>
      </trkpt>
      <trkpt lat="42.426315000" lon="-2.575962000">
        <ele>514.00</ele>
        <time>2015-01-17T08:02:05Z</time>
      </trkpt>
      <trkpt lat="42.426298000" lon="-2.576004000">
        <ele>514.10</ele>
        <time>2015-01-17T08:02:06Z</time>
      </trkpt>
      <trkpt lat="42.426281000" lon="-2.576043000">
        <ele>514.20</ele>
        <time>2015-01-17T08:02:07Z</time>
      </trkpt>
      <trkpt lat="42.426265000" lon="-2.576084000">
        <ele>514.30</ele>
        <time>2015-01-17T08:02:08Z</time>
      </trkpt>
      <trkpt lat="42.426251000" lon="-2.576124000">
        <ele>514.30</ele>
        <time>2015-01-17T08:02:09Z</time>
      </trkpt>
      <trkpt lat="42.426234000" lon="-2.576163000">
        <ele>514.40</ele>
        <time>2015-01-17T08:02:10Z</time>
      </trkpt>
      <trkpt lat="42.426216000" lon="-2.576204000">
        <ele>514.50</ele>
        <time>2015-01-17T08:02:11Z</time>
      </trkpt>
      <trkpt lat="42.426199000" lon="-2.576244000">
        <ele>514.50</ele>
        <time>2015-01-17T08:02:12Z</time>
      </trkpt>
      <trkpt lat="42.426184000" lon="-2.576287000">
        <ele>514.60</ele>
        <time>2015-01-17T08:02:13Z</time>
      </trkpt>
      <trkpt lat="42.426170000" lon="-2.576327000">
        <ele>514.70</ele>
        <time>2015-01-17T08:02:14Z</time>
      </trkpt>
      <trkpt lat="42.426151000" lon="-2.576362000">
        <ele>514.80</ele>
        <time>2015-01-17T08:02:15Z</time>
      </trkpt>
      <trkpt lat="42.426133000" lon="-2.576401000">
        <ele>514.70</ele>
        <time>2015-01-17T08:02:16Z</time>
      </trkpt>
      <trkpt lat="42.426115000" lon="-2.576441000">
        <ele>514.70</ele>
        <time>2015-01-17T08:02:17Z</time>
      </trkpt>
      <trkpt lat="42.426098000" lon="-2.576481000">
        <ele>514.70</ele>
        <time>2015-01-17T08:02:18Z</time>
      </trkpt>
      <trkpt lat="42.426080000" lon="-2.576524000">
        <ele>514.80</ele>
        <time>2015-01-17T08:02:19Z</time>
      </trkpt>
      <trkpt lat="42.426061000" lon="-2.576564000">
        <ele>514.80</ele>
        <time>2015-01-17T08:02:20Z</time>
      </trkpt>
      <trkpt lat="42.426043000" lon="-2.576607000">
        <ele>514.90</ele>
        <time>2015-01-17T08:02:21Z</time>
      </trkpt>
      <trkpt lat="42.426026000" lon="-2.576645000">
        <ele>515.00</ele>
        <time>2015-01-17T08:02:22Z</time>
      </trkpt>
      <trkpt lat="42.426010000" lon="-2.576681000">
        <ele>515.20</ele>
        <time>2015-01-17T08:02:23Z</time>
      </trkpt>
      <trkpt lat="42.425991000" lon="-2.576714000">
        <ele>515.40</ele>
        <time>2015-01-17T08:02:24Z</time>
      </trkpt>
      <trkpt lat="42.425972000" lon="-2.576746000">
        <ele>515.60</ele>
        <time>2015-01-17T08:02:25Z</time>
      </trkpt>
      <trkpt lat="42.425953000" lon="-2.576783000">
        <ele>515.70</ele>
        <time>2015-01-17T08:02:26Z</time>
      </trkpt>
      <trkpt lat="42.425937000" lon="-2.576824000">
        <ele>515.80</ele>
        <time>2015-01-17T08:02:27Z</time>
      </trkpt>
      <trkpt lat="42.425918000" lon="-2.576863000">
        <ele>515.90</ele>
        <time>2015-01-17T08:02:28Z</time>
      </trkpt>
      <trkpt lat="42.425897000" lon="-2.576902000">
        <ele>515.90</ele>
        <time>2015-01-17T08:02:29Z</time>
      </trkpt>
      <trkpt lat="42.425845000" lon="-2.576969000">
        <ele>516.10</ele>
        <time>2015-01-17T08:02:31Z</time>
      </trkpt>
      <trkpt lat="42.425816000" lon="-2.576997000">
        <ele>516.10</ele>
        <time>2015-01-17T08:02:32Z</time>
      </trkpt>
      <trkpt lat="42.425786000" lon="-2.577023000">
        <ele>516.20</ele>
        <time>2015-01-17T08:02:33Z</time>
      </trkpt>
      <trkpt lat="42.425755000" lon="-2.577051000">
        <ele>516.40</ele>
        <time>2015-01-17T08:02:34Z</time>
      </trkpt>
      <trkpt lat="42.425727000" lon="-2.577079000">
        <ele>516.50</ele>
        <time>2015-01-17T08:02:35Z</time>
      </trkpt>
      <trkpt lat="42.425700000" lon="-2.577110000">
        <ele>516.70</ele>
        <time>2015-01-17T08:02:36Z</time>
      </trkpt>
      <trkpt lat="42.425674000" lon="-2.577145000">
        <ele>516.80</ele>
        <time>2015-01-17T08:02:37Z</time>
      </trkpt>
      <trkpt lat="42.425650000" lon="-2.577183000">
        <ele>516.90</ele>
        <time>2015-01-17T08:02:38Z</time>
      </trkpt>
      <trkpt lat="42.425627000" lon="-2.577222000">
        <ele>516.90</ele>
        <time>2015-01-17T08:02:39Z</time>
      </trkpt>
      <trkpt lat="42.425605000" lon="-2.577258000">
        <ele>517.00</ele>
        <time>2015-01-17T08:02:40Z</time>
      </trkpt>
      <trkpt lat="42.425584000" lon="-2.577296000">
        <ele>517.00</ele>
        <time>2015-01-17T08:02:41Z</time>
      </trkpt>
      <trkpt lat="42.425560000" lon="-2.577331000">
        <ele>517.10</ele>
        <time>2015-01-17T08:02:42Z</time>
      </trkpt>
      <trkpt lat="42.425536000" lon="-2.577362000">
        <ele>517.20</ele>
        <time>2015-01-17T08:02:43Z</time>
      </trkpt>
      <trkpt lat="42.425510000" lon="-2.577390000">
        <ele>517.30</ele>
        <time>2015-01-17T08:02:44Z</time>
      </trkpt>
      <trkpt lat="42.425487000" lon="-2.577421000">
        <ele>517.30</ele>
        <time>2015-01-17T08:02:45Z</time>
      </trkpt>
      <trkpt lat="42.425459000" lon="-2.577443000">
        <ele>517.50</ele>
        <time>2015-01-17T08:02:46Z</time>
      </trkpt>
      <trkpt lat="42.425433000" lon="-2.577468000">
        <ele>517.60</ele>
        <time>2015-01-17T08:02:47Z</time>
      </trkpt>
      <trkpt lat="42.425406000" lon="-2.577491000">
        <ele>517.90</ele>
        <time>2015-01-17T08:02:48Z</time>
      </trkpt>
      <trkpt lat="42.425380000" lon="-2.577514000">
        <ele>518.10</ele>
        <time>2015-01-17T08:02:49Z</time>
      </trkpt>
      <trkpt lat="42.425354000" lon="-2.577535000">
        <ele>518.30</ele>
        <time>2015-01-17T08:02:50Z</time>
      </trkpt>
      <trkpt lat="42.425328000" lon="-2.577562000">
        <ele>518.40</ele>
        <time>2015-01-17T08:02:51Z</time>
      </trkpt>
      <trkpt lat="42.425297000" lon="-2.577589000">
        <ele>518.50</ele>
        <time>2015-01-17T08:02:52Z</time>
      </trkpt>
      <trkpt lat="42.425267000" lon="-2.577613000">
        <ele>518.60</ele>
        <time>2015-01-17T08:02:53Z</time>
      </trkpt>
      <trkpt lat="42.425238000" lon="-2.577638000">
        <ele>518.60</ele>
        <time>2015-01-17T08:02:54Z</time>
      </trkpt>
      <trkpt lat="42.425209000" lon="-2.577660000">
        <ele>518.60</ele>
        <time>2015-01-17T08:02:55Z</time>
      </trkpt>
      <trkpt lat="42.425181000" lon="-2.577684000">
        <ele>518.50</ele>
        <time>2015-01-17T08:02:56Z</time>
      </trkpt>
      <trkpt lat="42.425156000" lon="-2.577713000">
        <ele>518.50</ele>
        <time>2015-01-17T08:02:57Z</time>
      </trkpt>
      <trkpt lat="42.425131000" lon="-2.577737000">
        <ele>518.70</ele>
        <time>2015-01-17T08:02:58Z</time>
      </trkpt>
      <trkpt lat="42.425105000" lon="-2.577760000">
        <ele>518.90</ele>
        <time>2015-01-17T08:02:59Z</time>
      </trkpt>
      <trkpt lat="42.425079000" lon="-2.577783000">
        <ele>519.10</ele>
        <time>2015-01-17T08:03:00Z</time>
      </trkpt>
      <trkpt lat="42.425053000" lon="-2.577806000">
        <ele>519.20</ele>
        <time>2015-01-17T08:03:01Z</time>
      </trkpt>
      <trkpt lat="42.425025000" lon="-2.577831000">
        <ele>519.50</ele>
        <time>2015-01-17T08:03:02Z</time>
      </trkpt>
      <trkpt lat="42.424999000" lon="-2.577859000">
        <ele>519.80</ele>
        <time>2015-01-17T08:03:03Z</time>
      </trkpt>
      <trkpt lat="42.424973000" lon="-2.577887000">
        <ele>519.90</ele>
        <time>2015-01-17T08:03:04Z</time>
      </trkpt>
      <trkpt lat="42.424948000" lon="-2.577915000">
        <ele>520.10</ele>
        <time>2015-01-17T08:03:05Z</time>
      </trkpt>
      <trkpt lat="42.424921000" lon="-2.577940000">
        <ele>520.20</ele>
        <time>2015-01-17T08:03:06Z</time>
      </trkpt>
      <trkpt lat="42.424894000" lon="-2.577963000">
        <ele>520.30</ele>
        <time>2015-01-17T08:03:07Z</time>
      </trkpt>
      <trkpt lat="42.424870000" lon="-2.577988000">
        <ele>520.40</ele>
        <time>2015-01-17T08:03:08Z</time>
      </trkpt>
      <trkpt lat="42.424844000" lon="-2.578012000">
        <ele>520.40</ele>
        <time>2015-01-17T08:03:09Z</time>
      </trkpt>
      <trkpt lat="42.424820000" lon="-2.578038000">
        <ele>520.60</ele>
        <time>2015-01-17T08:03:10Z</time>
      </trkpt>
      <trkpt lat="42.424797000" lon="-2.578069000">
        <ele>520.80</ele>
        <time>2015-01-17T08:03:11Z</time>
      </trkpt>
      <trkpt lat="42.424777000" lon="-2.578105000">
        <ele>521.00</ele>
        <time>2015-01-17T08:03:12Z</time>
      </trkpt>
      <trkpt lat="42.424754000" lon="-2.578136000">
        <ele>521.10</ele>
        <time>2015-01-17T08:03:13Z</time>
      </trkpt>
      <trkpt lat="42.424730000" lon="-2.578165000">
        <ele>521.20</ele>
        <time>2015-01-17T08:03:14Z</time>
      </trkpt>
      <trkpt lat="42.424708000" lon="-2.578196000">
        <ele>521.20</ele>
        <time>2015-01-17T08:03:15Z</time>
      </trkpt>
      <trkpt lat="42.424681000" lon="-2.578222000">
        <ele>521.30</ele>
        <time>2015-01-17T08:03:16Z</time>
      </trkpt>
      <trkpt lat="42.424652000" lon="-2.578244000">
        <ele>521.30</ele>
        <time>2015-01-17T08:03:17Z</time>
      </trkpt>
      <trkpt lat="42.424625000" lon="-2.578263000">
        <ele>521.30</ele>
        <time>2015-01-17T08:03:18Z</time>
      </trkpt>
      <trkpt lat="42.424598000" lon="-2.578282000">
        <ele>521.30</ele>
        <time>2015-01-17T08:03:19Z</time>
      </trkpt>
      <trkpt lat="42.424570000" lon="-2.578301000">
        <ele>521.50</ele>
        <time>2015-01-17T08:03:20Z</time>
      </trkpt>
      <trkpt lat="42.424543000" lon="-2.578322000">
        <ele>521.60</ele>
        <time>2015-01-17T08:03:21Z</time>
      </trkpt>
      <trkpt lat="42.424515000" lon="-2.578341000">
        <ele>521.80</ele>
        <time>2015-01-17T08:03:22Z</time>
      </trkpt>
      <trkpt lat="42.424482000" lon="-2.578358000">
        <ele>522.00</ele>
        <time>2015-01-17T08:03:23Z</time>
      </trkpt>
      <trkpt lat="42.424453000" lon="-2.578375000">
        <ele>522.10</ele>
        <time>2015-01-17T08:03:24Z</time>
      </trkpt>
      <trkpt lat="42.424425000" lon="-2.578391000">
        <ele>522.20</ele>
        <time>2015-01-17T08:03:25Z</time>
      </trkpt>
      <trkpt lat="42.424399000" lon="-2.578407000">
        <ele>522.40</ele>
        <time>2015-01-17T08:03:26Z</time>
      </trkpt>
      <trkpt lat="42.424371000" lon="-2.578424000">
        <ele>522.50</ele>
        <time>2015-01-17T08:03:27Z</time>
      </trkpt>
      <trkpt lat="42.424342000" lon="-2.578440000">
        <ele>522.70</ele>
        <time>2015-01-17T08:03:28Z</time>
      </trkpt>
      <trkpt lat="42.424315000" lon="-2.578458000">
        <ele>522.80</ele>
        <time>2015-01-17T08:03:29Z</time>
      </trkpt>
      <trkpt lat="42.424286000" lon="-2.578477000">
        <ele>523.10</ele>
        <time>2015-01-17T08:03:30Z</time>
      </trkpt>
      <trkpt lat="42.424231000" lon="-2.578515000">
        <ele>523.50</ele>
        <time>2015-01-17T08:03:32Z</time>
      </trkpt>
      <trkpt lat="42.424205000" lon="-2.578534000">
        <ele>523.50</ele>
        <time>2015-01-17T08:03:33Z</time>
      </trkpt>
      <trkpt lat="42.424178000" lon="-2.578552000">
        <ele>523.50</ele>
        <time>2015-01-17T08:03:34Z</time>
      </trkpt>
      <trkpt lat="42.424149000" lon="-2.578568000">
        <ele>523.50</ele>
        <time>2015-01-17T08:03:35Z</time>
      </trkpt>
      <trkpt lat="42.424120000" lon="-2.578589000">
        <ele>523.50</ele>
        <time>2015-01-17T08:03:36Z</time>
      </trkpt>
      <trkpt lat="42.424093000" lon="-2.578608000">
        <ele>523.70</ele>
        <time>2015-01-17T08:03:37Z</time>
      </trkpt>
      <trkpt lat="42.424064000" lon="-2.578625000">
        <ele>523.80</ele>
        <time>2015-01-17T08:03:38Z</time>
      </trkpt>
      <trkpt lat="42.424038000" lon="-2.578640000">
        <ele>524.10</ele>
        <time>2015-01-17T08:03:39Z</time>
      </trkpt>
      <trkpt lat="42.424011000" lon="-2.578655000">
        <ele>524.30</ele>
        <time>2015-01-17T08:03:40Z</time>
      </trkpt>
      <trkpt lat="42.423986000" lon="-2.578672000">
        <ele>524.30</ele>
        <time>2015-01-17T08:03:41Z</time>
      </trkpt>
      <trkpt lat="42.423956000" lon="-2.578690000">
        <ele>524.40</ele>
        <time>2015-01-17T08:03:42Z</time>
      </trkpt>
      <trkpt lat="42.423927000" lon="-2.578709000">
        <ele>524.50</ele>
        <time>2015-01-17T08:03:43Z</time>
      </trkpt>
      <trkpt lat="42.423900000" lon="-2.578729000">
        <ele>524.60</ele>
        <time>2015-01-17T08:03:44Z</time>
      </trkpt>
      <trkpt lat="42.423871000" lon="-2.578746000">
        <ele>524.70</ele>
        <time>2015-01-17T08:03:45Z</time>
      </trkpt>
      <trkpt lat="42.423842000" lon="-2.578761000">
        <ele>524.80</ele>
        <time>2015-01-17T08:03:46Z</time>
      </trkpt>
      <trkpt lat="42.423813000" lon="-2.578783000">
        <ele>525.10</ele>
        <time>2015-01-17T08:03:47Z</time>
      </trkpt>
      <trkpt lat="42.423785000" lon="-2.578804000">
        <ele>525.40</ele>
        <time>2015-01-17T08:03:48Z</time>
      </trkpt>
      <trkpt lat="42.423761000" lon="-2.578821000">
        <ele>525.60</ele>
        <time>2015-01-17T08:03:49Z</time>
      </trkpt>
      <trkpt lat="42.423733000" lon="-2.578835000">
        <ele>525.80</ele>
        <time>2015-01-17T08:03:50Z</time>
      </trkpt>
      <trkpt lat="42.423708000" lon="-2.578851000">
        <ele>526.10</ele>
        <time>2015-01-17T08:03:51Z</time>
      </trkpt>
      <trkpt lat="42.423681000" lon="-2.578869000">
        <ele>526.30</ele>
        <time>2015-01-17T08:03:52Z</time>
      </trkpt>
      <trkpt lat="42.423653000" lon="-2.578890000">
        <ele>526.50</ele>
        <time>2015-01-17T08:03:53Z</time>
      </trkpt>
      <trkpt lat="42.423624000" lon="-2.578908000">
        <ele>526.60</ele>
        <time>2015-01-17T08:03:54Z</time>
      </trkpt>
      <trkpt lat="42.423598000" lon="-2.578927000">
        <ele>526.70</ele>
        <time>2015-01-17T08:03:55Z</time>
      </trkpt>
      <trkpt lat="42.423571000" lon="-2.578947000">
        <ele>526.80</ele>
        <time>2015-01-17T08:03:56Z</time>
      </trkpt>
      <trkpt lat="42.423544000" lon="-2.578964000">
        <ele>527.00</ele>
        <time>2015-01-17T08:03:57Z</time>
      </trkpt>
      <trkpt lat="42.423516000" lon="-2.578983000">
        <ele>527.20</ele>
        <time>2015-01-17T08:03:58Z</time>
      </trkpt>
      <trkpt lat="42.423491000" lon="-2.579001000">
        <ele>527.40</ele>
        <time>2015-01-17T08:03:59Z</time>
      </trkpt>
      <trkpt lat="42.423466000" lon="-2.579018000">
        <ele>527.50</ele>
        <time>2015-01-17T08:04:00Z</time>
      </trkpt>
      <trkpt lat="42.423439000" lon="-2.579037000">
        <ele>527.70</ele>
        <time>2015-01-17T08:04:01Z</time>
      </trkpt>
      <trkpt lat="42.423412000" lon="-2.579055000">
        <ele>527.80</ele>
        <time>2015-01-17T08:04:02Z</time>
      </trkpt>
      <trkpt lat="42.423385000" lon="-2.579074000">
        <ele>527.90</ele>
        <time>2015-01-17T08:04:03Z</time>
      </trkpt>
      <trkpt lat="42.423359000" lon="-2.579094000">
        <ele>528.00</ele>
        <time>2015-01-17T08:04:04Z</time>
      </trkpt>
      <trkpt lat="42.423331000" lon="-2.579118000">
        <ele>528.00</ele>
        <time>2015-01-17T08:04:05Z</time>
      </trkpt>
      <trkpt lat="42.423304000" lon="-2.579140000">
        <ele>528.10</ele>
        <time>2015-01-17T08:04:06Z</time>
      </trkpt>
      <trkpt lat="42.423277000" lon="-2.579164000">
        <ele>528.10</ele>
        <time>2015-01-17T08:04:07Z</time>
      </trkpt>
      <trkpt lat="42.423250000" lon="-2.579185000">
        <ele>528.10</ele>
        <time>2015-01-17T08:04:08Z</time>
      </trkpt>
      <trkpt lat="42.423222000" lon="-2.579210000">
        <ele>528.10</ele>
        <time>2015-01-17T08:04:09Z</time>
      </trkpt>
      <trkpt lat="42.423194000" lon="-2.579233000">
        <ele>528.10</ele>
        <time>2015-01-17T08:04:10Z</time>
      </trkpt>
      <trkpt lat="42.423167000" lon="-2.579260000">
        <ele>528.20</ele>
        <time>2015-01-17T08:04:11Z</time>
      </trkpt>
      <trkpt lat="42.423144000" lon="-2.579283000">
        <ele>528.30</ele>
        <time>2015-01-17T08:04:12Z</time>
      </trkpt>
      <trkpt lat="42.423121000" lon="-2.579307000">
        <ele>528.30</ele>
        <time>2015-01-17T08:04:13Z</time>
      </trkpt>
      <trkpt lat="42.423098000" lon="-2.579332000">
        <ele>528.30</ele>
        <time>2015-01-17T08:04:14Z</time>
      </trkpt>
      <trkpt lat="42.423074000" lon="-2.579359000">
        <ele>528.40</ele>
        <time>2015-01-17T08:04:15Z</time>
      </trkpt>
      <trkpt lat="42.423051000" lon="-2.579384000">
        <ele>528.40</ele>
        <time>2015-01-17T08:04:16Z</time>
      </trkpt>
      <trkpt lat="42.423028000" lon="-2.579409000">
        <ele>528.40</ele>
        <time>2015-01-17T08:04:17Z</time>
      </trkpt>
      <trkpt lat="42.423005000" lon="-2.579433000">
        <ele>528.40</ele>
        <time>2015-01-17T08:04:18Z</time>
      </trkpt>
      <trkpt lat="42.422979000" lon="-2.579454000">
        <ele>528.80</ele>
        <time>2015-01-17T08:04:19Z</time>
      </trkpt>
      <trkpt lat="42.422952000" lon="-2.579474000">
        <ele>529.10</ele>
        <time>2015-01-17T08:04:20Z</time>
      </trkpt>
      <trkpt lat="42.422924000" lon="-2.579495000">
        <ele>529.40</ele>
        <time>2015-01-17T08:04:21Z</time>
      </trkpt>
      <trkpt lat="42.422896000" lon="-2.579514000">
        <ele>529.60</ele>
        <time>2015-01-17T08:04:22Z</time>
      </trkpt>
      <trkpt lat="42.422871000" lon="-2.579529000">
        <ele>529.70</ele>
        <time>2015-01-17T08:04:23Z</time>
      </trkpt>
      <trkpt lat="42.422842000" lon="-2.579545000">
        <ele>529.80</ele>
        <time>2015-01-17T08:04:24Z</time>
      </trkpt>
      <trkpt lat="42.422814000" lon="-2.579558000">
        <ele>529.90</ele>
        <time>2015-01-17T08:04:25Z</time>
      </trkpt>
      <trkpt lat="42.422786000" lon="-2.579568000">
        <ele>530.00</ele>
        <time>2015-01-17T08:04:26Z</time>
      </trkpt>
      <trkpt lat="42.422756000" lon="-2.579580000">
        <ele>530.30</ele>
        <time>2015-01-17T08:04:27Z</time>
      </trkpt>
      <trkpt lat="42.422727000" lon="-2.579593000">
        <ele>530.50</ele>
        <time>2015-01-17T08:04:28Z</time>
      </trkpt>
      <trkpt lat="42.422696000" lon="-2.579607000">
        <ele>530.70</ele>
        <time>2015-01-17T08:04:29Z</time>
      </trkpt>
      <trkpt lat="42.422666000" lon="-2.579618000">
        <ele>530.90</ele>
        <time>2015-01-17T08:04:30Z</time>
      </trkpt>
      <trkpt lat="42.422635000" lon="-2.579631000">
        <ele>531.20</ele>
        <time>2015-01-17T08:04:31Z</time>
      </trkpt>
      <trkpt lat="42.422577000" lon="-2.579659000">
        <ele>531.70</ele>
        <time>2015-01-17T08:04:33Z</time>
      </trkpt>
      <trkpt lat="42.422548000" lon="-2.579676000">
        <ele>531.90</ele>
        <time>2015-01-17T08:04:34Z</time>
      </trkpt>
      <trkpt lat="42.422520000" lon="-2.579694000">
        <ele>532.00</ele>
        <time>2015-01-17T08:04:35Z</time>
      </trkpt>
      <trkpt lat="42.422490000" lon="-2.579710000">
        <ele>532.10</ele>
        <time>2015-01-17T08:04:36Z</time>
      </trkpt>
      <trkpt lat="42.422461000" lon="-2.579725000">
        <ele>532.30</ele>
        <time>2015-01-17T08:04:37Z</time>
      </trkpt>
      <trkpt lat="42.422433000" lon="-2.579748000">
        <ele>532.50</ele>
        <time>2015-01-17T08:04:38Z</time>
      </trkpt>
      <trkpt lat="42.422407000" lon="-2.579771000">
        <ele>532.50</ele>
        <time>2015-01-17T08:04:39Z</time>
      </trkpt>
      <trkpt lat="42.422379000" lon="-2.579793000">
        <ele>532.60</ele>
        <time>2015-01-17T08:04:40Z</time>
      </trkpt>
      <trkpt lat="42.422353000" lon="-2.579816000">
        <ele>532.60</ele>
        <time>2015-01-17T08:04:41Z</time>
      </trkpt>
      <trkpt lat="42.422326000" lon="-2.579841000">
        <ele>532.60</ele>
        <time>2015-01-17T08:04:42Z</time>
      </trkpt>
      <trkpt lat="42.422300000" lon="-2.579865000">
        <ele>532.60</ele>
        <time>2015-01-17T08:04:43Z</time>
      </trkpt>
      <trkpt lat="42.422275000" lon="-2.579890000">
        <ele>532.70</ele>
        <time>2015-01-17T08:04:44Z</time>
      </trkpt>
      <trkpt lat="42.422248000" lon="-2.579916000">
        <ele>532.70</ele>
        <time>2015-01-17T08:04:45Z</time>
      </trkpt>
      <trkpt lat="42.422221000" lon="-2.579944000">
        <ele>532.80</ele>
        <time>2015-01-17T08:04:46Z</time>
      </trkpt>
      <trkpt lat="42.422197000" lon="-2.579973000">
        <ele>532.80</ele>
        <time>2015-01-17T08:04:47Z</time>
      </trkpt>
      <trkpt lat="42.422172000" lon="-2.580002000">
        <ele>532.90</ele>
        <time>2015-01-17T08:04:48Z</time>
      </trkpt>
      <trkpt lat="42.422148000" lon="-2.580031000">
        <ele>533.30</ele>
        <time>2015-01-17T08:04:49Z</time>
      </trkpt>
      <trkpt lat="42.422126000" lon="-2.580059000">
        <ele>533.60</ele>
        <time>2015-01-17T08:04:50Z</time>
      </trkpt>
      <trkpt lat="42.422104000" lon="-2.580084000">
        <ele>533.80</ele>
        <time>2015-01-17T08:04:51Z</time>
      </trkpt>
      <trkpt lat="42.422082000" lon="-2.580112000">
        <ele>534.00</ele>
        <time>2015-01-17T08:04:52Z</time>
      </trkpt>
      <trkpt lat="42.422059000" lon="-2.580139000">
        <ele>534.30</ele>
        <time>2015-01-17T08:04:53Z</time>
      </trkpt>
      <trkpt lat="42.422037000" lon="-2.580165000">
        <ele>534.50</ele>
        <time>2015-01-17T08:04:54Z</time>
      </trkpt>
      <trkpt lat="42.422016000" lon="-2.580186000">
        <ele>534.50</ele>
        <time>2015-01-17T08:04:55Z</time>
      </trkpt>
      <trkpt lat="42.421991000" lon="-2.580207000">
        <ele>534.50</ele>
        <time>2015-01-17T08:04:56Z</time>
      </trkpt>
      <trkpt lat="42.421970000" lon="-2.580228000">
        <ele>534.70</ele>
        <time>2015-01-17T08:04:57Z</time>
      </trkpt>
      <trkpt lat="42.421950000" lon="-2.580247000">
        <ele>534.80</ele>
        <time>2015-01-17T08:04:58Z</time>
      </trkpt>
      <trkpt lat="42.421928000" lon="-2.580268000">
        <ele>534.80</ele>
        <time>2015-01-17T08:04:59Z</time>
      </trkpt>
      <trkpt lat="42.421906000" lon="-2.580296000">
        <ele>534.80</ele>
        <time>2015-01-17T08:05:00Z</time>
      </trkpt>
      <trkpt lat="42.421880000" lon="-2.580319000">
        <ele>534.90</ele>
        <time>2015-01-17T08:05:01Z</time>
      </trkpt>
      <trkpt lat="42.421853000" lon="-2.580345000">
        <ele>535.00</ele>
        <time>2015-01-17T08:05:02Z</time>
      </trkpt>
      <trkpt lat="42.421828000" lon="-2.580369000">
        <ele>535.10</ele>
        <time>2015-01-17T08:05:03Z</time>
      </trkpt>
      <trkpt lat="42.421807000" lon="-2.580395000">
        <ele>535.10</ele>
        <time>2015-01-17T08:05:04Z</time>
      </trkpt>
      <trkpt lat="42.421784000" lon="-2.580421000">
        <ele>535.40</ele>
        <time>2015-01-17T08:05:05Z</time>
      </trkpt>
      <trkpt lat="42.421763000" lon="-2.580448000">
        <ele>535.60</ele>
        <time>2015-01-17T08:05:06Z</time>
      </trkpt>
      <trkpt lat="42.421744000" lon="-2.580474000">
        <ele>535.80</ele>
        <time>2015-01-17T08:05:07Z</time>
      </trkpt>
      <trkpt lat="42.421726000" lon="-2.580500000">
        <ele>535.90</ele>
        <time>2015-01-17T08:05:08Z</time>
      </trkpt>
      <trkpt lat="42.421707000" lon="-2.580527000">
        <ele>536.00</ele>
        <time>2015-01-17T08:05:09Z</time>
      </trkpt>
      <trkpt lat="42.421690000" lon="-2.580555000">
        <ele>536.00</ele>
        <time>2015-01-17T08:05:10Z</time>
      </trkpt>
      <trkpt lat="42.421675000" lon="-2.580576000">
        <ele>536.00</ele>
        <time>2015-01-17T08:05:11Z</time>
      </trkpt>
      <trkpt lat="42.421661000" lon="-2.580598000">
        <ele>536.00</ele>
        <time>2015-01-17T08:05:12Z</time>
      </trkpt>
      <trkpt lat="42.421650000" lon="-2.580615000">
        <ele>536.00</ele>
        <time>2015-01-17T08:05:13Z</time>
      </trkpt>
      <trkpt lat="42.421640000" lon="-2.580632000">
        <ele>536.10</ele>
        <time>2015-01-17T08:05:14Z</time>
      </trkpt>
      <trkpt lat="42.421631000" lon="-2.580645000">
        <ele>536.10</ele>
        <time>2015-01-17T08:05:15Z</time>
      </trkpt>
      <trkpt lat="42.421619000" lon="-2.580657000">
        <ele>536.20</ele>
        <time>2015-01-17T08:05:16Z</time>
      </trkpt>
      <trkpt lat="42.421608000" lon="-2.580664000">
        <ele>536.20</ele>
        <time>2015-01-17T08:05:17Z</time>
      </trkpt>
      <trkpt lat="42.421595000" lon="-2.580674000">
        <ele>536.10</ele>
        <time>2015-01-17T08:05:18Z</time>
      </trkpt>
      <trkpt lat="42.421588000" lon="-2.580681000">
        <ele>536.20</ele>
        <time>2015-01-17T08:05:19Z</time>
      </trkpt>
      <trkpt lat="42.421580000" lon="-2.580690000">
        <ele>536.20</ele>
        <time>2015-01-17T08:05:20Z</time>
      </trkpt>
      <trkpt lat="42.421576000" lon="-2.580704000">
        <ele>536.20</ele>
        <time>2015-01-17T08:05:21Z</time>
      </trkpt>
      <trkpt lat="42.421569000" lon="-2.580711000">
        <ele>536.20</ele>
        <time>2015-01-17T08:05:22Z</time>
      </trkpt>
      <trkpt lat="42.421557000" lon="-2.580720000">
        <ele>536.20</ele>
        <time>2015-01-17T08:05:23Z</time>
      </trkpt>
      <trkpt lat="42.421547000" lon="-2.580727000">
        <ele>536.20</ele>
        <time>2015-01-17T08:05:24Z</time>
      </trkpt>
      <trkpt lat="42.421538000" lon="-2.580738000">
        <ele>536.30</ele>
        <time>2015-01-17T08:05:25Z</time>
      </trkpt>
      <trkpt lat="42.421531000" lon="-2.580752000">
        <ele>536.40</ele>
        <time>2015-01-17T08:05:26Z</time>
      </trkpt>
      <trkpt lat="42.421526000" lon="-2.580769000">
        <ele>536.50</ele>
        <time>2015-01-17T08:05:27Z</time>
      </trkpt>
      <trkpt lat="42.421523000" lon="-2.580784000">
        <ele>536.50</ele>
        <time>2015-01-17T08:05:28Z</time>
      </trkpt>
      <trkpt lat="42.421516000" lon="-2.580792000">
        <ele>536.50</ele>
        <time>2015-01-17T08:05:29Z</time>
      </trkpt>
      <trkpt lat="42.421510000" lon="-2.580801000">
        <ele>536.50</ele>
        <time>2015-01-17T08:05:30Z</time>
      </trkpt>
      <trkpt lat="42.421505000" lon="-2.580810000">
        <ele>536.60</ele>
        <time>2015-01-17T08:05:31Z</time>
      </trkpt>
      <trkpt lat="42.421495000" lon="-2.580818000">
        <ele>536.60</ele>
        <time>2015-01-17T08:05:32Z</time>
      </trkpt>
      <trkpt lat="42.421491000" lon="-2.580825000">
        <ele>536.80</ele>
        <time>2015-01-17T08:05:34Z</time>
      </trkpt>
      <trkpt lat="42.421493000" lon="-2.580825000">
        <ele>537.00</ele>
        <time>2015-01-17T08:05:35Z</time>
      </trkpt>
      <trkpt lat="42.421494000" lon="-2.580825000">
        <ele>537.20</ele>
        <time>2015-01-17T08:05:36Z</time>
      </trkpt>
      <trkpt lat="42.421495000" lon="-2.580825000">
        <ele>537.30</ele>
        <time>2015-01-17T08:05:37Z</time>
      </trkpt>
      <trkpt lat="42.421497000" lon="-2.580827000">
        <ele>537.40</ele>
        <time>2015-01-17T08:05:38Z</time>
      </trkpt>
      <trkpt lat="42.421493000" lon="-2.580826000">
        <ele>537.30</ele>
        <time>2015-01-17T08:05:39Z</time>
      </trkpt>
      <trkpt lat="42.421490000" lon="-2.580827000">
        <ele>537.20</ele>
        <time>2015-01-17T08:05:40Z</time>
      </trkpt>
      <trkpt lat="42.421487000" lon="-2.580826000">
        <ele>537.10</ele>
        <time>2015-01-17T08:05:41Z</time>
      </trkpt>
      <trkpt lat="42.421486000" lon="-2.580825000">
        <ele>537.00</ele>
        <time>2015-01-17T08:05:42Z</time>
      </trkpt>
      <trkpt lat="42.421488000" lon="-2.580822000">
        <ele>536.90</ele>
        <time>2015-01-17T08:05:43Z</time>
      </trkpt>
      <trkpt lat="42.421490000" lon="-2.580822000">
        <ele>536.80</ele>
        <time>2015-01-17T08:05:44Z</time>
      </trkpt>
      <trkpt lat="42.421488000" lon="-2.580821000">
        <ele>536.80</ele>
        <time>2015-01-17T08:05:45Z</time>
      </trkpt>
      <trkpt lat="42.421492000" lon="-2.580819000">
        <ele>536.90</ele>
        <time>2015-01-17T08:05:46Z</time>
      </trkpt>
      <trkpt lat="42.421491000" lon="-2.580816000">
        <ele>536.90</ele>
        <time>2015-01-17T08:05:47Z</time>
      </trkpt>
      <trkpt lat="42.421489000" lon="-2.580814000">
        <ele>536.90</ele>
        <time>2015-01-17T08:05:48Z</time>
      </trkpt>
      <trkpt lat="42.421487000" lon="-2.580812000">
        <ele>536.90</ele>
        <time>2015-01-17T08:05:49Z</time>
      </trkpt>
      <trkpt lat="42.421487000" lon="-2.580810000">
        <ele>536.90</ele>
        <time>2015-01-17T08:05:50Z</time>
      </trkpt>
      <trkpt lat="42.421484000" lon="-2.580809000">
        <ele>536.90</ele>
        <time>2015-01-17T08:05:51Z</time>
      </trkpt>
      <trkpt lat="42.421480000" lon="-2.580807000">
        <ele>536.90</ele>
        <time>2015-01-17T08:05:52Z</time>
      </trkpt>
      <trkpt lat="42.421476000" lon="-2.580804000">
        <ele>536.90</ele>
        <time>2015-01-17T08:05:53Z</time>
      </trkpt>
      <trkpt lat="42.421477000" lon="-2.580804000">
        <ele>536.90</ele>
        <time>2015-01-17T08:05:54Z</time>
      </trkpt>
      <trkpt lat="42.421484000" lon="-2.580806000">
        <ele>536.90</ele>
        <time>2015-01-17T08:05:55Z</time>
      </trkpt>
      <trkpt lat="42.421486000" lon="-2.580806000">
        <ele>537.00</ele>
        <time>2015-01-17T08:05:56Z</time>
      </trkpt>
      <trkpt lat="42.421484000" lon="-2.580805000">
        <ele>537.00</ele>
        <time>2015-01-17T08:05:57Z</time>
      </trkpt>
      <trkpt lat="42.421485000" lon="-2.580808000">
        <ele>537.00</ele>
        <time>2015-01-17T08:05:58Z</time>
      </trkpt>
      <trkpt lat="42.421487000" lon="-2.580810000">
        <ele>536.80</ele>
        <time>2015-01-17T08:05:59Z</time>
      </trkpt>
      <trkpt lat="42.421489000" lon="-2.580809000">
        <ele>536.80</ele>
        <time>2015-01-17T08:06:00Z</time>
      </trkpt>
      <trkpt lat="42.421487000" lon="-2.580810000">
        <ele>536.70</ele>
        <time>2015-01-17T08:06:01Z</time>
      </trkpt>
      <trkpt lat="42.421489000" lon="-2.580810000">
        <ele>536.70</ele>
        <time>2015-01-17T08:06:02Z</time>
      </trkpt>
      <trkpt lat="42.421491000" lon="-2.580810000">
        <ele>536.80</ele>
        <time>2015-01-17T08:06:03Z</time>
      </trkpt>
      <trkpt lat="42.421493000" lon="-2.580810000">
        <ele>536.80</ele>
        <time>2015-01-17T08:06:04Z</time>
      </trkpt>
      <trkpt lat="42.421495000" lon="-2.580804000">
        <ele>536.90</ele>
        <time>2015-01-17T08:06:05Z</time>
      </trkpt>
      <trkpt lat="42.421493000" lon="-2.580802000">
        <ele>536.90</ele>
        <time>2015-01-17T08:06:06Z</time>
      </trkpt>
      <trkpt lat="42.421496000" lon="-2.580800000">
        <ele>537.00</ele>
        <time>2015-01-17T08:06:07Z</time>
      </trkpt>
      <trkpt lat="42.421501000" lon="-2.580793000">
        <ele>537.00</ele>
        <time>2015-01-17T08:06:08Z</time>
      </trkpt>
      <trkpt lat="42.421500000" lon="-2.580793000">
        <ele>536.80</ele>
        <time>2015-01-17T08:06:09Z</time>
      </trkpt>
      <trkpt lat="42.421497000" lon="-2.580796000">
        <ele>536.70</ele>
        <time>2015-01-17T08:06:10Z</time>
      </trkpt>
      <trkpt lat="42.421497000" lon="-2.580796000">
        <ele>536.60</ele>
        <time>2015-01-17T08:06:11Z</time>
      </trkpt>
      <trkpt lat="42.421499000" lon="-2.580798000">
        <ele>536.50</ele>
        <time>2015-01-17T08:06:12Z</time>
      </trkpt>
      <trkpt lat="42.421499000" lon="-2.580804000">
        <ele>536.50</ele>
        <time>2015-01-17T08:06:13Z</time>
      </trkpt>
      <trkpt lat="42.421494000" lon="-2.580811000">
        <ele>536.40</ele>
        <time>2015-01-17T08:06:14Z</time>
      </trkpt>
      <trkpt lat="42.421492000" lon="-2.580815000">
        <ele>536.40</ele>
        <time>2015-01-17T08:06:15Z</time>
      </trkpt>
      <trkpt lat="42.421494000" lon="-2.580817000">
        <ele>536.40</ele>
        <time>2015-01-17T08:06:16Z</time>
      </trkpt>
      <trkpt lat="42.421492000" lon="-2.580817000">
        <ele>536.30</ele>
        <time>2015-01-17T08:06:17Z</time>
      </trkpt>
      <trkpt lat="42.421491000" lon="-2.580818000">
        <ele>536.30</ele>
        <time>2015-01-17T08:06:18Z</time>
      </trkpt>
      <trkpt lat="42.421490000" lon="-2.580815000">
        <ele>536.20</ele>
        <time>2015-01-17T08:06:19Z</time>
      </trkpt>
      <trkpt lat="42.421489000" lon="-2.580810000">
        <ele>536.20</ele>
        <time>2015-01-17T08:06:20Z</time>
      </trkpt>
      <trkpt lat="42.421487000" lon="-2.580808000">
        <ele>536.20</ele>
        <time>2015-01-17T08:06:21Z</time>
      </trkpt>
      <trkpt lat="42.421489000" lon="-2.580803000">
        <ele>536.10</ele>
        <time>2015-01-17T08:06:22Z</time>
      </trkpt>
      <trkpt lat="42.421489000" lon="-2.580802000">
        <ele>536.20</ele>
        <time>2015-01-17T08:06:23Z</time>
      </trkpt>
      <trkpt lat="42.421489000" lon="-2.580802000">
        <ele>536.20</ele>
        <time>2015-01-17T08:06:24Z</time>
      </trkpt>
      <trkpt lat="42.421488000" lon="-2.580799000">
        <ele>536.50</ele>
        <time>2015-01-17T08:06:25Z</time>
      </trkpt>
      <trkpt lat="42.421487000" lon="-2.580800000">
        <ele>536.60</ele>
        <time>2015-01-17T08:06:26Z</time>
      </trkpt>
      <trkpt lat="42.421489000" lon="-2.580800000">
        <ele>536.80</ele>
        <time>2015-01-17T08:06:27Z</time>
      </trkpt>
      <trkpt lat="42.421487000" lon="-2.580798000">
        <ele>536.80</ele>
        <time>2015-01-17T08:06:28Z</time>
      </trkpt>
      <trkpt lat="42.421487000" lon="-2.580795000">
        <ele>536.70</ele>
        <time>2015-01-17T08:06:29Z</time>
      </trkpt>
      <trkpt lat="42.421489000" lon="-2.580792000">
        <ele>536.60</ele>
        <time>2015-01-17T08:06:30Z</time>
      </trkpt>
      <trkpt lat="42.421487000" lon="-2.580791000">
        <ele>536.50</ele>
        <time>2015-01-17T08:06:31Z</time>
      </trkpt>
      <trkpt lat="42.421487000" lon="-2.580790000">
        <ele>536.40</ele>
        <time>2015-01-17T08:06:32Z</time>
      </trkpt>
      <trkpt lat="42.421488000" lon="-2.580794000">
        <ele>536.60</ele>
        <time>2015-01-17T08:06:33Z</time>
      </trkpt>
      <trkpt lat="42.421488000" lon="-2.580801000">
        <ele>536.90</ele>
        <time>2015-01-17T08:06:35Z</time>
      </trkpt>
      <trkpt lat="42.421484000" lon="-2.580807000">
        <ele>537.00</ele>
        <time>2015-01-17T08:06:36Z</time>
      </trkpt>
      <trkpt lat="42.421482000" lon="-2.580809000">
        <ele>537.20</ele>
        <time>2015-01-17T08:06:37Z</time>
      </trkpt>
      <trkpt lat="42.421480000" lon="-2.580809000">
        <ele>537.20</ele>
        <time>2015-01-17T08:06:38Z</time>
      </trkpt>
      <trkpt lat="42.421480000" lon="-2.580809000">
        <ele>537.20</ele>
        <time>2015-01-17T08:06:39Z</time>
      </trkpt>
      <trkpt lat="42.421480000" lon="-2.580808000">
        <ele>537.10</ele>
        <time>2015-01-17T08:06:40Z</time>
      </trkpt>
      <trkpt lat="42.421479000" lon="-2.580809000">
        <ele>536.90</ele>
        <time>2015-01-17T08:06:41Z</time>
      </trkpt>
      <trkpt lat="42.421478000" lon="-2.580809000">
        <ele>536.80</ele>
        <time>2015-01-17T08:06:42Z</time>
      </trkpt>
      <trkpt lat="42.421478000" lon="-2.580807000">
        <ele>536.60</ele>
        <time>2015-01-17T08:06:43Z</time>
      </trkpt>
      <trkpt lat="42.421480000" lon="-2.580808000">
        <ele>536.50</ele>
        <time>2015-01-17T08:06:44Z</time>
      </trkpt>
      <trkpt lat="42.421480000" lon="-2.580811000">
        <ele>536.30</ele>
        <time>2015-01-17T08:06:45Z</time>
      </trkpt>
      <trkpt lat="42.421480000" lon="-2.580811000">
        <ele>536.30</ele>
        <time>2015-01-17T08:06:46Z</time>
      </trkpt>
      <trkpt lat="42.421480000" lon="-2.580810000">
        <ele>536.30</ele>
        <time>2015-01-17T08:06:47Z</time>
      </trkpt>
      <trkpt lat="42.421479000" lon="-2.580809000">
        <ele>536.40</ele>
        <time>2015-01-17T08:06:48Z</time>
      </trkpt>
      <trkpt lat="42.421479000" lon="-2.580808000">
        <ele>536.40</ele>
        <time>2015-01-17T08:06:49Z</time>
      </trkpt>
      <trkpt lat="42.421479000" lon="-2.580807000">
        <ele>536.40</ele>
        <time>2015-01-17T08:06:50Z</time>
      </trkpt>
      <trkpt lat="42.421477000" lon="-2.580808000">
        <ele>536.50</ele>
        <time>2015-01-17T08:06:51Z</time>
      </trkpt>
      <trkpt lat="42.421477000" lon="-2.580807000">
        <ele>536.50</ele>
        <time>2015-01-17T08:06:52Z</time>
      </trkpt>
      <trkpt lat="42.421474000" lon="-2.580808000">
        <ele>536.40</ele>
        <time>2015-01-17T08:06:53Z</time>
      </trkpt>
      <trkpt lat="42.421472000" lon="-2.580806000">
        <ele>536.40</ele>
        <time>2015-01-17T08:06:54Z</time>
      </trkpt>
      <trkpt lat="42.421471000" lon="-2.580807000">
        <ele>536.40</ele>
        <time>2015-01-17T08:06:55Z</time>
      </trkpt>
      <trkpt lat="42.421471000" lon="-2.580805000">
        <ele>536.50</ele>
        <time>2015-01-17T08:06:56Z</time>
      </trkpt>
      <trkpt lat="42.421473000" lon="-2.580807000">
        <ele>536.50</ele>
        <time>2015-01-17T08:06:57Z</time>
      </trkpt>
      <trkpt lat="42.421477000" lon="-2.580807000">
        <ele>536.50</ele>
        <time>2015-01-17T08:06:58Z</time>
      </trkpt>
      <trkpt lat="42.421477000" lon="-2.580801000">
        <ele>536.60</ele>
        <time>2015-01-17T08:06:59Z</time>
      </trkpt>
      <trkpt lat="42.421478000" lon="-2.580797000">
        <ele>536.60</ele>
        <time>2015-01-17T08:07:00Z</time>
      </trkpt>
      <trkpt lat="42.421477000" lon="-2.580803000">
        <ele>536.60</ele>
        <time>2015-01-17T08:07:01Z</time>
      </trkpt>
      <trkpt lat="42.421480000" lon="-2.580808000">
        <ele>536.60</ele>
        <time>2015-01-17T08:07:02Z</time>
      </trkpt>
      <trkpt lat="42.421481000" lon="-2.580812000">
        <ele>536.40</ele>
        <time>2015-01-17T08:07:03Z</time>
      </trkpt>
      <trkpt lat="42.421484000" lon="-2.580817000">
        <ele>536.30</ele>
        <time>2015-01-17T08:07:04Z</time>
      </trkpt>
      <trkpt lat="42.421484000" lon="-2.580821000">
        <ele>536.20</ele>
        <time>2015-01-17T08:07:05Z</time>
      </trkpt>
      <trkpt lat="42.421484000" lon="-2.580826000">
        <ele>536.10</ele>
        <time>2015-01-17T08:07:06Z</time>
      </trkpt>
      <trkpt lat="42.421483000" lon="-2.580826000">
        <ele>536.30</ele>
        <time>2015-01-17T08:07:07Z</time>
      </trkpt>
      <trkpt lat="42.421483000" lon="-2.580827000">
        <ele>536.40</ele>
        <time>2015-01-17T08:07:08Z</time>
      </trkpt>
      <trkpt lat="42.421483000" lon="-2.580826000">
        <ele>536.50</ele>
        <time>2015-01-17T08:07:09Z</time>
      </trkpt>
      <trkpt lat="42.421480000" lon="-2.580828000">
        <ele>536.60</ele>
        <time>2015-01-17T08:07:10Z</time>
      </trkpt>
      <trkpt lat="42.421476000" lon="-2.580830000">
        <ele>536.60</ele>
        <time>2015-01-17T08:07:11Z</time>
      </trkpt>
      <trkpt lat="42.421472000" lon="-2.580840000">
        <ele>536.60</ele>
        <time>2015-01-17T08:07:12Z</time>
      </trkpt>
      <trkpt lat="42.421463000" lon="-2.580848000">
        <ele>536.70</ele>
        <time>2015-01-17T08:07:13Z</time>
      </trkpt>
      <trkpt lat="42.421451000" lon="-2.580854000">
        <ele>536.80</ele>
        <time>2015-01-17T08:07:14Z</time>
      </trkpt>
      <trkpt lat="42.421444000" lon="-2.580871000">
        <ele>536.70</ele>
        <time>2015-01-17T08:07:15Z</time>
      </trkpt>
      <trkpt lat="42.421440000" lon="-2.580896000">
        <ele>536.70</ele>
        <time>2015-01-17T08:07:16Z</time>
      </trkpt>
      <trkpt lat="42.421430000" lon="-2.580916000">
        <ele>536.70</ele>
        <time>2015-01-17T08:07:17Z</time>
      </trkpt>
      <trkpt lat="42.421416000" lon="-2.580935000">
        <ele>536.70</ele>
        <time>2015-01-17T08:07:18Z</time>
      </trkpt>
      <trkpt lat="42.421405000" lon="-2.580957000">
        <ele>536.70</ele>
        <time>2015-01-17T08:07:19Z</time>
      </trkpt>
      <trkpt lat="42.421395000" lon="-2.580986000">
        <ele>536.70</ele>
        <time>2015-01-17T08:07:20Z</time>
      </trkpt>
      <trkpt lat="42.421384000" lon="-2.581014000">
        <ele>536.80</ele>
        <time>2015-01-17T08:07:21Z</time>
      </trkpt>
      <trkpt lat="42.421372000" lon="-2.581039000">
        <ele>536.80</ele>
        <time>2015-01-17T08:07:22Z</time>
      </trkpt>
      <trkpt lat="42.421359000" lon="-2.581067000">
        <ele>537.00</ele>
        <time>2015-01-17T08:07:23Z</time>
      </trkpt>
      <trkpt lat="42.421348000" lon="-2.581093000">
        <ele>537.10</ele>
        <time>2015-01-17T08:07:24Z</time>
      </trkpt>
      <trkpt lat="42.421334000" lon="-2.581124000">
        <ele>537.40</ele>
        <time>2015-01-17T08:07:25Z</time>
      </trkpt>
      <trkpt lat="42.421320000" lon="-2.581152000">
        <ele>537.70</ele>
        <time>2015-01-17T08:07:26Z</time>
      </trkpt>
      <trkpt lat="42.421305000" lon="-2.581182000">
        <ele>538.00</ele>
        <time>2015-01-17T08:07:27Z</time>
      </trkpt>
      <trkpt lat="42.421288000" lon="-2.581211000">
        <ele>538.20</ele>
        <time>2015-01-17T08:07:28Z</time>
      </trkpt>
      <trkpt lat="42.421272000" lon="-2.581238000">
        <ele>538.50</ele>
        <time>2015-01-17T08:07:29Z</time>
      </trkpt>
      <trkpt lat="42.421254000" lon="-2.581265000">
        <ele>538.60</ele>
        <time>2015-01-17T08:07:30Z</time>
      </trkpt>
      <trkpt lat="42.421236000" lon="-2.581291000">
        <ele>538.80</ele>
        <time>2015-01-17T08:07:31Z</time>
      </trkpt>
      <trkpt lat="42.421216000" lon="-2.581319000">
        <ele>539.00</ele>
        <time>2015-01-17T08:07:32Z</time>
      </trkpt>
      <trkpt lat="42.421196000" lon="-2.581347000">
        <ele>539.10</ele>
        <time>2015-01-17T08:07:33Z</time>
      </trkpt>
      <trkpt lat="42.421180000" lon="-2.581378000">
        <ele>539.20</ele>
        <time>2015-01-17T08:07:34Z</time>
      </trkpt>
      <trkpt lat="42.421142000" lon="-2.581434000">
        <ele>539.30</ele>
        <time>2015-01-17T08:07:36Z</time>
      </trkpt>
      <trkpt lat="42.421121000" lon="-2.581459000">
        <ele>539.40</ele>
        <time>2015-01-17T08:07:37Z</time>
      </trkpt>
      <trkpt lat="42.421100000" lon="-2.581487000">
        <ele>539.50</ele>
        <time>2015-01-17T08:07:38Z</time>
      </trkpt>
      <trkpt lat="42.421081000" lon="-2.581515000">
        <ele>539.60</ele>
        <time>2015-01-17T08:07:39Z</time>
      </trkpt>
      <trkpt lat="42.421062000" lon="-2.581544000">
        <ele>539.60</ele>
        <time>2015-01-17T08:07:40Z</time>
      </trkpt>
      <trkpt lat="42.421042000" lon="-2.581573000">
        <ele>539.60</ele>
        <time>2015-01-17T08:07:41Z</time>
      </trkpt>
      <trkpt lat="42.421024000" lon="-2.581598000">
        <ele>539.70</ele>
        <time>2015-01-17T08:07:42Z</time>
      </trkpt>
      <trkpt lat="42.421003000" lon="-2.581622000">
        <ele>539.70</ele>
        <time>2015-01-17T08:07:43Z</time>
      </trkpt>
      <trkpt lat="42.420981000" lon="-2.581649000">
        <ele>539.70</ele>
        <time>2015-01-17T08:07:44Z</time>
      </trkpt>
      <trkpt lat="42.420959000" lon="-2.581676000">
        <ele>539.80</ele>
        <time>2015-01-17T08:07:45Z</time>
      </trkpt>
      <trkpt lat="42.420937000" lon="-2.581705000">
        <ele>539.80</ele>
        <time>2015-01-17T08:07:46Z</time>
      </trkpt>
      <trkpt lat="42.420916000" lon="-2.581732000">
        <ele>540.00</ele>
        <time>2015-01-17T08:07:47Z</time>
      </trkpt>
      <trkpt lat="42.420896000" lon="-2.581757000">
        <ele>540.10</ele>
        <time>2015-01-17T08:07:48Z</time>
      </trkpt>
      <trkpt lat="42.420871000" lon="-2.581783000">
        <ele>540.40</ele>
        <time>2015-01-17T08:07:49Z</time>
      </trkpt>
      <trkpt lat="42.420846000" lon="-2.581808000">
        <ele>540.50</ele>
        <time>2015-01-17T08:07:50Z</time>
      </trkpt>
      <trkpt lat="42.420825000" lon="-2.581834000">
        <ele>540.70</ele>
        <time>2015-01-17T08:07:51Z</time>
      </trkpt>
      <trkpt lat="42.420802000" lon="-2.581862000">
        <ele>540.80</ele>
        <time>2015-01-17T08:07:52Z</time>
      </trkpt>
      <trkpt lat="42.420778000" lon="-2.581890000">
        <ele>540.90</ele>
        <time>2015-01-17T08:07:53Z</time>
      </trkpt>
      <trkpt lat="42.420755000" lon="-2.581919000">
        <ele>540.90</ele>
        <time>2015-01-17T08:07:54Z</time>
      </trkpt>
      <trkpt lat="42.420732000" lon="-2.581949000">
        <ele>541.10</ele>
        <time>2015-01-17T08:07:55Z</time>
      </trkpt>
      <trkpt lat="42.420709000" lon="-2.581976000">
        <ele>541.10</ele>
        <time>2015-01-17T08:07:56Z</time>
      </trkpt>
      <trkpt lat="42.420685000" lon="-2.582004000">
        <ele>541.40</ele>
        <time>2015-01-17T08:07:57Z</time>
      </trkpt>
      <trkpt lat="42.420661000" lon="-2.582034000">
        <ele>541.70</ele>
        <time>2015-01-17T08:07:58Z</time>
      </trkpt>
      <trkpt lat="42.420638000" lon="-2.582059000">
        <ele>541.90</ele>
        <time>2015-01-17T08:07:59Z</time>
      </trkpt>
      <trkpt lat="42.420618000" lon="-2.582079000">
        <ele>542.10</ele>
        <time>2015-01-17T08:08:00Z</time>
      </trkpt>
      <trkpt lat="42.420596000" lon="-2.582099000">
        <ele>542.20</ele>
        <time>2015-01-17T08:08:01Z</time>
      </trkpt>
      <trkpt lat="42.420573000" lon="-2.582124000">
        <ele>542.30</ele>
        <time>2015-01-17T08:08:02Z</time>
      </trkpt>
      <trkpt lat="42.420547000" lon="-2.582149000">
        <ele>542.40</ele>
        <time>2015-01-17T08:08:03Z</time>
      </trkpt>
      <trkpt lat="42.420522000" lon="-2.582175000">
        <ele>542.40</ele>
        <time>2015-01-17T08:08:04Z</time>
      </trkpt>
      <trkpt lat="42.420492000" lon="-2.582200000">
        <ele>542.50</ele>
        <time>2015-01-17T08:08:05Z</time>
      </trkpt>
      <trkpt lat="42.420464000" lon="-2.582221000">
        <ele>542.60</ele>
        <time>2015-01-17T08:08:06Z</time>
      </trkpt>
      <trkpt lat="42.420435000" lon="-2.582240000">
        <ele>542.70</ele>
        <time>2015-01-17T08:08:07Z</time>
      </trkpt>
      <trkpt lat="42.420407000" lon="-2.582259000">
        <ele>542.70</ele>
        <time>2015-01-17T08:08:08Z</time>
      </trkpt>
      <trkpt lat="42.420379000" lon="-2.582280000">
        <ele>542.80</ele>
        <time>2015-01-17T08:08:09Z</time>
      </trkpt>
      <trkpt lat="42.420351000" lon="-2.582300000">
        <ele>542.80</ele>
        <time>2015-01-17T08:08:10Z</time>
      </trkpt>
      <trkpt lat="42.420319000" lon="-2.582321000">
        <ele>542.90</ele>
        <time>2015-01-17T08:08:11Z</time>
      </trkpt>
      <trkpt lat="42.420290000" lon="-2.582343000">
        <ele>543.10</ele>
        <time>2015-01-17T08:08:12Z</time>
      </trkpt>
      <trkpt lat="42.420259000" lon="-2.582361000">
        <ele>543.40</ele>
        <time>2015-01-17T08:08:13Z</time>
      </trkpt>
      <trkpt lat="42.420229000" lon="-2.582381000">
        <ele>543.70</ele>
        <time>2015-01-17T08:08:14Z</time>
      </trkpt>
      <trkpt lat="42.420201000" lon="-2.582403000">
        <ele>543.90</ele>
        <time>2015-01-17T08:08:15Z</time>
      </trkpt>
      <trkpt lat="42.420169000" lon="-2.582425000">
        <ele>544.00</ele>
        <time>2015-01-17T08:08:16Z</time>
      </trkpt>
      <trkpt lat="42.420139000" lon="-2.582443000">
        <ele>544.10</ele>
        <time>2015-01-17T08:08:17Z</time>
      </trkpt>
      <trkpt lat="42.420110000" lon="-2.582461000">
        <ele>544.20</ele>
        <time>2015-01-17T08:08:18Z</time>
      </trkpt>
      <trkpt lat="42.420083000" lon="-2.582483000">
        <ele>544.30</ele>
        <time>2015-01-17T08:08:19Z</time>
      </trkpt>
      <trkpt lat="42.420055000" lon="-2.582510000">
        <ele>544.40</ele>
        <time>2015-01-17T08:08:20Z</time>
      </trkpt>
      <trkpt lat="42.420027000" lon="-2.582536000">
        <ele>544.50</ele>
        <time>2015-01-17T08:08:21Z</time>
      </trkpt>
      <trkpt lat="42.419998000" lon="-2.582559000">
        <ele>544.70</ele>
        <time>2015-01-17T08:08:22Z</time>
      </trkpt>
      <trkpt lat="42.419969000" lon="-2.582578000">
        <ele>544.80</ele>
        <time>2015-01-17T08:08:23Z</time>
      </trkpt>
      <trkpt lat="42.419940000" lon="-2.582596000">
        <ele>544.90</ele>
        <time>2015-01-17T08:08:24Z</time>
      </trkpt>
      <trkpt lat="42.419911000" lon="-2.582619000">
        <ele>545.00</ele>
        <time>2015-01-17T08:08:25Z</time>
      </trkpt>
      <trkpt lat="42.419883000" lon="-2.582641000">
        <ele>545.20</ele>
        <time>2015-01-17T08:08:26Z</time>
      </trkpt>
      <trkpt lat="42.419856000" lon="-2.582669000">
        <ele>545.20</ele>
        <time>2015-01-17T08:08:27Z</time>
      </trkpt>
      <trkpt lat="42.419828000" lon="-2.582695000">
        <ele>545.30</ele>
        <time>2015-01-17T08:08:28Z</time>
      </trkpt>
      <trkpt lat="42.419798000" lon="-2.582719000">
        <ele>545.30</ele>
        <time>2015-01-17T08:08:29Z</time>
      </trkpt>
      <trkpt lat="42.419771000" lon="-2.582745000">
        <ele>545.40</ele>
        <time>2015-01-17T08:08:30Z</time>
      </trkpt>
      <trkpt lat="42.419742000" lon="-2.582771000">
        <ele>545.70</ele>
        <time>2015-01-17T08:08:31Z</time>
      </trkpt>
      <trkpt lat="42.419716000" lon="-2.582797000">
        <ele>546.00</ele>
        <time>2015-01-17T08:08:32Z</time>
      </trkpt>
      <trkpt lat="42.419691000" lon="-2.582826000">
        <ele>546.30</ele>
        <time>2015-01-17T08:08:33Z</time>
      </trkpt>
      <trkpt lat="42.419666000" lon="-2.582857000">
        <ele>546.60</ele>
        <time>2015-01-17T08:08:34Z</time>
      </trkpt>
      <trkpt lat="42.419642000" lon="-2.582890000">
        <ele>546.80</ele>
        <time>2015-01-17T08:08:35Z</time>
      </trkpt>
      <trkpt lat="42.419601000" lon="-2.582965000">
        <ele>547.20</ele>
        <time>2015-01-17T08:08:37Z</time>
      </trkpt>
      <trkpt lat="42.419583000" lon="-2.583007000">
        <ele>547.50</ele>
        <time>2015-01-17T08:08:38Z</time>
      </trkpt>
      <trkpt lat="42.419568000" lon="-2.583051000">
        <ele>547.30</ele>
        <time>2015-01-17T08:08:39Z</time>
      </trkpt>
      <trkpt lat="42.419556000" lon="-2.583098000">
        <ele>547.20</ele>
        <time>2015-01-17T08:08:40Z</time>
      </trkpt>
      <trkpt lat="42.419544000" lon="-2.583140000">
        <ele>547.40</ele>
        <time>2015-01-17T08:08:41Z</time>
      </trkpt>
      <trkpt lat="42.419536000" lon="-2.583185000">
        <ele>547.50</ele>
        <time>2015-01-17T08:08:42Z</time>
      </trkpt>
      <trkpt lat="42.419527000" lon="-2.583231000">
        <ele>547.70</ele>
        <time>2015-01-17T08:08:43Z</time>
      </trkpt>
      <trkpt lat="42.419514000" lon="-2.583273000">
        <ele>547.70</ele>
        <time>2015-01-17T08:08:44Z</time>
      </trkpt>
      <trkpt lat="42.419498000" lon="-2.583314000">
        <ele>547.80</ele>
        <time>2015-01-17T08:08:45Z</time>
      </trkpt>
      <trkpt lat="42.419481000" lon="-2.583358000">
        <ele>547.90</ele>
        <time>2015-01-17T08:08:46Z</time>
      </trkpt>
      <trkpt lat="42.419465000" lon="-2.583401000">
        <ele>547.90</ele>
        <time>2015-01-17T08:08:47Z</time>
      </trkpt>
      <trkpt lat="42.419446000" lon="-2.583441000">
        <ele>547.90</ele>
        <time>2015-01-17T08:08:48Z</time>
      </trkpt>
      <trkpt lat="42.419427000" lon="-2.583480000">
        <ele>548.10</ele>
        <time>2015-01-17T08:08:49Z</time>
      </trkpt>
      <trkpt lat="42.419407000" lon="-2.583516000">
        <ele>548.20</ele>
        <time>2015-01-17T08:08:50Z</time>
      </trkpt>
      <trkpt lat="42.419385000" lon="-2.583551000">
        <ele>548.40</ele>
        <time>2015-01-17T08:08:51Z</time>
      </trkpt>
      <trkpt lat="42.419362000" lon="-2.583583000">
        <ele>548.60</ele>
        <time>2015-01-17T08:08:52Z</time>
      </trkpt>
      <trkpt lat="42.419338000" lon="-2.583612000">
        <ele>548.80</ele>
        <time>2015-01-17T08:08:53Z</time>
      </trkpt>
      <trkpt lat="42.419312000" lon="-2.583641000">
        <ele>548.90</ele>
        <time>2015-01-17T08:08:54Z</time>
      </trkpt>
      <trkpt lat="42.419286000" lon="-2.583670000">
        <ele>548.90</ele>
        <time>2015-01-17T08:08:55Z</time>
      </trkpt>
      <trkpt lat="42.419261000" lon="-2.583700000">
        <ele>548.80</ele>
        <time>2015-01-17T08:08:56Z</time>
      </trkpt>
      <trkpt lat="42.419236000" lon="-2.583730000">
        <ele>548.80</ele>
        <time>2015-01-17T08:08:57Z</time>
      </trkpt>
      <trkpt lat="42.419210000" lon="-2.583761000">
        <ele>548.80</ele>
        <time>2015-01-17T08:08:58Z</time>
      </trkpt>
      <trkpt lat="42.419185000" lon="-2.583794000">
        <ele>548.80</ele>
        <time>2015-01-17T08:08:59Z</time>
      </trkpt>
      <trkpt lat="42.419163000" lon="-2.583828000">
        <ele>548.80</ele>
        <time>2015-01-17T08:09:00Z</time>
      </trkpt>
      <trkpt lat="42.419142000" lon="-2.583864000">
        <ele>548.90</ele>
        <time>2015-01-17T08:09:01Z</time>
      </trkpt>
      <trkpt lat="42.419124000" lon="-2.583901000">
        <ele>549.00</ele>
        <time>2015-01-17T08:09:02Z</time>
      </trkpt>
      <trkpt lat="42.419106000" lon="-2.583937000">
        <ele>549.10</ele>
        <time>2015-01-17T08:09:03Z</time>
      </trkpt>
      <trkpt lat="42.419088000" lon="-2.583975000">
        <ele>549.20</ele>
        <time>2015-01-17T08:09:04Z</time>
      </trkpt>
      <trkpt lat="42.419072000" lon="-2.584013000">
        <ele>549.30</ele>
        <time>2015-01-17T08:09:05Z</time>
      </trkpt>
      <trkpt lat="42.419055000" lon="-2.584047000">
        <ele>549.50</ele>
        <time>2015-01-17T08:09:06Z</time>
      </trkpt>
      <trkpt lat="42.419038000" lon="-2.584082000">
        <ele>549.70</ele>
        <time>2015-01-17T08:09:07Z</time>
      </trkpt>
      <trkpt lat="42.419022000" lon="-2.584116000">
        <ele>549.80</ele>
        <time>2015-01-17T08:09:08Z</time>
      </trkpt>
      <trkpt lat="42.419004000" lon="-2.584150000">
        <ele>550.00</ele>
        <time>2015-01-17T08:09:09Z</time>
      </trkpt>
      <trkpt lat="42.418988000" lon="-2.584181000">
        <ele>550.10</ele>
        <time>2015-01-17T08:09:10Z</time>
      </trkpt>
      <trkpt lat="42.418975000" lon="-2.584214000">
        <ele>550.40</ele>
        <time>2015-01-17T08:09:11Z</time>
      </trkpt>
      <trkpt lat="42.418961000" lon="-2.584242000">
        <ele>550.50</ele>
        <time>2015-01-17T08:09:12Z</time>
      </trkpt>
      <trkpt lat="42.418942000" lon="-2.584269000">
        <ele>550.70</ele>
        <time>2015-01-17T08:09:13Z</time>
      </trkpt>
      <trkpt lat="42.418925000" lon="-2.584299000">
        <ele>550.80</ele>
        <time>2015-01-17T08:09:14Z</time>
      </trkpt>
      <trkpt lat="42.418905000" lon="-2.584329000">
        <ele>550.80</ele>
        <time>2015-01-17T08:09:15Z</time>
      </trkpt>
      <trkpt lat="42.418887000" lon="-2.584356000">
        <ele>550.90</ele>
        <time>2015-01-17T08:09:16Z</time>
      </trkpt>
      <trkpt lat="42.418868000" lon="-2.584382000">
        <ele>551.20</ele>
        <time>2015-01-17T08:09:17Z</time>
      </trkpt>
      <trkpt lat="42.418849000" lon="-2.584414000">
        <ele>551.40</ele>
        <time>2015-01-17T08:09:18Z</time>
      </trkpt>
      <trkpt lat="42.418828000" lon="-2.584443000">
        <ele>551.60</ele>
        <time>2015-01-17T08:09:19Z</time>
      </trkpt>
      <trkpt lat="42.418809000" lon="-2.584471000">
        <ele>551.70</ele>
        <time>2015-01-17T08:09:20Z</time>
      </trkpt>
      <trkpt lat="42.418788000" lon="-2.584497000">
        <ele>551.80</ele>
        <time>2015-01-17T08:09:21Z</time>
      </trkpt>
      <trkpt lat="42.418768000" lon="-2.584523000">
        <ele>551.90</ele>
        <time>2015-01-17T08:09:22Z</time>
      </trkpt>
      <trkpt lat="42.418749000" lon="-2.584546000">
        <ele>552.00</ele>
        <time>2015-01-17T08:09:23Z</time>
      </trkpt>
      <trkpt lat="42.418729000" lon="-2.584568000">
        <ele>552.10</ele>
        <time>2015-01-17T08:09:24Z</time>
      </trkpt>
      <trkpt lat="42.418707000" lon="-2.584588000">
        <ele>552.30</ele>
        <time>2015-01-17T08:09:25Z</time>
      </trkpt>
      <trkpt lat="42.418682000" lon="-2.584612000">
        <ele>552.40</ele>
        <time>2015-01-17T08:09:26Z</time>
      </trkpt>
      <trkpt lat="42.418657000" lon="-2.584634000">
        <ele>552.70</ele>
        <time>2015-01-17T08:09:27Z</time>
      </trkpt>
      <trkpt lat="42.418630000" lon="-2.584654000">
        <ele>552.90</ele>
        <time>2015-01-17T08:09:28Z</time>
      </trkpt>
      <trkpt lat="42.418602000" lon="-2.584673000">
        <ele>553.10</ele>
        <time>2015-01-17T08:09:29Z</time>
      </trkpt>
      <trkpt lat="42.418578000" lon="-2.584692000">
        <ele>553.20</ele>
        <time>2015-01-17T08:09:30Z</time>
      </trkpt>
      <trkpt lat="42.418554000" lon="-2.584713000">
        <ele>553.30</ele>
        <time>2015-01-17T08:09:31Z</time>
      </trkpt>
      <trkpt lat="42.418529000" lon="-2.584734000">
        <ele>553.40</ele>
        <time>2015-01-17T08:09:32Z</time>
      </trkpt>
      <trkpt lat="42.418504000" lon="-2.584757000">
        <ele>553.50</ele>
        <time>2015-01-17T08:09:33Z</time>
      </trkpt>
      <trkpt lat="42.418477000" lon="-2.584782000">
        <ele>553.50</ele>
        <time>2015-01-17T08:09:34Z</time>
      </trkpt>
      <trkpt lat="42.418453000" lon="-2.584802000">
        <ele>553.70</ele>
        <time>2015-01-17T08:09:35Z</time>
      </trkpt>
      <trkpt lat="42.418426000" lon="-2.584822000">
        <ele>553.80</ele>
        <time>2015-01-17T08:09:36Z</time>
      </trkpt>
      <trkpt lat="42.418376000" lon="-2.584870000">
        <ele>553.90</ele>
        <time>2015-01-17T08:09:38Z</time>
      </trkpt>
      <trkpt lat="42.418350000" lon="-2.584893000">
        <ele>554.10</ele>
        <time>2015-01-17T08:09:39Z</time>
      </trkpt>
      <trkpt lat="42.418325000" lon="-2.584920000">
        <ele>554.20</ele>
        <time>2015-01-17T08:09:40Z</time>
      </trkpt>
      <trkpt lat="42.418300000" lon="-2.584940000">
        <ele>554.30</ele>
        <time>2015-01-17T08:09:41Z</time>
      </trkpt>
      <trkpt lat="42.418277000" lon="-2.584961000">
        <ele>554.40</ele>
        <time>2015-01-17T08:09:42Z</time>
      </trkpt>
      <trkpt lat="42.418255000" lon="-2.584986000">
        <ele>554.50</ele>
        <time>2015-01-17T08:09:43Z</time>
      </trkpt>
      <trkpt lat="42.418232000" lon="-2.585009000">
        <ele>554.50</ele>
        <time>2015-01-17T08:09:44Z</time>
      </trkpt>
      <trkpt lat="42.418208000" lon="-2.585031000">
        <ele>554.80</ele>
        <time>2015-01-17T08:09:45Z</time>
      </trkpt>
      <trkpt lat="42.418182000" lon="-2.585056000">
        <ele>555.00</ele>
        <time>2015-01-17T08:09:46Z</time>
      </trkpt>
      <trkpt lat="42.418155000" lon="-2.585084000">
        <ele>555.20</ele>
        <time>2015-01-17T08:09:47Z</time>
      </trkpt>
      <trkpt lat="42.418127000" lon="-2.585110000">
        <ele>555.30</ele>
        <time>2015-01-17T08:09:48Z</time>
      </trkpt>
      <trkpt lat="42.418101000" lon="-2.585134000">
        <ele>555.50</ele>
        <time>2015-01-17T08:09:49Z</time>
      </trkpt>
      <trkpt lat="42.418074000" lon="-2.585155000">
        <ele>555.60</ele>
        <time>2015-01-17T08:09:50Z</time>
      </trkpt>
      <trkpt lat="42.418048000" lon="-2.585178000">
        <ele>555.70</ele>
        <time>2015-01-17T08:09:51Z</time>
      </trkpt>
      <trkpt lat="42.418025000" lon="-2.585203000">
        <ele>555.70</ele>
        <time>2015-01-17T08:09:52Z</time>
      </trkpt>
      <trkpt lat="42.418002000" lon="-2.585227000">
        <ele>555.80</ele>
        <time>2015-01-17T08:09:53Z</time>
      </trkpt>
      <trkpt lat="42.417979000" lon="-2.585250000">
        <ele>555.80</ele>
        <time>2015-01-17T08:09:54Z</time>
      </trkpt>
      <trkpt lat="42.417955000" lon="-2.585277000">
        <ele>555.70</ele>
        <time>2015-01-17T08:09:55Z</time>
      </trkpt>
      <trkpt lat="42.417929000" lon="-2.585299000">
        <ele>555.60</ele>
        <time>2015-01-17T08:09:56Z</time>
      </trkpt>
      <trkpt lat="42.417908000" lon="-2.585323000">
        <ele>555.60</ele>
        <time>2015-01-17T08:09:57Z</time>
      </trkpt>
      <trkpt lat="42.417887000" lon="-2.585348000">
        <ele>555.50</ele>
        <time>2015-01-17T08:09:58Z</time>
      </trkpt>
      <trkpt lat="42.417866000" lon="-2.585373000">
        <ele>555.50</ele>
        <time>2015-01-17T08:09:59Z</time>
      </trkpt>
      <trkpt lat="42.417845000" lon="-2.585397000">
        <ele>555.50</ele>
        <time>2015-01-17T08:10:00Z</time>
      </trkpt>
      <trkpt lat="42.417821000" lon="-2.585422000">
        <ele>555.90</ele>
        <time>2015-01-17T08:10:01Z</time>
      </trkpt>
      <trkpt lat="42.417797000" lon="-2.585448000">
        <ele>556.30</ele>
        <time>2015-01-17T08:10:02Z</time>
      </trkpt>
      <trkpt lat="42.417773000" lon="-2.585474000">
        <ele>556.50</ele>
        <time>2015-01-17T08:10:03Z</time>
      </trkpt>
      <trkpt lat="42.417748000" lon="-2.585497000">
        <ele>556.70</ele>
        <time>2015-01-17T08:10:04Z</time>
      </trkpt>
      <trkpt lat="42.417724000" lon="-2.585524000">
        <ele>556.90</ele>
        <time>2015-01-17T08:10:05Z</time>
      </trkpt>
      <trkpt lat="42.417701000" lon="-2.585549000">
        <ele>557.00</ele>
        <time>2015-01-17T08:10:06Z</time>
      </trkpt>
      <trkpt lat="42.417677000" lon="-2.585578000">
        <ele>557.10</ele>
        <time>2015-01-17T08:10:07Z</time>
      </trkpt>
      <trkpt lat="42.417649000" lon="-2.585603000">
        <ele>557.10</ele>
        <time>2015-01-17T08:10:08Z</time>
      </trkpt>
      <trkpt lat="42.417621000" lon="-2.585628000">
        <ele>557.50</ele>
        <time>2015-01-17T08:10:09Z</time>
      </trkpt>
      <trkpt lat="42.417596000" lon="-2.585652000">
        <ele>557.80</ele>
        <time>2015-01-17T08:10:10Z</time>
      </trkpt>
      <trkpt lat="42.417568000" lon="-2.585676000">
        <ele>558.00</ele>
        <time>2015-01-17T08:10:11Z</time>
      </trkpt>
      <trkpt lat="42.417544000" lon="-2.585698000">
        <ele>558.20</ele>
        <time>2015-01-17T08:10:12Z</time>
      </trkpt>
      <trkpt lat="42.417520000" lon="-2.585724000">
        <ele>558.30</ele>
        <time>2015-01-17T08:10:13Z</time>
      </trkpt>
      <trkpt lat="42.417497000" lon="-2.585749000">
        <ele>558.40</ele>
        <time>2015-01-17T08:10:14Z</time>
      </trkpt>
      <trkpt lat="42.417474000" lon="-2.585770000">
        <ele>558.40</ele>
        <time>2015-01-17T08:10:15Z</time>
      </trkpt>
      <trkpt lat="42.417449000" lon="-2.585792000">
        <ele>558.50</ele>
        <time>2015-01-17T08:10:16Z</time>
      </trkpt>
      <trkpt lat="42.417424000" lon="-2.585814000">
        <ele>558.60</ele>
        <time>2015-01-17T08:10:17Z</time>
      </trkpt>
      <trkpt lat="42.417400000" lon="-2.585837000">
        <ele>558.80</ele>
        <time>2015-01-17T08:10:18Z</time>
      </trkpt>
      <trkpt lat="42.417374000" lon="-2.585860000">
        <ele>559.00</ele>
        <time>2015-01-17T08:10:19Z</time>
      </trkpt>
      <trkpt lat="42.417347000" lon="-2.585884000">
        <ele>559.20</ele>
        <time>2015-01-17T08:10:20Z</time>
      </trkpt>
      <trkpt lat="42.417321000" lon="-2.585906000">
        <ele>559.50</ele>
        <time>2015-01-17T08:10:21Z</time>
      </trkpt>
      <trkpt lat="42.417297000" lon="-2.585931000">
        <ele>559.60</ele>
        <time>2015-01-17T08:10:22Z</time>
      </trkpt>
      <trkpt lat="42.417272000" lon="-2.585950000">
        <ele>559.70</ele>
        <time>2015-01-17T08:10:23Z</time>
      </trkpt>
      <trkpt lat="42.417247000" lon="-2.585970000">
        <ele>559.80</ele>
        <time>2015-01-17T08:10:24Z</time>
      </trkpt>
      <trkpt lat="42.417225000" lon="-2.585988000">
        <ele>559.90</ele>
        <time>2015-01-17T08:10:25Z</time>
      </trkpt>
      <trkpt lat="42.417204000" lon="-2.586008000">
        <ele>560.00</ele>
        <time>2015-01-17T08:10:26Z</time>
      </trkpt>
      <trkpt lat="42.417180000" lon="-2.586033000">
        <ele>560.00</ele>
        <time>2015-01-17T08:10:27Z</time>
      </trkpt>
      <trkpt lat="42.417156000" lon="-2.586054000">
        <ele>560.00</ele>
        <time>2015-01-17T08:10:28Z</time>
      </trkpt>
      <trkpt lat="42.417132000" lon="-2.586077000">
        <ele>560.10</ele>
        <time>2015-01-17T08:10:29Z</time>
      </trkpt>
      <trkpt lat="42.417107000" lon="-2.586098000">
        <ele>560.20</ele>
        <time>2015-01-17T08:10:30Z</time>
      </trkpt>
      <trkpt lat="42.417083000" lon="-2.586123000">
        <ele>560.40</ele>
        <time>2015-01-17T08:10:31Z</time>
      </trkpt>
      <trkpt lat="42.417059000" lon="-2.586147000">
        <ele>560.50</ele>
        <time>2015-01-17T08:10:32Z</time>
      </trkpt>
      <trkpt lat="42.417037000" lon="-2.586170000">
        <ele>560.60</ele>
        <time>2015-01-17T08:10:33Z</time>
      </trkpt>
      <trkpt lat="42.417014000" lon="-2.586194000">
        <ele>560.70</ele>
        <time>2015-01-17T08:10:34Z</time>
      </trkpt>
      <trkpt lat="42.416991000" lon="-2.586214000">
        <ele>560.70</ele>
        <time>2015-01-17T08:10:35Z</time>
      </trkpt>
      <trkpt lat="42.416971000" lon="-2.586236000">
        <ele>560.80</ele>
        <time>2015-01-17T08:10:36Z</time>
      </trkpt>
      <trkpt lat="42.416948000" lon="-2.586257000">
        <ele>560.90</ele>
        <time>2015-01-17T08:10:37Z</time>
      </trkpt>
      <trkpt lat="42.416904000" lon="-2.586308000">
        <ele>561.10</ele>
        <time>2015-01-17T08:10:39Z</time>
      </trkpt>
      <trkpt lat="42.416882000" lon="-2.586341000">
        <ele>561.20</ele>
        <time>2015-01-17T08:10:40Z</time>
      </trkpt>
      <trkpt lat="42.416862000" lon="-2.586368000">
        <ele>561.60</ele>
        <time>2015-01-17T08:10:41Z</time>
      </trkpt>
      <trkpt lat="42.416842000" lon="-2.586392000">
        <ele>561.90</ele>
        <time>2015-01-17T08:10:42Z</time>
      </trkpt>
      <trkpt lat="42.416820000" lon="-2.586419000">
        <ele>562.00</ele>
        <time>2015-01-17T08:10:43Z</time>
      </trkpt>
      <trkpt lat="42.416800000" lon="-2.586444000">
        <ele>562.00</ele>
        <time>2015-01-17T08:10:44Z</time>
      </trkpt>
      <trkpt lat="42.416780000" lon="-2.586472000">
        <ele>562.20</ele>
        <time>2015-01-17T08:10:45Z</time>
      </trkpt>
      <trkpt lat="42.416759000" lon="-2.586500000">
        <ele>562.30</ele>
        <time>2015-01-17T08:10:46Z</time>
      </trkpt>
      <trkpt lat="42.416739000" lon="-2.586529000">
        <ele>562.30</ele>
        <time>2015-01-17T08:10:47Z</time>
      </trkpt>
      <trkpt lat="42.416720000" lon="-2.586557000">
        <ele>562.30</ele>
        <time>2015-01-17T08:10:48Z</time>
      </trkpt>
      <trkpt lat="42.416700000" lon="-2.586588000">
        <ele>562.40</ele>
        <time>2015-01-17T08:10:49Z</time>
      </trkpt>
      <trkpt lat="42.416678000" lon="-2.586617000">
        <ele>562.50</ele>
        <time>2015-01-17T08:10:50Z</time>
      </trkpt>
      <trkpt lat="42.416655000" lon="-2.586641000">
        <ele>562.50</ele>
        <time>2015-01-17T08:10:51Z</time>
      </trkpt>
      <trkpt lat="42.416635000" lon="-2.586670000">
        <ele>562.60</ele>
        <time>2015-01-17T08:10:52Z</time>
      </trkpt>
      <trkpt lat="42.416615000" lon="-2.586699000">
        <ele>562.80</ele>
        <time>2015-01-17T08:10:53Z</time>
      </trkpt>
      <trkpt lat="42.416594000" lon="-2.586726000">
        <ele>563.00</ele>
        <time>2015-01-17T08:10:54Z</time>
      </trkpt>
      <trkpt lat="42.416574000" lon="-2.586746000">
        <ele>563.10</ele>
        <time>2015-01-17T08:10:55Z</time>
      </trkpt>
      <trkpt lat="42.416555000" lon="-2.586768000">
        <ele>563.30</ele>
        <time>2015-01-17T08:10:56Z</time>
      </trkpt>
      <trkpt lat="42.416533000" lon="-2.586795000">
        <ele>563.40</ele>
        <time>2015-01-17T08:10:57Z</time>
      </trkpt>
      <trkpt lat="42.416513000" lon="-2.586822000">
        <ele>563.60</ele>
        <time>2015-01-17T08:10:58Z</time>
      </trkpt>
      <trkpt lat="42.416491000" lon="-2.586848000">
        <ele>563.80</ele>
        <time>2015-01-17T08:10:59Z</time>
      </trkpt>
      <trkpt lat="42.416466000" lon="-2.586876000">
        <ele>564.00</ele>
        <time>2015-01-17T08:11:00Z</time>
      </trkpt>
      <trkpt lat="42.416442000" lon="-2.586900000">
        <ele>564.10</ele>
        <time>2015-01-17T08:11:01Z</time>
      </trkpt>
      <trkpt lat="42.416417000" lon="-2.586924000">
        <ele>564.20</ele>
        <time>2015-01-17T08:11:02Z</time>
      </trkpt>
      <trkpt lat="42.416396000" lon="-2.586946000">
        <ele>564.30</ele>
        <time>2015-01-17T08:11:03Z</time>
      </trkpt>
      <trkpt lat="42.416375000" lon="-2.586967000">
        <ele>564.30</ele>
        <time>2015-01-17T08:11:04Z</time>
      </trkpt>
      <trkpt lat="42.416351000" lon="-2.586986000">
        <ele>564.50</ele>
        <time>2015-01-17T08:11:05Z</time>
      </trkpt>
      <trkpt lat="42.416327000" lon="-2.587008000">
        <ele>564.60</ele>
        <time>2015-01-17T08:11:06Z</time>
      </trkpt>
      <trkpt lat="42.416302000" lon="-2.587028000">
        <ele>564.80</ele>
        <time>2015-01-17T08:11:07Z</time>
      </trkpt>
      <trkpt lat="42.416276000" lon="-2.587048000">
        <ele>564.90</ele>
        <time>2015-01-17T08:11:08Z</time>
      </trkpt>
      <trkpt lat="42.416250000" lon="-2.587070000">
        <ele>565.00</ele>
        <time>2015-01-17T08:11:09Z</time>
      </trkpt>
      <trkpt lat="42.416226000" lon="-2.587090000">
        <ele>565.20</ele>
        <time>2015-01-17T08:11:10Z</time>
      </trkpt>
      <trkpt lat="42.416204000" lon="-2.587108000">
        <ele>565.30</ele>
        <time>2015-01-17T08:11:11Z</time>
      </trkpt>
      <trkpt lat="42.416180000" lon="-2.587128000">
        <ele>565.30</ele>
        <time>2015-01-17T08:11:12Z</time>
      </trkpt>
      <trkpt lat="42.416155000" lon="-2.587144000">
        <ele>565.40</ele>
        <time>2015-01-17T08:11:13Z</time>
      </trkpt>
      <trkpt lat="42.416130000" lon="-2.587162000">
        <ele>565.40</ele>
        <time>2015-01-17T08:11:14Z</time>
      </trkpt>
      <trkpt lat="42.416101000" lon="-2.587178000">
        <ele>565.40</ele>
        <time>2015-01-17T08:11:15Z</time>
      </trkpt>
      <trkpt lat="42.416075000" lon="-2.587191000">
        <ele>565.50</ele>
        <time>2015-01-17T08:11:16Z</time>
      </trkpt>
      <trkpt lat="42.416048000" lon="-2.587206000">
        <ele>565.50</ele>
        <time>2015-01-17T08:11:17Z</time>
      </trkpt>
      <trkpt lat="42.416022000" lon="-2.587222000">
        <ele>565.50</ele>
        <time>2015-01-17T08:11:18Z</time>
      </trkpt>
      <trkpt lat="42.415998000" lon="-2.587238000">
        <ele>565.60</ele>
        <time>2015-01-17T08:11:19Z</time>
      </trkpt>
      <trkpt lat="42.415975000" lon="-2.587251000">
        <ele>565.70</ele>
        <time>2015-01-17T08:11:20Z</time>
      </trkpt>
      <trkpt lat="42.415954000" lon="-2.587269000">
        <ele>565.80</ele>
        <time>2015-01-17T08:11:21Z</time>
      </trkpt>
      <trkpt lat="42.415932000" lon="-2.587281000">
        <ele>565.90</ele>
        <time>2015-01-17T08:11:22Z</time>
      </trkpt>
      <trkpt lat="42.415909000" lon="-2.587292000">
        <ele>565.90</ele>
        <time>2015-01-17T08:11:23Z</time>
      </trkpt>
      <trkpt lat="42.415886000" lon="-2.587307000">
        <ele>565.90</ele>
        <time>2015-01-17T08:11:24Z</time>
      </trkpt>
      <trkpt lat="42.415862000" lon="-2.587320000">
        <ele>566.10</ele>
        <time>2015-01-17T08:11:25Z</time>
      </trkpt>
      <trkpt lat="42.415837000" lon="-2.587330000">
        <ele>566.20</ele>
        <time>2015-01-17T08:11:26Z</time>
      </trkpt>
      <trkpt lat="42.415809000" lon="-2.587342000">
        <ele>566.30</ele>
        <time>2015-01-17T08:11:27Z</time>
      </trkpt>
      <trkpt lat="42.415779000" lon="-2.587354000">
        <ele>566.40</ele>
        <time>2015-01-17T08:11:28Z</time>
      </trkpt>
      <trkpt lat="42.415750000" lon="-2.587364000">
        <ele>566.50</ele>
        <time>2015-01-17T08:11:29Z</time>
      </trkpt>
      <trkpt lat="42.415723000" lon="-2.587375000">
        <ele>566.60</ele>
        <time>2015-01-17T08:11:30Z</time>
      </trkpt>
      <trkpt lat="42.415696000" lon="-2.587387000">
        <ele>567.00</ele>
        <time>2015-01-17T08:11:31Z</time>
      </trkpt>
      <trkpt lat="42.415672000" lon="-2.587397000">
        <ele>567.30</ele>
        <time>2015-01-17T08:11:32Z</time>
      </trkpt>
      <trkpt lat="42.415648000" lon="-2.587405000">
        <ele>567.50</ele>
        <time>2015-01-17T08:11:33Z</time>
      </trkpt>
      <trkpt lat="42.415623000" lon="-2.587416000">
        <ele>567.60</ele>
        <time>2015-01-17T08:11:34Z</time>
      </trkpt>
      <trkpt lat="42.415596000" lon="-2.587429000">
        <ele>567.70</ele>
        <time>2015-01-17T08:11:35Z</time>
      </trkpt>
      <trkpt lat="42.415573000" lon="-2.587438000">
        <ele>567.80</ele>
        <time>2015-01-17T08:11:36Z</time>
      </trkpt>
      <trkpt lat="42.415548000" lon="-2.587450000">
        <ele>567.90</ele>
        <time>2015-01-17T08:11:37Z</time>
      </trkpt>
      <trkpt lat="42.415521000" lon="-2.587461000">
        <ele>567.90</ele>
        <time>2015-01-17T08:11:38Z</time>
      </trkpt>
      <trkpt lat="42.415465000" lon="-2.587487000">
        <ele>568.10</ele>
        <time>2015-01-17T08:11:40Z</time>
      </trkpt>
      <trkpt lat="42.415441000" lon="-2.587499000">
        <ele>568.40</ele>
        <time>2015-01-17T08:11:41Z</time>
      </trkpt>
      <trkpt lat="42.415418000" lon="-2.587510000">
        <ele>568.70</ele>
        <time>2015-01-17T08:11:42Z</time>
      </trkpt>
      <trkpt lat="42.415395000" lon="-2.587522000">
        <ele>568.90</ele>
        <time>2015-01-17T08:11:43Z</time>
      </trkpt>
      <trkpt lat="42.415368000" lon="-2.587533000">
        <ele>569.10</ele>
        <time>2015-01-17T08:11:44Z</time>
      </trkpt>
      <trkpt lat="42.415341000" lon="-2.587543000">
        <ele>569.20</ele>
        <time>2015-01-17T08:11:45Z</time>
      </trkpt>
      <trkpt lat="42.415316000" lon="-2.587552000">
        <ele>569.30</ele>
        <time>2015-01-17T08:11:46Z</time>
      </trkpt>
      <trkpt lat="42.415291000" lon="-2.587562000">
        <ele>569.30</ele>
        <time>2015-01-17T08:11:47Z</time>
      </trkpt>
      <trkpt lat="42.415267000" lon="-2.587575000">
        <ele>569.40</ele>
        <time>2015-01-17T08:11:48Z</time>
      </trkpt>
      <trkpt lat="42.415243000" lon="-2.587584000">
        <ele>569.50</ele>
        <time>2015-01-17T08:11:49Z</time>
      </trkpt>
      <trkpt lat="42.415221000" lon="-2.587592000">
        <ele>569.60</ele>
        <time>2015-01-17T08:11:50Z</time>
      </trkpt>
      <trkpt lat="42.415201000" lon="-2.587605000">
        <ele>569.70</ele>
        <time>2015-01-17T08:11:51Z</time>
      </trkpt>
      <trkpt lat="42.415180000" lon="-2.587614000">
        <ele>569.80</ele>
        <time>2015-01-17T08:11:52Z</time>
      </trkpt>
      <trkpt lat="42.415158000" lon="-2.587623000">
        <ele>569.80</ele>
        <time>2015-01-17T08:11:53Z</time>
      </trkpt>
      <trkpt lat="42.415137000" lon="-2.587639000">
        <ele>569.90</ele>
        <time>2015-01-17T08:11:54Z</time>
      </trkpt>
      <trkpt lat="42.415119000" lon="-2.587653000">
        <ele>569.90</ele>
        <time>2015-01-17T08:11:55Z</time>
      </trkpt>
      <trkpt lat="42.415102000" lon="-2.587674000">
        <ele>569.90</ele>
        <time>2015-01-17T08:11:56Z</time>
      </trkpt>
      <trkpt lat="42.415088000" lon="-2.587699000">
        <ele>569.90</ele>
        <time>2015-01-17T08:11:57Z</time>
      </trkpt>
      <trkpt lat="42.415075000" lon="-2.587728000">
        <ele>569.90</ele>
        <time>2015-01-17T08:11:58Z</time>
      </trkpt>
      <trkpt lat="42.415067000" lon="-2.587756000">
        <ele>569.90</ele>
        <time>2015-01-17T08:11:59Z</time>
      </trkpt>
      <trkpt lat="42.415064000" lon="-2.587787000">
        <ele>569.80</ele>
        <time>2015-01-17T08:12:00Z</time>
      </trkpt>
      <trkpt lat="42.415067000" lon="-2.587816000">
        <ele>569.80</ele>
        <time>2015-01-17T08:12:01Z</time>
      </trkpt>
      <trkpt lat="42.415072000" lon="-2.587844000">
        <ele>569.80</ele>
        <time>2015-01-17T08:12:02Z</time>
      </trkpt>
      <trkpt lat="42.415075000" lon="-2.587868000">
        <ele>570.00</ele>
        <time>2015-01-17T08:12:03Z</time>
      </trkpt>
      <trkpt lat="42.415078000" lon="-2.587893000">
        <ele>570.10</ele>
        <time>2015-01-17T08:12:04Z</time>
      </trkpt>
      <trkpt lat="42.415083000" lon="-2.587919000">
        <ele>570.20</ele>
        <time>2015-01-17T08:12:05Z</time>
      </trkpt>
      <trkpt lat="42.415086000" lon="-2.587944000">
        <ele>570.30</ele>
        <time>2015-01-17T08:12:06Z</time>
      </trkpt>
      <trkpt lat="42.415092000" lon="-2.587966000">
        <ele>570.30</ele>
        <time>2015-01-17T08:12:07Z</time>
      </trkpt>
      <trkpt lat="42.415096000" lon="-2.587987000">
        <ele>570.40</ele>
        <time>2015-01-17T08:12:08Z</time>
      </trkpt>
      <trkpt lat="42.415101000" lon="-2.588013000">
        <ele>570.50</ele>
        <time>2015-01-17T08:12:09Z</time>
      </trkpt>
      <trkpt lat="42.415103000" lon="-2.588035000">
        <ele>570.60</ele>
        <time>2015-01-17T08:12:10Z</time>
      </trkpt>
      <trkpt lat="42.415108000" lon="-2.588062000">
        <ele>570.70</ele>
        <time>2015-01-17T08:12:11Z</time>
      </trkpt>
      <trkpt lat="42.415110000" lon="-2.588088000">
        <ele>570.80</ele>
        <time>2015-01-17T08:12:12Z</time>
      </trkpt>
      <trkpt lat="42.415117000" lon="-2.588112000">
        <ele>570.90</ele>
        <time>2015-01-17T08:12:13Z</time>
      </trkpt>
      <trkpt lat="42.415120000" lon="-2.588137000">
        <ele>570.90</ele>
        <time>2015-01-17T08:12:14Z</time>
      </trkpt>
      <trkpt lat="42.415119000" lon="-2.588164000">
        <ele>570.90</ele>
        <time>2015-01-17T08:12:15Z</time>
      </trkpt>
      <trkpt lat="42.415117000" lon="-2.588189000">
        <ele>570.90</ele>
        <time>2015-01-17T08:12:16Z</time>
      </trkpt>
      <trkpt lat="42.415117000" lon="-2.588212000">
        <ele>571.00</ele>
        <time>2015-01-17T08:12:17Z</time>
      </trkpt>
      <trkpt lat="42.415118000" lon="-2.588235000">
        <ele>571.00</ele>
        <time>2015-01-17T08:12:18Z</time>
      </trkpt>
      <trkpt lat="42.415118000" lon="-2.588256000">
        <ele>571.10</ele>
        <time>2015-01-17T08:12:19Z</time>
      </trkpt>
      <trkpt lat="42.415116000" lon="-2.588274000">
        <ele>571.10</ele>
        <time>2015-01-17T08:12:20Z</time>
      </trkpt>
      <trkpt lat="42.415112000" lon="-2.588290000">
        <ele>571.10</ele>
        <time>2015-01-17T08:12:21Z</time>
      </trkpt>
      <trkpt lat="42.415111000" lon="-2.588308000">
        <ele>571.20</ele>
        <time>2015-01-17T08:12:22Z</time>
      </trkpt>
      <trkpt lat="42.415111000" lon="-2.588320000">
        <ele>571.20</ele>
        <time>2015-01-17T08:12:23Z</time>
      </trkpt>
      <trkpt lat="42.415114000" lon="-2.588337000">
        <ele>571.20</ele>
        <time>2015-01-17T08:12:24Z</time>
      </trkpt>
      <trkpt lat="42.415119000" lon="-2.588353000">
        <ele>571.20</ele>
        <time>2015-01-17T08:12:25Z</time>
      </trkpt>
      <trkpt lat="42.415121000" lon="-2.588365000">
        <ele>571.20</ele>
        <time>2015-01-17T08:12:26Z</time>
      </trkpt>
      <trkpt lat="42.415123000" lon="-2.588390000">
        <ele>571.20</ele>
        <time>2015-01-17T08:12:27Z</time>
      </trkpt>
      <trkpt lat="42.415127000" lon="-2.588414000">
        <ele>571.10</ele>
        <time>2015-01-17T08:12:28Z</time>
      </trkpt>
      <trkpt lat="42.415131000" lon="-2.588438000">
        <ele>571.10</ele>
        <time>2015-01-17T08:12:29Z</time>
      </trkpt>
      <trkpt lat="42.415135000" lon="-2.588465000">
        <ele>571.10</ele>
        <time>2015-01-17T08:12:30Z</time>
      </trkpt>
      <trkpt lat="42.415137000" lon="-2.588495000">
        <ele>571.20</ele>
        <time>2015-01-17T08:12:31Z</time>
      </trkpt>
      <trkpt lat="42.415139000" lon="-2.588522000">
        <ele>571.20</ele>
        <time>2015-01-17T08:12:32Z</time>
      </trkpt>
      <trkpt lat="42.415146000" lon="-2.588549000">
        <ele>571.20</ele>
        <time>2015-01-17T08:12:33Z</time>
      </trkpt>
      <trkpt lat="42.415152000" lon="-2.588576000">
        <ele>571.30</ele>
        <time>2015-01-17T08:12:34Z</time>
      </trkpt>
      <trkpt lat="42.415152000" lon="-2.588604000">
        <ele>571.30</ele>
        <time>2015-01-17T08:12:35Z</time>
      </trkpt>
      <trkpt lat="42.415155000" lon="-2.588634000">
        <ele>571.40</ele>
        <time>2015-01-17T08:12:36Z</time>
      </trkpt>
      <trkpt lat="42.415158000" lon="-2.588663000">
        <ele>571.30</ele>
        <time>2015-01-17T08:12:37Z</time>
      </trkpt>
      <trkpt lat="42.415163000" lon="-2.588691000">
        <ele>571.30</ele>
        <time>2015-01-17T08:12:38Z</time>
      </trkpt>
      <trkpt lat="42.415168000" lon="-2.588723000">
        <ele>571.20</ele>
        <time>2015-01-17T08:12:39Z</time>
      </trkpt>
      <trkpt lat="42.415176000" lon="-2.588785000">
        <ele>571.10</ele>
        <time>2015-01-17T08:12:41Z</time>
      </trkpt>
      <trkpt lat="42.415175000" lon="-2.588815000">
        <ele>571.10</ele>
        <time>2015-01-17T08:12:42Z</time>
      </trkpt>
      <trkpt lat="42.415176000" lon="-2.588846000">
        <ele>571.30</ele>
        <time>2015-01-17T08:12:43Z</time>
      </trkpt>
      <trkpt lat="42.415175000" lon="-2.588874000">
        <ele>571.50</ele>
        <time>2015-01-17T08:12:44Z</time>
      </trkpt>
      <trkpt lat="42.415175000" lon="-2.588904000">
        <ele>571.60</ele>
        <time>2015-01-17T08:12:45Z</time>
      </trkpt>
      <trkpt lat="42.415174000" lon="-2.588934000">
        <ele>571.70</ele>
        <time>2015-01-17T08:12:46Z</time>
      </trkpt>
      <trkpt lat="42.415173000" lon="-2.588961000">
        <ele>571.80</ele>
        <time>2015-01-17T08:12:47Z</time>
      </trkpt>
      <trkpt lat="42.415169000" lon="-2.588987000">
        <ele>571.80</ele>
        <time>2015-01-17T08:12:48Z</time>
      </trkpt>
      <trkpt lat="42.415163000" lon="-2.589017000">
        <ele>572.00</ele>
        <time>2015-01-17T08:12:49Z</time>
      </trkpt>
      <trkpt lat="42.415156000" lon="-2.589045000">
        <ele>572.10</ele>
        <time>2015-01-17T08:12:50Z</time>
      </trkpt>
      <trkpt lat="42.415149000" lon="-2.589074000">
        <ele>572.00</ele>
        <time>2015-01-17T08:12:51Z</time>
      </trkpt>
      <trkpt lat="42.415143000" lon="-2.589107000">
        <ele>572.00</ele>
        <time>2015-01-17T08:12:52Z</time>
      </trkpt>
      <trkpt lat="42.415139000" lon="-2.589138000">
        <ele>572.10</ele>
        <time>2015-01-17T08:12:53Z</time>
      </trkpt>
      <trkpt lat="42.415135000" lon="-2.589172000">
        <ele>572.20</ele>
        <time>2015-01-17T08:12:54Z</time>
      </trkpt>
      <trkpt lat="42.415131000" lon="-2.589208000">
        <ele>572.20</ele>
        <time>2015-01-17T08:12:55Z</time>
      </trkpt>
      <trkpt lat="42.415123000" lon="-2.589236000">
        <ele>572.30</ele>
        <time>2015-01-17T08:12:56Z</time>
      </trkpt>
      <trkpt lat="42.415123000" lon="-2.589272000">
        <ele>572.40</ele>
        <time>2015-01-17T08:12:57Z</time>
      </trkpt>
      <trkpt lat="42.415123000" lon="-2.589308000">
        <ele>572.50</ele>
        <time>2015-01-17T08:12:58Z</time>
      </trkpt>
      <trkpt lat="42.415115000" lon="-2.589343000">
        <ele>572.70</ele>
        <time>2015-01-17T08:12:59Z</time>
      </trkpt>
      <trkpt lat="42.415107000" lon="-2.589375000">
        <ele>572.90</ele>
        <time>2015-01-17T08:13:00Z</time>
      </trkpt>
      <trkpt lat="42.415100000" lon="-2.589405000">
        <ele>572.90</ele>
        <time>2015-01-17T08:13:01Z</time>
      </trkpt>
      <trkpt lat="42.415094000" lon="-2.589439000">
        <ele>573.00</ele>
        <time>2015-01-17T08:13:02Z</time>
      </trkpt>
      <trkpt lat="42.415088000" lon="-2.589473000">
        <ele>573.10</ele>
        <time>2015-01-17T08:13:03Z</time>
      </trkpt>
      <trkpt lat="42.415084000" lon="-2.589507000">
        <ele>573.10</ele>
        <time>2015-01-17T08:13:04Z</time>
      </trkpt>
      <trkpt lat="42.415081000" lon="-2.589540000">
        <ele>573.20</ele>
        <time>2015-01-17T08:13:05Z</time>
      </trkpt>
      <trkpt lat="42.415079000" lon="-2.589571000">
        <ele>573.20</ele>
        <time>2015-01-17T08:13:06Z</time>
      </trkpt>
      <trkpt lat="42.415074000" lon="-2.589603000">
        <ele>573.50</ele>
        <time>2015-01-17T08:13:07Z</time>
      </trkpt>
      <trkpt lat="42.415069000" lon="-2.589635000">
        <ele>573.60</ele>
        <time>2015-01-17T08:13:08Z</time>
      </trkpt>
      <trkpt lat="42.415067000" lon="-2.589668000">
        <ele>573.90</ele>
        <time>2015-01-17T08:13:09Z</time>
      </trkpt>
      <trkpt lat="42.415064000" lon="-2.589699000">
        <ele>574.10</ele>
        <time>2015-01-17T08:13:10Z</time>
      </trkpt>
      <trkpt lat="42.415063000" lon="-2.589730000">
        <ele>574.20</ele>
        <time>2015-01-17T08:13:11Z</time>
      </trkpt>
      <trkpt lat="42.415059000" lon="-2.589761000">
        <ele>574.30</ele>
        <time>2015-01-17T08:13:12Z</time>
      </trkpt>
      <trkpt lat="42.415057000" lon="-2.589796000">
        <ele>574.40</ele>
        <time>2015-01-17T08:13:13Z</time>
      </trkpt>
      <trkpt lat="42.415058000" lon="-2.589828000">
        <ele>574.40</ele>
        <time>2015-01-17T08:13:14Z</time>
      </trkpt>
      <trkpt lat="42.415058000" lon="-2.589863000">
        <ele>574.40</ele>
        <time>2015-01-17T08:13:15Z</time>
      </trkpt>
      <trkpt lat="42.415058000" lon="-2.589893000">
        <ele>574.40</ele>
        <time>2015-01-17T08:13:16Z</time>
      </trkpt>
      <trkpt lat="42.415060000" lon="-2.589929000">
        <ele>574.50</ele>
        <time>2015-01-17T08:13:17Z</time>
      </trkpt>
      <trkpt lat="42.415061000" lon="-2.589963000">
        <ele>574.50</ele>
        <time>2015-01-17T08:13:18Z</time>
      </trkpt>
      <trkpt lat="42.415060000" lon="-2.589993000">
        <ele>574.70</ele>
        <time>2015-01-17T08:13:19Z</time>
      </trkpt>
      <trkpt lat="42.415061000" lon="-2.590025000">
        <ele>574.80</ele>
        <time>2015-01-17T08:13:20Z</time>
      </trkpt>
      <trkpt lat="42.415062000" lon="-2.590056000">
        <ele>574.90</ele>
        <time>2015-01-17T08:13:21Z</time>
      </trkpt>
      <trkpt lat="42.415059000" lon="-2.590087000">
        <ele>575.00</ele>
        <time>2015-01-17T08:13:22Z</time>
      </trkpt>
      <trkpt lat="42.415057000" lon="-2.590118000">
        <ele>574.90</ele>
        <time>2015-01-17T08:13:23Z</time>
      </trkpt>
      <trkpt lat="42.415055000" lon="-2.590149000">
        <ele>574.90</ele>
        <time>2015-01-17T08:13:24Z</time>
      </trkpt>
      <trkpt lat="42.415054000" lon="-2.590181000">
        <ele>574.80</ele>
        <time>2015-01-17T08:13:25Z</time>
      </trkpt>
      <trkpt lat="42.415053000" lon="-2.590208000">
        <ele>574.80</ele>
        <time>2015-01-17T08:13:26Z</time>
      </trkpt>
      <trkpt lat="42.415051000" lon="-2.590234000">
        <ele>574.80</ele>
        <time>2015-01-17T08:13:27Z</time>
      </trkpt>
      <trkpt lat="42.415047000" lon="-2.590263000">
        <ele>574.80</ele>
        <time>2015-01-17T08:13:28Z</time>
      </trkpt>
      <trkpt lat="42.415044000" lon="-2.590294000">
        <ele>574.90</ele>
        <time>2015-01-17T08:13:29Z</time>
      </trkpt>
      <trkpt lat="42.415041000" lon="-2.590324000">
        <ele>575.00</ele>
        <time>2015-01-17T08:13:30Z</time>
      </trkpt>
      <trkpt lat="42.415035000" lon="-2.590358000">
        <ele>575.10</ele>
        <time>2015-01-17T08:13:31Z</time>
      </trkpt>
      <trkpt lat="42.415030000" lon="-2.590387000">
        <ele>575.10</ele>
        <time>2015-01-17T08:13:32Z</time>
      </trkpt>
      <trkpt lat="42.415024000" lon="-2.590418000">
        <ele>575.20</ele>
        <time>2015-01-17T08:13:33Z</time>
      </trkpt>
      <trkpt lat="42.415020000" lon="-2.590451000">
        <ele>575.40</ele>
        <time>2015-01-17T08:13:34Z</time>
      </trkpt>
      <trkpt lat="42.415018000" lon="-2.590480000">
        <ele>575.50</ele>
        <time>2015-01-17T08:13:35Z</time>
      </trkpt>
      <trkpt lat="42.415018000" lon="-2.590510000">
        <ele>575.60</ele>
        <time>2015-01-17T08:13:36Z</time>
      </trkpt>
      <trkpt lat="42.415014000" lon="-2.590543000">
        <ele>575.70</ele>
        <time>2015-01-17T08:13:37Z</time>
      </trkpt>
      <trkpt lat="42.415011000" lon="-2.590570000">
        <ele>575.80</ele>
        <time>2015-01-17T08:13:38Z</time>
      </trkpt>
      <trkpt lat="42.415009000" lon="-2.590603000">
        <ele>575.90</ele>
        <time>2015-01-17T08:13:39Z</time>
      </trkpt>
      <trkpt lat="42.415007000" lon="-2.590633000">
        <ele>576.00</ele>
        <time>2015-01-17T08:13:40Z</time>
      </trkpt>
      <trkpt lat="42.415000000" lon="-2.590693000">
        <ele>576.40</ele>
        <time>2015-01-17T08:13:42Z</time>
      </trkpt>
      <trkpt lat="42.414997000" lon="-2.590720000">
        <ele>576.60</ele>
        <time>2015-01-17T08:13:43Z</time>
      </trkpt>
      <trkpt lat="42.414995000" lon="-2.590750000">
        <ele>576.80</ele>
        <time>2015-01-17T08:13:44Z</time>
      </trkpt>
      <trkpt lat="42.414991000" lon="-2.590782000">
        <ele>576.90</ele>
        <time>2015-01-17T08:13:45Z</time>
      </trkpt>
      <trkpt lat="42.414987000" lon="-2.590814000">
        <ele>577.00</ele>
        <time>2015-01-17T08:13:46Z</time>
      </trkpt>
      <trkpt lat="42.414984000" lon="-2.590844000">
        <ele>577.10</ele>
        <time>2015-01-17T08:13:47Z</time>
      </trkpt>
      <trkpt lat="42.414982000" lon="-2.590878000">
        <ele>577.20</ele>
        <time>2015-01-17T08:13:48Z</time>
      </trkpt>
      <trkpt lat="42.414983000" lon="-2.590909000">
        <ele>577.30</ele>
        <time>2015-01-17T08:13:49Z</time>
      </trkpt>
      <trkpt lat="42.414980000" lon="-2.590941000">
        <ele>577.40</ele>
        <time>2015-01-17T08:13:50Z</time>
      </trkpt>
      <trkpt lat="42.414976000" lon="-2.590968000">
        <ele>577.60</ele>
        <time>2015-01-17T08:13:51Z</time>
      </trkpt>
      <trkpt lat="42.414974000" lon="-2.590997000">
        <ele>577.70</ele>
        <time>2015-01-17T08:13:52Z</time>
      </trkpt>
      <trkpt lat="42.414972000" lon="-2.591025000">
        <ele>577.80</ele>
        <time>2015-01-17T08:13:53Z</time>
      </trkpt>
      <trkpt lat="42.414972000" lon="-2.591052000">
        <ele>577.80</ele>
        <time>2015-01-17T08:13:54Z</time>
      </trkpt>
      <trkpt lat="42.414969000" lon="-2.591079000">
        <ele>577.70</ele>
        <time>2015-01-17T08:13:55Z</time>
      </trkpt>
      <trkpt lat="42.414967000" lon="-2.591107000">
        <ele>577.50</ele>
        <time>2015-01-17T08:13:56Z</time>
      </trkpt>
      <trkpt lat="42.414968000" lon="-2.591138000">
        <ele>577.50</ele>
        <time>2015-01-17T08:13:57Z</time>
      </trkpt>
      <trkpt lat="42.414964000" lon="-2.591168000">
        <ele>577.40</ele>
        <time>2015-01-17T08:13:58Z</time>
      </trkpt>
      <trkpt lat="42.414962000" lon="-2.591198000">
        <ele>577.40</ele>
        <time>2015-01-17T08:13:59Z</time>
      </trkpt>
      <trkpt lat="42.414961000" lon="-2.591231000">
        <ele>577.30</ele>
        <time>2015-01-17T08:14:00Z</time>
      </trkpt>
      <trkpt lat="42.414961000" lon="-2.591264000">
        <ele>577.50</ele>
        <time>2015-01-17T08:14:01Z</time>
      </trkpt>
      <trkpt lat="42.414957000" lon="-2.591294000">
        <ele>577.60</ele>
        <time>2015-01-17T08:14:02Z</time>
      </trkpt>
      <trkpt lat="42.414955000" lon="-2.591323000">
        <ele>577.80</ele>
        <time>2015-01-17T08:14:03Z</time>
      </trkpt>
      <trkpt lat="42.414951000" lon="-2.591352000">
        <ele>577.90</ele>
        <time>2015-01-17T08:14:04Z</time>
      </trkpt>
      <trkpt lat="42.414947000" lon="-2.591378000">
        <ele>578.00</ele>
        <time>2015-01-17T08:14:05Z</time>
      </trkpt>
      <trkpt lat="42.414946000" lon="-2.591405000">
        <ele>578.10</ele>
        <time>2015-01-17T08:14:06Z</time>
      </trkpt>
      <trkpt lat="42.414943000" lon="-2.591434000">
        <ele>578.10</ele>
        <time>2015-01-17T08:14:07Z</time>
      </trkpt>
      <trkpt lat="42.414937000" lon="-2.591463000">
        <ele>578.10</ele>
        <time>2015-01-17T08:14:08Z</time>
      </trkpt>
      <trkpt lat="42.414935000" lon="-2.591493000">
        <ele>578.20</ele>
        <time>2015-01-17T08:14:09Z</time>
      </trkpt>
      <trkpt lat="42.414932000" lon="-2.591525000">
        <ele>578.20</ele>
        <time>2015-01-17T08:14:10Z</time>
      </trkpt>
      <trkpt lat="42.414927000" lon="-2.591559000">
        <ele>578.30</ele>
        <time>2015-01-17T08:14:11Z</time>
      </trkpt>
      <trkpt lat="42.414924000" lon="-2.591588000">
        <ele>578.40</ele>
        <time>2015-01-17T08:14:12Z</time>
      </trkpt>
      <trkpt lat="42.414924000" lon="-2.591624000">
        <ele>578.70</ele>
        <time>2015-01-17T08:14:13Z</time>
      </trkpt>
      <trkpt lat="42.414923000" lon="-2.591654000">
        <ele>578.80</ele>
        <time>2015-01-17T08:14:14Z</time>
      </trkpt>
      <trkpt lat="42.414921000" lon="-2.591686000">
        <ele>579.00</ele>
        <time>2015-01-17T08:14:15Z</time>
      </trkpt>
      <trkpt lat="42.414917000" lon="-2.591716000">
        <ele>579.10</ele>
        <time>2015-01-17T08:14:16Z</time>
      </trkpt>
      <trkpt lat="42.414914000" lon="-2.591741000">
        <ele>579.20</ele>
        <time>2015-01-17T08:14:17Z</time>
      </trkpt>
      <trkpt lat="42.414913000" lon="-2.591771000">
        <ele>579.30</ele>
        <time>2015-01-17T08:14:18Z</time>
      </trkpt>
      <trkpt lat="42.414911000" lon="-2.591801000">
        <ele>579.30</ele>
        <time>2015-01-17T08:14:19Z</time>
      </trkpt>
      <trkpt lat="42.414907000" lon="-2.591828000">
        <ele>579.40</ele>
        <time>2015-01-17T08:14:20Z</time>
      </trkpt>
      <trkpt lat="42.414905000" lon="-2.591860000">
        <ele>579.50</ele>
        <time>2015-01-17T08:14:21Z</time>
      </trkpt>
      <trkpt lat="42.414904000" lon="-2.591889000">
        <ele>579.60</ele>
        <time>2015-01-17T08:14:22Z</time>
      </trkpt>
      <trkpt lat="42.414899000" lon="-2.591917000">
        <ele>579.80</ele>
        <time>2015-01-17T08:14:23Z</time>
      </trkpt>
      <trkpt lat="42.414896000" lon="-2.591944000">
        <ele>579.90</ele>
        <time>2015-01-17T08:14:24Z</time>
      </trkpt>
      <trkpt lat="42.414894000" lon="-2.591969000">
        <ele>580.00</ele>
        <time>2015-01-17T08:14:25Z</time>
      </trkpt>
      <trkpt lat="42.414893000" lon="-2.591994000">
        <ele>580.00</ele>
        <time>2015-01-17T08:14:26Z</time>
      </trkpt>
      <trkpt lat="42.414890000" lon="-2.592018000">
        <ele>580.00</ele>
        <time>2015-01-17T08:14:27Z</time>
      </trkpt>
      <trkpt lat="42.414886000" lon="-2.592043000">
        <ele>580.00</ele>
        <time>2015-01-17T08:14:28Z</time>
      </trkpt>
      <trkpt lat="42.414884000" lon="-2.592071000">
        <ele>580.00</ele>
        <time>2015-01-17T08:14:29Z</time>
      </trkpt>
      <trkpt lat="42.414881000" lon="-2.592097000">
        <ele>580.10</ele>
        <time>2015-01-17T08:14:30Z</time>
      </trkpt>
      <trkpt lat="42.414880000" lon="-2.592125000">
        <ele>580.10</ele>
        <time>2015-01-17T08:14:31Z</time>
      </trkpt>
      <trkpt lat="42.414875000" lon="-2.592151000">
        <ele>580.10</ele>
        <time>2015-01-17T08:14:32Z</time>
      </trkpt>
      <trkpt lat="42.414871000" lon="-2.592173000">
        <ele>580.30</ele>
        <time>2015-01-17T08:14:33Z</time>
      </trkpt>
      <trkpt lat="42.414863000" lon="-2.592198000">
        <ele>580.40</ele>
        <time>2015-01-17T08:14:34Z</time>
      </trkpt>
      <trkpt lat="42.414855000" lon="-2.592219000">
        <ele>580.40</ele>
        <time>2015-01-17T08:14:35Z</time>
      </trkpt>
      <trkpt lat="42.414851000" lon="-2.592246000">
        <ele>580.40</ele>
        <time>2015-01-17T08:14:36Z</time>
      </trkpt>
      <trkpt lat="42.414846000" lon="-2.592267000">
        <ele>580.60</ele>
        <time>2015-01-17T08:14:37Z</time>
      </trkpt>
      <trkpt lat="42.414839000" lon="-2.592289000">
        <ele>580.70</ele>
        <time>2015-01-17T08:14:38Z</time>
      </trkpt>
      <trkpt lat="42.414836000" lon="-2.592310000">
        <ele>580.90</ele>
        <time>2015-01-17T08:14:39Z</time>
      </trkpt>
      <trkpt lat="42.414830000" lon="-2.592333000">
        <ele>581.00</ele>
        <time>2015-01-17T08:14:40Z</time>
      </trkpt>
      <trkpt lat="42.414825000" lon="-2.592352000">
        <ele>581.10</ele>
        <time>2015-01-17T08:14:41Z</time>
      </trkpt>
      <trkpt lat="42.414809000" lon="-2.592377000">
        <ele>581.20</ele>
        <time>2015-01-17T08:14:43Z</time>
      </trkpt>
      <trkpt lat="42.414801000" lon="-2.592387000">
        <ele>581.20</ele>
        <time>2015-01-17T08:14:44Z</time>
      </trkpt>
      <trkpt lat="42.414791000" lon="-2.592400000">
        <ele>581.20</ele>
        <time>2015-01-17T08:14:45Z</time>
      </trkpt>
      <trkpt lat="42.414780000" lon="-2.592412000">
        <ele>581.30</ele>
        <time>2015-01-17T08:14:46Z</time>
      </trkpt>
      <trkpt lat="42.414772000" lon="-2.592422000">
        <ele>581.30</ele>
        <time>2015-01-17T08:14:47Z</time>
      </trkpt>
      <trkpt lat="42.414766000" lon="-2.592422000">
        <ele>581.30</ele>
        <time>2015-01-17T08:14:48Z</time>
      </trkpt>
      <trkpt lat="42.414766000" lon="-2.592427000">
        <ele>581.30</ele>
        <time>2015-01-17T08:14:49Z</time>
      </trkpt>
      <trkpt lat="42.414764000" lon="-2.592433000">
        <ele>581.30</ele>
        <time>2015-01-17T08:14:50Z</time>
      </trkpt>
      <trkpt lat="42.414762000" lon="-2.592432000">
        <ele>581.30</ele>
        <time>2015-01-17T08:14:51Z</time>
      </trkpt>
      <trkpt lat="42.414758000" lon="-2.592430000">
        <ele>581.30</ele>
        <time>2015-01-17T08:14:52Z</time>
      </trkpt>
      <trkpt lat="42.414754000" lon="-2.592428000">
        <ele>581.30</ele>
        <time>2015-01-17T08:14:53Z</time>
      </trkpt>
      <trkpt lat="42.414756000" lon="-2.592430000">
        <ele>581.30</ele>
        <time>2015-01-17T08:14:54Z</time>
      </trkpt>
      <trkpt lat="42.414755000" lon="-2.592435000">
        <ele>581.30</ele>
        <time>2015-01-17T08:14:55Z</time>
      </trkpt>
      <trkpt lat="42.414758000" lon="-2.592436000">
        <ele>581.30</ele>
        <time>2015-01-17T08:14:56Z</time>
      </trkpt>
      <trkpt lat="42.414758000" lon="-2.592437000">
        <ele>581.30</ele>
        <time>2015-01-17T08:14:57Z</time>
      </trkpt>
      <trkpt lat="42.414758000" lon="-2.592433000">
        <ele>581.30</ele>
        <time>2015-01-17T08:14:58Z</time>
      </trkpt>
      <trkpt lat="42.414758000" lon="-2.592428000">
        <ele>581.40</ele>
        <time>2015-01-17T08:14:59Z</time>
      </trkpt>
      <trkpt lat="42.414758000" lon="-2.592428000">
        <ele>581.40</ele>
        <time>2015-01-17T08:15:00Z</time>
      </trkpt>
      <trkpt lat="42.414761000" lon="-2.592427000">
        <ele>581.50</ele>
        <time>2015-01-17T08:15:01Z</time>
      </trkpt>
      <trkpt lat="42.414763000" lon="-2.592429000">
        <ele>581.50</ele>
        <time>2015-01-17T08:15:02Z</time>
      </trkpt>
      <trkpt lat="42.414764000" lon="-2.592431000">
        <ele>581.30</ele>
        <time>2015-01-17T08:15:03Z</time>
      </trkpt>
      <trkpt lat="42.414769000" lon="-2.592442000">
        <ele>581.20</ele>
        <time>2015-01-17T08:15:04Z</time>
      </trkpt>
      <trkpt lat="42.414767000" lon="-2.592447000">
        <ele>581.10</ele>
        <time>2015-01-17T08:15:05Z</time>
      </trkpt>
      <trkpt lat="42.414764000" lon="-2.592449000">
        <ele>581.10</ele>
        <time>2015-01-17T08:15:06Z</time>
      </trkpt>
      <trkpt lat="42.414761000" lon="-2.592449000">
        <ele>581.20</ele>
        <time>2015-01-17T08:15:07Z</time>
      </trkpt>
      <trkpt lat="42.414760000" lon="-2.592453000">
        <ele>581.20</ele>
        <time>2015-01-17T08:15:08Z</time>
      </trkpt>
      <trkpt lat="42.414763000" lon="-2.592456000">
        <ele>581.30</ele>
        <time>2015-01-17T08:15:09Z</time>
      </trkpt>
      <trkpt lat="42.414764000" lon="-2.592456000">
        <ele>581.30</ele>
        <time>2015-01-17T08:15:10Z</time>
      </trkpt>
      <trkpt lat="42.414765000" lon="-2.592460000">
        <ele>581.50</ele>
        <time>2015-01-17T08:15:11Z</time>
      </trkpt>
      <trkpt lat="42.414769000" lon="-2.592465000">
        <ele>581.60</ele>
        <time>2015-01-17T08:15:12Z</time>
      </trkpt>
      <trkpt lat="42.414770000" lon="-2.592468000">
        <ele>581.70</ele>
        <time>2015-01-17T08:15:13Z</time>
      </trkpt>
      <trkpt lat="42.414770000" lon="-2.592469000">
        <ele>581.70</ele>
        <time>2015-01-17T08:15:14Z</time>
      </trkpt>
      <trkpt lat="42.414773000" lon="-2.592471000">
        <ele>581.80</ele>
        <time>2015-01-17T08:15:15Z</time>
      </trkpt>
      <trkpt lat="42.414776000" lon="-2.592467000">
        <ele>581.80</ele>
        <time>2015-01-17T08:15:16Z</time>
      </trkpt>
      <trkpt lat="42.414780000" lon="-2.592463000">
        <ele>581.80</ele>
        <time>2015-01-17T08:15:17Z</time>
      </trkpt>
      <trkpt lat="42.414780000" lon="-2.592462000">
        <ele>581.90</ele>
        <time>2015-01-17T08:15:18Z</time>
      </trkpt>
      <trkpt lat="42.414779000" lon="-2.592463000">
        <ele>581.80</ele>
        <time>2015-01-17T08:15:19Z</time>
      </trkpt>
      <trkpt lat="42.414776000" lon="-2.592467000">
        <ele>581.80</ele>
        <time>2015-01-17T08:15:20Z</time>
      </trkpt>
      <trkpt lat="42.414776000" lon="-2.592471000">
        <ele>581.70</ele>
        <time>2015-01-17T08:15:21Z</time>
      </trkpt>
      <trkpt lat="42.414777000" lon="-2.592476000">
        <ele>581.70</ele>
        <time>2015-01-17T08:15:22Z</time>
      </trkpt>
      <trkpt lat="42.414777000" lon="-2.592481000">
        <ele>581.60</ele>
        <time>2015-01-17T08:15:23Z</time>
      </trkpt>
      <trkpt lat="42.414775000" lon="-2.592483000">
        <ele>581.50</ele>
        <time>2015-01-17T08:15:24Z</time>
      </trkpt>
      <trkpt lat="42.414772000" lon="-2.592483000">
        <ele>581.50</ele>
        <time>2015-01-17T08:15:25Z</time>
      </trkpt>
      <trkpt lat="42.414772000" lon="-2.592483000">
        <ele>581.60</ele>
        <time>2015-01-17T08:15:26Z</time>
      </trkpt>
      <trkpt lat="42.414773000" lon="-2.592478000">
        <ele>581.50</ele>
        <time>2015-01-17T08:15:27Z</time>
      </trkpt>
      <trkpt lat="42.414772000" lon="-2.592477000">
        <ele>581.40</ele>
        <time>2015-01-17T08:15:28Z</time>
      </trkpt>
      <trkpt lat="42.414770000" lon="-2.592476000">
        <ele>581.40</ele>
        <time>2015-01-17T08:15:29Z</time>
      </trkpt>
      <trkpt lat="42.414770000" lon="-2.592475000">
        <ele>581.50</ele>
        <time>2015-01-17T08:15:30Z</time>
      </trkpt>
      <trkpt lat="42.414770000" lon="-2.592471000">
        <ele>581.50</ele>
        <time>2015-01-17T08:15:31Z</time>
      </trkpt>
      <trkpt lat="42.414770000" lon="-2.592470000">
        <ele>581.50</ele>
        <time>2015-01-17T08:15:32Z</time>
      </trkpt>
      <trkpt lat="42.414771000" lon="-2.592472000">
        <ele>581.50</ele>
        <time>2015-01-17T08:15:33Z</time>
      </trkpt>
      <trkpt lat="42.414770000" lon="-2.592472000">
        <ele>581.60</ele>
        <time>2015-01-17T08:15:34Z</time>
      </trkpt>
      <trkpt lat="42.414771000" lon="-2.592470000">
        <ele>581.60</ele>
        <time>2015-01-17T08:15:35Z</time>
      </trkpt>
      <trkpt lat="42.414772000" lon="-2.592470000">
        <ele>581.70</ele>
        <time>2015-01-17T08:15:36Z</time>
      </trkpt>
      <trkpt lat="42.414774000" lon="-2.592468000">
        <ele>581.70</ele>
        <time>2015-01-17T08:15:37Z</time>
      </trkpt>
      <trkpt lat="42.414773000" lon="-2.592467000">
        <ele>581.70</ele>
        <time>2015-01-17T08:15:38Z</time>
      </trkpt>
      <trkpt lat="42.414771000" lon="-2.592468000">
        <ele>581.60</ele>
        <time>2015-01-17T08:15:39Z</time>
      </trkpt>
      <trkpt lat="42.414771000" lon="-2.592467000">
        <ele>581.60</ele>
        <time>2015-01-17T08:15:40Z</time>
      </trkpt>
      <trkpt lat="42.414771000" lon="-2.592467000">
        <ele>581.50</ele>
        <time>2015-01-17T08:15:41Z</time>
      </trkpt>
      <trkpt lat="42.414770000" lon="-2.592467000">
        <ele>581.40</ele>
        <time>2015-01-17T08:15:42Z</time>
      </trkpt>
      <trkpt lat="42.414772000" lon="-2.592471000">
        <ele>581.10</ele>
        <time>2015-01-17T08:15:44Z</time>
      </trkpt>
      <trkpt lat="42.414774000" lon="-2.592473000">
        <ele>581.00</ele>
        <time>2015-01-17T08:15:45Z</time>
      </trkpt>
      <trkpt lat="42.414778000" lon="-2.592477000">
        <ele>580.90</ele>
        <time>2015-01-17T08:15:46Z</time>
      </trkpt>
      <trkpt lat="42.414778000" lon="-2.592477000">
        <ele>580.90</ele>
        <time>2015-01-17T08:15:47Z</time>
      </trkpt>
      <trkpt lat="42.414776000" lon="-2.592479000">
        <ele>580.80</ele>
        <time>2015-01-17T08:15:48Z</time>
      </trkpt>
      <trkpt lat="42.414779000" lon="-2.592480000">
        <ele>580.90</ele>
        <time>2015-01-17T08:15:49Z</time>
      </trkpt>
      <trkpt lat="42.414784000" lon="-2.592481000">
        <ele>581.00</ele>
        <time>2015-01-17T08:15:50Z</time>
      </trkpt>
      <trkpt lat="42.414784000" lon="-2.592480000">
        <ele>581.10</ele>
        <time>2015-01-17T08:15:51Z</time>
      </trkpt>
      <trkpt lat="42.414786000" lon="-2.592481000">
        <ele>581.10</ele>
        <time>2015-01-17T08:15:52Z</time>
      </trkpt>
      <trkpt lat="42.414787000" lon="-2.592480000">
        <ele>581.10</ele>
        <time>2015-01-17T08:15:53Z</time>
      </trkpt>
      <trkpt lat="42.414787000" lon="-2.592480000">
        <ele>581.20</ele>
        <time>2015-01-17T08:15:54Z</time>
      </trkpt>
      <trkpt lat="42.414785000" lon="-2.592477000">
        <ele>581.40</ele>
        <time>2015-01-17T08:15:55Z</time>
      </trkpt>
      <trkpt lat="42.414785000" lon="-2.592476000">
        <ele>581.50</ele>
        <time>2015-01-17T08:15:56Z</time>
      </trkpt>
      <trkpt lat="42.414783000" lon="-2.592480000">
        <ele>581.60</ele>
        <time>2015-01-17T08:15:57Z</time>
      </trkpt>
      <trkpt lat="42.414784000" lon="-2.592480000">
        <ele>581.70</ele>
        <time>2015-01-17T08:15:58Z</time>
      </trkpt>
      <trkpt lat="42.414782000" lon="-2.592482000">
        <ele>581.70</ele>
        <time>2015-01-17T08:15:59Z</time>
      </trkpt>
      <trkpt lat="42.414777000" lon="-2.592488000">
        <ele>581.70</ele>
        <time>2015-01-17T08:16:00Z</time>
      </trkpt>
      <trkpt lat="42.414773000" lon="-2.592490000">
        <ele>581.70</ele>
        <time>2015-01-17T08:16:01Z</time>
      </trkpt>
      <trkpt lat="42.414766000" lon="-2.592491000">
        <ele>581.70</ele>
        <time>2015-01-17T08:16:02Z</time>
      </trkpt>
      <trkpt lat="42.414762000" lon="-2.592492000">
        <ele>581.70</ele>
        <time>2015-01-17T08:16:03Z</time>
      </trkpt>
      <trkpt lat="42.414761000" lon="-2.592489000">
        <ele>581.70</ele>
        <time>2015-01-17T08:16:04Z</time>
      </trkpt>
      <trkpt lat="42.414760000" lon="-2.592485000">
        <ele>581.70</ele>
        <time>2015-01-17T08:16:05Z</time>
      </trkpt>
      <trkpt lat="42.414761000" lon="-2.592491000">
        <ele>581.60</ele>
        <time>2015-01-17T08:16:06Z</time>
      </trkpt>
      <trkpt lat="42.414767000" lon="-2.592508000">
        <ele>581.50</ele>
        <time>2015-01-17T08:16:07Z</time>
      </trkpt>
      <trkpt lat="42.414769000" lon="-2.592525000">
        <ele>581.40</ele>
        <time>2015-01-17T08:16:08Z</time>
      </trkpt>
      <trkpt lat="42.414769000" lon="-2.592544000">
        <ele>581.20</ele>
        <time>2015-01-17T08:16:09Z</time>
      </trkpt>
      <trkpt lat="42.414765000" lon="-2.592574000">
        <ele>581.00</ele>
        <time>2015-01-17T08:16:10Z</time>
      </trkpt>
      <trkpt lat="42.414760000" lon="-2.592606000">
        <ele>580.90</ele>
        <time>2015-01-17T08:16:11Z</time>
      </trkpt>
      <trkpt lat="42.414752000" lon="-2.592642000">
        <ele>580.80</ele>
        <time>2015-01-17T08:16:12Z</time>
      </trkpt>
      <trkpt lat="42.414741000" lon="-2.592680000">
        <ele>580.90</ele>
        <time>2015-01-17T08:16:13Z</time>
      </trkpt>
      <trkpt lat="42.414732000" lon="-2.592718000">
        <ele>581.00</ele>
        <time>2015-01-17T08:16:14Z</time>
      </trkpt>
      <trkpt lat="42.414725000" lon="-2.592758000">
        <ele>581.10</ele>
        <time>2015-01-17T08:16:15Z</time>
      </trkpt>
      <trkpt lat="42.414715000" lon="-2.592800000">
        <ele>581.10</ele>
        <time>2015-01-17T08:16:16Z</time>
      </trkpt>
      <trkpt lat="42.414708000" lon="-2.592845000">
        <ele>581.10</ele>
        <time>2015-01-17T08:16:17Z</time>
      </trkpt>
      <trkpt lat="42.414703000" lon="-2.592890000">
        <ele>581.10</ele>
        <time>2015-01-17T08:16:18Z</time>
      </trkpt>
      <trkpt lat="42.414698000" lon="-2.592936000">
        <ele>581.10</ele>
        <time>2015-01-17T08:16:19Z</time>
      </trkpt>
      <trkpt lat="42.414690000" lon="-2.592982000">
        <ele>581.10</ele>
        <time>2015-01-17T08:16:20Z</time>
      </trkpt>
      <trkpt lat="42.414683000" lon="-2.593029000">
        <ele>581.10</ele>
        <time>2015-01-17T08:16:21Z</time>
      </trkpt>
      <trkpt lat="42.414678000" lon="-2.593081000">
        <ele>581.10</ele>
        <time>2015-01-17T08:16:22Z</time>
      </trkpt>
      <trkpt lat="42.414678000" lon="-2.593135000">
        <ele>581.10</ele>
        <time>2015-01-17T08:16:23Z</time>
      </trkpt>
      <trkpt lat="42.414676000" lon="-2.593188000">
        <ele>581.10</ele>
        <time>2015-01-17T08:16:24Z</time>
      </trkpt>
      <trkpt lat="42.414677000" lon="-2.593244000">
        <ele>581.10</ele>
        <time>2015-01-17T08:16:25Z</time>
      </trkpt>
      <trkpt lat="42.414679000" lon="-2.593302000">
        <ele>581.10</ele>
        <time>2015-01-17T08:16:26Z</time>
      </trkpt>
      <trkpt lat="42.414679000" lon="-2.593360000">
        <ele>581.10</ele>
        <time>2015-01-17T08:16:27Z</time>
      </trkpt>
      <trkpt lat="42.414678000" lon="-2.593416000">
        <ele>581.10</ele>
        <time>2015-01-17T08:16:28Z</time>
      </trkpt>
      <trkpt lat="42.414676000" lon="-2.593469000">
        <ele>581.10</ele>
        <time>2015-01-17T08:16:29Z</time>
      </trkpt>
      <trkpt lat="42.414676000" lon="-2.593523000">
        <ele>581.00</ele>
        <time>2015-01-17T08:16:30Z</time>
      </trkpt>
      <trkpt lat="42.414675000" lon="-2.593574000">
        <ele>580.90</ele>
        <time>2015-01-17T08:16:31Z</time>
      </trkpt>
      <trkpt lat="42.414673000" lon="-2.593628000">
        <ele>580.80</ele>
        <time>2015-01-17T08:16:32Z</time>
      </trkpt>
      <trkpt lat="42.414669000" lon="-2.593679000">
        <ele>580.80</ele>
        <time>2015-01-17T08:16:33Z</time>
      </trkpt>
      <trkpt lat="42.414667000" lon="-2.593734000">
        <ele>580.70</ele>
        <time>2015-01-17T08:16:34Z</time>
      </trkpt>
      <trkpt lat="42.414663000" lon="-2.593785000">
        <ele>580.50</ele>
        <time>2015-01-17T08:16:35Z</time>
      </trkpt>
      <trkpt lat="42.414657000" lon="-2.593838000">
        <ele>580.30</ele>
        <time>2015-01-17T08:16:36Z</time>
      </trkpt>
      <trkpt lat="42.414658000" lon="-2.593897000">
        <ele>580.30</ele>
        <time>2015-01-17T08:16:37Z</time>
      </trkpt>
      <trkpt lat="42.414667000" lon="-2.593962000">
        <ele>580.30</ele>
        <time>2015-01-17T08:16:38Z</time>
      </trkpt>
      <trkpt lat="42.414677000" lon="-2.594029000">
        <ele>580.20</ele>
        <time>2015-01-17T08:16:39Z</time>
      </trkpt>
      <trkpt lat="42.414693000" lon="-2.594091000">
        <ele>580.10</ele>
        <time>2015-01-17T08:16:40Z</time>
      </trkpt>
      <trkpt lat="42.414712000" lon="-2.594153000">
        <ele>580.00</ele>
        <time>2015-01-17T08:16:41Z</time>
      </trkpt>
      <trkpt lat="42.414731000" lon="-2.594219000">
        <ele>580.00</ele>
        <time>2015-01-17T08:16:42Z</time>
      </trkpt>
      <trkpt lat="42.414751000" lon="-2.594283000">
        <ele>579.70</ele>
        <time>2015-01-17T08:16:43Z</time>
      </trkpt>
      <trkpt lat="42.414793000" lon="-2.594407000">
        <ele>579.10</ele>
        <time>2015-01-17T08:16:45Z</time>
      </trkpt>
      <trkpt lat="42.414817000" lon="-2.594470000">
        <ele>578.90</ele>
        <time>2015-01-17T08:16:46Z</time>
      </trkpt>
      <trkpt lat="42.414844000" lon="-2.594535000">
        <ele>578.50</ele>
        <time>2015-01-17T08:16:47Z</time>
      </trkpt>
      <trkpt lat="42.414873000" lon="-2.594597000">
        <ele>578.20</ele>
        <time>2015-01-17T08:16:48Z</time>
      </trkpt>
      <trkpt lat="42.414909000" lon="-2.594658000">
        <ele>577.80</ele>
        <time>2015-01-17T08:16:49Z</time>
      </trkpt>
      <trkpt lat="42.414948000" lon="-2.594713000">
        <ele>577.50</ele>
        <time>2015-01-17T08:16:50Z</time>
      </trkpt>
      <trkpt lat="42.414989000" lon="-2.594767000">
        <ele>577.20</ele>
        <time>2015-01-17T08:16:51Z</time>
      </trkpt>
      <trkpt lat="42.415027000" lon="-2.594820000">
        <ele>577.00</ele>
        <time>2015-01-17T08:16:52Z</time>
      </trkpt>
      <trkpt lat="42.415065000" lon="-2.594874000">
        <ele>577.00</ele>
        <time>2015-01-17T08:16:53Z</time>
      </trkpt>
      <trkpt lat="42.415101000" lon="-2.594930000">
        <ele>576.90</ele>
        <time>2015-01-17T08:16:54Z</time>
      </trkpt>
      <trkpt lat="42.415136000" lon="-2.594990000">
        <ele>576.90</ele>
        <time>2015-01-17T08:16:55Z</time>
      </trkpt>
      <trkpt lat="42.415173000" lon="-2.595051000">
        <ele>576.90</ele>
        <time>2015-01-17T08:16:56Z</time>
      </trkpt>
      <trkpt lat="42.415211000" lon="-2.595109000">
        <ele>576.60</ele>
        <time>2015-01-17T08:16:57Z</time>
      </trkpt>
      <trkpt lat="42.415250000" lon="-2.595167000">
        <ele>576.50</ele>
        <time>2015-01-17T08:16:58Z</time>
      </trkpt>
      <trkpt lat="42.415293000" lon="-2.595235000">
        <ele>576.00</ele>
        <time>2015-01-17T08:16:59Z</time>
      </trkpt>
      <trkpt lat="42.415340000" lon="-2.595313000">
        <ele>575.60</ele>
        <time>2015-01-17T08:17:00Z</time>
      </trkpt>
      <trkpt lat="42.415393000" lon="-2.595396000">
        <ele>574.80</ele>
        <time>2015-01-17T08:17:01Z</time>
      </trkpt>
      <trkpt lat="42.415456000" lon="-2.595483000">
        <ele>574.20</ele>
        <time>2015-01-17T08:17:02Z</time>
      </trkpt>
      <trkpt lat="42.415532000" lon="-2.595573000">
        <ele>573.60</ele>
        <time>2015-01-17T08:17:03Z</time>
      </trkpt>
      <trkpt lat="42.415610000" lon="-2.595666000">
        <ele>573.10</ele>
        <time>2015-01-17T08:17:04Z</time>
      </trkpt>
      <trkpt lat="42.415683000" lon="-2.595762000">
        <ele>572.30</ele>
        <time>2015-01-17T08:17:05Z</time>
      </trkpt>
      <trkpt lat="42.415745000" lon="-2.595863000">
        <ele>571.80</ele>
        <time>2015-01-17T08:17:06Z</time>
      </trkpt>
      <trkpt lat="42.415795000" lon="-2.595964000">
        <ele>570.60</ele>
        <time>2015-01-17T08:17:07Z</time>
      </trkpt>
      <trkpt lat="42.415840000" lon="-2.596062000">
        <ele>569.80</ele>
        <time>2015-01-17T08:17:08Z</time>
      </trkpt>
      <trkpt lat="42.415882000" lon="-2.596150000">
        <ele>569.20</ele>
        <time>2015-01-17T08:17:09Z</time>
      </trkpt>
      <trkpt lat="42.415921000" lon="-2.596228000">
        <ele>568.70</ele>
        <time>2015-01-17T08:17:10Z</time>
      </trkpt>
      <trkpt lat="42.415954000" lon="-2.596297000">
        <ele>568.30</ele>
        <time>2015-01-17T08:17:11Z</time>
      </trkpt>
      <trkpt lat="42.415983000" lon="-2.596358000">
        <ele>567.90</ele>
        <time>2015-01-17T08:17:12Z</time>
      </trkpt>
      <trkpt lat="42.416009000" lon="-2.596411000">
        <ele>567.90</ele>
        <time>2015-01-17T08:17:13Z</time>
      </trkpt>
      <trkpt lat="42.416029000" lon="-2.596458000">
        <ele>567.90</ele>
        <time>2015-01-17T08:17:14Z</time>
      </trkpt>
      <trkpt lat="42.416045000" lon="-2.596499000">
        <ele>567.90</ele>
        <time>2015-01-17T08:17:15Z</time>
      </trkpt>
      <trkpt lat="42.416061000" lon="-2.596538000">
        <ele>567.80</ele>
        <time>2015-01-17T08:17:16Z</time>
      </trkpt>
      <trkpt lat="42.416077000" lon="-2.596575000">
        <ele>567.80</ele>
        <time>2015-01-17T08:17:17Z</time>
      </trkpt>
      <trkpt lat="42.416092000" lon="-2.596605000">
        <ele>567.80</ele>
        <time>2015-01-17T08:17:18Z</time>
      </trkpt>
      <trkpt lat="42.416103000" lon="-2.596636000">
        <ele>567.90</ele>
        <time>2015-01-17T08:17:19Z</time>
      </trkpt>
      <trkpt lat="42.416116000" lon="-2.596669000">
        <ele>567.90</ele>
        <time>2015-01-17T08:17:20Z</time>
      </trkpt>
      <trkpt lat="42.416129000" lon="-2.596710000">
        <ele>568.20</ele>
        <time>2015-01-17T08:17:21Z</time>
      </trkpt>
      <trkpt lat="42.416141000" lon="-2.596750000">
        <ele>568.40</ele>
        <time>2015-01-17T08:17:22Z</time>
      </trkpt>
      <trkpt lat="42.416150000" lon="-2.596795000">
        <ele>568.70</ele>
        <time>2015-01-17T08:17:23Z</time>
      </trkpt>
      <trkpt lat="42.416163000" lon="-2.596836000">
        <ele>568.90</ele>
        <time>2015-01-17T08:17:24Z</time>
      </trkpt>
      <trkpt lat="42.416177000" lon="-2.596880000">
        <ele>569.20</ele>
        <time>2015-01-17T08:17:25Z</time>
      </trkpt>
      <trkpt lat="42.416189000" lon="-2.596926000">
        <ele>569.40</ele>
        <time>2015-01-17T08:17:26Z</time>
      </trkpt>
      <trkpt lat="42.416202000" lon="-2.596972000">
        <ele>569.50</ele>
        <time>2015-01-17T08:17:27Z</time>
      </trkpt>
      <trkpt lat="42.416214000" lon="-2.597017000">
        <ele>569.60</ele>
        <time>2015-01-17T08:17:28Z</time>
      </trkpt>
      <trkpt lat="42.416224000" lon="-2.597067000">
        <ele>569.70</ele>
        <time>2015-01-17T08:17:29Z</time>
      </trkpt>
      <trkpt lat="42.416235000" lon="-2.597111000">
        <ele>569.80</ele>
        <time>2015-01-17T08:17:30Z</time>
      </trkpt>
      <trkpt lat="42.416250000" lon="-2.597156000">
        <ele>570.20</ele>
        <time>2015-01-17T08:17:31Z</time>
      </trkpt>
      <trkpt lat="42.416265000" lon="-2.597202000">
        <ele>570.40</ele>
        <time>2015-01-17T08:17:32Z</time>
      </trkpt>
      <trkpt lat="42.416280000" lon="-2.597248000">
        <ele>570.60</ele>
        <time>2015-01-17T08:17:33Z</time>
      </trkpt>
      <trkpt lat="42.416295000" lon="-2.597295000">
        <ele>570.80</ele>
        <time>2015-01-17T08:17:34Z</time>
      </trkpt>
      <trkpt lat="42.416311000" lon="-2.597345000">
        <ele>570.90</ele>
        <time>2015-01-17T08:17:35Z</time>
      </trkpt>
      <trkpt lat="42.416326000" lon="-2.597395000">
        <ele>571.00</ele>
        <time>2015-01-17T08:17:36Z</time>
      </trkpt>
      <trkpt lat="42.416342000" lon="-2.597446000">
        <ele>571.10</ele>
        <time>2015-01-17T08:17:37Z</time>
      </trkpt>
      <trkpt lat="42.416359000" lon="-2.597498000">
        <ele>571.10</ele>
        <time>2015-01-17T08:17:38Z</time>
      </trkpt>
      <trkpt lat="42.416376000" lon="-2.597549000">
        <ele>570.90</ele>
        <time>2015-01-17T08:17:39Z</time>
      </trkpt>
      <trkpt lat="42.416395000" lon="-2.597602000">
        <ele>570.80</ele>
        <time>2015-01-17T08:17:40Z</time>
      </trkpt>
      <trkpt lat="42.416412000" lon="-2.597660000">
        <ele>570.30</ele>
        <time>2015-01-17T08:17:41Z</time>
      </trkpt>
      <trkpt lat="42.416430000" lon="-2.597725000">
        <ele>570.00</ele>
        <time>2015-01-17T08:17:42Z</time>
      </trkpt>
      <trkpt lat="42.416448000" lon="-2.597795000">
        <ele>569.80</ele>
        <time>2015-01-17T08:17:43Z</time>
      </trkpt>
      <trkpt lat="42.416463000" lon="-2.597865000">
        <ele>569.60</ele>
        <time>2015-01-17T08:17:44Z</time>
      </trkpt>
      <trkpt lat="42.416483000" lon="-2.598000000">
        <ele>569.10</ele>
        <time>2015-01-17T08:17:46Z</time>
      </trkpt>
      <trkpt lat="42.416503000" lon="-2.598052000">
        <ele>568.70</ele>
        <time>2015-01-17T08:17:47Z</time>
      </trkpt>
      <trkpt lat="42.416535000" lon="-2.598084000">
        <ele>568.40</ele>
        <time>2015-01-17T08:17:48Z</time>
      </trkpt>
      <trkpt lat="42.416576000" lon="-2.598096000">
        <ele>567.70</ele>
        <time>2015-01-17T08:17:49Z</time>
      </trkpt>
      <trkpt lat="42.416622000" lon="-2.598091000">
        <ele>567.20</ele>
        <time>2015-01-17T08:17:50Z</time>
      </trkpt>
      <trkpt lat="42.416668000" lon="-2.598074000">
        <ele>566.60</ele>
        <time>2015-01-17T08:17:51Z</time>
      </trkpt>
      <trkpt lat="42.416714000" lon="-2.598052000">
        <ele>566.20</ele>
        <time>2015-01-17T08:17:52Z</time>
      </trkpt>
      <trkpt lat="42.416765000" lon="-2.598030000">
        <ele>565.50</ele>
        <time>2015-01-17T08:17:53Z</time>
      </trkpt>
      <trkpt lat="42.416813000" lon="-2.598014000">
        <ele>564.90</ele>
        <time>2015-01-17T08:17:54Z</time>
      </trkpt>
      <trkpt lat="42.416866000" lon="-2.598008000">
        <ele>564.40</ele>
        <time>2015-01-17T08:17:55Z</time>
      </trkpt>
      <trkpt lat="42.416916000" lon="-2.598023000">
        <ele>564.00</ele>
        <time>2015-01-17T08:17:56Z</time>
      </trkpt>
      <trkpt lat="42.416962000" lon="-2.598046000">
        <ele>563.30</ele>
        <time>2015-01-17T08:17:57Z</time>
      </trkpt>
      <trkpt lat="42.417002000" lon="-2.598082000">
        <ele>562.80</ele>
        <time>2015-01-17T08:17:58Z</time>
      </trkpt>
      <trkpt lat="42.417036000" lon="-2.598120000">
        <ele>562.40</ele>
        <time>2015-01-17T08:17:59Z</time>
      </trkpt>
      <trkpt lat="42.417066000" lon="-2.598153000">
        <ele>562.10</ele>
        <time>2015-01-17T08:18:00Z</time>
      </trkpt>
      <trkpt lat="42.417092000" lon="-2.598195000">
        <ele>561.60</ele>
        <time>2015-01-17T08:18:01Z</time>
      </trkpt>
      <trkpt lat="42.417105000" lon="-2.598240000">
        <ele>561.20</ele>
        <time>2015-01-17T08:18:02Z</time>
      </trkpt>
      <trkpt lat="42.417106000" lon="-2.598280000">
        <ele>560.90</ele>
        <time>2015-01-17T08:18:03Z</time>
      </trkpt>
      <trkpt lat="42.417096000" lon="-2.598320000">
        <ele>560.70</ele>
        <time>2015-01-17T08:18:04Z</time>
      </trkpt>
      <trkpt lat="42.417080000" lon="-2.598360000">
        <ele>560.60</ele>
        <time>2015-01-17T08:18:05Z</time>
      </trkpt>
      <trkpt lat="42.417067000" lon="-2.598398000">
        <ele>560.50</ele>
        <time>2015-01-17T08:18:06Z</time>
      </trkpt>
      <trkpt lat="42.417056000" lon="-2.598435000">
        <ele>560.40</ele>
        <time>2015-01-17T08:18:07Z</time>
      </trkpt>
      <trkpt lat="42.417035000" lon="-2.598478000">
        <ele>560.40</ele>
        <time>2015-01-17T08:18:08Z</time>
      </trkpt>
      <trkpt lat="42.417015000" lon="-2.598518000">
        <ele>560.70</ele>
        <time>2015-01-17T08:18:09Z</time>
      </trkpt>
      <trkpt lat="42.416995000" lon="-2.598558000">
        <ele>560.90</ele>
        <time>2015-01-17T08:18:10Z</time>
      </trkpt>
      <trkpt lat="42.416973000" lon="-2.598598000">
        <ele>561.00</ele>
        <time>2015-01-17T08:18:11Z</time>
      </trkpt>
      <trkpt lat="42.416954000" lon="-2.598639000">
        <ele>561.20</ele>
        <time>2015-01-17T08:18:12Z</time>
      </trkpt>
      <trkpt lat="42.416932000" lon="-2.598680000">
        <ele>561.30</ele>
        <time>2015-01-17T08:18:13Z</time>
      </trkpt>
      <trkpt lat="42.416911000" lon="-2.598724000">
        <ele>561.40</ele>
        <time>2015-01-17T08:18:14Z</time>
      </trkpt>
      <trkpt lat="42.416891000" lon="-2.598765000">
        <ele>561.70</ele>
        <time>2015-01-17T08:18:15Z</time>
      </trkpt>
      <trkpt lat="42.416872000" lon="-2.598807000">
        <ele>561.90</ele>
        <time>2015-01-17T08:18:16Z</time>
      </trkpt>
      <trkpt lat="42.416850000" lon="-2.598845000">
        <ele>562.00</ele>
        <time>2015-01-17T08:18:17Z</time>
      </trkpt>
      <trkpt lat="42.416834000" lon="-2.598886000">
        <ele>562.10</ele>
        <time>2015-01-17T08:18:18Z</time>
      </trkpt>
      <trkpt lat="42.416818000" lon="-2.598926000">
        <ele>562.30</ele>
        <time>2015-01-17T08:18:19Z</time>
      </trkpt>
      <trkpt lat="42.416799000" lon="-2.598968000">
        <ele>562.40</ele>
        <time>2015-01-17T08:18:20Z</time>
      </trkpt>
      <trkpt lat="42.416784000" lon="-2.599011000">
        <ele>562.70</ele>
        <time>2015-01-17T08:18:21Z</time>
      </trkpt>
      <trkpt lat="42.416765000" lon="-2.599053000">
        <ele>562.90</ele>
        <time>2015-01-17T08:18:22Z</time>
      </trkpt>
      <trkpt lat="42.416748000" lon="-2.599092000">
        <ele>563.00</ele>
        <time>2015-01-17T08:18:23Z</time>
      </trkpt>
      <trkpt lat="42.416728000" lon="-2.599131000">
        <ele>563.20</ele>
        <time>2015-01-17T08:18:24Z</time>
      </trkpt>
      <trkpt lat="42.416709000" lon="-2.599172000">
        <ele>563.20</ele>
        <time>2015-01-17T08:18:25Z</time>
      </trkpt>
      <trkpt lat="42.416690000" lon="-2.599213000">
        <ele>563.30</ele>
        <time>2015-01-17T08:18:26Z</time>
      </trkpt>
      <trkpt lat="42.416672000" lon="-2.599253000">
        <ele>563.40</ele>
        <time>2015-01-17T08:18:27Z</time>
      </trkpt>
      <trkpt lat="42.416656000" lon="-2.599290000">
        <ele>563.40</ele>
        <time>2015-01-17T08:18:28Z</time>
      </trkpt>
      <trkpt lat="42.416636000" lon="-2.599329000">
        <ele>563.40</ele>
        <time>2015-01-17T08:18:29Z</time>
      </trkpt>
      <trkpt lat="42.416618000" lon="-2.599368000">
        <ele>563.40</ele>
        <time>2015-01-17T08:18:30Z</time>
      </trkpt>
      <trkpt lat="42.416600000" lon="-2.599406000">
        <ele>563.50</ele>
        <time>2015-01-17T08:18:31Z</time>
      </trkpt>
      <trkpt lat="42.416582000" lon="-2.599446000">
        <ele>563.60</ele>
        <time>2015-01-17T08:18:32Z</time>
      </trkpt>
      <trkpt lat="42.416561000" lon="-2.599482000">
        <ele>563.70</ele>
        <time>2015-01-17T08:18:33Z</time>
      </trkpt>
      <trkpt lat="42.416544000" lon="-2.599519000">
        <ele>563.70</ele>
        <time>2015-01-17T08:18:34Z</time>
      </trkpt>
      <trkpt lat="42.416525000" lon="-2.599555000">
        <ele>563.80</ele>
        <time>2015-01-17T08:18:35Z</time>
      </trkpt>
      <trkpt lat="42.416508000" lon="-2.599593000">
        <ele>563.80</ele>
        <time>2015-01-17T08:18:36Z</time>
      </trkpt>
      <trkpt lat="42.416490000" lon="-2.599630000">
        <ele>564.10</ele>
        <time>2015-01-17T08:18:37Z</time>
      </trkpt>
      <trkpt lat="42.416473000" lon="-2.599667000">
        <ele>564.30</ele>
        <time>2015-01-17T08:18:38Z</time>
      </trkpt>
      <trkpt lat="42.416458000" lon="-2.599701000">
        <ele>564.50</ele>
        <time>2015-01-17T08:18:39Z</time>
      </trkpt>
      <trkpt lat="42.416440000" lon="-2.599734000">
        <ele>564.60</ele>
        <time>2015-01-17T08:18:40Z</time>
      </trkpt>
      <trkpt lat="42.416422000" lon="-2.599769000">
        <ele>564.70</ele>
        <time>2015-01-17T08:18:41Z</time>
      </trkpt>
      <trkpt lat="42.416405000" lon="-2.599804000">
        <ele>564.80</ele>
        <time>2015-01-17T08:18:42Z</time>
      </trkpt>
      <trkpt lat="42.416389000" lon="-2.599838000">
        <ele>564.90</ele>
        <time>2015-01-17T08:18:43Z</time>
      </trkpt>
      <trkpt lat="42.416372000" lon="-2.599870000">
        <ele>565.00</ele>
        <time>2015-01-17T08:18:44Z</time>
      </trkpt>
      <trkpt lat="42.416354000" lon="-2.599901000">
        <ele>565.20</ele>
        <time>2015-01-17T08:18:45Z</time>
      </trkpt>
      <trkpt lat="42.416323000" lon="-2.599973000">
        <ele>565.70</ele>
        <time>2015-01-17T08:18:47Z</time>
      </trkpt>
      <trkpt lat="42.416304000" lon="-2.600007000">
        <ele>565.90</ele>
        <time>2015-01-17T08:18:48Z</time>
      </trkpt>
      <trkpt lat="42.416286000" lon="-2.600041000">
        <ele>566.10</ele>
        <time>2015-01-17T08:18:49Z</time>
      </trkpt>
      <trkpt lat="42.416272000" lon="-2.600077000">
        <ele>566.30</ele>
        <time>2015-01-17T08:18:50Z</time>
      </trkpt>
      <trkpt lat="42.416255000" lon="-2.600110000">
        <ele>566.50</ele>
        <time>2015-01-17T08:18:51Z</time>
      </trkpt>
      <trkpt lat="42.416237000" lon="-2.600144000">
        <ele>566.70</ele>
        <time>2015-01-17T08:18:52Z</time>
      </trkpt>
      <trkpt lat="42.416220000" lon="-2.600180000">
        <ele>566.80</ele>
        <time>2015-01-17T08:18:53Z</time>
      </trkpt>
      <trkpt lat="42.416204000" lon="-2.600215000">
        <ele>566.80</ele>
        <time>2015-01-17T08:18:54Z</time>
      </trkpt>
      <trkpt lat="42.416188000" lon="-2.600249000">
        <ele>566.90</ele>
        <time>2015-01-17T08:18:55Z</time>
      </trkpt>
      <trkpt lat="42.416172000" lon="-2.600288000">
        <ele>567.00</ele>
        <time>2015-01-17T08:18:56Z</time>
      </trkpt>
      <trkpt lat="42.416158000" lon="-2.600325000">
        <ele>567.00</ele>
        <time>2015-01-17T08:18:57Z</time>
      </trkpt>
      <trkpt lat="42.416142000" lon="-2.600361000">
        <ele>567.00</ele>
        <time>2015-01-17T08:18:58Z</time>
      </trkpt>
      <trkpt lat="42.416126000" lon="-2.600396000">
        <ele>567.00</ele>
        <time>2015-01-17T08:18:59Z</time>
      </trkpt>
      <trkpt lat="42.416113000" lon="-2.600437000">
        <ele>567.00</ele>
        <time>2015-01-17T08:19:00Z</time>
      </trkpt>
      <trkpt lat="42.416097000" lon="-2.600471000">
        <ele>567.00</ele>
        <time>2015-01-17T08:19:01Z</time>
      </trkpt>
      <trkpt lat="42.416080000" lon="-2.600508000">
        <ele>567.00</ele>
        <time>2015-01-17T08:19:02Z</time>
      </trkpt>
      <trkpt lat="42.416067000" lon="-2.600545000">
        <ele>567.10</ele>
        <time>2015-01-17T08:19:03Z</time>
      </trkpt>
      <trkpt lat="42.416053000" lon="-2.600581000">
        <ele>567.10</ele>
        <time>2015-01-17T08:19:04Z</time>
      </trkpt>
      <trkpt lat="42.416038000" lon="-2.600614000">
        <ele>567.30</ele>
        <time>2015-01-17T08:19:05Z</time>
      </trkpt>
      <trkpt lat="42.416022000" lon="-2.600646000">
        <ele>567.40</ele>
        <time>2015-01-17T08:19:06Z</time>
      </trkpt>
      <trkpt lat="42.416008000" lon="-2.600679000">
        <ele>567.50</ele>
        <time>2015-01-17T08:19:07Z</time>
      </trkpt>
      <trkpt lat="42.415992000" lon="-2.600716000">
        <ele>567.60</ele>
        <time>2015-01-17T08:19:08Z</time>
      </trkpt>
      <trkpt lat="42.415980000" lon="-2.600753000">
        <ele>567.70</ele>
        <time>2015-01-17T08:19:09Z</time>
      </trkpt>
      <trkpt lat="42.415965000" lon="-2.600789000">
        <ele>567.80</ele>
        <time>2015-01-17T08:19:10Z</time>
      </trkpt>
      <trkpt lat="42.415949000" lon="-2.600825000">
        <ele>567.80</ele>
        <time>2015-01-17T08:19:11Z</time>
      </trkpt>
      <trkpt lat="42.415933000" lon="-2.600862000">
        <ele>567.90</ele>
        <time>2015-01-17T08:19:12Z</time>
      </trkpt>
      <trkpt lat="42.415919000" lon="-2.600903000">
        <ele>568.10</ele>
        <time>2015-01-17T08:19:13Z</time>
      </trkpt>
      <trkpt lat="42.415904000" lon="-2.600948000">
        <ele>568.40</ele>
        <time>2015-01-17T08:19:14Z</time>
      </trkpt>
      <trkpt lat="42.415890000" lon="-2.600988000">
        <ele>568.60</ele>
        <time>2015-01-17T08:19:15Z</time>
      </trkpt>
      <trkpt lat="42.415876000" lon="-2.601023000">
        <ele>568.80</ele>
        <time>2015-01-17T08:19:16Z</time>
      </trkpt>
      <trkpt lat="42.415860000" lon="-2.601062000">
        <ele>568.90</ele>
        <time>2015-01-17T08:19:17Z</time>
      </trkpt>
      <trkpt lat="42.415843000" lon="-2.601104000">
        <ele>569.00</ele>
        <time>2015-01-17T08:19:18Z</time>
      </trkpt>
      <trkpt lat="42.415829000" lon="-2.601143000">
        <ele>569.10</ele>
        <time>2015-01-17T08:19:19Z</time>
      </trkpt>
      <trkpt lat="42.415817000" lon="-2.601177000">
        <ele>569.10</ele>
        <time>2015-01-17T08:19:20Z</time>
      </trkpt>
      <trkpt lat="42.415803000" lon="-2.601218000">
        <ele>569.20</ele>
        <time>2015-01-17T08:19:21Z</time>
      </trkpt>
      <trkpt lat="42.415788000" lon="-2.601257000">
        <ele>569.30</ele>
        <time>2015-01-17T08:19:22Z</time>
      </trkpt>
      <trkpt lat="42.415772000" lon="-2.601294000">
        <ele>569.30</ele>
        <time>2015-01-17T08:19:23Z</time>
      </trkpt>
      <trkpt lat="42.415760000" lon="-2.601334000">
        <ele>569.30</ele>
        <time>2015-01-17T08:19:24Z</time>
      </trkpt>
      <trkpt lat="42.415746000" lon="-2.601373000">
        <ele>569.30</ele>
        <time>2015-01-17T08:19:25Z</time>
      </trkpt>
      <trkpt lat="42.415733000" lon="-2.601411000">
        <ele>569.30</ele>
        <time>2015-01-17T08:19:26Z</time>
      </trkpt>
      <trkpt lat="42.415721000" lon="-2.601450000">
        <ele>569.20</ele>
        <time>2015-01-17T08:19:27Z</time>
      </trkpt>
      <trkpt lat="42.415709000" lon="-2.601489000">
        <ele>569.20</ele>
        <time>2015-01-17T08:19:28Z</time>
      </trkpt>
      <trkpt lat="42.415693000" lon="-2.601528000">
        <ele>569.40</ele>
        <time>2015-01-17T08:19:29Z</time>
      </trkpt>
      <trkpt lat="42.415681000" lon="-2.601569000">
        <ele>569.50</ele>
        <time>2015-01-17T08:19:30Z</time>
      </trkpt>
      <trkpt lat="42.415668000" lon="-2.601610000">
        <ele>569.60</ele>
        <time>2015-01-17T08:19:31Z</time>
      </trkpt>
      <trkpt lat="42.415653000" lon="-2.601651000">
        <ele>569.70</ele>
        <time>2015-01-17T08:19:32Z</time>
      </trkpt>
      <trkpt lat="42.415639000" lon="-2.601690000">
        <ele>569.70</ele>
        <time>2015-01-17T08:19:33Z</time>
      </trkpt>
      <trkpt lat="42.415626000" lon="-2.601731000">
        <ele>569.60</ele>
        <time>2015-01-17T08:19:34Z</time>
      </trkpt>
      <trkpt lat="42.415612000" lon="-2.601772000">
        <ele>569.60</ele>
        <time>2015-01-17T08:19:35Z</time>
      </trkpt>
      <trkpt lat="42.415598000" lon="-2.601804000">
        <ele>569.60</ele>
        <time>2015-01-17T08:19:36Z</time>
      </trkpt>
      <trkpt lat="42.415586000" lon="-2.601841000">
        <ele>569.60</ele>
        <time>2015-01-17T08:19:37Z</time>
      </trkpt>
      <trkpt lat="42.415574000" lon="-2.601883000">
        <ele>569.60</ele>
        <time>2015-01-17T08:19:38Z</time>
      </trkpt>
      <trkpt lat="42.415560000" lon="-2.601926000">
        <ele>569.60</ele>
        <time>2015-01-17T08:19:39Z</time>
      </trkpt>
      <trkpt lat="42.415547000" lon="-2.601968000">
        <ele>569.50</ele>
        <time>2015-01-17T08:19:40Z</time>
      </trkpt>
      <trkpt lat="42.415532000" lon="-2.602008000">
        <ele>569.50</ele>
        <time>2015-01-17T08:19:41Z</time>
      </trkpt>
      <trkpt lat="42.415518000" lon="-2.602045000">
        <ele>569.50</ele>
        <time>2015-01-17T08:19:42Z</time>
      </trkpt>
      <trkpt lat="42.415502000" lon="-2.602086000">
        <ele>569.70</ele>
        <time>2015-01-17T08:19:43Z</time>
      </trkpt>
      <trkpt lat="42.415489000" lon="-2.602122000">
        <ele>569.90</ele>
        <time>2015-01-17T08:19:44Z</time>
      </trkpt>
      <trkpt lat="42.415475000" lon="-2.602166000">
        <ele>570.10</ele>
        <time>2015-01-17T08:19:45Z</time>
      </trkpt>
      <trkpt lat="42.415461000" lon="-2.602207000">
        <ele>570.20</ele>
        <time>2015-01-17T08:19:46Z</time>
      </trkpt>
      <trkpt lat="42.415431000" lon="-2.602284000">
        <ele>570.40</ele>
        <time>2015-01-17T08:19:48Z</time>
      </trkpt>
      <trkpt lat="42.415417000" lon="-2.602322000">
        <ele>570.60</ele>
        <time>2015-01-17T08:19:49Z</time>
      </trkpt>
      <trkpt lat="42.415403000" lon="-2.602360000">
        <ele>570.80</ele>
        <time>2015-01-17T08:19:50Z</time>
      </trkpt>
      <trkpt lat="42.415389000" lon="-2.602399000">
        <ele>570.90</ele>
        <time>2015-01-17T08:19:51Z</time>
      </trkpt>
      <trkpt lat="42.415374000" lon="-2.602441000">
        <ele>571.10</ele>
        <time>2015-01-17T08:19:52Z</time>
      </trkpt>
      <trkpt lat="42.415359000" lon="-2.602482000">
        <ele>571.20</ele>
        <time>2015-01-17T08:19:53Z</time>
      </trkpt>
      <trkpt lat="42.415343000" lon="-2.602523000">
        <ele>571.20</ele>
        <time>2015-01-17T08:19:54Z</time>
      </trkpt>
      <trkpt lat="42.415325000" lon="-2.602563000">
        <ele>571.30</ele>
        <time>2015-01-17T08:19:55Z</time>
      </trkpt>
      <trkpt lat="42.415309000" lon="-2.602604000">
        <ele>571.40</ele>
        <time>2015-01-17T08:19:56Z</time>
      </trkpt>
      <trkpt lat="42.415294000" lon="-2.602644000">
        <ele>571.50</ele>
        <time>2015-01-17T08:19:57Z</time>
      </trkpt>
      <trkpt lat="42.415278000" lon="-2.602685000">
        <ele>571.50</ele>
        <time>2015-01-17T08:19:58Z</time>
      </trkpt>
      <trkpt lat="42.415262000" lon="-2.602726000">
        <ele>571.50</ele>
        <time>2015-01-17T08:19:59Z</time>
      </trkpt>
      <trkpt lat="42.415248000" lon="-2.602768000">
        <ele>571.60</ele>
        <time>2015-01-17T08:20:00Z</time>
      </trkpt>
      <trkpt lat="42.415235000" lon="-2.602806000">
        <ele>571.60</ele>
        <time>2015-01-17T08:20:01Z</time>
      </trkpt>
      <trkpt lat="42.415221000" lon="-2.602848000">
        <ele>571.60</ele>
        <time>2015-01-17T08:20:02Z</time>
      </trkpt>
      <trkpt lat="42.415206000" lon="-2.602888000">
        <ele>571.80</ele>
        <time>2015-01-17T08:20:03Z</time>
      </trkpt>
      <trkpt lat="42.415190000" lon="-2.602932000">
        <ele>572.00</ele>
        <time>2015-01-17T08:20:04Z</time>
      </trkpt>
      <trkpt lat="42.415174000" lon="-2.602975000">
        <ele>572.20</ele>
        <time>2015-01-17T08:20:05Z</time>
      </trkpt>
      <trkpt lat="42.415159000" lon="-2.603016000">
        <ele>572.30</ele>
        <time>2015-01-17T08:20:06Z</time>
      </trkpt>
      <trkpt lat="42.415143000" lon="-2.603058000">
        <ele>572.20</ele>
        <time>2015-01-17T08:20:07Z</time>
      </trkpt>
      <trkpt lat="42.415130000" lon="-2.603101000">
        <ele>572.20</ele>
        <time>2015-01-17T08:20:08Z</time>
      </trkpt>
      <trkpt lat="42.415117000" lon="-2.603139000">
        <ele>572.10</ele>
        <time>2015-01-17T08:20:09Z</time>
      </trkpt>
      <trkpt lat="42.415100000" lon="-2.603178000">
        <ele>572.10</ele>
        <time>2015-01-17T08:20:10Z</time>
      </trkpt>
      <trkpt lat="42.415084000" lon="-2.603217000">
        <ele>572.20</ele>
        <time>2015-01-17T08:20:11Z</time>
      </trkpt>
      <trkpt lat="42.415069000" lon="-2.603259000">
        <ele>572.30</ele>
        <time>2015-01-17T08:20:12Z</time>
      </trkpt>
      <trkpt lat="42.415053000" lon="-2.603299000">
        <ele>572.40</ele>
        <time>2015-01-17T08:20:13Z</time>
      </trkpt>
      <trkpt lat="42.415039000" lon="-2.603338000">
        <ele>572.40</ele>
        <time>2015-01-17T08:20:14Z</time>
      </trkpt>
      <trkpt lat="42.415023000" lon="-2.603377000">
        <ele>572.50</ele>
        <time>2015-01-17T08:20:15Z</time>
      </trkpt>
      <trkpt lat="42.415005000" lon="-2.603417000">
        <ele>572.50</ele>
        <time>2015-01-17T08:20:16Z</time>
      </trkpt>
      <trkpt lat="42.414992000" lon="-2.603463000">
        <ele>572.50</ele>
        <time>2015-01-17T08:20:17Z</time>
      </trkpt>
      <trkpt lat="42.414979000" lon="-2.603507000">
        <ele>572.50</ele>
        <time>2015-01-17T08:20:18Z</time>
      </trkpt>
      <trkpt lat="42.414964000" lon="-2.603548000">
        <ele>572.50</ele>
        <time>2015-01-17T08:20:19Z</time>
      </trkpt>
      <trkpt lat="42.414948000" lon="-2.603587000">
        <ele>572.60</ele>
        <time>2015-01-17T08:20:20Z</time>
      </trkpt>
      <trkpt lat="42.414931000" lon="-2.603625000">
        <ele>572.60</ele>
        <time>2015-01-17T08:20:21Z</time>
      </trkpt>
      <trkpt lat="42.414914000" lon="-2.603663000">
        <ele>572.60</ele>
        <time>2015-01-17T08:20:22Z</time>
      </trkpt>
      <trkpt lat="42.414901000" lon="-2.603704000">
        <ele>572.60</ele>
        <time>2015-01-17T08:20:23Z</time>
      </trkpt>
      <trkpt lat="42.414888000" lon="-2.603744000">
        <ele>572.60</ele>
        <time>2015-01-17T08:20:24Z</time>
      </trkpt>
      <trkpt lat="42.414874000" lon="-2.603784000">
        <ele>572.70</ele>
        <time>2015-01-17T08:20:25Z</time>
      </trkpt>
      <trkpt lat="42.414856000" lon="-2.603826000">
        <ele>572.80</ele>
        <time>2015-01-17T08:20:26Z</time>
      </trkpt>
      <trkpt lat="42.414841000" lon="-2.603866000">
        <ele>573.00</ele>
        <time>2015-01-17T08:20:27Z</time>
      </trkpt>
      <trkpt lat="42.414827000" lon="-2.603910000">
        <ele>573.20</ele>
        <time>2015-01-17T08:20:28Z</time>
      </trkpt>
      <trkpt lat="42.414815000" lon="-2.603949000">
        <ele>573.40</ele>
        <time>2015-01-17T08:20:29Z</time>
      </trkpt>
      <trkpt lat="42.414802000" lon="-2.603988000">
        <ele>573.60</ele>
        <time>2015-01-17T08:20:30Z</time>
      </trkpt>
      <trkpt lat="42.414789000" lon="-2.604033000">
        <ele>573.70</ele>
        <time>2015-01-17T08:20:31Z</time>
      </trkpt>
      <trkpt lat="42.414778000" lon="-2.604076000">
        <ele>573.80</ele>
        <time>2015-01-17T08:20:32Z</time>
      </trkpt>
      <trkpt lat="42.414761000" lon="-2.604118000">
        <ele>573.90</ele>
        <time>2015-01-17T08:20:33Z</time>
      </trkpt>
      <trkpt lat="42.414745000" lon="-2.604155000">
        <ele>573.90</ele>
        <time>2015-01-17T08:20:34Z</time>
      </trkpt>
      <trkpt lat="42.414731000" lon="-2.604193000">
        <ele>573.90</ele>
        <time>2015-01-17T08:20:35Z</time>
      </trkpt>
      <trkpt lat="42.414717000" lon="-2.604231000">
        <ele>574.00</ele>
        <time>2015-01-17T08:20:36Z</time>
      </trkpt>
      <trkpt lat="42.414702000" lon="-2.604273000">
        <ele>574.30</ele>
        <time>2015-01-17T08:20:37Z</time>
      </trkpt>
      <trkpt lat="42.414687000" lon="-2.604316000">
        <ele>574.60</ele>
        <time>2015-01-17T08:20:38Z</time>
      </trkpt>
      <trkpt lat="42.414672000" lon="-2.604354000">
        <ele>574.80</ele>
        <time>2015-01-17T08:20:39Z</time>
      </trkpt>
      <trkpt lat="42.414659000" lon="-2.604394000">
        <ele>574.90</ele>
        <time>2015-01-17T08:20:40Z</time>
      </trkpt>
      <trkpt lat="42.414646000" lon="-2.604435000">
        <ele>575.00</ele>
        <time>2015-01-17T08:20:41Z</time>
      </trkpt>
      <trkpt lat="42.414631000" lon="-2.604474000">
        <ele>575.10</ele>
        <time>2015-01-17T08:20:42Z</time>
      </trkpt>
      <trkpt lat="42.414617000" lon="-2.604513000">
        <ele>575.30</ele>
        <time>2015-01-17T08:20:43Z</time>
      </trkpt>
      <trkpt lat="42.414601000" lon="-2.604555000">
        <ele>575.30</ele>
        <time>2015-01-17T08:20:44Z</time>
      </trkpt>
      <trkpt lat="42.414588000" lon="-2.604597000">
        <ele>575.40</ele>
        <time>2015-01-17T08:20:45Z</time>
      </trkpt>
      <trkpt lat="42.414574000" lon="-2.604633000">
        <ele>575.50</ele>
        <time>2015-01-17T08:20:46Z</time>
      </trkpt>
      <trkpt lat="42.414562000" lon="-2.604670000">
        <ele>575.50</ele>
        <time>2015-01-17T08:20:47Z</time>
      </trkpt>
      <trkpt lat="42.414539000" lon="-2.604745000">
        <ele>575.60</ele>
        <time>2015-01-17T08:20:49Z</time>
      </trkpt>
      <trkpt lat="42.414524000" lon="-2.604784000">
        <ele>575.60</ele>
        <time>2015-01-17T08:20:50Z</time>
      </trkpt>
      <trkpt lat="42.414509000" lon="-2.604817000">
        <ele>575.50</ele>
        <time>2015-01-17T08:20:51Z</time>
      </trkpt>
      <trkpt lat="42.414498000" lon="-2.604855000">
        <ele>575.40</ele>
        <time>2015-01-17T08:20:52Z</time>
      </trkpt>
      <trkpt lat="42.414486000" lon="-2.604896000">
        <ele>575.40</ele>
        <time>2015-01-17T08:20:53Z</time>
      </trkpt>
      <trkpt lat="42.414472000" lon="-2.604937000">
        <ele>575.50</ele>
        <time>2015-01-17T08:20:54Z</time>
      </trkpt>
      <trkpt lat="42.414461000" lon="-2.604980000">
        <ele>575.50</ele>
        <time>2015-01-17T08:20:55Z</time>
      </trkpt>
      <trkpt lat="42.414444000" lon="-2.605018000">
        <ele>575.60</ele>
        <time>2015-01-17T08:20:56Z</time>
      </trkpt>
      <trkpt lat="42.414428000" lon="-2.605057000">
        <ele>575.80</ele>
        <time>2015-01-17T08:20:57Z</time>
      </trkpt>
      <trkpt lat="42.414411000" lon="-2.605095000">
        <ele>575.90</ele>
        <time>2015-01-17T08:20:58Z</time>
      </trkpt>
      <trkpt lat="42.414397000" lon="-2.605136000">
        <ele>576.10</ele>
        <time>2015-01-17T08:20:59Z</time>
      </trkpt>
      <trkpt lat="42.414383000" lon="-2.605175000">
        <ele>576.10</ele>
        <time>2015-01-17T08:21:00Z</time>
      </trkpt>
      <trkpt lat="42.414369000" lon="-2.605217000">
        <ele>576.20</ele>
        <time>2015-01-17T08:21:01Z</time>
      </trkpt>
      <trkpt lat="42.414353000" lon="-2.605256000">
        <ele>576.20</ele>
        <time>2015-01-17T08:21:02Z</time>
      </trkpt>
      <trkpt lat="42.414340000" lon="-2.605297000">
        <ele>576.10</ele>
        <time>2015-01-17T08:21:03Z</time>
      </trkpt>
      <trkpt lat="42.414325000" lon="-2.605336000">
        <ele>576.00</ele>
        <time>2015-01-17T08:21:04Z</time>
      </trkpt>
      <trkpt lat="42.414311000" lon="-2.605378000">
        <ele>576.00</ele>
        <time>2015-01-17T08:21:05Z</time>
      </trkpt>
      <trkpt lat="42.414297000" lon="-2.605420000">
        <ele>576.00</ele>
        <time>2015-01-17T08:21:06Z</time>
      </trkpt>
      <trkpt lat="42.414279000" lon="-2.605461000">
        <ele>576.30</ele>
        <time>2015-01-17T08:21:07Z</time>
      </trkpt>
      <trkpt lat="42.414265000" lon="-2.605505000">
        <ele>576.50</ele>
        <time>2015-01-17T08:21:08Z</time>
      </trkpt>
      <trkpt lat="42.414251000" lon="-2.605547000">
        <ele>576.70</ele>
        <time>2015-01-17T08:21:09Z</time>
      </trkpt>
      <trkpt lat="42.414235000" lon="-2.605587000">
        <ele>576.80</ele>
        <time>2015-01-17T08:21:10Z</time>
      </trkpt>
      <trkpt lat="42.414219000" lon="-2.605626000">
        <ele>576.90</ele>
        <time>2015-01-17T08:21:11Z</time>
      </trkpt>
      <trkpt lat="42.414206000" lon="-2.605665000">
        <ele>577.00</ele>
        <time>2015-01-17T08:21:12Z</time>
      </trkpt>
      <trkpt lat="42.414189000" lon="-2.605706000">
        <ele>577.00</ele>
        <time>2015-01-17T08:21:13Z</time>
      </trkpt>
      <trkpt lat="42.414173000" lon="-2.605750000">
        <ele>577.00</ele>
        <time>2015-01-17T08:21:14Z</time>
      </trkpt>
      <trkpt lat="42.414157000" lon="-2.605792000">
        <ele>577.00</ele>
        <time>2015-01-17T08:21:15Z</time>
      </trkpt>
      <trkpt lat="42.414141000" lon="-2.605831000">
        <ele>577.00</ele>
        <time>2015-01-17T08:21:16Z</time>
      </trkpt>
      <trkpt lat="42.414128000" lon="-2.605872000">
        <ele>577.20</ele>
        <time>2015-01-17T08:21:17Z</time>
      </trkpt>
      <trkpt lat="42.414115000" lon="-2.605912000">
        <ele>577.40</ele>
        <time>2015-01-17T08:21:18Z</time>
      </trkpt>
      <trkpt lat="42.414102000" lon="-2.605952000">
        <ele>577.60</ele>
        <time>2015-01-17T08:21:19Z</time>
      </trkpt>
      <trkpt lat="42.414088000" lon="-2.605993000">
        <ele>577.70</ele>
        <time>2015-01-17T08:21:20Z</time>
      </trkpt>
      <trkpt lat="42.414073000" lon="-2.606030000">
        <ele>577.60</ele>
        <time>2015-01-17T08:21:21Z</time>
      </trkpt>
      <trkpt lat="42.414059000" lon="-2.606068000">
        <ele>577.50</ele>
        <time>2015-01-17T08:21:22Z</time>
      </trkpt>
      <trkpt lat="42.414047000" lon="-2.606105000">
        <ele>577.40</ele>
        <time>2015-01-17T08:21:23Z</time>
      </trkpt>
      <trkpt lat="42.414031000" lon="-2.606144000">
        <ele>577.40</ele>
        <time>2015-01-17T08:21:24Z</time>
      </trkpt>
      <trkpt lat="42.414017000" lon="-2.606183000">
        <ele>577.40</ele>
        <time>2015-01-17T08:21:25Z</time>
      </trkpt>
      <trkpt lat="42.414000000" lon="-2.606224000">
        <ele>577.40</ele>
        <time>2015-01-17T08:21:26Z</time>
      </trkpt>
      <trkpt lat="42.413984000" lon="-2.606268000">
        <ele>577.60</ele>
        <time>2015-01-17T08:21:27Z</time>
      </trkpt>
      <trkpt lat="42.413969000" lon="-2.606314000">
        <ele>577.70</ele>
        <time>2015-01-17T08:21:28Z</time>
      </trkpt>
      <trkpt lat="42.413954000" lon="-2.606358000">
        <ele>577.80</ele>
        <time>2015-01-17T08:21:29Z</time>
      </trkpt>
      <trkpt lat="42.413939000" lon="-2.606401000">
        <ele>577.90</ele>
        <time>2015-01-17T08:21:30Z</time>
      </trkpt>
      <trkpt lat="42.413921000" lon="-2.606443000">
        <ele>578.10</ele>
        <time>2015-01-17T08:21:31Z</time>
      </trkpt>
      <trkpt lat="42.413906000" lon="-2.606484000">
        <ele>578.30</ele>
        <time>2015-01-17T08:21:32Z</time>
      </trkpt>
      <trkpt lat="42.413891000" lon="-2.606525000">
        <ele>578.40</ele>
        <time>2015-01-17T08:21:33Z</time>
      </trkpt>
      <trkpt lat="42.413880000" lon="-2.606565000">
        <ele>578.50</ele>
        <time>2015-01-17T08:21:34Z</time>
      </trkpt>
      <trkpt lat="42.413868000" lon="-2.606604000">
        <ele>578.60</ele>
        <time>2015-01-17T08:21:35Z</time>
      </trkpt>
      <trkpt lat="42.413854000" lon="-2.606644000">
        <ele>578.60</ele>
        <time>2015-01-17T08:21:36Z</time>
      </trkpt>
      <trkpt lat="42.413841000" lon="-2.606684000">
        <ele>578.60</ele>
        <time>2015-01-17T08:21:37Z</time>
      </trkpt>
      <trkpt lat="42.413828000" lon="-2.606723000">
        <ele>578.50</ele>
        <time>2015-01-17T08:21:38Z</time>
      </trkpt>
      <trkpt lat="42.413812000" lon="-2.606764000">
        <ele>578.50</ele>
        <time>2015-01-17T08:21:39Z</time>
      </trkpt>
      <trkpt lat="42.413796000" lon="-2.606805000">
        <ele>578.40</ele>
        <time>2015-01-17T08:21:40Z</time>
      </trkpt>
      <trkpt lat="42.413780000" lon="-2.606845000">
        <ele>578.50</ele>
        <time>2015-01-17T08:21:41Z</time>
      </trkpt>
      <trkpt lat="42.413765000" lon="-2.606882000">
        <ele>578.50</ele>
        <time>2015-01-17T08:21:42Z</time>
      </trkpt>
      <trkpt lat="42.413749000" lon="-2.606922000">
        <ele>578.60</ele>
        <time>2015-01-17T08:21:43Z</time>
      </trkpt>
      <trkpt lat="42.413733000" lon="-2.606960000">
        <ele>578.70</ele>
        <time>2015-01-17T08:21:44Z</time>
      </trkpt>
      <trkpt lat="42.413718000" lon="-2.607002000">
        <ele>578.70</ele>
        <time>2015-01-17T08:21:45Z</time>
      </trkpt>
      <trkpt lat="42.413704000" lon="-2.607041000">
        <ele>578.60</ele>
        <time>2015-01-17T08:21:46Z</time>
      </trkpt>
      <trkpt lat="42.413689000" lon="-2.607083000">
        <ele>578.70</ele>
        <time>2015-01-17T08:21:47Z</time>
      </trkpt>
      <trkpt lat="42.413673000" lon="-2.607123000">
        <ele>578.70</ele>
        <time>2015-01-17T08:21:48Z</time>
      </trkpt>
      <trkpt lat="42.413644000" lon="-2.607205000">
        <ele>579.00</ele>
        <time>2015-01-17T08:21:50Z</time>
      </trkpt>
      <trkpt lat="42.413628000" lon="-2.607246000">
        <ele>579.20</ele>
        <time>2015-01-17T08:21:51Z</time>
      </trkpt>
      <trkpt lat="42.413614000" lon="-2.607286000">
        <ele>579.40</ele>
        <time>2015-01-17T08:21:52Z</time>
      </trkpt>
      <trkpt lat="42.413598000" lon="-2.607325000">
        <ele>579.50</ele>
        <time>2015-01-17T08:21:53Z</time>
      </trkpt>
      <trkpt lat="42.413583000" lon="-2.607368000">
        <ele>579.60</ele>
        <time>2015-01-17T08:21:54Z</time>
      </trkpt>
      <trkpt lat="42.413571000" lon="-2.607408000">
        <ele>579.80</ele>
        <time>2015-01-17T08:21:55Z</time>
      </trkpt>
      <trkpt lat="42.413556000" lon="-2.607449000">
        <ele>579.90</ele>
        <time>2015-01-17T08:21:56Z</time>
      </trkpt>
      <trkpt lat="42.413544000" lon="-2.607491000">
        <ele>580.30</ele>
        <time>2015-01-17T08:21:57Z</time>
      </trkpt>
      <trkpt lat="42.413528000" lon="-2.607532000">
        <ele>580.60</ele>
        <time>2015-01-17T08:21:58Z</time>
      </trkpt>
      <trkpt lat="42.413515000" lon="-2.607569000">
        <ele>580.70</ele>
        <time>2015-01-17T08:21:59Z</time>
      </trkpt>
      <trkpt lat="42.413503000" lon="-2.607610000">
        <ele>580.70</ele>
        <time>2015-01-17T08:22:00Z</time>
      </trkpt>
      <trkpt lat="42.413488000" lon="-2.607650000">
        <ele>580.90</ele>
        <time>2015-01-17T08:22:01Z</time>
      </trkpt>
      <trkpt lat="42.413469000" lon="-2.607689000">
        <ele>581.00</ele>
        <time>2015-01-17T08:22:02Z</time>
      </trkpt>
      <trkpt lat="42.413453000" lon="-2.607728000">
        <ele>581.00</ele>
        <time>2015-01-17T08:22:03Z</time>
      </trkpt>
      <trkpt lat="42.413437000" lon="-2.607771000">
        <ele>581.00</ele>
        <time>2015-01-17T08:22:04Z</time>
      </trkpt>
      <trkpt lat="42.413426000" lon="-2.607811000">
        <ele>581.20</ele>
        <time>2015-01-17T08:22:05Z</time>
      </trkpt>
      <trkpt lat="42.413411000" lon="-2.607848000">
        <ele>581.30</ele>
        <time>2015-01-17T08:22:06Z</time>
      </trkpt>
      <trkpt lat="42.413396000" lon="-2.607885000">
        <ele>581.40</ele>
        <time>2015-01-17T08:22:07Z</time>
      </trkpt>
      <trkpt lat="42.413382000" lon="-2.607925000">
        <ele>581.50</ele>
        <time>2015-01-17T08:22:08Z</time>
      </trkpt>
      <trkpt lat="42.413367000" lon="-2.607965000">
        <ele>581.60</ele>
        <time>2015-01-17T08:22:09Z</time>
      </trkpt>
      <trkpt lat="42.413355000" lon="-2.608005000">
        <ele>581.60</ele>
        <time>2015-01-17T08:22:10Z</time>
      </trkpt>
      <trkpt lat="42.413344000" lon="-2.608044000">
        <ele>581.60</ele>
        <time>2015-01-17T08:22:11Z</time>
      </trkpt>
      <trkpt lat="42.413333000" lon="-2.608084000">
        <ele>581.70</ele>
        <time>2015-01-17T08:22:12Z</time>
      </trkpt>
      <trkpt lat="42.413320000" lon="-2.608124000">
        <ele>581.80</ele>
        <time>2015-01-17T08:22:13Z</time>
      </trkpt>
      <trkpt lat="42.413310000" lon="-2.608166000">
        <ele>581.80</ele>
        <time>2015-01-17T08:22:14Z</time>
      </trkpt>
      <trkpt lat="42.413299000" lon="-2.608207000">
        <ele>581.90</ele>
        <time>2015-01-17T08:22:15Z</time>
      </trkpt>
      <trkpt lat="42.413287000" lon="-2.608249000">
        <ele>582.00</ele>
        <time>2015-01-17T08:22:16Z</time>
      </trkpt>
      <trkpt lat="42.413277000" lon="-2.608289000">
        <ele>582.00</ele>
        <time>2015-01-17T08:22:17Z</time>
      </trkpt>
      <trkpt lat="42.413264000" lon="-2.608330000">
        <ele>582.00</ele>
        <time>2015-01-17T08:22:18Z</time>
      </trkpt>
      <trkpt lat="42.413252000" lon="-2.608368000">
        <ele>582.10</ele>
        <time>2015-01-17T08:22:19Z</time>
      </trkpt>
      <trkpt lat="42.413239000" lon="-2.608405000">
        <ele>582.20</ele>
        <time>2015-01-17T08:22:20Z</time>
      </trkpt>
      <trkpt lat="42.413227000" lon="-2.608441000">
        <ele>582.20</ele>
        <time>2015-01-17T08:22:21Z</time>
      </trkpt>
      <trkpt lat="42.413216000" lon="-2.608479000">
        <ele>582.10</ele>
        <time>2015-01-17T08:22:22Z</time>
      </trkpt>
      <trkpt lat="42.413206000" lon="-2.608515000">
        <ele>582.10</ele>
        <time>2015-01-17T08:22:23Z</time>
      </trkpt>
      <trkpt lat="42.413195000" lon="-2.608551000">
        <ele>582.10</ele>
        <time>2015-01-17T08:22:24Z</time>
      </trkpt>
      <trkpt lat="42.413184000" lon="-2.608591000">
        <ele>582.10</ele>
        <time>2015-01-17T08:22:25Z</time>
      </trkpt>
      <trkpt lat="42.413170000" lon="-2.608623000">
        <ele>582.00</ele>
        <time>2015-01-17T08:22:26Z</time>
      </trkpt>
      <trkpt lat="42.413156000" lon="-2.608661000">
        <ele>582.00</ele>
        <time>2015-01-17T08:22:27Z</time>
      </trkpt>
      <trkpt lat="42.413147000" lon="-2.608700000">
        <ele>581.90</ele>
        <time>2015-01-17T08:22:28Z</time>
      </trkpt>
      <trkpt lat="42.413134000" lon="-2.608738000">
        <ele>581.90</ele>
        <time>2015-01-17T08:22:29Z</time>
      </trkpt>
      <trkpt lat="42.413123000" lon="-2.608775000">
        <ele>582.00</ele>
        <time>2015-01-17T08:22:30Z</time>
      </trkpt>
      <trkpt lat="42.413107000" lon="-2.608812000">
        <ele>582.20</ele>
        <time>2015-01-17T08:22:31Z</time>
      </trkpt>
      <trkpt lat="42.413094000" lon="-2.608848000">
        <ele>582.40</ele>
        <time>2015-01-17T08:22:32Z</time>
      </trkpt>
      <trkpt lat="42.413082000" lon="-2.608888000">
        <ele>582.60</ele>
        <time>2015-01-17T08:22:33Z</time>
      </trkpt>
      <trkpt lat="42.413075000" lon="-2.608923000">
        <ele>582.70</ele>
        <time>2015-01-17T08:22:34Z</time>
      </trkpt>
      <trkpt lat="42.413066000" lon="-2.608958000">
        <ele>582.80</ele>
        <time>2015-01-17T08:22:35Z</time>
      </trkpt>
      <trkpt lat="42.413052000" lon="-2.608994000">
        <ele>582.90</ele>
        <time>2015-01-17T08:22:36Z</time>
      </trkpt>
      <trkpt lat="42.413040000" lon="-2.609032000">
        <ele>582.90</ele>
        <time>2015-01-17T08:22:37Z</time>
      </trkpt>
      <trkpt lat="42.413027000" lon="-2.609070000">
        <ele>582.90</ele>
        <time>2015-01-17T08:22:38Z</time>
      </trkpt>
      <trkpt lat="42.413014000" lon="-2.609110000">
        <ele>583.00</ele>
        <time>2015-01-17T08:22:39Z</time>
      </trkpt>
      <trkpt lat="42.413003000" lon="-2.609150000">
        <ele>583.00</ele>
        <time>2015-01-17T08:22:40Z</time>
      </trkpt>
      <trkpt lat="42.412991000" lon="-2.609190000">
        <ele>583.10</ele>
        <time>2015-01-17T08:22:41Z</time>
      </trkpt>
      <trkpt lat="42.412981000" lon="-2.609231000">
        <ele>583.10</ele>
        <time>2015-01-17T08:22:42Z</time>
      </trkpt>
      <trkpt lat="42.412969000" lon="-2.609271000">
        <ele>583.20</ele>
        <time>2015-01-17T08:22:43Z</time>
      </trkpt>
      <trkpt lat="42.412960000" lon="-2.609309000">
        <ele>583.20</ele>
        <time>2015-01-17T08:22:44Z</time>
      </trkpt>
      <trkpt lat="42.412950000" lon="-2.609349000">
        <ele>583.40</ele>
        <time>2015-01-17T08:22:45Z</time>
      </trkpt>
      <trkpt lat="42.412940000" lon="-2.609389000">
        <ele>583.50</ele>
        <time>2015-01-17T08:22:46Z</time>
      </trkpt>
      <trkpt lat="42.412930000" lon="-2.609428000">
        <ele>583.60</ele>
        <time>2015-01-17T08:22:47Z</time>
      </trkpt>
      <trkpt lat="42.412921000" lon="-2.609465000">
        <ele>583.80</ele>
        <time>2015-01-17T08:22:48Z</time>
      </trkpt>
      <trkpt lat="42.412912000" lon="-2.609504000">
        <ele>584.10</ele>
        <time>2015-01-17T08:22:49Z</time>
      </trkpt>
      <trkpt lat="42.412892000" lon="-2.609574000">
        <ele>584.60</ele>
        <time>2015-01-17T08:22:51Z</time>
      </trkpt>
      <trkpt lat="42.412881000" lon="-2.609609000">
        <ele>584.80</ele>
        <time>2015-01-17T08:22:52Z</time>
      </trkpt>
      <trkpt lat="42.412871000" lon="-2.609644000">
        <ele>584.80</ele>
        <time>2015-01-17T08:22:53Z</time>
      </trkpt>
      <trkpt lat="42.412859000" lon="-2.609684000">
        <ele>584.90</ele>
        <time>2015-01-17T08:22:54Z</time>
      </trkpt>
      <trkpt lat="42.412850000" lon="-2.609722000">
        <ele>584.90</ele>
        <time>2015-01-17T08:22:55Z</time>
      </trkpt>
      <trkpt lat="42.412842000" lon="-2.609758000">
        <ele>584.90</ele>
        <time>2015-01-17T08:22:56Z</time>
      </trkpt>
      <trkpt lat="42.412834000" lon="-2.609795000">
        <ele>584.90</ele>
        <time>2015-01-17T08:22:57Z</time>
      </trkpt>
      <trkpt lat="42.412822000" lon="-2.609830000">
        <ele>585.00</ele>
        <time>2015-01-17T08:22:58Z</time>
      </trkpt>
      <trkpt lat="42.412814000" lon="-2.609866000">
        <ele>585.10</ele>
        <time>2015-01-17T08:22:59Z</time>
      </trkpt>
      <trkpt lat="42.412808000" lon="-2.609903000">
        <ele>585.20</ele>
        <time>2015-01-17T08:23:00Z</time>
      </trkpt>
      <trkpt lat="42.412802000" lon="-2.609937000">
        <ele>585.40</ele>
        <time>2015-01-17T08:23:01Z</time>
      </trkpt>
      <trkpt lat="42.412795000" lon="-2.609972000">
        <ele>585.50</ele>
        <time>2015-01-17T08:23:02Z</time>
      </trkpt>
      <trkpt lat="42.412785000" lon="-2.610006000">
        <ele>585.70</ele>
        <time>2015-01-17T08:23:03Z</time>
      </trkpt>
      <trkpt lat="42.412775000" lon="-2.610039000">
        <ele>585.90</ele>
        <time>2015-01-17T08:23:04Z</time>
      </trkpt>
      <trkpt lat="42.412766000" lon="-2.610070000">
        <ele>586.00</ele>
        <time>2015-01-17T08:23:05Z</time>
      </trkpt>
      <trkpt lat="42.412759000" lon="-2.610103000">
        <ele>586.10</ele>
        <time>2015-01-17T08:23:06Z</time>
      </trkpt>
      <trkpt lat="42.412752000" lon="-2.610137000">
        <ele>586.20</ele>
        <time>2015-01-17T08:23:07Z</time>
      </trkpt>
      <trkpt lat="42.412746000" lon="-2.610171000">
        <ele>586.20</ele>
        <time>2015-01-17T08:23:08Z</time>
      </trkpt>
      <trkpt lat="42.412737000" lon="-2.610202000">
        <ele>586.30</ele>
        <time>2015-01-17T08:23:09Z</time>
      </trkpt>
      <trkpt lat="42.412729000" lon="-2.610235000">
        <ele>586.30</ele>
        <time>2015-01-17T08:23:10Z</time>
      </trkpt>
      <trkpt lat="42.412722000" lon="-2.610270000">
        <ele>586.40</ele>
        <time>2015-01-17T08:23:11Z</time>
      </trkpt>
      <trkpt lat="42.412713000" lon="-2.610304000">
        <ele>586.40</ele>
        <time>2015-01-17T08:23:12Z</time>
      </trkpt>
      <trkpt lat="42.412706000" lon="-2.610339000">
        <ele>586.50</ele>
        <time>2015-01-17T08:23:13Z</time>
      </trkpt>
      <trkpt lat="42.412698000" lon="-2.610376000">
        <ele>586.60</ele>
        <time>2015-01-17T08:23:14Z</time>
      </trkpt>
      <trkpt lat="42.412690000" lon="-2.610412000">
        <ele>586.90</ele>
        <time>2015-01-17T08:23:15Z</time>
      </trkpt>
      <trkpt lat="42.412680000" lon="-2.610445000">
        <ele>587.20</ele>
        <time>2015-01-17T08:23:16Z</time>
      </trkpt>
      <trkpt lat="42.412674000" lon="-2.610478000">
        <ele>587.50</ele>
        <time>2015-01-17T08:23:17Z</time>
      </trkpt>
      <trkpt lat="42.412666000" lon="-2.610512000">
        <ele>587.70</ele>
        <time>2015-01-17T08:23:18Z</time>
      </trkpt>
      <trkpt lat="42.412657000" lon="-2.610547000">
        <ele>587.90</ele>
        <time>2015-01-17T08:23:19Z</time>
      </trkpt>
      <trkpt lat="42.412645000" lon="-2.610583000">
        <ele>588.00</ele>
        <time>2015-01-17T08:23:20Z</time>
      </trkpt>
      <trkpt lat="42.412635000" lon="-2.610620000">
        <ele>588.20</ele>
        <time>2015-01-17T08:23:21Z</time>
      </trkpt>
      <trkpt lat="42.412624000" lon="-2.610656000">
        <ele>588.40</ele>
        <time>2015-01-17T08:23:22Z</time>
      </trkpt>
      <trkpt lat="42.412615000" lon="-2.610694000">
        <ele>588.50</ele>
        <time>2015-01-17T08:23:23Z</time>
      </trkpt>
      <trkpt lat="42.412607000" lon="-2.610733000">
        <ele>588.60</ele>
        <time>2015-01-17T08:23:24Z</time>
      </trkpt>
      <trkpt lat="42.412596000" lon="-2.610774000">
        <ele>588.80</ele>
        <time>2015-01-17T08:23:25Z</time>
      </trkpt>
      <trkpt lat="42.412585000" lon="-2.610815000">
        <ele>589.00</ele>
        <time>2015-01-17T08:23:26Z</time>
      </trkpt>
      <trkpt lat="42.412575000" lon="-2.610855000">
        <ele>589.10</ele>
        <time>2015-01-17T08:23:27Z</time>
      </trkpt>
      <trkpt lat="42.412570000" lon="-2.610898000">
        <ele>589.20</ele>
        <time>2015-01-17T08:23:28Z</time>
      </trkpt>
      <trkpt lat="42.412562000" lon="-2.610940000">
        <ele>589.20</ele>
        <time>2015-01-17T08:23:29Z</time>
      </trkpt>
      <trkpt lat="42.412554000" lon="-2.610980000">
        <ele>589.30</ele>
        <time>2015-01-17T08:23:30Z</time>
      </trkpt>
      <trkpt lat="42.412546000" lon="-2.611021000">
        <ele>589.30</ele>
        <time>2015-01-17T08:23:31Z</time>
      </trkpt>
      <trkpt lat="42.412538000" lon="-2.611058000">
        <ele>589.40</ele>
        <time>2015-01-17T08:23:32Z</time>
      </trkpt>
      <trkpt lat="42.412530000" lon="-2.611098000">
        <ele>589.50</ele>
        <time>2015-01-17T08:23:33Z</time>
      </trkpt>
      <trkpt lat="42.412523000" lon="-2.611137000">
        <ele>589.60</ele>
        <time>2015-01-17T08:23:34Z</time>
      </trkpt>
      <trkpt lat="42.412514000" lon="-2.611176000">
        <ele>589.70</ele>
        <time>2015-01-17T08:23:35Z</time>
      </trkpt>
      <trkpt lat="42.412504000" lon="-2.611218000">
        <ele>589.80</ele>
        <time>2015-01-17T08:23:36Z</time>
      </trkpt>
      <trkpt lat="42.412497000" lon="-2.611262000">
        <ele>589.70</ele>
        <time>2015-01-17T08:23:37Z</time>
      </trkpt>
      <trkpt lat="42.412491000" lon="-2.611304000">
        <ele>589.60</ele>
        <time>2015-01-17T08:23:38Z</time>
      </trkpt>
      <trkpt lat="42.412483000" lon="-2.611344000">
        <ele>589.60</ele>
        <time>2015-01-17T08:23:39Z</time>
      </trkpt>
      <trkpt lat="42.412474000" lon="-2.611384000">
        <ele>589.50</ele>
        <time>2015-01-17T08:23:40Z</time>
      </trkpt>
      <trkpt lat="42.412469000" lon="-2.611424000">
        <ele>589.60</ele>
        <time>2015-01-17T08:23:41Z</time>
      </trkpt>
      <trkpt lat="42.412464000" lon="-2.611466000">
        <ele>589.60</ele>
        <time>2015-01-17T08:23:42Z</time>
      </trkpt>
      <trkpt lat="42.412457000" lon="-2.611507000">
        <ele>589.60</ele>
        <time>2015-01-17T08:23:43Z</time>
      </trkpt>
      <trkpt lat="42.412450000" lon="-2.611547000">
        <ele>589.60</ele>
        <time>2015-01-17T08:23:44Z</time>
      </trkpt>
      <trkpt lat="42.412440000" lon="-2.611587000">
        <ele>589.70</ele>
        <time>2015-01-17T08:23:45Z</time>
      </trkpt>
      <trkpt lat="42.412433000" lon="-2.611628000">
        <ele>589.70</ele>
        <time>2015-01-17T08:23:46Z</time>
      </trkpt>
      <trkpt lat="42.412428000" lon="-2.611665000">
        <ele>589.90</ele>
        <time>2015-01-17T08:23:47Z</time>
      </trkpt>
      <trkpt lat="42.412423000" lon="-2.611705000">
        <ele>590.00</ele>
        <time>2015-01-17T08:23:48Z</time>
      </trkpt>
      <trkpt lat="42.412419000" lon="-2.611747000">
        <ele>590.20</ele>
        <time>2015-01-17T08:23:49Z</time>
      </trkpt>
      <trkpt lat="42.412416000" lon="-2.611790000">
        <ele>590.30</ele>
        <time>2015-01-17T08:23:50Z</time>
      </trkpt>
      <trkpt lat="42.412401000" lon="-2.611869000">
        <ele>590.40</ele>
        <time>2015-01-17T08:23:52Z</time>
      </trkpt>
      <trkpt lat="42.412395000" lon="-2.611909000">
        <ele>590.40</ele>
        <time>2015-01-17T08:23:53Z</time>
      </trkpt>
      <trkpt lat="42.412388000" lon="-2.611950000">
        <ele>590.40</ele>
        <time>2015-01-17T08:23:54Z</time>
      </trkpt>
      <trkpt lat="42.412380000" lon="-2.611990000">
        <ele>590.50</ele>
        <time>2015-01-17T08:23:55Z</time>
      </trkpt>
      <trkpt lat="42.412373000" lon="-2.612030000">
        <ele>590.50</ele>
        <time>2015-01-17T08:23:56Z</time>
      </trkpt>
      <trkpt lat="42.412369000" lon="-2.612071000">
        <ele>590.50</ele>
        <time>2015-01-17T08:23:57Z</time>
      </trkpt>
      <trkpt lat="42.412364000" lon="-2.612111000">
        <ele>590.60</ele>
        <time>2015-01-17T08:23:58Z</time>
      </trkpt>
      <trkpt lat="42.412357000" lon="-2.612152000">
        <ele>590.60</ele>
        <time>2015-01-17T08:23:59Z</time>
      </trkpt>
      <trkpt lat="42.412352000" lon="-2.612193000">
        <ele>590.70</ele>
        <time>2015-01-17T08:24:00Z</time>
      </trkpt>
      <trkpt lat="42.412348000" lon="-2.612234000">
        <ele>590.70</ele>
        <time>2015-01-17T08:24:01Z</time>
      </trkpt>
      <trkpt lat="42.412341000" lon="-2.612273000">
        <ele>590.70</ele>
        <time>2015-01-17T08:24:02Z</time>
      </trkpt>
      <trkpt lat="42.412336000" lon="-2.612313000">
        <ele>590.80</ele>
        <time>2015-01-17T08:24:03Z</time>
      </trkpt>
      <trkpt lat="42.412332000" lon="-2.612354000">
        <ele>590.80</ele>
        <time>2015-01-17T08:24:04Z</time>
      </trkpt>
      <trkpt lat="42.412328000" lon="-2.612395000">
        <ele>591.10</ele>
        <time>2015-01-17T08:24:05Z</time>
      </trkpt>
      <trkpt lat="42.412323000" lon="-2.612434000">
        <ele>591.20</ele>
        <time>2015-01-17T08:24:06Z</time>
      </trkpt>
      <trkpt lat="42.412316000" lon="-2.612475000">
        <ele>591.40</ele>
        <time>2015-01-17T08:24:07Z</time>
      </trkpt>
      <trkpt lat="42.412311000" lon="-2.612512000">
        <ele>591.50</ele>
        <time>2015-01-17T08:24:08Z</time>
      </trkpt>
      <trkpt lat="42.412305000" lon="-2.612549000">
        <ele>591.70</ele>
        <time>2015-01-17T08:24:09Z</time>
      </trkpt>
      <trkpt lat="42.412301000" lon="-2.612583000">
        <ele>591.80</ele>
        <time>2015-01-17T08:24:10Z</time>
      </trkpt>
      <trkpt lat="42.412295000" lon="-2.612616000">
        <ele>591.90</ele>
        <time>2015-01-17T08:24:11Z</time>
      </trkpt>
      <trkpt lat="42.412293000" lon="-2.612653000">
        <ele>592.00</ele>
        <time>2015-01-17T08:24:12Z</time>
      </trkpt>
      <trkpt lat="42.412288000" lon="-2.612689000">
        <ele>592.10</ele>
        <time>2015-01-17T08:24:13Z</time>
      </trkpt>
      <trkpt lat="42.412284000" lon="-2.612726000">
        <ele>592.10</ele>
        <time>2015-01-17T08:24:14Z</time>
      </trkpt>
      <trkpt lat="42.412282000" lon="-2.612765000">
        <ele>592.10</ele>
        <time>2015-01-17T08:24:15Z</time>
      </trkpt>
      <trkpt lat="42.412281000" lon="-2.612803000">
        <ele>592.20</ele>
        <time>2015-01-17T08:24:16Z</time>
      </trkpt>
      <trkpt lat="42.412281000" lon="-2.612839000">
        <ele>592.20</ele>
        <time>2015-01-17T08:24:17Z</time>
      </trkpt>
      <trkpt lat="42.412278000" lon="-2.612877000">
        <ele>592.20</ele>
        <time>2015-01-17T08:24:18Z</time>
      </trkpt>
      <trkpt lat="42.412273000" lon="-2.612913000">
        <ele>592.30</ele>
        <time>2015-01-17T08:24:19Z</time>
      </trkpt>
      <trkpt lat="42.412270000" lon="-2.612945000">
        <ele>592.40</ele>
        <time>2015-01-17T08:24:20Z</time>
      </trkpt>
      <trkpt lat="42.412268000" lon="-2.612980000">
        <ele>592.50</ele>
        <time>2015-01-17T08:24:21Z</time>
      </trkpt>
      <trkpt lat="42.412265000" lon="-2.613014000">
        <ele>592.50</ele>
        <time>2015-01-17T08:24:22Z</time>
      </trkpt>
      <trkpt lat="42.412262000" lon="-2.613050000">
        <ele>592.80</ele>
        <time>2015-01-17T08:24:23Z</time>
      </trkpt>
      <trkpt lat="42.412260000" lon="-2.613088000">
        <ele>592.90</ele>
        <time>2015-01-17T08:24:24Z</time>
      </trkpt>
      <trkpt lat="42.412258000" lon="-2.613123000">
        <ele>593.10</ele>
        <time>2015-01-17T08:24:25Z</time>
      </trkpt>
      <trkpt lat="42.412255000" lon="-2.613158000">
        <ele>593.20</ele>
        <time>2015-01-17T08:24:26Z</time>
      </trkpt>
      <trkpt lat="42.412254000" lon="-2.613195000">
        <ele>593.20</ele>
        <time>2015-01-17T08:24:27Z</time>
      </trkpt>
      <trkpt lat="42.412250000" lon="-2.613235000">
        <ele>593.20</ele>
        <time>2015-01-17T08:24:28Z</time>
      </trkpt>
      <trkpt lat="42.412246000" lon="-2.613273000">
        <ele>593.20</ele>
        <time>2015-01-17T08:24:29Z</time>
      </trkpt>
      <trkpt lat="42.412244000" lon="-2.613309000">
        <ele>593.20</ele>
        <time>2015-01-17T08:24:30Z</time>
      </trkpt>
      <trkpt lat="42.412243000" lon="-2.613346000">
        <ele>593.30</ele>
        <time>2015-01-17T08:24:31Z</time>
      </trkpt>
      <trkpt lat="42.412241000" lon="-2.613383000">
        <ele>593.30</ele>
        <time>2015-01-17T08:24:32Z</time>
      </trkpt>
      <trkpt lat="42.412240000" lon="-2.613418000">
        <ele>593.30</ele>
        <time>2015-01-17T08:24:33Z</time>
      </trkpt>
      <trkpt lat="42.412235000" lon="-2.613455000">
        <ele>593.40</ele>
        <time>2015-01-17T08:24:34Z</time>
      </trkpt>
      <trkpt lat="42.412230000" lon="-2.613492000">
        <ele>593.50</ele>
        <time>2015-01-17T08:24:35Z</time>
      </trkpt>
      <trkpt lat="42.412227000" lon="-2.613527000">
        <ele>593.60</ele>
        <time>2015-01-17T08:24:36Z</time>
      </trkpt>
      <trkpt lat="42.412224000" lon="-2.613563000">
        <ele>593.70</ele>
        <time>2015-01-17T08:24:37Z</time>
      </trkpt>
      <trkpt lat="42.412225000" lon="-2.613601000">
        <ele>593.80</ele>
        <time>2015-01-17T08:24:38Z</time>
      </trkpt>
      <trkpt lat="42.412225000" lon="-2.613635000">
        <ele>593.80</ele>
        <time>2015-01-17T08:24:39Z</time>
      </trkpt>
      <trkpt lat="42.412224000" lon="-2.613666000">
        <ele>593.90</ele>
        <time>2015-01-17T08:24:40Z</time>
      </trkpt>
      <trkpt lat="42.412226000" lon="-2.613694000">
        <ele>593.90</ele>
        <time>2015-01-17T08:24:41Z</time>
      </trkpt>
      <trkpt lat="42.412224000" lon="-2.613725000">
        <ele>593.90</ele>
        <time>2015-01-17T08:24:42Z</time>
      </trkpt>
      <trkpt lat="42.412223000" lon="-2.613759000">
        <ele>593.90</ele>
        <time>2015-01-17T08:24:43Z</time>
      </trkpt>
      <trkpt lat="42.412226000" lon="-2.613795000">
        <ele>593.90</ele>
        <time>2015-01-17T08:24:44Z</time>
      </trkpt>
      <trkpt lat="42.412226000" lon="-2.613831000">
        <ele>594.10</ele>
        <time>2015-01-17T08:24:45Z</time>
      </trkpt>
      <trkpt lat="42.412224000" lon="-2.613868000">
        <ele>594.20</ele>
        <time>2015-01-17T08:24:46Z</time>
      </trkpt>
      <trkpt lat="42.412223000" lon="-2.613904000">
        <ele>594.30</ele>
        <time>2015-01-17T08:24:47Z</time>
      </trkpt>
      <trkpt lat="42.412221000" lon="-2.613941000">
        <ele>594.30</ele>
        <time>2015-01-17T08:24:48Z</time>
      </trkpt>
      <trkpt lat="42.412218000" lon="-2.613975000">
        <ele>594.40</ele>
        <time>2015-01-17T08:24:49Z</time>
      </trkpt>
      <trkpt lat="42.412216000" lon="-2.614009000">
        <ele>594.50</ele>
        <time>2015-01-17T08:24:50Z</time>
      </trkpt>
      <trkpt lat="42.412213000" lon="-2.614040000">
        <ele>594.80</ele>
        <time>2015-01-17T08:24:51Z</time>
      </trkpt>
      <trkpt lat="42.412190000" lon="-2.614094000">
        <ele>595.10</ele>
        <time>2015-01-17T08:24:53Z</time>
      </trkpt>
      <trkpt lat="42.412176000" lon="-2.614116000">
        <ele>595.20</ele>
        <time>2015-01-17T08:24:54Z</time>
      </trkpt>
      <trkpt lat="42.412159000" lon="-2.614129000">
        <ele>595.20</ele>
        <time>2015-01-17T08:24:55Z</time>
      </trkpt>
      <trkpt lat="42.412139000" lon="-2.614134000">
        <ele>595.30</ele>
        <time>2015-01-17T08:24:56Z</time>
      </trkpt>
      <trkpt lat="42.412119000" lon="-2.614130000">
        <ele>595.40</ele>
        <time>2015-01-17T08:24:57Z</time>
      </trkpt>
      <trkpt lat="42.412097000" lon="-2.614128000">
        <ele>595.50</ele>
        <time>2015-01-17T08:24:58Z</time>
      </trkpt>
      <trkpt lat="42.412072000" lon="-2.614131000">
        <ele>595.70</ele>
        <time>2015-01-17T08:24:59Z</time>
      </trkpt>
      <trkpt lat="42.412050000" lon="-2.614133000">
        <ele>595.90</ele>
        <time>2015-01-17T08:25:00Z</time>
      </trkpt>
      <trkpt lat="42.412028000" lon="-2.614130000">
        <ele>596.20</ele>
        <time>2015-01-17T08:25:01Z</time>
      </trkpt>
      <trkpt lat="42.412004000" lon="-2.614127000">
        <ele>596.30</ele>
        <time>2015-01-17T08:25:02Z</time>
      </trkpt>
      <trkpt lat="42.411980000" lon="-2.614123000">
        <ele>596.40</ele>
        <time>2015-01-17T08:25:03Z</time>
      </trkpt>
      <trkpt lat="42.411956000" lon="-2.614123000">
        <ele>596.50</ele>
        <time>2015-01-17T08:25:04Z</time>
      </trkpt>
      <trkpt lat="42.411930000" lon="-2.614125000">
        <ele>596.60</ele>
        <time>2015-01-17T08:25:05Z</time>
      </trkpt>
      <trkpt lat="42.411905000" lon="-2.614129000">
        <ele>596.70</ele>
        <time>2015-01-17T08:25:06Z</time>
      </trkpt>
      <trkpt lat="42.411878000" lon="-2.614133000">
        <ele>596.80</ele>
        <time>2015-01-17T08:25:07Z</time>
      </trkpt>
      <trkpt lat="42.411854000" lon="-2.614133000">
        <ele>596.80</ele>
        <time>2015-01-17T08:25:08Z</time>
      </trkpt>
      <trkpt lat="42.411829000" lon="-2.614135000">
        <ele>596.80</ele>
        <time>2015-01-17T08:25:09Z</time>
      </trkpt>
      <trkpt lat="42.411803000" lon="-2.614137000">
        <ele>596.80</ele>
        <time>2015-01-17T08:25:10Z</time>
      </trkpt>
      <trkpt lat="42.411777000" lon="-2.614145000">
        <ele>596.80</ele>
        <time>2015-01-17T08:25:11Z</time>
      </trkpt>
      <trkpt lat="42.411752000" lon="-2.614151000">
        <ele>596.80</ele>
        <time>2015-01-17T08:25:12Z</time>
      </trkpt>
      <trkpt lat="42.411729000" lon="-2.614157000">
        <ele>596.80</ele>
        <time>2015-01-17T08:25:13Z</time>
      </trkpt>
      <trkpt lat="42.411704000" lon="-2.614163000">
        <ele>596.90</ele>
        <time>2015-01-17T08:25:14Z</time>
      </trkpt>
      <trkpt lat="42.411681000" lon="-2.614167000">
        <ele>596.90</ele>
        <time>2015-01-17T08:25:15Z</time>
      </trkpt>
      <trkpt lat="42.411656000" lon="-2.614170000">
        <ele>597.00</ele>
        <time>2015-01-17T08:25:16Z</time>
      </trkpt>
      <trkpt lat="42.411632000" lon="-2.614176000">
        <ele>597.00</ele>
        <time>2015-01-17T08:25:17Z</time>
      </trkpt>
      <trkpt lat="42.411609000" lon="-2.614186000">
        <ele>597.00</ele>
        <time>2015-01-17T08:25:18Z</time>
      </trkpt>
      <trkpt lat="42.411588000" lon="-2.614198000">
        <ele>597.10</ele>
        <time>2015-01-17T08:25:19Z</time>
      </trkpt>
      <trkpt lat="42.411564000" lon="-2.614214000">
        <ele>597.20</ele>
        <time>2015-01-17T08:25:20Z</time>
      </trkpt>
      <trkpt lat="42.411541000" lon="-2.614231000">
        <ele>597.30</ele>
        <time>2015-01-17T08:25:21Z</time>
      </trkpt>
      <trkpt lat="42.411522000" lon="-2.614254000">
        <ele>597.40</ele>
        <time>2015-01-17T08:25:22Z</time>
      </trkpt>
      <trkpt lat="42.411502000" lon="-2.614281000">
        <ele>597.40</ele>
        <time>2015-01-17T08:25:23Z</time>
      </trkpt>
      <trkpt lat="42.411484000" lon="-2.614308000">
        <ele>597.50</ele>
        <time>2015-01-17T08:25:24Z</time>
      </trkpt>
      <trkpt lat="42.411469000" lon="-2.614339000">
        <ele>597.50</ele>
        <time>2015-01-17T08:25:25Z</time>
      </trkpt>
      <trkpt lat="42.411455000" lon="-2.614368000">
        <ele>597.50</ele>
        <time>2015-01-17T08:25:26Z</time>
      </trkpt>
      <trkpt lat="42.411444000" lon="-2.614395000">
        <ele>597.50</ele>
        <time>2015-01-17T08:25:27Z</time>
      </trkpt>
      <trkpt lat="42.411435000" lon="-2.614428000">
        <ele>597.50</ele>
        <time>2015-01-17T08:25:28Z</time>
      </trkpt>
      <trkpt lat="42.411427000" lon="-2.614460000">
        <ele>597.50</ele>
        <time>2015-01-17T08:25:29Z</time>
      </trkpt>
      <trkpt lat="42.411420000" lon="-2.614493000">
        <ele>597.40</ele>
        <time>2015-01-17T08:25:30Z</time>
      </trkpt>
      <trkpt lat="42.411415000" lon="-2.614527000">
        <ele>597.40</ele>
        <time>2015-01-17T08:25:31Z</time>
      </trkpt>
      <trkpt lat="42.411410000" lon="-2.614562000">
        <ele>597.40</ele>
        <time>2015-01-17T08:25:32Z</time>
      </trkpt>
      <trkpt lat="42.411401000" lon="-2.614596000">
        <ele>597.50</ele>
        <time>2015-01-17T08:25:33Z</time>
      </trkpt>
      <trkpt lat="42.411395000" lon="-2.614627000">
        <ele>597.60</ele>
        <time>2015-01-17T08:25:34Z</time>
      </trkpt>
      <trkpt lat="42.411389000" lon="-2.614658000">
        <ele>597.70</ele>
        <time>2015-01-17T08:25:35Z</time>
      </trkpt>
      <trkpt lat="42.411383000" lon="-2.614691000">
        <ele>597.80</ele>
        <time>2015-01-17T08:25:36Z</time>
      </trkpt>
      <trkpt lat="42.411374000" lon="-2.614722000">
        <ele>598.00</ele>
        <time>2015-01-17T08:25:37Z</time>
      </trkpt>
      <trkpt lat="42.411368000" lon="-2.614755000">
        <ele>598.10</ele>
        <time>2015-01-17T08:25:38Z</time>
      </trkpt>
      <trkpt lat="42.411358000" lon="-2.614785000">
        <ele>598.50</ele>
        <time>2015-01-17T08:25:39Z</time>
      </trkpt>
      <trkpt lat="42.411348000" lon="-2.614819000">
        <ele>598.80</ele>
        <time>2015-01-17T08:25:40Z</time>
      </trkpt>
      <trkpt lat="42.411337000" lon="-2.614853000">
        <ele>599.00</ele>
        <time>2015-01-17T08:25:41Z</time>
      </trkpt>
      <trkpt lat="42.411328000" lon="-2.614885000">
        <ele>599.20</ele>
        <time>2015-01-17T08:25:42Z</time>
      </trkpt>
      <trkpt lat="42.411320000" lon="-2.614914000">
        <ele>599.40</ele>
        <time>2015-01-17T08:25:43Z</time>
      </trkpt>
      <trkpt lat="42.411310000" lon="-2.614943000">
        <ele>599.50</ele>
        <time>2015-01-17T08:25:44Z</time>
      </trkpt>
      <trkpt lat="42.411299000" lon="-2.614970000">
        <ele>599.70</ele>
        <time>2015-01-17T08:25:45Z</time>
      </trkpt>
      <trkpt lat="42.411289000" lon="-2.614999000">
        <ele>599.90</ele>
        <time>2015-01-17T08:25:46Z</time>
      </trkpt>
      <trkpt lat="42.411277000" lon="-2.615032000">
        <ele>599.80</ele>
        <time>2015-01-17T08:25:47Z</time>
      </trkpt>
      <trkpt lat="42.411263000" lon="-2.615062000">
        <ele>599.70</ele>
        <time>2015-01-17T08:25:48Z</time>
      </trkpt>
      <trkpt lat="42.411250000" lon="-2.615094000">
        <ele>599.80</ele>
        <time>2015-01-17T08:25:49Z</time>
      </trkpt>
      <trkpt lat="42.411238000" lon="-2.615125000">
        <ele>599.90</ele>
        <time>2015-01-17T08:25:50Z</time>
      </trkpt>
      <trkpt lat="42.411226000" lon="-2.615154000">
        <ele>600.00</ele>
        <time>2015-01-17T08:25:51Z</time>
      </trkpt>
      <trkpt lat="42.411219000" lon="-2.615182000">
        <ele>600.00</ele>
        <time>2015-01-17T08:25:52Z</time>
      </trkpt>
      <trkpt lat="42.411199000" lon="-2.615236000">
        <ele>600.30</ele>
        <time>2015-01-17T08:25:54Z</time>
      </trkpt>
      <trkpt lat="42.411187000" lon="-2.615263000">
        <ele>600.50</ele>
        <time>2015-01-17T08:25:55Z</time>
      </trkpt>
      <trkpt lat="42.411177000" lon="-2.615296000">
        <ele>600.50</ele>
        <time>2015-01-17T08:25:56Z</time>
      </trkpt>
      <trkpt lat="42.411166000" lon="-2.615322000">
        <ele>600.80</ele>
        <time>2015-01-17T08:25:57Z</time>
      </trkpt>
      <trkpt lat="42.411154000" lon="-2.615352000">
        <ele>600.90</ele>
        <time>2015-01-17T08:25:58Z</time>
      </trkpt>
      <trkpt lat="42.411143000" lon="-2.615385000">
        <ele>601.10</ele>
        <time>2015-01-17T08:25:59Z</time>
      </trkpt>
      <trkpt lat="42.411130000" lon="-2.615419000">
        <ele>601.10</ele>
        <time>2015-01-17T08:26:00Z</time>
      </trkpt>
      <trkpt lat="42.411118000" lon="-2.615451000">
        <ele>601.30</ele>
        <time>2015-01-17T08:26:01Z</time>
      </trkpt>
      <trkpt lat="42.411107000" lon="-2.615485000">
        <ele>601.30</ele>
        <time>2015-01-17T08:26:02Z</time>
      </trkpt>
      <trkpt lat="42.411096000" lon="-2.615519000">
        <ele>601.50</ele>
        <time>2015-01-17T08:26:03Z</time>
      </trkpt>
      <trkpt lat="42.411080000" lon="-2.615551000">
        <ele>601.60</ele>
        <time>2015-01-17T08:26:04Z</time>
      </trkpt>
      <trkpt lat="42.411068000" lon="-2.615582000">
        <ele>601.70</ele>
        <time>2015-01-17T08:26:05Z</time>
      </trkpt>
      <trkpt lat="42.411057000" lon="-2.615616000">
        <ele>601.80</ele>
        <time>2015-01-17T08:26:06Z</time>
      </trkpt>
      <trkpt lat="42.411045000" lon="-2.615652000">
        <ele>601.90</ele>
        <time>2015-01-17T08:26:07Z</time>
      </trkpt>
      <trkpt lat="42.411034000" lon="-2.615687000">
        <ele>601.90</ele>
        <time>2015-01-17T08:26:08Z</time>
      </trkpt>
      <trkpt lat="42.411025000" lon="-2.615723000">
        <ele>602.00</ele>
        <time>2015-01-17T08:26:09Z</time>
      </trkpt>
      <trkpt lat="42.411013000" lon="-2.615760000">
        <ele>602.00</ele>
        <time>2015-01-17T08:26:10Z</time>
      </trkpt>
      <trkpt lat="42.411000000" lon="-2.615793000">
        <ele>602.20</ele>
        <time>2015-01-17T08:26:11Z</time>
      </trkpt>
      <trkpt lat="42.410985000" lon="-2.615826000">
        <ele>602.30</ele>
        <time>2015-01-17T08:26:12Z</time>
      </trkpt>
      <trkpt lat="42.410969000" lon="-2.615858000">
        <ele>602.50</ele>
        <time>2015-01-17T08:26:13Z</time>
      </trkpt>
      <trkpt lat="42.410958000" lon="-2.615888000">
        <ele>602.70</ele>
        <time>2015-01-17T08:26:14Z</time>
      </trkpt>
      <trkpt lat="42.410943000" lon="-2.615918000">
        <ele>602.80</ele>
        <time>2015-01-17T08:26:15Z</time>
      </trkpt>
      <trkpt lat="42.410925000" lon="-2.615948000">
        <ele>602.90</ele>
        <time>2015-01-17T08:26:16Z</time>
      </trkpt>
      <trkpt lat="42.410907000" lon="-2.615978000">
        <ele>603.00</ele>
        <time>2015-01-17T08:26:17Z</time>
      </trkpt>
      <trkpt lat="42.410892000" lon="-2.616010000">
        <ele>603.00</ele>
        <time>2015-01-17T08:26:18Z</time>
      </trkpt>
      <trkpt lat="42.410876000" lon="-2.616038000">
        <ele>603.10</ele>
        <time>2015-01-17T08:26:19Z</time>
      </trkpt>
      <trkpt lat="42.410859000" lon="-2.616069000">
        <ele>603.10</ele>
        <time>2015-01-17T08:26:20Z</time>
      </trkpt>
      <trkpt lat="42.410845000" lon="-2.616095000">
        <ele>603.10</ele>
        <time>2015-01-17T08:26:21Z</time>
      </trkpt>
      <trkpt lat="42.410832000" lon="-2.616126000">
        <ele>603.10</ele>
        <time>2015-01-17T08:26:22Z</time>
      </trkpt>
      <trkpt lat="42.410814000" lon="-2.616151000">
        <ele>603.10</ele>
        <time>2015-01-17T08:26:23Z</time>
      </trkpt>
      <trkpt lat="42.410797000" lon="-2.616179000">
        <ele>603.10</ele>
        <time>2015-01-17T08:26:24Z</time>
      </trkpt>
      <trkpt lat="42.410780000" lon="-2.616207000">
        <ele>603.30</ele>
        <time>2015-01-17T08:26:25Z</time>
      </trkpt>
      <trkpt lat="42.410760000" lon="-2.616239000">
        <ele>603.40</ele>
        <time>2015-01-17T08:26:26Z</time>
      </trkpt>
      <trkpt lat="42.410743000" lon="-2.616270000">
        <ele>603.60</ele>
        <time>2015-01-17T08:26:27Z</time>
      </trkpt>
      <trkpt lat="42.410724000" lon="-2.616300000">
        <ele>603.70</ele>
        <time>2015-01-17T08:26:28Z</time>
      </trkpt>
      <trkpt lat="42.410704000" lon="-2.616327000">
        <ele>603.90</ele>
        <time>2015-01-17T08:26:29Z</time>
      </trkpt>
      <trkpt lat="42.410684000" lon="-2.616361000">
        <ele>604.00</ele>
        <time>2015-01-17T08:26:30Z</time>
      </trkpt>
      <trkpt lat="42.410668000" lon="-2.616395000">
        <ele>604.00</ele>
        <time>2015-01-17T08:26:31Z</time>
      </trkpt>
      <trkpt lat="42.410650000" lon="-2.616428000">
        <ele>604.10</ele>
        <time>2015-01-17T08:26:32Z</time>
      </trkpt>
      <trkpt lat="42.410629000" lon="-2.616459000">
        <ele>604.20</ele>
        <time>2015-01-17T08:26:33Z</time>
      </trkpt>
      <trkpt lat="42.410612000" lon="-2.616492000">
        <ele>604.20</ele>
        <time>2015-01-17T08:26:34Z</time>
      </trkpt>
      <trkpt lat="42.410594000" lon="-2.616525000">
        <ele>604.30</ele>
        <time>2015-01-17T08:26:35Z</time>
      </trkpt>
      <trkpt lat="42.410574000" lon="-2.616557000">
        <ele>604.40</ele>
        <time>2015-01-17T08:26:36Z</time>
      </trkpt>
      <trkpt lat="42.410555000" lon="-2.616590000">
        <ele>604.50</ele>
        <time>2015-01-17T08:26:37Z</time>
      </trkpt>
      <trkpt lat="42.410535000" lon="-2.616623000">
        <ele>604.50</ele>
        <time>2015-01-17T08:26:38Z</time>
      </trkpt>
      <trkpt lat="42.410515000" lon="-2.616656000">
        <ele>604.50</ele>
        <time>2015-01-17T08:26:39Z</time>
      </trkpt>
      <trkpt lat="42.410498000" lon="-2.616692000">
        <ele>604.50</ele>
        <time>2015-01-17T08:26:40Z</time>
      </trkpt>
      <trkpt lat="42.410479000" lon="-2.616726000">
        <ele>604.40</ele>
        <time>2015-01-17T08:26:41Z</time>
      </trkpt>
      <trkpt lat="42.410458000" lon="-2.616760000">
        <ele>604.40</ele>
        <time>2015-01-17T08:26:42Z</time>
      </trkpt>
      <trkpt lat="42.410437000" lon="-2.616793000">
        <ele>604.40</ele>
        <time>2015-01-17T08:26:43Z</time>
      </trkpt>
      <trkpt lat="42.410420000" lon="-2.616826000">
        <ele>604.40</ele>
        <time>2015-01-17T08:26:44Z</time>
      </trkpt>
      <trkpt lat="42.410402000" lon="-2.616857000">
        <ele>604.40</ele>
        <time>2015-01-17T08:26:45Z</time>
      </trkpt>
      <trkpt lat="42.410380000" lon="-2.616890000">
        <ele>604.40</ele>
        <time>2015-01-17T08:26:46Z</time>
      </trkpt>
      <trkpt lat="42.410362000" lon="-2.616922000">
        <ele>604.40</ele>
        <time>2015-01-17T08:26:47Z</time>
      </trkpt>
      <trkpt lat="42.410340000" lon="-2.616958000">
        <ele>604.40</ele>
        <time>2015-01-17T08:26:48Z</time>
      </trkpt>
      <trkpt lat="42.410321000" lon="-2.616992000">
        <ele>604.40</ele>
        <time>2015-01-17T08:26:49Z</time>
      </trkpt>
      <trkpt lat="42.410299000" lon="-2.617026000">
        <ele>604.40</ele>
        <time>2015-01-17T08:26:50Z</time>
      </trkpt>
      <trkpt lat="42.410282000" lon="-2.617061000">
        <ele>604.40</ele>
        <time>2015-01-17T08:26:51Z</time>
      </trkpt>
      <trkpt lat="42.410261000" lon="-2.617096000">
        <ele>604.40</ele>
        <time>2015-01-17T08:26:52Z</time>
      </trkpt>
      <trkpt lat="42.410240000" lon="-2.617130000">
        <ele>604.40</ele>
        <time>2015-01-17T08:26:53Z</time>
      </trkpt>
      <trkpt lat="42.410198000" lon="-2.617199000">
        <ele>604.30</ele>
        <time>2015-01-17T08:26:55Z</time>
      </trkpt>
      <trkpt lat="42.410181000" lon="-2.617234000">
        <ele>604.30</ele>
        <time>2015-01-17T08:26:56Z</time>
      </trkpt>
      <trkpt lat="42.410165000" lon="-2.617269000">
        <ele>604.20</ele>
        <time>2015-01-17T08:26:57Z</time>
      </trkpt>
      <trkpt lat="42.410149000" lon="-2.617306000">
        <ele>604.20</ele>
        <time>2015-01-17T08:26:58Z</time>
      </trkpt>
      <trkpt lat="42.410135000" lon="-2.617344000">
        <ele>604.20</ele>
        <time>2015-01-17T08:26:59Z</time>
      </trkpt>
      <trkpt lat="42.410123000" lon="-2.617383000">
        <ele>604.20</ele>
        <time>2015-01-17T08:27:00Z</time>
      </trkpt>
      <trkpt lat="42.410110000" lon="-2.617419000">
        <ele>604.10</ele>
        <time>2015-01-17T08:27:01Z</time>
      </trkpt>
      <trkpt lat="42.410099000" lon="-2.617455000">
        <ele>604.00</ele>
        <time>2015-01-17T08:27:02Z</time>
      </trkpt>
      <trkpt lat="42.410090000" lon="-2.617493000">
        <ele>604.10</ele>
        <time>2015-01-17T08:27:03Z</time>
      </trkpt>
      <trkpt lat="42.410081000" lon="-2.617533000">
        <ele>604.20</ele>
        <time>2015-01-17T08:27:04Z</time>
      </trkpt>
      <trkpt lat="42.410073000" lon="-2.617573000">
        <ele>604.10</ele>
        <time>2015-01-17T08:27:05Z</time>
      </trkpt>
      <trkpt lat="42.410065000" lon="-2.617616000">
        <ele>604.10</ele>
        <time>2015-01-17T08:27:06Z</time>
      </trkpt>
      <trkpt lat="42.410055000" lon="-2.617660000">
        <ele>604.10</ele>
        <time>2015-01-17T08:27:07Z</time>
      </trkpt>
      <trkpt lat="42.410049000" lon="-2.617704000">
        <ele>604.10</ele>
        <time>2015-01-17T08:27:08Z</time>
      </trkpt>
      <trkpt lat="42.410044000" lon="-2.617747000">
        <ele>604.10</ele>
        <time>2015-01-17T08:27:09Z</time>
      </trkpt>
      <trkpt lat="42.410038000" lon="-2.617790000">
        <ele>604.10</ele>
        <time>2015-01-17T08:27:10Z</time>
      </trkpt>
      <trkpt lat="42.410034000" lon="-2.617831000">
        <ele>604.20</ele>
        <time>2015-01-17T08:27:11Z</time>
      </trkpt>
      <trkpt lat="42.410032000" lon="-2.617872000">
        <ele>604.20</ele>
        <time>2015-01-17T08:27:12Z</time>
      </trkpt>
      <trkpt lat="42.410030000" lon="-2.617915000">
        <ele>604.30</ele>
        <time>2015-01-17T08:27:13Z</time>
      </trkpt>
      <trkpt lat="42.410026000" lon="-2.617956000">
        <ele>604.30</ele>
        <time>2015-01-17T08:27:14Z</time>
      </trkpt>
      <trkpt lat="42.410020000" lon="-2.617998000">
        <ele>604.50</ele>
        <time>2015-01-17T08:27:15Z</time>
      </trkpt>
      <trkpt lat="42.410016000" lon="-2.618042000">
        <ele>604.60</ele>
        <time>2015-01-17T08:27:16Z</time>
      </trkpt>
      <trkpt lat="42.410012000" lon="-2.618085000">
        <ele>604.70</ele>
        <time>2015-01-17T08:27:17Z</time>
      </trkpt>
      <trkpt lat="42.410005000" lon="-2.618125000">
        <ele>604.70</ele>
        <time>2015-01-17T08:27:18Z</time>
      </trkpt>
      <trkpt lat="42.409998000" lon="-2.618166000">
        <ele>604.80</ele>
        <time>2015-01-17T08:27:19Z</time>
      </trkpt>
      <trkpt lat="42.409990000" lon="-2.618204000">
        <ele>604.80</ele>
        <time>2015-01-17T08:27:20Z</time>
      </trkpt>
      <trkpt lat="42.409982000" lon="-2.618242000">
        <ele>604.90</ele>
        <time>2015-01-17T08:27:21Z</time>
      </trkpt>
      <trkpt lat="42.409973000" lon="-2.618275000">
        <ele>605.00</ele>
        <time>2015-01-17T08:27:22Z</time>
      </trkpt>
      <trkpt lat="42.409968000" lon="-2.618306000">
        <ele>605.10</ele>
        <time>2015-01-17T08:27:23Z</time>
      </trkpt>
      <trkpt lat="42.409960000" lon="-2.618337000">
        <ele>605.20</ele>
        <time>2015-01-17T08:27:24Z</time>
      </trkpt>
      <trkpt lat="42.409953000" lon="-2.618369000">
        <ele>605.30</ele>
        <time>2015-01-17T08:27:25Z</time>
      </trkpt>
      <trkpt lat="42.409944000" lon="-2.618398000">
        <ele>605.40</ele>
        <time>2015-01-17T08:27:26Z</time>
      </trkpt>
      <trkpt lat="42.409937000" lon="-2.618430000">
        <ele>605.40</ele>
        <time>2015-01-17T08:27:27Z</time>
      </trkpt>
      <trkpt lat="42.409928000" lon="-2.618462000">
        <ele>605.50</ele>
        <time>2015-01-17T08:27:28Z</time>
      </trkpt>
      <trkpt lat="42.409918000" lon="-2.618496000">
        <ele>605.50</ele>
        <time>2015-01-17T08:27:29Z</time>
      </trkpt>
      <trkpt lat="42.409906000" lon="-2.618527000">
        <ele>605.50</ele>
        <time>2015-01-17T08:27:30Z</time>
      </trkpt>
      <trkpt lat="42.409894000" lon="-2.618557000">
        <ele>606.00</ele>
        <time>2015-01-17T08:27:31Z</time>
      </trkpt>
      <trkpt lat="42.409882000" lon="-2.618587000">
        <ele>606.30</ele>
        <time>2015-01-17T08:27:32Z</time>
      </trkpt>
      <trkpt lat="42.409870000" lon="-2.618619000">
        <ele>606.50</ele>
        <time>2015-01-17T08:27:33Z</time>
      </trkpt>
      <trkpt lat="42.409850000" lon="-2.618648000">
        <ele>606.70</ele>
        <time>2015-01-17T08:27:34Z</time>
      </trkpt>
      <trkpt lat="42.409832000" lon="-2.618679000">
        <ele>606.80</ele>
        <time>2015-01-17T08:27:35Z</time>
      </trkpt>
      <trkpt lat="42.409817000" lon="-2.618707000">
        <ele>606.90</ele>
        <time>2015-01-17T08:27:36Z</time>
      </trkpt>
      <trkpt lat="42.409803000" lon="-2.618732000">
        <ele>607.20</ele>
        <time>2015-01-17T08:27:37Z</time>
      </trkpt>
      <trkpt lat="42.409786000" lon="-2.618752000">
        <ele>607.50</ele>
        <time>2015-01-17T08:27:38Z</time>
      </trkpt>
      <trkpt lat="42.409770000" lon="-2.618773000">
        <ele>607.60</ele>
        <time>2015-01-17T08:27:39Z</time>
      </trkpt>
      <trkpt lat="42.409750000" lon="-2.618796000">
        <ele>607.80</ele>
        <time>2015-01-17T08:27:40Z</time>
      </trkpt>
      <trkpt lat="42.409732000" lon="-2.618818000">
        <ele>607.90</ele>
        <time>2015-01-17T08:27:41Z</time>
      </trkpt>
      <trkpt lat="42.409710000" lon="-2.618835000">
        <ele>607.90</ele>
        <time>2015-01-17T08:27:42Z</time>
      </trkpt>
      <trkpt lat="42.409684000" lon="-2.618855000">
        <ele>608.00</ele>
        <time>2015-01-17T08:27:43Z</time>
      </trkpt>
      <trkpt lat="42.409658000" lon="-2.618872000">
        <ele>608.00</ele>
        <time>2015-01-17T08:27:44Z</time>
      </trkpt>
      <trkpt lat="42.409637000" lon="-2.618890000">
        <ele>608.10</ele>
        <time>2015-01-17T08:27:45Z</time>
      </trkpt>
      <trkpt lat="42.409616000" lon="-2.618911000">
        <ele>608.10</ele>
        <time>2015-01-17T08:27:46Z</time>
      </trkpt>
      <trkpt lat="42.409596000" lon="-2.618932000">
        <ele>608.10</ele>
        <time>2015-01-17T08:27:47Z</time>
      </trkpt>
      <trkpt lat="42.409573000" lon="-2.618952000">
        <ele>608.10</ele>
        <time>2015-01-17T08:27:48Z</time>
      </trkpt>
      <trkpt lat="42.409551000" lon="-2.618972000">
        <ele>608.30</ele>
        <time>2015-01-17T08:27:49Z</time>
      </trkpt>
      <trkpt lat="42.409532000" lon="-2.618995000">
        <ele>608.40</ele>
        <time>2015-01-17T08:27:50Z</time>
      </trkpt>
      <trkpt lat="42.409511000" lon="-2.619019000">
        <ele>608.40</ele>
        <time>2015-01-17T08:27:51Z</time>
      </trkpt>
      <trkpt lat="42.409493000" lon="-2.619046000">
        <ele>608.50</ele>
        <time>2015-01-17T08:27:52Z</time>
      </trkpt>
      <trkpt lat="42.409472000" lon="-2.619077000">
        <ele>608.70</ele>
        <time>2015-01-17T08:27:53Z</time>
      </trkpt>
      <trkpt lat="42.409452000" lon="-2.619105000">
        <ele>608.90</ele>
        <time>2015-01-17T08:27:54Z</time>
      </trkpt>
      <trkpt lat="42.409422000" lon="-2.619160000">
        <ele>609.30</ele>
        <time>2015-01-17T08:27:56Z</time>
      </trkpt>
      <trkpt lat="42.409404000" lon="-2.619185000">
        <ele>609.40</ele>
        <time>2015-01-17T08:27:57Z</time>
      </trkpt>
      <trkpt lat="42.409388000" lon="-2.619211000">
        <ele>609.50</ele>
        <time>2015-01-17T08:27:58Z</time>
      </trkpt>
      <trkpt lat="42.409374000" lon="-2.619236000">
        <ele>609.70</ele>
        <time>2015-01-17T08:27:59Z</time>
      </trkpt>
      <trkpt lat="42.409359000" lon="-2.619260000">
        <ele>609.80</ele>
        <time>2015-01-17T08:28:00Z</time>
      </trkpt>
      <trkpt lat="42.409346000" lon="-2.619288000">
        <ele>610.00</ele>
        <time>2015-01-17T08:28:01Z</time>
      </trkpt>
      <trkpt lat="42.409331000" lon="-2.619318000">
        <ele>610.20</ele>
        <time>2015-01-17T08:28:02Z</time>
      </trkpt>
      <trkpt lat="42.409321000" lon="-2.619345000">
        <ele>610.30</ele>
        <time>2015-01-17T08:28:03Z</time>
      </trkpt>
      <trkpt lat="42.409308000" lon="-2.619374000">
        <ele>610.40</ele>
        <time>2015-01-17T08:28:04Z</time>
      </trkpt>
      <trkpt lat="42.409297000" lon="-2.619405000">
        <ele>610.50</ele>
        <time>2015-01-17T08:28:05Z</time>
      </trkpt>
      <trkpt lat="42.409289000" lon="-2.619436000">
        <ele>610.50</ele>
        <time>2015-01-17T08:28:06Z</time>
      </trkpt>
      <trkpt lat="42.409279000" lon="-2.619472000">
        <ele>610.60</ele>
        <time>2015-01-17T08:28:07Z</time>
      </trkpt>
      <trkpt lat="42.409268000" lon="-2.619509000">
        <ele>610.70</ele>
        <time>2015-01-17T08:28:08Z</time>
      </trkpt>
      <trkpt lat="42.409256000" lon="-2.619539000">
        <ele>610.70</ele>
        <time>2015-01-17T08:28:09Z</time>
      </trkpt>
      <trkpt lat="42.409243000" lon="-2.619569000">
        <ele>610.80</ele>
        <time>2015-01-17T08:28:10Z</time>
      </trkpt>
      <trkpt lat="42.409234000" lon="-2.619599000">
        <ele>610.90</ele>
        <time>2015-01-17T08:28:11Z</time>
      </trkpt>
      <trkpt lat="42.409224000" lon="-2.619626000">
        <ele>610.90</ele>
        <time>2015-01-17T08:28:12Z</time>
      </trkpt>
      <trkpt lat="42.409209000" lon="-2.619653000">
        <ele>611.10</ele>
        <time>2015-01-17T08:28:13Z</time>
      </trkpt>
      <trkpt lat="42.409198000" lon="-2.619682000">
        <ele>611.20</ele>
        <time>2015-01-17T08:28:14Z</time>
      </trkpt>
      <trkpt lat="42.409186000" lon="-2.619709000">
        <ele>611.40</ele>
        <time>2015-01-17T08:28:15Z</time>
      </trkpt>
      <trkpt lat="42.409173000" lon="-2.619740000">
        <ele>611.50</ele>
        <time>2015-01-17T08:28:16Z</time>
      </trkpt>
      <trkpt lat="42.409158000" lon="-2.619771000">
        <ele>611.60</ele>
        <time>2015-01-17T08:28:17Z</time>
      </trkpt>
      <trkpt lat="42.409145000" lon="-2.619800000">
        <ele>611.70</ele>
        <time>2015-01-17T08:28:18Z</time>
      </trkpt>
      <trkpt lat="42.409131000" lon="-2.619827000">
        <ele>611.80</ele>
        <time>2015-01-17T08:28:19Z</time>
      </trkpt>
      <trkpt lat="42.409117000" lon="-2.619858000">
        <ele>611.90</ele>
        <time>2015-01-17T08:28:20Z</time>
      </trkpt>
      <trkpt lat="42.409105000" lon="-2.619892000">
        <ele>612.10</ele>
        <time>2015-01-17T08:28:21Z</time>
      </trkpt>
      <trkpt lat="42.409090000" lon="-2.619922000">
        <ele>612.30</ele>
        <time>2015-01-17T08:28:22Z</time>
      </trkpt>
      <trkpt lat="42.409075000" lon="-2.619953000">
        <ele>612.60</ele>
        <time>2015-01-17T08:28:23Z</time>
      </trkpt>
      <trkpt lat="42.409060000" lon="-2.619982000">
        <ele>612.80</ele>
        <time>2015-01-17T08:28:24Z</time>
      </trkpt>
      <trkpt lat="42.409042000" lon="-2.620012000">
        <ele>613.00</ele>
        <time>2015-01-17T08:28:25Z</time>
      </trkpt>
      <trkpt lat="42.409022000" lon="-2.620047000">
        <ele>613.10</ele>
        <time>2015-01-17T08:28:26Z</time>
      </trkpt>
      <trkpt lat="42.409006000" lon="-2.620078000">
        <ele>613.10</ele>
        <time>2015-01-17T08:28:27Z</time>
      </trkpt>
      <trkpt lat="42.408988000" lon="-2.620110000">
        <ele>613.10</ele>
        <time>2015-01-17T08:28:28Z</time>
      </trkpt>
      <trkpt lat="42.408970000" lon="-2.620138000">
        <ele>613.00</ele>
        <time>2015-01-17T08:28:29Z</time>
      </trkpt>
      <trkpt lat="42.408949000" lon="-2.620162000">
        <ele>613.00</ele>
        <time>2015-01-17T08:28:30Z</time>
      </trkpt>
      <trkpt lat="42.408927000" lon="-2.620184000">
        <ele>613.00</ele>
        <time>2015-01-17T08:28:31Z</time>
      </trkpt>
      <trkpt lat="42.408905000" lon="-2.620210000">
        <ele>613.00</ele>
        <time>2015-01-17T08:28:32Z</time>
      </trkpt>
      <trkpt lat="42.408885000" lon="-2.620237000">
        <ele>612.90</ele>
        <time>2015-01-17T08:28:33Z</time>
      </trkpt>
      <trkpt lat="42.408863000" lon="-2.620266000">
        <ele>612.90</ele>
        <time>2015-01-17T08:28:34Z</time>
      </trkpt>
      <trkpt lat="42.408842000" lon="-2.620293000">
        <ele>612.90</ele>
        <time>2015-01-17T08:28:35Z</time>
      </trkpt>
      <trkpt lat="42.408821000" lon="-2.620325000">
        <ele>612.90</ele>
        <time>2015-01-17T08:28:36Z</time>
      </trkpt>
      <trkpt lat="42.408803000" lon="-2.620357000">
        <ele>612.90</ele>
        <time>2015-01-17T08:28:37Z</time>
      </trkpt>
      <trkpt lat="42.408787000" lon="-2.620389000">
        <ele>612.90</ele>
        <time>2015-01-17T08:28:38Z</time>
      </trkpt>
      <trkpt lat="42.408773000" lon="-2.620421000">
        <ele>612.80</ele>
        <time>2015-01-17T08:28:39Z</time>
      </trkpt>
      <trkpt lat="42.408759000" lon="-2.620453000">
        <ele>612.70</ele>
        <time>2015-01-17T08:28:40Z</time>
      </trkpt>
      <trkpt lat="42.408745000" lon="-2.620487000">
        <ele>612.80</ele>
        <time>2015-01-17T08:28:41Z</time>
      </trkpt>
      <trkpt lat="42.408737000" lon="-2.620524000">
        <ele>612.90</ele>
        <time>2015-01-17T08:28:42Z</time>
      </trkpt>
      <trkpt lat="42.408727000" lon="-2.620559000">
        <ele>612.90</ele>
        <time>2015-01-17T08:28:43Z</time>
      </trkpt>
      <trkpt lat="42.408721000" lon="-2.620595000">
        <ele>612.90</ele>
        <time>2015-01-17T08:28:44Z</time>
      </trkpt>
      <trkpt lat="42.408717000" lon="-2.620632000">
        <ele>612.90</ele>
        <time>2015-01-17T08:28:45Z</time>
      </trkpt>
      <trkpt lat="42.408711000" lon="-2.620666000">
        <ele>613.00</ele>
        <time>2015-01-17T08:28:46Z</time>
      </trkpt>
      <trkpt lat="42.408706000" lon="-2.620700000">
        <ele>613.00</ele>
        <time>2015-01-17T08:28:47Z</time>
      </trkpt>
      <trkpt lat="42.408701000" lon="-2.620735000">
        <ele>613.10</ele>
        <time>2015-01-17T08:28:48Z</time>
      </trkpt>
      <trkpt lat="42.408695000" lon="-2.620771000">
        <ele>613.20</ele>
        <time>2015-01-17T08:28:49Z</time>
      </trkpt>
      <trkpt lat="42.408692000" lon="-2.620809000">
        <ele>613.20</ele>
        <time>2015-01-17T08:28:50Z</time>
      </trkpt>
      <trkpt lat="42.408687000" lon="-2.620846000">
        <ele>613.30</ele>
        <time>2015-01-17T08:28:51Z</time>
      </trkpt>
      <trkpt lat="42.408682000" lon="-2.620882000">
        <ele>613.30</ele>
        <time>2015-01-17T08:28:52Z</time>
      </trkpt>
      <trkpt lat="42.408678000" lon="-2.620919000">
        <ele>613.30</ele>
        <time>2015-01-17T08:28:53Z</time>
      </trkpt>
      <trkpt lat="42.408673000" lon="-2.620954000">
        <ele>613.40</ele>
        <time>2015-01-17T08:28:54Z</time>
      </trkpt>
      <trkpt lat="42.408669000" lon="-2.620988000">
        <ele>613.60</ele>
        <time>2015-01-17T08:28:55Z</time>
      </trkpt>
      <trkpt lat="42.408657000" lon="-2.621055000">
        <ele>613.90</ele>
        <time>2015-01-17T08:28:57Z</time>
      </trkpt>
      <trkpt lat="42.408651000" lon="-2.621090000">
        <ele>614.00</ele>
        <time>2015-01-17T08:28:58Z</time>
      </trkpt>
      <trkpt lat="42.408646000" lon="-2.621125000">
        <ele>614.10</ele>
        <time>2015-01-17T08:28:59Z</time>
      </trkpt>
      <trkpt lat="42.408638000" lon="-2.621158000">
        <ele>614.10</ele>
        <time>2015-01-17T08:29:00Z</time>
      </trkpt>
      <trkpt lat="42.408629000" lon="-2.621189000">
        <ele>614.10</ele>
        <time>2015-01-17T08:29:01Z</time>
      </trkpt>
      <trkpt lat="42.408617000" lon="-2.621218000">
        <ele>614.00</ele>
        <time>2015-01-17T08:29:02Z</time>
      </trkpt>
      <trkpt lat="42.408604000" lon="-2.621247000">
        <ele>614.00</ele>
        <time>2015-01-17T08:29:03Z</time>
      </trkpt>
      <trkpt lat="42.408591000" lon="-2.621279000">
        <ele>614.00</ele>
        <time>2015-01-17T08:29:04Z</time>
      </trkpt>
      <trkpt lat="42.408577000" lon="-2.621312000">
        <ele>614.10</ele>
        <time>2015-01-17T08:29:05Z</time>
      </trkpt>
      <trkpt lat="42.408563000" lon="-2.621342000">
        <ele>614.20</ele>
        <time>2015-01-17T08:29:06Z</time>
      </trkpt>
      <trkpt lat="42.408548000" lon="-2.621369000">
        <ele>614.30</ele>
        <time>2015-01-17T08:29:07Z</time>
      </trkpt>
      <trkpt lat="42.408532000" lon="-2.621395000">
        <ele>614.30</ele>
        <time>2015-01-17T08:29:08Z</time>
      </trkpt>
      <trkpt lat="42.408517000" lon="-2.621423000">
        <ele>614.40</ele>
        <time>2015-01-17T08:29:09Z</time>
      </trkpt>
      <trkpt lat="42.408501000" lon="-2.621447000">
        <ele>614.50</ele>
        <time>2015-01-17T08:29:10Z</time>
      </trkpt>
      <trkpt lat="42.408484000" lon="-2.621471000">
        <ele>614.70</ele>
        <time>2015-01-17T08:29:11Z</time>
      </trkpt>
      <trkpt lat="42.408464000" lon="-2.621491000">
        <ele>614.80</ele>
        <time>2015-01-17T08:29:12Z</time>
      </trkpt>
      <trkpt lat="42.408443000" lon="-2.621512000">
        <ele>614.90</ele>
        <time>2015-01-17T08:29:13Z</time>
      </trkpt>
      <trkpt lat="42.408420000" lon="-2.621536000">
        <ele>615.00</ele>
        <time>2015-01-17T08:29:14Z</time>
      </trkpt>
      <trkpt lat="42.408397000" lon="-2.621561000">
        <ele>615.10</ele>
        <time>2015-01-17T08:29:15Z</time>
      </trkpt>
      <trkpt lat="42.408373000" lon="-2.621584000">
        <ele>615.20</ele>
        <time>2015-01-17T08:29:16Z</time>
      </trkpt>
      <trkpt lat="42.408348000" lon="-2.621605000">
        <ele>615.20</ele>
        <time>2015-01-17T08:29:17Z</time>
      </trkpt>
      <trkpt lat="42.408323000" lon="-2.621629000">
        <ele>615.30</ele>
        <time>2015-01-17T08:29:18Z</time>
      </trkpt>
      <trkpt lat="42.408298000" lon="-2.621654000">
        <ele>615.40</ele>
        <time>2015-01-17T08:29:19Z</time>
      </trkpt>
      <trkpt lat="42.408273000" lon="-2.621679000">
        <ele>615.40</ele>
        <time>2015-01-17T08:29:20Z</time>
      </trkpt>
      <trkpt lat="42.408250000" lon="-2.621707000">
        <ele>615.50</ele>
        <time>2015-01-17T08:29:21Z</time>
      </trkpt>
      <trkpt lat="42.408227000" lon="-2.621735000">
        <ele>615.50</ele>
        <time>2015-01-17T08:29:22Z</time>
      </trkpt>
      <trkpt lat="42.408206000" lon="-2.621763000">
        <ele>615.50</ele>
        <time>2015-01-17T08:29:23Z</time>
      </trkpt>
      <trkpt lat="42.408184000" lon="-2.621794000">
        <ele>615.50</ele>
        <time>2015-01-17T08:29:24Z</time>
      </trkpt>
      <trkpt lat="42.408163000" lon="-2.621825000">
        <ele>615.80</ele>
        <time>2015-01-17T08:29:25Z</time>
      </trkpt>
      <trkpt lat="42.408146000" lon="-2.621859000">
        <ele>615.90</ele>
        <time>2015-01-17T08:29:26Z</time>
      </trkpt>
      <trkpt lat="42.408132000" lon="-2.621895000">
        <ele>615.80</ele>
        <time>2015-01-17T08:29:27Z</time>
      </trkpt>
      <trkpt lat="42.408121000" lon="-2.621929000">
        <ele>615.70</ele>
        <time>2015-01-17T08:29:28Z</time>
      </trkpt>
      <trkpt lat="42.408109000" lon="-2.621967000">
        <ele>615.60</ele>
        <time>2015-01-17T08:29:29Z</time>
      </trkpt>
      <trkpt lat="42.408096000" lon="-2.622001000">
        <ele>615.60</ele>
        <time>2015-01-17T08:29:30Z</time>
      </trkpt>
      <trkpt lat="42.408083000" lon="-2.622038000">
        <ele>615.50</ele>
        <time>2015-01-17T08:29:31Z</time>
      </trkpt>
      <trkpt lat="42.408067000" lon="-2.622076000">
        <ele>615.50</ele>
        <time>2015-01-17T08:29:32Z</time>
      </trkpt>
      <trkpt lat="42.408050000" lon="-2.622114000">
        <ele>615.50</ele>
        <time>2015-01-17T08:29:33Z</time>
      </trkpt>
      <trkpt lat="42.408033000" lon="-2.622152000">
        <ele>615.50</ele>
        <time>2015-01-17T08:29:34Z</time>
      </trkpt>
      <trkpt lat="42.408016000" lon="-2.622188000">
        <ele>615.80</ele>
        <time>2015-01-17T08:29:35Z</time>
      </trkpt>
      <trkpt lat="42.407999000" lon="-2.622217000">
        <ele>616.00</ele>
        <time>2015-01-17T08:29:36Z</time>
      </trkpt>
      <trkpt lat="42.407978000" lon="-2.622250000">
        <ele>616.20</ele>
        <time>2015-01-17T08:29:37Z</time>
      </trkpt>
      <trkpt lat="42.407956000" lon="-2.622282000">
        <ele>616.30</ele>
        <time>2015-01-17T08:29:38Z</time>
      </trkpt>
      <trkpt lat="42.407938000" lon="-2.622315000">
        <ele>616.40</ele>
        <time>2015-01-17T08:29:39Z</time>
      </trkpt>
      <trkpt lat="42.407915000" lon="-2.622345000">
        <ele>616.40</ele>
        <time>2015-01-17T08:29:40Z</time>
      </trkpt>
      <trkpt lat="42.407895000" lon="-2.622377000">
        <ele>616.50</ele>
        <time>2015-01-17T08:29:41Z</time>
      </trkpt>
      <trkpt lat="42.407876000" lon="-2.622409000">
        <ele>616.50</ele>
        <time>2015-01-17T08:29:42Z</time>
      </trkpt>
      <trkpt lat="42.407854000" lon="-2.622437000">
        <ele>616.60</ele>
        <time>2015-01-17T08:29:43Z</time>
      </trkpt>
      <trkpt lat="42.407828000" lon="-2.622465000">
        <ele>616.60</ele>
        <time>2015-01-17T08:29:44Z</time>
      </trkpt>
      <trkpt lat="42.407805000" lon="-2.622494000">
        <ele>616.60</ele>
        <time>2015-01-17T08:29:45Z</time>
      </trkpt>
      <trkpt lat="42.407781000" lon="-2.622519000">
        <ele>616.60</ele>
        <time>2015-01-17T08:29:46Z</time>
      </trkpt>
      <trkpt lat="42.407755000" lon="-2.622544000">
        <ele>616.60</ele>
        <time>2015-01-17T08:29:47Z</time>
      </trkpt>
      <trkpt lat="42.407727000" lon="-2.622563000">
        <ele>616.60</ele>
        <time>2015-01-17T08:29:48Z</time>
      </trkpt>
      <trkpt lat="42.407701000" lon="-2.622581000">
        <ele>616.60</ele>
        <time>2015-01-17T08:29:49Z</time>
      </trkpt>
      <trkpt lat="42.407674000" lon="-2.622598000">
        <ele>616.60</ele>
        <time>2015-01-17T08:29:50Z</time>
      </trkpt>
      <trkpt lat="42.407648000" lon="-2.622613000">
        <ele>616.70</ele>
        <time>2015-01-17T08:29:51Z</time>
      </trkpt>
      <trkpt lat="42.407622000" lon="-2.622630000">
        <ele>616.80</ele>
        <time>2015-01-17T08:29:52Z</time>
      </trkpt>
      <trkpt lat="42.407597000" lon="-2.622647000">
        <ele>617.00</ele>
        <time>2015-01-17T08:29:53Z</time>
      </trkpt>
      <trkpt lat="42.407570000" lon="-2.622662000">
        <ele>617.20</ele>
        <time>2015-01-17T08:29:54Z</time>
      </trkpt>
      <trkpt lat="42.407541000" lon="-2.622677000">
        <ele>617.30</ele>
        <time>2015-01-17T08:29:55Z</time>
      </trkpt>
      <trkpt lat="42.407516000" lon="-2.622690000">
        <ele>617.40</ele>
        <time>2015-01-17T08:29:56Z</time>
      </trkpt>
      <trkpt lat="42.407462000" lon="-2.622721000">
        <ele>617.50</ele>
        <time>2015-01-17T08:29:58Z</time>
      </trkpt>
      <trkpt lat="42.407434000" lon="-2.622735000">
        <ele>617.60</ele>
        <time>2015-01-17T08:29:59Z</time>
      </trkpt>
      <trkpt lat="42.407410000" lon="-2.622752000">
        <ele>617.60</ele>
        <time>2015-01-17T08:30:00Z</time>
      </trkpt>
      <trkpt lat="42.407384000" lon="-2.622766000">
        <ele>617.60</ele>
        <time>2015-01-17T08:30:01Z</time>
      </trkpt>
      <trkpt lat="42.407359000" lon="-2.622784000">
        <ele>617.70</ele>
        <time>2015-01-17T08:30:02Z</time>
      </trkpt>
      <trkpt lat="42.407334000" lon="-2.622799000">
        <ele>617.80</ele>
        <time>2015-01-17T08:30:03Z</time>
      </trkpt>
      <trkpt lat="42.407310000" lon="-2.622816000">
        <ele>617.90</ele>
        <time>2015-01-17T08:30:04Z</time>
      </trkpt>
      <trkpt lat="42.407287000" lon="-2.622830000">
        <ele>618.10</ele>
        <time>2015-01-17T08:30:05Z</time>
      </trkpt>
      <trkpt lat="42.407267000" lon="-2.622846000">
        <ele>618.20</ele>
        <time>2015-01-17T08:30:06Z</time>
      </trkpt>
      <trkpt lat="42.407241000" lon="-2.622865000">
        <ele>618.20</ele>
        <time>2015-01-17T08:30:07Z</time>
      </trkpt>
      <trkpt lat="42.407221000" lon="-2.622884000">
        <ele>618.30</ele>
        <time>2015-01-17T08:30:08Z</time>
      </trkpt>
      <trkpt lat="42.407201000" lon="-2.622903000">
        <ele>618.40</ele>
        <time>2015-01-17T08:30:09Z</time>
      </trkpt>
      <trkpt lat="42.407179000" lon="-2.622922000">
        <ele>618.40</ele>
        <time>2015-01-17T08:30:10Z</time>
      </trkpt>
      <trkpt lat="42.407157000" lon="-2.622939000">
        <ele>618.40</ele>
        <time>2015-01-17T08:30:11Z</time>
      </trkpt>
      <trkpt lat="42.407136000" lon="-2.622958000">
        <ele>618.40</ele>
        <time>2015-01-17T08:30:12Z</time>
      </trkpt>
      <trkpt lat="42.407113000" lon="-2.622977000">
        <ele>618.50</ele>
        <time>2015-01-17T08:30:13Z</time>
      </trkpt>
      <trkpt lat="42.407092000" lon="-2.622996000">
        <ele>618.50</ele>
        <time>2015-01-17T08:30:14Z</time>
      </trkpt>
      <trkpt lat="42.407070000" lon="-2.623013000">
        <ele>618.70</ele>
        <time>2015-01-17T08:30:15Z</time>
      </trkpt>
      <trkpt lat="42.407050000" lon="-2.623029000">
        <ele>618.90</ele>
        <time>2015-01-17T08:30:16Z</time>
      </trkpt>
      <trkpt lat="42.407033000" lon="-2.623046000">
        <ele>619.10</ele>
        <time>2015-01-17T08:30:17Z</time>
      </trkpt>
      <trkpt lat="42.407012000" lon="-2.623064000">
        <ele>619.20</ele>
        <time>2015-01-17T08:30:18Z</time>
      </trkpt>
      <trkpt lat="42.406995000" lon="-2.623082000">
        <ele>619.20</ele>
        <time>2015-01-17T08:30:19Z</time>
      </trkpt>
      <trkpt lat="42.406975000" lon="-2.623103000">
        <ele>619.20</ele>
        <time>2015-01-17T08:30:20Z</time>
      </trkpt>
      <trkpt lat="42.406956000" lon="-2.623121000">
        <ele>619.30</ele>
        <time>2015-01-17T08:30:21Z</time>
      </trkpt>
      <trkpt lat="42.406934000" lon="-2.623138000">
        <ele>619.30</ele>
        <time>2015-01-17T08:30:22Z</time>
      </trkpt>
      <trkpt lat="42.406910000" lon="-2.623156000">
        <ele>619.30</ele>
        <time>2015-01-17T08:30:23Z</time>
      </trkpt>
      <trkpt lat="42.406889000" lon="-2.623171000">
        <ele>619.40</ele>
        <time>2015-01-17T08:30:24Z</time>
      </trkpt>
      <trkpt lat="42.406866000" lon="-2.623186000">
        <ele>619.70</ele>
        <time>2015-01-17T08:30:25Z</time>
      </trkpt>
      <trkpt lat="42.406843000" lon="-2.623199000">
        <ele>619.90</ele>
        <time>2015-01-17T08:30:26Z</time>
      </trkpt>
      <trkpt lat="42.406821000" lon="-2.623215000">
        <ele>620.30</ele>
        <time>2015-01-17T08:30:27Z</time>
      </trkpt>
      <trkpt lat="42.406797000" lon="-2.623228000">
        <ele>620.50</ele>
        <time>2015-01-17T08:30:28Z</time>
      </trkpt>
      <trkpt lat="42.406774000" lon="-2.623243000">
        <ele>620.70</ele>
        <time>2015-01-17T08:30:29Z</time>
      </trkpt>
      <trkpt lat="42.406752000" lon="-2.623257000">
        <ele>620.90</ele>
        <time>2015-01-17T08:30:30Z</time>
      </trkpt>
      <trkpt lat="42.406728000" lon="-2.623272000">
        <ele>621.00</ele>
        <time>2015-01-17T08:30:31Z</time>
      </trkpt>
      <trkpt lat="42.406705000" lon="-2.623285000">
        <ele>621.10</ele>
        <time>2015-01-17T08:30:32Z</time>
      </trkpt>
      <trkpt lat="42.406683000" lon="-2.623299000">
        <ele>621.10</ele>
        <time>2015-01-17T08:30:33Z</time>
      </trkpt>
      <trkpt lat="42.406661000" lon="-2.623311000">
        <ele>621.20</ele>
        <time>2015-01-17T08:30:34Z</time>
      </trkpt>
      <trkpt lat="42.406637000" lon="-2.623332000">
        <ele>621.20</ele>
        <time>2015-01-17T08:30:35Z</time>
      </trkpt>
      <trkpt lat="42.406615000" lon="-2.623347000">
        <ele>621.30</ele>
        <time>2015-01-17T08:30:36Z</time>
      </trkpt>
      <trkpt lat="42.406594000" lon="-2.623361000">
        <ele>621.40</ele>
        <time>2015-01-17T08:30:37Z</time>
      </trkpt>
      <trkpt lat="42.406574000" lon="-2.623377000">
        <ele>621.40</ele>
        <time>2015-01-17T08:30:38Z</time>
      </trkpt>
      <trkpt lat="42.406550000" lon="-2.623394000">
        <ele>621.70</ele>
        <time>2015-01-17T08:30:39Z</time>
      </trkpt>
      <trkpt lat="42.406527000" lon="-2.623412000">
        <ele>621.90</ele>
        <time>2015-01-17T08:30:40Z</time>
      </trkpt>
      <trkpt lat="42.406507000" lon="-2.623430000">
        <ele>622.00</ele>
        <time>2015-01-17T08:30:41Z</time>
      </trkpt>
      <trkpt lat="42.406488000" lon="-2.623448000">
        <ele>622.10</ele>
        <time>2015-01-17T08:30:42Z</time>
      </trkpt>
      <trkpt lat="42.406469000" lon="-2.623464000">
        <ele>622.30</ele>
        <time>2015-01-17T08:30:43Z</time>
      </trkpt>
      <trkpt lat="42.406452000" lon="-2.623489000">
        <ele>622.50</ele>
        <time>2015-01-17T08:30:44Z</time>
      </trkpt>
      <trkpt lat="42.406433000" lon="-2.623509000">
        <ele>622.50</ele>
        <time>2015-01-17T08:30:45Z</time>
      </trkpt>
      <trkpt lat="42.406415000" lon="-2.623528000">
        <ele>622.60</ele>
        <time>2015-01-17T08:30:46Z</time>
      </trkpt>
      <trkpt lat="42.406397000" lon="-2.623551000">
        <ele>622.70</ele>
        <time>2015-01-17T08:30:47Z</time>
      </trkpt>
      <trkpt lat="42.406381000" lon="-2.623574000">
        <ele>622.80</ele>
        <time>2015-01-17T08:30:48Z</time>
      </trkpt>
      <trkpt lat="42.406364000" lon="-2.623596000">
        <ele>622.90</ele>
        <time>2015-01-17T08:30:49Z</time>
      </trkpt>
      <trkpt lat="42.406349000" lon="-2.623617000">
        <ele>623.00</ele>
        <time>2015-01-17T08:30:50Z</time>
      </trkpt>
      <trkpt lat="42.406332000" lon="-2.623636000">
        <ele>623.20</ele>
        <time>2015-01-17T08:30:51Z</time>
      </trkpt>
      <trkpt lat="42.406316000" lon="-2.623656000">
        <ele>623.40</ele>
        <time>2015-01-17T08:30:52Z</time>
      </trkpt>
      <trkpt lat="42.406300000" lon="-2.623673000">
        <ele>623.40</ele>
        <time>2015-01-17T08:30:53Z</time>
      </trkpt>
      <trkpt lat="42.406283000" lon="-2.623692000">
        <ele>623.40</ele>
        <time>2015-01-17T08:30:54Z</time>
      </trkpt>
      <trkpt lat="42.406268000" lon="-2.623713000">
        <ele>623.60</ele>
        <time>2015-01-17T08:30:55Z</time>
      </trkpt>
      <trkpt lat="42.406254000" lon="-2.623731000">
        <ele>623.70</ele>
        <time>2015-01-17T08:30:56Z</time>
      </trkpt>
      <trkpt lat="42.406237000" lon="-2.623750000">
        <ele>623.80</ele>
        <time>2015-01-17T08:30:57Z</time>
      </trkpt>
      <trkpt lat="42.406204000" lon="-2.623786000">
        <ele>624.00</ele>
        <time>2015-01-17T08:30:59Z</time>
      </trkpt>
      <trkpt lat="42.406190000" lon="-2.623804000">
        <ele>624.00</ele>
        <time>2015-01-17T08:31:00Z</time>
      </trkpt>
      <trkpt lat="42.406174000" lon="-2.623821000">
        <ele>624.20</ele>
        <time>2015-01-17T08:31:01Z</time>
      </trkpt>
      <trkpt lat="42.406157000" lon="-2.623839000">
        <ele>624.30</ele>
        <time>2015-01-17T08:31:02Z</time>
      </trkpt>
      <trkpt lat="42.406140000" lon="-2.623858000">
        <ele>624.50</ele>
        <time>2015-01-17T08:31:03Z</time>
      </trkpt>
      <trkpt lat="42.406124000" lon="-2.623875000">
        <ele>624.70</ele>
        <time>2015-01-17T08:31:04Z</time>
      </trkpt>
      <trkpt lat="42.406108000" lon="-2.623893000">
        <ele>624.70</ele>
        <time>2015-01-17T08:31:05Z</time>
      </trkpt>
      <trkpt lat="42.406093000" lon="-2.623913000">
        <ele>624.70</ele>
        <time>2015-01-17T08:31:06Z</time>
      </trkpt>
      <trkpt lat="42.406075000" lon="-2.623930000">
        <ele>624.90</ele>
        <time>2015-01-17T08:31:07Z</time>
      </trkpt>
      <trkpt lat="42.406059000" lon="-2.623951000">
        <ele>625.00</ele>
        <time>2015-01-17T08:31:08Z</time>
      </trkpt>
      <trkpt lat="42.406041000" lon="-2.623970000">
        <ele>625.10</ele>
        <time>2015-01-17T08:31:09Z</time>
      </trkpt>
      <trkpt lat="42.406015000" lon="-2.623991000">
        <ele>625.20</ele>
        <time>2015-01-17T08:31:10Z</time>
      </trkpt>
      <trkpt lat="42.405981000" lon="-2.624016000">
        <ele>625.30</ele>
        <time>2015-01-17T08:31:11Z</time>
      </trkpt>
      <trkpt lat="42.405956000" lon="-2.624045000">
        <ele>625.30</ele>
        <time>2015-01-17T08:31:12Z</time>
      </trkpt>
      <trkpt lat="42.405933000" lon="-2.624070000">
        <ele>625.60</ele>
        <time>2015-01-17T08:31:13Z</time>
      </trkpt>
      <trkpt lat="42.405914000" lon="-2.624096000">
        <ele>625.70</ele>
        <time>2015-01-17T08:31:14Z</time>
      </trkpt>
      <trkpt lat="42.405896000" lon="-2.624122000">
        <ele>626.00</ele>
        <time>2015-01-17T08:31:15Z</time>
      </trkpt>
      <trkpt lat="42.405883000" lon="-2.624134000">
        <ele>626.20</ele>
        <time>2015-01-17T08:31:16Z</time>
      </trkpt>
      <trkpt lat="42.405864000" lon="-2.624153000">
        <ele>626.30</ele>
        <time>2015-01-17T08:31:17Z</time>
      </trkpt>
      <trkpt lat="42.405846000" lon="-2.624172000">
        <ele>626.50</ele>
        <time>2015-01-17T08:31:18Z</time>
      </trkpt>
      <trkpt lat="42.405827000" lon="-2.624192000">
        <ele>626.70</ele>
        <time>2015-01-17T08:31:19Z</time>
      </trkpt>
      <trkpt lat="42.405806000" lon="-2.624212000">
        <ele>626.80</ele>
        <time>2015-01-17T08:31:20Z</time>
      </trkpt>
      <trkpt lat="42.405789000" lon="-2.624231000">
        <ele>627.00</ele>
        <time>2015-01-17T08:31:21Z</time>
      </trkpt>
      <trkpt lat="42.405772000" lon="-2.624255000">
        <ele>627.10</ele>
        <time>2015-01-17T08:31:22Z</time>
      </trkpt>
      <trkpt lat="42.405755000" lon="-2.624278000">
        <ele>627.30</ele>
        <time>2015-01-17T08:31:23Z</time>
      </trkpt>
      <trkpt lat="42.405739000" lon="-2.624304000">
        <ele>627.50</ele>
        <time>2015-01-17T08:31:24Z</time>
      </trkpt>
      <trkpt lat="42.405731000" lon="-2.624334000">
        <ele>627.60</ele>
        <time>2015-01-17T08:31:25Z</time>
      </trkpt>
      <trkpt lat="42.405717000" lon="-2.624364000">
        <ele>627.60</ele>
        <time>2015-01-17T08:31:26Z</time>
      </trkpt>
      <trkpt lat="42.405699000" lon="-2.624385000">
        <ele>627.70</ele>
        <time>2015-01-17T08:31:27Z</time>
      </trkpt>
      <trkpt lat="42.405686000" lon="-2.624411000">
        <ele>627.70</ele>
        <time>2015-01-17T08:31:28Z</time>
      </trkpt>
      <trkpt lat="42.405673000" lon="-2.624439000">
        <ele>627.80</ele>
        <time>2015-01-17T08:31:29Z</time>
      </trkpt>
      <trkpt lat="42.405662000" lon="-2.624470000">
        <ele>627.80</ele>
        <time>2015-01-17T08:31:30Z</time>
      </trkpt>
      <trkpt lat="42.405652000" lon="-2.624502000">
        <ele>627.90</ele>
        <time>2015-01-17T08:31:31Z</time>
      </trkpt>
      <trkpt lat="42.405641000" lon="-2.624526000">
        <ele>628.00</ele>
        <time>2015-01-17T08:31:32Z</time>
      </trkpt>
      <trkpt lat="42.405631000" lon="-2.624546000">
        <ele>628.00</ele>
        <time>2015-01-17T08:31:33Z</time>
      </trkpt>
      <trkpt lat="42.405618000" lon="-2.624566000">
        <ele>628.00</ele>
        <time>2015-01-17T08:31:34Z</time>
      </trkpt>
      <trkpt lat="42.405605000" lon="-2.624588000">
        <ele>628.10</ele>
        <time>2015-01-17T08:31:35Z</time>
      </trkpt>
      <trkpt lat="42.405593000" lon="-2.624610000">
        <ele>628.10</ele>
        <time>2015-01-17T08:31:36Z</time>
      </trkpt>
      <trkpt lat="42.405581000" lon="-2.624636000">
        <ele>628.20</ele>
        <time>2015-01-17T08:31:37Z</time>
      </trkpt>
      <trkpt lat="42.405569000" lon="-2.624660000">
        <ele>628.30</ele>
        <time>2015-01-17T08:31:38Z</time>
      </trkpt>
      <trkpt lat="42.405550000" lon="-2.624686000">
        <ele>628.50</ele>
        <time>2015-01-17T08:31:39Z</time>
      </trkpt>
      <trkpt lat="42.405535000" lon="-2.624706000">
        <ele>628.60</ele>
        <time>2015-01-17T08:31:40Z</time>
      </trkpt>
      <trkpt lat="42.405522000" lon="-2.624726000">
        <ele>628.70</ele>
        <time>2015-01-17T08:31:41Z</time>
      </trkpt>
      <trkpt lat="42.405509000" lon="-2.624749000">
        <ele>628.70</ele>
        <time>2015-01-17T08:31:42Z</time>
      </trkpt>
      <trkpt lat="42.405501000" lon="-2.624772000">
        <ele>628.90</ele>
        <time>2015-01-17T08:31:43Z</time>
      </trkpt>
      <trkpt lat="42.405491000" lon="-2.624791000">
        <ele>628.90</ele>
        <time>2015-01-17T08:31:44Z</time>
      </trkpt>
      <trkpt lat="42.405480000" lon="-2.624809000">
        <ele>629.10</ele>
        <time>2015-01-17T08:31:45Z</time>
      </trkpt>
      <trkpt lat="42.405471000" lon="-2.624827000">
        <ele>629.20</ele>
        <time>2015-01-17T08:31:46Z</time>
      </trkpt>
      <trkpt lat="42.405463000" lon="-2.624846000">
        <ele>629.40</ele>
        <time>2015-01-17T08:31:47Z</time>
      </trkpt>
      <trkpt lat="42.405454000" lon="-2.624864000">
        <ele>629.50</ele>
        <time>2015-01-17T08:31:48Z</time>
      </trkpt>
      <trkpt lat="42.405445000" lon="-2.624881000">
        <ele>629.70</ele>
        <time>2015-01-17T08:31:49Z</time>
      </trkpt>
      <trkpt lat="42.405434000" lon="-2.624889000">
        <ele>629.80</ele>
        <time>2015-01-17T08:31:50Z</time>
      </trkpt>
      <trkpt lat="42.405423000" lon="-2.624904000">
        <ele>630.00</ele>
        <time>2015-01-17T08:31:51Z</time>
      </trkpt>
      <trkpt lat="42.405412000" lon="-2.624919000">
        <ele>630.10</ele>
        <time>2015-01-17T08:31:52Z</time>
      </trkpt>
      <trkpt lat="42.405407000" lon="-2.624917000">
        <ele>630.20</ele>
        <time>2015-01-17T08:31:53Z</time>
      </trkpt>
      <trkpt lat="42.405403000" lon="-2.624919000">
        <ele>630.30</ele>
        <time>2015-01-17T08:31:54Z</time>
      </trkpt>
      <trkpt lat="42.405397000" lon="-2.624921000">
        <ele>630.50</ele>
        <time>2015-01-17T08:31:55Z</time>
      </trkpt>
      <trkpt lat="42.405396000" lon="-2.624918000">
        <ele>630.60</ele>
        <time>2015-01-17T08:31:56Z</time>
      </trkpt>
      <trkpt lat="42.405400000" lon="-2.624916000">
        <ele>630.70</ele>
        <time>2015-01-17T08:31:57Z</time>
      </trkpt>
      <trkpt lat="42.405401000" lon="-2.624916000">
        <ele>630.80</ele>
        <time>2015-01-17T08:31:58Z</time>
      </trkpt>
      <trkpt lat="42.405401000" lon="-2.624918000">
        <ele>630.90</ele>
        <time>2015-01-17T08:32:00Z</time>
      </trkpt>
      <trkpt lat="42.405398000" lon="-2.624927000">
        <ele>631.00</ele>
        <time>2015-01-17T08:32:01Z</time>
      </trkpt>
      <trkpt lat="42.405399000" lon="-2.624939000">
        <ele>631.00</ele>
        <time>2015-01-17T08:32:02Z</time>
      </trkpt>
      <trkpt lat="42.405405000" lon="-2.624953000">
        <ele>631.00</ele>
        <time>2015-01-17T08:32:03Z</time>
      </trkpt>
      <trkpt lat="42.405406000" lon="-2.624962000">
        <ele>631.10</ele>
        <time>2015-01-17T08:32:04Z</time>
      </trkpt>
      <trkpt lat="42.405411000" lon="-2.624981000">
        <ele>631.10</ele>
        <time>2015-01-17T08:32:05Z</time>
      </trkpt>
      <trkpt lat="42.405412000" lon="-2.624997000">
        <ele>631.10</ele>
        <time>2015-01-17T08:32:06Z</time>
      </trkpt>
      <trkpt lat="42.405420000" lon="-2.625013000">
        <ele>631.20</ele>
        <time>2015-01-17T08:32:07Z</time>
      </trkpt>
      <trkpt lat="42.405427000" lon="-2.625027000">
        <ele>631.20</ele>
        <time>2015-01-17T08:32:08Z</time>
      </trkpt>
      <trkpt lat="42.405432000" lon="-2.625046000">
        <ele>631.20</ele>
        <time>2015-01-17T08:32:09Z</time>
      </trkpt>
      <trkpt lat="42.405437000" lon="-2.625068000">
        <ele>631.20</ele>
        <time>2015-01-17T08:32:10Z</time>
      </trkpt>
      <trkpt lat="42.405446000" lon="-2.625086000">
        <ele>631.10</ele>
        <time>2015-01-17T08:32:11Z</time>
      </trkpt>
      <trkpt lat="42.405449000" lon="-2.625104000">
        <ele>631.00</ele>
        <time>2015-01-17T08:32:12Z</time>
      </trkpt>
      <trkpt lat="42.405449000" lon="-2.625126000">
        <ele>630.90</ele>
        <time>2015-01-17T08:32:13Z</time>
      </trkpt>
      <trkpt lat="42.405442000" lon="-2.625154000">
        <ele>630.90</ele>
        <time>2015-01-17T08:32:14Z</time>
      </trkpt>
      <trkpt lat="42.405435000" lon="-2.625173000">
        <ele>630.90</ele>
        <time>2015-01-17T08:32:15Z</time>
      </trkpt>
      <trkpt lat="42.405425000" lon="-2.625192000">
        <ele>630.80</ele>
        <time>2015-01-17T08:32:16Z</time>
      </trkpt>
      <trkpt lat="42.405414000" lon="-2.625209000">
        <ele>631.00</ele>
        <time>2015-01-17T08:32:17Z</time>
      </trkpt>
      <trkpt lat="42.405405000" lon="-2.625223000">
        <ele>631.10</ele>
        <time>2015-01-17T08:32:18Z</time>
      </trkpt>
      <trkpt lat="42.405395000" lon="-2.625240000">
        <ele>631.30</ele>
        <time>2015-01-17T08:32:19Z</time>
      </trkpt>
      <trkpt lat="42.405394000" lon="-2.625256000">
        <ele>631.40</ele>
        <time>2015-01-17T08:32:20Z</time>
      </trkpt>
      <trkpt lat="42.405388000" lon="-2.625273000">
        <ele>631.50</ele>
        <time>2015-01-17T08:32:21Z</time>
      </trkpt>
      <trkpt lat="42.405382000" lon="-2.625288000">
        <ele>631.60</ele>
        <time>2015-01-17T08:32:22Z</time>
      </trkpt>
      <trkpt lat="42.405375000" lon="-2.625309000">
        <ele>631.60</ele>
        <time>2015-01-17T08:32:23Z</time>
      </trkpt>
      <trkpt lat="42.405368000" lon="-2.625326000">
        <ele>631.70</ele>
        <time>2015-01-17T08:32:24Z</time>
      </trkpt>
      <trkpt lat="42.405358000" lon="-2.625343000">
        <ele>631.70</ele>
        <time>2015-01-17T08:32:25Z</time>
      </trkpt>
      <trkpt lat="42.405349000" lon="-2.625363000">
        <ele>631.70</ele>
        <time>2015-01-17T08:32:26Z</time>
      </trkpt>
      <trkpt lat="42.405345000" lon="-2.625382000">
        <ele>631.90</ele>
        <time>2015-01-17T08:32:27Z</time>
      </trkpt>
      <trkpt lat="42.405347000" lon="-2.625399000">
        <ele>632.00</ele>
        <time>2015-01-17T08:32:28Z</time>
      </trkpt>
      <trkpt lat="42.405350000" lon="-2.625415000">
        <ele>632.40</ele>
        <time>2015-01-17T08:32:29Z</time>
      </trkpt>
      <trkpt lat="42.405347000" lon="-2.625436000">
        <ele>632.70</ele>
        <time>2015-01-17T08:32:30Z</time>
      </trkpt>
      <trkpt lat="42.405341000" lon="-2.625450000">
        <ele>633.00</ele>
        <time>2015-01-17T08:32:31Z</time>
      </trkpt>
      <trkpt lat="42.405336000" lon="-2.625470000">
        <ele>633.10</ele>
        <time>2015-01-17T08:32:32Z</time>
      </trkpt>
      <trkpt lat="42.405328000" lon="-2.625488000">
        <ele>633.20</ele>
        <time>2015-01-17T08:32:33Z</time>
      </trkpt>
      <trkpt lat="42.405317000" lon="-2.625502000">
        <ele>633.30</ele>
        <time>2015-01-17T08:32:34Z</time>
      </trkpt>
      <trkpt lat="42.405308000" lon="-2.625517000">
        <ele>633.20</ele>
        <time>2015-01-17T08:32:35Z</time>
      </trkpt>
      <trkpt lat="42.405301000" lon="-2.625531000">
        <ele>633.20</ele>
        <time>2015-01-17T08:32:36Z</time>
      </trkpt>
      <trkpt lat="42.405293000" lon="-2.625548000">
        <ele>633.20</ele>
        <time>2015-01-17T08:32:37Z</time>
      </trkpt>
      <trkpt lat="42.405286000" lon="-2.625567000">
        <ele>633.20</ele>
        <time>2015-01-17T08:32:38Z</time>
      </trkpt>
      <trkpt lat="42.405279000" lon="-2.625583000">
        <ele>633.30</ele>
        <time>2015-01-17T08:32:39Z</time>
      </trkpt>
      <trkpt lat="42.405269000" lon="-2.625598000">
        <ele>633.30</ele>
        <time>2015-01-17T08:32:40Z</time>
      </trkpt>
      <trkpt lat="42.405259000" lon="-2.625612000">
        <ele>633.40</ele>
        <time>2015-01-17T08:32:41Z</time>
      </trkpt>
      <trkpt lat="42.405250000" lon="-2.625632000">
        <ele>633.40</ele>
        <time>2015-01-17T08:32:42Z</time>
      </trkpt>
      <trkpt lat="42.405243000" lon="-2.625645000">
        <ele>633.50</ele>
        <time>2015-01-17T08:32:43Z</time>
      </trkpt>
      <trkpt lat="42.405236000" lon="-2.625666000">
        <ele>633.60</ele>
        <time>2015-01-17T08:32:44Z</time>
      </trkpt>
      <trkpt lat="42.405231000" lon="-2.625678000">
        <ele>633.70</ele>
        <time>2015-01-17T08:32:45Z</time>
      </trkpt>
      <trkpt lat="42.405227000" lon="-2.625688000">
        <ele>633.90</ele>
        <time>2015-01-17T08:32:46Z</time>
      </trkpt>
      <trkpt lat="42.405221000" lon="-2.625700000">
        <ele>634.30</ele>
        <time>2015-01-17T08:32:47Z</time>
      </trkpt>
      <trkpt lat="42.405216000" lon="-2.625714000">
        <ele>634.60</ele>
        <time>2015-01-17T08:32:48Z</time>
      </trkpt>
      <trkpt lat="42.405208000" lon="-2.625729000">
        <ele>634.90</ele>
        <time>2015-01-17T08:32:49Z</time>
      </trkpt>
      <trkpt lat="42.405200000" lon="-2.625743000">
        <ele>635.20</ele>
        <time>2015-01-17T08:32:50Z</time>
      </trkpt>
      <trkpt lat="42.405197000" lon="-2.625760000">
        <ele>635.30</ele>
        <time>2015-01-17T08:32:51Z</time>
      </trkpt>
      <trkpt lat="42.405193000" lon="-2.625771000">
        <ele>635.40</ele>
        <time>2015-01-17T08:32:52Z</time>
      </trkpt>
      <trkpt lat="42.405186000" lon="-2.625779000">
        <ele>635.50</ele>
        <time>2015-01-17T08:32:53Z</time>
      </trkpt>
      <trkpt lat="42.405181000" lon="-2.625794000">
        <ele>635.60</ele>
        <time>2015-01-17T08:32:54Z</time>
      </trkpt>
      <trkpt lat="42.405177000" lon="-2.625808000">
        <ele>635.80</ele>
        <time>2015-01-17T08:32:55Z</time>
      </trkpt>
      <trkpt lat="42.405171000" lon="-2.625820000">
        <ele>635.90</ele>
        <time>2015-01-17T08:32:56Z</time>
      </trkpt>
      <trkpt lat="42.405166000" lon="-2.625830000">
        <ele>636.20</ele>
        <time>2015-01-17T08:32:57Z</time>
      </trkpt>
      <trkpt lat="42.405159000" lon="-2.625828000">
        <ele>636.50</ele>
        <time>2015-01-17T08:32:58Z</time>
      </trkpt>
      <trkpt lat="42.405157000" lon="-2.625835000">
        <ele>636.70</ele>
        <time>2015-01-17T08:32:59Z</time>
      </trkpt>
      <trkpt lat="42.405157000" lon="-2.625839000">
        <ele>637.10</ele>
        <time>2015-01-17T08:33:01Z</time>
      </trkpt>
      <trkpt lat="42.405155000" lon="-2.625844000">
        <ele>637.40</ele>
        <time>2015-01-17T08:33:02Z</time>
      </trkpt>
      <trkpt lat="42.405157000" lon="-2.625842000">
        <ele>637.40</ele>
        <time>2015-01-17T08:33:03Z</time>
      </trkpt>
      <trkpt lat="42.405157000" lon="-2.625842000">
        <ele>637.40</ele>
        <time>2015-01-17T08:33:04Z</time>
      </trkpt>
      <trkpt lat="42.405161000" lon="-2.625847000">
        <ele>637.50</ele>
        <time>2015-01-17T08:33:05Z</time>
      </trkpt>
      <trkpt lat="42.405163000" lon="-2.625846000">
        <ele>637.70</ele>
        <time>2015-01-17T08:33:06Z</time>
      </trkpt>
      <trkpt lat="42.405162000" lon="-2.625848000">
        <ele>637.80</ele>
        <time>2015-01-17T08:33:07Z</time>
      </trkpt>
      <trkpt lat="42.405163000" lon="-2.625845000">
        <ele>638.00</ele>
        <time>2015-01-17T08:33:08Z</time>
      </trkpt>
      <trkpt lat="42.405170000" lon="-2.625835000">
        <ele>638.10</ele>
        <time>2015-01-17T08:33:09Z</time>
      </trkpt>
      <trkpt lat="42.405172000" lon="-2.625841000">
        <ele>638.20</ele>
        <time>2015-01-17T08:33:10Z</time>
      </trkpt>
      <trkpt lat="42.405169000" lon="-2.625842000">
        <ele>638.30</ele>
        <time>2015-01-17T08:33:11Z</time>
      </trkpt>
      <trkpt lat="42.405168000" lon="-2.625844000">
        <ele>638.30</ele>
        <time>2015-01-17T08:33:12Z</time>
      </trkpt>
      <trkpt lat="42.405170000" lon="-2.625847000">
        <ele>638.30</ele>
        <time>2015-01-17T08:33:13Z</time>
      </trkpt>
      <trkpt lat="42.405171000" lon="-2.625848000">
        <ele>638.30</ele>
        <time>2015-01-17T08:33:14Z</time>
      </trkpt>
      <trkpt lat="42.405173000" lon="-2.625849000">
        <ele>638.20</ele>
        <time>2015-01-17T08:33:15Z</time>
      </trkpt>
      <trkpt lat="42.405175000" lon="-2.625850000">
        <ele>638.20</ele>
        <time>2015-01-17T08:33:16Z</time>
      </trkpt>
      <trkpt lat="42.405177000" lon="-2.625850000">
        <ele>638.20</ele>
        <time>2015-01-17T08:33:17Z</time>
      </trkpt>
      <trkpt lat="42.405183000" lon="-2.625860000">
        <ele>638.20</ele>
        <time>2015-01-17T08:33:18Z</time>
      </trkpt>
      <trkpt lat="42.405179000" lon="-2.625858000">
        <ele>638.30</ele>
        <time>2015-01-17T08:33:19Z</time>
      </trkpt>
      <trkpt lat="42.405176000" lon="-2.625860000">
        <ele>638.40</ele>
        <time>2015-01-17T08:33:20Z</time>
      </trkpt>
      <trkpt lat="42.405178000" lon="-2.625862000">
        <ele>638.40</ele>
        <time>2015-01-17T08:33:21Z</time>
      </trkpt>
      <trkpt lat="42.405178000" lon="-2.625864000">
        <ele>638.50</ele>
        <time>2015-01-17T08:33:22Z</time>
      </trkpt>
      <trkpt lat="42.405174000" lon="-2.625863000">
        <ele>638.50</ele>
        <time>2015-01-17T08:33:23Z</time>
      </trkpt>
      <trkpt lat="42.405169000" lon="-2.625863000">
        <ele>638.50</ele>
        <time>2015-01-17T08:33:24Z</time>
      </trkpt>
      <trkpt lat="42.405165000" lon="-2.625872000">
        <ele>638.50</ele>
        <time>2015-01-17T08:33:25Z</time>
      </trkpt>
      <trkpt lat="42.405164000" lon="-2.625880000">
        <ele>638.60</ele>
        <time>2015-01-17T08:33:26Z</time>
      </trkpt>
      <trkpt lat="42.405165000" lon="-2.625884000">
        <ele>638.60</ele>
        <time>2015-01-17T08:33:27Z</time>
      </trkpt>
      <trkpt lat="42.405155000" lon="-2.625888000">
        <ele>638.60</ele>
        <time>2015-01-17T08:33:28Z</time>
      </trkpt>
      <trkpt lat="42.405152000" lon="-2.625901000">
        <ele>638.60</ele>
        <time>2015-01-17T08:33:29Z</time>
      </trkpt>
      <trkpt lat="42.405151000" lon="-2.625905000">
        <ele>638.60</ele>
        <time>2015-01-17T08:33:30Z</time>
      </trkpt>
      <trkpt lat="42.405153000" lon="-2.625911000">
        <ele>638.60</ele>
        <time>2015-01-17T08:33:31Z</time>
      </trkpt>
      <trkpt lat="42.405150000" lon="-2.625918000">
        <ele>638.60</ele>
        <time>2015-01-17T08:33:32Z</time>
      </trkpt>
      <trkpt lat="42.405152000" lon="-2.625925000">
        <ele>638.80</ele>
        <time>2015-01-17T08:33:33Z</time>
      </trkpt>
      <trkpt lat="42.405150000" lon="-2.625928000">
        <ele>639.00</ele>
        <time>2015-01-17T08:33:34Z</time>
      </trkpt>
      <trkpt lat="42.405151000" lon="-2.625929000">
        <ele>638.90</ele>
        <time>2015-01-17T08:33:35Z</time>
      </trkpt>
      <trkpt lat="42.405156000" lon="-2.625938000">
        <ele>638.80</ele>
        <time>2015-01-17T08:33:36Z</time>
      </trkpt>
      <trkpt lat="42.405160000" lon="-2.625943000">
        <ele>638.80</ele>
        <time>2015-01-17T08:33:37Z</time>
      </trkpt>
      <trkpt lat="42.405161000" lon="-2.625948000">
        <ele>638.70</ele>
        <time>2015-01-17T08:33:38Z</time>
      </trkpt>
      <trkpt lat="42.405155000" lon="-2.625954000">
        <ele>638.70</ele>
        <time>2015-01-17T08:33:39Z</time>
      </trkpt>
      <trkpt lat="42.405153000" lon="-2.625960000">
        <ele>638.70</ele>
        <time>2015-01-17T08:33:40Z</time>
      </trkpt>
      <trkpt lat="42.405152000" lon="-2.625963000">
        <ele>638.70</ele>
        <time>2015-01-17T08:33:41Z</time>
      </trkpt>
      <trkpt lat="42.405149000" lon="-2.625964000">
        <ele>638.70</ele>
        <time>2015-01-17T08:33:42Z</time>
      </trkpt>
      <trkpt lat="42.405146000" lon="-2.625967000">
        <ele>638.70</ele>
        <time>2015-01-17T08:33:43Z</time>
      </trkpt>
      <trkpt lat="42.405144000" lon="-2.625966000">
        <ele>638.70</ele>
        <time>2015-01-17T08:33:44Z</time>
      </trkpt>
      <trkpt lat="42.405140000" lon="-2.625963000">
        <ele>638.70</ele>
        <time>2015-01-17T08:33:45Z</time>
      </trkpt>
      <trkpt lat="42.405140000" lon="-2.625958000">
        <ele>638.70</ele>
        <time>2015-01-17T08:33:46Z</time>
      </trkpt>
      <trkpt lat="42.405147000" lon="-2.625949000">
        <ele>638.80</ele>
        <time>2015-01-17T08:33:47Z</time>
      </trkpt>
      <trkpt lat="42.405146000" lon="-2.625946000">
        <ele>638.90</ele>
        <time>2015-01-17T08:33:48Z</time>
      </trkpt>
      <trkpt lat="42.405144000" lon="-2.625944000">
        <ele>639.00</ele>
        <time>2015-01-17T08:33:49Z</time>
      </trkpt>
      <trkpt lat="42.405145000" lon="-2.625938000">
        <ele>639.00</ele>
        <time>2015-01-17T08:33:50Z</time>
      </trkpt>
      <trkpt lat="42.405143000" lon="-2.625939000">
        <ele>639.10</ele>
        <time>2015-01-17T08:33:51Z</time>
      </trkpt>
      <trkpt lat="42.405141000" lon="-2.625947000">
        <ele>639.10</ele>
        <time>2015-01-17T08:33:52Z</time>
      </trkpt>
      <trkpt lat="42.405141000" lon="-2.625955000">
        <ele>639.10</ele>
        <time>2015-01-17T08:33:53Z</time>
      </trkpt>
      <trkpt lat="42.405138000" lon="-2.625954000">
        <ele>639.10</ele>
        <time>2015-01-17T08:33:54Z</time>
      </trkpt>
      <trkpt lat="42.405133000" lon="-2.625958000">
        <ele>639.10</ele>
        <time>2015-01-17T08:33:55Z</time>
      </trkpt>
      <trkpt lat="42.405135000" lon="-2.625960000">
        <ele>639.00</ele>
        <time>2015-01-17T08:33:56Z</time>
      </trkpt>
      <trkpt lat="42.405136000" lon="-2.625960000">
        <ele>638.90</ele>
        <time>2015-01-17T08:33:57Z</time>
      </trkpt>
      <trkpt lat="42.405134000" lon="-2.625962000">
        <ele>638.90</ele>
        <time>2015-01-17T08:33:58Z</time>
      </trkpt>
      <trkpt lat="42.405133000" lon="-2.625962000">
        <ele>639.00</ele>
        <time>2015-01-17T08:33:59Z</time>
      </trkpt>
      <trkpt lat="42.405134000" lon="-2.625963000">
        <ele>638.90</ele>
        <time>2015-01-17T08:34:00Z</time>
      </trkpt>
      <trkpt lat="42.405135000" lon="-2.625966000">
        <ele>639.00</ele>
        <time>2015-01-17T08:34:02Z</time>
      </trkpt>
      <trkpt lat="42.405133000" lon="-2.625967000">
        <ele>639.10</ele>
        <time>2015-01-17T08:34:03Z</time>
      </trkpt>
      <trkpt lat="42.405134000" lon="-2.625970000">
        <ele>639.10</ele>
        <time>2015-01-17T08:34:04Z</time>
      </trkpt>
      <trkpt lat="42.405134000" lon="-2.625970000">
        <ele>639.30</ele>
        <time>2015-01-17T08:34:05Z</time>
      </trkpt>
      <trkpt lat="42.405134000" lon="-2.625971000">
        <ele>639.40</ele>
        <time>2015-01-17T08:34:06Z</time>
      </trkpt>
      <trkpt lat="42.405132000" lon="-2.625973000">
        <ele>639.40</ele>
        <time>2015-01-17T08:34:07Z</time>
      </trkpt>
      <trkpt lat="42.405129000" lon="-2.625970000">
        <ele>639.50</ele>
        <time>2015-01-17T08:34:08Z</time>
      </trkpt>
      <trkpt lat="42.405127000" lon="-2.625967000">
        <ele>639.50</ele>
        <time>2015-01-17T08:34:09Z</time>
      </trkpt>
      <trkpt lat="42.405126000" lon="-2.625966000">
        <ele>639.60</ele>
        <time>2015-01-17T08:34:10Z</time>
      </trkpt>
      <trkpt lat="42.405125000" lon="-2.625966000">
        <ele>639.60</ele>
        <time>2015-01-17T08:34:11Z</time>
      </trkpt>
      <trkpt lat="42.405126000" lon="-2.625966000">
        <ele>639.50</ele>
        <time>2015-01-17T08:34:12Z</time>
      </trkpt>
      <trkpt lat="42.405126000" lon="-2.625963000">
        <ele>639.50</ele>
        <time>2015-01-17T08:34:13Z</time>
      </trkpt>
      <trkpt lat="42.405129000" lon="-2.625962000">
        <ele>639.30</ele>
        <time>2015-01-17T08:34:14Z</time>
      </trkpt>
      <trkpt lat="42.405130000" lon="-2.625960000">
        <ele>639.20</ele>
        <time>2015-01-17T08:34:15Z</time>
      </trkpt>
      <trkpt lat="42.405132000" lon="-2.625957000">
        <ele>639.30</ele>
        <time>2015-01-17T08:34:16Z</time>
      </trkpt>
      <trkpt lat="42.405131000" lon="-2.625951000">
        <ele>639.30</ele>
        <time>2015-01-17T08:34:17Z</time>
      </trkpt>
      <trkpt lat="42.405127000" lon="-2.625953000">
        <ele>639.20</ele>
        <time>2015-01-17T08:34:18Z</time>
      </trkpt>
      <trkpt lat="42.405127000" lon="-2.625953000">
        <ele>639.10</ele>
        <time>2015-01-17T08:34:19Z</time>
      </trkpt>
      <trkpt lat="42.405126000" lon="-2.625958000">
        <ele>639.00</ele>
        <time>2015-01-17T08:34:20Z</time>
      </trkpt>
      <trkpt lat="42.405127000" lon="-2.625959000">
        <ele>639.00</ele>
        <time>2015-01-17T08:34:21Z</time>
      </trkpt>
      <trkpt lat="42.405128000" lon="-2.625957000">
        <ele>639.00</ele>
        <time>2015-01-17T08:34:22Z</time>
      </trkpt>
      <trkpt lat="42.405129000" lon="-2.625960000">
        <ele>638.90</ele>
        <time>2015-01-17T08:34:23Z</time>
      </trkpt>
      <trkpt lat="42.405129000" lon="-2.625959000">
        <ele>638.80</ele>
        <time>2015-01-17T08:34:24Z</time>
      </trkpt>
      <trkpt lat="42.405129000" lon="-2.625959000">
        <ele>638.80</ele>
        <time>2015-01-17T08:34:25Z</time>
      </trkpt>
      <trkpt lat="42.405131000" lon="-2.625957000">
        <ele>638.70</ele>
        <time>2015-01-17T08:34:26Z</time>
      </trkpt>
      <trkpt lat="42.405132000" lon="-2.625951000">
        <ele>638.70</ele>
        <time>2015-01-17T08:34:27Z</time>
      </trkpt>
      <trkpt lat="42.405132000" lon="-2.625949000">
        <ele>638.90</ele>
        <time>2015-01-17T08:34:28Z</time>
      </trkpt>
      <trkpt lat="42.405129000" lon="-2.625943000">
        <ele>639.00</ele>
        <time>2015-01-17T08:34:29Z</time>
      </trkpt>
      <trkpt lat="42.405129000" lon="-2.625943000">
        <ele>639.10</ele>
        <time>2015-01-17T08:34:30Z</time>
      </trkpt>
      <trkpt lat="42.405131000" lon="-2.625941000">
        <ele>639.20</ele>
        <time>2015-01-17T08:34:31Z</time>
      </trkpt>
      <trkpt lat="42.405135000" lon="-2.625938000">
        <ele>639.00</ele>
        <time>2015-01-17T08:34:32Z</time>
      </trkpt>
      <trkpt lat="42.405136000" lon="-2.625936000">
        <ele>638.90</ele>
        <time>2015-01-17T08:34:33Z</time>
      </trkpt>
      <trkpt lat="42.405138000" lon="-2.625934000">
        <ele>638.80</ele>
        <time>2015-01-17T08:34:34Z</time>
      </trkpt>
      <trkpt lat="42.405140000" lon="-2.625932000">
        <ele>638.80</ele>
        <time>2015-01-17T08:34:35Z</time>
      </trkpt>
      <trkpt lat="42.405144000" lon="-2.625926000">
        <ele>638.70</ele>
        <time>2015-01-17T08:34:36Z</time>
      </trkpt>
      <trkpt lat="42.405149000" lon="-2.625926000">
        <ele>638.60</ele>
        <time>2015-01-17T08:34:37Z</time>
      </trkpt>
      <trkpt lat="42.405152000" lon="-2.625927000">
        <ele>638.50</ele>
        <time>2015-01-17T08:34:38Z</time>
      </trkpt>
      <trkpt lat="42.405151000" lon="-2.625927000">
        <ele>638.40</ele>
        <time>2015-01-17T08:34:39Z</time>
      </trkpt>
      <trkpt lat="42.405153000" lon="-2.625929000">
        <ele>638.40</ele>
        <time>2015-01-17T08:34:40Z</time>
      </trkpt>
      <trkpt lat="42.405155000" lon="-2.625927000">
        <ele>638.40</ele>
        <time>2015-01-17T08:34:41Z</time>
      </trkpt>
      <trkpt lat="42.405155000" lon="-2.625925000">
        <ele>638.50</ele>
        <time>2015-01-17T08:34:42Z</time>
      </trkpt>
      <trkpt lat="42.405156000" lon="-2.625924000">
        <ele>638.50</ele>
        <time>2015-01-17T08:34:43Z</time>
      </trkpt>
      <trkpt lat="42.405156000" lon="-2.625925000">
        <ele>638.60</ele>
        <time>2015-01-17T08:34:44Z</time>
      </trkpt>
      <trkpt lat="42.405156000" lon="-2.625925000">
        <ele>638.60</ele>
        <time>2015-01-17T08:34:45Z</time>
      </trkpt>
      <trkpt lat="42.405160000" lon="-2.625927000">
        <ele>638.70</ele>
        <time>2015-01-17T08:34:46Z</time>
      </trkpt>
      <trkpt lat="42.405162000" lon="-2.625932000">
        <ele>638.80</ele>
        <time>2015-01-17T08:34:47Z</time>
      </trkpt>
      <trkpt lat="42.405164000" lon="-2.625936000">
        <ele>638.90</ele>
        <time>2015-01-17T08:34:48Z</time>
      </trkpt>
      <trkpt lat="42.405163000" lon="-2.625932000">
        <ele>638.90</ele>
        <time>2015-01-17T08:34:49Z</time>
      </trkpt>
      <trkpt lat="42.405163000" lon="-2.625930000">
        <ele>638.80</ele>
        <time>2015-01-17T08:34:50Z</time>
      </trkpt>
      <trkpt lat="42.405161000" lon="-2.625927000">
        <ele>638.70</ele>
        <time>2015-01-17T08:34:51Z</time>
      </trkpt>
      <trkpt lat="42.405161000" lon="-2.625934000">
        <ele>638.60</ele>
        <time>2015-01-17T08:34:52Z</time>
      </trkpt>
      <trkpt lat="42.405163000" lon="-2.625940000">
        <ele>638.50</ele>
        <time>2015-01-17T08:34:53Z</time>
      </trkpt>
      <trkpt lat="42.405162000" lon="-2.625943000">
        <ele>638.40</ele>
        <time>2015-01-17T08:34:54Z</time>
      </trkpt>
      <trkpt lat="42.405161000" lon="-2.625945000">
        <ele>638.40</ele>
        <time>2015-01-17T08:34:55Z</time>
      </trkpt>
      <trkpt lat="42.405162000" lon="-2.625949000">
        <ele>638.40</ele>
        <time>2015-01-17T08:34:56Z</time>
      </trkpt>
      <trkpt lat="42.405162000" lon="-2.625950000">
        <ele>638.30</ele>
        <time>2015-01-17T08:34:57Z</time>
      </trkpt>
      <trkpt lat="42.405161000" lon="-2.625948000">
        <ele>638.40</ele>
        <time>2015-01-17T08:34:58Z</time>
      </trkpt>
      <trkpt lat="42.405160000" lon="-2.625947000">
        <ele>638.40</ele>
        <time>2015-01-17T08:34:59Z</time>
      </trkpt>
      <trkpt lat="42.405158000" lon="-2.625943000">
        <ele>638.40</ele>
        <time>2015-01-17T08:35:00Z</time>
      </trkpt>
      <trkpt lat="42.405155000" lon="-2.625939000">
        <ele>638.40</ele>
        <time>2015-01-17T08:35:01Z</time>
      </trkpt>
      <trkpt lat="42.405152000" lon="-2.625920000">
        <ele>638.50</ele>
        <time>2015-01-17T08:35:03Z</time>
      </trkpt>
      <trkpt lat="42.405151000" lon="-2.625912000">
        <ele>638.50</ele>
        <time>2015-01-17T08:35:04Z</time>
      </trkpt>
      <trkpt lat="42.405150000" lon="-2.625906000">
        <ele>638.40</ele>
        <time>2015-01-17T08:35:05Z</time>
      </trkpt>
      <trkpt lat="42.405147000" lon="-2.625903000">
        <ele>638.40</ele>
        <time>2015-01-17T08:35:06Z</time>
      </trkpt>
      <trkpt lat="42.405147000" lon="-2.625899000">
        <ele>638.40</ele>
        <time>2015-01-17T08:35:07Z</time>
      </trkpt>
      <trkpt lat="42.405146000" lon="-2.625897000">
        <ele>638.40</ele>
        <time>2015-01-17T08:35:08Z</time>
      </trkpt>
      <trkpt lat="42.405145000" lon="-2.625895000">
        <ele>638.30</ele>
        <time>2015-01-17T08:35:09Z</time>
      </trkpt>
      <trkpt lat="42.405145000" lon="-2.625894000">
        <ele>638.30</ele>
        <time>2015-01-17T08:35:10Z</time>
      </trkpt>
      <trkpt lat="42.405144000" lon="-2.625893000">
        <ele>638.20</ele>
        <time>2015-01-17T08:35:11Z</time>
      </trkpt>
      <trkpt lat="42.405145000" lon="-2.625895000">
        <ele>638.20</ele>
        <time>2015-01-17T08:35:12Z</time>
      </trkpt>
      <trkpt lat="42.405144000" lon="-2.625892000">
        <ele>638.20</ele>
        <time>2015-01-17T08:35:13Z</time>
      </trkpt>
      <trkpt lat="42.405143000" lon="-2.625891000">
        <ele>638.20</ele>
        <time>2015-01-17T08:35:14Z</time>
      </trkpt>
      <trkpt lat="42.405141000" lon="-2.625890000">
        <ele>638.20</ele>
        <time>2015-01-17T08:35:15Z</time>
      </trkpt>
      <trkpt lat="42.405141000" lon="-2.625889000">
        <ele>638.20</ele>
        <time>2015-01-17T08:35:16Z</time>
      </trkpt>
      <trkpt lat="42.405140000" lon="-2.625888000">
        <ele>638.20</ele>
        <time>2015-01-17T08:35:17Z</time>
      </trkpt>
      <trkpt lat="42.405137000" lon="-2.625887000">
        <ele>638.20</ele>
        <time>2015-01-17T08:35:18Z</time>
      </trkpt>
      <trkpt lat="42.405133000" lon="-2.625887000">
        <ele>638.20</ele>
        <time>2015-01-17T08:35:19Z</time>
      </trkpt>
      <trkpt lat="42.405131000" lon="-2.625885000">
        <ele>638.30</ele>
        <time>2015-01-17T08:35:20Z</time>
      </trkpt>
      <trkpt lat="42.405129000" lon="-2.625881000">
        <ele>638.40</ele>
        <time>2015-01-17T08:35:21Z</time>
      </trkpt>
      <trkpt lat="42.405128000" lon="-2.625880000">
        <ele>638.50</ele>
        <time>2015-01-17T08:35:22Z</time>
      </trkpt>
      <trkpt lat="42.405126000" lon="-2.625880000">
        <ele>638.50</ele>
        <time>2015-01-17T08:35:23Z</time>
      </trkpt>
      <trkpt lat="42.405122000" lon="-2.625882000">
        <ele>638.50</ele>
        <time>2015-01-17T08:35:24Z</time>
      </trkpt>
      <trkpt lat="42.405120000" lon="-2.625881000">
        <ele>638.50</ele>
        <time>2015-01-17T08:35:25Z</time>
      </trkpt>
      <trkpt lat="42.405119000" lon="-2.625881000">
        <ele>638.50</ele>
        <time>2015-01-17T08:35:26Z</time>
      </trkpt>
      <trkpt lat="42.405120000" lon="-2.625885000">
        <ele>638.50</ele>
        <time>2015-01-17T08:35:27Z</time>
      </trkpt>
      <trkpt lat="42.405122000" lon="-2.625889000">
        <ele>638.40</ele>
        <time>2015-01-17T08:35:28Z</time>
      </trkpt>
      <trkpt lat="42.405117000" lon="-2.625895000">
        <ele>638.40</ele>
        <time>2015-01-17T08:35:29Z</time>
      </trkpt>
      <trkpt lat="42.405113000" lon="-2.625898000">
        <ele>638.50</ele>
        <time>2015-01-17T08:35:30Z</time>
      </trkpt>
      <trkpt lat="42.405109000" lon="-2.625899000">
        <ele>638.50</ele>
        <time>2015-01-17T08:35:31Z</time>
      </trkpt>
      <trkpt lat="42.405106000" lon="-2.625901000">
        <ele>638.40</ele>
        <time>2015-01-17T08:35:32Z</time>
      </trkpt>
      <trkpt lat="42.405104000" lon="-2.625902000">
        <ele>638.40</ele>
        <time>2015-01-17T08:35:33Z</time>
      </trkpt>
      <trkpt lat="42.405102000" lon="-2.625905000">
        <ele>638.40</ele>
        <time>2015-01-17T08:35:34Z</time>
      </trkpt>
      <trkpt lat="42.405100000" lon="-2.625905000">
        <ele>638.50</ele>
        <time>2015-01-17T08:35:35Z</time>
      </trkpt>
      <trkpt lat="42.405100000" lon="-2.625906000">
        <ele>638.50</ele>
        <time>2015-01-17T08:35:36Z</time>
      </trkpt>
      <trkpt lat="42.405101000" lon="-2.625906000">
        <ele>638.50</ele>
        <time>2015-01-17T08:35:37Z</time>
      </trkpt>
      <trkpt lat="42.405102000" lon="-2.625906000">
        <ele>638.40</ele>
        <time>2015-01-17T08:35:38Z</time>
      </trkpt>
      <trkpt lat="42.405102000" lon="-2.625905000">
        <ele>638.40</ele>
        <time>2015-01-17T08:35:39Z</time>
      </trkpt>
      <trkpt lat="42.405102000" lon="-2.625907000">
        <ele>638.40</ele>
        <time>2015-01-17T08:35:40Z</time>
      </trkpt>
      <trkpt lat="42.405103000" lon="-2.625909000">
        <ele>638.40</ele>
        <time>2015-01-17T08:35:41Z</time>
      </trkpt>
      <trkpt lat="42.405105000" lon="-2.625908000">
        <ele>638.40</ele>
        <time>2015-01-17T08:35:42Z</time>
      </trkpt>
      <trkpt lat="42.405107000" lon="-2.625908000">
        <ele>638.30</ele>
        <time>2015-01-17T08:35:43Z</time>
      </trkpt>
      <trkpt lat="42.405106000" lon="-2.625910000">
        <ele>638.30</ele>
        <time>2015-01-17T08:35:44Z</time>
      </trkpt>
      <trkpt lat="42.405107000" lon="-2.625911000">
        <ele>638.20</ele>
        <time>2015-01-17T08:35:45Z</time>
      </trkpt>
      <trkpt lat="42.405109000" lon="-2.625912000">
        <ele>638.20</ele>
        <time>2015-01-17T08:35:46Z</time>
      </trkpt>
      <trkpt lat="42.405110000" lon="-2.625915000">
        <ele>638.20</ele>
        <time>2015-01-17T08:35:47Z</time>
      </trkpt>
      <trkpt lat="42.405110000" lon="-2.625917000">
        <ele>638.10</ele>
        <time>2015-01-17T08:35:48Z</time>
      </trkpt>
      <trkpt lat="42.405112000" lon="-2.625918000">
        <ele>638.10</ele>
        <time>2015-01-17T08:35:49Z</time>
      </trkpt>
      <trkpt lat="42.405116000" lon="-2.625921000">
        <ele>638.10</ele>
        <time>2015-01-17T08:35:50Z</time>
      </trkpt>
      <trkpt lat="42.405120000" lon="-2.625917000">
        <ele>638.20</ele>
        <time>2015-01-17T08:35:51Z</time>
      </trkpt>
      <trkpt lat="42.405121000" lon="-2.625908000">
        <ele>638.30</ele>
        <time>2015-01-17T08:35:52Z</time>
      </trkpt>
      <trkpt lat="42.405126000" lon="-2.625908000">
        <ele>638.40</ele>
        <time>2015-01-17T08:35:53Z</time>
      </trkpt>
      <trkpt lat="42.405129000" lon="-2.625907000">
        <ele>638.50</ele>
        <time>2015-01-17T08:35:54Z</time>
      </trkpt>
      <trkpt lat="42.405130000" lon="-2.625906000">
        <ele>638.50</ele>
        <time>2015-01-17T08:35:55Z</time>
      </trkpt>
      <trkpt lat="42.405131000" lon="-2.625905000">
        <ele>638.40</ele>
        <time>2015-01-17T08:35:56Z</time>
      </trkpt>
      <trkpt lat="42.405131000" lon="-2.625907000">
        <ele>638.40</ele>
        <time>2015-01-17T08:35:57Z</time>
      </trkpt>
      <trkpt lat="42.405130000" lon="-2.625908000">
        <ele>638.30</ele>
        <time>2015-01-17T08:35:58Z</time>
      </trkpt>
      <trkpt lat="42.405128000" lon="-2.625909000">
        <ele>638.30</ele>
        <time>2015-01-17T08:35:59Z</time>
      </trkpt>
      <trkpt lat="42.405128000" lon="-2.625906000">
        <ele>638.20</ele>
        <time>2015-01-17T08:36:00Z</time>
      </trkpt>
      <trkpt lat="42.405128000" lon="-2.625905000">
        <ele>638.20</ele>
        <time>2015-01-17T08:36:01Z</time>
      </trkpt>
      <trkpt lat="42.405128000" lon="-2.625905000">
        <ele>638.10</ele>
        <time>2015-01-17T08:36:02Z</time>
      </trkpt>
      <trkpt lat="42.405128000" lon="-2.625906000">
        <ele>638.00</ele>
        <time>2015-01-17T08:36:04Z</time>
      </trkpt>
      <trkpt lat="42.405127000" lon="-2.625903000">
        <ele>638.00</ele>
        <time>2015-01-17T08:36:05Z</time>
      </trkpt>
      <trkpt lat="42.405127000" lon="-2.625900000">
        <ele>638.00</ele>
        <time>2015-01-17T08:36:06Z</time>
      </trkpt>
      <trkpt lat="42.405128000" lon="-2.625897000">
        <ele>637.90</ele>
        <time>2015-01-17T08:36:07Z</time>
      </trkpt>
      <trkpt lat="42.405129000" lon="-2.625895000">
        <ele>638.00</ele>
        <time>2015-01-17T08:36:08Z</time>
      </trkpt>
      <trkpt lat="42.405128000" lon="-2.625892000">
        <ele>638.00</ele>
        <time>2015-01-17T08:36:09Z</time>
      </trkpt>
      <trkpt lat="42.405127000" lon="-2.625891000">
        <ele>638.10</ele>
        <time>2015-01-17T08:36:10Z</time>
      </trkpt>
      <trkpt lat="42.405127000" lon="-2.625889000">
        <ele>638.10</ele>
        <time>2015-01-17T08:36:11Z</time>
      </trkpt>
      <trkpt lat="42.405127000" lon="-2.625888000">
        <ele>638.20</ele>
        <time>2015-01-17T08:36:12Z</time>
      </trkpt>
      <trkpt lat="42.405126000" lon="-2.625887000">
        <ele>638.20</ele>
        <time>2015-01-17T08:36:13Z</time>
      </trkpt>
      <trkpt lat="42.405125000" lon="-2.625887000">
        <ele>638.30</ele>
        <time>2015-01-17T08:36:14Z</time>
      </trkpt>
      <trkpt lat="42.405123000" lon="-2.625886000">
        <ele>638.30</ele>
        <time>2015-01-17T08:36:15Z</time>
      </trkpt>
      <trkpt lat="42.405123000" lon="-2.625883000">
        <ele>638.30</ele>
        <time>2015-01-17T08:36:16Z</time>
      </trkpt>
      <trkpt lat="42.405124000" lon="-2.625880000">
        <ele>638.20</ele>
        <time>2015-01-17T08:36:17Z</time>
      </trkpt>
      <trkpt lat="42.405124000" lon="-2.625878000">
        <ele>638.20</ele>
        <time>2015-01-17T08:36:18Z</time>
      </trkpt>
      <trkpt lat="42.405124000" lon="-2.625876000">
        <ele>638.20</ele>
        <time>2015-01-17T08:36:19Z</time>
      </trkpt>
      <trkpt lat="42.405124000" lon="-2.625873000">
        <ele>638.20</ele>
        <time>2015-01-17T08:36:20Z</time>
      </trkpt>
      <trkpt lat="42.405125000" lon="-2.625871000">
        <ele>638.20</ele>
        <time>2015-01-17T08:36:21Z</time>
      </trkpt>
      <trkpt lat="42.405125000" lon="-2.625870000">
        <ele>638.20</ele>
        <time>2015-01-17T08:36:22Z</time>
      </trkpt>
      <trkpt lat="42.405124000" lon="-2.625870000">
        <ele>638.20</ele>
        <time>2015-01-17T08:36:23Z</time>
      </trkpt>
      <trkpt lat="42.405123000" lon="-2.625869000">
        <ele>638.20</ele>
        <time>2015-01-17T08:36:24Z</time>
      </trkpt>
      <trkpt lat="42.405121000" lon="-2.625868000">
        <ele>638.20</ele>
        <time>2015-01-17T08:36:25Z</time>
      </trkpt>
      <trkpt lat="42.405120000" lon="-2.625862000">
        <ele>638.20</ele>
        <time>2015-01-17T08:36:26Z</time>
      </trkpt>
      <trkpt lat="42.405121000" lon="-2.625857000">
        <ele>638.20</ele>
        <time>2015-01-17T08:36:27Z</time>
      </trkpt>
      <trkpt lat="42.405120000" lon="-2.625852000">
        <ele>638.20</ele>
        <time>2015-01-17T08:36:28Z</time>
      </trkpt>
      <trkpt lat="42.405120000" lon="-2.625850000">
        <ele>638.20</ele>
        <time>2015-01-17T08:36:29Z</time>
      </trkpt>
      <trkpt lat="42.405120000" lon="-2.625847000">
        <ele>638.00</ele>
        <time>2015-01-17T08:36:30Z</time>
      </trkpt>
      <trkpt lat="42.405121000" lon="-2.625844000">
        <ele>637.90</ele>
        <time>2015-01-17T08:36:31Z</time>
      </trkpt>
      <trkpt lat="42.405121000" lon="-2.625840000">
        <ele>638.00</ele>
        <time>2015-01-17T08:36:32Z</time>
      </trkpt>
      <trkpt lat="42.405124000" lon="-2.625836000">
        <ele>638.00</ele>
        <time>2015-01-17T08:36:33Z</time>
      </trkpt>
      <trkpt lat="42.405126000" lon="-2.625836000">
        <ele>638.10</ele>
        <time>2015-01-17T08:36:34Z</time>
      </trkpt>
      <trkpt lat="42.405127000" lon="-2.625835000">
        <ele>638.10</ele>
        <time>2015-01-17T08:36:35Z</time>
      </trkpt>
      <trkpt lat="42.405127000" lon="-2.625834000">
        <ele>638.20</ele>
        <time>2015-01-17T08:36:36Z</time>
      </trkpt>
      <trkpt lat="42.405130000" lon="-2.625830000">
        <ele>638.20</ele>
        <time>2015-01-17T08:36:37Z</time>
      </trkpt>
      <trkpt lat="42.405136000" lon="-2.625830000">
        <ele>638.30</ele>
        <time>2015-01-17T08:36:38Z</time>
      </trkpt>
      <trkpt lat="42.405140000" lon="-2.625830000">
        <ele>638.40</ele>
        <time>2015-01-17T08:36:39Z</time>
      </trkpt>
      <trkpt lat="42.405144000" lon="-2.625831000">
        <ele>638.50</ele>
        <time>2015-01-17T08:36:40Z</time>
      </trkpt>
      <trkpt lat="42.405143000" lon="-2.625839000">
        <ele>638.50</ele>
        <time>2015-01-17T08:36:41Z</time>
      </trkpt>
      <trkpt lat="42.405144000" lon="-2.625834000">
        <ele>638.40</ele>
        <time>2015-01-17T08:36:42Z</time>
      </trkpt>
      <trkpt lat="42.405145000" lon="-2.625838000">
        <ele>638.40</ele>
        <time>2015-01-17T08:36:43Z</time>
      </trkpt>
      <trkpt lat="42.405145000" lon="-2.625845000">
        <ele>638.30</ele>
        <time>2015-01-17T08:36:44Z</time>
      </trkpt>
      <trkpt lat="42.405148000" lon="-2.625843000">
        <ele>638.30</ele>
        <time>2015-01-17T08:36:45Z</time>
      </trkpt>
      <trkpt lat="42.405158000" lon="-2.625838000">
        <ele>638.40</ele>
        <time>2015-01-17T08:36:46Z</time>
      </trkpt>
      <trkpt lat="42.405173000" lon="-2.625847000">
        <ele>638.40</ele>
        <time>2015-01-17T08:36:47Z</time>
      </trkpt>
      <trkpt lat="42.405188000" lon="-2.625855000">
        <ele>638.60</ele>
        <time>2015-01-17T08:36:48Z</time>
      </trkpt>
      <trkpt lat="42.405195000" lon="-2.625856000">
        <ele>638.70</ele>
        <time>2015-01-17T08:36:49Z</time>
      </trkpt>
      <trkpt lat="42.405197000" lon="-2.625853000">
        <ele>638.70</ele>
        <time>2015-01-17T08:36:50Z</time>
      </trkpt>
      <trkpt lat="42.405200000" lon="-2.625852000">
        <ele>638.70</ele>
        <time>2015-01-17T08:36:51Z</time>
      </trkpt>
      <trkpt lat="42.405204000" lon="-2.625859000">
        <ele>638.70</ele>
        <time>2015-01-17T08:36:52Z</time>
      </trkpt>
      <trkpt lat="42.405209000" lon="-2.625859000">
        <ele>638.70</ele>
        <time>2015-01-17T08:36:53Z</time>
      </trkpt>
      <trkpt lat="42.405210000" lon="-2.625853000">
        <ele>638.60</ele>
        <time>2015-01-17T08:36:54Z</time>
      </trkpt>
      <trkpt lat="42.405207000" lon="-2.625849000">
        <ele>638.60</ele>
        <time>2015-01-17T08:36:55Z</time>
      </trkpt>
      <trkpt lat="42.405202000" lon="-2.625845000">
        <ele>638.50</ele>
        <time>2015-01-17T08:36:56Z</time>
      </trkpt>
      <trkpt lat="42.405196000" lon="-2.625838000">
        <ele>638.40</ele>
        <time>2015-01-17T08:36:57Z</time>
      </trkpt>
      <trkpt lat="42.405189000" lon="-2.625840000">
        <ele>638.30</ele>
        <time>2015-01-17T08:36:58Z</time>
      </trkpt>
      <trkpt lat="42.405178000" lon="-2.625847000">
        <ele>638.20</ele>
        <time>2015-01-17T08:36:59Z</time>
      </trkpt>
      <trkpt lat="42.405171000" lon="-2.625849000">
        <ele>638.20</ele>
        <time>2015-01-17T08:37:00Z</time>
      </trkpt>
      <trkpt lat="42.405169000" lon="-2.625854000">
        <ele>638.10</ele>
        <time>2015-01-17T08:37:01Z</time>
      </trkpt>
      <trkpt lat="42.405165000" lon="-2.625856000">
        <ele>638.10</ele>
        <time>2015-01-17T08:37:02Z</time>
      </trkpt>
      <trkpt lat="42.405161000" lon="-2.625854000">
        <ele>638.20</ele>
        <time>2015-01-17T08:37:03Z</time>
      </trkpt>
      <trkpt lat="42.405153000" lon="-2.625860000">
        <ele>638.20</ele>
        <time>2015-01-17T08:37:05Z</time>
      </trkpt>
      <trkpt lat="42.405149000" lon="-2.625860000">
        <ele>638.20</ele>
        <time>2015-01-17T08:37:06Z</time>
      </trkpt>
      <trkpt lat="42.405150000" lon="-2.625866000">
        <ele>638.20</ele>
        <time>2015-01-17T08:37:07Z</time>
      </trkpt>
      <trkpt lat="42.405147000" lon="-2.625864000">
        <ele>638.20</ele>
        <time>2015-01-17T08:37:08Z</time>
      </trkpt>
      <trkpt lat="42.405147000" lon="-2.625863000">
        <ele>638.10</ele>
        <time>2015-01-17T08:37:09Z</time>
      </trkpt>
      <trkpt lat="42.405145000" lon="-2.625866000">
        <ele>638.20</ele>
        <time>2015-01-17T08:37:10Z</time>
      </trkpt>
      <trkpt lat="42.405141000" lon="-2.625867000">
        <ele>638.30</ele>
        <time>2015-01-17T08:37:11Z</time>
      </trkpt>
      <trkpt lat="42.405140000" lon="-2.625865000">
        <ele>638.20</ele>
        <time>2015-01-17T08:37:12Z</time>
      </trkpt>
      <trkpt lat="42.405141000" lon="-2.625863000">
        <ele>638.10</ele>
        <time>2015-01-17T08:37:13Z</time>
      </trkpt>
      <trkpt lat="42.405140000" lon="-2.625862000">
        <ele>638.20</ele>
        <time>2015-01-17T08:37:14Z</time>
      </trkpt>
      <trkpt lat="42.405143000" lon="-2.625859000">
        <ele>638.30</ele>
        <time>2015-01-17T08:37:15Z</time>
      </trkpt>
      <trkpt lat="42.405146000" lon="-2.625848000">
        <ele>638.40</ele>
        <time>2015-01-17T08:37:16Z</time>
      </trkpt>
      <trkpt lat="42.405148000" lon="-2.625846000">
        <ele>638.50</ele>
        <time>2015-01-17T08:37:17Z</time>
      </trkpt>
      <trkpt lat="42.405150000" lon="-2.625843000">
        <ele>638.60</ele>
        <time>2015-01-17T08:37:18Z</time>
      </trkpt>
      <trkpt lat="42.405156000" lon="-2.625843000">
        <ele>638.70</ele>
        <time>2015-01-17T08:37:19Z</time>
      </trkpt>
      <trkpt lat="42.405161000" lon="-2.625833000">
        <ele>638.80</ele>
        <time>2015-01-17T08:37:20Z</time>
      </trkpt>
      <trkpt lat="42.405163000" lon="-2.625832000">
        <ele>638.90</ele>
        <time>2015-01-17T08:37:21Z</time>
      </trkpt>
      <trkpt lat="42.405165000" lon="-2.625830000">
        <ele>638.80</ele>
        <time>2015-01-17T08:37:22Z</time>
      </trkpt>
      <trkpt lat="42.405165000" lon="-2.625830000">
        <ele>638.60</ele>
        <time>2015-01-17T08:37:23Z</time>
      </trkpt>
      <trkpt lat="42.405164000" lon="-2.625835000">
        <ele>638.50</ele>
        <time>2015-01-17T08:37:24Z</time>
      </trkpt>
      <trkpt lat="42.405161000" lon="-2.625843000">
        <ele>638.50</ele>
        <time>2015-01-17T08:37:25Z</time>
      </trkpt>
      <trkpt lat="42.405159000" lon="-2.625851000">
        <ele>638.50</ele>
        <time>2015-01-17T08:37:26Z</time>
      </trkpt>
      <trkpt lat="42.405156000" lon="-2.625851000">
        <ele>638.40</ele>
        <time>2015-01-17T08:37:27Z</time>
      </trkpt>
      <trkpt lat="42.405160000" lon="-2.625844000">
        <ele>638.40</ele>
        <time>2015-01-17T08:37:28Z</time>
      </trkpt>
      <trkpt lat="42.405163000" lon="-2.625834000">
        <ele>638.30</ele>
        <time>2015-01-17T08:37:29Z</time>
      </trkpt>
      <trkpt lat="42.405165000" lon="-2.625825000">
        <ele>638.30</ele>
        <time>2015-01-17T08:37:30Z</time>
      </trkpt>
      <trkpt lat="42.405164000" lon="-2.625820000">
        <ele>638.30</ele>
        <time>2015-01-17T08:37:31Z</time>
      </trkpt>
      <trkpt lat="42.405159000" lon="-2.625820000">
        <ele>638.30</ele>
        <time>2015-01-17T08:37:32Z</time>
      </trkpt>
      <trkpt lat="42.405156000" lon="-2.625822000">
        <ele>638.30</ele>
        <time>2015-01-17T08:37:33Z</time>
      </trkpt>
      <trkpt lat="42.405154000" lon="-2.625831000">
        <ele>638.40</ele>
        <time>2015-01-17T08:37:34Z</time>
      </trkpt>
      <trkpt lat="42.405152000" lon="-2.625847000">
        <ele>638.40</ele>
        <time>2015-01-17T08:37:35Z</time>
      </trkpt>
      <trkpt lat="42.405151000" lon="-2.625852000">
        <ele>638.40</ele>
        <time>2015-01-17T08:37:36Z</time>
      </trkpt>
      <trkpt lat="42.405152000" lon="-2.625861000">
        <ele>638.40</ele>
        <time>2015-01-17T08:37:37Z</time>
      </trkpt>
      <trkpt lat="42.405149000" lon="-2.625874000">
        <ele>638.50</ele>
        <time>2015-01-17T08:37:38Z</time>
      </trkpt>
      <trkpt lat="42.405145000" lon="-2.625889000">
        <ele>638.40</ele>
        <time>2015-01-17T08:37:39Z</time>
      </trkpt>
      <trkpt lat="42.405137000" lon="-2.625903000">
        <ele>638.40</ele>
        <time>2015-01-17T08:37:40Z</time>
      </trkpt>
      <trkpt lat="42.405129000" lon="-2.625917000">
        <ele>638.40</ele>
        <time>2015-01-17T08:37:41Z</time>
      </trkpt>
      <trkpt lat="42.405116000" lon="-2.625923000">
        <ele>638.40</ele>
        <time>2015-01-17T08:37:42Z</time>
      </trkpt>
      <trkpt lat="42.405101000" lon="-2.625928000">
        <ele>638.40</ele>
        <time>2015-01-17T08:37:43Z</time>
      </trkpt>
      <trkpt lat="42.405084000" lon="-2.625934000">
        <ele>638.50</ele>
        <time>2015-01-17T08:37:44Z</time>
      </trkpt>
      <trkpt lat="42.405066000" lon="-2.625938000">
        <ele>638.60</ele>
        <time>2015-01-17T08:37:45Z</time>
      </trkpt>
      <trkpt lat="42.405057000" lon="-2.625939000">
        <ele>638.70</ele>
        <time>2015-01-17T08:37:46Z</time>
      </trkpt>
      <trkpt lat="42.405038000" lon="-2.625942000">
        <ele>638.80</ele>
        <time>2015-01-17T08:37:47Z</time>
      </trkpt>
      <trkpt lat="42.405025000" lon="-2.625948000">
        <ele>638.90</ele>
        <time>2015-01-17T08:37:48Z</time>
      </trkpt>
      <trkpt lat="42.405009000" lon="-2.625954000">
        <ele>639.20</ele>
        <time>2015-01-17T08:37:49Z</time>
      </trkpt>
      <trkpt lat="42.405000000" lon="-2.625958000">
        <ele>639.30</ele>
        <time>2015-01-17T08:37:50Z</time>
      </trkpt>
      <trkpt lat="42.404984000" lon="-2.625965000">
        <ele>639.60</ele>
        <time>2015-01-17T08:37:51Z</time>
      </trkpt>
      <trkpt lat="42.404972000" lon="-2.625967000">
        <ele>639.80</ele>
        <time>2015-01-17T08:37:52Z</time>
      </trkpt>
      <trkpt lat="42.404957000" lon="-2.625973000">
        <ele>640.10</ele>
        <time>2015-01-17T08:37:53Z</time>
      </trkpt>
      <trkpt lat="42.404946000" lon="-2.625977000">
        <ele>640.30</ele>
        <time>2015-01-17T08:37:54Z</time>
      </trkpt>
      <trkpt lat="42.404933000" lon="-2.625980000">
        <ele>640.70</ele>
        <time>2015-01-17T08:37:55Z</time>
      </trkpt>
      <trkpt lat="42.404920000" lon="-2.625982000">
        <ele>641.00</ele>
        <time>2015-01-17T08:37:56Z</time>
      </trkpt>
      <trkpt lat="42.404910000" lon="-2.625982000">
        <ele>641.20</ele>
        <time>2015-01-17T08:37:57Z</time>
      </trkpt>
      <trkpt lat="42.404898000" lon="-2.625982000">
        <ele>641.40</ele>
        <time>2015-01-17T08:37:58Z</time>
      </trkpt>
      <trkpt lat="42.404887000" lon="-2.625985000">
        <ele>641.70</ele>
        <time>2015-01-17T08:37:59Z</time>
      </trkpt>
      <trkpt lat="42.404878000" lon="-2.625994000">
        <ele>641.90</ele>
        <time>2015-01-17T08:38:00Z</time>
      </trkpt>
      <trkpt lat="42.404869000" lon="-2.625991000">
        <ele>642.00</ele>
        <time>2015-01-17T08:38:01Z</time>
      </trkpt>
      <trkpt lat="42.404856000" lon="-2.625989000">
        <ele>642.20</ele>
        <time>2015-01-17T08:38:02Z</time>
      </trkpt>
      <trkpt lat="42.404843000" lon="-2.625980000">
        <ele>642.30</ele>
        <time>2015-01-17T08:38:03Z</time>
      </trkpt>
      <trkpt lat="42.404832000" lon="-2.625976000">
        <ele>642.30</ele>
        <time>2015-01-17T08:38:04Z</time>
      </trkpt>
      <trkpt lat="42.404811000" lon="-2.625961000">
        <ele>642.50</ele>
        <time>2015-01-17T08:38:06Z</time>
      </trkpt>
      <trkpt lat="42.404804000" lon="-2.625956000">
        <ele>642.70</ele>
        <time>2015-01-17T08:38:07Z</time>
      </trkpt>
      <trkpt lat="42.404798000" lon="-2.625946000">
        <ele>642.80</ele>
        <time>2015-01-17T08:38:08Z</time>
      </trkpt>
      <trkpt lat="42.404790000" lon="-2.625938000">
        <ele>642.80</ele>
        <time>2015-01-17T08:38:09Z</time>
      </trkpt>
      <trkpt lat="42.404788000" lon="-2.625927000">
        <ele>642.90</ele>
        <time>2015-01-17T08:38:10Z</time>
      </trkpt>
      <trkpt lat="42.404777000" lon="-2.625913000">
        <ele>642.70</ele>
        <time>2015-01-17T08:38:11Z</time>
      </trkpt>
      <trkpt lat="42.404757000" lon="-2.625901000">
        <ele>642.60</ele>
        <time>2015-01-17T08:38:12Z</time>
      </trkpt>
      <trkpt lat="42.404731000" lon="-2.625894000">
        <ele>642.50</ele>
        <time>2015-01-17T08:38:13Z</time>
      </trkpt>
      <trkpt lat="42.404706000" lon="-2.625887000">
        <ele>642.50</ele>
        <time>2015-01-17T08:38:14Z</time>
      </trkpt>
      <trkpt lat="42.404677000" lon="-2.625880000">
        <ele>642.50</ele>
        <time>2015-01-17T08:38:15Z</time>
      </trkpt>
      <trkpt lat="42.404643000" lon="-2.625869000">
        <ele>642.50</ele>
        <time>2015-01-17T08:38:16Z</time>
      </trkpt>
      <trkpt lat="42.404602000" lon="-2.625864000">
        <ele>642.50</ele>
        <time>2015-01-17T08:38:17Z</time>
      </trkpt>
      <trkpt lat="42.404555000" lon="-2.625858000">
        <ele>642.50</ele>
        <time>2015-01-17T08:38:18Z</time>
      </trkpt>
      <trkpt lat="42.404500000" lon="-2.625855000">
        <ele>642.40</ele>
        <time>2015-01-17T08:38:19Z</time>
      </trkpt>
      <trkpt lat="42.404444000" lon="-2.625862000">
        <ele>642.30</ele>
        <time>2015-01-17T08:38:20Z</time>
      </trkpt>
      <trkpt lat="42.404387000" lon="-2.625871000">
        <ele>642.10</ele>
        <time>2015-01-17T08:38:21Z</time>
      </trkpt>
      <trkpt lat="42.404335000" lon="-2.625881000">
        <ele>641.90</ele>
        <time>2015-01-17T08:38:22Z</time>
      </trkpt>
      <trkpt lat="42.404289000" lon="-2.625891000">
        <ele>641.70</ele>
        <time>2015-01-17T08:38:23Z</time>
      </trkpt>
      <trkpt lat="42.404256000" lon="-2.625901000">
        <ele>641.60</ele>
        <time>2015-01-17T08:38:24Z</time>
      </trkpt>
      <trkpt lat="42.404240000" lon="-2.625905000">
        <ele>640.90</ele>
        <time>2015-01-17T08:38:25Z</time>
      </trkpt>
      <trkpt lat="42.404224000" lon="-2.625913000">
        <ele>640.40</ele>
        <time>2015-01-17T08:38:26Z</time>
      </trkpt>
      <trkpt lat="42.404208000" lon="-2.625933000">
        <ele>639.70</ele>
        <time>2015-01-17T08:38:27Z</time>
      </trkpt>
      <trkpt lat="42.404197000" lon="-2.625946000">
        <ele>639.10</ele>
        <time>2015-01-17T08:38:28Z</time>
      </trkpt>
      <trkpt lat="42.404179000" lon="-2.625969000">
        <ele>638.50</ele>
        <time>2015-01-17T08:38:29Z</time>
      </trkpt>
      <trkpt lat="42.404160000" lon="-2.625991000">
        <ele>638.10</ele>
        <time>2015-01-17T08:38:30Z</time>
      </trkpt>
      <trkpt lat="42.404151000" lon="-2.626013000">
        <ele>637.80</ele>
        <time>2015-01-17T08:38:31Z</time>
      </trkpt>
      <trkpt lat="42.404141000" lon="-2.626031000">
        <ele>637.60</ele>
        <time>2015-01-17T08:38:32Z</time>
      </trkpt>
      <trkpt lat="42.404131000" lon="-2.626053000">
        <ele>637.30</ele>
        <time>2015-01-17T08:38:33Z</time>
      </trkpt>
      <trkpt lat="42.404119000" lon="-2.626073000">
        <ele>637.10</ele>
        <time>2015-01-17T08:38:34Z</time>
      </trkpt>
      <trkpt lat="42.404107000" lon="-2.626096000">
        <ele>636.90</ele>
        <time>2015-01-17T08:38:35Z</time>
      </trkpt>
      <trkpt lat="42.404093000" lon="-2.626117000">
        <ele>636.70</ele>
        <time>2015-01-17T08:38:36Z</time>
      </trkpt>
      <trkpt lat="42.404078000" lon="-2.626144000">
        <ele>636.60</ele>
        <time>2015-01-17T08:38:37Z</time>
      </trkpt>
      <trkpt lat="42.404065000" lon="-2.626173000">
        <ele>636.50</ele>
        <time>2015-01-17T08:38:38Z</time>
      </trkpt>
      <trkpt lat="42.404053000" lon="-2.626201000">
        <ele>636.40</ele>
        <time>2015-01-17T08:38:39Z</time>
      </trkpt>
      <trkpt lat="42.404041000" lon="-2.626229000">
        <ele>636.30</ele>
        <time>2015-01-17T08:38:40Z</time>
      </trkpt>
      <trkpt lat="42.404033000" lon="-2.626253000">
        <ele>636.30</ele>
        <time>2015-01-17T08:38:41Z</time>
      </trkpt>
      <trkpt lat="42.404041000" lon="-2.626273000">
        <ele>636.20</ele>
        <time>2015-01-17T08:38:42Z</time>
      </trkpt>
      <trkpt lat="42.404031000" lon="-2.626298000">
        <ele>636.10</ele>
        <time>2015-01-17T08:38:43Z</time>
      </trkpt>
      <trkpt lat="42.404016000" lon="-2.626324000">
        <ele>636.10</ele>
        <time>2015-01-17T08:38:44Z</time>
      </trkpt>
      <trkpt lat="42.404000000" lon="-2.626351000">
        <ele>636.00</ele>
        <time>2015-01-17T08:38:45Z</time>
      </trkpt>
      <trkpt lat="42.403987000" lon="-2.626373000">
        <ele>636.00</ele>
        <time>2015-01-17T08:38:46Z</time>
      </trkpt>
      <trkpt lat="42.403973000" lon="-2.626395000">
        <ele>636.00</ele>
        <time>2015-01-17T08:38:47Z</time>
      </trkpt>
      <trkpt lat="42.403954000" lon="-2.626417000">
        <ele>635.90</ele>
        <time>2015-01-17T08:38:48Z</time>
      </trkpt>
      <trkpt lat="42.403936000" lon="-2.626447000">
        <ele>636.00</ele>
        <time>2015-01-17T08:38:49Z</time>
      </trkpt>
      <trkpt lat="42.403921000" lon="-2.626476000">
        <ele>636.00</ele>
        <time>2015-01-17T08:38:50Z</time>
      </trkpt>
      <trkpt lat="42.403908000" lon="-2.626498000">
        <ele>636.00</ele>
        <time>2015-01-17T08:38:51Z</time>
      </trkpt>
      <trkpt lat="42.403897000" lon="-2.626523000">
        <ele>636.10</ele>
        <time>2015-01-17T08:38:52Z</time>
      </trkpt>
      <trkpt lat="42.403887000" lon="-2.626545000">
        <ele>636.10</ele>
        <time>2015-01-17T08:38:53Z</time>
      </trkpt>
      <trkpt lat="42.403877000" lon="-2.626569000">
        <ele>636.10</ele>
        <time>2015-01-17T08:38:54Z</time>
      </trkpt>
      <trkpt lat="42.403870000" lon="-2.626589000">
        <ele>636.00</ele>
        <time>2015-01-17T08:38:55Z</time>
      </trkpt>
      <trkpt lat="42.403863000" lon="-2.626610000">
        <ele>636.00</ele>
        <time>2015-01-17T08:38:56Z</time>
      </trkpt>
      <trkpt lat="42.403857000" lon="-2.626629000">
        <ele>636.00</ele>
        <time>2015-01-17T08:38:57Z</time>
      </trkpt>
      <trkpt lat="42.403851000" lon="-2.626646000">
        <ele>635.90</ele>
        <time>2015-01-17T08:38:58Z</time>
      </trkpt>
      <trkpt lat="42.403840000" lon="-2.626663000">
        <ele>636.10</ele>
        <time>2015-01-17T08:38:59Z</time>
      </trkpt>
      <trkpt lat="42.403824000" lon="-2.626677000">
        <ele>636.10</ele>
        <time>2015-01-17T08:39:00Z</time>
      </trkpt>
      <trkpt lat="42.403805000" lon="-2.626686000">
        <ele>636.20</ele>
        <time>2015-01-17T08:39:01Z</time>
      </trkpt>
      <trkpt lat="42.403788000" lon="-2.626685000">
        <ele>636.20</ele>
        <time>2015-01-17T08:39:02Z</time>
      </trkpt>
      <trkpt lat="42.403766000" lon="-2.626683000">
        <ele>636.10</ele>
        <time>2015-01-17T08:39:03Z</time>
      </trkpt>
      <trkpt lat="42.403741000" lon="-2.626686000">
        <ele>636.00</ele>
        <time>2015-01-17T08:39:04Z</time>
      </trkpt>
      <trkpt lat="42.403720000" lon="-2.626701000">
        <ele>635.90</ele>
        <time>2015-01-17T08:39:05Z</time>
      </trkpt>
      <trkpt lat="42.403692000" lon="-2.626729000">
        <ele>635.80</ele>
        <time>2015-01-17T08:39:07Z</time>
      </trkpt>
      <trkpt lat="42.403682000" lon="-2.626750000">
        <ele>635.70</ele>
        <time>2015-01-17T08:39:08Z</time>
      </trkpt>
      <trkpt lat="42.403671000" lon="-2.626768000">
        <ele>635.70</ele>
        <time>2015-01-17T08:39:09Z</time>
      </trkpt>
      <trkpt lat="42.403657000" lon="-2.626790000">
        <ele>635.70</ele>
        <time>2015-01-17T08:39:10Z</time>
      </trkpt>
      <trkpt lat="42.403639000" lon="-2.626813000">
        <ele>635.60</ele>
        <time>2015-01-17T08:39:11Z</time>
      </trkpt>
      <trkpt lat="42.403627000" lon="-2.626838000">
        <ele>635.60</ele>
        <time>2015-01-17T08:39:12Z</time>
      </trkpt>
      <trkpt lat="42.403613000" lon="-2.626860000">
        <ele>635.70</ele>
        <time>2015-01-17T08:39:13Z</time>
      </trkpt>
      <trkpt lat="42.403601000" lon="-2.626881000">
        <ele>635.70</ele>
        <time>2015-01-17T08:39:14Z</time>
      </trkpt>
      <trkpt lat="42.403582000" lon="-2.626898000">
        <ele>635.80</ele>
        <time>2015-01-17T08:39:15Z</time>
      </trkpt>
      <trkpt lat="42.403562000" lon="-2.626917000">
        <ele>635.90</ele>
        <time>2015-01-17T08:39:16Z</time>
      </trkpt>
      <trkpt lat="42.403543000" lon="-2.626928000">
        <ele>636.10</ele>
        <time>2015-01-17T08:39:17Z</time>
      </trkpt>
      <trkpt lat="42.403523000" lon="-2.626944000">
        <ele>636.20</ele>
        <time>2015-01-17T08:39:18Z</time>
      </trkpt>
      <trkpt lat="42.403502000" lon="-2.626959000">
        <ele>636.50</ele>
        <time>2015-01-17T08:39:19Z</time>
      </trkpt>
      <trkpt lat="42.403485000" lon="-2.626972000">
        <ele>636.70</ele>
        <time>2015-01-17T08:39:20Z</time>
      </trkpt>
      <trkpt lat="42.403468000" lon="-2.626988000">
        <ele>637.00</ele>
        <time>2015-01-17T08:39:21Z</time>
      </trkpt>
      <trkpt lat="42.403450000" lon="-2.627002000">
        <ele>637.20</ele>
        <time>2015-01-17T08:39:22Z</time>
      </trkpt>
      <trkpt lat="42.403433000" lon="-2.627015000">
        <ele>637.30</ele>
        <time>2015-01-17T08:39:23Z</time>
      </trkpt>
      <trkpt lat="42.403416000" lon="-2.627033000">
        <ele>637.40</ele>
        <time>2015-01-17T08:39:24Z</time>
      </trkpt>
      <trkpt lat="42.403400000" lon="-2.627049000">
        <ele>637.50</ele>
        <time>2015-01-17T08:39:25Z</time>
      </trkpt>
      <trkpt lat="42.403382000" lon="-2.627064000">
        <ele>637.60</ele>
        <time>2015-01-17T08:39:26Z</time>
      </trkpt>
      <trkpt lat="42.403365000" lon="-2.627074000">
        <ele>637.80</ele>
        <time>2015-01-17T08:39:27Z</time>
      </trkpt>
      <trkpt lat="42.403344000" lon="-2.627085000">
        <ele>638.00</ele>
        <time>2015-01-17T08:39:28Z</time>
      </trkpt>
      <trkpt lat="42.403325000" lon="-2.627096000">
        <ele>638.20</ele>
        <time>2015-01-17T08:39:29Z</time>
      </trkpt>
      <trkpt lat="42.403302000" lon="-2.627109000">
        <ele>638.30</ele>
        <time>2015-01-17T08:39:30Z</time>
      </trkpt>
      <trkpt lat="42.403284000" lon="-2.627120000">
        <ele>638.40</ele>
        <time>2015-01-17T08:39:31Z</time>
      </trkpt>
      <trkpt lat="42.403265000" lon="-2.627133000">
        <ele>638.40</ele>
        <time>2015-01-17T08:39:32Z</time>
      </trkpt>
      <trkpt lat="42.403246000" lon="-2.627145000">
        <ele>638.40</ele>
        <time>2015-01-17T08:39:33Z</time>
      </trkpt>
      <trkpt lat="42.403223000" lon="-2.627161000">
        <ele>638.40</ele>
        <time>2015-01-17T08:39:34Z</time>
      </trkpt>
      <trkpt lat="42.403201000" lon="-2.627174000">
        <ele>638.40</ele>
        <time>2015-01-17T08:39:35Z</time>
      </trkpt>
      <trkpt lat="42.403182000" lon="-2.627188000">
        <ele>638.40</ele>
        <time>2015-01-17T08:39:36Z</time>
      </trkpt>
      <trkpt lat="42.403161000" lon="-2.627198000">
        <ele>638.30</ele>
        <time>2015-01-17T08:39:37Z</time>
      </trkpt>
      <trkpt lat="42.403137000" lon="-2.627199000">
        <ele>638.20</ele>
        <time>2015-01-17T08:39:38Z</time>
      </trkpt>
      <trkpt lat="42.403115000" lon="-2.627199000">
        <ele>638.20</ele>
        <time>2015-01-17T08:39:39Z</time>
      </trkpt>
      <trkpt lat="42.403094000" lon="-2.627198000">
        <ele>638.20</ele>
        <time>2015-01-17T08:39:40Z</time>
      </trkpt>
      <trkpt lat="42.403074000" lon="-2.627203000">
        <ele>638.30</ele>
        <time>2015-01-17T08:39:41Z</time>
      </trkpt>
      <trkpt lat="42.403054000" lon="-2.627208000">
        <ele>638.30</ele>
        <time>2015-01-17T08:39:42Z</time>
      </trkpt>
      <trkpt lat="42.403031000" lon="-2.627211000">
        <ele>638.50</ele>
        <time>2015-01-17T08:39:43Z</time>
      </trkpt>
      <trkpt lat="42.403010000" lon="-2.627215000">
        <ele>638.50</ele>
        <time>2015-01-17T08:39:44Z</time>
      </trkpt>
      <trkpt lat="42.402988000" lon="-2.627215000">
        <ele>638.70</ele>
        <time>2015-01-17T08:39:45Z</time>
      </trkpt>
      <trkpt lat="42.402967000" lon="-2.627218000">
        <ele>638.70</ele>
        <time>2015-01-17T08:39:46Z</time>
      </trkpt>
      <trkpt lat="42.402948000" lon="-2.627224000">
        <ele>638.90</ele>
        <time>2015-01-17T08:39:47Z</time>
      </trkpt>
      <trkpt lat="42.402928000" lon="-2.627231000">
        <ele>639.00</ele>
        <time>2015-01-17T08:39:48Z</time>
      </trkpt>
      <trkpt lat="42.402908000" lon="-2.627239000">
        <ele>639.10</ele>
        <time>2015-01-17T08:39:49Z</time>
      </trkpt>
      <trkpt lat="42.402888000" lon="-2.627248000">
        <ele>639.20</ele>
        <time>2015-01-17T08:39:50Z</time>
      </trkpt>
      <trkpt lat="42.402865000" lon="-2.627253000">
        <ele>639.40</ele>
        <time>2015-01-17T08:39:51Z</time>
      </trkpt>
      <trkpt lat="42.402849000" lon="-2.627260000">
        <ele>639.60</ele>
        <time>2015-01-17T08:39:52Z</time>
      </trkpt>
      <trkpt lat="42.402829000" lon="-2.627270000">
        <ele>639.90</ele>
        <time>2015-01-17T08:39:53Z</time>
      </trkpt>
      <trkpt lat="42.402809000" lon="-2.627275000">
        <ele>640.20</ele>
        <time>2015-01-17T08:39:54Z</time>
      </trkpt>
      <trkpt lat="42.402789000" lon="-2.627282000">
        <ele>640.40</ele>
        <time>2015-01-17T08:39:55Z</time>
      </trkpt>
      <trkpt lat="42.402772000" lon="-2.627289000">
        <ele>640.60</ele>
        <time>2015-01-17T08:39:56Z</time>
      </trkpt>
      <trkpt lat="42.402752000" lon="-2.627302000">
        <ele>640.80</ele>
        <time>2015-01-17T08:39:57Z</time>
      </trkpt>
      <trkpt lat="42.402737000" lon="-2.627320000">
        <ele>641.00</ele>
        <time>2015-01-17T08:39:58Z</time>
      </trkpt>
      <trkpt lat="42.402722000" lon="-2.627337000">
        <ele>641.30</ele>
        <time>2015-01-17T08:39:59Z</time>
      </trkpt>
      <trkpt lat="42.402707000" lon="-2.627361000">
        <ele>641.60</ele>
        <time>2015-01-17T08:40:00Z</time>
      </trkpt>
      <trkpt lat="42.402690000" lon="-2.627381000">
        <ele>641.90</ele>
        <time>2015-01-17T08:40:01Z</time>
      </trkpt>
      <trkpt lat="42.402676000" lon="-2.627406000">
        <ele>642.10</ele>
        <time>2015-01-17T08:40:02Z</time>
      </trkpt>
      <trkpt lat="42.402665000" lon="-2.627433000">
        <ele>642.30</ele>
        <time>2015-01-17T08:40:03Z</time>
      </trkpt>
      <trkpt lat="42.402654000" lon="-2.627461000">
        <ele>642.40</ele>
        <time>2015-01-17T08:40:04Z</time>
      </trkpt>
      <trkpt lat="42.402640000" lon="-2.627489000">
        <ele>642.50</ele>
        <time>2015-01-17T08:40:05Z</time>
      </trkpt>
      <trkpt lat="42.402632000" lon="-2.627513000">
        <ele>642.60</ele>
        <time>2015-01-17T08:40:06Z</time>
      </trkpt>
      <trkpt lat="42.402615000" lon="-2.627561000">
        <ele>642.70</ele>
        <time>2015-01-17T08:40:08Z</time>
      </trkpt>
      <trkpt lat="42.402605000" lon="-2.627584000">
        <ele>642.70</ele>
        <time>2015-01-17T08:40:09Z</time>
      </trkpt>
      <trkpt lat="42.402596000" lon="-2.627607000">
        <ele>642.70</ele>
        <time>2015-01-17T08:40:10Z</time>
      </trkpt>
      <trkpt lat="42.402589000" lon="-2.627634000">
        <ele>643.00</ele>
        <time>2015-01-17T08:40:11Z</time>
      </trkpt>
      <trkpt lat="42.402580000" lon="-2.627662000">
        <ele>643.20</ele>
        <time>2015-01-17T08:40:12Z</time>
      </trkpt>
      <trkpt lat="42.402574000" lon="-2.627690000">
        <ele>643.40</ele>
        <time>2015-01-17T08:40:13Z</time>
      </trkpt>
      <trkpt lat="42.402565000" lon="-2.627715000">
        <ele>643.60</ele>
        <time>2015-01-17T08:40:14Z</time>
      </trkpt>
      <trkpt lat="42.402555000" lon="-2.627738000">
        <ele>643.80</ele>
        <time>2015-01-17T08:40:15Z</time>
      </trkpt>
      <trkpt lat="42.402545000" lon="-2.627763000">
        <ele>643.90</ele>
        <time>2015-01-17T08:40:16Z</time>
      </trkpt>
      <trkpt lat="42.402535000" lon="-2.627785000">
        <ele>644.10</ele>
        <time>2015-01-17T08:40:17Z</time>
      </trkpt>
      <trkpt lat="42.402525000" lon="-2.627811000">
        <ele>644.30</ele>
        <time>2015-01-17T08:40:18Z</time>
      </trkpt>
      <trkpt lat="42.402518000" lon="-2.627836000">
        <ele>644.60</ele>
        <time>2015-01-17T08:40:19Z</time>
      </trkpt>
      <trkpt lat="42.402508000" lon="-2.627862000">
        <ele>644.80</ele>
        <time>2015-01-17T08:40:20Z</time>
      </trkpt>
      <trkpt lat="42.402499000" lon="-2.627889000">
        <ele>644.90</ele>
        <time>2015-01-17T08:40:21Z</time>
      </trkpt>
      <trkpt lat="42.402487000" lon="-2.627915000">
        <ele>645.00</ele>
        <time>2015-01-17T08:40:22Z</time>
      </trkpt>
      <trkpt lat="42.402476000" lon="-2.627944000">
        <ele>645.10</ele>
        <time>2015-01-17T08:40:23Z</time>
      </trkpt>
      <trkpt lat="42.402468000" lon="-2.627972000">
        <ele>645.20</ele>
        <time>2015-01-17T08:40:24Z</time>
      </trkpt>
      <trkpt lat="42.402462000" lon="-2.627999000">
        <ele>645.20</ele>
        <time>2015-01-17T08:40:25Z</time>
      </trkpt>
      <trkpt lat="42.402453000" lon="-2.628027000">
        <ele>645.20</ele>
        <time>2015-01-17T08:40:26Z</time>
      </trkpt>
      <trkpt lat="42.402443000" lon="-2.628056000">
        <ele>645.30</ele>
        <time>2015-01-17T08:40:27Z</time>
      </trkpt>
      <trkpt lat="42.402437000" lon="-2.628083000">
        <ele>645.30</ele>
        <time>2015-01-17T08:40:28Z</time>
      </trkpt>
      <trkpt lat="42.402432000" lon="-2.628113000">
        <ele>645.40</ele>
        <time>2015-01-17T08:40:29Z</time>
      </trkpt>
      <trkpt lat="42.402424000" lon="-2.628137000">
        <ele>645.50</ele>
        <time>2015-01-17T08:40:30Z</time>
      </trkpt>
      <trkpt lat="42.402417000" lon="-2.628165000">
        <ele>645.70</ele>
        <time>2015-01-17T08:40:31Z</time>
      </trkpt>
      <trkpt lat="42.402408000" lon="-2.628188000">
        <ele>645.80</ele>
        <time>2015-01-17T08:40:32Z</time>
      </trkpt>
      <trkpt lat="42.402400000" lon="-2.628214000">
        <ele>646.00</ele>
        <time>2015-01-17T08:40:33Z</time>
      </trkpt>
      <trkpt lat="42.402394000" lon="-2.628240000">
        <ele>646.10</ele>
        <time>2015-01-17T08:40:34Z</time>
      </trkpt>
      <trkpt lat="42.402390000" lon="-2.628271000">
        <ele>646.20</ele>
        <time>2015-01-17T08:40:35Z</time>
      </trkpt>
      <trkpt lat="42.402383000" lon="-2.628294000">
        <ele>646.20</ele>
        <time>2015-01-17T08:40:36Z</time>
      </trkpt>
      <trkpt lat="42.402373000" lon="-2.628317000">
        <ele>646.30</ele>
        <time>2015-01-17T08:40:37Z</time>
      </trkpt>
      <trkpt lat="42.402362000" lon="-2.628341000">
        <ele>646.30</ele>
        <time>2015-01-17T08:40:38Z</time>
      </trkpt>
      <trkpt lat="42.402352000" lon="-2.628369000">
        <ele>646.30</ele>
        <time>2015-01-17T08:40:39Z</time>
      </trkpt>
      <trkpt lat="42.402339000" lon="-2.628393000">
        <ele>646.30</ele>
        <time>2015-01-17T08:40:40Z</time>
      </trkpt>
      <trkpt lat="42.402329000" lon="-2.628420000">
        <ele>646.60</ele>
        <time>2015-01-17T08:40:41Z</time>
      </trkpt>
      <trkpt lat="42.402319000" lon="-2.628449000">
        <ele>646.80</ele>
        <time>2015-01-17T08:40:42Z</time>
      </trkpt>
      <trkpt lat="42.402310000" lon="-2.628479000">
        <ele>646.90</ele>
        <time>2015-01-17T08:40:43Z</time>
      </trkpt>
      <trkpt lat="42.402297000" lon="-2.628508000">
        <ele>647.00</ele>
        <time>2015-01-17T08:40:44Z</time>
      </trkpt>
      <trkpt lat="42.402285000" lon="-2.628536000">
        <ele>647.10</ele>
        <time>2015-01-17T08:40:45Z</time>
      </trkpt>
      <trkpt lat="42.402277000" lon="-2.628564000">
        <ele>647.20</ele>
        <time>2015-01-17T08:40:46Z</time>
      </trkpt>
      <trkpt lat="42.402268000" lon="-2.628590000">
        <ele>647.40</ele>
        <time>2015-01-17T08:40:47Z</time>
      </trkpt>
      <trkpt lat="42.402258000" lon="-2.628617000">
        <ele>647.50</ele>
        <time>2015-01-17T08:40:48Z</time>
      </trkpt>
      <trkpt lat="42.402249000" lon="-2.628650000">
        <ele>647.60</ele>
        <time>2015-01-17T08:40:49Z</time>
      </trkpt>
      <trkpt lat="42.402237000" lon="-2.628680000">
        <ele>647.70</ele>
        <time>2015-01-17T08:40:50Z</time>
      </trkpt>
      <trkpt lat="42.402227000" lon="-2.628708000">
        <ele>648.00</ele>
        <time>2015-01-17T08:40:51Z</time>
      </trkpt>
      <trkpt lat="42.402216000" lon="-2.628736000">
        <ele>648.20</ele>
        <time>2015-01-17T08:40:52Z</time>
      </trkpt>
      <trkpt lat="42.402206000" lon="-2.628765000">
        <ele>648.40</ele>
        <time>2015-01-17T08:40:53Z</time>
      </trkpt>
      <trkpt lat="42.402196000" lon="-2.628795000">
        <ele>648.50</ele>
        <time>2015-01-17T08:40:54Z</time>
      </trkpt>
      <trkpt lat="42.402184000" lon="-2.628823000">
        <ele>648.60</ele>
        <time>2015-01-17T08:40:55Z</time>
      </trkpt>
      <trkpt lat="42.402172000" lon="-2.628850000">
        <ele>648.70</ele>
        <time>2015-01-17T08:40:56Z</time>
      </trkpt>
      <trkpt lat="42.402162000" lon="-2.628872000">
        <ele>648.60</ele>
        <time>2015-01-17T08:40:57Z</time>
      </trkpt>
      <trkpt lat="42.402154000" lon="-2.628897000">
        <ele>648.60</ele>
        <time>2015-01-17T08:40:58Z</time>
      </trkpt>
      <trkpt lat="42.402144000" lon="-2.628922000">
        <ele>648.60</ele>
        <time>2015-01-17T08:40:59Z</time>
      </trkpt>
      <trkpt lat="42.402133000" lon="-2.628950000">
        <ele>648.70</ele>
        <time>2015-01-17T08:41:00Z</time>
      </trkpt>
      <trkpt lat="42.402119000" lon="-2.628974000">
        <ele>648.60</ele>
        <time>2015-01-17T08:41:01Z</time>
      </trkpt>
      <trkpt lat="42.402106000" lon="-2.629001000">
        <ele>648.60</ele>
        <time>2015-01-17T08:41:02Z</time>
      </trkpt>
      <trkpt lat="42.402096000" lon="-2.629028000">
        <ele>648.80</ele>
        <time>2015-01-17T08:41:03Z</time>
      </trkpt>
      <trkpt lat="42.402084000" lon="-2.629054000">
        <ele>648.90</ele>
        <time>2015-01-17T08:41:04Z</time>
      </trkpt>
      <trkpt lat="42.402071000" lon="-2.629080000">
        <ele>649.00</ele>
        <time>2015-01-17T08:41:05Z</time>
      </trkpt>
      <trkpt lat="42.402059000" lon="-2.629110000">
        <ele>649.10</ele>
        <time>2015-01-17T08:41:06Z</time>
      </trkpt>
      <trkpt lat="42.402048000" lon="-2.629137000">
        <ele>649.20</ele>
        <time>2015-01-17T08:41:07Z</time>
      </trkpt>
      <trkpt lat="42.402021000" lon="-2.629189000">
        <ele>649.30</ele>
        <time>2015-01-17T08:41:09Z</time>
      </trkpt>
      <trkpt lat="42.402008000" lon="-2.629214000">
        <ele>649.30</ele>
        <time>2015-01-17T08:41:10Z</time>
      </trkpt>
      <trkpt lat="42.401993000" lon="-2.629240000">
        <ele>649.60</ele>
        <time>2015-01-17T08:41:11Z</time>
      </trkpt>
      <trkpt lat="42.401980000" lon="-2.629264000">
        <ele>649.80</ele>
        <time>2015-01-17T08:41:12Z</time>
      </trkpt>
      <trkpt lat="42.401967000" lon="-2.629291000">
        <ele>650.00</ele>
        <time>2015-01-17T08:41:13Z</time>
      </trkpt>
      <trkpt lat="42.401952000" lon="-2.629317000">
        <ele>650.10</ele>
        <time>2015-01-17T08:41:14Z</time>
      </trkpt>
      <trkpt lat="42.401940000" lon="-2.629343000">
        <ele>650.20</ele>
        <time>2015-01-17T08:41:15Z</time>
      </trkpt>
      <trkpt lat="42.401926000" lon="-2.629367000">
        <ele>650.40</ele>
        <time>2015-01-17T08:41:16Z</time>
      </trkpt>
      <trkpt lat="42.401908000" lon="-2.629393000">
        <ele>650.40</ele>
        <time>2015-01-17T08:41:17Z</time>
      </trkpt>
      <trkpt lat="42.401890000" lon="-2.629420000">
        <ele>650.50</ele>
        <time>2015-01-17T08:41:18Z</time>
      </trkpt>
      <trkpt lat="42.401872000" lon="-2.629446000">
        <ele>650.60</ele>
        <time>2015-01-17T08:41:19Z</time>
      </trkpt>
      <trkpt lat="42.401854000" lon="-2.629469000">
        <ele>650.60</ele>
        <time>2015-01-17T08:41:20Z</time>
      </trkpt>
      <trkpt lat="42.401835000" lon="-2.629491000">
        <ele>650.70</ele>
        <time>2015-01-17T08:41:21Z</time>
      </trkpt>
      <trkpt lat="42.401817000" lon="-2.629513000">
        <ele>650.80</ele>
        <time>2015-01-17T08:41:22Z</time>
      </trkpt>
      <trkpt lat="42.401796000" lon="-2.629534000">
        <ele>650.80</ele>
        <time>2015-01-17T08:41:23Z</time>
      </trkpt>
      <trkpt lat="42.401774000" lon="-2.629556000">
        <ele>650.90</ele>
        <time>2015-01-17T08:41:24Z</time>
      </trkpt>
      <trkpt lat="42.401754000" lon="-2.629574000">
        <ele>651.00</ele>
        <time>2015-01-17T08:41:25Z</time>
      </trkpt>
      <trkpt lat="42.401732000" lon="-2.629593000">
        <ele>651.10</ele>
        <time>2015-01-17T08:41:26Z</time>
      </trkpt>
      <trkpt lat="42.401711000" lon="-2.629608000">
        <ele>651.40</ele>
        <time>2015-01-17T08:41:27Z</time>
      </trkpt>
      <trkpt lat="42.401689000" lon="-2.629623000">
        <ele>651.60</ele>
        <time>2015-01-17T08:41:28Z</time>
      </trkpt>
      <trkpt lat="42.401664000" lon="-2.629634000">
        <ele>651.90</ele>
        <time>2015-01-17T08:41:29Z</time>
      </trkpt>
      <trkpt lat="42.401640000" lon="-2.629646000">
        <ele>652.10</ele>
        <time>2015-01-17T08:41:30Z</time>
      </trkpt>
      <trkpt lat="42.401615000" lon="-2.629655000">
        <ele>652.20</ele>
        <time>2015-01-17T08:41:31Z</time>
      </trkpt>
      <trkpt lat="42.401590000" lon="-2.629661000">
        <ele>652.30</ele>
        <time>2015-01-17T08:41:32Z</time>
      </trkpt>
      <trkpt lat="42.401563000" lon="-2.629664000">
        <ele>652.40</ele>
        <time>2015-01-17T08:41:33Z</time>
      </trkpt>
      <trkpt lat="42.401535000" lon="-2.629666000">
        <ele>652.50</ele>
        <time>2015-01-17T08:41:34Z</time>
      </trkpt>
      <trkpt lat="42.401506000" lon="-2.629667000">
        <ele>652.40</ele>
        <time>2015-01-17T08:41:35Z</time>
      </trkpt>
      <trkpt lat="42.401478000" lon="-2.629671000">
        <ele>652.40</ele>
        <time>2015-01-17T08:41:36Z</time>
      </trkpt>
      <trkpt lat="42.401453000" lon="-2.629671000">
        <ele>652.40</ele>
        <time>2015-01-17T08:41:37Z</time>
      </trkpt>
      <trkpt lat="42.401424000" lon="-2.629675000">
        <ele>652.40</ele>
        <time>2015-01-17T08:41:38Z</time>
      </trkpt>
      <trkpt lat="42.401396000" lon="-2.629673000">
        <ele>652.40</ele>
        <time>2015-01-17T08:41:39Z</time>
      </trkpt>
      <trkpt lat="42.401369000" lon="-2.629672000">
        <ele>652.40</ele>
        <time>2015-01-17T08:41:40Z</time>
      </trkpt>
      <trkpt lat="42.401342000" lon="-2.629671000">
        <ele>652.40</ele>
        <time>2015-01-17T08:41:41Z</time>
      </trkpt>
      <trkpt lat="42.401312000" lon="-2.629668000">
        <ele>652.40</ele>
        <time>2015-01-17T08:41:42Z</time>
      </trkpt>
      <trkpt lat="42.401284000" lon="-2.629666000">
        <ele>652.40</ele>
        <time>2015-01-17T08:41:43Z</time>
      </trkpt>
      <trkpt lat="42.401259000" lon="-2.629664000">
        <ele>652.40</ele>
        <time>2015-01-17T08:41:44Z</time>
      </trkpt>
      <trkpt lat="42.401232000" lon="-2.629664000">
        <ele>652.30</ele>
        <time>2015-01-17T08:41:45Z</time>
      </trkpt>
      <trkpt lat="42.401206000" lon="-2.629661000">
        <ele>652.20</ele>
        <time>2015-01-17T08:41:46Z</time>
      </trkpt>
      <trkpt lat="42.401183000" lon="-2.629662000">
        <ele>652.20</ele>
        <time>2015-01-17T08:41:47Z</time>
      </trkpt>
      <trkpt lat="42.401157000" lon="-2.629657000">
        <ele>652.10</ele>
        <time>2015-01-17T08:41:48Z</time>
      </trkpt>
      <trkpt lat="42.401129000" lon="-2.629651000">
        <ele>652.10</ele>
        <time>2015-01-17T08:41:49Z</time>
      </trkpt>
      <trkpt lat="42.401100000" lon="-2.629652000">
        <ele>652.10</ele>
        <time>2015-01-17T08:41:50Z</time>
      </trkpt>
      <trkpt lat="42.401070000" lon="-2.629650000">
        <ele>652.20</ele>
        <time>2015-01-17T08:41:51Z</time>
      </trkpt>
      <trkpt lat="42.401040000" lon="-2.629648000">
        <ele>652.30</ele>
        <time>2015-01-17T08:41:52Z</time>
      </trkpt>
      <trkpt lat="42.401015000" lon="-2.629649000">
        <ele>652.30</ele>
        <time>2015-01-17T08:41:53Z</time>
      </trkpt>
      <trkpt lat="42.400989000" lon="-2.629650000">
        <ele>652.40</ele>
        <time>2015-01-17T08:41:54Z</time>
      </trkpt>
      <trkpt lat="42.400963000" lon="-2.629653000">
        <ele>652.40</ele>
        <time>2015-01-17T08:41:55Z</time>
      </trkpt>
      <trkpt lat="42.400934000" lon="-2.629656000">
        <ele>652.40</ele>
        <time>2015-01-17T08:41:56Z</time>
      </trkpt>
      <trkpt lat="42.400906000" lon="-2.629661000">
        <ele>652.70</ele>
        <time>2015-01-17T08:41:57Z</time>
      </trkpt>
      <trkpt lat="42.400880000" lon="-2.629667000">
        <ele>652.90</ele>
        <time>2015-01-17T08:41:58Z</time>
      </trkpt>
      <trkpt lat="42.400855000" lon="-2.629675000">
        <ele>652.80</ele>
        <time>2015-01-17T08:41:59Z</time>
      </trkpt>
      <trkpt lat="42.400826000" lon="-2.629688000">
        <ele>652.70</ele>
        <time>2015-01-17T08:42:00Z</time>
      </trkpt>
      <trkpt lat="42.400800000" lon="-2.629703000">
        <ele>652.60</ele>
        <time>2015-01-17T08:42:01Z</time>
      </trkpt>
      <trkpt lat="42.400774000" lon="-2.629717000">
        <ele>652.50</ele>
        <time>2015-01-17T08:42:02Z</time>
      </trkpt>
      <trkpt lat="42.400748000" lon="-2.629732000">
        <ele>652.50</ele>
        <time>2015-01-17T08:42:03Z</time>
      </trkpt>
      <trkpt lat="42.400721000" lon="-2.629748000">
        <ele>652.50</ele>
        <time>2015-01-17T08:42:04Z</time>
      </trkpt>
      <trkpt lat="42.400696000" lon="-2.629765000">
        <ele>652.60</ele>
        <time>2015-01-17T08:42:05Z</time>
      </trkpt>
      <trkpt lat="42.400670000" lon="-2.629783000">
        <ele>652.60</ele>
        <time>2015-01-17T08:42:06Z</time>
      </trkpt>
      <trkpt lat="42.400644000" lon="-2.629800000">
        <ele>652.80</ele>
        <time>2015-01-17T08:42:07Z</time>
      </trkpt>
      <trkpt lat="42.400616000" lon="-2.629820000">
        <ele>652.90</ele>
        <time>2015-01-17T08:42:08Z</time>
      </trkpt>
      <trkpt lat="42.400563000" lon="-2.629852000">
        <ele>653.20</ele>
        <time>2015-01-17T08:42:10Z</time>
      </trkpt>
      <trkpt lat="42.400538000" lon="-2.629869000">
        <ele>653.30</ele>
        <time>2015-01-17T08:42:11Z</time>
      </trkpt>
      <trkpt lat="42.400514000" lon="-2.629886000">
        <ele>653.40</ele>
        <time>2015-01-17T08:42:12Z</time>
      </trkpt>
      <trkpt lat="42.400488000" lon="-2.629902000">
        <ele>653.50</ele>
        <time>2015-01-17T08:42:13Z</time>
      </trkpt>
      <trkpt lat="42.400461000" lon="-2.629918000">
        <ele>653.60</ele>
        <time>2015-01-17T08:42:14Z</time>
      </trkpt>
      <trkpt lat="42.400434000" lon="-2.629933000">
        <ele>653.80</ele>
        <time>2015-01-17T08:42:15Z</time>
      </trkpt>
      <trkpt lat="42.400407000" lon="-2.629949000">
        <ele>654.00</ele>
        <time>2015-01-17T08:42:16Z</time>
      </trkpt>
      <trkpt lat="42.400383000" lon="-2.629969000">
        <ele>654.20</ele>
        <time>2015-01-17T08:42:17Z</time>
      </trkpt>
      <trkpt lat="42.400357000" lon="-2.629986000">
        <ele>654.40</ele>
        <time>2015-01-17T08:42:18Z</time>
      </trkpt>
      <trkpt lat="42.400329000" lon="-2.630003000">
        <ele>654.40</ele>
        <time>2015-01-17T08:42:19Z</time>
      </trkpt>
      <trkpt lat="42.400302000" lon="-2.630020000">
        <ele>654.40</ele>
        <time>2015-01-17T08:42:20Z</time>
      </trkpt>
      <trkpt lat="42.400271000" lon="-2.630033000">
        <ele>654.50</ele>
        <time>2015-01-17T08:42:21Z</time>
      </trkpt>
      <trkpt lat="42.400242000" lon="-2.630053000">
        <ele>654.50</ele>
        <time>2015-01-17T08:42:22Z</time>
      </trkpt>
      <trkpt lat="42.400214000" lon="-2.630066000">
        <ele>654.60</ele>
        <time>2015-01-17T08:42:23Z</time>
      </trkpt>
      <trkpt lat="42.400189000" lon="-2.630076000">
        <ele>654.60</ele>
        <time>2015-01-17T08:42:24Z</time>
      </trkpt>
      <trkpt lat="42.400165000" lon="-2.630085000">
        <ele>654.80</ele>
        <time>2015-01-17T08:42:25Z</time>
      </trkpt>
      <trkpt lat="42.400143000" lon="-2.630100000">
        <ele>655.00</ele>
        <time>2015-01-17T08:42:26Z</time>
      </trkpt>
      <trkpt lat="42.400118000" lon="-2.630117000">
        <ele>655.20</ele>
        <time>2015-01-17T08:42:27Z</time>
      </trkpt>
      <trkpt lat="42.400096000" lon="-2.630131000">
        <ele>655.30</ele>
        <time>2015-01-17T08:42:28Z</time>
      </trkpt>
      <trkpt lat="42.400074000" lon="-2.630146000">
        <ele>655.40</ele>
        <time>2015-01-17T08:42:29Z</time>
      </trkpt>
      <trkpt lat="42.400053000" lon="-2.630160000">
        <ele>655.50</ele>
        <time>2015-01-17T08:42:30Z</time>
      </trkpt>
      <trkpt lat="42.400029000" lon="-2.630173000">
        <ele>655.90</ele>
        <time>2015-01-17T08:42:31Z</time>
      </trkpt>
      <trkpt lat="42.400008000" lon="-2.630188000">
        <ele>656.10</ele>
        <time>2015-01-17T08:42:32Z</time>
      </trkpt>
      <trkpt lat="42.399987000" lon="-2.630203000">
        <ele>656.30</ele>
        <time>2015-01-17T08:42:33Z</time>
      </trkpt>
      <trkpt lat="42.399965000" lon="-2.630219000">
        <ele>656.40</ele>
        <time>2015-01-17T08:42:34Z</time>
      </trkpt>
      <trkpt lat="42.399943000" lon="-2.630234000">
        <ele>657.00</ele>
        <time>2015-01-17T08:42:35Z</time>
      </trkpt>
      <trkpt lat="42.399921000" lon="-2.630250000">
        <ele>657.40</ele>
        <time>2015-01-17T08:42:36Z</time>
      </trkpt>
      <trkpt lat="42.399898000" lon="-2.630266000">
        <ele>657.70</ele>
        <time>2015-01-17T08:42:37Z</time>
      </trkpt>
      <trkpt lat="42.399876000" lon="-2.630282000">
        <ele>657.90</ele>
        <time>2015-01-17T08:42:38Z</time>
      </trkpt>
      <trkpt lat="42.399853000" lon="-2.630304000">
        <ele>658.20</ele>
        <time>2015-01-17T08:42:39Z</time>
      </trkpt>
      <trkpt lat="42.399834000" lon="-2.630321000">
        <ele>658.40</ele>
        <time>2015-01-17T08:42:40Z</time>
      </trkpt>
      <trkpt lat="42.399816000" lon="-2.630341000">
        <ele>658.60</ele>
        <time>2015-01-17T08:42:41Z</time>
      </trkpt>
      <trkpt lat="42.399797000" lon="-2.630364000">
        <ele>658.70</ele>
        <time>2015-01-17T08:42:42Z</time>
      </trkpt>
      <trkpt lat="42.399778000" lon="-2.630390000">
        <ele>658.90</ele>
        <time>2015-01-17T08:42:43Z</time>
      </trkpt>
      <trkpt lat="42.399761000" lon="-2.630420000">
        <ele>659.10</ele>
        <time>2015-01-17T08:42:44Z</time>
      </trkpt>
      <trkpt lat="42.399745000" lon="-2.630447000">
        <ele>659.40</ele>
        <time>2015-01-17T08:42:45Z</time>
      </trkpt>
      <trkpt lat="42.399731000" lon="-2.630477000">
        <ele>659.60</ele>
        <time>2015-01-17T08:42:46Z</time>
      </trkpt>
      <trkpt lat="42.399717000" lon="-2.630506000">
        <ele>659.90</ele>
        <time>2015-01-17T08:42:47Z</time>
      </trkpt>
      <trkpt lat="42.399703000" lon="-2.630537000">
        <ele>660.20</ele>
        <time>2015-01-17T08:42:48Z</time>
      </trkpt>
      <trkpt lat="42.399691000" lon="-2.630567000">
        <ele>660.40</ele>
        <time>2015-01-17T08:42:49Z</time>
      </trkpt>
      <trkpt lat="42.399680000" lon="-2.630598000">
        <ele>660.60</ele>
        <time>2015-01-17T08:42:50Z</time>
      </trkpt>
      <trkpt lat="42.399672000" lon="-2.630629000">
        <ele>660.80</ele>
        <time>2015-01-17T08:42:51Z</time>
      </trkpt>
      <trkpt lat="42.399664000" lon="-2.630662000">
        <ele>660.90</ele>
        <time>2015-01-17T08:42:52Z</time>
      </trkpt>
      <trkpt lat="42.399654000" lon="-2.630695000">
        <ele>661.00</ele>
        <time>2015-01-17T08:42:53Z</time>
      </trkpt>
      <trkpt lat="42.399646000" lon="-2.630730000">
        <ele>661.10</ele>
        <time>2015-01-17T08:42:54Z</time>
      </trkpt>
      <trkpt lat="42.399637000" lon="-2.630764000">
        <ele>661.10</ele>
        <time>2015-01-17T08:42:55Z</time>
      </trkpt>
      <trkpt lat="42.399627000" lon="-2.630799000">
        <ele>661.20</ele>
        <time>2015-01-17T08:42:56Z</time>
      </trkpt>
      <trkpt lat="42.399621000" lon="-2.630829000">
        <ele>661.40</ele>
        <time>2015-01-17T08:42:57Z</time>
      </trkpt>
      <trkpt lat="42.399613000" lon="-2.630863000">
        <ele>661.70</ele>
        <time>2015-01-17T08:42:58Z</time>
      </trkpt>
      <trkpt lat="42.399606000" lon="-2.630899000">
        <ele>662.00</ele>
        <time>2015-01-17T08:42:59Z</time>
      </trkpt>
      <trkpt lat="42.399603000" lon="-2.630933000">
        <ele>662.30</ele>
        <time>2015-01-17T08:43:00Z</time>
      </trkpt>
      <trkpt lat="42.399600000" lon="-2.630965000">
        <ele>662.40</ele>
        <time>2015-01-17T08:43:01Z</time>
      </trkpt>
      <trkpt lat="42.399598000" lon="-2.631001000">
        <ele>662.50</ele>
        <time>2015-01-17T08:43:02Z</time>
      </trkpt>
      <trkpt lat="42.399599000" lon="-2.631039000">
        <ele>662.60</ele>
        <time>2015-01-17T08:43:03Z</time>
      </trkpt>
      <trkpt lat="42.399602000" lon="-2.631075000">
        <ele>662.70</ele>
        <time>2015-01-17T08:43:04Z</time>
      </trkpt>
      <trkpt lat="42.399601000" lon="-2.631109000">
        <ele>662.70</ele>
        <time>2015-01-17T08:43:05Z</time>
      </trkpt>
      <trkpt lat="42.399602000" lon="-2.631146000">
        <ele>662.80</ele>
        <time>2015-01-17T08:43:06Z</time>
      </trkpt>
      <trkpt lat="42.399603000" lon="-2.631183000">
        <ele>663.00</ele>
        <time>2015-01-17T08:43:07Z</time>
      </trkpt>
      <trkpt lat="42.399603000" lon="-2.631218000">
        <ele>663.30</ele>
        <time>2015-01-17T08:43:08Z</time>
      </trkpt>
      <trkpt lat="42.399605000" lon="-2.631256000">
        <ele>663.60</ele>
        <time>2015-01-17T08:43:09Z</time>
      </trkpt>
      <trkpt lat="42.399612000" lon="-2.631332000">
        <ele>664.10</ele>
        <time>2015-01-17T08:43:11Z</time>
      </trkpt>
      <trkpt lat="42.399614000" lon="-2.631369000">
        <ele>664.40</ele>
        <time>2015-01-17T08:43:12Z</time>
      </trkpt>
      <trkpt lat="42.399618000" lon="-2.631407000">
        <ele>664.60</ele>
        <time>2015-01-17T08:43:13Z</time>
      </trkpt>
      <trkpt lat="42.399622000" lon="-2.631444000">
        <ele>664.80</ele>
        <time>2015-01-17T08:43:14Z</time>
      </trkpt>
      <trkpt lat="42.399625000" lon="-2.631479000">
        <ele>664.90</ele>
        <time>2015-01-17T08:43:15Z</time>
      </trkpt>
      <trkpt lat="42.399631000" lon="-2.631519000">
        <ele>665.00</ele>
        <time>2015-01-17T08:43:16Z</time>
      </trkpt>
      <trkpt lat="42.399635000" lon="-2.631558000">
        <ele>665.20</ele>
        <time>2015-01-17T08:43:17Z</time>
      </trkpt>
      <trkpt lat="42.399636000" lon="-2.631596000">
        <ele>665.40</ele>
        <time>2015-01-17T08:43:18Z</time>
      </trkpt>
      <trkpt lat="42.399639000" lon="-2.631637000">
        <ele>665.40</ele>
        <time>2015-01-17T08:43:19Z</time>
      </trkpt>
      <trkpt lat="42.399641000" lon="-2.631677000">
        <ele>665.30</ele>
        <time>2015-01-17T08:43:20Z</time>
      </trkpt>
      <trkpt lat="42.399640000" lon="-2.631720000">
        <ele>665.50</ele>
        <time>2015-01-17T08:43:21Z</time>
      </trkpt>
      <trkpt lat="42.399642000" lon="-2.631763000">
        <ele>665.60</ele>
        <time>2015-01-17T08:43:22Z</time>
      </trkpt>
      <trkpt lat="42.399645000" lon="-2.631805000">
        <ele>665.50</ele>
        <time>2015-01-17T08:43:23Z</time>
      </trkpt>
      <trkpt lat="42.399645000" lon="-2.631847000">
        <ele>665.30</ele>
        <time>2015-01-17T08:43:24Z</time>
      </trkpt>
      <trkpt lat="42.399642000" lon="-2.631891000">
        <ele>665.50</ele>
        <time>2015-01-17T08:43:25Z</time>
      </trkpt>
      <trkpt lat="42.399638000" lon="-2.631935000">
        <ele>665.60</ele>
        <time>2015-01-17T08:43:26Z</time>
      </trkpt>
      <trkpt lat="42.399636000" lon="-2.631983000">
        <ele>665.80</ele>
        <time>2015-01-17T08:43:27Z</time>
      </trkpt>
      <trkpt lat="42.399634000" lon="-2.632031000">
        <ele>665.90</ele>
        <time>2015-01-17T08:43:28Z</time>
      </trkpt>
      <trkpt lat="42.399631000" lon="-2.632079000">
        <ele>666.00</ele>
        <time>2015-01-17T08:43:29Z</time>
      </trkpt>
      <trkpt lat="42.399627000" lon="-2.632131000">
        <ele>666.10</ele>
        <time>2015-01-17T08:43:30Z</time>
      </trkpt>
      <trkpt lat="42.399625000" lon="-2.632183000">
        <ele>666.20</ele>
        <time>2015-01-17T08:43:31Z</time>
      </trkpt>
      <trkpt lat="42.399622000" lon="-2.632236000">
        <ele>666.30</ele>
        <time>2015-01-17T08:43:32Z</time>
      </trkpt>
      <trkpt lat="42.399618000" lon="-2.632287000">
        <ele>666.20</ele>
        <time>2015-01-17T08:43:33Z</time>
      </trkpt>
      <trkpt lat="42.399615000" lon="-2.632338000">
        <ele>666.20</ele>
        <time>2015-01-17T08:43:34Z</time>
      </trkpt>
      <trkpt lat="42.399613000" lon="-2.632388000">
        <ele>666.20</ele>
        <time>2015-01-17T08:43:35Z</time>
      </trkpt>
      <trkpt lat="42.399612000" lon="-2.632442000">
        <ele>666.20</ele>
        <time>2015-01-17T08:43:36Z</time>
      </trkpt>
      <trkpt lat="42.399608000" lon="-2.632493000">
        <ele>666.00</ele>
        <time>2015-01-17T08:43:37Z</time>
      </trkpt>
      <trkpt lat="42.399606000" lon="-2.632545000">
        <ele>665.80</ele>
        <time>2015-01-17T08:43:38Z</time>
      </trkpt>
      <trkpt lat="42.399603000" lon="-2.632594000">
        <ele>665.80</ele>
        <time>2015-01-17T08:43:39Z</time>
      </trkpt>
      <trkpt lat="42.399601000" lon="-2.632645000">
        <ele>665.80</ele>
        <time>2015-01-17T08:43:40Z</time>
      </trkpt>
      <trkpt lat="42.399600000" lon="-2.632694000">
        <ele>665.70</ele>
        <time>2015-01-17T08:43:41Z</time>
      </trkpt>
      <trkpt lat="42.399597000" lon="-2.632741000">
        <ele>665.70</ele>
        <time>2015-01-17T08:43:42Z</time>
      </trkpt>
      <trkpt lat="42.399594000" lon="-2.632791000">
        <ele>665.70</ele>
        <time>2015-01-17T08:43:43Z</time>
      </trkpt>
      <trkpt lat="42.399594000" lon="-2.632842000">
        <ele>665.70</ele>
        <time>2015-01-17T08:43:44Z</time>
      </trkpt>
      <trkpt lat="42.399595000" lon="-2.632889000">
        <ele>665.80</ele>
        <time>2015-01-17T08:43:45Z</time>
      </trkpt>
      <trkpt lat="42.399596000" lon="-2.632937000">
        <ele>665.80</ele>
        <time>2015-01-17T08:43:46Z</time>
      </trkpt>
      <trkpt lat="42.399598000" lon="-2.632986000">
        <ele>665.80</ele>
        <time>2015-01-17T08:43:47Z</time>
      </trkpt>
      <trkpt lat="42.399600000" lon="-2.633031000">
        <ele>665.80</ele>
        <time>2015-01-17T08:43:48Z</time>
      </trkpt>
      <trkpt lat="42.399600000" lon="-2.633077000">
        <ele>665.80</ele>
        <time>2015-01-17T08:43:49Z</time>
      </trkpt>
      <trkpt lat="42.399600000" lon="-2.633121000">
        <ele>665.80</ele>
        <time>2015-01-17T08:43:50Z</time>
      </trkpt>
      <trkpt lat="42.399601000" lon="-2.633163000">
        <ele>666.10</ele>
        <time>2015-01-17T08:43:51Z</time>
      </trkpt>
      <trkpt lat="42.399605000" lon="-2.633205000">
        <ele>666.20</ele>
        <time>2015-01-17T08:43:52Z</time>
      </trkpt>
      <trkpt lat="42.399608000" lon="-2.633249000">
        <ele>666.30</ele>
        <time>2015-01-17T08:43:53Z</time>
      </trkpt>
      <trkpt lat="42.399608000" lon="-2.633292000">
        <ele>666.40</ele>
        <time>2015-01-17T08:43:54Z</time>
      </trkpt>
      <trkpt lat="42.399610000" lon="-2.633336000">
        <ele>666.60</ele>
        <time>2015-01-17T08:43:55Z</time>
      </trkpt>
      <trkpt lat="42.399612000" lon="-2.633376000">
        <ele>666.70</ele>
        <time>2015-01-17T08:43:56Z</time>
      </trkpt>
      <trkpt lat="42.399614000" lon="-2.633416000">
        <ele>667.00</ele>
        <time>2015-01-17T08:43:57Z</time>
      </trkpt>
      <trkpt lat="42.399615000" lon="-2.633456000">
        <ele>667.20</ele>
        <time>2015-01-17T08:43:58Z</time>
      </trkpt>
      <trkpt lat="42.399618000" lon="-2.633492000">
        <ele>667.30</ele>
        <time>2015-01-17T08:43:59Z</time>
      </trkpt>
      <trkpt lat="42.399623000" lon="-2.633533000">
        <ele>667.40</ele>
        <time>2015-01-17T08:44:00Z</time>
      </trkpt>
      <trkpt lat="42.399626000" lon="-2.633571000">
        <ele>667.70</ele>
        <time>2015-01-17T08:44:01Z</time>
      </trkpt>
      <trkpt lat="42.399631000" lon="-2.633610000">
        <ele>667.80</ele>
        <time>2015-01-17T08:44:02Z</time>
      </trkpt>
      <trkpt lat="42.399635000" lon="-2.633649000">
        <ele>668.00</ele>
        <time>2015-01-17T08:44:03Z</time>
      </trkpt>
      <trkpt lat="42.399639000" lon="-2.633687000">
        <ele>668.20</ele>
        <time>2015-01-17T08:44:04Z</time>
      </trkpt>
      <trkpt lat="42.399642000" lon="-2.633727000">
        <ele>668.80</ele>
        <time>2015-01-17T08:44:05Z</time>
      </trkpt>
      <trkpt lat="42.399646000" lon="-2.633762000">
        <ele>669.30</ele>
        <time>2015-01-17T08:44:06Z</time>
      </trkpt>
      <trkpt lat="42.399648000" lon="-2.633800000">
        <ele>669.70</ele>
        <time>2015-01-17T08:44:07Z</time>
      </trkpt>
      <trkpt lat="42.399652000" lon="-2.633837000">
        <ele>670.00</ele>
        <time>2015-01-17T08:44:08Z</time>
      </trkpt>
      <trkpt lat="42.399656000" lon="-2.633875000">
        <ele>670.10</ele>
        <time>2015-01-17T08:44:09Z</time>
      </trkpt>
      <trkpt lat="42.399657000" lon="-2.633912000">
        <ele>670.20</ele>
        <time>2015-01-17T08:44:10Z</time>
      </trkpt>
      <trkpt lat="42.399665000" lon="-2.633988000">
        <ele>670.00</ele>
        <time>2015-01-17T08:44:12Z</time>
      </trkpt>
      <trkpt lat="42.399669000" lon="-2.634023000">
        <ele>670.00</ele>
        <time>2015-01-17T08:44:13Z</time>
      </trkpt>
      <trkpt lat="42.399669000" lon="-2.634059000">
        <ele>670.00</ele>
        <time>2015-01-17T08:44:14Z</time>
      </trkpt>
      <trkpt lat="42.399673000" lon="-2.634092000">
        <ele>670.00</ele>
        <time>2015-01-17T08:44:15Z</time>
      </trkpt>
      <trkpt lat="42.399676000" lon="-2.634121000">
        <ele>670.10</ele>
        <time>2015-01-17T08:44:16Z</time>
      </trkpt>
      <trkpt lat="42.399681000" lon="-2.634150000">
        <ele>670.10</ele>
        <time>2015-01-17T08:44:17Z</time>
      </trkpt>
      <trkpt lat="42.399680000" lon="-2.634178000">
        <ele>670.10</ele>
        <time>2015-01-17T08:44:18Z</time>
      </trkpt>
      <trkpt lat="42.399674000" lon="-2.634207000">
        <ele>670.30</ele>
        <time>2015-01-17T08:44:19Z</time>
      </trkpt>
      <trkpt lat="42.399672000" lon="-2.634239000">
        <ele>670.50</ele>
        <time>2015-01-17T08:44:20Z</time>
      </trkpt>
      <trkpt lat="42.399681000" lon="-2.634274000">
        <ele>670.80</ele>
        <time>2015-01-17T08:44:21Z</time>
      </trkpt>
      <trkpt lat="42.399683000" lon="-2.634305000">
        <ele>671.10</ele>
        <time>2015-01-17T08:44:22Z</time>
      </trkpt>
      <trkpt lat="42.399684000" lon="-2.634336000">
        <ele>671.10</ele>
        <time>2015-01-17T08:44:23Z</time>
      </trkpt>
      <trkpt lat="42.399682000" lon="-2.634368000">
        <ele>671.10</ele>
        <time>2015-01-17T08:44:24Z</time>
      </trkpt>
      <trkpt lat="42.399684000" lon="-2.634402000">
        <ele>671.10</ele>
        <time>2015-01-17T08:44:25Z</time>
      </trkpt>
      <trkpt lat="42.399688000" lon="-2.634436000">
        <ele>671.20</ele>
        <time>2015-01-17T08:44:26Z</time>
      </trkpt>
      <trkpt lat="42.399691000" lon="-2.634474000">
        <ele>671.20</ele>
        <time>2015-01-17T08:44:27Z</time>
      </trkpt>
      <trkpt lat="42.399691000" lon="-2.634504000">
        <ele>671.20</ele>
        <time>2015-01-17T08:44:28Z</time>
      </trkpt>
      <trkpt lat="42.399693000" lon="-2.634532000">
        <ele>671.40</ele>
        <time>2015-01-17T08:44:29Z</time>
      </trkpt>
      <trkpt lat="42.399693000" lon="-2.634560000">
        <ele>671.60</ele>
        <time>2015-01-17T08:44:30Z</time>
      </trkpt>
      <trkpt lat="42.399693000" lon="-2.634590000">
        <ele>671.90</ele>
        <time>2015-01-17T08:44:31Z</time>
      </trkpt>
      <trkpt lat="42.399697000" lon="-2.634611000">
        <ele>672.10</ele>
        <time>2015-01-17T08:44:32Z</time>
      </trkpt>
      <trkpt lat="42.399701000" lon="-2.634636000">
        <ele>672.30</ele>
        <time>2015-01-17T08:44:33Z</time>
      </trkpt>
      <trkpt lat="42.399703000" lon="-2.634660000">
        <ele>672.40</ele>
        <time>2015-01-17T08:44:34Z</time>
      </trkpt>
      <trkpt lat="42.399705000" lon="-2.634687000">
        <ele>672.50</ele>
        <time>2015-01-17T08:44:35Z</time>
      </trkpt>
      <trkpt lat="42.399706000" lon="-2.634714000">
        <ele>672.60</ele>
        <time>2015-01-17T08:44:36Z</time>
      </trkpt>
      <trkpt lat="42.399714000" lon="-2.634742000">
        <ele>672.60</ele>
        <time>2015-01-17T08:44:37Z</time>
      </trkpt>
      <trkpt lat="42.399720000" lon="-2.634767000">
        <ele>672.60</ele>
        <time>2015-01-17T08:44:38Z</time>
      </trkpt>
      <trkpt lat="42.399726000" lon="-2.634793000">
        <ele>672.70</ele>
        <time>2015-01-17T08:44:39Z</time>
      </trkpt>
      <trkpt lat="42.399734000" lon="-2.634821000">
        <ele>672.70</ele>
        <time>2015-01-17T08:44:40Z</time>
      </trkpt>
      <trkpt lat="42.399743000" lon="-2.634844000">
        <ele>672.90</ele>
        <time>2015-01-17T08:44:41Z</time>
      </trkpt>
      <trkpt lat="42.399748000" lon="-2.634870000">
        <ele>673.00</ele>
        <time>2015-01-17T08:44:42Z</time>
      </trkpt>
      <trkpt lat="42.399754000" lon="-2.634900000">
        <ele>673.10</ele>
        <time>2015-01-17T08:44:43Z</time>
      </trkpt>
      <trkpt lat="42.399760000" lon="-2.634929000">
        <ele>673.20</ele>
        <time>2015-01-17T08:44:44Z</time>
      </trkpt>
      <trkpt lat="42.399767000" lon="-2.634956000">
        <ele>673.30</ele>
        <time>2015-01-17T08:44:45Z</time>
      </trkpt>
      <trkpt lat="42.399772000" lon="-2.634983000">
        <ele>673.40</ele>
        <time>2015-01-17T08:44:46Z</time>
      </trkpt>
      <trkpt lat="42.399779000" lon="-2.635009000">
        <ele>673.50</ele>
        <time>2015-01-17T08:44:47Z</time>
      </trkpt>
      <trkpt lat="42.399791000" lon="-2.635040000">
        <ele>673.50</ele>
        <time>2015-01-17T08:44:48Z</time>
      </trkpt>
      <trkpt lat="42.399804000" lon="-2.635065000">
        <ele>673.60</ele>
        <time>2015-01-17T08:44:49Z</time>
      </trkpt>
      <trkpt lat="42.399814000" lon="-2.635091000">
        <ele>673.70</ele>
        <time>2015-01-17T08:44:50Z</time>
      </trkpt>
      <trkpt lat="42.399823000" lon="-2.635118000">
        <ele>673.70</ele>
        <time>2015-01-17T08:44:51Z</time>
      </trkpt>
      <trkpt lat="42.399836000" lon="-2.635147000">
        <ele>673.70</ele>
        <time>2015-01-17T08:44:52Z</time>
      </trkpt>
      <trkpt lat="42.399844000" lon="-2.635176000">
        <ele>673.80</ele>
        <time>2015-01-17T08:44:53Z</time>
      </trkpt>
      <trkpt lat="42.399854000" lon="-2.635201000">
        <ele>673.80</ele>
        <time>2015-01-17T08:44:54Z</time>
      </trkpt>
      <trkpt lat="42.399864000" lon="-2.635228000">
        <ele>674.20</ele>
        <time>2015-01-17T08:44:55Z</time>
      </trkpt>
      <trkpt lat="42.399876000" lon="-2.635253000">
        <ele>674.50</ele>
        <time>2015-01-17T08:44:56Z</time>
      </trkpt>
      <trkpt lat="42.399888000" lon="-2.635279000">
        <ele>674.90</ele>
        <time>2015-01-17T08:44:57Z</time>
      </trkpt>
      <trkpt lat="42.399900000" lon="-2.635298000">
        <ele>675.20</ele>
        <time>2015-01-17T08:44:58Z</time>
      </trkpt>
      <trkpt lat="42.399915000" lon="-2.635320000">
        <ele>675.40</ele>
        <time>2015-01-17T08:44:59Z</time>
      </trkpt>
      <trkpt lat="42.399927000" lon="-2.635344000">
        <ele>675.60</ele>
        <time>2015-01-17T08:45:00Z</time>
      </trkpt>
      <trkpt lat="42.399943000" lon="-2.635368000">
        <ele>675.90</ele>
        <time>2015-01-17T08:45:01Z</time>
      </trkpt>
      <trkpt lat="42.399959000" lon="-2.635391000">
        <ele>676.00</ele>
        <time>2015-01-17T08:45:02Z</time>
      </trkpt>
      <trkpt lat="42.399974000" lon="-2.635412000">
        <ele>676.40</ele>
        <time>2015-01-17T08:45:03Z</time>
      </trkpt>
      <trkpt lat="42.399989000" lon="-2.635434000">
        <ele>676.60</ele>
        <time>2015-01-17T08:45:04Z</time>
      </trkpt>
      <trkpt lat="42.400005000" lon="-2.635456000">
        <ele>676.80</ele>
        <time>2015-01-17T08:45:05Z</time>
      </trkpt>
      <trkpt lat="42.400022000" lon="-2.635480000">
        <ele>677.00</ele>
        <time>2015-01-17T08:45:06Z</time>
      </trkpt>
      <trkpt lat="42.400035000" lon="-2.635503000">
        <ele>677.30</ele>
        <time>2015-01-17T08:45:07Z</time>
      </trkpt>
      <trkpt lat="42.400047000" lon="-2.635522000">
        <ele>677.60</ele>
        <time>2015-01-17T08:45:08Z</time>
      </trkpt>
      <trkpt lat="42.400062000" lon="-2.635544000">
        <ele>677.90</ele>
        <time>2015-01-17T08:45:09Z</time>
      </trkpt>
      <trkpt lat="42.400081000" lon="-2.635565000">
        <ele>678.10</ele>
        <time>2015-01-17T08:45:10Z</time>
      </trkpt>
      <trkpt lat="42.400097000" lon="-2.635590000">
        <ele>678.30</ele>
        <time>2015-01-17T08:45:11Z</time>
      </trkpt>
      <trkpt lat="42.400126000" lon="-2.635633000">
        <ele>678.60</ele>
        <time>2015-01-17T08:45:13Z</time>
      </trkpt>
      <trkpt lat="42.400140000" lon="-2.635656000">
        <ele>678.70</ele>
        <time>2015-01-17T08:45:14Z</time>
      </trkpt>
      <trkpt lat="42.400154000" lon="-2.635680000">
        <ele>679.10</ele>
        <time>2015-01-17T08:45:15Z</time>
      </trkpt>
      <trkpt lat="42.400169000" lon="-2.635703000">
        <ele>679.30</ele>
        <time>2015-01-17T08:45:16Z</time>
      </trkpt>
      <trkpt lat="42.400185000" lon="-2.635719000">
        <ele>679.70</ele>
        <time>2015-01-17T08:45:17Z</time>
      </trkpt>
      <trkpt lat="42.400198000" lon="-2.635741000">
        <ele>679.90</ele>
        <time>2015-01-17T08:45:18Z</time>
      </trkpt>
      <trkpt lat="42.400214000" lon="-2.635763000">
        <ele>680.10</ele>
        <time>2015-01-17T08:45:19Z</time>
      </trkpt>
      <trkpt lat="42.400226000" lon="-2.635781000">
        <ele>680.20</ele>
        <time>2015-01-17T08:45:20Z</time>
      </trkpt>
      <trkpt lat="42.400239000" lon="-2.635800000">
        <ele>680.40</ele>
        <time>2015-01-17T08:45:21Z</time>
      </trkpt>
      <trkpt lat="42.400255000" lon="-2.635823000">
        <ele>680.60</ele>
        <time>2015-01-17T08:45:22Z</time>
      </trkpt>
      <trkpt lat="42.400273000" lon="-2.635845000">
        <ele>680.90</ele>
        <time>2015-01-17T08:45:23Z</time>
      </trkpt>
      <trkpt lat="42.400286000" lon="-2.635864000">
        <ele>681.20</ele>
        <time>2015-01-17T08:45:24Z</time>
      </trkpt>
      <trkpt lat="42.400302000" lon="-2.635883000">
        <ele>681.50</ele>
        <time>2015-01-17T08:45:25Z</time>
      </trkpt>
      <trkpt lat="42.400316000" lon="-2.635904000">
        <ele>681.70</ele>
        <time>2015-01-17T08:45:26Z</time>
      </trkpt>
      <trkpt lat="42.400334000" lon="-2.635927000">
        <ele>682.00</ele>
        <time>2015-01-17T08:45:27Z</time>
      </trkpt>
      <trkpt lat="42.400349000" lon="-2.635943000">
        <ele>682.20</ele>
        <time>2015-01-17T08:45:28Z</time>
      </trkpt>
      <trkpt lat="42.400366000" lon="-2.635961000">
        <ele>682.30</ele>
        <time>2015-01-17T08:45:29Z</time>
      </trkpt>
      <trkpt lat="42.400382000" lon="-2.635981000">
        <ele>682.40</ele>
        <time>2015-01-17T08:45:30Z</time>
      </trkpt>
      <trkpt lat="42.400399000" lon="-2.636003000">
        <ele>682.90</ele>
        <time>2015-01-17T08:45:31Z</time>
      </trkpt>
      <trkpt lat="42.400412000" lon="-2.636025000">
        <ele>683.30</ele>
        <time>2015-01-17T08:45:32Z</time>
      </trkpt>
      <trkpt lat="42.400426000" lon="-2.636046000">
        <ele>683.60</ele>
        <time>2015-01-17T08:45:33Z</time>
      </trkpt>
      <trkpt lat="42.400440000" lon="-2.636068000">
        <ele>683.90</ele>
        <time>2015-01-17T08:45:34Z</time>
      </trkpt>
      <trkpt lat="42.400456000" lon="-2.636090000">
        <ele>684.20</ele>
        <time>2015-01-17T08:45:35Z</time>
      </trkpt>
      <trkpt lat="42.400470000" lon="-2.636106000">
        <ele>684.40</ele>
        <time>2015-01-17T08:45:36Z</time>
      </trkpt>
      <trkpt lat="42.400484000" lon="-2.636130000">
        <ele>684.80</ele>
        <time>2015-01-17T08:45:37Z</time>
      </trkpt>
      <trkpt lat="42.400498000" lon="-2.636153000">
        <ele>685.00</ele>
        <time>2015-01-17T08:45:38Z</time>
      </trkpt>
      <trkpt lat="42.400517000" lon="-2.636174000">
        <ele>685.30</ele>
        <time>2015-01-17T08:45:39Z</time>
      </trkpt>
      <trkpt lat="42.400532000" lon="-2.636192000">
        <ele>685.50</ele>
        <time>2015-01-17T08:45:40Z</time>
      </trkpt>
      <trkpt lat="42.400546000" lon="-2.636213000">
        <ele>685.80</ele>
        <time>2015-01-17T08:45:41Z</time>
      </trkpt>
      <trkpt lat="42.400560000" lon="-2.636236000">
        <ele>686.00</ele>
        <time>2015-01-17T08:45:42Z</time>
      </trkpt>
      <trkpt lat="42.400579000" lon="-2.636255000">
        <ele>686.40</ele>
        <time>2015-01-17T08:45:43Z</time>
      </trkpt>
      <trkpt lat="42.400594000" lon="-2.636279000">
        <ele>686.70</ele>
        <time>2015-01-17T08:45:44Z</time>
      </trkpt>
      <trkpt lat="42.400609000" lon="-2.636302000">
        <ele>686.90</ele>
        <time>2015-01-17T08:45:45Z</time>
      </trkpt>
      <trkpt lat="42.400625000" lon="-2.636322000">
        <ele>687.10</ele>
        <time>2015-01-17T08:45:46Z</time>
      </trkpt>
      <trkpt lat="42.400640000" lon="-2.636345000">
        <ele>687.10</ele>
        <time>2015-01-17T08:45:47Z</time>
      </trkpt>
      <trkpt lat="42.400657000" lon="-2.636364000">
        <ele>687.10</ele>
        <time>2015-01-17T08:45:48Z</time>
      </trkpt>
      <trkpt lat="42.400676000" lon="-2.636383000">
        <ele>687.10</ele>
        <time>2015-01-17T08:45:49Z</time>
      </trkpt>
      <trkpt lat="42.400694000" lon="-2.636400000">
        <ele>687.10</ele>
        <time>2015-01-17T08:45:50Z</time>
      </trkpt>
      <trkpt lat="42.400714000" lon="-2.636418000">
        <ele>687.20</ele>
        <time>2015-01-17T08:45:51Z</time>
      </trkpt>
      <trkpt lat="42.400733000" lon="-2.636437000">
        <ele>687.20</ele>
        <time>2015-01-17T08:45:52Z</time>
      </trkpt>
      <trkpt lat="42.400754000" lon="-2.636455000">
        <ele>687.40</ele>
        <time>2015-01-17T08:45:53Z</time>
      </trkpt>
      <trkpt lat="42.400774000" lon="-2.636475000">
        <ele>687.50</ele>
        <time>2015-01-17T08:45:54Z</time>
      </trkpt>
      <trkpt lat="42.400792000" lon="-2.636493000">
        <ele>687.50</ele>
        <time>2015-01-17T08:45:55Z</time>
      </trkpt>
      <trkpt lat="42.400812000" lon="-2.636509000">
        <ele>687.40</ele>
        <time>2015-01-17T08:45:56Z</time>
      </trkpt>
      <trkpt lat="42.400833000" lon="-2.636522000">
        <ele>687.70</ele>
        <time>2015-01-17T08:45:57Z</time>
      </trkpt>
      <trkpt lat="42.400855000" lon="-2.636537000">
        <ele>687.90</ele>
        <time>2015-01-17T08:45:58Z</time>
      </trkpt>
      <trkpt lat="42.400877000" lon="-2.636555000">
        <ele>688.10</ele>
        <time>2015-01-17T08:45:59Z</time>
      </trkpt>
      <trkpt lat="42.400901000" lon="-2.636567000">
        <ele>688.20</ele>
        <time>2015-01-17T08:46:00Z</time>
      </trkpt>
      <trkpt lat="42.400926000" lon="-2.636577000">
        <ele>688.30</ele>
        <time>2015-01-17T08:46:01Z</time>
      </trkpt>
      <trkpt lat="42.400947000" lon="-2.636590000">
        <ele>688.40</ele>
        <time>2015-01-17T08:46:02Z</time>
      </trkpt>
      <trkpt lat="42.400970000" lon="-2.636602000">
        <ele>688.50</ele>
        <time>2015-01-17T08:46:03Z</time>
      </trkpt>
      <trkpt lat="42.400994000" lon="-2.636613000">
        <ele>688.60</ele>
        <time>2015-01-17T08:46:04Z</time>
      </trkpt>
      <trkpt lat="42.401018000" lon="-2.636627000">
        <ele>688.80</ele>
        <time>2015-01-17T08:46:05Z</time>
      </trkpt>
      <trkpt lat="42.401042000" lon="-2.636636000">
        <ele>688.90</ele>
        <time>2015-01-17T08:46:06Z</time>
      </trkpt>
      <trkpt lat="42.401064000" lon="-2.636646000">
        <ele>689.00</ele>
        <time>2015-01-17T08:46:07Z</time>
      </trkpt>
      <trkpt lat="42.401089000" lon="-2.636657000">
        <ele>689.10</ele>
        <time>2015-01-17T08:46:08Z</time>
      </trkpt>
      <trkpt lat="42.401115000" lon="-2.636666000">
        <ele>689.00</ele>
        <time>2015-01-17T08:46:09Z</time>
      </trkpt>
      <trkpt lat="42.401143000" lon="-2.636667000">
        <ele>688.90</ele>
        <time>2015-01-17T08:46:10Z</time>
      </trkpt>
      <trkpt lat="42.401170000" lon="-2.636670000">
        <ele>688.90</ele>
        <time>2015-01-17T08:46:11Z</time>
      </trkpt>
      <trkpt lat="42.401196000" lon="-2.636672000">
        <ele>688.90</ele>
        <time>2015-01-17T08:46:12Z</time>
      </trkpt>
      <trkpt lat="42.401246000" lon="-2.636678000">
        <ele>688.80</ele>
        <time>2015-01-17T08:46:14Z</time>
      </trkpt>
      <trkpt lat="42.401275000" lon="-2.636679000">
        <ele>688.90</ele>
        <time>2015-01-17T08:46:15Z</time>
      </trkpt>
      <trkpt lat="42.401300000" lon="-2.636677000">
        <ele>689.00</ele>
        <time>2015-01-17T08:46:16Z</time>
      </trkpt>
      <trkpt lat="42.401324000" lon="-2.636673000">
        <ele>689.10</ele>
        <time>2015-01-17T08:46:17Z</time>
      </trkpt>
      <trkpt lat="42.401351000" lon="-2.636669000">
        <ele>689.10</ele>
        <time>2015-01-17T08:46:18Z</time>
      </trkpt>
      <trkpt lat="42.401375000" lon="-2.636670000">
        <ele>689.40</ele>
        <time>2015-01-17T08:46:19Z</time>
      </trkpt>
      <trkpt lat="42.401397000" lon="-2.636666000">
        <ele>689.60</ele>
        <time>2015-01-17T08:46:20Z</time>
      </trkpt>
      <trkpt lat="42.401419000" lon="-2.636664000">
        <ele>689.90</ele>
        <time>2015-01-17T08:46:21Z</time>
      </trkpt>
      <trkpt lat="42.401443000" lon="-2.636663000">
        <ele>690.10</ele>
        <time>2015-01-17T08:46:22Z</time>
      </trkpt>
      <trkpt lat="42.401467000" lon="-2.636661000">
        <ele>690.40</ele>
        <time>2015-01-17T08:46:23Z</time>
      </trkpt>
      <trkpt lat="42.401491000" lon="-2.636661000">
        <ele>690.50</ele>
        <time>2015-01-17T08:46:24Z</time>
      </trkpt>
      <trkpt lat="42.401516000" lon="-2.636662000">
        <ele>690.70</ele>
        <time>2015-01-17T08:46:25Z</time>
      </trkpt>
      <trkpt lat="42.401542000" lon="-2.636663000">
        <ele>690.80</ele>
        <time>2015-01-17T08:46:26Z</time>
      </trkpt>
      <trkpt lat="42.401569000" lon="-2.636664000">
        <ele>690.80</ele>
        <time>2015-01-17T08:46:27Z</time>
      </trkpt>
      <trkpt lat="42.401593000" lon="-2.636665000">
        <ele>690.90</ele>
        <time>2015-01-17T08:46:28Z</time>
      </trkpt>
      <trkpt lat="42.401617000" lon="-2.636670000">
        <ele>691.00</ele>
        <time>2015-01-17T08:46:29Z</time>
      </trkpt>
      <trkpt lat="42.401641000" lon="-2.636675000">
        <ele>691.20</ele>
        <time>2015-01-17T08:46:30Z</time>
      </trkpt>
      <trkpt lat="42.401666000" lon="-2.636681000">
        <ele>691.40</ele>
        <time>2015-01-17T08:46:31Z</time>
      </trkpt>
      <trkpt lat="42.401692000" lon="-2.636688000">
        <ele>691.60</ele>
        <time>2015-01-17T08:46:32Z</time>
      </trkpt>
      <trkpt lat="42.401717000" lon="-2.636696000">
        <ele>691.80</ele>
        <time>2015-01-17T08:46:33Z</time>
      </trkpt>
      <trkpt lat="42.401744000" lon="-2.636701000">
        <ele>691.90</ele>
        <time>2015-01-17T08:46:34Z</time>
      </trkpt>
      <trkpt lat="42.401770000" lon="-2.636703000">
        <ele>692.00</ele>
        <time>2015-01-17T08:46:35Z</time>
      </trkpt>
      <trkpt lat="42.401796000" lon="-2.636705000">
        <ele>692.00</ele>
        <time>2015-01-17T08:46:36Z</time>
      </trkpt>
      <trkpt lat="42.401821000" lon="-2.636710000">
        <ele>692.20</ele>
        <time>2015-01-17T08:46:37Z</time>
      </trkpt>
      <trkpt lat="42.401848000" lon="-2.636711000">
        <ele>692.30</ele>
        <time>2015-01-17T08:46:38Z</time>
      </trkpt>
      <trkpt lat="42.401874000" lon="-2.636712000">
        <ele>692.40</ele>
        <time>2015-01-17T08:46:39Z</time>
      </trkpt>
      <trkpt lat="42.401899000" lon="-2.636711000">
        <ele>692.50</ele>
        <time>2015-01-17T08:46:40Z</time>
      </trkpt>
      <trkpt lat="42.401927000" lon="-2.636710000">
        <ele>692.40</ele>
        <time>2015-01-17T08:46:41Z</time>
      </trkpt>
      <trkpt lat="42.401953000" lon="-2.636709000">
        <ele>692.40</ele>
        <time>2015-01-17T08:46:42Z</time>
      </trkpt>
      <trkpt lat="42.401979000" lon="-2.636707000">
        <ele>692.30</ele>
        <time>2015-01-17T08:46:43Z</time>
      </trkpt>
      <trkpt lat="42.402008000" lon="-2.636707000">
        <ele>692.30</ele>
        <time>2015-01-17T08:46:44Z</time>
      </trkpt>
      <trkpt lat="42.402032000" lon="-2.636707000">
        <ele>692.30</ele>
        <time>2015-01-17T08:46:45Z</time>
      </trkpt>
      <trkpt lat="42.402057000" lon="-2.636705000">
        <ele>692.40</ele>
        <time>2015-01-17T08:46:46Z</time>
      </trkpt>
      <trkpt lat="42.402085000" lon="-2.636703000">
        <ele>692.80</ele>
        <time>2015-01-17T08:46:47Z</time>
      </trkpt>
      <trkpt lat="42.402113000" lon="-2.636704000">
        <ele>693.00</ele>
        <time>2015-01-17T08:46:48Z</time>
      </trkpt>
      <trkpt lat="42.402139000" lon="-2.636710000">
        <ele>693.30</ele>
        <time>2015-01-17T08:46:49Z</time>
      </trkpt>
      <trkpt lat="42.402164000" lon="-2.636712000">
        <ele>693.40</ele>
        <time>2015-01-17T08:46:50Z</time>
      </trkpt>
      <trkpt lat="42.402188000" lon="-2.636717000">
        <ele>693.70</ele>
        <time>2015-01-17T08:46:51Z</time>
      </trkpt>
      <trkpt lat="42.402212000" lon="-2.636721000">
        <ele>693.80</ele>
        <time>2015-01-17T08:46:52Z</time>
      </trkpt>
      <trkpt lat="42.402237000" lon="-2.636725000">
        <ele>694.10</ele>
        <time>2015-01-17T08:46:53Z</time>
      </trkpt>
      <trkpt lat="42.402261000" lon="-2.636735000">
        <ele>694.20</ele>
        <time>2015-01-17T08:46:54Z</time>
      </trkpt>
      <trkpt lat="42.402287000" lon="-2.636741000">
        <ele>694.60</ele>
        <time>2015-01-17T08:46:55Z</time>
      </trkpt>
      <trkpt lat="42.402313000" lon="-2.636749000">
        <ele>694.80</ele>
        <time>2015-01-17T08:46:56Z</time>
      </trkpt>
      <trkpt lat="42.402341000" lon="-2.636760000">
        <ele>695.10</ele>
        <time>2015-01-17T08:46:57Z</time>
      </trkpt>
      <trkpt lat="42.402368000" lon="-2.636771000">
        <ele>695.30</ele>
        <time>2015-01-17T08:46:58Z</time>
      </trkpt>
      <trkpt lat="42.402392000" lon="-2.636783000">
        <ele>695.50</ele>
        <time>2015-01-17T08:46:59Z</time>
      </trkpt>
      <trkpt lat="42.402418000" lon="-2.636795000">
        <ele>695.60</ele>
        <time>2015-01-17T08:47:00Z</time>
      </trkpt>
      <trkpt lat="42.402441000" lon="-2.636811000">
        <ele>695.70</ele>
        <time>2015-01-17T08:47:01Z</time>
      </trkpt>
      <trkpt lat="42.402460000" lon="-2.636834000">
        <ele>695.80</ele>
        <time>2015-01-17T08:47:02Z</time>
      </trkpt>
      <trkpt lat="42.402483000" lon="-2.636855000">
        <ele>695.90</ele>
        <time>2015-01-17T08:47:03Z</time>
      </trkpt>
      <trkpt lat="42.402505000" lon="-2.636875000">
        <ele>695.90</ele>
        <time>2015-01-17T08:47:04Z</time>
      </trkpt>
      <trkpt lat="42.402525000" lon="-2.636891000">
        <ele>696.00</ele>
        <time>2015-01-17T08:47:05Z</time>
      </trkpt>
      <trkpt lat="42.402546000" lon="-2.636913000">
        <ele>696.10</ele>
        <time>2015-01-17T08:47:06Z</time>
      </trkpt>
      <trkpt lat="42.402567000" lon="-2.636934000">
        <ele>696.20</ele>
        <time>2015-01-17T08:47:07Z</time>
      </trkpt>
      <trkpt lat="42.402590000" lon="-2.636951000">
        <ele>696.20</ele>
        <time>2015-01-17T08:47:08Z</time>
      </trkpt>
      <trkpt lat="42.402614000" lon="-2.636973000">
        <ele>696.30</ele>
        <time>2015-01-17T08:47:09Z</time>
      </trkpt>
      <trkpt lat="42.402636000" lon="-2.636996000">
        <ele>696.30</ele>
        <time>2015-01-17T08:47:10Z</time>
      </trkpt>
      <trkpt lat="42.402660000" lon="-2.637019000">
        <ele>696.30</ele>
        <time>2015-01-17T08:47:11Z</time>
      </trkpt>
      <trkpt lat="42.402683000" lon="-2.637042000">
        <ele>696.30</ele>
        <time>2015-01-17T08:47:12Z</time>
      </trkpt>
      <trkpt lat="42.402705000" lon="-2.637062000">
        <ele>696.40</ele>
        <time>2015-01-17T08:47:13Z</time>
      </trkpt>
      <trkpt lat="42.402752000" lon="-2.637110000">
        <ele>696.70</ele>
        <time>2015-01-17T08:47:15Z</time>
      </trkpt>
      <trkpt lat="42.402773000" lon="-2.637131000">
        <ele>696.90</ele>
        <time>2015-01-17T08:47:16Z</time>
      </trkpt>
      <trkpt lat="42.402796000" lon="-2.637157000">
        <ele>697.00</ele>
        <time>2015-01-17T08:47:17Z</time>
      </trkpt>
      <trkpt lat="42.402818000" lon="-2.637182000">
        <ele>697.10</ele>
        <time>2015-01-17T08:47:18Z</time>
      </trkpt>
      <trkpt lat="42.402842000" lon="-2.637204000">
        <ele>697.10</ele>
        <time>2015-01-17T08:47:19Z</time>
      </trkpt>
      <trkpt lat="42.402866000" lon="-2.637224000">
        <ele>697.20</ele>
        <time>2015-01-17T08:47:20Z</time>
      </trkpt>
      <trkpt lat="42.402889000" lon="-2.637246000">
        <ele>697.50</ele>
        <time>2015-01-17T08:47:21Z</time>
      </trkpt>
      <trkpt lat="42.402910000" lon="-2.637269000">
        <ele>697.70</ele>
        <time>2015-01-17T08:47:22Z</time>
      </trkpt>
      <trkpt lat="42.402931000" lon="-2.637294000">
        <ele>697.90</ele>
        <time>2015-01-17T08:47:23Z</time>
      </trkpt>
      <trkpt lat="42.402950000" lon="-2.637319000">
        <ele>698.10</ele>
        <time>2015-01-17T08:47:24Z</time>
      </trkpt>
      <trkpt lat="42.402969000" lon="-2.637343000">
        <ele>698.10</ele>
        <time>2015-01-17T08:47:25Z</time>
      </trkpt>
      <trkpt lat="42.402986000" lon="-2.637366000">
        <ele>698.20</ele>
        <time>2015-01-17T08:47:26Z</time>
      </trkpt>
      <trkpt lat="42.403003000" lon="-2.637389000">
        <ele>698.30</ele>
        <time>2015-01-17T08:47:27Z</time>
      </trkpt>
      <trkpt lat="42.403020000" lon="-2.637415000">
        <ele>698.30</ele>
        <time>2015-01-17T08:47:28Z</time>
      </trkpt>
      <trkpt lat="42.403038000" lon="-2.637442000">
        <ele>698.60</ele>
        <time>2015-01-17T08:47:29Z</time>
      </trkpt>
      <trkpt lat="42.403053000" lon="-2.637464000">
        <ele>698.90</ele>
        <time>2015-01-17T08:47:30Z</time>
      </trkpt>
      <trkpt lat="42.403070000" lon="-2.637489000">
        <ele>699.20</ele>
        <time>2015-01-17T08:47:31Z</time>
      </trkpt>
      <trkpt lat="42.403089000" lon="-2.637512000">
        <ele>699.50</ele>
        <time>2015-01-17T08:47:32Z</time>
      </trkpt>
      <trkpt lat="42.403104000" lon="-2.637536000">
        <ele>699.80</ele>
        <time>2015-01-17T08:47:33Z</time>
      </trkpt>
      <trkpt lat="42.403120000" lon="-2.637564000">
        <ele>699.90</ele>
        <time>2015-01-17T08:47:34Z</time>
      </trkpt>
      <trkpt lat="42.403138000" lon="-2.637587000">
        <ele>700.10</ele>
        <time>2015-01-17T08:47:35Z</time>
      </trkpt>
      <trkpt lat="42.403152000" lon="-2.637606000">
        <ele>700.20</ele>
        <time>2015-01-17T08:47:36Z</time>
      </trkpt>
      <trkpt lat="42.403168000" lon="-2.637632000">
        <ele>700.30</ele>
        <time>2015-01-17T08:47:37Z</time>
      </trkpt>
      <trkpt lat="42.403182000" lon="-2.637657000">
        <ele>700.30</ele>
        <time>2015-01-17T08:47:38Z</time>
      </trkpt>
      <trkpt lat="42.403197000" lon="-2.637681000">
        <ele>700.50</ele>
        <time>2015-01-17T08:47:39Z</time>
      </trkpt>
      <trkpt lat="42.403212000" lon="-2.637707000">
        <ele>700.60</ele>
        <time>2015-01-17T08:47:40Z</time>
      </trkpt>
      <trkpt lat="42.403227000" lon="-2.637734000">
        <ele>700.80</ele>
        <time>2015-01-17T08:47:41Z</time>
      </trkpt>
      <trkpt lat="42.403240000" lon="-2.637757000">
        <ele>700.90</ele>
        <time>2015-01-17T08:47:42Z</time>
      </trkpt>
      <trkpt lat="42.403256000" lon="-2.637775000">
        <ele>701.10</ele>
        <time>2015-01-17T08:47:43Z</time>
      </trkpt>
      <trkpt lat="42.403273000" lon="-2.637797000">
        <ele>701.30</ele>
        <time>2015-01-17T08:47:44Z</time>
      </trkpt>
      <trkpt lat="42.403285000" lon="-2.637819000">
        <ele>701.50</ele>
        <time>2015-01-17T08:47:45Z</time>
      </trkpt>
      <trkpt lat="42.403301000" lon="-2.637844000">
        <ele>701.70</ele>
        <time>2015-01-17T08:47:46Z</time>
      </trkpt>
      <trkpt lat="42.403316000" lon="-2.637862000">
        <ele>701.90</ele>
        <time>2015-01-17T08:47:47Z</time>
      </trkpt>
      <trkpt lat="42.403330000" lon="-2.637883000">
        <ele>702.10</ele>
        <time>2015-01-17T08:47:48Z</time>
      </trkpt>
      <trkpt lat="42.403345000" lon="-2.637906000">
        <ele>702.20</ele>
        <time>2015-01-17T08:47:49Z</time>
      </trkpt>
      <trkpt lat="42.403362000" lon="-2.637931000">
        <ele>702.30</ele>
        <time>2015-01-17T08:47:50Z</time>
      </trkpt>
      <trkpt lat="42.403378000" lon="-2.637954000">
        <ele>702.50</ele>
        <time>2015-01-17T08:47:51Z</time>
      </trkpt>
      <trkpt lat="42.403394000" lon="-2.637974000">
        <ele>702.70</ele>
        <time>2015-01-17T08:47:52Z</time>
      </trkpt>
      <trkpt lat="42.403410000" lon="-2.637996000">
        <ele>702.90</ele>
        <time>2015-01-17T08:47:53Z</time>
      </trkpt>
      <trkpt lat="42.403427000" lon="-2.638019000">
        <ele>703.10</ele>
        <time>2015-01-17T08:47:54Z</time>
      </trkpt>
      <trkpt lat="42.403444000" lon="-2.638040000">
        <ele>703.40</ele>
        <time>2015-01-17T08:47:55Z</time>
      </trkpt>
      <trkpt lat="42.403459000" lon="-2.638062000">
        <ele>703.60</ele>
        <time>2015-01-17T08:47:56Z</time>
      </trkpt>
      <trkpt lat="42.403476000" lon="-2.638083000">
        <ele>703.90</ele>
        <time>2015-01-17T08:47:57Z</time>
      </trkpt>
      <trkpt lat="42.403493000" lon="-2.638107000">
        <ele>704.10</ele>
        <time>2015-01-17T08:47:58Z</time>
      </trkpt>
      <trkpt lat="42.403507000" lon="-2.638130000">
        <ele>704.30</ele>
        <time>2015-01-17T08:47:59Z</time>
      </trkpt>
      <trkpt lat="42.403521000" lon="-2.638150000">
        <ele>704.40</ele>
        <time>2015-01-17T08:48:00Z</time>
      </trkpt>
      <trkpt lat="42.403536000" lon="-2.638167000">
        <ele>704.50</ele>
        <time>2015-01-17T08:48:01Z</time>
      </trkpt>
      <trkpt lat="42.403551000" lon="-2.638187000">
        <ele>704.50</ele>
        <time>2015-01-17T08:48:02Z</time>
      </trkpt>
      <trkpt lat="42.403567000" lon="-2.638208000">
        <ele>704.80</ele>
        <time>2015-01-17T08:48:03Z</time>
      </trkpt>
      <trkpt lat="42.403583000" lon="-2.638230000">
        <ele>705.00</ele>
        <time>2015-01-17T08:48:04Z</time>
      </trkpt>
      <trkpt lat="42.403600000" lon="-2.638251000">
        <ele>705.40</ele>
        <time>2015-01-17T08:48:05Z</time>
      </trkpt>
      <trkpt lat="42.403616000" lon="-2.638274000">
        <ele>705.60</ele>
        <time>2015-01-17T08:48:06Z</time>
      </trkpt>
      <trkpt lat="42.403632000" lon="-2.638297000">
        <ele>706.00</ele>
        <time>2015-01-17T08:48:07Z</time>
      </trkpt>
      <trkpt lat="42.403650000" lon="-2.638320000">
        <ele>706.30</ele>
        <time>2015-01-17T08:48:08Z</time>
      </trkpt>
      <trkpt lat="42.403669000" lon="-2.638340000">
        <ele>706.50</ele>
        <time>2015-01-17T08:48:09Z</time>
      </trkpt>
      <trkpt lat="42.403686000" lon="-2.638360000">
        <ele>706.70</ele>
        <time>2015-01-17T08:48:10Z</time>
      </trkpt>
      <trkpt lat="42.403702000" lon="-2.638383000">
        <ele>706.80</ele>
        <time>2015-01-17T08:48:11Z</time>
      </trkpt>
      <trkpt lat="42.403717000" lon="-2.638406000">
        <ele>707.00</ele>
        <time>2015-01-17T08:48:12Z</time>
      </trkpt>
      <trkpt lat="42.403730000" lon="-2.638426000">
        <ele>707.10</ele>
        <time>2015-01-17T08:48:13Z</time>
      </trkpt>
      <trkpt lat="42.403745000" lon="-2.638445000">
        <ele>707.20</ele>
        <time>2015-01-17T08:48:14Z</time>
      </trkpt>
      <trkpt lat="42.403776000" lon="-2.638486000">
        <ele>707.70</ele>
        <time>2015-01-17T08:48:16Z</time>
      </trkpt>
      <trkpt lat="42.403792000" lon="-2.638508000">
        <ele>707.90</ele>
        <time>2015-01-17T08:48:17Z</time>
      </trkpt>
      <trkpt lat="42.403808000" lon="-2.638529000">
        <ele>708.10</ele>
        <time>2015-01-17T08:48:18Z</time>
      </trkpt>
      <trkpt lat="42.403824000" lon="-2.638552000">
        <ele>708.40</ele>
        <time>2015-01-17T08:48:19Z</time>
      </trkpt>
      <trkpt lat="42.403840000" lon="-2.638574000">
        <ele>708.60</ele>
        <time>2015-01-17T08:48:20Z</time>
      </trkpt>
      <trkpt lat="42.403854000" lon="-2.638592000">
        <ele>708.90</ele>
        <time>2015-01-17T08:48:21Z</time>
      </trkpt>
      <trkpt lat="42.403871000" lon="-2.638608000">
        <ele>709.10</ele>
        <time>2015-01-17T08:48:22Z</time>
      </trkpt>
      <trkpt lat="42.403885000" lon="-2.638627000">
        <ele>709.20</ele>
        <time>2015-01-17T08:48:23Z</time>
      </trkpt>
      <trkpt lat="42.403901000" lon="-2.638647000">
        <ele>709.30</ele>
        <time>2015-01-17T08:48:24Z</time>
      </trkpt>
      <trkpt lat="42.403919000" lon="-2.638665000">
        <ele>709.50</ele>
        <time>2015-01-17T08:48:25Z</time>
      </trkpt>
      <trkpt lat="42.403935000" lon="-2.638684000">
        <ele>709.60</ele>
        <time>2015-01-17T08:48:26Z</time>
      </trkpt>
      <trkpt lat="42.403947000" lon="-2.638709000">
        <ele>709.80</ele>
        <time>2015-01-17T08:48:27Z</time>
      </trkpt>
      <trkpt lat="42.403956000" lon="-2.638730000">
        <ele>709.90</ele>
        <time>2015-01-17T08:48:28Z</time>
      </trkpt>
      <trkpt lat="42.403968000" lon="-2.638752000">
        <ele>710.10</ele>
        <time>2015-01-17T08:48:29Z</time>
      </trkpt>
      <trkpt lat="42.403979000" lon="-2.638777000">
        <ele>710.20</ele>
        <time>2015-01-17T08:48:30Z</time>
      </trkpt>
      <trkpt lat="42.403991000" lon="-2.638804000">
        <ele>710.30</ele>
        <time>2015-01-17T08:48:31Z</time>
      </trkpt>
      <trkpt lat="42.403998000" lon="-2.638833000">
        <ele>710.40</ele>
        <time>2015-01-17T08:48:32Z</time>
      </trkpt>
      <trkpt lat="42.404000000" lon="-2.638863000">
        <ele>710.50</ele>
        <time>2015-01-17T08:48:33Z</time>
      </trkpt>
      <trkpt lat="42.404000000" lon="-2.638893000">
        <ele>710.60</ele>
        <time>2015-01-17T08:48:34Z</time>
      </trkpt>
      <trkpt lat="42.403999000" lon="-2.638923000">
        <ele>710.90</ele>
        <time>2015-01-17T08:48:35Z</time>
      </trkpt>
      <trkpt lat="42.404000000" lon="-2.638953000">
        <ele>711.20</ele>
        <time>2015-01-17T08:48:36Z</time>
      </trkpt>
      <trkpt lat="42.403998000" lon="-2.638984000">
        <ele>711.40</ele>
        <time>2015-01-17T08:48:37Z</time>
      </trkpt>
      <trkpt lat="42.403993000" lon="-2.639013000">
        <ele>711.60</ele>
        <time>2015-01-17T08:48:38Z</time>
      </trkpt>
      <trkpt lat="42.403987000" lon="-2.639039000">
        <ele>711.70</ele>
        <time>2015-01-17T08:48:39Z</time>
      </trkpt>
      <trkpt lat="42.403982000" lon="-2.639065000">
        <ele>711.90</ele>
        <time>2015-01-17T08:48:40Z</time>
      </trkpt>
      <trkpt lat="42.403974000" lon="-2.639089000">
        <ele>712.00</ele>
        <time>2015-01-17T08:48:41Z</time>
      </trkpt>
      <trkpt lat="42.403964000" lon="-2.639111000">
        <ele>712.00</ele>
        <time>2015-01-17T08:48:42Z</time>
      </trkpt>
      <trkpt lat="42.403951000" lon="-2.639132000">
        <ele>712.00</ele>
        <time>2015-01-17T08:48:43Z</time>
      </trkpt>
      <trkpt lat="42.403937000" lon="-2.639148000">
        <ele>712.00</ele>
        <time>2015-01-17T08:48:44Z</time>
      </trkpt>
      <trkpt lat="42.403924000" lon="-2.639165000">
        <ele>712.00</ele>
        <time>2015-01-17T08:48:45Z</time>
      </trkpt>
      <trkpt lat="42.403912000" lon="-2.639179000">
        <ele>712.00</ele>
        <time>2015-01-17T08:48:46Z</time>
      </trkpt>
      <trkpt lat="42.403892000" lon="-2.639191000">
        <ele>712.50</ele>
        <time>2015-01-17T08:48:47Z</time>
      </trkpt>
      <trkpt lat="42.403874000" lon="-2.639203000">
        <ele>712.80</ele>
        <time>2015-01-17T08:48:48Z</time>
      </trkpt>
      <trkpt lat="42.403854000" lon="-2.639212000">
        <ele>713.10</ele>
        <time>2015-01-17T08:48:49Z</time>
      </trkpt>
      <trkpt lat="42.403836000" lon="-2.639222000">
        <ele>713.30</ele>
        <time>2015-01-17T08:48:50Z</time>
      </trkpt>
      <trkpt lat="42.403821000" lon="-2.639230000">
        <ele>713.40</ele>
        <time>2015-01-17T08:48:51Z</time>
      </trkpt>
      <trkpt lat="42.403802000" lon="-2.639241000">
        <ele>713.50</ele>
        <time>2015-01-17T08:48:52Z</time>
      </trkpt>
      <trkpt lat="42.403783000" lon="-2.639253000">
        <ele>713.70</ele>
        <time>2015-01-17T08:48:53Z</time>
      </trkpt>
      <trkpt lat="42.403762000" lon="-2.639255000">
        <ele>713.70</ele>
        <time>2015-01-17T08:48:54Z</time>
      </trkpt>
      <trkpt lat="42.403744000" lon="-2.639259000">
        <ele>714.00</ele>
        <time>2015-01-17T08:48:55Z</time>
      </trkpt>
      <trkpt lat="42.403723000" lon="-2.639264000">
        <ele>714.20</ele>
        <time>2015-01-17T08:48:56Z</time>
      </trkpt>
      <trkpt lat="42.403700000" lon="-2.639265000">
        <ele>714.40</ele>
        <time>2015-01-17T08:48:57Z</time>
      </trkpt>
      <trkpt lat="42.403678000" lon="-2.639265000">
        <ele>714.50</ele>
        <time>2015-01-17T08:48:58Z</time>
      </trkpt>
      <trkpt lat="42.403658000" lon="-2.639264000">
        <ele>714.70</ele>
        <time>2015-01-17T08:48:59Z</time>
      </trkpt>
      <trkpt lat="42.403637000" lon="-2.639268000">
        <ele>714.70</ele>
        <time>2015-01-17T08:49:00Z</time>
      </trkpt>
      <trkpt lat="42.403621000" lon="-2.639269000">
        <ele>715.00</ele>
        <time>2015-01-17T08:49:01Z</time>
      </trkpt>
      <trkpt lat="42.403600000" lon="-2.639266000">
        <ele>715.20</ele>
        <time>2015-01-17T08:49:02Z</time>
      </trkpt>
      <trkpt lat="42.403580000" lon="-2.639262000">
        <ele>715.40</ele>
        <time>2015-01-17T08:49:03Z</time>
      </trkpt>
      <trkpt lat="42.403557000" lon="-2.639262000">
        <ele>715.50</ele>
        <time>2015-01-17T08:49:04Z</time>
      </trkpt>
      <trkpt lat="42.403536000" lon="-2.639261000">
        <ele>715.70</ele>
        <time>2015-01-17T08:49:05Z</time>
      </trkpt>
      <trkpt lat="42.403515000" lon="-2.639259000">
        <ele>715.80</ele>
        <time>2015-01-17T08:49:06Z</time>
      </trkpt>
      <trkpt lat="42.403499000" lon="-2.639255000">
        <ele>716.00</ele>
        <time>2015-01-17T08:49:07Z</time>
      </trkpt>
      <trkpt lat="42.403485000" lon="-2.639250000">
        <ele>716.10</ele>
        <time>2015-01-17T08:49:08Z</time>
      </trkpt>
      <trkpt lat="42.403466000" lon="-2.639244000">
        <ele>716.50</ele>
        <time>2015-01-17T08:49:09Z</time>
      </trkpt>
      <trkpt lat="42.403446000" lon="-2.639242000">
        <ele>716.80</ele>
        <time>2015-01-17T08:49:10Z</time>
      </trkpt>
      <trkpt lat="42.403428000" lon="-2.639238000">
        <ele>717.10</ele>
        <time>2015-01-17T08:49:11Z</time>
      </trkpt>
      <trkpt lat="42.403411000" lon="-2.639237000">
        <ele>717.20</ele>
        <time>2015-01-17T08:49:12Z</time>
      </trkpt>
      <trkpt lat="42.403392000" lon="-2.639234000">
        <ele>717.40</ele>
        <time>2015-01-17T08:49:13Z</time>
      </trkpt>
      <trkpt lat="42.403372000" lon="-2.639230000">
        <ele>717.60</ele>
        <time>2015-01-17T08:49:14Z</time>
      </trkpt>
      <trkpt lat="42.403353000" lon="-2.639224000">
        <ele>717.80</ele>
        <time>2015-01-17T08:49:15Z</time>
      </trkpt>
      <trkpt lat="42.403319000" lon="-2.639217000">
        <ele>718.00</ele>
        <time>2015-01-17T08:49:17Z</time>
      </trkpt>
      <trkpt lat="42.403302000" lon="-2.639218000">
        <ele>718.10</ele>
        <time>2015-01-17T08:49:18Z</time>
      </trkpt>
      <trkpt lat="42.403282000" lon="-2.639214000">
        <ele>718.30</ele>
        <time>2015-01-17T08:49:19Z</time>
      </trkpt>
      <trkpt lat="42.403263000" lon="-2.639211000">
        <ele>718.50</ele>
        <time>2015-01-17T08:49:20Z</time>
      </trkpt>
      <trkpt lat="42.403246000" lon="-2.639207000">
        <ele>718.60</ele>
        <time>2015-01-17T08:49:21Z</time>
      </trkpt>
      <trkpt lat="42.403231000" lon="-2.639203000">
        <ele>718.70</ele>
        <time>2015-01-17T08:49:22Z</time>
      </trkpt>
      <trkpt lat="42.403214000" lon="-2.639198000">
        <ele>718.90</ele>
        <time>2015-01-17T08:49:23Z</time>
      </trkpt>
      <trkpt lat="42.403198000" lon="-2.639191000">
        <ele>719.10</ele>
        <time>2015-01-17T08:49:24Z</time>
      </trkpt>
      <trkpt lat="42.403177000" lon="-2.639184000">
        <ele>719.20</ele>
        <time>2015-01-17T08:49:25Z</time>
      </trkpt>
      <trkpt lat="42.403161000" lon="-2.639177000">
        <ele>719.30</ele>
        <time>2015-01-17T08:49:26Z</time>
      </trkpt>
      <trkpt lat="42.403145000" lon="-2.639173000">
        <ele>719.30</ele>
        <time>2015-01-17T08:49:27Z</time>
      </trkpt>
      <trkpt lat="42.403129000" lon="-2.639174000">
        <ele>719.40</ele>
        <time>2015-01-17T08:49:28Z</time>
      </trkpt>
      <trkpt lat="42.403116000" lon="-2.639176000">
        <ele>719.50</ele>
        <time>2015-01-17T08:49:29Z</time>
      </trkpt>
      <trkpt lat="42.403100000" lon="-2.639174000">
        <ele>719.60</ele>
        <time>2015-01-17T08:49:30Z</time>
      </trkpt>
      <trkpt lat="42.403081000" lon="-2.639168000">
        <ele>719.80</ele>
        <time>2015-01-17T08:49:31Z</time>
      </trkpt>
      <trkpt lat="42.403065000" lon="-2.639163000">
        <ele>720.00</ele>
        <time>2015-01-17T08:49:32Z</time>
      </trkpt>
      <trkpt lat="42.403050000" lon="-2.639167000">
        <ele>720.40</ele>
        <time>2015-01-17T08:49:33Z</time>
      </trkpt>
      <trkpt lat="42.403033000" lon="-2.639168000">
        <ele>720.70</ele>
        <time>2015-01-17T08:49:34Z</time>
      </trkpt>
      <trkpt lat="42.403019000" lon="-2.639166000">
        <ele>720.90</ele>
        <time>2015-01-17T08:49:35Z</time>
      </trkpt>
      <trkpt lat="42.403004000" lon="-2.639164000">
        <ele>721.00</ele>
        <time>2015-01-17T08:49:36Z</time>
      </trkpt>
      <trkpt lat="42.402988000" lon="-2.639160000">
        <ele>721.10</ele>
        <time>2015-01-17T08:49:37Z</time>
      </trkpt>
      <trkpt lat="42.402972000" lon="-2.639159000">
        <ele>721.20</ele>
        <time>2015-01-17T08:49:38Z</time>
      </trkpt>
      <trkpt lat="42.402957000" lon="-2.639155000">
        <ele>721.30</ele>
        <time>2015-01-17T08:49:39Z</time>
      </trkpt>
      <trkpt lat="42.402941000" lon="-2.639151000">
        <ele>721.40</ele>
        <time>2015-01-17T08:49:40Z</time>
      </trkpt>
      <trkpt lat="42.402923000" lon="-2.639148000">
        <ele>721.50</ele>
        <time>2015-01-17T08:49:41Z</time>
      </trkpt>
      <trkpt lat="42.402906000" lon="-2.639147000">
        <ele>721.60</ele>
        <time>2015-01-17T08:49:42Z</time>
      </trkpt>
      <trkpt lat="42.402889000" lon="-2.639148000">
        <ele>721.60</ele>
        <time>2015-01-17T08:49:43Z</time>
      </trkpt>
      <trkpt lat="42.402875000" lon="-2.639148000">
        <ele>721.70</ele>
        <time>2015-01-17T08:49:44Z</time>
      </trkpt>
      <trkpt lat="42.402857000" lon="-2.639147000">
        <ele>722.00</ele>
        <time>2015-01-17T08:49:45Z</time>
      </trkpt>
      <trkpt lat="42.402843000" lon="-2.639145000">
        <ele>722.20</ele>
        <time>2015-01-17T08:49:46Z</time>
      </trkpt>
      <trkpt lat="42.402828000" lon="-2.639141000">
        <ele>722.40</ele>
        <time>2015-01-17T08:49:47Z</time>
      </trkpt>
      <trkpt lat="42.402811000" lon="-2.639138000">
        <ele>722.50</ele>
        <time>2015-01-17T08:49:48Z</time>
      </trkpt>
      <trkpt lat="42.402791000" lon="-2.639136000">
        <ele>722.70</ele>
        <time>2015-01-17T08:49:49Z</time>
      </trkpt>
      <trkpt lat="42.402762000" lon="-2.639138000">
        <ele>722.90</ele>
        <time>2015-01-17T08:49:50Z</time>
      </trkpt>
      <trkpt lat="42.402733000" lon="-2.639142000">
        <ele>723.00</ele>
        <time>2015-01-17T08:49:51Z</time>
      </trkpt>
      <trkpt lat="42.402706000" lon="-2.639145000">
        <ele>723.10</ele>
        <time>2015-01-17T08:49:52Z</time>
      </trkpt>
      <trkpt lat="42.402683000" lon="-2.639147000">
        <ele>723.30</ele>
        <time>2015-01-17T08:49:53Z</time>
      </trkpt>
      <trkpt lat="42.402660000" lon="-2.639144000">
        <ele>723.40</ele>
        <time>2015-01-17T08:49:54Z</time>
      </trkpt>
      <trkpt lat="42.402640000" lon="-2.639140000">
        <ele>723.50</ele>
        <time>2015-01-17T08:49:55Z</time>
      </trkpt>
      <trkpt lat="42.402621000" lon="-2.639137000">
        <ele>723.60</ele>
        <time>2015-01-17T08:49:56Z</time>
      </trkpt>
      <trkpt lat="42.402601000" lon="-2.639136000">
        <ele>723.80</ele>
        <time>2015-01-17T08:49:57Z</time>
      </trkpt>
      <trkpt lat="42.402582000" lon="-2.639135000">
        <ele>723.90</ele>
        <time>2015-01-17T08:49:58Z</time>
      </trkpt>
      <trkpt lat="42.402560000" lon="-2.639130000">
        <ele>724.10</ele>
        <time>2015-01-17T08:49:59Z</time>
      </trkpt>
      <trkpt lat="42.402542000" lon="-2.639127000">
        <ele>724.20</ele>
        <time>2015-01-17T08:50:00Z</time>
      </trkpt>
      <trkpt lat="42.402525000" lon="-2.639121000">
        <ele>724.40</ele>
        <time>2015-01-17T08:50:01Z</time>
      </trkpt>
      <trkpt lat="42.402509000" lon="-2.639114000">
        <ele>724.50</ele>
        <time>2015-01-17T08:50:02Z</time>
      </trkpt>
      <trkpt lat="42.402493000" lon="-2.639109000">
        <ele>724.80</ele>
        <time>2015-01-17T08:50:03Z</time>
      </trkpt>
      <trkpt lat="42.402477000" lon="-2.639108000">
        <ele>725.00</ele>
        <time>2015-01-17T08:50:04Z</time>
      </trkpt>
      <trkpt lat="42.402464000" lon="-2.639108000">
        <ele>725.20</ele>
        <time>2015-01-17T08:50:05Z</time>
      </trkpt>
      <trkpt lat="42.402450000" lon="-2.639097000">
        <ele>725.40</ele>
        <time>2015-01-17T08:50:06Z</time>
      </trkpt>
      <trkpt lat="42.402438000" lon="-2.639084000">
        <ele>725.80</ele>
        <time>2015-01-17T08:50:07Z</time>
      </trkpt>
      <trkpt lat="42.402422000" lon="-2.639077000">
        <ele>726.10</ele>
        <time>2015-01-17T08:50:08Z</time>
      </trkpt>
      <trkpt lat="42.402405000" lon="-2.639075000">
        <ele>726.30</ele>
        <time>2015-01-17T08:50:09Z</time>
      </trkpt>
      <trkpt lat="42.402388000" lon="-2.639074000">
        <ele>726.50</ele>
        <time>2015-01-17T08:50:10Z</time>
      </trkpt>
      <trkpt lat="42.402372000" lon="-2.639071000">
        <ele>726.60</ele>
        <time>2015-01-17T08:50:11Z</time>
      </trkpt>
      <trkpt lat="42.402352000" lon="-2.639071000">
        <ele>726.70</ele>
        <time>2015-01-17T08:50:12Z</time>
      </trkpt>
      <trkpt lat="42.402335000" lon="-2.639074000">
        <ele>726.80</ele>
        <time>2015-01-17T08:50:13Z</time>
      </trkpt>
      <trkpt lat="42.402316000" lon="-2.639075000">
        <ele>726.80</ele>
        <time>2015-01-17T08:50:14Z</time>
      </trkpt>
      <trkpt lat="42.402298000" lon="-2.639075000">
        <ele>727.00</ele>
        <time>2015-01-17T08:50:15Z</time>
      </trkpt>
      <trkpt lat="42.402284000" lon="-2.639074000">
        <ele>727.10</ele>
        <time>2015-01-17T08:50:16Z</time>
      </trkpt>
      <trkpt lat="42.402253000" lon="-2.639069000">
        <ele>727.30</ele>
        <time>2015-01-17T08:50:18Z</time>
      </trkpt>
      <trkpt lat="42.402241000" lon="-2.639067000">
        <ele>727.40</ele>
        <time>2015-01-17T08:50:19Z</time>
      </trkpt>
      <trkpt lat="42.402223000" lon="-2.639075000">
        <ele>727.40</ele>
        <time>2015-01-17T08:50:20Z</time>
      </trkpt>
      <trkpt lat="42.402211000" lon="-2.639079000">
        <ele>727.60</ele>
        <time>2015-01-17T08:50:21Z</time>
      </trkpt>
      <trkpt lat="42.402196000" lon="-2.639079000">
        <ele>727.70</ele>
        <time>2015-01-17T08:50:22Z</time>
      </trkpt>
      <trkpt lat="42.402183000" lon="-2.639083000">
        <ele>728.00</ele>
        <time>2015-01-17T08:50:23Z</time>
      </trkpt>
      <trkpt lat="42.402169000" lon="-2.639090000">
        <ele>728.20</ele>
        <time>2015-01-17T08:50:24Z</time>
      </trkpt>
      <trkpt lat="42.402157000" lon="-2.639099000">
        <ele>728.60</ele>
        <time>2015-01-17T08:50:25Z</time>
      </trkpt>
      <trkpt lat="42.402146000" lon="-2.639109000">
        <ele>728.90</ele>
        <time>2015-01-17T08:50:26Z</time>
      </trkpt>
      <trkpt lat="42.402134000" lon="-2.639116000">
        <ele>729.20</ele>
        <time>2015-01-17T08:50:27Z</time>
      </trkpt>
      <trkpt lat="42.402122000" lon="-2.639126000">
        <ele>729.30</ele>
        <time>2015-01-17T08:50:28Z</time>
      </trkpt>
      <trkpt lat="42.402112000" lon="-2.639135000">
        <ele>729.40</ele>
        <time>2015-01-17T08:50:29Z</time>
      </trkpt>
      <trkpt lat="42.402100000" lon="-2.639142000">
        <ele>729.50</ele>
        <time>2015-01-17T08:50:30Z</time>
      </trkpt>
      <trkpt lat="42.402088000" lon="-2.639157000">
        <ele>729.50</ele>
        <time>2015-01-17T08:50:31Z</time>
      </trkpt>
      <trkpt lat="42.402083000" lon="-2.639171000">
        <ele>729.50</ele>
        <time>2015-01-17T08:50:32Z</time>
      </trkpt>
      <trkpt lat="42.402078000" lon="-2.639187000">
        <ele>729.60</ele>
        <time>2015-01-17T08:50:33Z</time>
      </trkpt>
      <trkpt lat="42.402075000" lon="-2.639202000">
        <ele>729.70</ele>
        <time>2015-01-17T08:50:34Z</time>
      </trkpt>
      <trkpt lat="42.402073000" lon="-2.639213000">
        <ele>729.70</ele>
        <time>2015-01-17T08:50:35Z</time>
      </trkpt>
      <trkpt lat="42.402070000" lon="-2.639222000">
        <ele>729.80</ele>
        <time>2015-01-17T08:50:36Z</time>
      </trkpt>
      <trkpt lat="42.402062000" lon="-2.639236000">
        <ele>729.80</ele>
        <time>2015-01-17T08:50:37Z</time>
      </trkpt>
      <trkpt lat="42.402058000" lon="-2.639251000">
        <ele>729.80</ele>
        <time>2015-01-17T08:50:38Z</time>
      </trkpt>
      <trkpt lat="42.402053000" lon="-2.639264000">
        <ele>729.80</ele>
        <time>2015-01-17T08:50:39Z</time>
      </trkpt>
      <trkpt lat="42.402045000" lon="-2.639270000">
        <ele>729.80</ele>
        <time>2015-01-17T08:50:40Z</time>
      </trkpt>
      <trkpt lat="42.402035000" lon="-2.639275000">
        <ele>729.90</ele>
        <time>2015-01-17T08:50:41Z</time>
      </trkpt>
      <trkpt lat="42.402033000" lon="-2.639283000">
        <ele>730.00</ele>
        <time>2015-01-17T08:50:42Z</time>
      </trkpt>
      <trkpt lat="42.402032000" lon="-2.639280000">
        <ele>730.00</ele>
        <time>2015-01-17T08:50:43Z</time>
      </trkpt>
      <trkpt lat="42.402030000" lon="-2.639284000">
        <ele>730.10</ele>
        <time>2015-01-17T08:50:44Z</time>
      </trkpt>
      <trkpt lat="42.402031000" lon="-2.639288000">
        <ele>730.10</ele>
        <time>2015-01-17T08:50:45Z</time>
      </trkpt>
      <trkpt lat="42.402032000" lon="-2.639299000">
        <ele>730.10</ele>
        <time>2015-01-17T08:50:46Z</time>
      </trkpt>
      <trkpt lat="42.402032000" lon="-2.639303000">
        <ele>730.20</ele>
        <time>2015-01-17T08:50:47Z</time>
      </trkpt>
      <trkpt lat="42.402029000" lon="-2.639305000">
        <ele>730.20</ele>
        <time>2015-01-17T08:50:48Z</time>
      </trkpt>
      <trkpt lat="42.402031000" lon="-2.639307000">
        <ele>730.20</ele>
        <time>2015-01-17T08:50:49Z</time>
      </trkpt>
      <trkpt lat="42.402036000" lon="-2.639309000">
        <ele>730.20</ele>
        <time>2015-01-17T08:50:50Z</time>
      </trkpt>
      <trkpt lat="42.402038000" lon="-2.639304000">
        <ele>730.40</ele>
        <time>2015-01-17T08:50:51Z</time>
      </trkpt>
      <trkpt lat="42.402036000" lon="-2.639308000">
        <ele>730.50</ele>
        <time>2015-01-17T08:50:52Z</time>
      </trkpt>
      <trkpt lat="42.402032000" lon="-2.639312000">
        <ele>730.50</ele>
        <time>2015-01-17T08:50:53Z</time>
      </trkpt>
      <trkpt lat="42.402030000" lon="-2.639311000">
        <ele>730.60</ele>
        <time>2015-01-17T08:50:54Z</time>
      </trkpt>
      <trkpt lat="42.402029000" lon="-2.639307000">
        <ele>730.60</ele>
        <time>2015-01-17T08:50:55Z</time>
      </trkpt>
      <trkpt lat="42.402026000" lon="-2.639305000">
        <ele>730.70</ele>
        <time>2015-01-17T08:50:56Z</time>
      </trkpt>
      <trkpt lat="42.402025000" lon="-2.639305000">
        <ele>730.50</ele>
        <time>2015-01-17T08:50:57Z</time>
      </trkpt>
      <trkpt lat="42.402026000" lon="-2.639305000">
        <ele>730.30</ele>
        <time>2015-01-17T08:50:58Z</time>
      </trkpt>
      <trkpt lat="42.402029000" lon="-2.639304000">
        <ele>730.20</ele>
        <time>2015-01-17T08:50:59Z</time>
      </trkpt>
      <trkpt lat="42.402033000" lon="-2.639304000">
        <ele>730.10</ele>
        <time>2015-01-17T08:51:00Z</time>
      </trkpt>
      <trkpt lat="42.402031000" lon="-2.639309000">
        <ele>730.10</ele>
        <time>2015-01-17T08:51:01Z</time>
      </trkpt>
      <trkpt lat="42.402033000" lon="-2.639310000">
        <ele>730.00</ele>
        <time>2015-01-17T08:51:02Z</time>
      </trkpt>
      <trkpt lat="42.402034000" lon="-2.639308000">
        <ele>730.10</ele>
        <time>2015-01-17T08:51:03Z</time>
      </trkpt>
      <trkpt lat="42.402036000" lon="-2.639306000">
        <ele>730.10</ele>
        <time>2015-01-17T08:51:04Z</time>
      </trkpt>
      <trkpt lat="42.402037000" lon="-2.639305000">
        <ele>730.10</ele>
        <time>2015-01-17T08:51:05Z</time>
      </trkpt>
      <trkpt lat="42.402038000" lon="-2.639308000">
        <ele>730.10</ele>
        <time>2015-01-17T08:51:06Z</time>
      </trkpt>
      <trkpt lat="42.402040000" lon="-2.639312000">
        <ele>730.30</ele>
        <time>2015-01-17T08:51:07Z</time>
      </trkpt>
      <trkpt lat="42.402041000" lon="-2.639306000">
        <ele>730.50</ele>
        <time>2015-01-17T08:51:08Z</time>
      </trkpt>
      <trkpt lat="42.402044000" lon="-2.639301000">
        <ele>730.60</ele>
        <time>2015-01-17T08:51:09Z</time>
      </trkpt>
      <trkpt lat="42.402046000" lon="-2.639302000">
        <ele>730.70</ele>
        <time>2015-01-17T08:51:10Z</time>
      </trkpt>
      <trkpt lat="42.402048000" lon="-2.639301000">
        <ele>730.70</ele>
        <time>2015-01-17T08:51:11Z</time>
      </trkpt>
      <trkpt lat="42.402049000" lon="-2.639298000">
        <ele>730.80</ele>
        <time>2015-01-17T08:51:12Z</time>
      </trkpt>
      <trkpt lat="42.402050000" lon="-2.639296000">
        <ele>730.80</ele>
        <time>2015-01-17T08:51:13Z</time>
      </trkpt>
      <trkpt lat="42.402050000" lon="-2.639295000">
        <ele>730.80</ele>
        <time>2015-01-17T08:51:14Z</time>
      </trkpt>
      <trkpt lat="42.402049000" lon="-2.639296000">
        <ele>730.70</ele>
        <time>2015-01-17T08:51:15Z</time>
      </trkpt>
      <trkpt lat="42.402049000" lon="-2.639297000">
        <ele>730.70</ele>
        <time>2015-01-17T08:51:16Z</time>
      </trkpt>
      <trkpt lat="42.402049000" lon="-2.639297000">
        <ele>730.60</ele>
        <time>2015-01-17T08:51:17Z</time>
      </trkpt>
      <trkpt lat="42.402046000" lon="-2.639303000">
        <ele>730.60</ele>
        <time>2015-01-17T08:51:19Z</time>
      </trkpt>
      <trkpt lat="42.402044000" lon="-2.639305000">
        <ele>730.60</ele>
        <time>2015-01-17T08:51:20Z</time>
      </trkpt>
      <trkpt lat="42.402043000" lon="-2.639306000">
        <ele>730.50</ele>
        <time>2015-01-17T08:51:21Z</time>
      </trkpt>
      <trkpt lat="42.402042000" lon="-2.639307000">
        <ele>730.50</ele>
        <time>2015-01-17T08:51:22Z</time>
      </trkpt>
      <trkpt lat="42.402041000" lon="-2.639308000">
        <ele>730.50</ele>
        <time>2015-01-17T08:51:23Z</time>
      </trkpt>
      <trkpt lat="42.402041000" lon="-2.639309000">
        <ele>730.50</ele>
        <time>2015-01-17T08:51:24Z</time>
      </trkpt>
      <trkpt lat="42.402039000" lon="-2.639307000">
        <ele>730.50</ele>
        <time>2015-01-17T08:51:25Z</time>
      </trkpt>
      <trkpt lat="42.402037000" lon="-2.639307000">
        <ele>730.50</ele>
        <time>2015-01-17T08:51:26Z</time>
      </trkpt>
      <trkpt lat="42.402036000" lon="-2.639307000">
        <ele>730.50</ele>
        <time>2015-01-17T08:51:27Z</time>
      </trkpt>
      <trkpt lat="42.402036000" lon="-2.639305000">
        <ele>730.50</ele>
        <time>2015-01-17T08:51:28Z</time>
      </trkpt>
      <trkpt lat="42.402035000" lon="-2.639305000">
        <ele>730.50</ele>
        <time>2015-01-17T08:51:29Z</time>
      </trkpt>
      <trkpt lat="42.402034000" lon="-2.639305000">
        <ele>730.50</ele>
        <time>2015-01-17T08:51:30Z</time>
      </trkpt>
      <trkpt lat="42.402034000" lon="-2.639305000">
        <ele>730.40</ele>
        <time>2015-01-17T08:51:31Z</time>
      </trkpt>
      <trkpt lat="42.402033000" lon="-2.639304000">
        <ele>730.40</ele>
        <time>2015-01-17T08:51:32Z</time>
      </trkpt>
      <trkpt lat="42.402035000" lon="-2.639303000">
        <ele>730.30</ele>
        <time>2015-01-17T08:51:33Z</time>
      </trkpt>
      <trkpt lat="42.402036000" lon="-2.639303000">
        <ele>730.20</ele>
        <time>2015-01-17T08:51:34Z</time>
      </trkpt>
      <trkpt lat="42.402037000" lon="-2.639304000">
        <ele>730.20</ele>
        <time>2015-01-17T08:51:35Z</time>
      </trkpt>
      <trkpt lat="42.402036000" lon="-2.639304000">
        <ele>730.20</ele>
        <time>2015-01-17T08:51:36Z</time>
      </trkpt>
      <trkpt lat="42.402037000" lon="-2.639306000">
        <ele>730.40</ele>
        <time>2015-01-17T08:51:37Z</time>
      </trkpt>
      <trkpt lat="42.402036000" lon="-2.639309000">
        <ele>730.50</ele>
        <time>2015-01-17T08:51:38Z</time>
      </trkpt>
      <trkpt lat="42.402037000" lon="-2.639310000">
        <ele>730.60</ele>
        <time>2015-01-17T08:51:39Z</time>
      </trkpt>
      <trkpt lat="42.402039000" lon="-2.639310000">
        <ele>730.70</ele>
        <time>2015-01-17T08:51:40Z</time>
      </trkpt>
      <trkpt lat="42.402040000" lon="-2.639310000">
        <ele>730.60</ele>
        <time>2015-01-17T08:51:41Z</time>
      </trkpt>
      <trkpt lat="42.402040000" lon="-2.639312000">
        <ele>730.60</ele>
        <time>2015-01-17T08:51:42Z</time>
      </trkpt>
      <trkpt lat="42.402041000" lon="-2.639312000">
        <ele>730.50</ele>
        <time>2015-01-17T08:51:43Z</time>
      </trkpt>
      <trkpt lat="42.402041000" lon="-2.639312000">
        <ele>730.50</ele>
        <time>2015-01-17T08:51:44Z</time>
      </trkpt>
      <trkpt lat="42.402042000" lon="-2.639312000">
        <ele>730.60</ele>
        <time>2015-01-17T08:51:45Z</time>
      </trkpt>
      <trkpt lat="42.402042000" lon="-2.639312000">
        <ele>730.60</ele>
        <time>2015-01-17T08:51:46Z</time>
      </trkpt>
      <trkpt lat="42.402038000" lon="-2.639316000">
        <ele>730.70</ele>
        <time>2015-01-17T08:51:47Z</time>
      </trkpt>
      <trkpt lat="42.402037000" lon="-2.639321000">
        <ele>730.70</ele>
        <time>2015-01-17T08:51:48Z</time>
      </trkpt>
      <trkpt lat="42.402037000" lon="-2.639323000">
        <ele>730.80</ele>
        <time>2015-01-17T08:51:49Z</time>
      </trkpt>
      <trkpt lat="42.402037000" lon="-2.639325000">
        <ele>730.80</ele>
        <time>2015-01-17T08:51:50Z</time>
      </trkpt>
      <trkpt lat="42.402037000" lon="-2.639326000">
        <ele>730.80</ele>
        <time>2015-01-17T08:51:51Z</time>
      </trkpt>
      <trkpt lat="42.402041000" lon="-2.639330000">
        <ele>730.80</ele>
        <time>2015-01-17T08:51:52Z</time>
      </trkpt>
      <trkpt lat="42.402050000" lon="-2.639330000">
        <ele>730.70</ele>
        <time>2015-01-17T08:51:53Z</time>
      </trkpt>
      <trkpt lat="42.402058000" lon="-2.639316000">
        <ele>730.70</ele>
        <time>2015-01-17T08:51:54Z</time>
      </trkpt>
      <trkpt lat="42.402059000" lon="-2.639298000">
        <ele>730.90</ele>
        <time>2015-01-17T08:51:55Z</time>
      </trkpt>
      <trkpt lat="42.402056000" lon="-2.639278000">
        <ele>730.90</ele>
        <time>2015-01-17T08:51:56Z</time>
      </trkpt>
      <trkpt lat="42.402052000" lon="-2.639250000">
        <ele>731.00</ele>
        <time>2015-01-17T08:51:57Z</time>
      </trkpt>
      <trkpt lat="42.402046000" lon="-2.639224000">
        <ele>731.10</ele>
        <time>2015-01-17T08:51:58Z</time>
      </trkpt>
      <trkpt lat="42.402041000" lon="-2.639202000">
        <ele>731.00</ele>
        <time>2015-01-17T08:51:59Z</time>
      </trkpt>
      <trkpt lat="42.402040000" lon="-2.639176000">
        <ele>730.90</ele>
        <time>2015-01-17T08:52:00Z</time>
      </trkpt>
      <trkpt lat="42.402036000" lon="-2.639154000">
        <ele>730.60</ele>
        <time>2015-01-17T08:52:01Z</time>
      </trkpt>
      <trkpt lat="42.402030000" lon="-2.639137000">
        <ele>730.50</ele>
        <time>2015-01-17T08:52:02Z</time>
      </trkpt>
      <trkpt lat="42.402020000" lon="-2.639121000">
        <ele>730.30</ele>
        <time>2015-01-17T08:52:03Z</time>
      </trkpt>
      <trkpt lat="42.402015000" lon="-2.639107000">
        <ele>730.20</ele>
        <time>2015-01-17T08:52:04Z</time>
      </trkpt>
      <trkpt lat="42.402017000" lon="-2.639096000">
        <ele>730.10</ele>
        <time>2015-01-17T08:52:05Z</time>
      </trkpt>
      <trkpt lat="42.402025000" lon="-2.639087000">
        <ele>730.00</ele>
        <time>2015-01-17T08:52:06Z</time>
      </trkpt>
      <trkpt lat="42.402036000" lon="-2.639083000">
        <ele>729.90</ele>
        <time>2015-01-17T08:52:07Z</time>
      </trkpt>
      <trkpt lat="42.402051000" lon="-2.639083000">
        <ele>729.90</ele>
        <time>2015-01-17T08:52:08Z</time>
      </trkpt>
      <trkpt lat="42.402063000" lon="-2.639092000">
        <ele>730.10</ele>
        <time>2015-01-17T08:52:09Z</time>
      </trkpt>
      <trkpt lat="42.402063000" lon="-2.639103000">
        <ele>730.20</ele>
        <time>2015-01-17T08:52:10Z</time>
      </trkpt>
      <trkpt lat="42.402059000" lon="-2.639105000">
        <ele>730.30</ele>
        <time>2015-01-17T08:52:11Z</time>
      </trkpt>
      <trkpt lat="42.402058000" lon="-2.639109000">
        <ele>730.40</ele>
        <time>2015-01-17T08:52:12Z</time>
      </trkpt>
      <trkpt lat="42.402058000" lon="-2.639108000">
        <ele>730.40</ele>
        <time>2015-01-17T08:52:13Z</time>
      </trkpt>
      <trkpt lat="42.402057000" lon="-2.639110000">
        <ele>730.30</ele>
        <time>2015-01-17T08:52:14Z</time>
      </trkpt>
      <trkpt lat="42.402056000" lon="-2.639110000">
        <ele>730.30</ele>
        <time>2015-01-17T08:52:15Z</time>
      </trkpt>
      <trkpt lat="42.402053000" lon="-2.639112000">
        <ele>730.30</ele>
        <time>2015-01-17T08:52:16Z</time>
      </trkpt>
      <trkpt lat="42.402053000" lon="-2.639111000">
        <ele>730.30</ele>
        <time>2015-01-17T08:52:17Z</time>
      </trkpt>
      <trkpt lat="42.402051000" lon="-2.639112000">
        <ele>730.30</ele>
        <time>2015-01-17T08:52:18Z</time>
      </trkpt>
      <trkpt lat="42.402056000" lon="-2.639110000">
        <ele>730.30</ele>
        <time>2015-01-17T08:52:20Z</time>
      </trkpt>
      <trkpt lat="42.402062000" lon="-2.639111000">
        <ele>730.30</ele>
        <time>2015-01-17T08:52:21Z</time>
      </trkpt>
      <trkpt lat="42.402075000" lon="-2.639113000">
        <ele>730.30</ele>
        <time>2015-01-17T08:52:22Z</time>
      </trkpt>
      <trkpt lat="42.402091000" lon="-2.639111000">
        <ele>730.30</ele>
        <time>2015-01-17T08:52:23Z</time>
      </trkpt>
      <trkpt lat="42.402112000" lon="-2.639111000">
        <ele>730.30</ele>
        <time>2015-01-17T08:52:24Z</time>
      </trkpt>
      <trkpt lat="42.402140000" lon="-2.639110000">
        <ele>730.20</ele>
        <time>2015-01-17T08:52:25Z</time>
      </trkpt>
      <trkpt lat="42.402175000" lon="-2.639112000">
        <ele>730.10</ele>
        <time>2015-01-17T08:52:26Z</time>
      </trkpt>
      <trkpt lat="42.402217000" lon="-2.639112000">
        <ele>729.90</ele>
        <time>2015-01-17T08:52:27Z</time>
      </trkpt>
      <trkpt lat="42.402264000" lon="-2.639111000">
        <ele>729.80</ele>
        <time>2015-01-17T08:52:28Z</time>
      </trkpt>
      <trkpt lat="42.402313000" lon="-2.639113000">
        <ele>729.80</ele>
        <time>2015-01-17T08:52:29Z</time>
      </trkpt>
      <trkpt lat="42.402364000" lon="-2.639122000">
        <ele>729.80</ele>
        <time>2015-01-17T08:52:30Z</time>
      </trkpt>
      <trkpt lat="42.402413000" lon="-2.639126000">
        <ele>729.70</ele>
        <time>2015-01-17T08:52:31Z</time>
      </trkpt>
      <trkpt lat="42.402455000" lon="-2.639127000">
        <ele>729.60</ele>
        <time>2015-01-17T08:52:32Z</time>
      </trkpt>
      <trkpt lat="42.402495000" lon="-2.639129000">
        <ele>729.40</ele>
        <time>2015-01-17T08:52:33Z</time>
      </trkpt>
      <trkpt lat="42.402533000" lon="-2.639136000">
        <ele>729.20</ele>
        <time>2015-01-17T08:52:34Z</time>
      </trkpt>
      <trkpt lat="42.402574000" lon="-2.639142000">
        <ele>728.80</ele>
        <time>2015-01-17T08:52:35Z</time>
      </trkpt>
      <trkpt lat="42.402618000" lon="-2.639152000">
        <ele>728.50</ele>
        <time>2015-01-17T08:52:36Z</time>
      </trkpt>
      <trkpt lat="42.402667000" lon="-2.639163000">
        <ele>728.20</ele>
        <time>2015-01-17T08:52:37Z</time>
      </trkpt>
      <trkpt lat="42.402721000" lon="-2.639170000">
        <ele>727.90</ele>
        <time>2015-01-17T08:52:38Z</time>
      </trkpt>
      <trkpt lat="42.402781000" lon="-2.639178000">
        <ele>727.40</ele>
        <time>2015-01-17T08:52:39Z</time>
      </trkpt>
      <trkpt lat="42.402846000" lon="-2.639187000">
        <ele>727.00</ele>
        <time>2015-01-17T08:52:40Z</time>
      </trkpt>
      <trkpt lat="42.402919000" lon="-2.639195000">
        <ele>726.60</ele>
        <time>2015-01-17T08:52:41Z</time>
      </trkpt>
      <trkpt lat="42.402993000" lon="-2.639206000">
        <ele>726.40</ele>
        <time>2015-01-17T08:52:42Z</time>
      </trkpt>
      <trkpt lat="42.403071000" lon="-2.639218000">
        <ele>726.00</ele>
        <time>2015-01-17T08:52:43Z</time>
      </trkpt>
      <trkpt lat="42.403152000" lon="-2.639228000">
        <ele>725.70</ele>
        <time>2015-01-17T08:52:44Z</time>
      </trkpt>
      <trkpt lat="42.403236000" lon="-2.639243000">
        <ele>725.40</ele>
        <time>2015-01-17T08:52:45Z</time>
      </trkpt>
      <trkpt lat="42.403322000" lon="-2.639262000">
        <ele>725.30</ele>
        <time>2015-01-17T08:52:46Z</time>
      </trkpt>
      <trkpt lat="42.403412000" lon="-2.639279000">
        <ele>724.30</ele>
        <time>2015-01-17T08:52:47Z</time>
      </trkpt>
      <trkpt lat="42.403501000" lon="-2.639292000">
        <ele>723.60</ele>
        <time>2015-01-17T08:52:48Z</time>
      </trkpt>
      <trkpt lat="42.403575000" lon="-2.639292000">
        <ele>722.90</ele>
        <time>2015-01-17T08:52:49Z</time>
      </trkpt>
      <trkpt lat="42.403629000" lon="-2.639288000">
        <ele>722.40</ele>
        <time>2015-01-17T08:52:50Z</time>
      </trkpt>
      <trkpt lat="42.403668000" lon="-2.639281000">
        <ele>721.70</ele>
        <time>2015-01-17T08:52:51Z</time>
      </trkpt>
      <trkpt lat="42.403695000" lon="-2.639277000">
        <ele>721.20</ele>
        <time>2015-01-17T08:52:52Z</time>
      </trkpt>
      <trkpt lat="42.403717000" lon="-2.639275000">
        <ele>720.40</ele>
        <time>2015-01-17T08:52:53Z</time>
      </trkpt>
      <trkpt lat="42.403735000" lon="-2.639273000">
        <ele>719.80</ele>
        <time>2015-01-17T08:52:54Z</time>
      </trkpt>
      <trkpt lat="42.403747000" lon="-2.639274000">
        <ele>718.90</ele>
        <time>2015-01-17T08:52:55Z</time>
      </trkpt>
      <trkpt lat="42.403762000" lon="-2.639268000">
        <ele>718.20</ele>
        <time>2015-01-17T08:52:56Z</time>
      </trkpt>
      <trkpt lat="42.403775000" lon="-2.639268000">
        <ele>717.70</ele>
        <time>2015-01-17T08:52:57Z</time>
      </trkpt>
      <trkpt lat="42.403784000" lon="-2.639277000">
        <ele>717.40</ele>
        <time>2015-01-17T08:52:58Z</time>
      </trkpt>
      <trkpt lat="42.403787000" lon="-2.639289000">
        <ele>717.00</ele>
        <time>2015-01-17T08:52:59Z</time>
      </trkpt>
      <trkpt lat="42.403777000" lon="-2.639296000">
        <ele>716.80</ele>
        <time>2015-01-17T08:53:00Z</time>
      </trkpt>
      <trkpt lat="42.403760000" lon="-2.639298000">
        <ele>716.20</ele>
        <time>2015-01-17T08:53:01Z</time>
      </trkpt>
      <trkpt lat="42.403743000" lon="-2.639296000">
        <ele>715.70</ele>
        <time>2015-01-17T08:53:02Z</time>
      </trkpt>
      <trkpt lat="42.403725000" lon="-2.639291000">
        <ele>715.30</ele>
        <time>2015-01-17T08:53:03Z</time>
      </trkpt>
      <trkpt lat="42.403709000" lon="-2.639293000">
        <ele>715.00</ele>
        <time>2015-01-17T08:53:04Z</time>
      </trkpt>
      <trkpt lat="42.403693000" lon="-2.639298000">
        <ele>714.80</ele>
        <time>2015-01-17T08:53:05Z</time>
      </trkpt>
      <trkpt lat="42.403677000" lon="-2.639304000">
        <ele>714.60</ele>
        <time>2015-01-17T08:53:06Z</time>
      </trkpt>
      <trkpt lat="42.403661000" lon="-2.639306000">
        <ele>714.60</ele>
        <time>2015-01-17T08:53:07Z</time>
      </trkpt>
      <trkpt lat="42.403646000" lon="-2.639306000">
        <ele>714.50</ele>
        <time>2015-01-17T08:53:08Z</time>
      </trkpt>
      <trkpt lat="42.403630000" lon="-2.639300000">
        <ele>714.60</ele>
        <time>2015-01-17T08:53:09Z</time>
      </trkpt>
      <trkpt lat="42.403616000" lon="-2.639294000">
        <ele>714.60</ele>
        <time>2015-01-17T08:53:10Z</time>
      </trkpt>
      <trkpt lat="42.403600000" lon="-2.639290000">
        <ele>714.80</ele>
        <time>2015-01-17T08:53:11Z</time>
      </trkpt>
      <trkpt lat="42.403585000" lon="-2.639292000">
        <ele>715.00</ele>
        <time>2015-01-17T08:53:12Z</time>
      </trkpt>
      <trkpt lat="42.403569000" lon="-2.639290000">
        <ele>715.20</ele>
        <time>2015-01-17T08:53:13Z</time>
      </trkpt>
      <trkpt lat="42.403553000" lon="-2.639288000">
        <ele>715.40</ele>
        <time>2015-01-17T08:53:14Z</time>
      </trkpt>
      <trkpt lat="42.403534000" lon="-2.639287000">
        <ele>715.60</ele>
        <time>2015-01-17T08:53:15Z</time>
      </trkpt>
      <trkpt lat="42.403520000" lon="-2.639283000">
        <ele>715.70</ele>
        <time>2015-01-17T08:53:16Z</time>
      </trkpt>
      <trkpt lat="42.403503000" lon="-2.639283000">
        <ele>715.70</ele>
        <time>2015-01-17T08:53:17Z</time>
      </trkpt>
      <trkpt lat="42.403487000" lon="-2.639279000">
        <ele>715.80</ele>
        <time>2015-01-17T08:53:18Z</time>
      </trkpt>
      <trkpt lat="42.403471000" lon="-2.639275000">
        <ele>716.00</ele>
        <time>2015-01-17T08:53:19Z</time>
      </trkpt>
      <trkpt lat="42.403438000" lon="-2.639272000">
        <ele>716.30</ele>
        <time>2015-01-17T08:53:21Z</time>
      </trkpt>
      <trkpt lat="42.403423000" lon="-2.639270000">
        <ele>716.40</ele>
        <time>2015-01-17T08:53:22Z</time>
      </trkpt>
      <trkpt lat="42.403412000" lon="-2.639268000">
        <ele>716.60</ele>
        <time>2015-01-17T08:53:23Z</time>
      </trkpt>
      <trkpt lat="42.403396000" lon="-2.639263000">
        <ele>716.80</ele>
        <time>2015-01-17T08:53:24Z</time>
      </trkpt>
      <trkpt lat="42.403381000" lon="-2.639260000">
        <ele>716.90</ele>
        <time>2015-01-17T08:53:25Z</time>
      </trkpt>
      <trkpt lat="42.403366000" lon="-2.639257000">
        <ele>717.10</ele>
        <time>2015-01-17T08:53:26Z</time>
      </trkpt>
      <trkpt lat="42.403349000" lon="-2.639257000">
        <ele>717.20</ele>
        <time>2015-01-17T08:53:27Z</time>
      </trkpt>
      <trkpt lat="42.403335000" lon="-2.639255000">
        <ele>717.30</ele>
        <time>2015-01-17T08:53:28Z</time>
      </trkpt>
      <trkpt lat="42.403319000" lon="-2.639252000">
        <ele>717.50</ele>
        <time>2015-01-17T08:53:29Z</time>
      </trkpt>
      <trkpt lat="42.403306000" lon="-2.639252000">
        <ele>717.60</ele>
        <time>2015-01-17T08:53:30Z</time>
      </trkpt>
      <trkpt lat="42.403291000" lon="-2.639247000">
        <ele>717.70</ele>
        <time>2015-01-17T08:53:31Z</time>
      </trkpt>
      <trkpt lat="42.403277000" lon="-2.639245000">
        <ele>717.70</ele>
        <time>2015-01-17T08:53:32Z</time>
      </trkpt>
      <trkpt lat="42.403260000" lon="-2.639243000">
        <ele>717.80</ele>
        <time>2015-01-17T08:53:33Z</time>
      </trkpt>
      <trkpt lat="42.403246000" lon="-2.639242000">
        <ele>717.80</ele>
        <time>2015-01-17T08:53:34Z</time>
      </trkpt>
      <trkpt lat="42.403232000" lon="-2.639241000">
        <ele>718.00</ele>
        <time>2015-01-17T08:53:35Z</time>
      </trkpt>
      <trkpt lat="42.403218000" lon="-2.639238000">
        <ele>718.10</ele>
        <time>2015-01-17T08:53:36Z</time>
      </trkpt>
      <trkpt lat="42.403204000" lon="-2.639234000">
        <ele>718.20</ele>
        <time>2015-01-17T08:53:37Z</time>
      </trkpt>
      <trkpt lat="42.403192000" lon="-2.639232000">
        <ele>718.30</ele>
        <time>2015-01-17T08:53:38Z</time>
      </trkpt>
      <trkpt lat="42.403180000" lon="-2.639226000">
        <ele>718.40</ele>
        <time>2015-01-17T08:53:39Z</time>
      </trkpt>
      <trkpt lat="42.403166000" lon="-2.639226000">
        <ele>718.50</ele>
        <time>2015-01-17T08:53:40Z</time>
      </trkpt>
      <trkpt lat="42.403153000" lon="-2.639225000">
        <ele>718.50</ele>
        <time>2015-01-17T08:53:41Z</time>
      </trkpt>
      <trkpt lat="42.403140000" lon="-2.639222000">
        <ele>718.60</ele>
        <time>2015-01-17T08:53:42Z</time>
      </trkpt>
      <trkpt lat="42.403123000" lon="-2.639218000">
        <ele>718.90</ele>
        <time>2015-01-17T08:53:43Z</time>
      </trkpt>
      <trkpt lat="42.403110000" lon="-2.639216000">
        <ele>719.10</ele>
        <time>2015-01-17T08:53:44Z</time>
      </trkpt>
      <trkpt lat="42.403095000" lon="-2.639210000">
        <ele>719.30</ele>
        <time>2015-01-17T08:53:45Z</time>
      </trkpt>
      <trkpt lat="42.403080000" lon="-2.639210000">
        <ele>719.40</ele>
        <time>2015-01-17T08:53:46Z</time>
      </trkpt>
      <trkpt lat="42.403065000" lon="-2.639205000">
        <ele>719.50</ele>
        <time>2015-01-17T08:53:47Z</time>
      </trkpt>
      <trkpt lat="42.403052000" lon="-2.639200000">
        <ele>719.60</ele>
        <time>2015-01-17T08:53:48Z</time>
      </trkpt>
      <trkpt lat="42.403035000" lon="-2.639195000">
        <ele>719.60</ele>
        <time>2015-01-17T08:53:49Z</time>
      </trkpt>
      <trkpt lat="42.403022000" lon="-2.639194000">
        <ele>719.70</ele>
        <time>2015-01-17T08:53:50Z</time>
      </trkpt>
      <trkpt lat="42.403006000" lon="-2.639193000">
        <ele>719.90</ele>
        <time>2015-01-17T08:53:51Z</time>
      </trkpt>
      <trkpt lat="42.402993000" lon="-2.639190000">
        <ele>720.00</ele>
        <time>2015-01-17T08:53:52Z</time>
      </trkpt>
      <trkpt lat="42.402975000" lon="-2.639189000">
        <ele>720.10</ele>
        <time>2015-01-17T08:53:53Z</time>
      </trkpt>
      <trkpt lat="42.402960000" lon="-2.639190000">
        <ele>720.20</ele>
        <time>2015-01-17T08:53:54Z</time>
      </trkpt>
      <trkpt lat="42.402948000" lon="-2.639189000">
        <ele>720.50</ele>
        <time>2015-01-17T08:53:55Z</time>
      </trkpt>
      <trkpt lat="42.402936000" lon="-2.639184000">
        <ele>720.70</ele>
        <time>2015-01-17T08:53:56Z</time>
      </trkpt>
      <trkpt lat="42.402924000" lon="-2.639178000">
        <ele>720.80</ele>
        <time>2015-01-17T08:53:57Z</time>
      </trkpt>
      <trkpt lat="42.402912000" lon="-2.639175000">
        <ele>721.00</ele>
        <time>2015-01-17T08:53:58Z</time>
      </trkpt>
      <trkpt lat="42.402896000" lon="-2.639174000">
        <ele>721.20</ele>
        <time>2015-01-17T08:53:59Z</time>
      </trkpt>
      <trkpt lat="42.402881000" lon="-2.639175000">
        <ele>721.30</ele>
        <time>2015-01-17T08:54:00Z</time>
      </trkpt>
      <trkpt lat="42.402869000" lon="-2.639177000">
        <ele>721.50</ele>
        <time>2015-01-17T08:54:01Z</time>
      </trkpt>
      <trkpt lat="42.402854000" lon="-2.639179000">
        <ele>721.60</ele>
        <time>2015-01-17T08:54:02Z</time>
      </trkpt>
      <trkpt lat="42.402838000" lon="-2.639182000">
        <ele>721.90</ele>
        <time>2015-01-17T08:54:03Z</time>
      </trkpt>
      <trkpt lat="42.402822000" lon="-2.639181000">
        <ele>722.10</ele>
        <time>2015-01-17T08:54:04Z</time>
      </trkpt>
      <trkpt lat="42.402805000" lon="-2.639176000">
        <ele>722.30</ele>
        <time>2015-01-17T08:54:05Z</time>
      </trkpt>
      <trkpt lat="42.402790000" lon="-2.639172000">
        <ele>722.50</ele>
        <time>2015-01-17T08:54:06Z</time>
      </trkpt>
      <trkpt lat="42.402773000" lon="-2.639172000">
        <ele>722.60</ele>
        <time>2015-01-17T08:54:07Z</time>
      </trkpt>
      <trkpt lat="42.402761000" lon="-2.639172000">
        <ele>722.60</ele>
        <time>2015-01-17T08:54:08Z</time>
      </trkpt>
      <trkpt lat="42.402748000" lon="-2.639172000">
        <ele>722.70</ele>
        <time>2015-01-17T08:54:09Z</time>
      </trkpt>
      <trkpt lat="42.402733000" lon="-2.639168000">
        <ele>722.80</ele>
        <time>2015-01-17T08:54:10Z</time>
      </trkpt>
      <trkpt lat="42.402719000" lon="-2.639165000">
        <ele>722.80</ele>
        <time>2015-01-17T08:54:11Z</time>
      </trkpt>
      <trkpt lat="42.402706000" lon="-2.639162000">
        <ele>722.80</ele>
        <time>2015-01-17T08:54:12Z</time>
      </trkpt>
      <trkpt lat="42.402690000" lon="-2.639159000">
        <ele>722.90</ele>
        <time>2015-01-17T08:54:13Z</time>
      </trkpt>
      <trkpt lat="42.402676000" lon="-2.639157000">
        <ele>723.00</ele>
        <time>2015-01-17T08:54:14Z</time>
      </trkpt>
      <trkpt lat="42.402661000" lon="-2.639152000">
        <ele>723.10</ele>
        <time>2015-01-17T08:54:15Z</time>
      </trkpt>
      <trkpt lat="42.402648000" lon="-2.639146000">
        <ele>723.20</ele>
        <time>2015-01-17T08:54:16Z</time>
      </trkpt>
      <trkpt lat="42.402635000" lon="-2.639138000">
        <ele>723.30</ele>
        <time>2015-01-17T08:54:17Z</time>
      </trkpt>
      <trkpt lat="42.402619000" lon="-2.639136000">
        <ele>723.30</ele>
        <time>2015-01-17T08:54:18Z</time>
      </trkpt>
      <trkpt lat="42.402604000" lon="-2.639138000">
        <ele>723.40</ele>
        <time>2015-01-17T08:54:19Z</time>
      </trkpt>
      <trkpt lat="42.402590000" lon="-2.639134000">
        <ele>723.40</ele>
        <time>2015-01-17T08:54:20Z</time>
      </trkpt>
      <trkpt lat="42.402556000" lon="-2.639130000">
        <ele>723.50</ele>
        <time>2015-01-17T08:54:22Z</time>
      </trkpt>
      <trkpt lat="42.402542000" lon="-2.639125000">
        <ele>723.50</ele>
        <time>2015-01-17T08:54:23Z</time>
      </trkpt>
      <trkpt lat="42.402527000" lon="-2.639123000">
        <ele>723.60</ele>
        <time>2015-01-17T08:54:24Z</time>
      </trkpt>
      <trkpt lat="42.402514000" lon="-2.639121000">
        <ele>723.70</ele>
        <time>2015-01-17T08:54:25Z</time>
      </trkpt>
      <trkpt lat="42.402500000" lon="-2.639115000">
        <ele>723.80</ele>
        <time>2015-01-17T08:54:26Z</time>
      </trkpt>
      <trkpt lat="42.402483000" lon="-2.639110000">
        <ele>724.00</ele>
        <time>2015-01-17T08:54:27Z</time>
      </trkpt>
      <trkpt lat="42.402465000" lon="-2.639107000">
        <ele>724.10</ele>
        <time>2015-01-17T08:54:28Z</time>
      </trkpt>
      <trkpt lat="42.402452000" lon="-2.639108000">
        <ele>724.40</ele>
        <time>2015-01-17T08:54:29Z</time>
      </trkpt>
      <trkpt lat="42.402434000" lon="-2.639108000">
        <ele>724.60</ele>
        <time>2015-01-17T08:54:30Z</time>
      </trkpt>
      <trkpt lat="42.402418000" lon="-2.639109000">
        <ele>724.80</ele>
        <time>2015-01-17T08:54:31Z</time>
      </trkpt>
      <trkpt lat="42.402403000" lon="-2.639105000">
        <ele>725.00</ele>
        <time>2015-01-17T08:54:32Z</time>
      </trkpt>
      <trkpt lat="42.402383000" lon="-2.639099000">
        <ele>725.10</ele>
        <time>2015-01-17T08:54:33Z</time>
      </trkpt>
      <trkpt lat="42.402365000" lon="-2.639097000">
        <ele>725.20</ele>
        <time>2015-01-17T08:54:34Z</time>
      </trkpt>
      <trkpt lat="42.402351000" lon="-2.639098000">
        <ele>725.30</ele>
        <time>2015-01-17T08:54:35Z</time>
      </trkpt>
      <trkpt lat="42.402340000" lon="-2.639091000">
        <ele>725.50</ele>
        <time>2015-01-17T08:54:36Z</time>
      </trkpt>
      <trkpt lat="42.402327000" lon="-2.639085000">
        <ele>725.50</ele>
        <time>2015-01-17T08:54:37Z</time>
      </trkpt>
      <trkpt lat="42.402312000" lon="-2.639084000">
        <ele>725.60</ele>
        <time>2015-01-17T08:54:38Z</time>
      </trkpt>
      <trkpt lat="42.402293000" lon="-2.639085000">
        <ele>725.70</ele>
        <time>2015-01-17T08:54:39Z</time>
      </trkpt>
      <trkpt lat="42.402278000" lon="-2.639087000">
        <ele>725.70</ele>
        <time>2015-01-17T08:54:40Z</time>
      </trkpt>
      <trkpt lat="42.402262000" lon="-2.639088000">
        <ele>725.90</ele>
        <time>2015-01-17T08:54:41Z</time>
      </trkpt>
      <trkpt lat="42.402248000" lon="-2.639086000">
        <ele>726.10</ele>
        <time>2015-01-17T08:54:42Z</time>
      </trkpt>
      <trkpt lat="42.402235000" lon="-2.639087000">
        <ele>726.30</ele>
        <time>2015-01-17T08:54:43Z</time>
      </trkpt>
      <trkpt lat="42.402223000" lon="-2.639086000">
        <ele>726.40</ele>
        <time>2015-01-17T08:54:44Z</time>
      </trkpt>
      <trkpt lat="42.402209000" lon="-2.639090000">
        <ele>726.70</ele>
        <time>2015-01-17T08:54:45Z</time>
      </trkpt>
      <trkpt lat="42.402195000" lon="-2.639094000">
        <ele>726.90</ele>
        <time>2015-01-17T08:54:46Z</time>
      </trkpt>
      <trkpt lat="42.402179000" lon="-2.639099000">
        <ele>727.00</ele>
        <time>2015-01-17T08:54:47Z</time>
      </trkpt>
      <trkpt lat="42.402165000" lon="-2.639102000">
        <ele>727.10</ele>
        <time>2015-01-17T08:54:48Z</time>
      </trkpt>
      <trkpt lat="42.402148000" lon="-2.639108000">
        <ele>727.40</ele>
        <time>2015-01-17T08:54:49Z</time>
      </trkpt>
      <trkpt lat="42.402137000" lon="-2.639119000">
        <ele>727.60</ele>
        <time>2015-01-17T08:54:50Z</time>
      </trkpt>
      <trkpt lat="42.402124000" lon="-2.639131000">
        <ele>727.80</ele>
        <time>2015-01-17T08:54:51Z</time>
      </trkpt>
      <trkpt lat="42.402113000" lon="-2.639142000">
        <ele>728.00</ele>
        <time>2015-01-17T08:54:52Z</time>
      </trkpt>
      <trkpt lat="42.402101000" lon="-2.639158000">
        <ele>728.20</ele>
        <time>2015-01-17T08:54:53Z</time>
      </trkpt>
      <trkpt lat="42.402091000" lon="-2.639177000">
        <ele>728.30</ele>
        <time>2015-01-17T08:54:54Z</time>
      </trkpt>
      <trkpt lat="42.402082000" lon="-2.639196000">
        <ele>728.60</ele>
        <time>2015-01-17T08:54:55Z</time>
      </trkpt>
      <trkpt lat="42.402075000" lon="-2.639219000">
        <ele>728.70</ele>
        <time>2015-01-17T08:54:56Z</time>
      </trkpt>
      <trkpt lat="42.402071000" lon="-2.639237000">
        <ele>728.90</ele>
        <time>2015-01-17T08:54:57Z</time>
      </trkpt>
      <trkpt lat="42.402068000" lon="-2.639261000">
        <ele>729.00</ele>
        <time>2015-01-17T08:54:58Z</time>
      </trkpt>
      <trkpt lat="42.402064000" lon="-2.639282000">
        <ele>729.00</ele>
        <time>2015-01-17T08:54:59Z</time>
      </trkpt>
      <trkpt lat="42.402064000" lon="-2.639307000">
        <ele>729.10</ele>
        <time>2015-01-17T08:55:00Z</time>
      </trkpt>
      <trkpt lat="42.402063000" lon="-2.639330000">
        <ele>729.30</ele>
        <time>2015-01-17T08:55:01Z</time>
      </trkpt>
      <trkpt lat="42.402062000" lon="-2.639359000">
        <ele>729.40</ele>
        <time>2015-01-17T08:55:02Z</time>
      </trkpt>
      <trkpt lat="42.402063000" lon="-2.639389000">
        <ele>729.60</ele>
        <time>2015-01-17T08:55:03Z</time>
      </trkpt>
      <trkpt lat="42.402063000" lon="-2.639418000">
        <ele>729.60</ele>
        <time>2015-01-17T08:55:04Z</time>
      </trkpt>
      <trkpt lat="42.402066000" lon="-2.639445000">
        <ele>729.90</ele>
        <time>2015-01-17T08:55:05Z</time>
      </trkpt>
      <trkpt lat="42.402068000" lon="-2.639472000">
        <ele>730.10</ele>
        <time>2015-01-17T08:55:06Z</time>
      </trkpt>
      <trkpt lat="42.402071000" lon="-2.639501000">
        <ele>730.10</ele>
        <time>2015-01-17T08:55:07Z</time>
      </trkpt>
      <trkpt lat="42.402076000" lon="-2.639531000">
        <ele>730.20</ele>
        <time>2015-01-17T08:55:08Z</time>
      </trkpt>
      <trkpt lat="42.402079000" lon="-2.639557000">
        <ele>730.20</ele>
        <time>2015-01-17T08:55:09Z</time>
      </trkpt>
      <trkpt lat="42.402083000" lon="-2.639583000">
        <ele>730.20</ele>
        <time>2015-01-17T08:55:10Z</time>
      </trkpt>
      <trkpt lat="42.402086000" lon="-2.639610000">
        <ele>730.20</ele>
        <time>2015-01-17T08:55:11Z</time>
      </trkpt>
      <trkpt lat="42.402093000" lon="-2.639636000">
        <ele>730.20</ele>
        <time>2015-01-17T08:55:12Z</time>
      </trkpt>
      <trkpt lat="42.402096000" lon="-2.639661000">
        <ele>730.20</ele>
        <time>2015-01-17T08:55:13Z</time>
      </trkpt>
      <trkpt lat="42.402100000" lon="-2.639691000">
        <ele>730.20</ele>
        <time>2015-01-17T08:55:14Z</time>
      </trkpt>
      <trkpt lat="42.402105000" lon="-2.639715000">
        <ele>730.10</ele>
        <time>2015-01-17T08:55:15Z</time>
      </trkpt>
      <trkpt lat="42.402105000" lon="-2.639741000">
        <ele>730.00</ele>
        <time>2015-01-17T08:55:16Z</time>
      </trkpt>
      <trkpt lat="42.402108000" lon="-2.639766000">
        <ele>730.00</ele>
        <time>2015-01-17T08:55:17Z</time>
      </trkpt>
      <trkpt lat="42.402111000" lon="-2.639790000">
        <ele>729.90</ele>
        <time>2015-01-17T08:55:18Z</time>
      </trkpt>
      <trkpt lat="42.402114000" lon="-2.639815000">
        <ele>730.20</ele>
        <time>2015-01-17T08:55:19Z</time>
      </trkpt>
      <trkpt lat="42.402117000" lon="-2.639843000">
        <ele>730.40</ele>
        <time>2015-01-17T08:55:20Z</time>
      </trkpt>
      <trkpt lat="42.402121000" lon="-2.639866000">
        <ele>730.60</ele>
        <time>2015-01-17T08:55:21Z</time>
      </trkpt>
      <trkpt lat="42.402120000" lon="-2.639915000">
        <ele>730.90</ele>
        <time>2015-01-17T08:55:23Z</time>
      </trkpt>
      <trkpt lat="42.402120000" lon="-2.639939000">
        <ele>731.10</ele>
        <time>2015-01-17T08:55:24Z</time>
      </trkpt>
      <trkpt lat="42.402124000" lon="-2.639963000">
        <ele>731.10</ele>
        <time>2015-01-17T08:55:25Z</time>
      </trkpt>
      <trkpt lat="42.402126000" lon="-2.639983000">
        <ele>731.10</ele>
        <time>2015-01-17T08:55:26Z</time>
      </trkpt>
      <trkpt lat="42.402126000" lon="-2.640006000">
        <ele>731.10</ele>
        <time>2015-01-17T08:55:27Z</time>
      </trkpt>
      <trkpt lat="42.402127000" lon="-2.640029000">
        <ele>731.10</ele>
        <time>2015-01-17T08:55:28Z</time>
      </trkpt>
      <trkpt lat="42.402128000" lon="-2.640051000">
        <ele>731.10</ele>
        <time>2015-01-17T08:55:29Z</time>
      </trkpt>
      <trkpt lat="42.402129000" lon="-2.640071000">
        <ele>731.10</ele>
        <time>2015-01-17T08:55:30Z</time>
      </trkpt>
      <trkpt lat="42.402129000" lon="-2.640089000">
        <ele>731.10</ele>
        <time>2015-01-17T08:55:31Z</time>
      </trkpt>
      <trkpt lat="42.402127000" lon="-2.640107000">
        <ele>731.10</ele>
        <time>2015-01-17T08:55:32Z</time>
      </trkpt>
      <trkpt lat="42.402126000" lon="-2.640121000">
        <ele>731.10</ele>
        <time>2015-01-17T08:55:33Z</time>
      </trkpt>
      <trkpt lat="42.402126000" lon="-2.640135000">
        <ele>731.10</ele>
        <time>2015-01-17T08:55:34Z</time>
      </trkpt>
      <trkpt lat="42.402122000" lon="-2.640149000">
        <ele>731.10</ele>
        <time>2015-01-17T08:55:35Z</time>
      </trkpt>
      <trkpt lat="42.402119000" lon="-2.640154000">
        <ele>731.20</ele>
        <time>2015-01-17T08:55:36Z</time>
      </trkpt>
      <trkpt lat="42.402119000" lon="-2.640154000">
        <ele>731.20</ele>
        <time>2015-01-17T08:55:37Z</time>
      </trkpt>
      <trkpt lat="42.402118000" lon="-2.640151000">
        <ele>731.20</ele>
        <time>2015-01-17T08:55:38Z</time>
      </trkpt>
      <trkpt lat="42.402117000" lon="-2.640151000">
        <ele>731.20</ele>
        <time>2015-01-17T08:55:39Z</time>
      </trkpt>
      <trkpt lat="42.402119000" lon="-2.640146000">
        <ele>731.20</ele>
        <time>2015-01-17T08:55:40Z</time>
      </trkpt>
      <trkpt lat="42.402118000" lon="-2.640145000">
        <ele>731.20</ele>
        <time>2015-01-17T08:55:41Z</time>
      </trkpt>
      <trkpt lat="42.402116000" lon="-2.640145000">
        <ele>731.20</ele>
        <time>2015-01-17T08:55:42Z</time>
      </trkpt>
      <trkpt lat="42.402116000" lon="-2.640147000">
        <ele>731.10</ele>
        <time>2015-01-17T08:55:43Z</time>
      </trkpt>
      <trkpt lat="42.402117000" lon="-2.640145000">
        <ele>731.00</ele>
        <time>2015-01-17T08:55:44Z</time>
      </trkpt>
      <trkpt lat="42.402116000" lon="-2.640146000">
        <ele>730.90</ele>
        <time>2015-01-17T08:55:45Z</time>
      </trkpt>
      <trkpt lat="42.402113000" lon="-2.640147000">
        <ele>730.80</ele>
        <time>2015-01-17T08:55:46Z</time>
      </trkpt>
      <trkpt lat="42.402111000" lon="-2.640150000">
        <ele>730.60</ele>
        <time>2015-01-17T08:55:47Z</time>
      </trkpt>
      <trkpt lat="42.402110000" lon="-2.640153000">
        <ele>730.50</ele>
        <time>2015-01-17T08:55:48Z</time>
      </trkpt>
      <trkpt lat="42.402108000" lon="-2.640157000">
        <ele>730.30</ele>
        <time>2015-01-17T08:55:49Z</time>
      </trkpt>
      <trkpt lat="42.402106000" lon="-2.640171000">
        <ele>730.10</ele>
        <time>2015-01-17T08:55:50Z</time>
      </trkpt>
      <trkpt lat="42.402102000" lon="-2.640189000">
        <ele>730.00</ele>
        <time>2015-01-17T08:55:51Z</time>
      </trkpt>
      <trkpt lat="42.402099000" lon="-2.640204000">
        <ele>729.90</ele>
        <time>2015-01-17T08:55:52Z</time>
      </trkpt>
      <trkpt lat="42.402096000" lon="-2.640224000">
        <ele>730.00</ele>
        <time>2015-01-17T08:55:53Z</time>
      </trkpt>
      <trkpt lat="42.402090000" lon="-2.640243000">
        <ele>730.10</ele>
        <time>2015-01-17T08:55:54Z</time>
      </trkpt>
      <trkpt lat="42.402084000" lon="-2.640264000">
        <ele>730.20</ele>
        <time>2015-01-17T08:55:55Z</time>
      </trkpt>
      <trkpt lat="42.402074000" lon="-2.640287000">
        <ele>730.30</ele>
        <time>2015-01-17T08:55:56Z</time>
      </trkpt>
      <trkpt lat="42.402064000" lon="-2.640311000">
        <ele>730.40</ele>
        <time>2015-01-17T08:55:57Z</time>
      </trkpt>
      <trkpt lat="42.402050000" lon="-2.640335000">
        <ele>730.40</ele>
        <time>2015-01-17T08:55:58Z</time>
      </trkpt>
      <trkpt lat="42.402037000" lon="-2.640357000">
        <ele>730.50</ele>
        <time>2015-01-17T08:55:59Z</time>
      </trkpt>
      <trkpt lat="42.402027000" lon="-2.640381000">
        <ele>730.60</ele>
        <time>2015-01-17T08:56:00Z</time>
      </trkpt>
      <trkpt lat="42.402020000" lon="-2.640393000">
        <ele>730.70</ele>
        <time>2015-01-17T08:56:01Z</time>
      </trkpt>
      <trkpt lat="42.402011000" lon="-2.640404000">
        <ele>730.70</ele>
        <time>2015-01-17T08:56:02Z</time>
      </trkpt>
      <trkpt lat="42.402003000" lon="-2.640419000">
        <ele>730.70</ele>
        <time>2015-01-17T08:56:03Z</time>
      </trkpt>
      <trkpt lat="42.401997000" lon="-2.640433000">
        <ele>730.60</ele>
        <time>2015-01-17T08:56:04Z</time>
      </trkpt>
      <trkpt lat="42.401991000" lon="-2.640438000">
        <ele>730.50</ele>
        <time>2015-01-17T08:56:05Z</time>
      </trkpt>
      <trkpt lat="42.401990000" lon="-2.640437000">
        <ele>730.40</ele>
        <time>2015-01-17T08:56:06Z</time>
      </trkpt>
      <trkpt lat="42.401990000" lon="-2.640439000">
        <ele>730.30</ele>
        <time>2015-01-17T08:56:07Z</time>
      </trkpt>
      <trkpt lat="42.401990000" lon="-2.640440000">
        <ele>730.20</ele>
        <time>2015-01-17T08:56:08Z</time>
      </trkpt>
      <trkpt lat="42.401991000" lon="-2.640441000">
        <ele>730.20</ele>
        <time>2015-01-17T08:56:09Z</time>
      </trkpt>
      <trkpt lat="42.401989000" lon="-2.640442000">
        <ele>730.20</ele>
        <time>2015-01-17T08:56:10Z</time>
      </trkpt>
      <trkpt lat="42.401988000" lon="-2.640444000">
        <ele>730.10</ele>
        <time>2015-01-17T08:56:11Z</time>
      </trkpt>
      <trkpt lat="42.401985000" lon="-2.640444000">
        <ele>730.10</ele>
        <time>2015-01-17T08:56:12Z</time>
      </trkpt>
      <trkpt lat="42.401982000" lon="-2.640443000">
        <ele>730.10</ele>
        <time>2015-01-17T08:56:13Z</time>
      </trkpt>
      <trkpt lat="42.401983000" lon="-2.640447000">
        <ele>730.10</ele>
        <time>2015-01-17T08:56:14Z</time>
      </trkpt>
      <trkpt lat="42.401984000" lon="-2.640450000">
        <ele>730.10</ele>
        <time>2015-01-17T08:56:15Z</time>
      </trkpt>
      <trkpt lat="42.401987000" lon="-2.640449000">
        <ele>730.10</ele>
        <time>2015-01-17T08:56:16Z</time>
      </trkpt>
      <trkpt lat="42.401989000" lon="-2.640450000">
        <ele>730.00</ele>
        <time>2015-01-17T08:56:17Z</time>
      </trkpt>
      <trkpt lat="42.401993000" lon="-2.640448000">
        <ele>730.00</ele>
        <time>2015-01-17T08:56:18Z</time>
      </trkpt>
      <trkpt lat="42.401995000" lon="-2.640446000">
        <ele>729.90</ele>
        <time>2015-01-17T08:56:19Z</time>
      </trkpt>
      <trkpt lat="42.401997000" lon="-2.640447000">
        <ele>729.90</ele>
        <time>2015-01-17T08:56:20Z</time>
      </trkpt>
      <trkpt lat="42.401997000" lon="-2.640446000">
        <ele>729.90</ele>
        <time>2015-01-17T08:56:21Z</time>
      </trkpt>
      <trkpt lat="42.401996000" lon="-2.640445000">
        <ele>729.80</ele>
        <time>2015-01-17T08:56:22Z</time>
      </trkpt>
      <trkpt lat="42.401994000" lon="-2.640445000">
        <ele>729.80</ele>
        <time>2015-01-17T08:56:24Z</time>
      </trkpt>
      <trkpt lat="42.401993000" lon="-2.640446000">
        <ele>729.60</ele>
        <time>2015-01-17T08:56:25Z</time>
      </trkpt>
      <trkpt lat="42.401994000" lon="-2.640445000">
        <ele>729.50</ele>
        <time>2015-01-17T08:56:26Z</time>
      </trkpt>
      <trkpt lat="42.401993000" lon="-2.640441000">
        <ele>729.30</ele>
        <time>2015-01-17T08:56:27Z</time>
      </trkpt>
      <trkpt lat="42.401992000" lon="-2.640436000">
        <ele>729.30</ele>
        <time>2015-01-17T08:56:28Z</time>
      </trkpt>
      <trkpt lat="42.401991000" lon="-2.640433000">
        <ele>729.20</ele>
        <time>2015-01-17T08:56:29Z</time>
      </trkpt>
      <trkpt lat="42.401990000" lon="-2.640428000">
        <ele>729.10</ele>
        <time>2015-01-17T08:56:30Z</time>
      </trkpt>
      <trkpt lat="42.401991000" lon="-2.640424000">
        <ele>729.00</ele>
        <time>2015-01-17T08:56:31Z</time>
      </trkpt>
      <trkpt lat="42.401990000" lon="-2.640423000">
        <ele>729.00</ele>
        <time>2015-01-17T08:56:32Z</time>
      </trkpt>
      <trkpt lat="42.401991000" lon="-2.640423000">
        <ele>728.90</ele>
        <time>2015-01-17T08:56:33Z</time>
      </trkpt>
      <trkpt lat="42.401992000" lon="-2.640422000">
        <ele>728.90</ele>
        <time>2015-01-17T08:56:34Z</time>
      </trkpt>
      <trkpt lat="42.401991000" lon="-2.640422000">
        <ele>728.90</ele>
        <time>2015-01-17T08:56:35Z</time>
      </trkpt>
      <trkpt lat="42.401990000" lon="-2.640424000">
        <ele>728.90</ele>
        <time>2015-01-17T08:56:36Z</time>
      </trkpt>
      <trkpt lat="42.401988000" lon="-2.640428000">
        <ele>729.00</ele>
        <time>2015-01-17T08:56:37Z</time>
      </trkpt>
      <trkpt lat="42.401986000" lon="-2.640431000">
        <ele>729.10</ele>
        <time>2015-01-17T08:56:38Z</time>
      </trkpt>
      <trkpt lat="42.401985000" lon="-2.640432000">
        <ele>729.20</ele>
        <time>2015-01-17T08:56:39Z</time>
      </trkpt>
      <trkpt lat="42.401985000" lon="-2.640431000">
        <ele>729.30</ele>
        <time>2015-01-17T08:56:40Z</time>
      </trkpt>
      <trkpt lat="42.401984000" lon="-2.640430000">
        <ele>729.30</ele>
        <time>2015-01-17T08:56:41Z</time>
      </trkpt>
      <trkpt lat="42.401983000" lon="-2.640431000">
        <ele>729.30</ele>
        <time>2015-01-17T08:56:42Z</time>
      </trkpt>
      <trkpt lat="42.401987000" lon="-2.640433000">
        <ele>729.30</ele>
        <time>2015-01-17T08:56:43Z</time>
      </trkpt>
      <trkpt lat="42.401989000" lon="-2.640436000">
        <ele>729.40</ele>
        <time>2015-01-17T08:56:44Z</time>
      </trkpt>
      <trkpt lat="42.401986000" lon="-2.640435000">
        <ele>729.50</ele>
        <time>2015-01-17T08:56:45Z</time>
      </trkpt>
      <trkpt lat="42.401985000" lon="-2.640435000">
        <ele>729.60</ele>
        <time>2015-01-17T08:56:46Z</time>
      </trkpt>
      <trkpt lat="42.401987000" lon="-2.640433000">
        <ele>729.80</ele>
        <time>2015-01-17T08:56:47Z</time>
      </trkpt>
      <trkpt lat="42.401988000" lon="-2.640430000">
        <ele>729.90</ele>
        <time>2015-01-17T08:56:48Z</time>
      </trkpt>
      <trkpt lat="42.401989000" lon="-2.640430000">
        <ele>730.00</ele>
        <time>2015-01-17T08:56:49Z</time>
      </trkpt>
      <trkpt lat="42.401988000" lon="-2.640429000">
        <ele>730.10</ele>
        <time>2015-01-17T08:56:50Z</time>
      </trkpt>
      <trkpt lat="42.401990000" lon="-2.640430000">
        <ele>730.00</ele>
        <time>2015-01-17T08:56:51Z</time>
      </trkpt>
      <trkpt lat="42.401992000" lon="-2.640433000">
        <ele>730.00</ele>
        <time>2015-01-17T08:56:52Z</time>
      </trkpt>
      <trkpt lat="42.401994000" lon="-2.640434000">
        <ele>729.90</ele>
        <time>2015-01-17T08:56:53Z</time>
      </trkpt>
      <trkpt lat="42.401995000" lon="-2.640432000">
        <ele>729.90</ele>
        <time>2015-01-17T08:56:54Z</time>
      </trkpt>
      <trkpt lat="42.401995000" lon="-2.640430000">
        <ele>729.70</ele>
        <time>2015-01-17T08:56:55Z</time>
      </trkpt>
      <trkpt lat="42.401995000" lon="-2.640427000">
        <ele>729.60</ele>
        <time>2015-01-17T08:56:56Z</time>
      </trkpt>
      <trkpt lat="42.401996000" lon="-2.640424000">
        <ele>729.70</ele>
        <time>2015-01-17T08:56:57Z</time>
      </trkpt>
      <trkpt lat="42.401996000" lon="-2.640427000">
        <ele>729.70</ele>
        <time>2015-01-17T08:56:58Z</time>
      </trkpt>
      <trkpt lat="42.401994000" lon="-2.640432000">
        <ele>729.60</ele>
        <time>2015-01-17T08:56:59Z</time>
      </trkpt>
      <trkpt lat="42.401990000" lon="-2.640435000">
        <ele>729.60</ele>
        <time>2015-01-17T08:57:00Z</time>
      </trkpt>
      <trkpt lat="42.401990000" lon="-2.640439000">
        <ele>729.50</ele>
        <time>2015-01-17T08:57:01Z</time>
      </trkpt>
      <trkpt lat="42.401990000" lon="-2.640437000">
        <ele>729.50</ele>
        <time>2015-01-17T08:57:02Z</time>
      </trkpt>
      <trkpt lat="42.401989000" lon="-2.640443000">
        <ele>729.50</ele>
        <time>2015-01-17T08:57:03Z</time>
      </trkpt>
      <trkpt lat="42.401986000" lon="-2.640448000">
        <ele>729.50</ele>
        <time>2015-01-17T08:57:04Z</time>
      </trkpt>
      <trkpt lat="42.401986000" lon="-2.640448000">
        <ele>729.50</ele>
        <time>2015-01-17T08:57:05Z</time>
      </trkpt>
      <trkpt lat="42.401985000" lon="-2.640448000">
        <ele>729.50</ele>
        <time>2015-01-17T08:57:06Z</time>
      </trkpt>
      <trkpt lat="42.401983000" lon="-2.640448000">
        <ele>729.40</ele>
        <time>2015-01-17T08:57:07Z</time>
      </trkpt>
      <trkpt lat="42.401981000" lon="-2.640447000">
        <ele>729.30</ele>
        <time>2015-01-17T08:57:08Z</time>
      </trkpt>
      <trkpt lat="42.401980000" lon="-2.640445000">
        <ele>729.30</ele>
        <time>2015-01-17T08:57:09Z</time>
      </trkpt>
      <trkpt lat="42.401980000" lon="-2.640443000">
        <ele>729.30</ele>
        <time>2015-01-17T08:57:10Z</time>
      </trkpt>
      <trkpt lat="42.401981000" lon="-2.640440000">
        <ele>729.20</ele>
        <time>2015-01-17T08:57:11Z</time>
      </trkpt>
      <trkpt lat="42.401982000" lon="-2.640440000">
        <ele>729.20</ele>
        <time>2015-01-17T08:57:12Z</time>
      </trkpt>
      <trkpt lat="42.401984000" lon="-2.640439000">
        <ele>729.20</ele>
        <time>2015-01-17T08:57:13Z</time>
      </trkpt>
      <trkpt lat="42.401983000" lon="-2.640438000">
        <ele>729.20</ele>
        <time>2015-01-17T08:57:14Z</time>
      </trkpt>
      <trkpt lat="42.401981000" lon="-2.640438000">
        <ele>729.20</ele>
        <time>2015-01-17T08:57:15Z</time>
      </trkpt>
      <trkpt lat="42.401981000" lon="-2.640440000">
        <ele>729.20</ele>
        <time>2015-01-17T08:57:16Z</time>
      </trkpt>
      <trkpt lat="42.401981000" lon="-2.640441000">
        <ele>729.30</ele>
        <time>2015-01-17T08:57:17Z</time>
      </trkpt>
      <trkpt lat="42.401981000" lon="-2.640440000">
        <ele>729.40</ele>
        <time>2015-01-17T08:57:18Z</time>
      </trkpt>
      <trkpt lat="42.401982000" lon="-2.640440000">
        <ele>729.50</ele>
        <time>2015-01-17T08:57:19Z</time>
      </trkpt>
      <trkpt lat="42.401982000" lon="-2.640440000">
        <ele>729.50</ele>
        <time>2015-01-17T08:57:20Z</time>
      </trkpt>
      <trkpt lat="42.401983000" lon="-2.640442000">
        <ele>729.60</ele>
        <time>2015-01-17T08:57:21Z</time>
      </trkpt>
      <trkpt lat="42.401986000" lon="-2.640442000">
        <ele>729.60</ele>
        <time>2015-01-17T08:57:22Z</time>
      </trkpt>
      <trkpt lat="42.401988000" lon="-2.640442000">
        <ele>729.70</ele>
        <time>2015-01-17T08:57:23Z</time>
      </trkpt>
      <trkpt lat="42.401987000" lon="-2.640442000">
        <ele>729.70</ele>
        <time>2015-01-17T08:57:25Z</time>
      </trkpt>
      <trkpt lat="42.401986000" lon="-2.640444000">
        <ele>729.70</ele>
        <time>2015-01-17T08:57:26Z</time>
      </trkpt>
      <trkpt lat="42.401985000" lon="-2.640446000">
        <ele>729.60</ele>
        <time>2015-01-17T08:57:27Z</time>
      </trkpt>
      <trkpt lat="42.401984000" lon="-2.640447000">
        <ele>729.50</ele>
        <time>2015-01-17T08:57:28Z</time>
      </trkpt>
      <trkpt lat="42.401985000" lon="-2.640446000">
        <ele>729.40</ele>
        <time>2015-01-17T08:57:29Z</time>
      </trkpt>
      <trkpt lat="42.401988000" lon="-2.640444000">
        <ele>729.30</ele>
        <time>2015-01-17T08:57:30Z</time>
      </trkpt>
      <trkpt lat="42.401987000" lon="-2.640445000">
        <ele>729.30</ele>
        <time>2015-01-17T08:57:31Z</time>
      </trkpt>
      <trkpt lat="42.401985000" lon="-2.640447000">
        <ele>729.30</ele>
        <time>2015-01-17T08:57:32Z</time>
      </trkpt>
      <trkpt lat="42.401983000" lon="-2.640447000">
        <ele>729.30</ele>
        <time>2015-01-17T08:57:33Z</time>
      </trkpt>
      <trkpt lat="42.401982000" lon="-2.640449000">
        <ele>729.30</ele>
        <time>2015-01-17T08:57:34Z</time>
      </trkpt>
      <trkpt lat="42.401980000" lon="-2.640451000">
        <ele>729.40</ele>
        <time>2015-01-17T08:57:35Z</time>
      </trkpt>
      <trkpt lat="42.401978000" lon="-2.640453000">
        <ele>729.40</ele>
        <time>2015-01-17T08:57:36Z</time>
      </trkpt>
      <trkpt lat="42.401979000" lon="-2.640455000">
        <ele>729.30</ele>
        <time>2015-01-17T08:57:37Z</time>
      </trkpt>
      <trkpt lat="42.401981000" lon="-2.640455000">
        <ele>729.20</ele>
        <time>2015-01-17T08:57:38Z</time>
      </trkpt>
      <trkpt lat="42.401984000" lon="-2.640456000">
        <ele>729.20</ele>
        <time>2015-01-17T08:57:39Z</time>
      </trkpt>
      <trkpt lat="42.401984000" lon="-2.640458000">
        <ele>729.20</ele>
        <time>2015-01-17T08:57:40Z</time>
      </trkpt>
      <trkpt lat="42.401984000" lon="-2.640459000">
        <ele>729.30</ele>
        <time>2015-01-17T08:57:41Z</time>
      </trkpt>
      <trkpt lat="42.401983000" lon="-2.640458000">
        <ele>729.40</ele>
        <time>2015-01-17T08:57:42Z</time>
      </trkpt>
      <trkpt lat="42.401983000" lon="-2.640460000">
        <ele>729.50</ele>
        <time>2015-01-17T08:57:43Z</time>
      </trkpt>
      <trkpt lat="42.401982000" lon="-2.640462000">
        <ele>729.60</ele>
        <time>2015-01-17T08:57:44Z</time>
      </trkpt>
      <trkpt lat="42.401984000" lon="-2.640465000">
        <ele>729.60</ele>
        <time>2015-01-17T08:57:45Z</time>
      </trkpt>
      <trkpt lat="42.401985000" lon="-2.640468000">
        <ele>729.70</ele>
        <time>2015-01-17T08:57:46Z</time>
      </trkpt>
      <trkpt lat="42.401985000" lon="-2.640468000">
        <ele>729.60</ele>
        <time>2015-01-17T08:57:47Z</time>
      </trkpt>
      <trkpt lat="42.401984000" lon="-2.640468000">
        <ele>729.60</ele>
        <time>2015-01-17T08:57:48Z</time>
      </trkpt>
      <trkpt lat="42.401981000" lon="-2.640470000">
        <ele>729.80</ele>
        <time>2015-01-17T08:57:49Z</time>
      </trkpt>
      <trkpt lat="42.401980000" lon="-2.640471000">
        <ele>729.90</ele>
        <time>2015-01-17T08:57:50Z</time>
      </trkpt>
      <trkpt lat="42.401980000" lon="-2.640471000">
        <ele>729.90</ele>
        <time>2015-01-17T08:57:51Z</time>
      </trkpt>
      <trkpt lat="42.401980000" lon="-2.640471000">
        <ele>729.90</ele>
        <time>2015-01-17T08:57:52Z</time>
      </trkpt>
      <trkpt lat="42.401977000" lon="-2.640469000">
        <ele>729.90</ele>
        <time>2015-01-17T08:57:53Z</time>
      </trkpt>
      <trkpt lat="42.401976000" lon="-2.640467000">
        <ele>729.80</ele>
        <time>2015-01-17T08:57:54Z</time>
      </trkpt>
      <trkpt lat="42.401978000" lon="-2.640467000">
        <ele>729.80</ele>
        <time>2015-01-17T08:57:55Z</time>
      </trkpt>
      <trkpt lat="42.401979000" lon="-2.640466000">
        <ele>729.70</ele>
        <time>2015-01-17T08:57:56Z</time>
      </trkpt>
      <trkpt lat="42.401979000" lon="-2.640463000">
        <ele>729.70</ele>
        <time>2015-01-17T08:57:57Z</time>
      </trkpt>
      <trkpt lat="42.401977000" lon="-2.640461000">
        <ele>729.60</ele>
        <time>2015-01-17T08:57:58Z</time>
      </trkpt>
      <trkpt lat="42.401976000" lon="-2.640462000">
        <ele>729.60</ele>
        <time>2015-01-17T08:57:59Z</time>
      </trkpt>
      <trkpt lat="42.401976000" lon="-2.640462000">
        <ele>729.60</ele>
        <time>2015-01-17T08:58:00Z</time>
      </trkpt>
      <trkpt lat="42.401974000" lon="-2.640462000">
        <ele>729.60</ele>
        <time>2015-01-17T08:58:01Z</time>
      </trkpt>
      <trkpt lat="42.401970000" lon="-2.640459000">
        <ele>729.60</ele>
        <time>2015-01-17T08:58:02Z</time>
      </trkpt>
      <trkpt lat="42.401970000" lon="-2.640456000">
        <ele>729.50</ele>
        <time>2015-01-17T08:58:03Z</time>
      </trkpt>
      <trkpt lat="42.401970000" lon="-2.640454000">
        <ele>729.50</ele>
        <time>2015-01-17T08:58:04Z</time>
      </trkpt>
      <trkpt lat="42.401970000" lon="-2.640453000">
        <ele>729.50</ele>
        <time>2015-01-17T08:58:05Z</time>
      </trkpt>
      <trkpt lat="42.401969000" lon="-2.640451000">
        <ele>729.50</ele>
        <time>2015-01-17T08:58:06Z</time>
      </trkpt>
      <trkpt lat="42.401970000" lon="-2.640448000">
        <ele>729.50</ele>
        <time>2015-01-17T08:58:07Z</time>
      </trkpt>
      <trkpt lat="42.401972000" lon="-2.640447000">
        <ele>729.50</ele>
        <time>2015-01-17T08:58:08Z</time>
      </trkpt>
      <trkpt lat="42.401973000" lon="-2.640446000">
        <ele>729.50</ele>
        <time>2015-01-17T08:58:09Z</time>
      </trkpt>
      <trkpt lat="42.401973000" lon="-2.640445000">
        <ele>729.60</ele>
        <time>2015-01-17T08:58:10Z</time>
      </trkpt>
      <trkpt lat="42.401973000" lon="-2.640443000">
        <ele>729.40</ele>
        <time>2015-01-17T08:58:11Z</time>
      </trkpt>
      <trkpt lat="42.401976000" lon="-2.640445000">
        <ele>729.30</ele>
        <time>2015-01-17T08:58:12Z</time>
      </trkpt>
      <trkpt lat="42.401977000" lon="-2.640445000">
        <ele>729.30</ele>
        <time>2015-01-17T08:58:13Z</time>
      </trkpt>
      <trkpt lat="42.401978000" lon="-2.640446000">
        <ele>729.20</ele>
        <time>2015-01-17T08:58:14Z</time>
      </trkpt>
      <trkpt lat="42.401980000" lon="-2.640445000">
        <ele>729.20</ele>
        <time>2015-01-17T08:58:15Z</time>
      </trkpt>
      <trkpt lat="42.401983000" lon="-2.640445000">
        <ele>729.20</ele>
        <time>2015-01-17T08:58:16Z</time>
      </trkpt>
      <trkpt lat="42.401983000" lon="-2.640444000">
        <ele>729.30</ele>
        <time>2015-01-17T08:58:17Z</time>
      </trkpt>
      <trkpt lat="42.401984000" lon="-2.640443000">
        <ele>729.40</ele>
        <time>2015-01-17T08:58:18Z</time>
      </trkpt>
      <trkpt lat="42.401985000" lon="-2.640441000">
        <ele>729.40</ele>
        <time>2015-01-17T08:58:19Z</time>
      </trkpt>
      <trkpt lat="42.401987000" lon="-2.640440000">
        <ele>729.50</ele>
        <time>2015-01-17T08:58:20Z</time>
      </trkpt>
      <trkpt lat="42.401986000" lon="-2.640439000">
        <ele>729.50</ele>
        <time>2015-01-17T08:58:21Z</time>
      </trkpt>
      <trkpt lat="42.401984000" lon="-2.640441000">
        <ele>729.50</ele>
        <time>2015-01-17T08:58:22Z</time>
      </trkpt>
      <trkpt lat="42.401983000" lon="-2.640439000">
        <ele>729.60</ele>
        <time>2015-01-17T08:58:23Z</time>
      </trkpt>
      <trkpt lat="42.401982000" lon="-2.640438000">
        <ele>729.70</ele>
        <time>2015-01-17T08:58:24Z</time>
      </trkpt>
      <trkpt lat="42.401979000" lon="-2.640441000">
        <ele>729.80</ele>
        <time>2015-01-17T08:58:26Z</time>
      </trkpt>
      <trkpt lat="42.401979000" lon="-2.640441000">
        <ele>729.90</ele>
        <time>2015-01-17T08:58:27Z</time>
      </trkpt>
      <trkpt lat="42.401981000" lon="-2.640441000">
        <ele>730.10</ele>
        <time>2015-01-17T08:58:28Z</time>
      </trkpt>
      <trkpt lat="42.401980000" lon="-2.640439000">
        <ele>730.00</ele>
        <time>2015-01-17T08:58:29Z</time>
      </trkpt>
      <trkpt lat="42.401980000" lon="-2.640438000">
        <ele>730.00</ele>
        <time>2015-01-17T08:58:30Z</time>
      </trkpt>
      <trkpt lat="42.401981000" lon="-2.640435000">
        <ele>730.00</ele>
        <time>2015-01-17T08:58:31Z</time>
      </trkpt>
      <trkpt lat="42.401980000" lon="-2.640433000">
        <ele>729.90</ele>
        <time>2015-01-17T08:58:32Z</time>
      </trkpt>
      <trkpt lat="42.401978000" lon="-2.640431000">
        <ele>729.70</ele>
        <time>2015-01-17T08:58:33Z</time>
      </trkpt>
      <trkpt lat="42.401975000" lon="-2.640428000">
        <ele>729.60</ele>
        <time>2015-01-17T08:58:34Z</time>
      </trkpt>
      <trkpt lat="42.401974000" lon="-2.640426000">
        <ele>729.40</ele>
        <time>2015-01-17T08:58:35Z</time>
      </trkpt>
      <trkpt lat="42.401976000" lon="-2.640426000">
        <ele>729.40</ele>
        <time>2015-01-17T08:58:36Z</time>
      </trkpt>
      <trkpt lat="42.401978000" lon="-2.640424000">
        <ele>729.40</ele>
        <time>2015-01-17T08:58:37Z</time>
      </trkpt>
      <trkpt lat="42.401978000" lon="-2.640425000">
        <ele>729.50</ele>
        <time>2015-01-17T08:58:38Z</time>
      </trkpt>
      <trkpt lat="42.401978000" lon="-2.640425000">
        <ele>729.60</ele>
        <time>2015-01-17T08:58:39Z</time>
      </trkpt>
      <trkpt lat="42.401978000" lon="-2.640425000">
        <ele>729.70</ele>
        <time>2015-01-17T08:58:40Z</time>
      </trkpt>
      <trkpt lat="42.401980000" lon="-2.640427000">
        <ele>729.70</ele>
        <time>2015-01-17T08:58:41Z</time>
      </trkpt>
      <trkpt lat="42.401981000" lon="-2.640429000">
        <ele>729.70</ele>
        <time>2015-01-17T08:58:42Z</time>
      </trkpt>
      <trkpt lat="42.401982000" lon="-2.640429000">
        <ele>729.70</ele>
        <time>2015-01-17T08:58:43Z</time>
      </trkpt>
      <trkpt lat="42.401982000" lon="-2.640429000">
        <ele>729.80</ele>
        <time>2015-01-17T08:58:44Z</time>
      </trkpt>
      <trkpt lat="42.401982000" lon="-2.640430000">
        <ele>729.80</ele>
        <time>2015-01-17T08:58:45Z</time>
      </trkpt>
      <trkpt lat="42.401980000" lon="-2.640434000">
        <ele>729.80</ele>
        <time>2015-01-17T08:58:46Z</time>
      </trkpt>
      <trkpt lat="42.401968000" lon="-2.640448000">
        <ele>729.80</ele>
        <time>2015-01-17T08:58:47Z</time>
      </trkpt>
      <trkpt lat="42.401955000" lon="-2.640460000">
        <ele>729.80</ele>
        <time>2015-01-17T08:58:48Z</time>
      </trkpt>
      <trkpt lat="42.401934000" lon="-2.640473000">
        <ele>729.80</ele>
        <time>2015-01-17T08:58:49Z</time>
      </trkpt>
      <trkpt lat="42.401908000" lon="-2.640488000">
        <ele>729.80</ele>
        <time>2015-01-17T08:58:50Z</time>
      </trkpt>
      <trkpt lat="42.401879000" lon="-2.640501000">
        <ele>729.70</ele>
        <time>2015-01-17T08:58:51Z</time>
      </trkpt>
      <trkpt lat="42.401854000" lon="-2.640513000">
        <ele>729.70</ele>
        <time>2015-01-17T08:58:52Z</time>
      </trkpt>
      <trkpt lat="42.401826000" lon="-2.640521000">
        <ele>729.60</ele>
        <time>2015-01-17T08:58:53Z</time>
      </trkpt>
      <trkpt lat="42.401799000" lon="-2.640529000">
        <ele>729.50</ele>
        <time>2015-01-17T08:58:54Z</time>
      </trkpt>
      <trkpt lat="42.401767000" lon="-2.640534000">
        <ele>729.40</ele>
        <time>2015-01-17T08:58:55Z</time>
      </trkpt>
      <trkpt lat="42.401735000" lon="-2.640539000">
        <ele>729.30</ele>
        <time>2015-01-17T08:58:56Z</time>
      </trkpt>
      <trkpt lat="42.401701000" lon="-2.640552000">
        <ele>729.20</ele>
        <time>2015-01-17T08:58:57Z</time>
      </trkpt>
      <trkpt lat="42.401668000" lon="-2.640558000">
        <ele>729.20</ele>
        <time>2015-01-17T08:58:58Z</time>
      </trkpt>
      <trkpt lat="42.401630000" lon="-2.640568000">
        <ele>728.70</ele>
        <time>2015-01-17T08:58:59Z</time>
      </trkpt>
      <trkpt lat="42.401584000" lon="-2.640578000">
        <ele>728.40</ele>
        <time>2015-01-17T08:59:00Z</time>
      </trkpt>
      <trkpt lat="42.401534000" lon="-2.640586000">
        <ele>727.90</ele>
        <time>2015-01-17T08:59:01Z</time>
      </trkpt>
      <trkpt lat="42.401479000" lon="-2.640593000">
        <ele>727.50</ele>
        <time>2015-01-17T08:59:02Z</time>
      </trkpt>
      <trkpt lat="42.401420000" lon="-2.640601000">
        <ele>727.00</ele>
        <time>2015-01-17T08:59:03Z</time>
      </trkpt>
      <trkpt lat="42.401359000" lon="-2.640608000">
        <ele>726.60</ele>
        <time>2015-01-17T08:59:04Z</time>
      </trkpt>
      <trkpt lat="42.401291000" lon="-2.640616000">
        <ele>726.30</ele>
        <time>2015-01-17T08:59:05Z</time>
      </trkpt>
      <trkpt lat="42.401219000" lon="-2.640620000">
        <ele>726.00</ele>
        <time>2015-01-17T08:59:06Z</time>
      </trkpt>
      <trkpt lat="42.401145000" lon="-2.640630000">
        <ele>725.40</ele>
        <time>2015-01-17T08:59:07Z</time>
      </trkpt>
      <trkpt lat="42.401066000" lon="-2.640646000">
        <ele>725.00</ele>
        <time>2015-01-17T08:59:08Z</time>
      </trkpt>
      <trkpt lat="42.400986000" lon="-2.640675000">
        <ele>724.60</ele>
        <time>2015-01-17T08:59:09Z</time>
      </trkpt>
      <trkpt lat="42.400910000" lon="-2.640720000">
        <ele>724.30</ele>
        <time>2015-01-17T08:59:10Z</time>
      </trkpt>
      <trkpt lat="42.400841000" lon="-2.640786000">
        <ele>723.70</ele>
        <time>2015-01-17T08:59:11Z</time>
      </trkpt>
      <trkpt lat="42.400781000" lon="-2.640870000">
        <ele>723.30</ele>
        <time>2015-01-17T08:59:12Z</time>
      </trkpt>
      <trkpt lat="42.400729000" lon="-2.640965000">
        <ele>722.80</ele>
        <time>2015-01-17T08:59:13Z</time>
      </trkpt>
      <trkpt lat="42.400688000" lon="-2.641065000">
        <ele>722.30</ele>
        <time>2015-01-17T08:59:14Z</time>
      </trkpt>
      <trkpt lat="42.400650000" lon="-2.641168000">
        <ele>721.70</ele>
        <time>2015-01-17T08:59:15Z</time>
      </trkpt>
      <trkpt lat="42.400611000" lon="-2.641272000">
        <ele>721.30</ele>
        <time>2015-01-17T08:59:16Z</time>
      </trkpt>
      <trkpt lat="42.400573000" lon="-2.641377000">
        <ele>720.80</ele>
        <time>2015-01-17T08:59:17Z</time>
      </trkpt>
      <trkpt lat="42.400534000" lon="-2.641484000">
        <ele>720.50</ele>
        <time>2015-01-17T08:59:18Z</time>
      </trkpt>
      <trkpt lat="42.400495000" lon="-2.641593000">
        <ele>720.30</ele>
        <time>2015-01-17T08:59:19Z</time>
      </trkpt>
      <trkpt lat="42.400454000" lon="-2.641706000">
        <ele>720.10</ele>
        <time>2015-01-17T08:59:20Z</time>
      </trkpt>
      <trkpt lat="42.400417000" lon="-2.641825000">
        <ele>719.40</ele>
        <time>2015-01-17T08:59:21Z</time>
      </trkpt>
      <trkpt lat="42.400376000" lon="-2.641950000">
        <ele>718.90</ele>
        <time>2015-01-17T08:59:22Z</time>
      </trkpt>
      <trkpt lat="42.400331000" lon="-2.642080000">
        <ele>718.00</ele>
        <time>2015-01-17T08:59:23Z</time>
      </trkpt>
      <trkpt lat="42.400285000" lon="-2.642214000">
        <ele>717.40</ele>
        <time>2015-01-17T08:59:24Z</time>
      </trkpt>
      <trkpt lat="42.400237000" lon="-2.642346000">
        <ele>716.40</ele>
        <time>2015-01-17T08:59:25Z</time>
      </trkpt>
      <trkpt lat="42.400133000" lon="-2.642604000">
        <ele>714.60</ele>
        <time>2015-01-17T08:59:27Z</time>
      </trkpt>
      <trkpt lat="42.400078000" lon="-2.642730000">
        <ele>713.70</ele>
        <time>2015-01-17T08:59:28Z</time>
      </trkpt>
      <trkpt lat="42.400023000" lon="-2.642851000">
        <ele>713.10</ele>
        <time>2015-01-17T08:59:29Z</time>
      </trkpt>
      <trkpt lat="42.399963000" lon="-2.642964000">
        <ele>712.60</ele>
        <time>2015-01-17T08:59:30Z</time>
      </trkpt>
      <trkpt lat="42.399903000" lon="-2.643071000">
        <ele>711.60</ele>
        <time>2015-01-17T08:59:31Z</time>
      </trkpt>
      <trkpt lat="42.399843000" lon="-2.643168000">
        <ele>710.90</ele>
        <time>2015-01-17T08:59:32Z</time>
      </trkpt>
      <trkpt lat="42.399780000" lon="-2.643257000">
        <ele>710.20</ele>
        <time>2015-01-17T08:59:33Z</time>
      </trkpt>
      <trkpt lat="42.399719000" lon="-2.643339000">
        <ele>709.60</ele>
        <time>2015-01-17T08:59:34Z</time>
      </trkpt>
      <trkpt lat="42.399656000" lon="-2.643417000">
        <ele>708.90</ele>
        <time>2015-01-17T08:59:35Z</time>
      </trkpt>
      <trkpt lat="42.399597000" lon="-2.643489000">
        <ele>708.30</ele>
        <time>2015-01-17T08:59:36Z</time>
      </trkpt>
      <trkpt lat="42.399535000" lon="-2.643561000">
        <ele>707.70</ele>
        <time>2015-01-17T08:59:37Z</time>
      </trkpt>
      <trkpt lat="42.399471000" lon="-2.643634000">
        <ele>707.20</ele>
        <time>2015-01-17T08:59:38Z</time>
      </trkpt>
      <trkpt lat="42.399407000" lon="-2.643704000">
        <ele>706.50</ele>
        <time>2015-01-17T08:59:39Z</time>
      </trkpt>
      <trkpt lat="42.399344000" lon="-2.643776000">
        <ele>706.00</ele>
        <time>2015-01-17T08:59:40Z</time>
      </trkpt>
      <trkpt lat="42.399280000" lon="-2.643842000">
        <ele>705.60</ele>
        <time>2015-01-17T08:59:41Z</time>
      </trkpt>
      <trkpt lat="42.399218000" lon="-2.643914000">
        <ele>705.30</ele>
        <time>2015-01-17T08:59:42Z</time>
      </trkpt>
      <trkpt lat="42.399160000" lon="-2.643988000">
        <ele>705.10</ele>
        <time>2015-01-17T08:59:43Z</time>
      </trkpt>
      <trkpt lat="42.399104000" lon="-2.644061000">
        <ele>704.90</ele>
        <time>2015-01-17T08:59:44Z</time>
      </trkpt>
      <trkpt lat="42.399047000" lon="-2.644134000">
        <ele>704.60</ele>
        <time>2015-01-17T08:59:45Z</time>
      </trkpt>
      <trkpt lat="42.398991000" lon="-2.644208000">
        <ele>704.40</ele>
        <time>2015-01-17T08:59:46Z</time>
      </trkpt>
      <trkpt lat="42.398931000" lon="-2.644280000">
        <ele>704.00</ele>
        <time>2015-01-17T08:59:47Z</time>
      </trkpt>
      <trkpt lat="42.398864000" lon="-2.644350000">
        <ele>703.70</ele>
        <time>2015-01-17T08:59:48Z</time>
      </trkpt>
      <trkpt lat="42.398791000" lon="-2.644419000">
        <ele>703.40</ele>
        <time>2015-01-17T08:59:49Z</time>
      </trkpt>
      <trkpt lat="42.398711000" lon="-2.644486000">
        <ele>703.10</ele>
        <time>2015-01-17T08:59:50Z</time>
      </trkpt>
      <trkpt lat="42.398622000" lon="-2.644545000">
        <ele>702.40</ele>
        <time>2015-01-17T08:59:51Z</time>
      </trkpt>
      <trkpt lat="42.398532000" lon="-2.644603000">
        <ele>701.80</ele>
        <time>2015-01-17T08:59:52Z</time>
      </trkpt>
      <trkpt lat="42.398447000" lon="-2.644668000">
        <ele>701.10</ele>
        <time>2015-01-17T08:59:53Z</time>
      </trkpt>
      <trkpt lat="42.398368000" lon="-2.644745000">
        <ele>700.60</ele>
        <time>2015-01-17T08:59:54Z</time>
      </trkpt>
      <trkpt lat="42.398299000" lon="-2.644829000">
        <ele>700.10</ele>
        <time>2015-01-17T08:59:55Z</time>
      </trkpt>
      <trkpt lat="42.398236000" lon="-2.644923000">
        <ele>699.70</ele>
        <time>2015-01-17T08:59:56Z</time>
      </trkpt>
      <trkpt lat="42.398181000" lon="-2.645021000">
        <ele>698.70</ele>
        <time>2015-01-17T08:59:57Z</time>
      </trkpt>
      <trkpt lat="42.398128000" lon="-2.645120000">
        <ele>697.90</ele>
        <time>2015-01-17T08:59:58Z</time>
      </trkpt>
      <trkpt lat="42.398077000" lon="-2.645219000">
        <ele>697.20</ele>
        <time>2015-01-17T08:59:59Z</time>
      </trkpt>
      <trkpt lat="42.398025000" lon="-2.645315000">
        <ele>696.70</ele>
        <time>2015-01-17T09:00:00Z</time>
      </trkpt>
      <trkpt lat="42.397978000" lon="-2.645407000">
        <ele>696.20</ele>
        <time>2015-01-17T09:00:01Z</time>
      </trkpt>
      <trkpt lat="42.397935000" lon="-2.645491000">
        <ele>695.90</ele>
        <time>2015-01-17T09:00:02Z</time>
      </trkpt>
      <trkpt lat="42.397893000" lon="-2.645570000">
        <ele>695.10</ele>
        <time>2015-01-17T09:00:03Z</time>
      </trkpt>
      <trkpt lat="42.397847000" lon="-2.645647000">
        <ele>694.50</ele>
        <time>2015-01-17T09:00:04Z</time>
      </trkpt>
      <trkpt lat="42.397800000" lon="-2.645725000">
        <ele>693.90</ele>
        <time>2015-01-17T09:00:05Z</time>
      </trkpt>
      <trkpt lat="42.397748000" lon="-2.645793000">
        <ele>693.50</ele>
        <time>2015-01-17T09:00:06Z</time>
      </trkpt>
      <trkpt lat="42.397696000" lon="-2.645856000">
        <ele>692.70</ele>
        <time>2015-01-17T09:00:07Z</time>
      </trkpt>
      <trkpt lat="42.397646000" lon="-2.645918000">
        <ele>692.20</ele>
        <time>2015-01-17T09:00:08Z</time>
      </trkpt>
      <trkpt lat="42.397596000" lon="-2.645976000">
        <ele>691.60</ele>
        <time>2015-01-17T09:00:09Z</time>
      </trkpt>
      <trkpt lat="42.397550000" lon="-2.646036000">
        <ele>691.20</ele>
        <time>2015-01-17T09:00:10Z</time>
      </trkpt>
      <trkpt lat="42.397510000" lon="-2.646094000">
        <ele>690.90</ele>
        <time>2015-01-17T09:00:11Z</time>
      </trkpt>
      <trkpt lat="42.397474000" lon="-2.646156000">
        <ele>690.60</ele>
        <time>2015-01-17T09:00:12Z</time>
      </trkpt>
      <trkpt lat="42.397445000" lon="-2.646221000">
        <ele>690.70</ele>
        <time>2015-01-17T09:00:13Z</time>
      </trkpt>
      <trkpt lat="42.397424000" lon="-2.646288000">
        <ele>690.70</ele>
        <time>2015-01-17T09:00:14Z</time>
      </trkpt>
      <trkpt lat="42.397408000" lon="-2.646354000">
        <ele>690.90</ele>
        <time>2015-01-17T09:00:15Z</time>
      </trkpt>
      <trkpt lat="42.397399000" lon="-2.646421000">
        <ele>691.00</ele>
        <time>2015-01-17T09:00:16Z</time>
      </trkpt>
      <trkpt lat="42.397393000" lon="-2.646487000">
        <ele>691.10</ele>
        <time>2015-01-17T09:00:17Z</time>
      </trkpt>
      <trkpt lat="42.397395000" lon="-2.646549000">
        <ele>691.20</ele>
        <time>2015-01-17T09:00:18Z</time>
      </trkpt>
      <trkpt lat="42.397399000" lon="-2.646611000">
        <ele>691.30</ele>
        <time>2015-01-17T09:00:19Z</time>
      </trkpt>
      <trkpt lat="42.397402000" lon="-2.646674000">
        <ele>691.30</ele>
        <time>2015-01-17T09:00:20Z</time>
      </trkpt>
      <trkpt lat="42.397407000" lon="-2.646734000">
        <ele>691.20</ele>
        <time>2015-01-17T09:00:21Z</time>
      </trkpt>
      <trkpt lat="42.397412000" lon="-2.646794000">
        <ele>691.20</ele>
        <time>2015-01-17T09:00:22Z</time>
      </trkpt>
      <trkpt lat="42.397416000" lon="-2.646851000">
        <ele>691.10</ele>
        <time>2015-01-17T09:00:23Z</time>
      </trkpt>
      <trkpt lat="42.397422000" lon="-2.646910000">
        <ele>691.00</ele>
        <time>2015-01-17T09:00:24Z</time>
      </trkpt>
      <trkpt lat="42.397429000" lon="-2.646969000">
        <ele>691.00</ele>
        <time>2015-01-17T09:00:25Z</time>
      </trkpt>
      <trkpt lat="42.397436000" lon="-2.647034000">
        <ele>690.90</ele>
        <time>2015-01-17T09:00:26Z</time>
      </trkpt>
      <trkpt lat="42.397449000" lon="-2.647164000">
        <ele>690.50</ele>
        <time>2015-01-17T09:00:28Z</time>
      </trkpt>
      <trkpt lat="42.397452000" lon="-2.647232000">
        <ele>690.50</ele>
        <time>2015-01-17T09:00:29Z</time>
      </trkpt>
      <trkpt lat="42.397458000" lon="-2.647302000">
        <ele>690.50</ele>
        <time>2015-01-17T09:00:30Z</time>
      </trkpt>
      <trkpt lat="42.397468000" lon="-2.647368000">
        <ele>690.50</ele>
        <time>2015-01-17T09:00:31Z</time>
      </trkpt>
      <trkpt lat="42.397480000" lon="-2.647434000">
        <ele>690.50</ele>
        <time>2015-01-17T09:00:32Z</time>
      </trkpt>
      <trkpt lat="42.397491000" lon="-2.647500000">
        <ele>690.50</ele>
        <time>2015-01-17T09:00:33Z</time>
      </trkpt>
      <trkpt lat="42.397503000" lon="-2.647564000">
        <ele>690.50</ele>
        <time>2015-01-17T09:00:34Z</time>
      </trkpt>
      <trkpt lat="42.397518000" lon="-2.647624000">
        <ele>690.70</ele>
        <time>2015-01-17T09:00:35Z</time>
      </trkpt>
      <trkpt lat="42.397535000" lon="-2.647686000">
        <ele>690.80</ele>
        <time>2015-01-17T09:00:36Z</time>
      </trkpt>
      <trkpt lat="42.397554000" lon="-2.647749000">
        <ele>691.00</ele>
        <time>2015-01-17T09:00:37Z</time>
      </trkpt>
      <trkpt lat="42.397572000" lon="-2.647809000">
        <ele>691.10</ele>
        <time>2015-01-17T09:00:38Z</time>
      </trkpt>
      <trkpt lat="42.397585000" lon="-2.647867000">
        <ele>691.20</ele>
        <time>2015-01-17T09:00:39Z</time>
      </trkpt>
      <trkpt lat="42.397601000" lon="-2.647922000">
        <ele>691.30</ele>
        <time>2015-01-17T09:00:40Z</time>
      </trkpt>
      <trkpt lat="42.397616000" lon="-2.647981000">
        <ele>691.10</ele>
        <time>2015-01-17T09:00:41Z</time>
      </trkpt>
      <trkpt lat="42.397629000" lon="-2.648042000">
        <ele>691.00</ele>
        <time>2015-01-17T09:00:42Z</time>
      </trkpt>
      <trkpt lat="42.397639000" lon="-2.648099000">
        <ele>691.00</ele>
        <time>2015-01-17T09:00:43Z</time>
      </trkpt>
      <trkpt lat="42.397650000" lon="-2.648151000">
        <ele>690.90</ele>
        <time>2015-01-17T09:00:44Z</time>
      </trkpt>
      <trkpt lat="42.397657000" lon="-2.648199000">
        <ele>690.80</ele>
        <time>2015-01-17T09:00:45Z</time>
      </trkpt>
      <trkpt lat="42.397660000" lon="-2.648243000">
        <ele>690.80</ele>
        <time>2015-01-17T09:00:46Z</time>
      </trkpt>
      <trkpt lat="42.397664000" lon="-2.648288000">
        <ele>690.90</ele>
        <time>2015-01-17T09:00:47Z</time>
      </trkpt>
      <trkpt lat="42.397664000" lon="-2.648328000">
        <ele>691.00</ele>
        <time>2015-01-17T09:00:48Z</time>
      </trkpt>
      <trkpt lat="42.397668000" lon="-2.648366000">
        <ele>690.90</ele>
        <time>2015-01-17T09:00:49Z</time>
      </trkpt>
      <trkpt lat="42.397671000" lon="-2.648405000">
        <ele>690.80</ele>
        <time>2015-01-17T09:00:50Z</time>
      </trkpt>
      <trkpt lat="42.397667000" lon="-2.648446000">
        <ele>691.10</ele>
        <time>2015-01-17T09:00:51Z</time>
      </trkpt>
      <trkpt lat="42.397669000" lon="-2.648486000">
        <ele>691.40</ele>
        <time>2015-01-17T09:00:52Z</time>
      </trkpt>
      <trkpt lat="42.397669000" lon="-2.648521000">
        <ele>691.50</ele>
        <time>2015-01-17T09:00:53Z</time>
      </trkpt>
      <trkpt lat="42.397669000" lon="-2.648558000">
        <ele>691.60</ele>
        <time>2015-01-17T09:00:54Z</time>
      </trkpt>
      <trkpt lat="42.397670000" lon="-2.648599000">
        <ele>691.70</ele>
        <time>2015-01-17T09:00:55Z</time>
      </trkpt>
      <trkpt lat="42.397670000" lon="-2.648638000">
        <ele>691.70</ele>
        <time>2015-01-17T09:00:56Z</time>
      </trkpt>
      <trkpt lat="42.397668000" lon="-2.648674000">
        <ele>691.70</ele>
        <time>2015-01-17T09:00:57Z</time>
      </trkpt>
      <trkpt lat="42.397668000" lon="-2.648709000">
        <ele>691.80</ele>
        <time>2015-01-17T09:00:58Z</time>
      </trkpt>
      <trkpt lat="42.397669000" lon="-2.648744000">
        <ele>692.20</ele>
        <time>2015-01-17T09:00:59Z</time>
      </trkpt>
      <trkpt lat="42.397668000" lon="-2.648773000">
        <ele>692.50</ele>
        <time>2015-01-17T09:01:00Z</time>
      </trkpt>
      <trkpt lat="42.397665000" lon="-2.648802000">
        <ele>692.90</ele>
        <time>2015-01-17T09:01:01Z</time>
      </trkpt>
      <trkpt lat="42.397663000" lon="-2.648826000">
        <ele>693.10</ele>
        <time>2015-01-17T09:01:02Z</time>
      </trkpt>
      <trkpt lat="42.397665000" lon="-2.648856000">
        <ele>693.30</ele>
        <time>2015-01-17T09:01:03Z</time>
      </trkpt>
      <trkpt lat="42.397666000" lon="-2.648882000">
        <ele>693.40</ele>
        <time>2015-01-17T09:01:04Z</time>
      </trkpt>
      <trkpt lat="42.397667000" lon="-2.648915000">
        <ele>693.50</ele>
        <time>2015-01-17T09:01:05Z</time>
      </trkpt>
      <trkpt lat="42.397665000" lon="-2.648946000">
        <ele>693.60</ele>
        <time>2015-01-17T09:01:06Z</time>
      </trkpt>
      <trkpt lat="42.397665000" lon="-2.648978000">
        <ele>693.70</ele>
        <time>2015-01-17T09:01:07Z</time>
      </trkpt>
      <trkpt lat="42.397665000" lon="-2.649013000">
        <ele>693.70</ele>
        <time>2015-01-17T09:01:08Z</time>
      </trkpt>
      <trkpt lat="42.397664000" lon="-2.649043000">
        <ele>693.80</ele>
        <time>2015-01-17T09:01:09Z</time>
      </trkpt>
      <trkpt lat="42.397663000" lon="-2.649077000">
        <ele>693.80</ele>
        <time>2015-01-17T09:01:10Z</time>
      </trkpt>
      <trkpt lat="42.397662000" lon="-2.649106000">
        <ele>694.10</ele>
        <time>2015-01-17T09:01:11Z</time>
      </trkpt>
      <trkpt lat="42.397660000" lon="-2.649136000">
        <ele>694.30</ele>
        <time>2015-01-17T09:01:12Z</time>
      </trkpt>
      <trkpt lat="42.397659000" lon="-2.649168000">
        <ele>694.40</ele>
        <time>2015-01-17T09:01:13Z</time>
      </trkpt>
      <trkpt lat="42.397659000" lon="-2.649197000">
        <ele>694.50</ele>
        <time>2015-01-17T09:01:14Z</time>
      </trkpt>
      <trkpt lat="42.397658000" lon="-2.649226000">
        <ele>694.70</ele>
        <time>2015-01-17T09:01:15Z</time>
      </trkpt>
      <trkpt lat="42.397658000" lon="-2.649258000">
        <ele>694.80</ele>
        <time>2015-01-17T09:01:16Z</time>
      </trkpt>
      <trkpt lat="42.397657000" lon="-2.649287000">
        <ele>695.10</ele>
        <time>2015-01-17T09:01:17Z</time>
      </trkpt>
      <trkpt lat="42.397658000" lon="-2.649316000">
        <ele>695.30</ele>
        <time>2015-01-17T09:01:18Z</time>
      </trkpt>
      <trkpt lat="42.397659000" lon="-2.649342000">
        <ele>695.50</ele>
        <time>2015-01-17T09:01:19Z</time>
      </trkpt>
      <trkpt lat="42.397661000" lon="-2.649371000">
        <ele>695.60</ele>
        <time>2015-01-17T09:01:20Z</time>
      </trkpt>
      <trkpt lat="42.397661000" lon="-2.649396000">
        <ele>695.80</ele>
        <time>2015-01-17T09:01:21Z</time>
      </trkpt>
      <trkpt lat="42.397658000" lon="-2.649425000">
        <ele>695.90</ele>
        <time>2015-01-17T09:01:22Z</time>
      </trkpt>
      <trkpt lat="42.397656000" lon="-2.649451000">
        <ele>696.10</ele>
        <time>2015-01-17T09:01:23Z</time>
      </trkpt>
      <trkpt lat="42.397654000" lon="-2.649480000">
        <ele>696.30</ele>
        <time>2015-01-17T09:01:24Z</time>
      </trkpt>
      <trkpt lat="42.397651000" lon="-2.649507000">
        <ele>696.40</ele>
        <time>2015-01-17T09:01:25Z</time>
      </trkpt>
      <trkpt lat="42.397647000" lon="-2.649531000">
        <ele>696.60</ele>
        <time>2015-01-17T09:01:26Z</time>
      </trkpt>
      <trkpt lat="42.397645000" lon="-2.649560000">
        <ele>696.70</ele>
        <time>2015-01-17T09:01:27Z</time>
      </trkpt>
      <trkpt lat="42.397645000" lon="-2.649585000">
        <ele>696.80</ele>
        <time>2015-01-17T09:01:28Z</time>
      </trkpt>
      <trkpt lat="42.397639000" lon="-2.649635000">
        <ele>697.00</ele>
        <time>2015-01-17T09:01:30Z</time>
      </trkpt>
      <trkpt lat="42.397636000" lon="-2.649660000">
        <ele>697.40</ele>
        <time>2015-01-17T09:01:31Z</time>
      </trkpt>
      <trkpt lat="42.397632000" lon="-2.649682000">
        <ele>697.70</ele>
        <time>2015-01-17T09:01:32Z</time>
      </trkpt>
      <trkpt lat="42.397626000" lon="-2.649709000">
        <ele>697.90</ele>
        <time>2015-01-17T09:01:33Z</time>
      </trkpt>
      <trkpt lat="42.397621000" lon="-2.649734000">
        <ele>698.10</ele>
        <time>2015-01-17T09:01:34Z</time>
      </trkpt>
      <trkpt lat="42.397616000" lon="-2.649762000">
        <ele>698.30</ele>
        <time>2015-01-17T09:01:35Z</time>
      </trkpt>
      <trkpt lat="42.397610000" lon="-2.649786000">
        <ele>698.40</ele>
        <time>2015-01-17T09:01:36Z</time>
      </trkpt>
      <trkpt lat="42.397599000" lon="-2.649815000">
        <ele>698.60</ele>
        <time>2015-01-17T09:01:37Z</time>
      </trkpt>
      <trkpt lat="42.397591000" lon="-2.649841000">
        <ele>698.70</ele>
        <time>2015-01-17T09:01:38Z</time>
      </trkpt>
      <trkpt lat="42.397588000" lon="-2.649870000">
        <ele>698.80</ele>
        <time>2015-01-17T09:01:39Z</time>
      </trkpt>
      <trkpt lat="42.397584000" lon="-2.649896000">
        <ele>698.90</ele>
        <time>2015-01-17T09:01:40Z</time>
      </trkpt>
      <trkpt lat="42.397580000" lon="-2.649924000">
        <ele>699.00</ele>
        <time>2015-01-17T09:01:41Z</time>
      </trkpt>
      <trkpt lat="42.397573000" lon="-2.649957000">
        <ele>699.10</ele>
        <time>2015-01-17T09:01:42Z</time>
      </trkpt>
      <trkpt lat="42.397563000" lon="-2.649986000">
        <ele>699.10</ele>
        <time>2015-01-17T09:01:43Z</time>
      </trkpt>
      <trkpt lat="42.397551000" lon="-2.650014000">
        <ele>699.20</ele>
        <time>2015-01-17T09:01:44Z</time>
      </trkpt>
      <trkpt lat="42.397538000" lon="-2.650040000">
        <ele>699.20</ele>
        <time>2015-01-17T09:01:45Z</time>
      </trkpt>
      <trkpt lat="42.397527000" lon="-2.650067000">
        <ele>699.30</ele>
        <time>2015-01-17T09:01:46Z</time>
      </trkpt>
      <trkpt lat="42.397516000" lon="-2.650098000">
        <ele>699.40</ele>
        <time>2015-01-17T09:01:47Z</time>
      </trkpt>
      <trkpt lat="42.397503000" lon="-2.650125000">
        <ele>699.50</ele>
        <time>2015-01-17T09:01:48Z</time>
      </trkpt>
      <trkpt lat="42.397490000" lon="-2.650154000">
        <ele>699.60</ele>
        <time>2015-01-17T09:01:49Z</time>
      </trkpt>
      <trkpt lat="42.397473000" lon="-2.650183000">
        <ele>699.70</ele>
        <time>2015-01-17T09:01:50Z</time>
      </trkpt>
      <trkpt lat="42.397461000" lon="-2.650213000">
        <ele>699.70</ele>
        <time>2015-01-17T09:01:51Z</time>
      </trkpt>
      <trkpt lat="42.397445000" lon="-2.650240000">
        <ele>699.80</ele>
        <time>2015-01-17T09:01:52Z</time>
      </trkpt>
      <trkpt lat="42.397426000" lon="-2.650268000">
        <ele>699.80</ele>
        <time>2015-01-17T09:01:53Z</time>
      </trkpt>
      <trkpt lat="42.397406000" lon="-2.650297000">
        <ele>699.80</ele>
        <time>2015-01-17T09:01:54Z</time>
      </trkpt>
      <trkpt lat="42.397386000" lon="-2.650327000">
        <ele>699.80</ele>
        <time>2015-01-17T09:01:55Z</time>
      </trkpt>
      <trkpt lat="42.397367000" lon="-2.650356000">
        <ele>699.70</ele>
        <time>2015-01-17T09:01:56Z</time>
      </trkpt>
      <trkpt lat="42.397347000" lon="-2.650380000">
        <ele>699.60</ele>
        <time>2015-01-17T09:01:57Z</time>
      </trkpt>
      <trkpt lat="42.397325000" lon="-2.650406000">
        <ele>699.50</ele>
        <time>2015-01-17T09:01:58Z</time>
      </trkpt>
      <trkpt lat="42.397304000" lon="-2.650430000">
        <ele>699.40</ele>
        <time>2015-01-17T09:01:59Z</time>
      </trkpt>
      <trkpt lat="42.397287000" lon="-2.650461000">
        <ele>699.30</ele>
        <time>2015-01-17T09:02:00Z</time>
      </trkpt>
      <trkpt lat="42.397266000" lon="-2.650486000">
        <ele>699.40</ele>
        <time>2015-01-17T09:02:01Z</time>
      </trkpt>
      <trkpt lat="42.397242000" lon="-2.650511000">
        <ele>699.40</ele>
        <time>2015-01-17T09:02:02Z</time>
      </trkpt>
      <trkpt lat="42.397219000" lon="-2.650536000">
        <ele>699.60</ele>
        <time>2015-01-17T09:02:03Z</time>
      </trkpt>
      <trkpt lat="42.397196000" lon="-2.650562000">
        <ele>699.80</ele>
        <time>2015-01-17T09:02:04Z</time>
      </trkpt>
      <trkpt lat="42.397172000" lon="-2.650587000">
        <ele>699.70</ele>
        <time>2015-01-17T09:02:05Z</time>
      </trkpt>
      <trkpt lat="42.397148000" lon="-2.650611000">
        <ele>699.70</ele>
        <time>2015-01-17T09:02:06Z</time>
      </trkpt>
      <trkpt lat="42.397124000" lon="-2.650636000">
        <ele>699.50</ele>
        <time>2015-01-17T09:02:07Z</time>
      </trkpt>
      <trkpt lat="42.397099000" lon="-2.650660000">
        <ele>699.40</ele>
        <time>2015-01-17T09:02:08Z</time>
      </trkpt>
      <trkpt lat="42.397076000" lon="-2.650681000">
        <ele>699.30</ele>
        <time>2015-01-17T09:02:09Z</time>
      </trkpt>
      <trkpt lat="42.397050000" lon="-2.650703000">
        <ele>699.20</ele>
        <time>2015-01-17T09:02:10Z</time>
      </trkpt>
      <trkpt lat="42.397024000" lon="-2.650723000">
        <ele>699.40</ele>
        <time>2015-01-17T09:02:11Z</time>
      </trkpt>
      <trkpt lat="42.396998000" lon="-2.650746000">
        <ele>699.50</ele>
        <time>2015-01-17T09:02:12Z</time>
      </trkpt>
      <trkpt lat="42.396973000" lon="-2.650765000">
        <ele>699.60</ele>
        <time>2015-01-17T09:02:13Z</time>
      </trkpt>
      <trkpt lat="42.396947000" lon="-2.650788000">
        <ele>699.60</ele>
        <time>2015-01-17T09:02:14Z</time>
      </trkpt>
      <trkpt lat="42.396920000" lon="-2.650809000">
        <ele>699.60</ele>
        <time>2015-01-17T09:02:15Z</time>
      </trkpt>
      <trkpt lat="42.396893000" lon="-2.650830000">
        <ele>699.70</ele>
        <time>2015-01-17T09:02:16Z</time>
      </trkpt>
      <trkpt lat="42.396867000" lon="-2.650848000">
        <ele>699.50</ele>
        <time>2015-01-17T09:02:17Z</time>
      </trkpt>
      <trkpt lat="42.396840000" lon="-2.650866000">
        <ele>699.40</ele>
        <time>2015-01-17T09:02:18Z</time>
      </trkpt>
      <trkpt lat="42.396815000" lon="-2.650878000">
        <ele>699.30</ele>
        <time>2015-01-17T09:02:19Z</time>
      </trkpt>
      <trkpt lat="42.396785000" lon="-2.650892000">
        <ele>699.20</ele>
        <time>2015-01-17T09:02:20Z</time>
      </trkpt>
      <trkpt lat="42.396756000" lon="-2.650904000">
        <ele>699.10</ele>
        <time>2015-01-17T09:02:21Z</time>
      </trkpt>
      <trkpt lat="42.396726000" lon="-2.650916000">
        <ele>699.10</ele>
        <time>2015-01-17T09:02:22Z</time>
      </trkpt>
      <trkpt lat="42.396697000" lon="-2.650928000">
        <ele>699.20</ele>
        <time>2015-01-17T09:02:23Z</time>
      </trkpt>
      <trkpt lat="42.396668000" lon="-2.650941000">
        <ele>699.30</ele>
        <time>2015-01-17T09:02:24Z</time>
      </trkpt>
      <trkpt lat="42.396641000" lon="-2.650954000">
        <ele>699.40</ele>
        <time>2015-01-17T09:02:25Z</time>
      </trkpt>
      <trkpt lat="42.396615000" lon="-2.650963000">
        <ele>699.60</ele>
        <time>2015-01-17T09:02:26Z</time>
      </trkpt>
      <trkpt lat="42.396589000" lon="-2.650970000">
        <ele>699.60</ele>
        <time>2015-01-17T09:02:27Z</time>
      </trkpt>
      <trkpt lat="42.396564000" lon="-2.650977000">
        <ele>699.60</ele>
        <time>2015-01-17T09:02:28Z</time>
      </trkpt>
      <trkpt lat="42.396536000" lon="-2.650982000">
        <ele>699.70</ele>
        <time>2015-01-17T09:02:29Z</time>
      </trkpt>
      <trkpt lat="42.396509000" lon="-2.650990000">
        <ele>699.80</ele>
        <time>2015-01-17T09:02:30Z</time>
      </trkpt>
      <trkpt lat="42.396484000" lon="-2.650996000">
        <ele>699.80</ele>
        <time>2015-01-17T09:02:31Z</time>
      </trkpt>
      <trkpt lat="42.396429000" lon="-2.651006000">
        <ele>699.90</ele>
        <time>2015-01-17T09:02:33Z</time>
      </trkpt>
      <trkpt lat="42.396402000" lon="-2.651010000">
        <ele>699.90</ele>
        <time>2015-01-17T09:02:34Z</time>
      </trkpt>
      <trkpt lat="42.396376000" lon="-2.651014000">
        <ele>700.00</ele>
        <time>2015-01-17T09:02:35Z</time>
      </trkpt>
      <trkpt lat="42.396347000" lon="-2.651018000">
        <ele>700.00</ele>
        <time>2015-01-17T09:02:36Z</time>
      </trkpt>
      <trkpt lat="42.396319000" lon="-2.651023000">
        <ele>700.10</ele>
        <time>2015-01-17T09:02:37Z</time>
      </trkpt>
      <trkpt lat="42.396291000" lon="-2.651022000">
        <ele>700.10</ele>
        <time>2015-01-17T09:02:38Z</time>
      </trkpt>
      <trkpt lat="42.396263000" lon="-2.651023000">
        <ele>700.10</ele>
        <time>2015-01-17T09:02:39Z</time>
      </trkpt>
      <trkpt lat="42.396234000" lon="-2.651027000">
        <ele>700.10</ele>
        <time>2015-01-17T09:02:40Z</time>
      </trkpt>
      <trkpt lat="42.396203000" lon="-2.651029000">
        <ele>700.10</ele>
        <time>2015-01-17T09:02:41Z</time>
      </trkpt>
      <trkpt lat="42.396174000" lon="-2.651031000">
        <ele>700.10</ele>
        <time>2015-01-17T09:02:42Z</time>
      </trkpt>
      <trkpt lat="42.396144000" lon="-2.651029000">
        <ele>700.30</ele>
        <time>2015-01-17T09:02:43Z</time>
      </trkpt>
      <trkpt lat="42.396114000" lon="-2.651030000">
        <ele>700.40</ele>
        <time>2015-01-17T09:02:44Z</time>
      </trkpt>
      <trkpt lat="42.396084000" lon="-2.651031000">
        <ele>700.50</ele>
        <time>2015-01-17T09:02:45Z</time>
      </trkpt>
      <trkpt lat="42.396057000" lon="-2.651031000">
        <ele>700.50</ele>
        <time>2015-01-17T09:02:46Z</time>
      </trkpt>
      <trkpt lat="42.396027000" lon="-2.651031000">
        <ele>700.60</ele>
        <time>2015-01-17T09:02:47Z</time>
      </trkpt>
      <trkpt lat="42.395998000" lon="-2.651035000">
        <ele>700.60</ele>
        <time>2015-01-17T09:02:48Z</time>
      </trkpt>
      <trkpt lat="42.395968000" lon="-2.651030000">
        <ele>700.60</ele>
        <time>2015-01-17T09:02:49Z</time>
      </trkpt>
      <trkpt lat="42.395939000" lon="-2.651027000">
        <ele>700.60</ele>
        <time>2015-01-17T09:02:50Z</time>
      </trkpt>
      <trkpt lat="42.395909000" lon="-2.651024000">
        <ele>700.70</ele>
        <time>2015-01-17T09:02:51Z</time>
      </trkpt>
      <trkpt lat="42.395882000" lon="-2.651014000">
        <ele>700.80</ele>
        <time>2015-01-17T09:02:52Z</time>
      </trkpt>
      <trkpt lat="42.395853000" lon="-2.651008000">
        <ele>700.90</ele>
        <time>2015-01-17T09:02:53Z</time>
      </trkpt>
      <trkpt lat="42.395825000" lon="-2.651005000">
        <ele>701.10</ele>
        <time>2015-01-17T09:02:54Z</time>
      </trkpt>
      <trkpt lat="42.395796000" lon="-2.651000000">
        <ele>701.20</ele>
        <time>2015-01-17T09:02:55Z</time>
      </trkpt>
      <trkpt lat="42.395769000" lon="-2.650996000">
        <ele>701.40</ele>
        <time>2015-01-17T09:02:56Z</time>
      </trkpt>
      <trkpt lat="42.395737000" lon="-2.650991000">
        <ele>701.40</ele>
        <time>2015-01-17T09:02:57Z</time>
      </trkpt>
      <trkpt lat="42.395709000" lon="-2.650986000">
        <ele>701.40</ele>
        <time>2015-01-17T09:02:58Z</time>
      </trkpt>
      <trkpt lat="42.395683000" lon="-2.650981000">
        <ele>701.50</ele>
        <time>2015-01-17T09:02:59Z</time>
      </trkpt>
      <trkpt lat="42.395656000" lon="-2.650976000">
        <ele>701.60</ele>
        <time>2015-01-17T09:03:00Z</time>
      </trkpt>
      <trkpt lat="42.395625000" lon="-2.650969000">
        <ele>701.60</ele>
        <time>2015-01-17T09:03:01Z</time>
      </trkpt>
      <trkpt lat="42.395599000" lon="-2.650962000">
        <ele>701.60</ele>
        <time>2015-01-17T09:03:02Z</time>
      </trkpt>
      <trkpt lat="42.395573000" lon="-2.650956000">
        <ele>701.80</ele>
        <time>2015-01-17T09:03:03Z</time>
      </trkpt>
      <trkpt lat="42.395545000" lon="-2.650950000">
        <ele>701.90</ele>
        <time>2015-01-17T09:03:04Z</time>
      </trkpt>
      <trkpt lat="42.395519000" lon="-2.650945000">
        <ele>702.00</ele>
        <time>2015-01-17T09:03:05Z</time>
      </trkpt>
      <trkpt lat="42.395492000" lon="-2.650936000">
        <ele>702.10</ele>
        <time>2015-01-17T09:03:06Z</time>
      </trkpt>
      <trkpt lat="42.395466000" lon="-2.650932000">
        <ele>702.20</ele>
        <time>2015-01-17T09:03:07Z</time>
      </trkpt>
      <trkpt lat="42.395439000" lon="-2.650926000">
        <ele>702.30</ele>
        <time>2015-01-17T09:03:08Z</time>
      </trkpt>
      <trkpt lat="42.395410000" lon="-2.650917000">
        <ele>702.40</ele>
        <time>2015-01-17T09:03:09Z</time>
      </trkpt>
      <trkpt lat="42.395382000" lon="-2.650908000">
        <ele>702.50</ele>
        <time>2015-01-17T09:03:10Z</time>
      </trkpt>
      <trkpt lat="42.395355000" lon="-2.650904000">
        <ele>702.50</ele>
        <time>2015-01-17T09:03:11Z</time>
      </trkpt>
      <trkpt lat="42.395328000" lon="-2.650895000">
        <ele>702.50</ele>
        <time>2015-01-17T09:03:12Z</time>
      </trkpt>
      <trkpt lat="42.395299000" lon="-2.650886000">
        <ele>702.70</ele>
        <time>2015-01-17T09:03:13Z</time>
      </trkpt>
      <trkpt lat="42.395271000" lon="-2.650877000">
        <ele>702.80</ele>
        <time>2015-01-17T09:03:14Z</time>
      </trkpt>
      <trkpt lat="42.395244000" lon="-2.650864000">
        <ele>702.90</ele>
        <time>2015-01-17T09:03:15Z</time>
      </trkpt>
      <trkpt lat="42.395214000" lon="-2.650857000">
        <ele>703.00</ele>
        <time>2015-01-17T09:03:16Z</time>
      </trkpt>
      <trkpt lat="42.395186000" lon="-2.650851000">
        <ele>703.20</ele>
        <time>2015-01-17T09:03:17Z</time>
      </trkpt>
      <trkpt lat="42.395158000" lon="-2.650842000">
        <ele>703.40</ele>
        <time>2015-01-17T09:03:18Z</time>
      </trkpt>
      <trkpt lat="42.395130000" lon="-2.650835000">
        <ele>703.50</ele>
        <time>2015-01-17T09:03:19Z</time>
      </trkpt>
      <trkpt lat="42.395101000" lon="-2.650827000">
        <ele>703.60</ele>
        <time>2015-01-17T09:03:20Z</time>
      </trkpt>
      <trkpt lat="42.395073000" lon="-2.650819000">
        <ele>703.70</ele>
        <time>2015-01-17T09:03:21Z</time>
      </trkpt>
      <trkpt lat="42.395046000" lon="-2.650812000">
        <ele>703.80</ele>
        <time>2015-01-17T09:03:22Z</time>
      </trkpt>
      <trkpt lat="42.395017000" lon="-2.650807000">
        <ele>703.80</ele>
        <time>2015-01-17T09:03:23Z</time>
      </trkpt>
      <trkpt lat="42.394987000" lon="-2.650800000">
        <ele>703.80</ele>
        <time>2015-01-17T09:03:24Z</time>
      </trkpt>
      <trkpt lat="42.394959000" lon="-2.650793000">
        <ele>703.90</ele>
        <time>2015-01-17T09:03:25Z</time>
      </trkpt>
      <trkpt lat="42.394932000" lon="-2.650787000">
        <ele>703.90</ele>
        <time>2015-01-17T09:03:26Z</time>
      </trkpt>
      <trkpt lat="42.394903000" lon="-2.650782000">
        <ele>704.00</ele>
        <time>2015-01-17T09:03:27Z</time>
      </trkpt>
      <trkpt lat="42.394875000" lon="-2.650776000">
        <ele>704.10</ele>
        <time>2015-01-17T09:03:28Z</time>
      </trkpt>
      <trkpt lat="42.394847000" lon="-2.650769000">
        <ele>704.20</ele>
        <time>2015-01-17T09:03:29Z</time>
      </trkpt>
      <trkpt lat="42.394820000" lon="-2.650762000">
        <ele>704.30</ele>
        <time>2015-01-17T09:03:30Z</time>
      </trkpt>
      <trkpt lat="42.394794000" lon="-2.650755000">
        <ele>704.30</ele>
        <time>2015-01-17T09:03:31Z</time>
      </trkpt>
      <trkpt lat="42.394769000" lon="-2.650746000">
        <ele>704.30</ele>
        <time>2015-01-17T09:03:32Z</time>
      </trkpt>
      <trkpt lat="42.394719000" lon="-2.650736000">
        <ele>704.40</ele>
        <time>2015-01-17T09:03:34Z</time>
      </trkpt>
      <trkpt lat="42.394696000" lon="-2.650729000">
        <ele>704.50</ele>
        <time>2015-01-17T09:03:35Z</time>
      </trkpt>
      <trkpt lat="42.394674000" lon="-2.650718000">
        <ele>704.50</ele>
        <time>2015-01-17T09:03:36Z</time>
      </trkpt>
      <trkpt lat="42.394649000" lon="-2.650712000">
        <ele>704.60</ele>
        <time>2015-01-17T09:03:37Z</time>
      </trkpt>
      <trkpt lat="42.394622000" lon="-2.650704000">
        <ele>704.70</ele>
        <time>2015-01-17T09:03:38Z</time>
      </trkpt>
      <trkpt lat="42.394594000" lon="-2.650701000">
        <ele>704.90</ele>
        <time>2015-01-17T09:03:39Z</time>
      </trkpt>
      <trkpt lat="42.394568000" lon="-2.650698000">
        <ele>705.10</ele>
        <time>2015-01-17T09:03:40Z</time>
      </trkpt>
      <trkpt lat="42.394541000" lon="-2.650691000">
        <ele>705.20</ele>
        <time>2015-01-17T09:03:41Z</time>
      </trkpt>
      <trkpt lat="42.394514000" lon="-2.650686000">
        <ele>705.30</ele>
        <time>2015-01-17T09:03:42Z</time>
      </trkpt>
      <trkpt lat="42.394487000" lon="-2.650683000">
        <ele>705.40</ele>
        <time>2015-01-17T09:03:43Z</time>
      </trkpt>
      <trkpt lat="42.394458000" lon="-2.650679000">
        <ele>705.50</ele>
        <time>2015-01-17T09:03:44Z</time>
      </trkpt>
      <trkpt lat="42.394430000" lon="-2.650669000">
        <ele>705.70</ele>
        <time>2015-01-17T09:03:45Z</time>
      </trkpt>
      <trkpt lat="42.394403000" lon="-2.650660000">
        <ele>705.80</ele>
        <time>2015-01-17T09:03:46Z</time>
      </trkpt>
      <trkpt lat="42.394378000" lon="-2.650651000">
        <ele>705.90</ele>
        <time>2015-01-17T09:03:47Z</time>
      </trkpt>
      <trkpt lat="42.394350000" lon="-2.650643000">
        <ele>706.00</ele>
        <time>2015-01-17T09:03:48Z</time>
      </trkpt>
      <trkpt lat="42.394323000" lon="-2.650636000">
        <ele>706.00</ele>
        <time>2015-01-17T09:03:49Z</time>
      </trkpt>
      <trkpt lat="42.394296000" lon="-2.650628000">
        <ele>706.00</ele>
        <time>2015-01-17T09:03:50Z</time>
      </trkpt>
      <trkpt lat="42.394266000" lon="-2.650620000">
        <ele>706.00</ele>
        <time>2015-01-17T09:03:51Z</time>
      </trkpt>
      <trkpt lat="42.394239000" lon="-2.650616000">
        <ele>706.00</ele>
        <time>2015-01-17T09:03:52Z</time>
      </trkpt>
      <trkpt lat="42.394210000" lon="-2.650610000">
        <ele>706.20</ele>
        <time>2015-01-17T09:03:53Z</time>
      </trkpt>
      <trkpt lat="42.394184000" lon="-2.650605000">
        <ele>706.30</ele>
        <time>2015-01-17T09:03:54Z</time>
      </trkpt>
      <trkpt lat="42.394157000" lon="-2.650604000">
        <ele>706.40</ele>
        <time>2015-01-17T09:03:55Z</time>
      </trkpt>
      <trkpt lat="42.394129000" lon="-2.650601000">
        <ele>706.50</ele>
        <time>2015-01-17T09:03:56Z</time>
      </trkpt>
      <trkpt lat="42.394100000" lon="-2.650598000">
        <ele>706.70</ele>
        <time>2015-01-17T09:03:57Z</time>
      </trkpt>
      <trkpt lat="42.394072000" lon="-2.650597000">
        <ele>706.80</ele>
        <time>2015-01-17T09:03:58Z</time>
      </trkpt>
      <trkpt lat="42.394043000" lon="-2.650599000">
        <ele>707.00</ele>
        <time>2015-01-17T09:03:59Z</time>
      </trkpt>
      <trkpt lat="42.394012000" lon="-2.650602000">
        <ele>707.20</ele>
        <time>2015-01-17T09:04:00Z</time>
      </trkpt>
      <trkpt lat="42.393984000" lon="-2.650605000">
        <ele>707.50</ele>
        <time>2015-01-17T09:04:01Z</time>
      </trkpt>
      <trkpt lat="42.393956000" lon="-2.650609000">
        <ele>707.60</ele>
        <time>2015-01-17T09:04:02Z</time>
      </trkpt>
      <trkpt lat="42.393927000" lon="-2.650615000">
        <ele>707.70</ele>
        <time>2015-01-17T09:04:03Z</time>
      </trkpt>
      <trkpt lat="42.393899000" lon="-2.650624000">
        <ele>707.70</ele>
        <time>2015-01-17T09:04:04Z</time>
      </trkpt>
      <trkpt lat="42.393872000" lon="-2.650636000">
        <ele>707.70</ele>
        <time>2015-01-17T09:04:05Z</time>
      </trkpt>
      <trkpt lat="42.393844000" lon="-2.650647000">
        <ele>707.70</ele>
        <time>2015-01-17T09:04:06Z</time>
      </trkpt>
      <trkpt lat="42.393814000" lon="-2.650655000">
        <ele>707.70</ele>
        <time>2015-01-17T09:04:07Z</time>
      </trkpt>
      <trkpt lat="42.393787000" lon="-2.650666000">
        <ele>707.70</ele>
        <time>2015-01-17T09:04:08Z</time>
      </trkpt>
      <trkpt lat="42.393762000" lon="-2.650677000">
        <ele>707.90</ele>
        <time>2015-01-17T09:04:09Z</time>
      </trkpt>
      <trkpt lat="42.393737000" lon="-2.650692000">
        <ele>708.10</ele>
        <time>2015-01-17T09:04:10Z</time>
      </trkpt>
      <trkpt lat="42.393712000" lon="-2.650710000">
        <ele>708.30</ele>
        <time>2015-01-17T09:04:11Z</time>
      </trkpt>
      <trkpt lat="42.393687000" lon="-2.650726000">
        <ele>708.40</ele>
        <time>2015-01-17T09:04:12Z</time>
      </trkpt>
      <trkpt lat="42.393661000" lon="-2.650737000">
        <ele>708.60</ele>
        <time>2015-01-17T09:04:13Z</time>
      </trkpt>
      <trkpt lat="42.393636000" lon="-2.650754000">
        <ele>708.70</ele>
        <time>2015-01-17T09:04:14Z</time>
      </trkpt>
      <trkpt lat="42.393612000" lon="-2.650773000">
        <ele>708.90</ele>
        <time>2015-01-17T09:04:15Z</time>
      </trkpt>
      <trkpt lat="42.393584000" lon="-2.650792000">
        <ele>709.10</ele>
        <time>2015-01-17T09:04:16Z</time>
      </trkpt>
      <trkpt lat="42.393557000" lon="-2.650807000">
        <ele>709.30</ele>
        <time>2015-01-17T09:04:17Z</time>
      </trkpt>
      <trkpt lat="42.393530000" lon="-2.650823000">
        <ele>709.40</ele>
        <time>2015-01-17T09:04:18Z</time>
      </trkpt>
      <trkpt lat="42.393503000" lon="-2.650839000">
        <ele>709.50</ele>
        <time>2015-01-17T09:04:19Z</time>
      </trkpt>
      <trkpt lat="42.393478000" lon="-2.650854000">
        <ele>709.50</ele>
        <time>2015-01-17T09:04:20Z</time>
      </trkpt>
      <trkpt lat="42.393453000" lon="-2.650870000">
        <ele>709.40</ele>
        <time>2015-01-17T09:04:21Z</time>
      </trkpt>
      <trkpt lat="42.393430000" lon="-2.650887000">
        <ele>709.30</ele>
        <time>2015-01-17T09:04:22Z</time>
      </trkpt>
      <trkpt lat="42.393404000" lon="-2.650904000">
        <ele>709.50</ele>
        <time>2015-01-17T09:04:23Z</time>
      </trkpt>
      <trkpt lat="42.393381000" lon="-2.650921000">
        <ele>709.60</ele>
        <time>2015-01-17T09:04:24Z</time>
      </trkpt>
      <trkpt lat="42.393357000" lon="-2.650939000">
        <ele>709.50</ele>
        <time>2015-01-17T09:04:25Z</time>
      </trkpt>
      <trkpt lat="42.393332000" lon="-2.650957000">
        <ele>709.40</ele>
        <time>2015-01-17T09:04:26Z</time>
      </trkpt>
      <trkpt lat="42.393308000" lon="-2.650973000">
        <ele>709.50</ele>
        <time>2015-01-17T09:04:27Z</time>
      </trkpt>
      <trkpt lat="42.393283000" lon="-2.650989000">
        <ele>709.60</ele>
        <time>2015-01-17T09:04:28Z</time>
      </trkpt>
      <trkpt lat="42.393257000" lon="-2.651007000">
        <ele>709.70</ele>
        <time>2015-01-17T09:04:29Z</time>
      </trkpt>
      <trkpt lat="42.393230000" lon="-2.651024000">
        <ele>709.70</ele>
        <time>2015-01-17T09:04:30Z</time>
      </trkpt>
      <trkpt lat="42.393204000" lon="-2.651043000">
        <ele>710.10</ele>
        <time>2015-01-17T09:04:31Z</time>
      </trkpt>
      <trkpt lat="42.393178000" lon="-2.651059000">
        <ele>710.40</ele>
        <time>2015-01-17T09:04:32Z</time>
      </trkpt>
      <trkpt lat="42.393150000" lon="-2.651078000">
        <ele>710.60</ele>
        <time>2015-01-17T09:04:33Z</time>
      </trkpt>
      <trkpt lat="42.393097000" lon="-2.651114000">
        <ele>710.80</ele>
        <time>2015-01-17T09:04:35Z</time>
      </trkpt>
      <trkpt lat="42.393072000" lon="-2.651133000">
        <ele>710.90</ele>
        <time>2015-01-17T09:04:36Z</time>
      </trkpt>
      <trkpt lat="42.393046000" lon="-2.651149000">
        <ele>710.80</ele>
        <time>2015-01-17T09:04:37Z</time>
      </trkpt>
      <trkpt lat="42.393019000" lon="-2.651169000">
        <ele>710.80</ele>
        <time>2015-01-17T09:04:38Z</time>
      </trkpt>
      <trkpt lat="42.392994000" lon="-2.651192000">
        <ele>710.90</ele>
        <time>2015-01-17T09:04:39Z</time>
      </trkpt>
      <trkpt lat="42.392965000" lon="-2.651210000">
        <ele>710.90</ele>
        <time>2015-01-17T09:04:40Z</time>
      </trkpt>
      <trkpt lat="42.392939000" lon="-2.651230000">
        <ele>710.90</ele>
        <time>2015-01-17T09:04:41Z</time>
      </trkpt>
      <trkpt lat="42.392912000" lon="-2.651251000">
        <ele>710.90</ele>
        <time>2015-01-17T09:04:42Z</time>
      </trkpt>
      <trkpt lat="42.392886000" lon="-2.651272000">
        <ele>710.90</ele>
        <time>2015-01-17T09:04:43Z</time>
      </trkpt>
      <trkpt lat="42.392860000" lon="-2.651296000">
        <ele>711.00</ele>
        <time>2015-01-17T09:04:44Z</time>
      </trkpt>
      <trkpt lat="42.392832000" lon="-2.651317000">
        <ele>711.00</ele>
        <time>2015-01-17T09:04:45Z</time>
      </trkpt>
      <trkpt lat="42.392805000" lon="-2.651343000">
        <ele>711.00</ele>
        <time>2015-01-17T09:04:46Z</time>
      </trkpt>
      <trkpt lat="42.392779000" lon="-2.651372000">
        <ele>711.10</ele>
        <time>2015-01-17T09:04:47Z</time>
      </trkpt>
      <trkpt lat="42.392754000" lon="-2.651410000">
        <ele>711.10</ele>
        <time>2015-01-17T09:04:48Z</time>
      </trkpt>
      <trkpt lat="42.392728000" lon="-2.651454000">
        <ele>711.10</ele>
        <time>2015-01-17T09:04:49Z</time>
      </trkpt>
      <trkpt lat="42.392698000" lon="-2.651506000">
        <ele>711.10</ele>
        <time>2015-01-17T09:04:50Z</time>
      </trkpt>
      <trkpt lat="42.392667000" lon="-2.651561000">
        <ele>711.10</ele>
        <time>2015-01-17T09:04:51Z</time>
      </trkpt>
      <trkpt lat="42.392632000" lon="-2.651624000">
        <ele>711.00</ele>
        <time>2015-01-17T09:04:52Z</time>
      </trkpt>
      <trkpt lat="42.392595000" lon="-2.651697000">
        <ele>710.80</ele>
        <time>2015-01-17T09:04:53Z</time>
      </trkpt>
      <trkpt lat="42.392554000" lon="-2.651778000">
        <ele>710.60</ele>
        <time>2015-01-17T09:04:54Z</time>
      </trkpt>
      <trkpt lat="42.392508000" lon="-2.651865000">
        <ele>710.40</ele>
        <time>2015-01-17T09:04:55Z</time>
      </trkpt>
      <trkpt lat="42.392462000" lon="-2.651963000">
        <ele>710.20</ele>
        <time>2015-01-17T09:04:56Z</time>
      </trkpt>
      <trkpt lat="42.392412000" lon="-2.652065000">
        <ele>709.40</ele>
        <time>2015-01-17T09:04:57Z</time>
      </trkpt>
      <trkpt lat="42.392357000" lon="-2.652167000">
        <ele>708.90</ele>
        <time>2015-01-17T09:04:58Z</time>
      </trkpt>
      <trkpt lat="42.392297000" lon="-2.652273000">
        <ele>707.90</ele>
        <time>2015-01-17T09:04:59Z</time>
      </trkpt>
      <trkpt lat="42.392234000" lon="-2.652384000">
        <ele>707.10</ele>
        <time>2015-01-17T09:05:00Z</time>
      </trkpt>
      <trkpt lat="42.392169000" lon="-2.652488000">
        <ele>706.50</ele>
        <time>2015-01-17T09:05:01Z</time>
      </trkpt>
      <trkpt lat="42.392101000" lon="-2.652562000">
        <ele>706.10</ele>
        <time>2015-01-17T09:05:02Z</time>
      </trkpt>
      <trkpt lat="42.392041000" lon="-2.652616000">
        <ele>705.00</ele>
        <time>2015-01-17T09:05:03Z</time>
      </trkpt>
      <trkpt lat="42.391995000" lon="-2.652655000">
        <ele>704.20</ele>
        <time>2015-01-17T09:05:04Z</time>
      </trkpt>
      <trkpt lat="42.391965000" lon="-2.652679000">
        <ele>703.20</ele>
        <time>2015-01-17T09:05:05Z</time>
      </trkpt>
      <trkpt lat="42.391944000" lon="-2.652702000">
        <ele>702.40</ele>
        <time>2015-01-17T09:05:06Z</time>
      </trkpt>
      <trkpt lat="42.391922000" lon="-2.652727000">
        <ele>701.40</ele>
        <time>2015-01-17T09:05:07Z</time>
      </trkpt>
      <trkpt lat="42.391900000" lon="-2.652766000">
        <ele>700.70</ele>
        <time>2015-01-17T09:05:08Z</time>
      </trkpt>
      <trkpt lat="42.391885000" lon="-2.652821000">
        <ele>699.70</ele>
        <time>2015-01-17T09:05:09Z</time>
      </trkpt>
      <trkpt lat="42.391883000" lon="-2.652879000">
        <ele>698.90</ele>
        <time>2015-01-17T09:05:10Z</time>
      </trkpt>
      <trkpt lat="42.391897000" lon="-2.652933000">
        <ele>698.10</ele>
        <time>2015-01-17T09:05:11Z</time>
      </trkpt>
      <trkpt lat="42.391925000" lon="-2.652979000">
        <ele>697.50</ele>
        <time>2015-01-17T09:05:12Z</time>
      </trkpt>
      <trkpt lat="42.391954000" lon="-2.653017000">
        <ele>697.00</ele>
        <time>2015-01-17T09:05:13Z</time>
      </trkpt>
      <trkpt lat="42.391985000" lon="-2.653055000">
        <ele>696.50</ele>
        <time>2015-01-17T09:05:14Z</time>
      </trkpt>
      <trkpt lat="42.392019000" lon="-2.653093000">
        <ele>695.70</ele>
        <time>2015-01-17T09:05:15Z</time>
      </trkpt>
      <trkpt lat="42.392054000" lon="-2.653127000">
        <ele>695.10</ele>
        <time>2015-01-17T09:05:16Z</time>
      </trkpt>
      <trkpt lat="42.392086000" lon="-2.653160000">
        <ele>694.50</ele>
        <time>2015-01-17T09:05:17Z</time>
      </trkpt>
      <trkpt lat="42.392113000" lon="-2.653187000">
        <ele>694.10</ele>
        <time>2015-01-17T09:05:18Z</time>
      </trkpt>
      <trkpt lat="42.392135000" lon="-2.653215000">
        <ele>693.50</ele>
        <time>2015-01-17T09:05:19Z</time>
      </trkpt>
      <trkpt lat="42.392158000" lon="-2.653242000">
        <ele>693.00</ele>
        <time>2015-01-17T09:05:20Z</time>
      </trkpt>
      <trkpt lat="42.392180000" lon="-2.653267000">
        <ele>692.70</ele>
        <time>2015-01-17T09:05:21Z</time>
      </trkpt>
      <trkpt lat="42.392205000" lon="-2.653298000">
        <ele>692.40</ele>
        <time>2015-01-17T09:05:22Z</time>
      </trkpt>
      <trkpt lat="42.392227000" lon="-2.653322000">
        <ele>692.10</ele>
        <time>2015-01-17T09:05:23Z</time>
      </trkpt>
      <trkpt lat="42.392242000" lon="-2.653342000">
        <ele>691.90</ele>
        <time>2015-01-17T09:05:24Z</time>
      </trkpt>
      <trkpt lat="42.392258000" lon="-2.653361000">
        <ele>691.40</ele>
        <time>2015-01-17T09:05:25Z</time>
      </trkpt>
      <trkpt lat="42.392274000" lon="-2.653382000">
        <ele>691.00</ele>
        <time>2015-01-17T09:05:26Z</time>
      </trkpt>
      <trkpt lat="42.392284000" lon="-2.653409000">
        <ele>690.50</ele>
        <time>2015-01-17T09:05:27Z</time>
      </trkpt>
      <trkpt lat="42.392287000" lon="-2.653435000">
        <ele>690.20</ele>
        <time>2015-01-17T09:05:28Z</time>
      </trkpt>
      <trkpt lat="42.392285000" lon="-2.653459000">
        <ele>689.80</ele>
        <time>2015-01-17T09:05:29Z</time>
      </trkpt>
      <trkpt lat="42.392282000" lon="-2.653487000">
        <ele>689.50</ele>
        <time>2015-01-17T09:05:30Z</time>
      </trkpt>
      <trkpt lat="42.392278000" lon="-2.653514000">
        <ele>689.10</ele>
        <time>2015-01-17T09:05:31Z</time>
      </trkpt>
      <trkpt lat="42.392271000" lon="-2.653545000">
        <ele>688.80</ele>
        <time>2015-01-17T09:05:32Z</time>
      </trkpt>
      <trkpt lat="42.392262000" lon="-2.653578000">
        <ele>688.40</ele>
        <time>2015-01-17T09:05:33Z</time>
      </trkpt>
      <trkpt lat="42.392256000" lon="-2.653614000">
        <ele>688.00</ele>
        <time>2015-01-17T09:05:34Z</time>
      </trkpt>
      <trkpt lat="42.392239000" lon="-2.653696000">
        <ele>687.30</ele>
        <time>2015-01-17T09:05:36Z</time>
      </trkpt>
      <trkpt lat="42.392229000" lon="-2.653743000">
        <ele>686.90</ele>
        <time>2015-01-17T09:05:37Z</time>
      </trkpt>
      <trkpt lat="42.392216000" lon="-2.653799000">
        <ele>686.50</ele>
        <time>2015-01-17T09:05:38Z</time>
      </trkpt>
      <trkpt lat="42.392203000" lon="-2.653860000">
        <ele>686.20</ele>
        <time>2015-01-17T09:05:39Z</time>
      </trkpt>
      <trkpt lat="42.392189000" lon="-2.653928000">
        <ele>686.00</ele>
        <time>2015-01-17T09:05:40Z</time>
      </trkpt>
      <trkpt lat="42.392175000" lon="-2.653999000">
        <ele>685.80</ele>
        <time>2015-01-17T09:05:41Z</time>
      </trkpt>
      <trkpt lat="42.392159000" lon="-2.654077000">
        <ele>685.60</ele>
        <time>2015-01-17T09:05:42Z</time>
      </trkpt>
      <trkpt lat="42.392140000" lon="-2.654163000">
        <ele>685.00</ele>
        <time>2015-01-17T09:05:43Z</time>
      </trkpt>
      <trkpt lat="42.392122000" lon="-2.654252000">
        <ele>684.60</ele>
        <time>2015-01-17T09:05:44Z</time>
      </trkpt>
      <trkpt lat="42.392105000" lon="-2.654345000">
        <ele>684.00</ele>
        <time>2015-01-17T09:05:45Z</time>
      </trkpt>
      <trkpt lat="42.392084000" lon="-2.654439000">
        <ele>683.50</ele>
        <time>2015-01-17T09:05:46Z</time>
      </trkpt>
      <trkpt lat="42.392063000" lon="-2.654537000">
        <ele>683.10</ele>
        <time>2015-01-17T09:05:47Z</time>
      </trkpt>
      <trkpt lat="42.392042000" lon="-2.654637000">
        <ele>682.90</ele>
        <time>2015-01-17T09:05:48Z</time>
      </trkpt>
      <trkpt lat="42.392022000" lon="-2.654738000">
        <ele>682.40</ele>
        <time>2015-01-17T09:05:49Z</time>
      </trkpt>
      <trkpt lat="42.392001000" lon="-2.654842000">
        <ele>682.00</ele>
        <time>2015-01-17T09:05:50Z</time>
      </trkpt>
      <trkpt lat="42.391978000" lon="-2.654950000">
        <ele>681.50</ele>
        <time>2015-01-17T09:05:51Z</time>
      </trkpt>
      <trkpt lat="42.391956000" lon="-2.655060000">
        <ele>681.10</ele>
        <time>2015-01-17T09:05:52Z</time>
      </trkpt>
      <trkpt lat="42.391932000" lon="-2.655169000">
        <ele>680.50</ele>
        <time>2015-01-17T09:05:53Z</time>
      </trkpt>
      <trkpt lat="42.391907000" lon="-2.655279000">
        <ele>680.00</ele>
        <time>2015-01-17T09:05:54Z</time>
      </trkpt>
      <trkpt lat="42.391881000" lon="-2.655390000">
        <ele>679.60</ele>
        <time>2015-01-17T09:05:55Z</time>
      </trkpt>
      <trkpt lat="42.391855000" lon="-2.655504000">
        <ele>679.20</ele>
        <time>2015-01-17T09:05:56Z</time>
      </trkpt>
      <trkpt lat="42.391831000" lon="-2.655618000">
        <ele>678.60</ele>
        <time>2015-01-17T09:05:57Z</time>
      </trkpt>
      <trkpt lat="42.391805000" lon="-2.655733000">
        <ele>678.20</ele>
        <time>2015-01-17T09:05:58Z</time>
      </trkpt>
      <trkpt lat="42.391781000" lon="-2.655851000">
        <ele>677.70</ele>
        <time>2015-01-17T09:05:59Z</time>
      </trkpt>
      <trkpt lat="42.391754000" lon="-2.655968000">
        <ele>677.30</ele>
        <time>2015-01-17T09:06:00Z</time>
      </trkpt>
      <trkpt lat="42.391728000" lon="-2.656083000">
        <ele>676.60</ele>
        <time>2015-01-17T09:06:01Z</time>
      </trkpt>
      <trkpt lat="42.391703000" lon="-2.656198000">
        <ele>676.00</ele>
        <time>2015-01-17T09:06:02Z</time>
      </trkpt>
      <trkpt lat="42.391677000" lon="-2.656315000">
        <ele>675.40</ele>
        <time>2015-01-17T09:06:03Z</time>
      </trkpt>
      <trkpt lat="42.391654000" lon="-2.656430000">
        <ele>675.00</ele>
        <time>2015-01-17T09:06:04Z</time>
      </trkpt>
      <trkpt lat="42.391632000" lon="-2.656545000">
        <ele>674.30</ele>
        <time>2015-01-17T09:06:05Z</time>
      </trkpt>
      <trkpt lat="42.391609000" lon="-2.656658000">
        <ele>673.80</ele>
        <time>2015-01-17T09:06:06Z</time>
      </trkpt>
      <trkpt lat="42.391587000" lon="-2.656768000">
        <ele>673.30</ele>
        <time>2015-01-17T09:06:07Z</time>
      </trkpt>
      <trkpt lat="42.391565000" lon="-2.656878000">
        <ele>673.00</ele>
        <time>2015-01-17T09:06:08Z</time>
      </trkpt>
      <trkpt lat="42.391542000" lon="-2.656987000">
        <ele>672.60</ele>
        <time>2015-01-17T09:06:09Z</time>
      </trkpt>
      <trkpt lat="42.391519000" lon="-2.657097000">
        <ele>672.20</ele>
        <time>2015-01-17T09:06:10Z</time>
      </trkpt>
      <trkpt lat="42.391496000" lon="-2.657203000">
        <ele>671.90</ele>
        <time>2015-01-17T09:06:11Z</time>
      </trkpt>
      <trkpt lat="42.391471000" lon="-2.657307000">
        <ele>671.70</ele>
        <time>2015-01-17T09:06:12Z</time>
      </trkpt>
      <trkpt lat="42.391448000" lon="-2.657408000">
        <ele>671.30</ele>
        <time>2015-01-17T09:06:13Z</time>
      </trkpt>
      <trkpt lat="42.391425000" lon="-2.657512000">
        <ele>671.00</ele>
        <time>2015-01-17T09:06:14Z</time>
      </trkpt>
      <trkpt lat="42.391402000" lon="-2.657620000">
        <ele>670.70</ele>
        <time>2015-01-17T09:06:15Z</time>
      </trkpt>
      <trkpt lat="42.391378000" lon="-2.657728000">
        <ele>670.40</ele>
        <time>2015-01-17T09:06:16Z</time>
      </trkpt>
      <trkpt lat="42.391354000" lon="-2.657836000">
        <ele>670.10</ele>
        <time>2015-01-17T09:06:17Z</time>
      </trkpt>
      <trkpt lat="42.391329000" lon="-2.657943000">
        <ele>669.80</ele>
        <time>2015-01-17T09:06:18Z</time>
      </trkpt>
      <trkpt lat="42.391305000" lon="-2.658048000">
        <ele>669.60</ele>
        <time>2015-01-17T09:06:19Z</time>
      </trkpt>
      <trkpt lat="42.391284000" lon="-2.658151000">
        <ele>669.40</ele>
        <time>2015-01-17T09:06:20Z</time>
      </trkpt>
      <trkpt lat="42.391264000" lon="-2.658252000">
        <ele>669.00</ele>
        <time>2015-01-17T09:06:21Z</time>
      </trkpt>
      <trkpt lat="42.391245000" lon="-2.658351000">
        <ele>668.70</ele>
        <time>2015-01-17T09:06:22Z</time>
      </trkpt>
      <trkpt lat="42.391227000" lon="-2.658448000">
        <ele>668.40</ele>
        <time>2015-01-17T09:06:23Z</time>
      </trkpt>
      <trkpt lat="42.391208000" lon="-2.658542000">
        <ele>668.10</ele>
        <time>2015-01-17T09:06:24Z</time>
      </trkpt>
      <trkpt lat="42.391188000" lon="-2.658636000">
        <ele>667.80</ele>
        <time>2015-01-17T09:06:25Z</time>
      </trkpt>
      <trkpt lat="42.391166000" lon="-2.658730000">
        <ele>667.50</ele>
        <time>2015-01-17T09:06:26Z</time>
      </trkpt>
      <trkpt lat="42.391147000" lon="-2.658825000">
        <ele>667.30</ele>
        <time>2015-01-17T09:06:27Z</time>
      </trkpt>
      <trkpt lat="42.391128000" lon="-2.658920000">
        <ele>667.20</ele>
        <time>2015-01-17T09:06:28Z</time>
      </trkpt>
      <trkpt lat="42.391110000" lon="-2.659012000">
        <ele>667.00</ele>
        <time>2015-01-17T09:06:29Z</time>
      </trkpt>
      <trkpt lat="42.391091000" lon="-2.659102000">
        <ele>666.90</ele>
        <time>2015-01-17T09:06:30Z</time>
      </trkpt>
      <trkpt lat="42.391074000" lon="-2.659189000">
        <ele>666.60</ele>
        <time>2015-01-17T09:06:31Z</time>
      </trkpt>
      <trkpt lat="42.391057000" lon="-2.659275000">
        <ele>666.40</ele>
        <time>2015-01-17T09:06:32Z</time>
      </trkpt>
      <trkpt lat="42.391037000" lon="-2.659361000">
        <ele>666.20</ele>
        <time>2015-01-17T09:06:33Z</time>
      </trkpt>
      <trkpt lat="42.391017000" lon="-2.659450000">
        <ele>666.10</ele>
        <time>2015-01-17T09:06:34Z</time>
      </trkpt>
      <trkpt lat="42.390999000" lon="-2.659538000">
        <ele>666.00</ele>
        <time>2015-01-17T09:06:35Z</time>
      </trkpt>
      <trkpt lat="42.390963000" lon="-2.659710000">
        <ele>665.90</ele>
        <time>2015-01-17T09:06:37Z</time>
      </trkpt>
      <trkpt lat="42.390946000" lon="-2.659797000">
        <ele>665.90</ele>
        <time>2015-01-17T09:06:38Z</time>
      </trkpt>
      <trkpt lat="42.390929000" lon="-2.659881000">
        <ele>665.80</ele>
        <time>2015-01-17T09:06:39Z</time>
      </trkpt>
      <trkpt lat="42.390911000" lon="-2.659967000">
        <ele>665.80</ele>
        <time>2015-01-17T09:06:40Z</time>
      </trkpt>
      <trkpt lat="42.390892000" lon="-2.660052000">
        <ele>665.50</ele>
        <time>2015-01-17T09:06:41Z</time>
      </trkpt>
      <trkpt lat="42.390864000" lon="-2.660133000">
        <ele>665.20</ele>
        <time>2015-01-17T09:06:42Z</time>
      </trkpt>
      <trkpt lat="42.390830000" lon="-2.660206000">
        <ele>665.10</ele>
        <time>2015-01-17T09:06:43Z</time>
      </trkpt>
      <trkpt lat="42.390788000" lon="-2.660271000">
        <ele>665.00</ele>
        <time>2015-01-17T09:06:44Z</time>
      </trkpt>
      <trkpt lat="42.390745000" lon="-2.660330000">
        <ele>664.90</ele>
        <time>2015-01-17T09:06:45Z</time>
      </trkpt>
      <trkpt lat="42.390699000" lon="-2.660388000">
        <ele>664.90</ele>
        <time>2015-01-17T09:06:46Z</time>
      </trkpt>
      <trkpt lat="42.390650000" lon="-2.660448000">
        <ele>664.80</ele>
        <time>2015-01-17T09:06:47Z</time>
      </trkpt>
      <trkpt lat="42.390601000" lon="-2.660508000">
        <ele>664.80</ele>
        <time>2015-01-17T09:06:48Z</time>
      </trkpt>
      <trkpt lat="42.390555000" lon="-2.660570000">
        <ele>664.70</ele>
        <time>2015-01-17T09:06:49Z</time>
      </trkpt>
      <trkpt lat="42.390510000" lon="-2.660631000">
        <ele>664.70</ele>
        <time>2015-01-17T09:06:50Z</time>
      </trkpt>
      <trkpt lat="42.390469000" lon="-2.660693000">
        <ele>664.70</ele>
        <time>2015-01-17T09:06:51Z</time>
      </trkpt>
      <trkpt lat="42.390428000" lon="-2.660755000">
        <ele>664.70</ele>
        <time>2015-01-17T09:06:52Z</time>
      </trkpt>
      <trkpt lat="42.390389000" lon="-2.660814000">
        <ele>664.70</ele>
        <time>2015-01-17T09:06:53Z</time>
      </trkpt>
      <trkpt lat="42.390347000" lon="-2.660869000">
        <ele>664.60</ele>
        <time>2015-01-17T09:06:54Z</time>
      </trkpt>
      <trkpt lat="42.390304000" lon="-2.660928000">
        <ele>664.80</ele>
        <time>2015-01-17T09:06:55Z</time>
      </trkpt>
      <trkpt lat="42.390260000" lon="-2.660983000">
        <ele>664.90</ele>
        <time>2015-01-17T09:06:56Z</time>
      </trkpt>
      <trkpt lat="42.390220000" lon="-2.661037000">
        <ele>664.90</ele>
        <time>2015-01-17T09:06:57Z</time>
      </trkpt>
      <trkpt lat="42.390181000" lon="-2.661091000">
        <ele>665.00</ele>
        <time>2015-01-17T09:06:58Z</time>
      </trkpt>
      <trkpt lat="42.390139000" lon="-2.661145000">
        <ele>665.00</ele>
        <time>2015-01-17T09:06:59Z</time>
      </trkpt>
      <trkpt lat="42.390100000" lon="-2.661199000">
        <ele>665.00</ele>
        <time>2015-01-17T09:07:00Z</time>
      </trkpt>
      <trkpt lat="42.390062000" lon="-2.661253000">
        <ele>665.00</ele>
        <time>2015-01-17T09:07:01Z</time>
      </trkpt>
      <trkpt lat="42.390025000" lon="-2.661307000">
        <ele>665.00</ele>
        <time>2015-01-17T09:07:02Z</time>
      </trkpt>
      <trkpt lat="42.389988000" lon="-2.661358000">
        <ele>664.80</ele>
        <time>2015-01-17T09:07:03Z</time>
      </trkpt>
      <trkpt lat="42.389950000" lon="-2.661410000">
        <ele>664.70</ele>
        <time>2015-01-17T09:07:04Z</time>
      </trkpt>
      <trkpt lat="42.389913000" lon="-2.661463000">
        <ele>664.60</ele>
        <time>2015-01-17T09:07:05Z</time>
      </trkpt>
      <trkpt lat="42.389876000" lon="-2.661513000">
        <ele>664.50</ele>
        <time>2015-01-17T09:07:06Z</time>
      </trkpt>
      <trkpt lat="42.389838000" lon="-2.661563000">
        <ele>664.40</ele>
        <time>2015-01-17T09:07:07Z</time>
      </trkpt>
      <trkpt lat="42.389800000" lon="-2.661615000">
        <ele>664.40</ele>
        <time>2015-01-17T09:07:08Z</time>
      </trkpt>
      <trkpt lat="42.389761000" lon="-2.661671000">
        <ele>664.40</ele>
        <time>2015-01-17T09:07:09Z</time>
      </trkpt>
      <trkpt lat="42.389723000" lon="-2.661724000">
        <ele>664.30</ele>
        <time>2015-01-17T09:07:10Z</time>
      </trkpt>
      <trkpt lat="42.389685000" lon="-2.661773000">
        <ele>664.40</ele>
        <time>2015-01-17T09:07:11Z</time>
      </trkpt>
      <trkpt lat="42.389648000" lon="-2.661823000">
        <ele>664.40</ele>
        <time>2015-01-17T09:07:12Z</time>
      </trkpt>
      <trkpt lat="42.389612000" lon="-2.661874000">
        <ele>664.50</ele>
        <time>2015-01-17T09:07:13Z</time>
      </trkpt>
      <trkpt lat="42.389577000" lon="-2.661923000">
        <ele>664.50</ele>
        <time>2015-01-17T09:07:14Z</time>
      </trkpt>
      <trkpt lat="42.389543000" lon="-2.661969000">
        <ele>664.50</ele>
        <time>2015-01-17T09:07:15Z</time>
      </trkpt>
      <trkpt lat="42.389511000" lon="-2.662013000">
        <ele>664.50</ele>
        <time>2015-01-17T09:07:16Z</time>
      </trkpt>
      <trkpt lat="42.389481000" lon="-2.662055000">
        <ele>664.50</ele>
        <time>2015-01-17T09:07:17Z</time>
      </trkpt>
      <trkpt lat="42.389451000" lon="-2.662090000">
        <ele>664.50</ele>
        <time>2015-01-17T09:07:18Z</time>
      </trkpt>
      <trkpt lat="42.389423000" lon="-2.662127000">
        <ele>664.50</ele>
        <time>2015-01-17T09:07:19Z</time>
      </trkpt>
      <trkpt lat="42.389406000" lon="-2.662170000">
        <ele>664.50</ele>
        <time>2015-01-17T09:07:20Z</time>
      </trkpt>
      <trkpt lat="42.389399000" lon="-2.662219000">
        <ele>664.60</ele>
        <time>2015-01-17T09:07:21Z</time>
      </trkpt>
      <trkpt lat="42.389399000" lon="-2.662271000">
        <ele>664.60</ele>
        <time>2015-01-17T09:07:22Z</time>
      </trkpt>
      <trkpt lat="42.389408000" lon="-2.662324000">
        <ele>664.80</ele>
        <time>2015-01-17T09:07:23Z</time>
      </trkpt>
      <trkpt lat="42.389423000" lon="-2.662381000">
        <ele>664.90</ele>
        <time>2015-01-17T09:07:24Z</time>
      </trkpt>
      <trkpt lat="42.389444000" lon="-2.662441000">
        <ele>664.90</ele>
        <time>2015-01-17T09:07:25Z</time>
      </trkpt>
      <trkpt lat="42.389464000" lon="-2.662501000">
        <ele>664.90</ele>
        <time>2015-01-17T09:07:26Z</time>
      </trkpt>
      <trkpt lat="42.389484000" lon="-2.662564000">
        <ele>664.70</ele>
        <time>2015-01-17T09:07:27Z</time>
      </trkpt>
      <trkpt lat="42.389504000" lon="-2.662628000">
        <ele>664.50</ele>
        <time>2015-01-17T09:07:28Z</time>
      </trkpt>
      <trkpt lat="42.389525000" lon="-2.662693000">
        <ele>664.40</ele>
        <time>2015-01-17T09:07:29Z</time>
      </trkpt>
      <trkpt lat="42.389547000" lon="-2.662756000">
        <ele>664.30</ele>
        <time>2015-01-17T09:07:30Z</time>
      </trkpt>
      <trkpt lat="42.389570000" lon="-2.662823000">
        <ele>664.30</ele>
        <time>2015-01-17T09:07:31Z</time>
      </trkpt>
      <trkpt lat="42.389593000" lon="-2.662892000">
        <ele>664.20</ele>
        <time>2015-01-17T09:07:32Z</time>
      </trkpt>
      <trkpt lat="42.389616000" lon="-2.662963000">
        <ele>664.10</ele>
        <time>2015-01-17T09:07:33Z</time>
      </trkpt>
      <trkpt lat="42.389640000" lon="-2.663032000">
        <ele>663.90</ele>
        <time>2015-01-17T09:07:34Z</time>
      </trkpt>
      <trkpt lat="42.389663000" lon="-2.663101000">
        <ele>663.80</ele>
        <time>2015-01-17T09:07:35Z</time>
      </trkpt>
      <trkpt lat="42.389686000" lon="-2.663170000">
        <ele>663.80</ele>
        <time>2015-01-17T09:07:36Z</time>
      </trkpt>
      <trkpt lat="42.389731000" lon="-2.663313000">
        <ele>663.60</ele>
        <time>2015-01-17T09:07:38Z</time>
      </trkpt>
      <trkpt lat="42.389754000" lon="-2.663381000">
        <ele>663.50</ele>
        <time>2015-01-17T09:07:39Z</time>
      </trkpt>
      <trkpt lat="42.389778000" lon="-2.663448000">
        <ele>663.40</ele>
        <time>2015-01-17T09:07:40Z</time>
      </trkpt>
      <trkpt lat="42.389802000" lon="-2.663517000">
        <ele>663.00</ele>
        <time>2015-01-17T09:07:41Z</time>
      </trkpt>
      <trkpt lat="42.389825000" lon="-2.663585000">
        <ele>662.80</ele>
        <time>2015-01-17T09:07:42Z</time>
      </trkpt>
      <trkpt lat="42.389848000" lon="-2.663655000">
        <ele>662.50</ele>
        <time>2015-01-17T09:07:43Z</time>
      </trkpt>
      <trkpt lat="42.389873000" lon="-2.663725000">
        <ele>662.40</ele>
        <time>2015-01-17T09:07:44Z</time>
      </trkpt>
      <trkpt lat="42.389896000" lon="-2.663797000">
        <ele>662.10</ele>
        <time>2015-01-17T09:07:45Z</time>
      </trkpt>
      <trkpt lat="42.389922000" lon="-2.663870000">
        <ele>661.80</ele>
        <time>2015-01-17T09:07:46Z</time>
      </trkpt>
      <trkpt lat="42.389947000" lon="-2.663944000">
        <ele>661.60</ele>
        <time>2015-01-17T09:07:47Z</time>
      </trkpt>
      <trkpt lat="42.389972000" lon="-2.664019000">
        <ele>661.40</ele>
        <time>2015-01-17T09:07:48Z</time>
      </trkpt>
      <trkpt lat="42.389997000" lon="-2.664093000">
        <ele>660.80</ele>
        <time>2015-01-17T09:07:49Z</time>
      </trkpt>
      <trkpt lat="42.390021000" lon="-2.664167000">
        <ele>660.30</ele>
        <time>2015-01-17T09:07:50Z</time>
      </trkpt>
      <trkpt lat="42.390047000" lon="-2.664239000">
        <ele>660.00</ele>
        <time>2015-01-17T09:07:51Z</time>
      </trkpt>
      <trkpt lat="42.390071000" lon="-2.664312000">
        <ele>659.70</ele>
        <time>2015-01-17T09:07:52Z</time>
      </trkpt>
      <trkpt lat="42.390098000" lon="-2.664385000">
        <ele>659.50</ele>
        <time>2015-01-17T09:07:53Z</time>
      </trkpt>
      <trkpt lat="42.390123000" lon="-2.664456000">
        <ele>659.30</ele>
        <time>2015-01-17T09:07:54Z</time>
      </trkpt>
      <trkpt lat="42.390149000" lon="-2.664529000">
        <ele>659.20</ele>
        <time>2015-01-17T09:07:55Z</time>
      </trkpt>
      <trkpt lat="42.390173000" lon="-2.664603000">
        <ele>659.10</ele>
        <time>2015-01-17T09:07:56Z</time>
      </trkpt>
      <trkpt lat="42.390198000" lon="-2.664676000">
        <ele>659.00</ele>
        <time>2015-01-17T09:07:57Z</time>
      </trkpt>
      <trkpt lat="42.390224000" lon="-2.664747000">
        <ele>659.00</ele>
        <time>2015-01-17T09:07:58Z</time>
      </trkpt>
      <trkpt lat="42.390250000" lon="-2.664818000">
        <ele>659.10</ele>
        <time>2015-01-17T09:07:59Z</time>
      </trkpt>
      <trkpt lat="42.390274000" lon="-2.664889000">
        <ele>659.10</ele>
        <time>2015-01-17T09:08:00Z</time>
      </trkpt>
      <trkpt lat="42.390298000" lon="-2.664963000">
        <ele>659.20</ele>
        <time>2015-01-17T09:08:01Z</time>
      </trkpt>
      <trkpt lat="42.390321000" lon="-2.665037000">
        <ele>659.20</ele>
        <time>2015-01-17T09:08:02Z</time>
      </trkpt>
      <trkpt lat="42.390346000" lon="-2.665111000">
        <ele>658.90</ele>
        <time>2015-01-17T09:08:03Z</time>
      </trkpt>
      <trkpt lat="42.390370000" lon="-2.665185000">
        <ele>658.70</ele>
        <time>2015-01-17T09:08:04Z</time>
      </trkpt>
      <trkpt lat="42.390395000" lon="-2.665259000">
        <ele>658.40</ele>
        <time>2015-01-17T09:08:05Z</time>
      </trkpt>
      <trkpt lat="42.390421000" lon="-2.665333000">
        <ele>658.20</ele>
        <time>2015-01-17T09:08:06Z</time>
      </trkpt>
      <trkpt lat="42.390446000" lon="-2.665408000">
        <ele>657.90</ele>
        <time>2015-01-17T09:08:07Z</time>
      </trkpt>
      <trkpt lat="42.390470000" lon="-2.665481000">
        <ele>657.60</ele>
        <time>2015-01-17T09:08:08Z</time>
      </trkpt>
      <trkpt lat="42.390493000" lon="-2.665549000">
        <ele>657.30</ele>
        <time>2015-01-17T09:08:09Z</time>
      </trkpt>
      <trkpt lat="42.390516000" lon="-2.665622000">
        <ele>657.00</ele>
        <time>2015-01-17T09:08:10Z</time>
      </trkpt>
      <trkpt lat="42.390539000" lon="-2.665698000">
        <ele>656.70</ele>
        <time>2015-01-17T09:08:11Z</time>
      </trkpt>
      <trkpt lat="42.390565000" lon="-2.665776000">
        <ele>656.40</ele>
        <time>2015-01-17T09:08:12Z</time>
      </trkpt>
      <trkpt lat="42.390591000" lon="-2.665852000">
        <ele>656.00</ele>
        <time>2015-01-17T09:08:13Z</time>
      </trkpt>
      <trkpt lat="42.390618000" lon="-2.665930000">
        <ele>655.70</ele>
        <time>2015-01-17T09:08:14Z</time>
      </trkpt>
      <trkpt lat="42.390643000" lon="-2.666006000">
        <ele>655.50</ele>
        <time>2015-01-17T09:08:15Z</time>
      </trkpt>
      <trkpt lat="42.390670000" lon="-2.666080000">
        <ele>655.30</ele>
        <time>2015-01-17T09:08:16Z</time>
      </trkpt>
      <trkpt lat="42.390693000" lon="-2.666154000">
        <ele>655.20</ele>
        <time>2015-01-17T09:08:17Z</time>
      </trkpt>
      <trkpt lat="42.390716000" lon="-2.666230000">
        <ele>655.10</ele>
        <time>2015-01-17T09:08:18Z</time>
      </trkpt>
      <trkpt lat="42.390737000" lon="-2.666307000">
        <ele>654.70</ele>
        <time>2015-01-17T09:08:19Z</time>
      </trkpt>
      <trkpt lat="42.390755000" lon="-2.666382000">
        <ele>654.40</ele>
        <time>2015-01-17T09:08:20Z</time>
      </trkpt>
      <trkpt lat="42.390772000" lon="-2.666459000">
        <ele>654.20</ele>
        <time>2015-01-17T09:08:21Z</time>
      </trkpt>
      <trkpt lat="42.390785000" lon="-2.666536000">
        <ele>654.00</ele>
        <time>2015-01-17T09:08:22Z</time>
      </trkpt>
      <trkpt lat="42.390797000" lon="-2.666611000">
        <ele>653.90</ele>
        <time>2015-01-17T09:08:23Z</time>
      </trkpt>
      <trkpt lat="42.390808000" lon="-2.666685000">
        <ele>653.80</ele>
        <time>2015-01-17T09:08:24Z</time>
      </trkpt>
      <trkpt lat="42.390819000" lon="-2.666760000">
        <ele>653.00</ele>
        <time>2015-01-17T09:08:25Z</time>
      </trkpt>
      <trkpt lat="42.390828000" lon="-2.666835000">
        <ele>652.40</ele>
        <time>2015-01-17T09:08:26Z</time>
      </trkpt>
      <trkpt lat="42.390837000" lon="-2.666913000">
        <ele>652.20</ele>
        <time>2015-01-17T09:08:27Z</time>
      </trkpt>
      <trkpt lat="42.390848000" lon="-2.666993000">
        <ele>652.00</ele>
        <time>2015-01-17T09:08:28Z</time>
      </trkpt>
      <trkpt lat="42.390859000" lon="-2.667074000">
        <ele>651.60</ele>
        <time>2015-01-17T09:08:29Z</time>
      </trkpt>
      <trkpt lat="42.390870000" lon="-2.667153000">
        <ele>651.40</ele>
        <time>2015-01-17T09:08:30Z</time>
      </trkpt>
      <trkpt lat="42.390881000" lon="-2.667232000">
        <ele>651.30</ele>
        <time>2015-01-17T09:08:31Z</time>
      </trkpt>
      <trkpt lat="42.390892000" lon="-2.667312000">
        <ele>651.30</ele>
        <time>2015-01-17T09:08:32Z</time>
      </trkpt>
      <trkpt lat="42.390902000" lon="-2.667393000">
        <ele>651.10</ele>
        <time>2015-01-17T09:08:33Z</time>
      </trkpt>
      <trkpt lat="42.390913000" lon="-2.667476000">
        <ele>651.00</ele>
        <time>2015-01-17T09:08:34Z</time>
      </trkpt>
      <trkpt lat="42.390924000" lon="-2.667561000">
        <ele>650.80</ele>
        <time>2015-01-17T09:08:35Z</time>
      </trkpt>
      <trkpt lat="42.390935000" lon="-2.667645000">
        <ele>650.70</ele>
        <time>2015-01-17T09:08:36Z</time>
      </trkpt>
      <trkpt lat="42.390946000" lon="-2.667732000">
        <ele>650.60</ele>
        <time>2015-01-17T09:08:37Z</time>
      </trkpt>
      <trkpt lat="42.390968000" lon="-2.667901000">
        <ele>650.20</ele>
        <time>2015-01-17T09:08:39Z</time>
      </trkpt>
      <trkpt lat="42.390978000" lon="-2.667988000">
        <ele>650.00</ele>
        <time>2015-01-17T09:08:40Z</time>
      </trkpt>
      <trkpt lat="42.390990000" lon="-2.668075000">
        <ele>650.10</ele>
        <time>2015-01-17T09:08:41Z</time>
      </trkpt>
      <trkpt lat="42.391001000" lon="-2.668160000">
        <ele>650.20</ele>
        <time>2015-01-17T09:08:42Z</time>
      </trkpt>
      <trkpt lat="42.391014000" lon="-2.668245000">
        <ele>649.90</ele>
        <time>2015-01-17T09:08:43Z</time>
      </trkpt>
      <trkpt lat="42.391023000" lon="-2.668331000">
        <ele>649.60</ele>
        <time>2015-01-17T09:08:44Z</time>
      </trkpt>
      <trkpt lat="42.391034000" lon="-2.668416000">
        <ele>649.30</ele>
        <time>2015-01-17T09:08:45Z</time>
      </trkpt>
      <trkpt lat="42.391045000" lon="-2.668503000">
        <ele>649.00</ele>
        <time>2015-01-17T09:08:46Z</time>
      </trkpt>
      <trkpt lat="42.391057000" lon="-2.668591000">
        <ele>648.70</ele>
        <time>2015-01-17T09:08:47Z</time>
      </trkpt>
      <trkpt lat="42.391068000" lon="-2.668679000">
        <ele>648.50</ele>
        <time>2015-01-17T09:08:48Z</time>
      </trkpt>
      <trkpt lat="42.391079000" lon="-2.668764000">
        <ele>648.40</ele>
        <time>2015-01-17T09:08:49Z</time>
      </trkpt>
      <trkpt lat="42.391091000" lon="-2.668852000">
        <ele>648.30</ele>
        <time>2015-01-17T09:08:50Z</time>
      </trkpt>
      <trkpt lat="42.391102000" lon="-2.668940000">
        <ele>648.20</ele>
        <time>2015-01-17T09:08:51Z</time>
      </trkpt>
      <trkpt lat="42.391115000" lon="-2.669029000">
        <ele>648.10</ele>
        <time>2015-01-17T09:08:52Z</time>
      </trkpt>
      <trkpt lat="42.391126000" lon="-2.669117000">
        <ele>647.70</ele>
        <time>2015-01-17T09:08:53Z</time>
      </trkpt>
      <trkpt lat="42.391138000" lon="-2.669206000">
        <ele>647.40</ele>
        <time>2015-01-17T09:08:54Z</time>
      </trkpt>
      <trkpt lat="42.391149000" lon="-2.669295000">
        <ele>647.20</ele>
        <time>2015-01-17T09:08:55Z</time>
      </trkpt>
      <trkpt lat="42.391160000" lon="-2.669383000">
        <ele>647.10</ele>
        <time>2015-01-17T09:08:56Z</time>
      </trkpt>
      <trkpt lat="42.391172000" lon="-2.669472000">
        <ele>646.90</ele>
        <time>2015-01-17T09:08:57Z</time>
      </trkpt>
      <trkpt lat="42.391187000" lon="-2.669562000">
        <ele>646.90</ele>
        <time>2015-01-17T09:08:58Z</time>
      </trkpt>
      <trkpt lat="42.391201000" lon="-2.669651000">
        <ele>646.60</ele>
        <time>2015-01-17T09:08:59Z</time>
      </trkpt>
      <trkpt lat="42.391216000" lon="-2.669738000">
        <ele>646.40</ele>
        <time>2015-01-17T09:09:00Z</time>
      </trkpt>
      <trkpt lat="42.391235000" lon="-2.669823000">
        <ele>646.00</ele>
        <time>2015-01-17T09:09:01Z</time>
      </trkpt>
      <trkpt lat="42.391256000" lon="-2.669908000">
        <ele>645.80</ele>
        <time>2015-01-17T09:09:02Z</time>
      </trkpt>
      <trkpt lat="42.391280000" lon="-2.669992000">
        <ele>645.20</ele>
        <time>2015-01-17T09:09:03Z</time>
      </trkpt>
      <trkpt lat="42.391303000" lon="-2.670075000">
        <ele>644.80</ele>
        <time>2015-01-17T09:09:04Z</time>
      </trkpt>
      <trkpt lat="42.391327000" lon="-2.670161000">
        <ele>644.50</ele>
        <time>2015-01-17T09:09:05Z</time>
      </trkpt>
      <trkpt lat="42.391351000" lon="-2.670244000">
        <ele>644.20</ele>
        <time>2015-01-17T09:09:06Z</time>
      </trkpt>
      <trkpt lat="42.391377000" lon="-2.670328000">
        <ele>644.00</ele>
        <time>2015-01-17T09:09:07Z</time>
      </trkpt>
      <trkpt lat="42.391403000" lon="-2.670413000">
        <ele>643.90</ele>
        <time>2015-01-17T09:09:08Z</time>
      </trkpt>
      <trkpt lat="42.391430000" lon="-2.670499000">
        <ele>643.60</ele>
        <time>2015-01-17T09:09:09Z</time>
      </trkpt>
      <trkpt lat="42.391452000" lon="-2.670583000">
        <ele>643.30</ele>
        <time>2015-01-17T09:09:10Z</time>
      </trkpt>
      <trkpt lat="42.391478000" lon="-2.670668000">
        <ele>642.80</ele>
        <time>2015-01-17T09:09:11Z</time>
      </trkpt>
      <trkpt lat="42.391503000" lon="-2.670754000">
        <ele>642.40</ele>
        <time>2015-01-17T09:09:12Z</time>
      </trkpt>
      <trkpt lat="42.391526000" lon="-2.670837000">
        <ele>642.10</ele>
        <time>2015-01-17T09:09:13Z</time>
      </trkpt>
      <trkpt lat="42.391551000" lon="-2.670922000">
        <ele>641.80</ele>
        <time>2015-01-17T09:09:14Z</time>
      </trkpt>
      <trkpt lat="42.391574000" lon="-2.671006000">
        <ele>641.40</ele>
        <time>2015-01-17T09:09:15Z</time>
      </trkpt>
      <trkpt lat="42.391595000" lon="-2.671092000">
        <ele>641.20</ele>
        <time>2015-01-17T09:09:16Z</time>
      </trkpt>
      <trkpt lat="42.391612000" lon="-2.671179000">
        <ele>641.00</ele>
        <time>2015-01-17T09:09:17Z</time>
      </trkpt>
      <trkpt lat="42.391625000" lon="-2.671270000">
        <ele>640.90</ele>
        <time>2015-01-17T09:09:18Z</time>
      </trkpt>
      <trkpt lat="42.391637000" lon="-2.671361000">
        <ele>640.70</ele>
        <time>2015-01-17T09:09:19Z</time>
      </trkpt>
      <trkpt lat="42.391651000" lon="-2.671453000">
        <ele>640.60</ele>
        <time>2015-01-17T09:09:20Z</time>
      </trkpt>
      <trkpt lat="42.391666000" lon="-2.671544000">
        <ele>640.40</ele>
        <time>2015-01-17T09:09:21Z</time>
      </trkpt>
      <trkpt lat="42.391678000" lon="-2.671637000">
        <ele>640.20</ele>
        <time>2015-01-17T09:09:22Z</time>
      </trkpt>
      <trkpt lat="42.391694000" lon="-2.671725000">
        <ele>640.00</ele>
        <time>2015-01-17T09:09:23Z</time>
      </trkpt>
      <trkpt lat="42.391708000" lon="-2.671814000">
        <ele>639.90</ele>
        <time>2015-01-17T09:09:24Z</time>
      </trkpt>
      <trkpt lat="42.391722000" lon="-2.671899000">
        <ele>639.80</ele>
        <time>2015-01-17T09:09:25Z</time>
      </trkpt>
      <trkpt lat="42.391737000" lon="-2.671985000">
        <ele>639.70</ele>
        <time>2015-01-17T09:09:26Z</time>
      </trkpt>
      <trkpt lat="42.391753000" lon="-2.672069000">
        <ele>639.20</ele>
        <time>2015-01-17T09:09:27Z</time>
      </trkpt>
      <trkpt lat="42.391767000" lon="-2.672150000">
        <ele>638.90</ele>
        <time>2015-01-17T09:09:28Z</time>
      </trkpt>
      <trkpt lat="42.391780000" lon="-2.672231000">
        <ele>638.40</ele>
        <time>2015-01-17T09:09:29Z</time>
      </trkpt>
      <trkpt lat="42.391793000" lon="-2.672309000">
        <ele>638.00</ele>
        <time>2015-01-17T09:09:30Z</time>
      </trkpt>
      <trkpt lat="42.391806000" lon="-2.672386000">
        <ele>637.50</ele>
        <time>2015-01-17T09:09:31Z</time>
      </trkpt>
      <trkpt lat="42.391821000" lon="-2.672459000">
        <ele>637.00</ele>
        <time>2015-01-17T09:09:32Z</time>
      </trkpt>
      <trkpt lat="42.391836000" lon="-2.672531000">
        <ele>636.70</ele>
        <time>2015-01-17T09:09:33Z</time>
      </trkpt>
      <trkpt lat="42.391857000" lon="-2.672596000">
        <ele>636.40</ele>
        <time>2015-01-17T09:09:34Z</time>
      </trkpt>
      <trkpt lat="42.391876000" lon="-2.672661000">
        <ele>636.20</ele>
        <time>2015-01-17T09:09:35Z</time>
      </trkpt>
      <trkpt lat="42.391896000" lon="-2.672728000">
        <ele>636.10</ele>
        <time>2015-01-17T09:09:36Z</time>
      </trkpt>
      <trkpt lat="42.391917000" lon="-2.672796000">
        <ele>636.10</ele>
        <time>2015-01-17T09:09:37Z</time>
      </trkpt>
      <trkpt lat="42.391938000" lon="-2.672862000">
        <ele>636.10</ele>
        <time>2015-01-17T09:09:38Z</time>
      </trkpt>
      <trkpt lat="42.391981000" lon="-2.672995000">
        <ele>636.00</ele>
        <time>2015-01-17T09:09:40Z</time>
      </trkpt>
      <trkpt lat="42.392004000" lon="-2.673064000">
        <ele>636.00</ele>
        <time>2015-01-17T09:09:41Z</time>
      </trkpt>
      <trkpt lat="42.392025000" lon="-2.673131000">
        <ele>635.90</ele>
        <time>2015-01-17T09:09:42Z</time>
      </trkpt>
      <trkpt lat="42.392047000" lon="-2.673197000">
        <ele>635.70</ele>
        <time>2015-01-17T09:09:43Z</time>
      </trkpt>
      <trkpt lat="42.392066000" lon="-2.673264000">
        <ele>635.50</ele>
        <time>2015-01-17T09:09:44Z</time>
      </trkpt>
      <trkpt lat="42.392086000" lon="-2.673334000">
        <ele>635.30</ele>
        <time>2015-01-17T09:09:45Z</time>
      </trkpt>
      <trkpt lat="42.392105000" lon="-2.673403000">
        <ele>635.10</ele>
        <time>2015-01-17T09:09:46Z</time>
      </trkpt>
      <trkpt lat="42.392125000" lon="-2.673474000">
        <ele>634.90</ele>
        <time>2015-01-17T09:09:47Z</time>
      </trkpt>
      <trkpt lat="42.392146000" lon="-2.673546000">
        <ele>634.70</ele>
        <time>2015-01-17T09:09:48Z</time>
      </trkpt>
      <trkpt lat="42.392164000" lon="-2.673619000">
        <ele>634.40</ele>
        <time>2015-01-17T09:09:49Z</time>
      </trkpt>
      <trkpt lat="42.392181000" lon="-2.673686000">
        <ele>634.20</ele>
        <time>2015-01-17T09:09:50Z</time>
      </trkpt>
      <trkpt lat="42.392197000" lon="-2.673757000">
        <ele>634.00</ele>
        <time>2015-01-17T09:09:51Z</time>
      </trkpt>
      <trkpt lat="42.392212000" lon="-2.673828000">
        <ele>633.90</ele>
        <time>2015-01-17T09:09:52Z</time>
      </trkpt>
      <trkpt lat="42.392227000" lon="-2.673899000">
        <ele>633.80</ele>
        <time>2015-01-17T09:09:53Z</time>
      </trkpt>
      <trkpt lat="42.392243000" lon="-2.673967000">
        <ele>633.70</ele>
        <time>2015-01-17T09:09:54Z</time>
      </trkpt>
      <trkpt lat="42.392259000" lon="-2.674029000">
        <ele>633.50</ele>
        <time>2015-01-17T09:09:55Z</time>
      </trkpt>
      <trkpt lat="42.392274000" lon="-2.674083000">
        <ele>633.30</ele>
        <time>2015-01-17T09:09:56Z</time>
      </trkpt>
      <trkpt lat="42.392288000" lon="-2.674135000">
        <ele>633.10</ele>
        <time>2015-01-17T09:09:57Z</time>
      </trkpt>
      <trkpt lat="42.392299000" lon="-2.674185000">
        <ele>633.00</ele>
        <time>2015-01-17T09:09:58Z</time>
      </trkpt>
      <trkpt lat="42.392307000" lon="-2.674231000">
        <ele>632.90</ele>
        <time>2015-01-17T09:09:59Z</time>
      </trkpt>
      <trkpt lat="42.392312000" lon="-2.674274000">
        <ele>632.80</ele>
        <time>2015-01-17T09:10:00Z</time>
      </trkpt>
      <trkpt lat="42.392316000" lon="-2.674318000">
        <ele>632.50</ele>
        <time>2015-01-17T09:10:01Z</time>
      </trkpt>
      <trkpt lat="42.392319000" lon="-2.674361000">
        <ele>632.30</ele>
        <time>2015-01-17T09:10:02Z</time>
      </trkpt>
      <trkpt lat="42.392324000" lon="-2.674404000">
        <ele>632.00</ele>
        <time>2015-01-17T09:10:03Z</time>
      </trkpt>
      <trkpt lat="42.392329000" lon="-2.674448000">
        <ele>631.80</ele>
        <time>2015-01-17T09:10:04Z</time>
      </trkpt>
      <trkpt lat="42.392330000" lon="-2.674493000">
        <ele>631.50</ele>
        <time>2015-01-17T09:10:05Z</time>
      </trkpt>
      <trkpt lat="42.392331000" lon="-2.674535000">
        <ele>631.30</ele>
        <time>2015-01-17T09:10:06Z</time>
      </trkpt>
      <trkpt lat="42.392334000" lon="-2.674574000">
        <ele>631.10</ele>
        <time>2015-01-17T09:10:07Z</time>
      </trkpt>
      <trkpt lat="42.392332000" lon="-2.674613000">
        <ele>631.00</ele>
        <time>2015-01-17T09:10:08Z</time>
      </trkpt>
      <trkpt lat="42.392328000" lon="-2.674653000">
        <ele>630.90</ele>
        <time>2015-01-17T09:10:09Z</time>
      </trkpt>
      <trkpt lat="42.392317000" lon="-2.674690000">
        <ele>630.80</ele>
        <time>2015-01-17T09:10:10Z</time>
      </trkpt>
      <trkpt lat="42.392299000" lon="-2.674727000">
        <ele>630.80</ele>
        <time>2015-01-17T09:10:11Z</time>
      </trkpt>
      <trkpt lat="42.392274000" lon="-2.674766000">
        <ele>630.70</ele>
        <time>2015-01-17T09:10:12Z</time>
      </trkpt>
      <trkpt lat="42.392249000" lon="-2.674807000">
        <ele>630.40</ele>
        <time>2015-01-17T09:10:13Z</time>
      </trkpt>
      <trkpt lat="42.392223000" lon="-2.674845000">
        <ele>630.20</ele>
        <time>2015-01-17T09:10:14Z</time>
      </trkpt>
      <trkpt lat="42.392202000" lon="-2.674891000">
        <ele>630.00</ele>
        <time>2015-01-17T09:10:15Z</time>
      </trkpt>
      <trkpt lat="42.392185000" lon="-2.674938000">
        <ele>629.90</ele>
        <time>2015-01-17T09:10:16Z</time>
      </trkpt>
      <trkpt lat="42.392164000" lon="-2.674982000">
        <ele>629.80</ele>
        <time>2015-01-17T09:10:17Z</time>
      </trkpt>
      <trkpt lat="42.392163000" lon="-2.675031000">
        <ele>629.80</ele>
        <time>2015-01-17T09:10:18Z</time>
      </trkpt>
      <trkpt lat="42.392160000" lon="-2.675083000">
        <ele>629.70</ele>
        <time>2015-01-17T09:10:19Z</time>
      </trkpt>
      <trkpt lat="42.392167000" lon="-2.675139000">
        <ele>629.70</ele>
        <time>2015-01-17T09:10:20Z</time>
      </trkpt>
      <trkpt lat="42.392155000" lon="-2.675195000">
        <ele>629.70</ele>
        <time>2015-01-17T09:10:21Z</time>
      </trkpt>
      <trkpt lat="42.392145000" lon="-2.675244000">
        <ele>629.60</ele>
        <time>2015-01-17T09:10:22Z</time>
      </trkpt>
      <trkpt lat="42.392131000" lon="-2.675294000">
        <ele>629.60</ele>
        <time>2015-01-17T09:10:23Z</time>
      </trkpt>
      <trkpt lat="42.392115000" lon="-2.675344000">
        <ele>629.50</ele>
        <time>2015-01-17T09:10:24Z</time>
      </trkpt>
      <trkpt lat="42.392103000" lon="-2.675397000">
        <ele>629.20</ele>
        <time>2015-01-17T09:10:25Z</time>
      </trkpt>
      <trkpt lat="42.392094000" lon="-2.675454000">
        <ele>628.90</ele>
        <time>2015-01-17T09:10:26Z</time>
      </trkpt>
      <trkpt lat="42.392085000" lon="-2.675507000">
        <ele>628.60</ele>
        <time>2015-01-17T09:10:27Z</time>
      </trkpt>
      <trkpt lat="42.392069000" lon="-2.675556000">
        <ele>628.50</ele>
        <time>2015-01-17T09:10:28Z</time>
      </trkpt>
      <trkpt lat="42.392052000" lon="-2.675601000">
        <ele>628.30</ele>
        <time>2015-01-17T09:10:29Z</time>
      </trkpt>
      <trkpt lat="42.392038000" lon="-2.675640000">
        <ele>628.20</ele>
        <time>2015-01-17T09:10:30Z</time>
      </trkpt>
      <trkpt lat="42.392024000" lon="-2.675674000">
        <ele>628.20</ele>
        <time>2015-01-17T09:10:31Z</time>
      </trkpt>
      <trkpt lat="42.392012000" lon="-2.675701000">
        <ele>628.10</ele>
        <time>2015-01-17T09:10:32Z</time>
      </trkpt>
      <trkpt lat="42.392002000" lon="-2.675721000">
        <ele>628.00</ele>
        <time>2015-01-17T09:10:33Z</time>
      </trkpt>
      <trkpt lat="42.391992000" lon="-2.675737000">
        <ele>627.80</ele>
        <time>2015-01-17T09:10:34Z</time>
      </trkpt>
      <trkpt lat="42.391984000" lon="-2.675749000">
        <ele>627.70</ele>
        <time>2015-01-17T09:10:35Z</time>
      </trkpt>
      <trkpt lat="42.391968000" lon="-2.675761000">
        <ele>627.70</ele>
        <time>2015-01-17T09:10:36Z</time>
      </trkpt>
      <trkpt lat="42.391945000" lon="-2.675767000">
        <ele>627.60</ele>
        <time>2015-01-17T09:10:37Z</time>
      </trkpt>
      <trkpt lat="42.391919000" lon="-2.675773000">
        <ele>627.50</ele>
        <time>2015-01-17T09:10:38Z</time>
      </trkpt>
      <trkpt lat="42.391902000" lon="-2.675784000">
        <ele>627.40</ele>
        <time>2015-01-17T09:10:39Z</time>
      </trkpt>
      <trkpt lat="42.391874000" lon="-2.675815000">
        <ele>627.20</ele>
        <time>2015-01-17T09:10:41Z</time>
      </trkpt>
      <trkpt lat="42.391858000" lon="-2.675827000">
        <ele>627.10</ele>
        <time>2015-01-17T09:10:42Z</time>
      </trkpt>
      <trkpt lat="42.391845000" lon="-2.675840000">
        <ele>627.10</ele>
        <time>2015-01-17T09:10:43Z</time>
      </trkpt>
      <trkpt lat="42.391835000" lon="-2.675847000">
        <ele>627.00</ele>
        <time>2015-01-17T09:10:44Z</time>
      </trkpt>
      <trkpt lat="42.391819000" lon="-2.675852000">
        <ele>627.00</ele>
        <time>2015-01-17T09:10:45Z</time>
      </trkpt>
      <trkpt lat="42.391806000" lon="-2.675857000">
        <ele>626.90</ele>
        <time>2015-01-17T09:10:46Z</time>
      </trkpt>
      <trkpt lat="42.391794000" lon="-2.675862000">
        <ele>626.90</ele>
        <time>2015-01-17T09:10:47Z</time>
      </trkpt>
      <trkpt lat="42.391785000" lon="-2.675868000">
        <ele>626.90</ele>
        <time>2015-01-17T09:10:48Z</time>
      </trkpt>
      <trkpt lat="42.391776000" lon="-2.675873000">
        <ele>626.80</ele>
        <time>2015-01-17T09:10:49Z</time>
      </trkpt>
      <trkpt lat="42.391766000" lon="-2.675875000">
        <ele>626.70</ele>
        <time>2015-01-17T09:10:50Z</time>
      </trkpt>
      <trkpt lat="42.391758000" lon="-2.675880000">
        <ele>626.70</ele>
        <time>2015-01-17T09:10:51Z</time>
      </trkpt>
      <trkpt lat="42.391749000" lon="-2.675888000">
        <ele>626.70</ele>
        <time>2015-01-17T09:10:52Z</time>
      </trkpt>
      <trkpt lat="42.391742000" lon="-2.675899000">
        <ele>626.70</ele>
        <time>2015-01-17T09:10:53Z</time>
      </trkpt>
      <trkpt lat="42.391734000" lon="-2.675902000">
        <ele>626.70</ele>
        <time>2015-01-17T09:10:54Z</time>
      </trkpt>
      <trkpt lat="42.391720000" lon="-2.675903000">
        <ele>626.90</ele>
        <time>2015-01-17T09:10:55Z</time>
      </trkpt>
      <trkpt lat="42.391715000" lon="-2.675919000">
        <ele>627.10</ele>
        <time>2015-01-17T09:10:56Z</time>
      </trkpt>
      <trkpt lat="42.391706000" lon="-2.675930000">
        <ele>627.20</ele>
        <time>2015-01-17T09:10:57Z</time>
      </trkpt>
      <trkpt lat="42.391694000" lon="-2.675941000">
        <ele>627.30</ele>
        <time>2015-01-17T09:10:58Z</time>
      </trkpt>
      <trkpt lat="42.391688000" lon="-2.675958000">
        <ele>627.10</ele>
        <time>2015-01-17T09:10:59Z</time>
      </trkpt>
      <trkpt lat="42.391677000" lon="-2.675984000">
        <ele>627.00</ele>
        <time>2015-01-17T09:11:00Z</time>
      </trkpt>
      <trkpt lat="42.391668000" lon="-2.676011000">
        <ele>626.70</ele>
        <time>2015-01-17T09:11:01Z</time>
      </trkpt>
      <trkpt lat="42.391658000" lon="-2.676041000">
        <ele>626.60</ele>
        <time>2015-01-17T09:11:02Z</time>
      </trkpt>
      <trkpt lat="42.391645000" lon="-2.676067000">
        <ele>626.60</ele>
        <time>2015-01-17T09:11:03Z</time>
      </trkpt>
      <trkpt lat="42.391624000" lon="-2.676091000">
        <ele>626.60</ele>
        <time>2015-01-17T09:11:04Z</time>
      </trkpt>
      <trkpt lat="42.391607000" lon="-2.676117000">
        <ele>626.60</ele>
        <time>2015-01-17T09:11:05Z</time>
      </trkpt>
      <trkpt lat="42.391587000" lon="-2.676138000">
        <ele>626.70</ele>
        <time>2015-01-17T09:11:06Z</time>
      </trkpt>
      <trkpt lat="42.391567000" lon="-2.676160000">
        <ele>626.70</ele>
        <time>2015-01-17T09:11:07Z</time>
      </trkpt>
      <trkpt lat="42.391549000" lon="-2.676183000">
        <ele>626.70</ele>
        <time>2015-01-17T09:11:08Z</time>
      </trkpt>
      <trkpt lat="42.391533000" lon="-2.676205000">
        <ele>626.80</ele>
        <time>2015-01-17T09:11:09Z</time>
      </trkpt>
      <trkpt lat="42.391518000" lon="-2.676232000">
        <ele>626.80</ele>
        <time>2015-01-17T09:11:10Z</time>
      </trkpt>
      <trkpt lat="42.391502000" lon="-2.676258000">
        <ele>626.80</ele>
        <time>2015-01-17T09:11:11Z</time>
      </trkpt>
      <trkpt lat="42.391485000" lon="-2.676284000">
        <ele>626.80</ele>
        <time>2015-01-17T09:11:12Z</time>
      </trkpt>
      <trkpt lat="42.391468000" lon="-2.676308000">
        <ele>626.80</ele>
        <time>2015-01-17T09:11:13Z</time>
      </trkpt>
      <trkpt lat="42.391445000" lon="-2.676327000">
        <ele>626.80</ele>
        <time>2015-01-17T09:11:14Z</time>
      </trkpt>
      <trkpt lat="42.391413000" lon="-2.676345000">
        <ele>626.80</ele>
        <time>2015-01-17T09:11:15Z</time>
      </trkpt>
      <trkpt lat="42.391381000" lon="-2.676349000">
        <ele>626.90</ele>
        <time>2015-01-17T09:11:16Z</time>
      </trkpt>
      <trkpt lat="42.391352000" lon="-2.676360000">
        <ele>626.90</ele>
        <time>2015-01-17T09:11:17Z</time>
      </trkpt>
      <trkpt lat="42.391326000" lon="-2.676370000">
        <ele>626.90</ele>
        <time>2015-01-17T09:11:18Z</time>
      </trkpt>
      <trkpt lat="42.391300000" lon="-2.676384000">
        <ele>627.00</ele>
        <time>2015-01-17T09:11:19Z</time>
      </trkpt>
      <trkpt lat="42.391272000" lon="-2.676396000">
        <ele>627.10</ele>
        <time>2015-01-17T09:11:20Z</time>
      </trkpt>
      <trkpt lat="42.391247000" lon="-2.676408000">
        <ele>627.10</ele>
        <time>2015-01-17T09:11:21Z</time>
      </trkpt>
      <trkpt lat="42.391230000" lon="-2.676414000">
        <ele>627.20</ele>
        <time>2015-01-17T09:11:22Z</time>
      </trkpt>
      <trkpt lat="42.391212000" lon="-2.676420000">
        <ele>627.10</ele>
        <time>2015-01-17T09:11:23Z</time>
      </trkpt>
      <trkpt lat="42.391192000" lon="-2.676424000">
        <ele>627.00</ele>
        <time>2015-01-17T09:11:24Z</time>
      </trkpt>
      <trkpt lat="42.391173000" lon="-2.676429000">
        <ele>626.70</ele>
        <time>2015-01-17T09:11:25Z</time>
      </trkpt>
      <trkpt lat="42.391153000" lon="-2.676434000">
        <ele>626.50</ele>
        <time>2015-01-17T09:11:26Z</time>
      </trkpt>
      <trkpt lat="42.391132000" lon="-2.676438000">
        <ele>626.40</ele>
        <time>2015-01-17T09:11:27Z</time>
      </trkpt>
      <trkpt lat="42.391116000" lon="-2.676443000">
        <ele>626.30</ele>
        <time>2015-01-17T09:11:28Z</time>
      </trkpt>
      <trkpt lat="42.391098000" lon="-2.676447000">
        <ele>626.20</ele>
        <time>2015-01-17T09:11:29Z</time>
      </trkpt>
      <trkpt lat="42.391080000" lon="-2.676436000">
        <ele>626.10</ele>
        <time>2015-01-17T09:11:30Z</time>
      </trkpt>
      <trkpt lat="42.391060000" lon="-2.676415000">
        <ele>625.70</ele>
        <time>2015-01-17T09:11:31Z</time>
      </trkpt>
      <trkpt lat="42.391036000" lon="-2.676391000">
        <ele>625.40</ele>
        <time>2015-01-17T09:11:32Z</time>
      </trkpt>
      <trkpt lat="42.391003000" lon="-2.676365000">
        <ele>625.10</ele>
        <time>2015-01-17T09:11:33Z</time>
      </trkpt>
      <trkpt lat="42.390966000" lon="-2.676332000">
        <ele>624.80</ele>
        <time>2015-01-17T09:11:34Z</time>
      </trkpt>
      <trkpt lat="42.390921000" lon="-2.676302000">
        <ele>624.30</ele>
        <time>2015-01-17T09:11:35Z</time>
      </trkpt>
      <trkpt lat="42.390872000" lon="-2.676282000">
        <ele>623.90</ele>
        <time>2015-01-17T09:11:36Z</time>
      </trkpt>
      <trkpt lat="42.390820000" lon="-2.676270000">
        <ele>623.40</ele>
        <time>2015-01-17T09:11:37Z</time>
      </trkpt>
      <trkpt lat="42.390770000" lon="-2.676265000">
        <ele>623.00</ele>
        <time>2015-01-17T09:11:38Z</time>
      </trkpt>
      <trkpt lat="42.390719000" lon="-2.676267000">
        <ele>622.60</ele>
        <time>2015-01-17T09:11:39Z</time>
      </trkpt>
      <trkpt lat="42.390670000" lon="-2.676269000">
        <ele>622.30</ele>
        <time>2015-01-17T09:11:40Z</time>
      </trkpt>
      <trkpt lat="42.390578000" lon="-2.676285000">
        <ele>621.90</ele>
        <time>2015-01-17T09:11:42Z</time>
      </trkpt>
      <trkpt lat="42.390534000" lon="-2.676296000">
        <ele>621.60</ele>
        <time>2015-01-17T09:11:43Z</time>
      </trkpt>
      <trkpt lat="42.390489000" lon="-2.676305000">
        <ele>621.40</ele>
        <time>2015-01-17T09:11:44Z</time>
      </trkpt>
      <trkpt lat="42.390442000" lon="-2.676320000">
        <ele>621.20</ele>
        <time>2015-01-17T09:11:45Z</time>
      </trkpt>
      <trkpt lat="42.390395000" lon="-2.676343000">
        <ele>621.00</ele>
        <time>2015-01-17T09:11:46Z</time>
      </trkpt>
      <trkpt lat="42.390358000" lon="-2.676373000">
        <ele>620.90</ele>
        <time>2015-01-17T09:11:47Z</time>
      </trkpt>
      <trkpt lat="42.390320000" lon="-2.676400000">
        <ele>620.80</ele>
        <time>2015-01-17T09:11:48Z</time>
      </trkpt>
      <trkpt lat="42.390284000" lon="-2.676435000">
        <ele>620.60</ele>
        <time>2015-01-17T09:11:49Z</time>
      </trkpt>
      <trkpt lat="42.390253000" lon="-2.676471000">
        <ele>620.40</ele>
        <time>2015-01-17T09:11:50Z</time>
      </trkpt>
      <trkpt lat="42.390226000" lon="-2.676506000">
        <ele>620.30</ele>
        <time>2015-01-17T09:11:51Z</time>
      </trkpt>
      <trkpt lat="42.390197000" lon="-2.676541000">
        <ele>620.10</ele>
        <time>2015-01-17T09:11:52Z</time>
      </trkpt>
      <trkpt lat="42.390169000" lon="-2.676571000">
        <ele>619.80</ele>
        <time>2015-01-17T09:11:53Z</time>
      </trkpt>
      <trkpt lat="42.390143000" lon="-2.676596000">
        <ele>619.60</ele>
        <time>2015-01-17T09:11:54Z</time>
      </trkpt>
      <trkpt lat="42.390122000" lon="-2.676623000">
        <ele>619.30</ele>
        <time>2015-01-17T09:11:55Z</time>
      </trkpt>
      <trkpt lat="42.390104000" lon="-2.676648000">
        <ele>619.10</ele>
        <time>2015-01-17T09:11:56Z</time>
      </trkpt>
      <trkpt lat="42.390086000" lon="-2.676672000">
        <ele>618.90</ele>
        <time>2015-01-17T09:11:57Z</time>
      </trkpt>
      <trkpt lat="42.390071000" lon="-2.676694000">
        <ele>618.70</ele>
        <time>2015-01-17T09:11:58Z</time>
      </trkpt>
      <trkpt lat="42.390057000" lon="-2.676713000">
        <ele>618.60</ele>
        <time>2015-01-17T09:11:59Z</time>
      </trkpt>
      <trkpt lat="42.390041000" lon="-2.676732000">
        <ele>618.50</ele>
        <time>2015-01-17T09:12:00Z</time>
      </trkpt>
      <trkpt lat="42.390027000" lon="-2.676747000">
        <ele>618.40</ele>
        <time>2015-01-17T09:12:01Z</time>
      </trkpt>
      <trkpt lat="42.390015000" lon="-2.676763000">
        <ele>618.40</ele>
        <time>2015-01-17T09:12:02Z</time>
      </trkpt>
      <trkpt lat="42.390002000" lon="-2.676780000">
        <ele>618.50</ele>
        <time>2015-01-17T09:12:03Z</time>
      </trkpt>
      <trkpt lat="42.389990000" lon="-2.676797000">
        <ele>618.60</ele>
        <time>2015-01-17T09:12:04Z</time>
      </trkpt>
      <trkpt lat="42.389981000" lon="-2.676821000">
        <ele>618.70</ele>
        <time>2015-01-17T09:12:05Z</time>
      </trkpt>
      <trkpt lat="42.389975000" lon="-2.676838000">
        <ele>618.80</ele>
        <time>2015-01-17T09:12:06Z</time>
      </trkpt>
      <trkpt lat="42.389966000" lon="-2.676854000">
        <ele>618.80</ele>
        <time>2015-01-17T09:12:07Z</time>
      </trkpt>
      <trkpt lat="42.389956000" lon="-2.676865000">
        <ele>618.90</ele>
        <time>2015-01-17T09:12:08Z</time>
      </trkpt>
      <trkpt lat="42.389948000" lon="-2.676880000">
        <ele>618.90</ele>
        <time>2015-01-17T09:12:09Z</time>
      </trkpt>
      <trkpt lat="42.389938000" lon="-2.676894000">
        <ele>618.90</ele>
        <time>2015-01-17T09:12:10Z</time>
      </trkpt>
      <trkpt lat="42.389927000" lon="-2.676906000">
        <ele>619.00</ele>
        <time>2015-01-17T09:12:11Z</time>
      </trkpt>
      <trkpt lat="42.389917000" lon="-2.676914000">
        <ele>619.00</ele>
        <time>2015-01-17T09:12:12Z</time>
      </trkpt>
      <trkpt lat="42.389910000" lon="-2.676923000">
        <ele>619.00</ele>
        <time>2015-01-17T09:12:13Z</time>
      </trkpt>
      <trkpt lat="42.389900000" lon="-2.676937000">
        <ele>619.00</ele>
        <time>2015-01-17T09:12:14Z</time>
      </trkpt>
      <trkpt lat="42.389890000" lon="-2.676940000">
        <ele>619.00</ele>
        <time>2015-01-17T09:12:15Z</time>
      </trkpt>
      <trkpt lat="42.389878000" lon="-2.676949000">
        <ele>619.00</ele>
        <time>2015-01-17T09:12:16Z</time>
      </trkpt>
      <trkpt lat="42.389869000" lon="-2.676961000">
        <ele>619.10</ele>
        <time>2015-01-17T09:12:17Z</time>
      </trkpt>
      <trkpt lat="42.389859000" lon="-2.676979000">
        <ele>619.20</ele>
        <time>2015-01-17T09:12:18Z</time>
      </trkpt>
      <trkpt lat="42.389845000" lon="-2.676992000">
        <ele>619.30</ele>
        <time>2015-01-17T09:12:19Z</time>
      </trkpt>
      <trkpt lat="42.389832000" lon="-2.677007000">
        <ele>619.40</ele>
        <time>2015-01-17T09:12:20Z</time>
      </trkpt>
      <trkpt lat="42.389819000" lon="-2.677023000">
        <ele>619.40</ele>
        <time>2015-01-17T09:12:21Z</time>
      </trkpt>
      <trkpt lat="42.389807000" lon="-2.677036000">
        <ele>619.50</ele>
        <time>2015-01-17T09:12:22Z</time>
      </trkpt>
      <trkpt lat="42.389795000" lon="-2.677046000">
        <ele>619.50</ele>
        <time>2015-01-17T09:12:23Z</time>
      </trkpt>
      <trkpt lat="42.389783000" lon="-2.677055000">
        <ele>619.60</ele>
        <time>2015-01-17T09:12:24Z</time>
      </trkpt>
      <trkpt lat="42.389770000" lon="-2.677068000">
        <ele>619.70</ele>
        <time>2015-01-17T09:12:25Z</time>
      </trkpt>
      <trkpt lat="42.389757000" lon="-2.677085000">
        <ele>619.70</ele>
        <time>2015-01-17T09:12:26Z</time>
      </trkpt>
      <trkpt lat="42.389744000" lon="-2.677104000">
        <ele>619.80</ele>
        <time>2015-01-17T09:12:27Z</time>
      </trkpt>
      <trkpt lat="42.389729000" lon="-2.677119000">
        <ele>619.90</ele>
        <time>2015-01-17T09:12:28Z</time>
      </trkpt>
      <trkpt lat="42.389715000" lon="-2.677136000">
        <ele>620.00</ele>
        <time>2015-01-17T09:12:29Z</time>
      </trkpt>
      <trkpt lat="42.389700000" lon="-2.677147000">
        <ele>620.20</ele>
        <time>2015-01-17T09:12:30Z</time>
      </trkpt>
      <trkpt lat="42.389688000" lon="-2.677163000">
        <ele>620.30</ele>
        <time>2015-01-17T09:12:31Z</time>
      </trkpt>
      <trkpt lat="42.389673000" lon="-2.677176000">
        <ele>620.40</ele>
        <time>2015-01-17T09:12:32Z</time>
      </trkpt>
      <trkpt lat="42.389656000" lon="-2.677194000">
        <ele>620.40</ele>
        <time>2015-01-17T09:12:33Z</time>
      </trkpt>
      <trkpt lat="42.389644000" lon="-2.677209000">
        <ele>620.50</ele>
        <time>2015-01-17T09:12:34Z</time>
      </trkpt>
      <trkpt lat="42.389629000" lon="-2.677224000">
        <ele>620.50</ele>
        <time>2015-01-17T09:12:35Z</time>
      </trkpt>
      <trkpt lat="42.389612000" lon="-2.677240000">
        <ele>620.50</ele>
        <time>2015-01-17T09:12:36Z</time>
      </trkpt>
      <trkpt lat="42.389594000" lon="-2.677256000">
        <ele>620.50</ele>
        <time>2015-01-17T09:12:37Z</time>
      </trkpt>
      <trkpt lat="42.389578000" lon="-2.677274000">
        <ele>620.60</ele>
        <time>2015-01-17T09:12:38Z</time>
      </trkpt>
      <trkpt lat="42.389561000" lon="-2.677288000">
        <ele>620.60</ele>
        <time>2015-01-17T09:12:39Z</time>
      </trkpt>
      <trkpt lat="42.389543000" lon="-2.677309000">
        <ele>620.60</ele>
        <time>2015-01-17T09:12:40Z</time>
      </trkpt>
      <trkpt lat="42.389526000" lon="-2.677329000">
        <ele>620.80</ele>
        <time>2015-01-17T09:12:41Z</time>
      </trkpt>
      <trkpt lat="42.389490000" lon="-2.677367000">
        <ele>621.00</ele>
        <time>2015-01-17T09:12:43Z</time>
      </trkpt>
      <trkpt lat="42.389467000" lon="-2.677386000">
        <ele>621.10</ele>
        <time>2015-01-17T09:12:44Z</time>
      </trkpt>
      <trkpt lat="42.389446000" lon="-2.677405000">
        <ele>621.10</ele>
        <time>2015-01-17T09:12:45Z</time>
      </trkpt>
      <trkpt lat="42.389424000" lon="-2.677427000">
        <ele>621.00</ele>
        <time>2015-01-17T09:12:46Z</time>
      </trkpt>
      <trkpt lat="42.389402000" lon="-2.677450000">
        <ele>621.00</ele>
        <time>2015-01-17T09:12:47Z</time>
      </trkpt>
      <trkpt lat="42.389380000" lon="-2.677473000">
        <ele>620.90</ele>
        <time>2015-01-17T09:12:48Z</time>
      </trkpt>
      <trkpt lat="42.389357000" lon="-2.677495000">
        <ele>621.00</ele>
        <time>2015-01-17T09:12:49Z</time>
      </trkpt>
      <trkpt lat="42.389335000" lon="-2.677517000">
        <ele>621.00</ele>
        <time>2015-01-17T09:12:50Z</time>
      </trkpt>
      <trkpt lat="42.389313000" lon="-2.677537000">
        <ele>621.10</ele>
        <time>2015-01-17T09:12:51Z</time>
      </trkpt>
      <trkpt lat="42.389291000" lon="-2.677564000">
        <ele>621.10</ele>
        <time>2015-01-17T09:12:52Z</time>
      </trkpt>
      <trkpt lat="42.389267000" lon="-2.677586000">
        <ele>621.00</ele>
        <time>2015-01-17T09:12:53Z</time>
      </trkpt>
      <trkpt lat="42.389245000" lon="-2.677603000">
        <ele>621.00</ele>
        <time>2015-01-17T09:12:54Z</time>
      </trkpt>
      <trkpt lat="42.389222000" lon="-2.677625000">
        <ele>621.00</ele>
        <time>2015-01-17T09:12:55Z</time>
      </trkpt>
      <trkpt lat="42.389198000" lon="-2.677649000">
        <ele>621.00</ele>
        <time>2015-01-17T09:12:56Z</time>
      </trkpt>
      <trkpt lat="42.389174000" lon="-2.677673000">
        <ele>621.00</ele>
        <time>2015-01-17T09:12:57Z</time>
      </trkpt>
      <trkpt lat="42.389151000" lon="-2.677694000">
        <ele>621.00</ele>
        <time>2015-01-17T09:12:58Z</time>
      </trkpt>
      <trkpt lat="42.389127000" lon="-2.677715000">
        <ele>621.00</ele>
        <time>2015-01-17T09:12:59Z</time>
      </trkpt>
      <trkpt lat="42.389102000" lon="-2.677737000">
        <ele>621.00</ele>
        <time>2015-01-17T09:13:00Z</time>
      </trkpt>
      <trkpt lat="42.389075000" lon="-2.677761000">
        <ele>621.00</ele>
        <time>2015-01-17T09:13:01Z</time>
      </trkpt>
      <trkpt lat="42.389049000" lon="-2.677785000">
        <ele>621.00</ele>
        <time>2015-01-17T09:13:02Z</time>
      </trkpt>
      <trkpt lat="42.389023000" lon="-2.677807000">
        <ele>620.90</ele>
        <time>2015-01-17T09:13:03Z</time>
      </trkpt>
      <trkpt lat="42.388998000" lon="-2.677833000">
        <ele>620.80</ele>
        <time>2015-01-17T09:13:04Z</time>
      </trkpt>
      <trkpt lat="42.388972000" lon="-2.677859000">
        <ele>620.80</ele>
        <time>2015-01-17T09:13:05Z</time>
      </trkpt>
      <trkpt lat="42.388944000" lon="-2.677886000">
        <ele>620.80</ele>
        <time>2015-01-17T09:13:06Z</time>
      </trkpt>
      <trkpt lat="42.388917000" lon="-2.677911000">
        <ele>620.80</ele>
        <time>2015-01-17T09:13:07Z</time>
      </trkpt>
      <trkpt lat="42.388890000" lon="-2.677931000">
        <ele>620.70</ele>
        <time>2015-01-17T09:13:08Z</time>
      </trkpt>
      <trkpt lat="42.388863000" lon="-2.677957000">
        <ele>620.80</ele>
        <time>2015-01-17T09:13:09Z</time>
      </trkpt>
      <trkpt lat="42.388838000" lon="-2.677983000">
        <ele>620.80</ele>
        <time>2015-01-17T09:13:10Z</time>
      </trkpt>
      <trkpt lat="42.388810000" lon="-2.678008000">
        <ele>620.90</ele>
        <time>2015-01-17T09:13:11Z</time>
      </trkpt>
      <trkpt lat="42.388783000" lon="-2.678038000">
        <ele>620.90</ele>
        <time>2015-01-17T09:13:12Z</time>
      </trkpt>
      <trkpt lat="42.388755000" lon="-2.678068000">
        <ele>620.70</ele>
        <time>2015-01-17T09:13:13Z</time>
      </trkpt>
      <trkpt lat="42.388730000" lon="-2.678094000">
        <ele>620.60</ele>
        <time>2015-01-17T09:13:14Z</time>
      </trkpt>
      <trkpt lat="42.388709000" lon="-2.678123000">
        <ele>620.50</ele>
        <time>2015-01-17T09:13:15Z</time>
      </trkpt>
      <trkpt lat="42.388687000" lon="-2.678151000">
        <ele>620.40</ele>
        <time>2015-01-17T09:13:16Z</time>
      </trkpt>
      <trkpt lat="42.388666000" lon="-2.678178000">
        <ele>620.40</ele>
        <time>2015-01-17T09:13:17Z</time>
      </trkpt>
      <trkpt lat="42.388650000" lon="-2.678209000">
        <ele>620.40</ele>
        <time>2015-01-17T09:13:18Z</time>
      </trkpt>
      <trkpt lat="42.388633000" lon="-2.678235000">
        <ele>620.30</ele>
        <time>2015-01-17T09:13:19Z</time>
      </trkpt>
      <trkpt lat="42.388622000" lon="-2.678268000">
        <ele>620.30</ele>
        <time>2015-01-17T09:13:20Z</time>
      </trkpt>
      <trkpt lat="42.388610000" lon="-2.678303000">
        <ele>620.60</ele>
        <time>2015-01-17T09:13:21Z</time>
      </trkpt>
      <trkpt lat="42.388601000" lon="-2.678336000">
        <ele>620.80</ele>
        <time>2015-01-17T09:13:22Z</time>
      </trkpt>
      <trkpt lat="42.388594000" lon="-2.678374000">
        <ele>621.10</ele>
        <time>2015-01-17T09:13:23Z</time>
      </trkpt>
      <trkpt lat="42.388588000" lon="-2.678412000">
        <ele>621.20</ele>
        <time>2015-01-17T09:13:24Z</time>
      </trkpt>
      <trkpt lat="42.388586000" lon="-2.678446000">
        <ele>621.40</ele>
        <time>2015-01-17T09:13:25Z</time>
      </trkpt>
      <trkpt lat="42.388588000" lon="-2.678482000">
        <ele>621.40</ele>
        <time>2015-01-17T09:13:26Z</time>
      </trkpt>
      <trkpt lat="42.388593000" lon="-2.678524000">
        <ele>621.50</ele>
        <time>2015-01-17T09:13:27Z</time>
      </trkpt>
      <trkpt lat="42.388599000" lon="-2.678560000">
        <ele>621.60</ele>
        <time>2015-01-17T09:13:28Z</time>
      </trkpt>
      <trkpt lat="42.388608000" lon="-2.678596000">
        <ele>621.80</ele>
        <time>2015-01-17T09:13:29Z</time>
      </trkpt>
      <trkpt lat="42.388617000" lon="-2.678631000">
        <ele>622.00</ele>
        <time>2015-01-17T09:13:30Z</time>
      </trkpt>
      <trkpt lat="42.388625000" lon="-2.678671000">
        <ele>622.20</ele>
        <time>2015-01-17T09:13:31Z</time>
      </trkpt>
      <trkpt lat="42.388636000" lon="-2.678705000">
        <ele>622.30</ele>
        <time>2015-01-17T09:13:32Z</time>
      </trkpt>
      <trkpt lat="42.388647000" lon="-2.678740000">
        <ele>622.50</ele>
        <time>2015-01-17T09:13:33Z</time>
      </trkpt>
      <trkpt lat="42.388661000" lon="-2.678777000">
        <ele>622.50</ele>
        <time>2015-01-17T09:13:34Z</time>
      </trkpt>
      <trkpt lat="42.388672000" lon="-2.678816000">
        <ele>622.70</ele>
        <time>2015-01-17T09:13:35Z</time>
      </trkpt>
      <trkpt lat="42.388682000" lon="-2.678852000">
        <ele>622.90</ele>
        <time>2015-01-17T09:13:36Z</time>
      </trkpt>
      <trkpt lat="42.388691000" lon="-2.678888000">
        <ele>623.30</ele>
        <time>2015-01-17T09:13:37Z</time>
      </trkpt>
      <trkpt lat="42.388697000" lon="-2.678926000">
        <ele>623.60</ele>
        <time>2015-01-17T09:13:38Z</time>
      </trkpt>
      <trkpt lat="42.388700000" lon="-2.678966000">
        <ele>623.90</ele>
        <time>2015-01-17T09:13:39Z</time>
      </trkpt>
      <trkpt lat="42.388698000" lon="-2.679008000">
        <ele>624.10</ele>
        <time>2015-01-17T09:13:40Z</time>
      </trkpt>
      <trkpt lat="42.388696000" lon="-2.679050000">
        <ele>624.10</ele>
        <time>2015-01-17T09:13:41Z</time>
      </trkpt>
      <trkpt lat="42.388689000" lon="-2.679095000">
        <ele>624.10</ele>
        <time>2015-01-17T09:13:42Z</time>
      </trkpt>
      <trkpt lat="42.388671000" lon="-2.679196000">
        <ele>624.10</ele>
        <time>2015-01-17T09:13:44Z</time>
      </trkpt>
      <trkpt lat="42.388669000" lon="-2.679257000">
        <ele>623.90</ele>
        <time>2015-01-17T09:13:45Z</time>
      </trkpt>
      <trkpt lat="42.388664000" lon="-2.679323000">
        <ele>623.80</ele>
        <time>2015-01-17T09:13:46Z</time>
      </trkpt>
      <trkpt lat="42.388654000" lon="-2.679394000">
        <ele>623.80</ele>
        <time>2015-01-17T09:13:47Z</time>
      </trkpt>
      <trkpt lat="42.388642000" lon="-2.679470000">
        <ele>623.90</ele>
        <time>2015-01-17T09:13:48Z</time>
      </trkpt>
      <trkpt lat="42.388629000" lon="-2.679547000">
        <ele>623.90</ele>
        <time>2015-01-17T09:13:49Z</time>
      </trkpt>
      <trkpt lat="42.388618000" lon="-2.679626000">
        <ele>623.90</ele>
        <time>2015-01-17T09:13:50Z</time>
      </trkpt>
      <trkpt lat="42.388609000" lon="-2.679696000">
        <ele>623.90</ele>
        <time>2015-01-17T09:13:51Z</time>
      </trkpt>
      <trkpt lat="42.388598000" lon="-2.679762000">
        <ele>623.90</ele>
        <time>2015-01-17T09:13:52Z</time>
      </trkpt>
      <trkpt lat="42.388588000" lon="-2.679830000">
        <ele>623.60</ele>
        <time>2015-01-17T09:13:53Z</time>
      </trkpt>
      <trkpt lat="42.388580000" lon="-2.679905000">
        <ele>623.50</ele>
        <time>2015-01-17T09:13:54Z</time>
      </trkpt>
      <trkpt lat="42.388571000" lon="-2.679985000">
        <ele>622.90</ele>
        <time>2015-01-17T09:13:55Z</time>
      </trkpt>
      <trkpt lat="42.388562000" lon="-2.680069000">
        <ele>622.40</ele>
        <time>2015-01-17T09:13:56Z</time>
      </trkpt>
      <trkpt lat="42.388552000" lon="-2.680154000">
        <ele>622.00</ele>
        <time>2015-01-17T09:13:57Z</time>
      </trkpt>
      <trkpt lat="42.388543000" lon="-2.680243000">
        <ele>621.70</ele>
        <time>2015-01-17T09:13:58Z</time>
      </trkpt>
      <trkpt lat="42.388533000" lon="-2.680336000">
        <ele>621.30</ele>
        <time>2015-01-17T09:13:59Z</time>
      </trkpt>
      <trkpt lat="42.388523000" lon="-2.680432000">
        <ele>620.90</ele>
        <time>2015-01-17T09:14:00Z</time>
      </trkpt>
      <trkpt lat="42.388512000" lon="-2.680531000">
        <ele>620.60</ele>
        <time>2015-01-17T09:14:01Z</time>
      </trkpt>
      <trkpt lat="42.388501000" lon="-2.680631000">
        <ele>620.40</ele>
        <time>2015-01-17T09:14:02Z</time>
      </trkpt>
      <trkpt lat="42.388490000" lon="-2.680731000">
        <ele>620.00</ele>
        <time>2015-01-17T09:14:03Z</time>
      </trkpt>
      <trkpt lat="42.388482000" lon="-2.680830000">
        <ele>619.70</ele>
        <time>2015-01-17T09:14:04Z</time>
      </trkpt>
      <trkpt lat="42.388475000" lon="-2.680930000">
        <ele>619.40</ele>
        <time>2015-01-17T09:14:05Z</time>
      </trkpt>
      <trkpt lat="42.388467000" lon="-2.681029000">
        <ele>619.10</ele>
        <time>2015-01-17T09:14:06Z</time>
      </trkpt>
      <trkpt lat="42.388456000" lon="-2.681127000">
        <ele>618.50</ele>
        <time>2015-01-17T09:14:07Z</time>
      </trkpt>
      <trkpt lat="42.388443000" lon="-2.681224000">
        <ele>618.10</ele>
        <time>2015-01-17T09:14:08Z</time>
      </trkpt>
      <trkpt lat="42.388431000" lon="-2.681322000">
        <ele>617.80</ele>
        <time>2015-01-17T09:14:09Z</time>
      </trkpt>
      <trkpt lat="42.388419000" lon="-2.681420000">
        <ele>617.50</ele>
        <time>2015-01-17T09:14:10Z</time>
      </trkpt>
      <trkpt lat="42.388409000" lon="-2.681515000">
        <ele>617.20</ele>
        <time>2015-01-17T09:14:11Z</time>
      </trkpt>
      <trkpt lat="42.388400000" lon="-2.681613000">
        <ele>617.00</ele>
        <time>2015-01-17T09:14:12Z</time>
      </trkpt>
      <trkpt lat="42.388391000" lon="-2.681712000">
        <ele>616.80</ele>
        <time>2015-01-17T09:14:13Z</time>
      </trkpt>
      <trkpt lat="42.388380000" lon="-2.681809000">
        <ele>616.70</ele>
        <time>2015-01-17T09:14:14Z</time>
      </trkpt>
      <trkpt lat="42.388371000" lon="-2.681907000">
        <ele>616.50</ele>
        <time>2015-01-17T09:14:15Z</time>
      </trkpt>
      <trkpt lat="42.388360000" lon="-2.682001000">
        <ele>616.30</ele>
        <time>2015-01-17T09:14:16Z</time>
      </trkpt>
      <trkpt lat="42.388350000" lon="-2.682094000">
        <ele>616.00</ele>
        <time>2015-01-17T09:14:17Z</time>
      </trkpt>
      <trkpt lat="42.388341000" lon="-2.682181000">
        <ele>615.80</ele>
        <time>2015-01-17T09:14:18Z</time>
      </trkpt>
      <trkpt lat="42.388333000" lon="-2.682271000">
        <ele>615.70</ele>
        <time>2015-01-17T09:14:19Z</time>
      </trkpt>
      <trkpt lat="42.388324000" lon="-2.682364000">
        <ele>615.60</ele>
        <time>2015-01-17T09:14:20Z</time>
      </trkpt>
      <trkpt lat="42.388316000" lon="-2.682457000">
        <ele>615.50</ele>
        <time>2015-01-17T09:14:21Z</time>
      </trkpt>
      <trkpt lat="42.388307000" lon="-2.682547000">
        <ele>615.40</ele>
        <time>2015-01-17T09:14:22Z</time>
      </trkpt>
      <trkpt lat="42.388298000" lon="-2.682637000">
        <ele>615.40</ele>
        <time>2015-01-17T09:14:23Z</time>
      </trkpt>
      <trkpt lat="42.388288000" lon="-2.682730000">
        <ele>615.40</ele>
        <time>2015-01-17T09:14:24Z</time>
      </trkpt>
      <trkpt lat="42.388279000" lon="-2.682822000">
        <ele>615.30</ele>
        <time>2015-01-17T09:14:25Z</time>
      </trkpt>
      <trkpt lat="42.388269000" lon="-2.682914000">
        <ele>615.30</ele>
        <time>2015-01-17T09:14:26Z</time>
      </trkpt>
      <trkpt lat="42.388262000" lon="-2.683007000">
        <ele>615.10</ele>
        <time>2015-01-17T09:14:27Z</time>
      </trkpt>
      <trkpt lat="42.388257000" lon="-2.683099000">
        <ele>614.90</ele>
        <time>2015-01-17T09:14:28Z</time>
      </trkpt>
      <trkpt lat="42.388254000" lon="-2.683194000">
        <ele>614.70</ele>
        <time>2015-01-17T09:14:29Z</time>
      </trkpt>
      <trkpt lat="42.388257000" lon="-2.683286000">
        <ele>614.50</ele>
        <time>2015-01-17T09:14:30Z</time>
      </trkpt>
      <trkpt lat="42.388259000" lon="-2.683375000">
        <ele>614.40</ele>
        <time>2015-01-17T09:14:31Z</time>
      </trkpt>
      <trkpt lat="42.388265000" lon="-2.683462000">
        <ele>614.30</ele>
        <time>2015-01-17T09:14:32Z</time>
      </trkpt>
      <trkpt lat="42.388274000" lon="-2.683548000">
        <ele>614.20</ele>
        <time>2015-01-17T09:14:33Z</time>
      </trkpt>
      <trkpt lat="42.388285000" lon="-2.683632000">
        <ele>614.20</ele>
        <time>2015-01-17T09:14:34Z</time>
      </trkpt>
      <trkpt lat="42.388299000" lon="-2.683721000">
        <ele>614.10</ele>
        <time>2015-01-17T09:14:35Z</time>
      </trkpt>
      <trkpt lat="42.388314000" lon="-2.683808000">
        <ele>614.10</ele>
        <time>2015-01-17T09:14:36Z</time>
      </trkpt>
      <trkpt lat="42.388332000" lon="-2.683894000">
        <ele>613.90</ele>
        <time>2015-01-17T09:14:37Z</time>
      </trkpt>
      <trkpt lat="42.388348000" lon="-2.683981000">
        <ele>613.70</ele>
        <time>2015-01-17T09:14:38Z</time>
      </trkpt>
      <trkpt lat="42.388368000" lon="-2.684070000">
        <ele>613.30</ele>
        <time>2015-01-17T09:14:39Z</time>
      </trkpt>
      <trkpt lat="42.388388000" lon="-2.684159000">
        <ele>613.10</ele>
        <time>2015-01-17T09:14:40Z</time>
      </trkpt>
      <trkpt lat="42.388407000" lon="-2.684247000">
        <ele>612.90</ele>
        <time>2015-01-17T09:14:41Z</time>
      </trkpt>
      <trkpt lat="42.388425000" lon="-2.684333000">
        <ele>612.70</ele>
        <time>2015-01-17T09:14:42Z</time>
      </trkpt>
      <trkpt lat="42.388444000" lon="-2.684421000">
        <ele>612.60</ele>
        <time>2015-01-17T09:14:43Z</time>
      </trkpt>
      <trkpt lat="42.388482000" lon="-2.684602000">
        <ele>612.50</ele>
        <time>2015-01-17T09:14:45Z</time>
      </trkpt>
      <trkpt lat="42.388503000" lon="-2.684691000">
        <ele>612.40</ele>
        <time>2015-01-17T09:14:46Z</time>
      </trkpt>
      <trkpt lat="42.388527000" lon="-2.684779000">
        <ele>612.40</ele>
        <time>2015-01-17T09:14:47Z</time>
      </trkpt>
      <trkpt lat="42.388552000" lon="-2.684868000">
        <ele>612.40</ele>
        <time>2015-01-17T09:14:48Z</time>
      </trkpt>
      <trkpt lat="42.388580000" lon="-2.684953000">
        <ele>612.50</ele>
        <time>2015-01-17T09:14:49Z</time>
      </trkpt>
      <trkpt lat="42.388610000" lon="-2.685032000">
        <ele>612.50</ele>
        <time>2015-01-17T09:14:50Z</time>
      </trkpt>
      <trkpt lat="42.388641000" lon="-2.685109000">
        <ele>612.60</ele>
        <time>2015-01-17T09:14:51Z</time>
      </trkpt>
      <trkpt lat="42.388672000" lon="-2.685185000">
        <ele>612.70</ele>
        <time>2015-01-17T09:14:52Z</time>
      </trkpt>
      <trkpt lat="42.388707000" lon="-2.685262000">
        <ele>612.40</ele>
        <time>2015-01-17T09:14:53Z</time>
      </trkpt>
      <trkpt lat="42.388739000" lon="-2.685340000">
        <ele>612.30</ele>
        <time>2015-01-17T09:14:54Z</time>
      </trkpt>
      <trkpt lat="42.388771000" lon="-2.685422000">
        <ele>612.10</ele>
        <time>2015-01-17T09:14:55Z</time>
      </trkpt>
      <trkpt lat="42.388804000" lon="-2.685504000">
        <ele>612.00</ele>
        <time>2015-01-17T09:14:56Z</time>
      </trkpt>
      <trkpt lat="42.388838000" lon="-2.685584000">
        <ele>612.00</ele>
        <time>2015-01-17T09:14:57Z</time>
      </trkpt>
      <trkpt lat="42.388873000" lon="-2.685663000">
        <ele>611.90</ele>
        <time>2015-01-17T09:14:58Z</time>
      </trkpt>
      <trkpt lat="42.388909000" lon="-2.685743000">
        <ele>611.60</ele>
        <time>2015-01-17T09:14:59Z</time>
      </trkpt>
      <trkpt lat="42.388944000" lon="-2.685822000">
        <ele>611.30</ele>
        <time>2015-01-17T09:15:00Z</time>
      </trkpt>
      <trkpt lat="42.388978000" lon="-2.685899000">
        <ele>611.10</ele>
        <time>2015-01-17T09:15:01Z</time>
      </trkpt>
      <trkpt lat="42.389011000" lon="-2.685973000">
        <ele>611.00</ele>
        <time>2015-01-17T09:15:02Z</time>
      </trkpt>
      <trkpt lat="42.389045000" lon="-2.686045000">
        <ele>610.90</ele>
        <time>2015-01-17T09:15:03Z</time>
      </trkpt>
      <trkpt lat="42.389080000" lon="-2.686119000">
        <ele>610.80</ele>
        <time>2015-01-17T09:15:04Z</time>
      </trkpt>
      <trkpt lat="42.389113000" lon="-2.686190000">
        <ele>610.70</ele>
        <time>2015-01-17T09:15:05Z</time>
      </trkpt>
      <trkpt lat="42.389146000" lon="-2.686262000">
        <ele>610.70</ele>
        <time>2015-01-17T09:15:06Z</time>
      </trkpt>
      <trkpt lat="42.389177000" lon="-2.686339000">
        <ele>610.70</ele>
        <time>2015-01-17T09:15:07Z</time>
      </trkpt>
      <trkpt lat="42.389202000" lon="-2.686415000">
        <ele>610.70</ele>
        <time>2015-01-17T09:15:08Z</time>
      </trkpt>
      <trkpt lat="42.389222000" lon="-2.686495000">
        <ele>610.70</ele>
        <time>2015-01-17T09:15:09Z</time>
      </trkpt>
      <trkpt lat="42.389237000" lon="-2.686578000">
        <ele>610.60</ele>
        <time>2015-01-17T09:15:10Z</time>
      </trkpt>
      <trkpt lat="42.389244000" lon="-2.686659000">
        <ele>610.70</ele>
        <time>2015-01-17T09:15:11Z</time>
      </trkpt>
      <trkpt lat="42.389243000" lon="-2.686742000">
        <ele>610.70</ele>
        <time>2015-01-17T09:15:12Z</time>
      </trkpt>
      <trkpt lat="42.389241000" lon="-2.686820000">
        <ele>610.80</ele>
        <time>2015-01-17T09:15:13Z</time>
      </trkpt>
      <trkpt lat="42.389234000" lon="-2.686900000">
        <ele>610.90</ele>
        <time>2015-01-17T09:15:14Z</time>
      </trkpt>
      <trkpt lat="42.389227000" lon="-2.686976000">
        <ele>611.10</ele>
        <time>2015-01-17T09:15:15Z</time>
      </trkpt>
      <trkpt lat="42.389220000" lon="-2.687057000">
        <ele>611.20</ele>
        <time>2015-01-17T09:15:16Z</time>
      </trkpt>
      <trkpt lat="42.389216000" lon="-2.687134000">
        <ele>611.30</ele>
        <time>2015-01-17T09:15:17Z</time>
      </trkpt>
      <trkpt lat="42.389210000" lon="-2.687215000">
        <ele>611.30</ele>
        <time>2015-01-17T09:15:18Z</time>
      </trkpt>
      <trkpt lat="42.389205000" lon="-2.687294000">
        <ele>611.40</ele>
        <time>2015-01-17T09:15:19Z</time>
      </trkpt>
      <trkpt lat="42.389200000" lon="-2.687374000">
        <ele>611.40</ele>
        <time>2015-01-17T09:15:20Z</time>
      </trkpt>
      <trkpt lat="42.389193000" lon="-2.687447000">
        <ele>611.40</ele>
        <time>2015-01-17T09:15:21Z</time>
      </trkpt>
      <trkpt lat="42.389183000" lon="-2.687522000">
        <ele>611.40</ele>
        <time>2015-01-17T09:15:22Z</time>
      </trkpt>
      <trkpt lat="42.389174000" lon="-2.687593000">
        <ele>611.40</ele>
        <time>2015-01-17T09:15:23Z</time>
      </trkpt>
      <trkpt lat="42.389165000" lon="-2.687667000">
        <ele>611.50</ele>
        <time>2015-01-17T09:15:24Z</time>
      </trkpt>
      <trkpt lat="42.389156000" lon="-2.687728000">
        <ele>611.40</ele>
        <time>2015-01-17T09:15:25Z</time>
      </trkpt>
      <trkpt lat="42.389147000" lon="-2.687803000">
        <ele>611.40</ele>
        <time>2015-01-17T09:15:26Z</time>
      </trkpt>
      <trkpt lat="42.389141000" lon="-2.687874000">
        <ele>611.30</ele>
        <time>2015-01-17T09:15:27Z</time>
      </trkpt>
      <trkpt lat="42.389134000" lon="-2.687956000">
        <ele>611.30</ele>
        <time>2015-01-17T09:15:28Z</time>
      </trkpt>
      <trkpt lat="42.389127000" lon="-2.688045000">
        <ele>611.30</ele>
        <time>2015-01-17T09:15:29Z</time>
      </trkpt>
      <trkpt lat="42.389122000" lon="-2.688130000">
        <ele>611.30</ele>
        <time>2015-01-17T09:15:30Z</time>
      </trkpt>
      <trkpt lat="42.389119000" lon="-2.688219000">
        <ele>611.40</ele>
        <time>2015-01-17T09:15:31Z</time>
      </trkpt>
      <trkpt lat="42.389111000" lon="-2.688310000">
        <ele>611.60</ele>
        <time>2015-01-17T09:15:32Z</time>
      </trkpt>
      <trkpt lat="42.389102000" lon="-2.688402000">
        <ele>611.60</ele>
        <time>2015-01-17T09:15:33Z</time>
      </trkpt>
      <trkpt lat="42.389094000" lon="-2.688488000">
        <ele>611.70</ele>
        <time>2015-01-17T09:15:34Z</time>
      </trkpt>
      <trkpt lat="42.389086000" lon="-2.688578000">
        <ele>611.50</ele>
        <time>2015-01-17T09:15:35Z</time>
      </trkpt>
      <trkpt lat="42.389076000" lon="-2.688670000">
        <ele>611.30</ele>
        <time>2015-01-17T09:15:36Z</time>
      </trkpt>
      <trkpt lat="42.389069000" lon="-2.688754000">
        <ele>611.10</ele>
        <time>2015-01-17T09:15:37Z</time>
      </trkpt>
      <trkpt lat="42.389060000" lon="-2.688848000">
        <ele>610.90</ele>
        <time>2015-01-17T09:15:38Z</time>
      </trkpt>
      <trkpt lat="42.389051000" lon="-2.688940000">
        <ele>610.80</ele>
        <time>2015-01-17T09:15:39Z</time>
      </trkpt>
      <trkpt lat="42.389043000" lon="-2.689031000">
        <ele>610.70</ele>
        <time>2015-01-17T09:15:40Z</time>
      </trkpt>
      <trkpt lat="42.389035000" lon="-2.689124000">
        <ele>610.30</ele>
        <time>2015-01-17T09:15:41Z</time>
      </trkpt>
      <trkpt lat="42.389028000" lon="-2.689213000">
        <ele>610.00</ele>
        <time>2015-01-17T09:15:42Z</time>
      </trkpt>
      <trkpt lat="42.389022000" lon="-2.689305000">
        <ele>609.60</ele>
        <time>2015-01-17T09:15:43Z</time>
      </trkpt>
      <trkpt lat="42.389017000" lon="-2.689396000">
        <ele>609.30</ele>
        <time>2015-01-17T09:15:44Z</time>
      </trkpt>
      <trkpt lat="42.389005000" lon="-2.689567000">
        <ele>608.80</ele>
        <time>2015-01-17T09:15:46Z</time>
      </trkpt>
      <trkpt lat="42.388997000" lon="-2.689649000">
        <ele>608.60</ele>
        <time>2015-01-17T09:15:47Z</time>
      </trkpt>
      <trkpt lat="42.388989000" lon="-2.689733000">
        <ele>608.40</ele>
        <time>2015-01-17T09:15:48Z</time>
      </trkpt>
      <trkpt lat="42.388980000" lon="-2.689816000">
        <ele>608.20</ele>
        <time>2015-01-17T09:15:49Z</time>
      </trkpt>
      <trkpt lat="42.388971000" lon="-2.689898000">
        <ele>608.10</ele>
        <time>2015-01-17T09:15:50Z</time>
      </trkpt>
      <trkpt lat="42.388959000" lon="-2.689984000">
        <ele>608.00</ele>
        <time>2015-01-17T09:15:51Z</time>
      </trkpt>
      <trkpt lat="42.388950000" lon="-2.690066000">
        <ele>607.90</ele>
        <time>2015-01-17T09:15:52Z</time>
      </trkpt>
      <trkpt lat="42.388944000" lon="-2.690149000">
        <ele>607.90</ele>
        <time>2015-01-17T09:15:53Z</time>
      </trkpt>
      <trkpt lat="42.388943000" lon="-2.690226000">
        <ele>607.90</ele>
        <time>2015-01-17T09:15:54Z</time>
      </trkpt>
      <trkpt lat="42.388937000" lon="-2.690309000">
        <ele>607.90</ele>
        <time>2015-01-17T09:15:55Z</time>
      </trkpt>
      <trkpt lat="42.388928000" lon="-2.690392000">
        <ele>607.90</ele>
        <time>2015-01-17T09:15:56Z</time>
      </trkpt>
      <trkpt lat="42.388918000" lon="-2.690472000">
        <ele>607.80</ele>
        <time>2015-01-17T09:15:57Z</time>
      </trkpt>
      <trkpt lat="42.388906000" lon="-2.690554000">
        <ele>607.70</ele>
        <time>2015-01-17T09:15:58Z</time>
      </trkpt>
      <trkpt lat="42.388898000" lon="-2.690634000">
        <ele>607.50</ele>
        <time>2015-01-17T09:15:59Z</time>
      </trkpt>
      <trkpt lat="42.388888000" lon="-2.690710000">
        <ele>607.40</ele>
        <time>2015-01-17T09:16:00Z</time>
      </trkpt>
      <trkpt lat="42.388861000" lon="-2.690782000">
        <ele>607.30</ele>
        <time>2015-01-17T09:16:01Z</time>
      </trkpt>
      <trkpt lat="42.388824000" lon="-2.690837000">
        <ele>607.30</ele>
        <time>2015-01-17T09:16:02Z</time>
      </trkpt>
      <trkpt lat="42.388781000" lon="-2.690879000">
        <ele>606.90</ele>
        <time>2015-01-17T09:16:03Z</time>
      </trkpt>
      <trkpt lat="42.388735000" lon="-2.690912000">
        <ele>606.60</ele>
        <time>2015-01-17T09:16:04Z</time>
      </trkpt>
      <trkpt lat="42.388685000" lon="-2.690941000">
        <ele>606.20</ele>
        <time>2015-01-17T09:16:05Z</time>
      </trkpt>
      <trkpt lat="42.388637000" lon="-2.690964000">
        <ele>605.90</ele>
        <time>2015-01-17T09:16:06Z</time>
      </trkpt>
      <trkpt lat="42.388586000" lon="-2.690985000">
        <ele>605.70</ele>
        <time>2015-01-17T09:16:07Z</time>
      </trkpt>
      <trkpt lat="42.388534000" lon="-2.691012000">
        <ele>605.50</ele>
        <time>2015-01-17T09:16:08Z</time>
      </trkpt>
      <trkpt lat="42.388481000" lon="-2.691041000">
        <ele>605.40</ele>
        <time>2015-01-17T09:16:09Z</time>
      </trkpt>
      <trkpt lat="42.388426000" lon="-2.691060000">
        <ele>605.30</ele>
        <time>2015-01-17T09:16:10Z</time>
      </trkpt>
      <trkpt lat="42.388371000" lon="-2.691077000">
        <ele>605.40</ele>
        <time>2015-01-17T09:16:11Z</time>
      </trkpt>
      <trkpt lat="42.388318000" lon="-2.691098000">
        <ele>605.40</ele>
        <time>2015-01-17T09:16:12Z</time>
      </trkpt>
      <trkpt lat="42.388267000" lon="-2.691122000">
        <ele>605.20</ele>
        <time>2015-01-17T09:16:13Z</time>
      </trkpt>
      <trkpt lat="42.388214000" lon="-2.691145000">
        <ele>605.10</ele>
        <time>2015-01-17T09:16:14Z</time>
      </trkpt>
      <trkpt lat="42.388160000" lon="-2.691166000">
        <ele>605.00</ele>
        <time>2015-01-17T09:16:15Z</time>
      </trkpt>
      <trkpt lat="42.388109000" lon="-2.691182000">
        <ele>605.00</ele>
        <time>2015-01-17T09:16:16Z</time>
      </trkpt>
      <trkpt lat="42.388058000" lon="-2.691198000">
        <ele>604.90</ele>
        <time>2015-01-17T09:16:17Z</time>
      </trkpt>
      <trkpt lat="42.388007000" lon="-2.691219000">
        <ele>604.90</ele>
        <time>2015-01-17T09:16:18Z</time>
      </trkpt>
      <trkpt lat="42.387957000" lon="-2.691234000">
        <ele>604.90</ele>
        <time>2015-01-17T09:16:19Z</time>
      </trkpt>
      <trkpt lat="42.387903000" lon="-2.691247000">
        <ele>604.90</ele>
        <time>2015-01-17T09:16:20Z</time>
      </trkpt>
      <trkpt lat="42.387850000" lon="-2.691266000">
        <ele>604.90</ele>
        <time>2015-01-17T09:16:21Z</time>
      </trkpt>
      <trkpt lat="42.387798000" lon="-2.691290000">
        <ele>605.00</ele>
        <time>2015-01-17T09:16:22Z</time>
      </trkpt>
      <trkpt lat="42.387748000" lon="-2.691323000">
        <ele>604.80</ele>
        <time>2015-01-17T09:16:23Z</time>
      </trkpt>
      <trkpt lat="42.387698000" lon="-2.691353000">
        <ele>604.80</ele>
        <time>2015-01-17T09:16:24Z</time>
      </trkpt>
      <trkpt lat="42.387650000" lon="-2.691393000">
        <ele>604.70</ele>
        <time>2015-01-17T09:16:25Z</time>
      </trkpt>
      <trkpt lat="42.387613000" lon="-2.691450000">
        <ele>604.60</ele>
        <time>2015-01-17T09:16:26Z</time>
      </trkpt>
      <trkpt lat="42.387593000" lon="-2.691513000">
        <ele>604.60</ele>
        <time>2015-01-17T09:16:27Z</time>
      </trkpt>
      <trkpt lat="42.387592000" lon="-2.691585000">
        <ele>604.60</ele>
        <time>2015-01-17T09:16:28Z</time>
      </trkpt>
      <trkpt lat="42.387603000" lon="-2.691656000">
        <ele>604.50</ele>
        <time>2015-01-17T09:16:29Z</time>
      </trkpt>
      <trkpt lat="42.387615000" lon="-2.691732000">
        <ele>604.50</ele>
        <time>2015-01-17T09:16:30Z</time>
      </trkpt>
      <trkpt lat="42.387631000" lon="-2.691811000">
        <ele>604.50</ele>
        <time>2015-01-17T09:16:31Z</time>
      </trkpt>
      <trkpt lat="42.387649000" lon="-2.691885000">
        <ele>604.40</ele>
        <time>2015-01-17T09:16:32Z</time>
      </trkpt>
      <trkpt lat="42.387667000" lon="-2.691964000">
        <ele>604.30</ele>
        <time>2015-01-17T09:16:33Z</time>
      </trkpt>
      <trkpt lat="42.387686000" lon="-2.692051000">
        <ele>604.30</ele>
        <time>2015-01-17T09:16:34Z</time>
      </trkpt>
      <trkpt lat="42.387704000" lon="-2.692139000">
        <ele>604.20</ele>
        <time>2015-01-17T09:16:35Z</time>
      </trkpt>
      <trkpt lat="42.387730000" lon="-2.692233000">
        <ele>604.10</ele>
        <time>2015-01-17T09:16:36Z</time>
      </trkpt>
      <trkpt lat="42.387741000" lon="-2.692325000">
        <ele>603.90</ele>
        <time>2015-01-17T09:16:37Z</time>
      </trkpt>
      <trkpt lat="42.387744000" lon="-2.692413000">
        <ele>603.80</ele>
        <time>2015-01-17T09:16:38Z</time>
      </trkpt>
      <trkpt lat="42.387740000" lon="-2.692503000">
        <ele>603.40</ele>
        <time>2015-01-17T09:16:39Z</time>
      </trkpt>
      <trkpt lat="42.387735000" lon="-2.692596000">
        <ele>603.10</ele>
        <time>2015-01-17T09:16:40Z</time>
      </trkpt>
      <trkpt lat="42.387734000" lon="-2.692687000">
        <ele>602.80</ele>
        <time>2015-01-17T09:16:41Z</time>
      </trkpt>
      <trkpt lat="42.387738000" lon="-2.692776000">
        <ele>602.50</ele>
        <time>2015-01-17T09:16:42Z</time>
      </trkpt>
      <trkpt lat="42.387745000" lon="-2.692859000">
        <ele>601.90</ele>
        <time>2015-01-17T09:16:43Z</time>
      </trkpt>
      <trkpt lat="42.387751000" lon="-2.692937000">
        <ele>601.50</ele>
        <time>2015-01-17T09:16:44Z</time>
      </trkpt>
      <trkpt lat="42.387756000" lon="-2.693011000">
        <ele>601.10</ele>
        <time>2015-01-17T09:16:45Z</time>
      </trkpt>
      <trkpt lat="42.387766000" lon="-2.693156000">
        <ele>600.50</ele>
        <time>2015-01-17T09:16:47Z</time>
      </trkpt>
      <trkpt lat="42.387774000" lon="-2.693228000">
        <ele>600.20</ele>
        <time>2015-01-17T09:16:48Z</time>
      </trkpt>
      <trkpt lat="42.387785000" lon="-2.693301000">
        <ele>599.80</ele>
        <time>2015-01-17T09:16:49Z</time>
      </trkpt>
      <trkpt lat="42.387797000" lon="-2.693369000">
        <ele>599.40</ele>
        <time>2015-01-17T09:16:50Z</time>
      </trkpt>
      <trkpt lat="42.387815000" lon="-2.693434000">
        <ele>599.20</ele>
        <time>2015-01-17T09:16:51Z</time>
      </trkpt>
      <trkpt lat="42.387835000" lon="-2.693494000">
        <ele>599.00</ele>
        <time>2015-01-17T09:16:52Z</time>
      </trkpt>
      <trkpt lat="42.387856000" lon="-2.693549000">
        <ele>598.80</ele>
        <time>2015-01-17T09:16:53Z</time>
      </trkpt>
      <trkpt lat="42.387876000" lon="-2.693601000">
        <ele>598.60</ele>
        <time>2015-01-17T09:16:54Z</time>
      </trkpt>
      <trkpt lat="42.387897000" lon="-2.693649000">
        <ele>598.50</ele>
        <time>2015-01-17T09:16:55Z</time>
      </trkpt>
      <trkpt lat="42.387913000" lon="-2.693695000">
        <ele>598.40</ele>
        <time>2015-01-17T09:16:56Z</time>
      </trkpt>
      <trkpt lat="42.387931000" lon="-2.693738000">
        <ele>598.40</ele>
        <time>2015-01-17T09:16:57Z</time>
      </trkpt>
      <trkpt lat="42.387947000" lon="-2.693780000">
        <ele>598.30</ele>
        <time>2015-01-17T09:16:58Z</time>
      </trkpt>
      <trkpt lat="42.387955000" lon="-2.693825000">
        <ele>598.40</ele>
        <time>2015-01-17T09:16:59Z</time>
      </trkpt>
      <trkpt lat="42.387964000" lon="-2.693869000">
        <ele>598.50</ele>
        <time>2015-01-17T09:17:00Z</time>
      </trkpt>
      <trkpt lat="42.387973000" lon="-2.693911000">
        <ele>598.50</ele>
        <time>2015-01-17T09:17:01Z</time>
      </trkpt>
      <trkpt lat="42.387982000" lon="-2.693952000">
        <ele>598.60</ele>
        <time>2015-01-17T09:17:02Z</time>
      </trkpt>
      <trkpt lat="42.387992000" lon="-2.693991000">
        <ele>598.60</ele>
        <time>2015-01-17T09:17:03Z</time>
      </trkpt>
      <trkpt lat="42.388002000" lon="-2.694031000">
        <ele>598.60</ele>
        <time>2015-01-17T09:17:04Z</time>
      </trkpt>
      <trkpt lat="42.388009000" lon="-2.694070000">
        <ele>598.50</ele>
        <time>2015-01-17T09:17:05Z</time>
      </trkpt>
      <trkpt lat="42.388012000" lon="-2.694112000">
        <ele>598.50</ele>
        <time>2015-01-17T09:17:06Z</time>
      </trkpt>
      <trkpt lat="42.388016000" lon="-2.694157000">
        <ele>598.40</ele>
        <time>2015-01-17T09:17:07Z</time>
      </trkpt>
      <trkpt lat="42.388013000" lon="-2.694204000">
        <ele>598.40</ele>
        <time>2015-01-17T09:17:08Z</time>
      </trkpt>
      <trkpt lat="42.388007000" lon="-2.694248000">
        <ele>598.40</ele>
        <time>2015-01-17T09:17:09Z</time>
      </trkpt>
      <trkpt lat="42.387992000" lon="-2.694279000">
        <ele>598.40</ele>
        <time>2015-01-17T09:17:10Z</time>
      </trkpt>
      <trkpt lat="42.387966000" lon="-2.694287000">
        <ele>598.40</ele>
        <time>2015-01-17T09:17:11Z</time>
      </trkpt>
      <trkpt lat="42.387930000" lon="-2.694281000">
        <ele>598.40</ele>
        <time>2015-01-17T09:17:12Z</time>
      </trkpt>
      <trkpt lat="42.387891000" lon="-2.694284000">
        <ele>598.40</ele>
        <time>2015-01-17T09:17:13Z</time>
      </trkpt>
      <trkpt lat="42.387855000" lon="-2.694312000">
        <ele>598.40</ele>
        <time>2015-01-17T09:17:14Z</time>
      </trkpt>
      <trkpt lat="42.387820000" lon="-2.694353000">
        <ele>598.40</ele>
        <time>2015-01-17T09:17:15Z</time>
      </trkpt>
      <trkpt lat="42.387788000" lon="-2.694402000">
        <ele>598.40</ele>
        <time>2015-01-17T09:17:16Z</time>
      </trkpt>
      <trkpt lat="42.387760000" lon="-2.694456000">
        <ele>598.10</ele>
        <time>2015-01-17T09:17:17Z</time>
      </trkpt>
      <trkpt lat="42.387738000" lon="-2.694518000">
        <ele>598.00</ele>
        <time>2015-01-17T09:17:18Z</time>
      </trkpt>
      <trkpt lat="42.387719000" lon="-2.694581000">
        <ele>597.70</ele>
        <time>2015-01-17T09:17:19Z</time>
      </trkpt>
      <trkpt lat="42.387701000" lon="-2.694647000">
        <ele>597.50</ele>
        <time>2015-01-17T09:17:20Z</time>
      </trkpt>
      <trkpt lat="42.387682000" lon="-2.694713000">
        <ele>597.20</ele>
        <time>2015-01-17T09:17:21Z</time>
      </trkpt>
      <trkpt lat="42.387661000" lon="-2.694779000">
        <ele>597.00</ele>
        <time>2015-01-17T09:17:22Z</time>
      </trkpt>
      <trkpt lat="42.387651000" lon="-2.694853000">
        <ele>596.80</ele>
        <time>2015-01-17T09:17:23Z</time>
      </trkpt>
      <trkpt lat="42.387659000" lon="-2.694921000">
        <ele>596.70</ele>
        <time>2015-01-17T09:17:24Z</time>
      </trkpt>
      <trkpt lat="42.387678000" lon="-2.694973000">
        <ele>596.50</ele>
        <time>2015-01-17T09:17:25Z</time>
      </trkpt>
      <trkpt lat="42.387703000" lon="-2.695022000">
        <ele>596.40</ele>
        <time>2015-01-17T09:17:26Z</time>
      </trkpt>
      <trkpt lat="42.387728000" lon="-2.695071000">
        <ele>596.20</ele>
        <time>2015-01-17T09:17:27Z</time>
      </trkpt>
      <trkpt lat="42.387750000" lon="-2.695118000">
        <ele>596.10</ele>
        <time>2015-01-17T09:17:28Z</time>
      </trkpt>
      <trkpt lat="42.387769000" lon="-2.695164000">
        <ele>595.90</ele>
        <time>2015-01-17T09:17:29Z</time>
      </trkpt>
      <trkpt lat="42.387788000" lon="-2.695211000">
        <ele>595.80</ele>
        <time>2015-01-17T09:17:30Z</time>
      </trkpt>
      <trkpt lat="42.387809000" lon="-2.695251000">
        <ele>595.80</ele>
        <time>2015-01-17T09:17:31Z</time>
      </trkpt>
      <trkpt lat="42.387824000" lon="-2.695293000">
        <ele>595.80</ele>
        <time>2015-01-17T09:17:32Z</time>
      </trkpt>
      <trkpt lat="42.387838000" lon="-2.695335000">
        <ele>595.70</ele>
        <time>2015-01-17T09:17:33Z</time>
      </trkpt>
      <trkpt lat="42.387850000" lon="-2.695375000">
        <ele>595.60</ele>
        <time>2015-01-17T09:17:34Z</time>
      </trkpt>
      <trkpt lat="42.387861000" lon="-2.695407000">
        <ele>595.70</ele>
        <time>2015-01-17T09:17:35Z</time>
      </trkpt>
      <trkpt lat="42.387866000" lon="-2.695431000">
        <ele>595.80</ele>
        <time>2015-01-17T09:17:36Z</time>
      </trkpt>
      <trkpt lat="42.387869000" lon="-2.695449000">
        <ele>595.50</ele>
        <time>2015-01-17T09:17:37Z</time>
      </trkpt>
      <trkpt lat="42.387871000" lon="-2.695467000">
        <ele>595.30</ele>
        <time>2015-01-17T09:17:38Z</time>
      </trkpt>
      <trkpt lat="42.387874000" lon="-2.695483000">
        <ele>595.00</ele>
        <time>2015-01-17T09:17:39Z</time>
      </trkpt>
      <trkpt lat="42.387876000" lon="-2.695501000">
        <ele>594.80</ele>
        <time>2015-01-17T09:17:40Z</time>
      </trkpt>
      <trkpt lat="42.387879000" lon="-2.695518000">
        <ele>594.60</ele>
        <time>2015-01-17T09:17:41Z</time>
      </trkpt>
      <trkpt lat="42.387880000" lon="-2.695537000">
        <ele>594.50</ele>
        <time>2015-01-17T09:17:42Z</time>
      </trkpt>
      <trkpt lat="42.387885000" lon="-2.695551000">
        <ele>594.40</ele>
        <time>2015-01-17T09:17:43Z</time>
      </trkpt>
      <trkpt lat="42.387888000" lon="-2.695568000">
        <ele>594.40</ele>
        <time>2015-01-17T09:17:44Z</time>
      </trkpt>
      <trkpt lat="42.387890000" lon="-2.695580000">
        <ele>594.30</ele>
        <time>2015-01-17T09:17:45Z</time>
      </trkpt>
      <trkpt lat="42.387894000" lon="-2.695591000">
        <ele>594.30</ele>
        <time>2015-01-17T09:17:46Z</time>
      </trkpt>
      <trkpt lat="42.387895000" lon="-2.695617000">
        <ele>594.30</ele>
        <time>2015-01-17T09:17:48Z</time>
      </trkpt>
      <trkpt lat="42.387895000" lon="-2.695627000">
        <ele>594.30</ele>
        <time>2015-01-17T09:17:49Z</time>
      </trkpt>
      <trkpt lat="42.387892000" lon="-2.695638000">
        <ele>594.30</ele>
        <time>2015-01-17T09:17:50Z</time>
      </trkpt>
      <trkpt lat="42.387888000" lon="-2.695652000">
        <ele>594.30</ele>
        <time>2015-01-17T09:17:51Z</time>
      </trkpt>
      <trkpt lat="42.387882000" lon="-2.695666000">
        <ele>594.30</ele>
        <time>2015-01-17T09:17:52Z</time>
      </trkpt>
      <trkpt lat="42.387874000" lon="-2.695675000">
        <ele>594.20</ele>
        <time>2015-01-17T09:17:53Z</time>
      </trkpt>
      <trkpt lat="42.387862000" lon="-2.695679000">
        <ele>594.10</ele>
        <time>2015-01-17T09:17:54Z</time>
      </trkpt>
      <trkpt lat="42.387853000" lon="-2.695681000">
        <ele>594.00</ele>
        <time>2015-01-17T09:17:55Z</time>
      </trkpt>
      <trkpt lat="42.387846000" lon="-2.695684000">
        <ele>593.90</ele>
        <time>2015-01-17T09:17:56Z</time>
      </trkpt>
      <trkpt lat="42.387839000" lon="-2.695686000">
        <ele>593.70</ele>
        <time>2015-01-17T09:17:57Z</time>
      </trkpt>
      <trkpt lat="42.387828000" lon="-2.695691000">
        <ele>593.50</ele>
        <time>2015-01-17T09:17:58Z</time>
      </trkpt>
      <trkpt lat="42.387819000" lon="-2.695692000">
        <ele>593.30</ele>
        <time>2015-01-17T09:17:59Z</time>
      </trkpt>
      <trkpt lat="42.387812000" lon="-2.695691000">
        <ele>593.20</ele>
        <time>2015-01-17T09:18:00Z</time>
      </trkpt>
      <trkpt lat="42.387797000" lon="-2.695689000">
        <ele>593.20</ele>
        <time>2015-01-17T09:18:01Z</time>
      </trkpt>
      <trkpt lat="42.387788000" lon="-2.695691000">
        <ele>593.10</ele>
        <time>2015-01-17T09:18:02Z</time>
      </trkpt>
      <trkpt lat="42.387779000" lon="-2.695691000">
        <ele>592.90</ele>
        <time>2015-01-17T09:18:03Z</time>
      </trkpt>
      <trkpt lat="42.387769000" lon="-2.695691000">
        <ele>592.70</ele>
        <time>2015-01-17T09:18:04Z</time>
      </trkpt>
      <trkpt lat="42.387758000" lon="-2.695693000">
        <ele>592.50</ele>
        <time>2015-01-17T09:18:05Z</time>
      </trkpt>
      <trkpt lat="42.387745000" lon="-2.695694000">
        <ele>592.40</ele>
        <time>2015-01-17T09:18:06Z</time>
      </trkpt>
      <trkpt lat="42.387731000" lon="-2.695695000">
        <ele>592.20</ele>
        <time>2015-01-17T09:18:07Z</time>
      </trkpt>
      <trkpt lat="42.387718000" lon="-2.695700000">
        <ele>592.10</ele>
        <time>2015-01-17T09:18:08Z</time>
      </trkpt>
      <trkpt lat="42.387706000" lon="-2.695709000">
        <ele>592.10</ele>
        <time>2015-01-17T09:18:09Z</time>
      </trkpt>
      <trkpt lat="42.387697000" lon="-2.695719000">
        <ele>592.00</ele>
        <time>2015-01-17T09:18:10Z</time>
      </trkpt>
      <trkpt lat="42.387695000" lon="-2.695732000">
        <ele>592.00</ele>
        <time>2015-01-17T09:18:11Z</time>
      </trkpt>
      <trkpt lat="42.387695000" lon="-2.695745000">
        <ele>592.00</ele>
        <time>2015-01-17T09:18:12Z</time>
      </trkpt>
      <trkpt lat="42.387696000" lon="-2.695764000">
        <ele>592.00</ele>
        <time>2015-01-17T09:18:13Z</time>
      </trkpt>
      <trkpt lat="42.387695000" lon="-2.695792000">
        <ele>592.00</ele>
        <time>2015-01-17T09:18:14Z</time>
      </trkpt>
      <trkpt lat="42.387697000" lon="-2.695826000">
        <ele>592.00</ele>
        <time>2015-01-17T09:18:15Z</time>
      </trkpt>
      <trkpt lat="42.387699000" lon="-2.695860000">
        <ele>592.00</ele>
        <time>2015-01-17T09:18:16Z</time>
      </trkpt>
      <trkpt lat="42.387699000" lon="-2.695894000">
        <ele>591.90</ele>
        <time>2015-01-17T09:18:17Z</time>
      </trkpt>
      <trkpt lat="42.387703000" lon="-2.695928000">
        <ele>591.80</ele>
        <time>2015-01-17T09:18:18Z</time>
      </trkpt>
      <trkpt lat="42.387708000" lon="-2.695960000">
        <ele>591.70</ele>
        <time>2015-01-17T09:18:19Z</time>
      </trkpt>
      <trkpt lat="42.387715000" lon="-2.695992000">
        <ele>591.60</ele>
        <time>2015-01-17T09:18:20Z</time>
      </trkpt>
      <trkpt lat="42.387719000" lon="-2.696025000">
        <ele>591.50</ele>
        <time>2015-01-17T09:18:21Z</time>
      </trkpt>
      <trkpt lat="42.387720000" lon="-2.696056000">
        <ele>591.40</ele>
        <time>2015-01-17T09:18:22Z</time>
      </trkpt>
      <trkpt lat="42.387722000" lon="-2.696088000">
        <ele>591.40</ele>
        <time>2015-01-17T09:18:23Z</time>
      </trkpt>
      <trkpt lat="42.387720000" lon="-2.696125000">
        <ele>591.40</ele>
        <time>2015-01-17T09:18:24Z</time>
      </trkpt>
      <trkpt lat="42.387722000" lon="-2.696156000">
        <ele>591.30</ele>
        <time>2015-01-17T09:18:25Z</time>
      </trkpt>
      <trkpt lat="42.387717000" lon="-2.696176000">
        <ele>591.30</ele>
        <time>2015-01-17T09:18:26Z</time>
      </trkpt>
      <trkpt lat="42.387715000" lon="-2.696201000">
        <ele>591.20</ele>
        <time>2015-01-17T09:18:27Z</time>
      </trkpt>
      <trkpt lat="42.387714000" lon="-2.696223000">
        <ele>591.20</ele>
        <time>2015-01-17T09:18:28Z</time>
      </trkpt>
      <trkpt lat="42.387712000" lon="-2.696241000">
        <ele>591.20</ele>
        <time>2015-01-17T09:18:29Z</time>
      </trkpt>
      <trkpt lat="42.387713000" lon="-2.696262000">
        <ele>591.10</ele>
        <time>2015-01-17T09:18:30Z</time>
      </trkpt>
      <trkpt lat="42.387712000" lon="-2.696282000">
        <ele>591.10</ele>
        <time>2015-01-17T09:18:31Z</time>
      </trkpt>
      <trkpt lat="42.387714000" lon="-2.696299000">
        <ele>591.00</ele>
        <time>2015-01-17T09:18:32Z</time>
      </trkpt>
      <trkpt lat="42.387716000" lon="-2.696314000">
        <ele>590.90</ele>
        <time>2015-01-17T09:18:33Z</time>
      </trkpt>
      <trkpt lat="42.387718000" lon="-2.696331000">
        <ele>590.80</ele>
        <time>2015-01-17T09:18:34Z</time>
      </trkpt>
      <trkpt lat="42.387716000" lon="-2.696348000">
        <ele>590.80</ele>
        <time>2015-01-17T09:18:35Z</time>
      </trkpt>
      <trkpt lat="42.387713000" lon="-2.696368000">
        <ele>590.70</ele>
        <time>2015-01-17T09:18:36Z</time>
      </trkpt>
      <trkpt lat="42.387709000" lon="-2.696391000">
        <ele>590.70</ele>
        <time>2015-01-17T09:18:37Z</time>
      </trkpt>
      <trkpt lat="42.387708000" lon="-2.696410000">
        <ele>590.70</ele>
        <time>2015-01-17T09:18:38Z</time>
      </trkpt>
      <trkpt lat="42.387706000" lon="-2.696425000">
        <ele>590.60</ele>
        <time>2015-01-17T09:18:39Z</time>
      </trkpt>
      <trkpt lat="42.387708000" lon="-2.696444000">
        <ele>590.60</ele>
        <time>2015-01-17T09:18:40Z</time>
      </trkpt>
      <trkpt lat="42.387710000" lon="-2.696451000">
        <ele>590.60</ele>
        <time>2015-01-17T09:18:41Z</time>
      </trkpt>
      <trkpt lat="42.387709000" lon="-2.696464000">
        <ele>590.60</ele>
        <time>2015-01-17T09:18:42Z</time>
      </trkpt>
      <trkpt lat="42.387707000" lon="-2.696477000">
        <ele>590.60</ele>
        <time>2015-01-17T09:18:43Z</time>
      </trkpt>
      <trkpt lat="42.387705000" lon="-2.696491000">
        <ele>590.60</ele>
        <time>2015-01-17T09:18:44Z</time>
      </trkpt>
      <trkpt lat="42.387705000" lon="-2.696510000">
        <ele>590.50</ele>
        <time>2015-01-17T09:18:45Z</time>
      </trkpt>
      <trkpt lat="42.387703000" lon="-2.696529000">
        <ele>590.50</ele>
        <time>2015-01-17T09:18:46Z</time>
      </trkpt>
      <trkpt lat="42.387705000" lon="-2.696556000">
        <ele>590.50</ele>
        <time>2015-01-17T09:18:47Z</time>
      </trkpt>
      <trkpt lat="42.387706000" lon="-2.696612000">
        <ele>590.40</ele>
        <time>2015-01-17T09:18:49Z</time>
      </trkpt>
      <trkpt lat="42.387708000" lon="-2.696639000">
        <ele>590.40</ele>
        <time>2015-01-17T09:18:50Z</time>
      </trkpt>
      <trkpt lat="42.387711000" lon="-2.696669000">
        <ele>590.30</ele>
        <time>2015-01-17T09:18:51Z</time>
      </trkpt>
      <trkpt lat="42.387714000" lon="-2.696703000">
        <ele>590.20</ele>
        <time>2015-01-17T09:18:52Z</time>
      </trkpt>
      <trkpt lat="42.387713000" lon="-2.696732000">
        <ele>590.10</ele>
        <time>2015-01-17T09:18:53Z</time>
      </trkpt>
      <trkpt lat="42.387714000" lon="-2.696762000">
        <ele>590.10</ele>
        <time>2015-01-17T09:18:54Z</time>
      </trkpt>
      <trkpt lat="42.387717000" lon="-2.696794000">
        <ele>590.00</ele>
        <time>2015-01-17T09:18:55Z</time>
      </trkpt>
      <trkpt lat="42.387725000" lon="-2.696825000">
        <ele>590.00</ele>
        <time>2015-01-17T09:18:56Z</time>
      </trkpt>
      <trkpt lat="42.387734000" lon="-2.696856000">
        <ele>589.90</ele>
        <time>2015-01-17T09:18:57Z</time>
      </trkpt>
      <trkpt lat="42.387744000" lon="-2.696891000">
        <ele>589.90</ele>
        <time>2015-01-17T09:18:58Z</time>
      </trkpt>
      <trkpt lat="42.387757000" lon="-2.696910000">
        <ele>589.90</ele>
        <time>2015-01-17T09:18:59Z</time>
      </trkpt>
      <trkpt lat="42.387769000" lon="-2.696930000">
        <ele>589.80</ele>
        <time>2015-01-17T09:19:00Z</time>
      </trkpt>
      <trkpt lat="42.387780000" lon="-2.696949000">
        <ele>589.70</ele>
        <time>2015-01-17T09:19:01Z</time>
      </trkpt>
      <trkpt lat="42.387795000" lon="-2.696967000">
        <ele>589.60</ele>
        <time>2015-01-17T09:19:02Z</time>
      </trkpt>
      <trkpt lat="42.387812000" lon="-2.696992000">
        <ele>589.50</ele>
        <time>2015-01-17T09:19:03Z</time>
      </trkpt>
      <trkpt lat="42.387830000" lon="-2.697015000">
        <ele>589.40</ele>
        <time>2015-01-17T09:19:04Z</time>
      </trkpt>
      <trkpt lat="42.387850000" lon="-2.697032000">
        <ele>589.40</ele>
        <time>2015-01-17T09:19:05Z</time>
      </trkpt>
      <trkpt lat="42.387870000" lon="-2.697050000">
        <ele>589.30</ele>
        <time>2015-01-17T09:19:06Z</time>
      </trkpt>
      <trkpt lat="42.387887000" lon="-2.697061000">
        <ele>589.10</ele>
        <time>2015-01-17T09:19:07Z</time>
      </trkpt>
      <trkpt lat="42.387900000" lon="-2.697069000">
        <ele>589.00</ele>
        <time>2015-01-17T09:19:08Z</time>
      </trkpt>
      <trkpt lat="42.387911000" lon="-2.697082000">
        <ele>589.10</ele>
        <time>2015-01-17T09:19:09Z</time>
      </trkpt>
      <trkpt lat="42.387919000" lon="-2.697092000">
        <ele>589.10</ele>
        <time>2015-01-17T09:19:10Z</time>
      </trkpt>
      <trkpt lat="42.387926000" lon="-2.697107000">
        <ele>589.00</ele>
        <time>2015-01-17T09:19:11Z</time>
      </trkpt>
      <trkpt lat="42.387935000" lon="-2.697119000">
        <ele>588.90</ele>
        <time>2015-01-17T09:19:12Z</time>
      </trkpt>
      <trkpt lat="42.387944000" lon="-2.697137000">
        <ele>588.80</ele>
        <time>2015-01-17T09:19:13Z</time>
      </trkpt>
      <trkpt lat="42.387957000" lon="-2.697157000">
        <ele>588.70</ele>
        <time>2015-01-17T09:19:14Z</time>
      </trkpt>
      <trkpt lat="42.387973000" lon="-2.697185000">
        <ele>588.60</ele>
        <time>2015-01-17T09:19:15Z</time>
      </trkpt>
      <trkpt lat="42.387985000" lon="-2.697226000">
        <ele>588.50</ele>
        <time>2015-01-17T09:19:16Z</time>
      </trkpt>
      <trkpt lat="42.387997000" lon="-2.697270000">
        <ele>588.30</ele>
        <time>2015-01-17T09:19:17Z</time>
      </trkpt>
      <trkpt lat="42.388007000" lon="-2.697309000">
        <ele>588.10</ele>
        <time>2015-01-17T09:19:18Z</time>
      </trkpt>
      <trkpt lat="42.388012000" lon="-2.697347000">
        <ele>588.00</ele>
        <time>2015-01-17T09:19:19Z</time>
      </trkpt>
      <trkpt lat="42.388010000" lon="-2.697379000">
        <ele>587.90</ele>
        <time>2015-01-17T09:19:20Z</time>
      </trkpt>
      <trkpt lat="42.388006000" lon="-2.697403000">
        <ele>587.60</ele>
        <time>2015-01-17T09:19:21Z</time>
      </trkpt>
      <trkpt lat="42.387994000" lon="-2.697420000">
        <ele>587.30</ele>
        <time>2015-01-17T09:19:22Z</time>
      </trkpt>
      <trkpt lat="42.387979000" lon="-2.697419000">
        <ele>587.10</ele>
        <time>2015-01-17T09:19:23Z</time>
      </trkpt>
      <trkpt lat="42.387954000" lon="-2.697413000">
        <ele>586.90</ele>
        <time>2015-01-17T09:19:24Z</time>
      </trkpt>
      <trkpt lat="42.387924000" lon="-2.697407000">
        <ele>586.80</ele>
        <time>2015-01-17T09:19:25Z</time>
      </trkpt>
      <trkpt lat="42.387892000" lon="-2.697413000">
        <ele>586.70</ele>
        <time>2015-01-17T09:19:26Z</time>
      </trkpt>
      <trkpt lat="42.387865000" lon="-2.697437000">
        <ele>586.70</ele>
        <time>2015-01-17T09:19:27Z</time>
      </trkpt>
      <trkpt lat="42.387843000" lon="-2.697476000">
        <ele>586.60</ele>
        <time>2015-01-17T09:19:28Z</time>
      </trkpt>
      <trkpt lat="42.387830000" lon="-2.697524000">
        <ele>586.40</ele>
        <time>2015-01-17T09:19:29Z</time>
      </trkpt>
      <trkpt lat="42.387827000" lon="-2.697584000">
        <ele>586.30</ele>
        <time>2015-01-17T09:19:30Z</time>
      </trkpt>
      <trkpt lat="42.387829000" lon="-2.697647000">
        <ele>586.20</ele>
        <time>2015-01-17T09:19:31Z</time>
      </trkpt>
      <trkpt lat="42.387836000" lon="-2.697724000">
        <ele>586.00</ele>
        <time>2015-01-17T09:19:32Z</time>
      </trkpt>
      <trkpt lat="42.387844000" lon="-2.697802000">
        <ele>585.90</ele>
        <time>2015-01-17T09:19:33Z</time>
      </trkpt>
      <trkpt lat="42.387855000" lon="-2.697874000">
        <ele>585.80</ele>
        <time>2015-01-17T09:19:34Z</time>
      </trkpt>
      <trkpt lat="42.387868000" lon="-2.697951000">
        <ele>585.50</ele>
        <time>2015-01-17T09:19:35Z</time>
      </trkpt>
      <trkpt lat="42.387882000" lon="-2.698031000">
        <ele>585.30</ele>
        <time>2015-01-17T09:19:36Z</time>
      </trkpt>
      <trkpt lat="42.387895000" lon="-2.698115000">
        <ele>584.90</ele>
        <time>2015-01-17T09:19:37Z</time>
      </trkpt>
      <trkpt lat="42.387908000" lon="-2.698199000">
        <ele>584.60</ele>
        <time>2015-01-17T09:19:38Z</time>
      </trkpt>
      <trkpt lat="42.387923000" lon="-2.698281000">
        <ele>584.30</ele>
        <time>2015-01-17T09:19:39Z</time>
      </trkpt>
      <trkpt lat="42.387939000" lon="-2.698367000">
        <ele>584.00</ele>
        <time>2015-01-17T09:19:40Z</time>
      </trkpt>
      <trkpt lat="42.387952000" lon="-2.698457000">
        <ele>583.70</ele>
        <time>2015-01-17T09:19:41Z</time>
      </trkpt>
      <trkpt lat="42.387964000" lon="-2.698549000">
        <ele>583.50</ele>
        <time>2015-01-17T09:19:42Z</time>
      </trkpt>
      <trkpt lat="42.387973000" lon="-2.698638000">
        <ele>583.20</ele>
        <time>2015-01-17T09:19:43Z</time>
      </trkpt>
      <trkpt lat="42.387980000" lon="-2.698730000">
        <ele>583.10</ele>
        <time>2015-01-17T09:19:44Z</time>
      </trkpt>
      <trkpt lat="42.387986000" lon="-2.698820000">
        <ele>582.80</ele>
        <time>2015-01-17T09:19:45Z</time>
      </trkpt>
      <trkpt lat="42.387989000" lon="-2.698905000">
        <ele>582.60</ele>
        <time>2015-01-17T09:19:46Z</time>
      </trkpt>
      <trkpt lat="42.387991000" lon="-2.698988000">
        <ele>582.50</ele>
        <time>2015-01-17T09:19:47Z</time>
      </trkpt>
      <trkpt lat="42.387994000" lon="-2.699077000">
        <ele>582.30</ele>
        <time>2015-01-17T09:19:48Z</time>
      </trkpt>
      <trkpt lat="42.387998000" lon="-2.699257000">
        <ele>581.70</ele>
        <time>2015-01-17T09:19:50Z</time>
      </trkpt>
      <trkpt lat="42.387999000" lon="-2.699349000">
        <ele>581.20</ele>
        <time>2015-01-17T09:19:51Z</time>
      </trkpt>
      <trkpt lat="42.388001000" lon="-2.699440000">
        <ele>580.90</ele>
        <time>2015-01-17T09:19:52Z</time>
      </trkpt>
      <trkpt lat="42.388003000" lon="-2.699539000">
        <ele>580.50</ele>
        <time>2015-01-17T09:19:53Z</time>
      </trkpt>
      <trkpt lat="42.388010000" lon="-2.699635000">
        <ele>580.10</ele>
        <time>2015-01-17T09:19:54Z</time>
      </trkpt>
      <trkpt lat="42.388017000" lon="-2.699731000">
        <ele>579.80</ele>
        <time>2015-01-17T09:19:55Z</time>
      </trkpt>
      <trkpt lat="42.388027000" lon="-2.699824000">
        <ele>579.50</ele>
        <time>2015-01-17T09:19:56Z</time>
      </trkpt>
      <trkpt lat="42.388040000" lon="-2.699920000">
        <ele>579.20</ele>
        <time>2015-01-17T09:19:57Z</time>
      </trkpt>
      <trkpt lat="42.388054000" lon="-2.700014000">
        <ele>578.90</ele>
        <time>2015-01-17T09:19:58Z</time>
      </trkpt>
      <trkpt lat="42.388065000" lon="-2.700106000">
        <ele>578.60</ele>
        <time>2015-01-17T09:19:59Z</time>
      </trkpt>
      <trkpt lat="42.388077000" lon="-2.700204000">
        <ele>578.50</ele>
        <time>2015-01-17T09:20:00Z</time>
      </trkpt>
      <trkpt lat="42.388093000" lon="-2.700305000">
        <ele>578.20</ele>
        <time>2015-01-17T09:20:01Z</time>
      </trkpt>
      <trkpt lat="42.388106000" lon="-2.700405000">
        <ele>577.90</ele>
        <time>2015-01-17T09:20:02Z</time>
      </trkpt>
      <trkpt lat="42.388119000" lon="-2.700507000">
        <ele>577.70</ele>
        <time>2015-01-17T09:20:03Z</time>
      </trkpt>
      <trkpt lat="42.388133000" lon="-2.700613000">
        <ele>577.50</ele>
        <time>2015-01-17T09:20:04Z</time>
      </trkpt>
      <trkpt lat="42.388147000" lon="-2.700716000">
        <ele>577.20</ele>
        <time>2015-01-17T09:20:05Z</time>
      </trkpt>
      <trkpt lat="42.388162000" lon="-2.700814000">
        <ele>577.00</ele>
        <time>2015-01-17T09:20:06Z</time>
      </trkpt>
      <trkpt lat="42.388177000" lon="-2.700912000">
        <ele>576.70</ele>
        <time>2015-01-17T09:20:07Z</time>
      </trkpt>
      <trkpt lat="42.388189000" lon="-2.700993000">
        <ele>576.50</ele>
        <time>2015-01-17T09:20:08Z</time>
      </trkpt>
      <trkpt lat="42.388205000" lon="-2.701067000">
        <ele>576.10</ele>
        <time>2015-01-17T09:20:09Z</time>
      </trkpt>
      <trkpt lat="42.388222000" lon="-2.701138000">
        <ele>575.80</ele>
        <time>2015-01-17T09:20:10Z</time>
      </trkpt>
      <trkpt lat="42.388238000" lon="-2.701216000">
        <ele>575.60</ele>
        <time>2015-01-17T09:20:11Z</time>
      </trkpt>
      <trkpt lat="42.388248000" lon="-2.701299000">
        <ele>575.50</ele>
        <time>2015-01-17T09:20:12Z</time>
      </trkpt>
      <trkpt lat="42.388256000" lon="-2.701384000">
        <ele>575.20</ele>
        <time>2015-01-17T09:20:13Z</time>
      </trkpt>
      <trkpt lat="42.388263000" lon="-2.701468000">
        <ele>574.90</ele>
        <time>2015-01-17T09:20:14Z</time>
      </trkpt>
      <trkpt lat="42.388270000" lon="-2.701554000">
        <ele>574.60</ele>
        <time>2015-01-17T09:20:15Z</time>
      </trkpt>
      <trkpt lat="42.388274000" lon="-2.701643000">
        <ele>574.40</ele>
        <time>2015-01-17T09:20:16Z</time>
      </trkpt>
      <trkpt lat="42.388276000" lon="-2.701733000">
        <ele>574.20</ele>
        <time>2015-01-17T09:20:17Z</time>
      </trkpt>
      <trkpt lat="42.388274000" lon="-2.701827000">
        <ele>574.00</ele>
        <time>2015-01-17T09:20:18Z</time>
      </trkpt>
      <trkpt lat="42.388274000" lon="-2.701922000">
        <ele>573.60</ele>
        <time>2015-01-17T09:20:19Z</time>
      </trkpt>
      <trkpt lat="42.388275000" lon="-2.702018000">
        <ele>573.20</ele>
        <time>2015-01-17T09:20:20Z</time>
      </trkpt>
      <trkpt lat="42.388280000" lon="-2.702113000">
        <ele>572.80</ele>
        <time>2015-01-17T09:20:21Z</time>
      </trkpt>
      <trkpt lat="42.388289000" lon="-2.702210000">
        <ele>572.60</ele>
        <time>2015-01-17T09:20:22Z</time>
      </trkpt>
      <trkpt lat="42.388298000" lon="-2.702305000">
        <ele>572.30</ele>
        <time>2015-01-17T09:20:23Z</time>
      </trkpt>
      <trkpt lat="42.388307000" lon="-2.702399000">
        <ele>572.10</ele>
        <time>2015-01-17T09:20:24Z</time>
      </trkpt>
      <trkpt lat="42.388316000" lon="-2.702494000">
        <ele>571.90</ele>
        <time>2015-01-17T09:20:25Z</time>
      </trkpt>
      <trkpt lat="42.388322000" lon="-2.702589000">
        <ele>571.70</ele>
        <time>2015-01-17T09:20:26Z</time>
      </trkpt>
      <trkpt lat="42.388327000" lon="-2.702684000">
        <ele>571.50</ele>
        <time>2015-01-17T09:20:27Z</time>
      </trkpt>
      <trkpt lat="42.388331000" lon="-2.702776000">
        <ele>571.40</ele>
        <time>2015-01-17T09:20:28Z</time>
      </trkpt>
      <trkpt lat="42.388338000" lon="-2.702871000">
        <ele>571.10</ele>
        <time>2015-01-17T09:20:29Z</time>
      </trkpt>
      <trkpt lat="42.388344000" lon="-2.702964000">
        <ele>571.00</ele>
        <time>2015-01-17T09:20:30Z</time>
      </trkpt>
      <trkpt lat="42.388352000" lon="-2.703059000">
        <ele>570.70</ele>
        <time>2015-01-17T09:20:31Z</time>
      </trkpt>
      <trkpt lat="42.388359000" lon="-2.703150000">
        <ele>570.50</ele>
        <time>2015-01-17T09:20:32Z</time>
      </trkpt>
      <trkpt lat="42.388366000" lon="-2.703242000">
        <ele>570.30</ele>
        <time>2015-01-17T09:20:33Z</time>
      </trkpt>
      <trkpt lat="42.388373000" lon="-2.703334000">
        <ele>570.10</ele>
        <time>2015-01-17T09:20:34Z</time>
      </trkpt>
      <trkpt lat="42.388381000" lon="-2.703426000">
        <ele>569.80</ele>
        <time>2015-01-17T09:20:35Z</time>
      </trkpt>
      <trkpt lat="42.388392000" lon="-2.703520000">
        <ele>569.50</ele>
        <time>2015-01-17T09:20:36Z</time>
      </trkpt>
      <trkpt lat="42.388401000" lon="-2.703615000">
        <ele>569.30</ele>
        <time>2015-01-17T09:20:37Z</time>
      </trkpt>
      <trkpt lat="42.388412000" lon="-2.703712000">
        <ele>569.20</ele>
        <time>2015-01-17T09:20:38Z</time>
      </trkpt>
      <trkpt lat="42.388426000" lon="-2.703811000">
        <ele>568.70</ele>
        <time>2015-01-17T09:20:39Z</time>
      </trkpt>
      <trkpt lat="42.388441000" lon="-2.703913000">
        <ele>568.30</ele>
        <time>2015-01-17T09:20:40Z</time>
      </trkpt>
      <trkpt lat="42.388457000" lon="-2.704018000">
        <ele>567.60</ele>
        <time>2015-01-17T09:20:41Z</time>
      </trkpt>
      <trkpt lat="42.388476000" lon="-2.704125000">
        <ele>567.20</ele>
        <time>2015-01-17T09:20:42Z</time>
      </trkpt>
      <trkpt lat="42.388494000" lon="-2.704232000">
        <ele>566.70</ele>
        <time>2015-01-17T09:20:43Z</time>
      </trkpt>
      <trkpt lat="42.388512000" lon="-2.704342000">
        <ele>566.40</ele>
        <time>2015-01-17T09:20:44Z</time>
      </trkpt>
      <trkpt lat="42.388525000" lon="-2.704451000">
        <ele>566.20</ele>
        <time>2015-01-17T09:20:45Z</time>
      </trkpt>
      <trkpt lat="42.388537000" lon="-2.704562000">
        <ele>566.00</ele>
        <time>2015-01-17T09:20:46Z</time>
      </trkpt>
      <trkpt lat="42.388546000" lon="-2.704668000">
        <ele>565.30</ele>
        <time>2015-01-17T09:20:47Z</time>
      </trkpt>
      <trkpt lat="42.388547000" lon="-2.704774000">
        <ele>564.90</ele>
        <time>2015-01-17T09:20:48Z</time>
      </trkpt>
      <trkpt lat="42.388541000" lon="-2.704874000">
        <ele>564.40</ele>
        <time>2015-01-17T09:20:49Z</time>
      </trkpt>
      <trkpt lat="42.388518000" lon="-2.705066000">
        <ele>563.80</ele>
        <time>2015-01-17T09:20:51Z</time>
      </trkpt>
      <trkpt lat="42.388506000" lon="-2.705155000">
        <ele>563.60</ele>
        <time>2015-01-17T09:20:52Z</time>
      </trkpt>
      <trkpt lat="42.388495000" lon="-2.705242000">
        <ele>563.40</ele>
        <time>2015-01-17T09:20:53Z</time>
      </trkpt>
      <trkpt lat="42.388489000" lon="-2.705323000">
        <ele>563.20</ele>
        <time>2015-01-17T09:20:54Z</time>
      </trkpt>
      <trkpt lat="42.388490000" lon="-2.705406000">
        <ele>563.10</ele>
        <time>2015-01-17T09:20:55Z</time>
      </trkpt>
      <trkpt lat="42.388490000" lon="-2.705487000">
        <ele>563.00</ele>
        <time>2015-01-17T09:20:56Z</time>
      </trkpt>
      <trkpt lat="42.388493000" lon="-2.705568000">
        <ele>562.90</ele>
        <time>2015-01-17T09:20:57Z</time>
      </trkpt>
      <trkpt lat="42.388499000" lon="-2.705651000">
        <ele>562.80</ele>
        <time>2015-01-17T09:20:58Z</time>
      </trkpt>
      <trkpt lat="42.388503000" lon="-2.705734000">
        <ele>562.90</ele>
        <time>2015-01-17T09:20:59Z</time>
      </trkpt>
      <trkpt lat="42.388506000" lon="-2.705813000">
        <ele>563.00</ele>
        <time>2015-01-17T09:21:00Z</time>
      </trkpt>
      <trkpt lat="42.388511000" lon="-2.705888000">
        <ele>563.10</ele>
        <time>2015-01-17T09:21:01Z</time>
      </trkpt>
      <trkpt lat="42.388515000" lon="-2.705965000">
        <ele>563.20</ele>
        <time>2015-01-17T09:21:02Z</time>
      </trkpt>
      <trkpt lat="42.388516000" lon="-2.706042000">
        <ele>563.10</ele>
        <time>2015-01-17T09:21:03Z</time>
      </trkpt>
      <trkpt lat="42.388520000" lon="-2.706119000">
        <ele>563.10</ele>
        <time>2015-01-17T09:21:04Z</time>
      </trkpt>
      <trkpt lat="42.388523000" lon="-2.706195000">
        <ele>562.90</ele>
        <time>2015-01-17T09:21:05Z</time>
      </trkpt>
      <trkpt lat="42.388528000" lon="-2.706271000">
        <ele>562.80</ele>
        <time>2015-01-17T09:21:06Z</time>
      </trkpt>
      <trkpt lat="42.388533000" lon="-2.706349000">
        <ele>562.60</ele>
        <time>2015-01-17T09:21:07Z</time>
      </trkpt>
      <trkpt lat="42.388538000" lon="-2.706427000">
        <ele>562.60</ele>
        <time>2015-01-17T09:21:08Z</time>
      </trkpt>
      <trkpt lat="42.388546000" lon="-2.706503000">
        <ele>562.40</ele>
        <time>2015-01-17T09:21:09Z</time>
      </trkpt>
      <trkpt lat="42.388557000" lon="-2.706578000">
        <ele>562.30</ele>
        <time>2015-01-17T09:21:10Z</time>
      </trkpt>
      <trkpt lat="42.388567000" lon="-2.706653000">
        <ele>562.30</ele>
        <time>2015-01-17T09:21:11Z</time>
      </trkpt>
      <trkpt lat="42.388581000" lon="-2.706727000">
        <ele>562.30</ele>
        <time>2015-01-17T09:21:12Z</time>
      </trkpt>
      <trkpt lat="42.388593000" lon="-2.706802000">
        <ele>562.10</ele>
        <time>2015-01-17T09:21:13Z</time>
      </trkpt>
      <trkpt lat="42.388602000" lon="-2.706875000">
        <ele>562.00</ele>
        <time>2015-01-17T09:21:14Z</time>
      </trkpt>
      <trkpt lat="42.388605000" lon="-2.706952000">
        <ele>562.00</ele>
        <time>2015-01-17T09:21:15Z</time>
      </trkpt>
      <trkpt lat="42.388602000" lon="-2.707028000">
        <ele>562.00</ele>
        <time>2015-01-17T09:21:16Z</time>
      </trkpt>
      <trkpt lat="42.388588000" lon="-2.707101000">
        <ele>562.00</ele>
        <time>2015-01-17T09:21:17Z</time>
      </trkpt>
      <trkpt lat="42.388567000" lon="-2.707167000">
        <ele>562.00</ele>
        <time>2015-01-17T09:21:18Z</time>
      </trkpt>
      <trkpt lat="42.388543000" lon="-2.707233000">
        <ele>562.00</ele>
        <time>2015-01-17T09:21:19Z</time>
      </trkpt>
      <trkpt lat="42.388520000" lon="-2.707300000">
        <ele>562.00</ele>
        <time>2015-01-17T09:21:20Z</time>
      </trkpt>
      <trkpt lat="42.388501000" lon="-2.707371000">
        <ele>561.70</ele>
        <time>2015-01-17T09:21:21Z</time>
      </trkpt>
      <trkpt lat="42.388489000" lon="-2.707446000">
        <ele>561.50</ele>
        <time>2015-01-17T09:21:22Z</time>
      </trkpt>
      <trkpt lat="42.388486000" lon="-2.707523000">
        <ele>561.30</ele>
        <time>2015-01-17T09:21:23Z</time>
      </trkpt>
      <trkpt lat="42.388491000" lon="-2.707599000">
        <ele>561.10</ele>
        <time>2015-01-17T09:21:24Z</time>
      </trkpt>
      <trkpt lat="42.388504000" lon="-2.707673000">
        <ele>560.90</ele>
        <time>2015-01-17T09:21:25Z</time>
      </trkpt>
      <trkpt lat="42.388517000" lon="-2.707746000">
        <ele>560.80</ele>
        <time>2015-01-17T09:21:26Z</time>
      </trkpt>
      <trkpt lat="42.388531000" lon="-2.707819000">
        <ele>560.70</ele>
        <time>2015-01-17T09:21:27Z</time>
      </trkpt>
      <trkpt lat="42.388546000" lon="-2.707891000">
        <ele>560.60</ele>
        <time>2015-01-17T09:21:28Z</time>
      </trkpt>
      <trkpt lat="42.388560000" lon="-2.707964000">
        <ele>560.50</ele>
        <time>2015-01-17T09:21:29Z</time>
      </trkpt>
      <trkpt lat="42.388574000" lon="-2.708036000">
        <ele>560.40</ele>
        <time>2015-01-17T09:21:30Z</time>
      </trkpt>
      <trkpt lat="42.388591000" lon="-2.708106000">
        <ele>560.30</ele>
        <time>2015-01-17T09:21:31Z</time>
      </trkpt>
      <trkpt lat="42.388613000" lon="-2.708174000">
        <ele>560.20</ele>
        <time>2015-01-17T09:21:32Z</time>
      </trkpt>
      <trkpt lat="42.388640000" lon="-2.708241000">
        <ele>560.10</ele>
        <time>2015-01-17T09:21:33Z</time>
      </trkpt>
      <trkpt lat="42.388664000" lon="-2.708302000">
        <ele>560.10</ele>
        <time>2015-01-17T09:21:34Z</time>
      </trkpt>
      <trkpt lat="42.388683000" lon="-2.708366000">
        <ele>560.00</ele>
        <time>2015-01-17T09:21:35Z</time>
      </trkpt>
      <trkpt lat="42.388696000" lon="-2.708438000">
        <ele>560.00</ele>
        <time>2015-01-17T09:21:36Z</time>
      </trkpt>
      <trkpt lat="42.388704000" lon="-2.708514000">
        <ele>559.80</ele>
        <time>2015-01-17T09:21:37Z</time>
      </trkpt>
      <trkpt lat="42.388707000" lon="-2.708598000">
        <ele>559.60</ele>
        <time>2015-01-17T09:21:38Z</time>
      </trkpt>
      <trkpt lat="42.388704000" lon="-2.708678000">
        <ele>559.40</ele>
        <time>2015-01-17T09:21:39Z</time>
      </trkpt>
      <trkpt lat="42.388694000" lon="-2.708763000">
        <ele>559.20</ele>
        <time>2015-01-17T09:21:40Z</time>
      </trkpt>
      <trkpt lat="42.388679000" lon="-2.708846000">
        <ele>559.00</ele>
        <time>2015-01-17T09:21:41Z</time>
      </trkpt>
      <trkpt lat="42.388660000" lon="-2.708928000">
        <ele>558.90</ele>
        <time>2015-01-17T09:21:42Z</time>
      </trkpt>
      <trkpt lat="42.388637000" lon="-2.709010000">
        <ele>558.70</ele>
        <time>2015-01-17T09:21:43Z</time>
      </trkpt>
      <trkpt lat="42.388611000" lon="-2.709088000">
        <ele>558.60</ele>
        <time>2015-01-17T09:21:44Z</time>
      </trkpt>
      <trkpt lat="42.388584000" lon="-2.709165000">
        <ele>558.40</ele>
        <time>2015-01-17T09:21:45Z</time>
      </trkpt>
      <trkpt lat="42.388557000" lon="-2.709242000">
        <ele>558.20</ele>
        <time>2015-01-17T09:21:46Z</time>
      </trkpt>
      <trkpt lat="42.388529000" lon="-2.709320000">
        <ele>557.90</ele>
        <time>2015-01-17T09:21:47Z</time>
      </trkpt>
      <trkpt lat="42.388503000" lon="-2.709401000">
        <ele>557.70</ele>
        <time>2015-01-17T09:21:48Z</time>
      </trkpt>
      <trkpt lat="42.388479000" lon="-2.709481000">
        <ele>557.30</ele>
        <time>2015-01-17T09:21:49Z</time>
      </trkpt>
      <trkpt lat="42.388453000" lon="-2.709561000">
        <ele>557.10</ele>
        <time>2015-01-17T09:21:50Z</time>
      </trkpt>
      <trkpt lat="42.388396000" lon="-2.709714000">
        <ele>556.30</ele>
        <time>2015-01-17T09:21:52Z</time>
      </trkpt>
      <trkpt lat="42.388360000" lon="-2.709786000">
        <ele>556.10</ele>
        <time>2015-01-17T09:21:53Z</time>
      </trkpt>
      <trkpt lat="42.388322000" lon="-2.709852000">
        <ele>555.90</ele>
        <time>2015-01-17T09:21:54Z</time>
      </trkpt>
      <trkpt lat="42.388282000" lon="-2.709915000">
        <ele>555.70</ele>
        <time>2015-01-17T09:21:55Z</time>
      </trkpt>
      <trkpt lat="42.388242000" lon="-2.709977000">
        <ele>555.50</ele>
        <time>2015-01-17T09:21:56Z</time>
      </trkpt>
      <trkpt lat="42.388204000" lon="-2.710044000">
        <ele>555.30</ele>
        <time>2015-01-17T09:21:57Z</time>
      </trkpt>
      <trkpt lat="42.388173000" lon="-2.710117000">
        <ele>555.20</ele>
        <time>2015-01-17T09:21:58Z</time>
      </trkpt>
      <trkpt lat="42.388155000" lon="-2.710198000">
        <ele>555.10</ele>
        <time>2015-01-17T09:21:59Z</time>
      </trkpt>
      <trkpt lat="42.388150000" lon="-2.710284000">
        <ele>555.10</ele>
        <time>2015-01-17T09:22:00Z</time>
      </trkpt>
      <trkpt lat="42.388154000" lon="-2.710371000">
        <ele>554.90</ele>
        <time>2015-01-17T09:22:01Z</time>
      </trkpt>
      <trkpt lat="42.388165000" lon="-2.710458000">
        <ele>554.80</ele>
        <time>2015-01-17T09:22:02Z</time>
      </trkpt>
      <trkpt lat="42.388179000" lon="-2.710543000">
        <ele>554.70</ele>
        <time>2015-01-17T09:22:03Z</time>
      </trkpt>
      <trkpt lat="42.388192000" lon="-2.710632000">
        <ele>554.60</ele>
        <time>2015-01-17T09:22:04Z</time>
      </trkpt>
      <trkpt lat="42.388203000" lon="-2.710720000">
        <ele>554.50</ele>
        <time>2015-01-17T09:22:05Z</time>
      </trkpt>
      <trkpt lat="42.388216000" lon="-2.710806000">
        <ele>554.40</ele>
        <time>2015-01-17T09:22:06Z</time>
      </trkpt>
      <trkpt lat="42.388229000" lon="-2.710889000">
        <ele>554.30</ele>
        <time>2015-01-17T09:22:07Z</time>
      </trkpt>
      <trkpt lat="42.388241000" lon="-2.710975000">
        <ele>554.30</ele>
        <time>2015-01-17T09:22:08Z</time>
      </trkpt>
      <trkpt lat="42.388252000" lon="-2.711060000">
        <ele>554.20</ele>
        <time>2015-01-17T09:22:09Z</time>
      </trkpt>
      <trkpt lat="42.388260000" lon="-2.711145000">
        <ele>554.20</ele>
        <time>2015-01-17T09:22:10Z</time>
      </trkpt>
      <trkpt lat="42.388268000" lon="-2.711228000">
        <ele>554.00</ele>
        <time>2015-01-17T09:22:11Z</time>
      </trkpt>
      <trkpt lat="42.388273000" lon="-2.711310000">
        <ele>553.80</ele>
        <time>2015-01-17T09:22:12Z</time>
      </trkpt>
      <trkpt lat="42.388275000" lon="-2.711393000">
        <ele>553.60</ele>
        <time>2015-01-17T09:22:13Z</time>
      </trkpt>
      <trkpt lat="42.388272000" lon="-2.711477000">
        <ele>553.50</ele>
        <time>2015-01-17T09:22:14Z</time>
      </trkpt>
      <trkpt lat="42.388266000" lon="-2.711563000">
        <ele>553.40</ele>
        <time>2015-01-17T09:22:15Z</time>
      </trkpt>
      <trkpt lat="42.388259000" lon="-2.711646000">
        <ele>553.30</ele>
        <time>2015-01-17T09:22:16Z</time>
      </trkpt>
      <trkpt lat="42.388249000" lon="-2.711730000">
        <ele>553.10</ele>
        <time>2015-01-17T09:22:17Z</time>
      </trkpt>
      <trkpt lat="42.388235000" lon="-2.711810000">
        <ele>553.00</ele>
        <time>2015-01-17T09:22:18Z</time>
      </trkpt>
      <trkpt lat="42.388216000" lon="-2.711892000">
        <ele>552.80</ele>
        <time>2015-01-17T09:22:19Z</time>
      </trkpt>
      <trkpt lat="42.388195000" lon="-2.711975000">
        <ele>552.70</ele>
        <time>2015-01-17T09:22:20Z</time>
      </trkpt>
      <trkpt lat="42.388175000" lon="-2.712058000">
        <ele>552.50</ele>
        <time>2015-01-17T09:22:21Z</time>
      </trkpt>
      <trkpt lat="42.388155000" lon="-2.712139000">
        <ele>552.40</ele>
        <time>2015-01-17T09:22:22Z</time>
      </trkpt>
      <trkpt lat="42.388134000" lon="-2.712219000">
        <ele>552.30</ele>
        <time>2015-01-17T09:22:23Z</time>
      </trkpt>
      <trkpt lat="42.388114000" lon="-2.712299000">
        <ele>552.20</ele>
        <time>2015-01-17T09:22:24Z</time>
      </trkpt>
      <trkpt lat="42.388091000" lon="-2.712378000">
        <ele>552.00</ele>
        <time>2015-01-17T09:22:25Z</time>
      </trkpt>
      <trkpt lat="42.388066000" lon="-2.712456000">
        <ele>551.90</ele>
        <time>2015-01-17T09:22:26Z</time>
      </trkpt>
      <trkpt lat="42.388041000" lon="-2.712533000">
        <ele>551.80</ele>
        <time>2015-01-17T09:22:27Z</time>
      </trkpt>
      <trkpt lat="42.388016000" lon="-2.712609000">
        <ele>551.70</ele>
        <time>2015-01-17T09:22:28Z</time>
      </trkpt>
      <trkpt lat="42.387990000" lon="-2.712687000">
        <ele>551.40</ele>
        <time>2015-01-17T09:22:29Z</time>
      </trkpt>
      <trkpt lat="42.387964000" lon="-2.712764000">
        <ele>551.20</ele>
        <time>2015-01-17T09:22:30Z</time>
      </trkpt>
      <trkpt lat="42.387938000" lon="-2.712838000">
        <ele>550.90</ele>
        <time>2015-01-17T09:22:31Z</time>
      </trkpt>
      <trkpt lat="42.387911000" lon="-2.712914000">
        <ele>550.60</ele>
        <time>2015-01-17T09:22:32Z</time>
      </trkpt>
      <trkpt lat="42.387886000" lon="-2.712991000">
        <ele>550.40</ele>
        <time>2015-01-17T09:22:33Z</time>
      </trkpt>
      <trkpt lat="42.387861000" lon="-2.713066000">
        <ele>550.30</ele>
        <time>2015-01-17T09:22:34Z</time>
      </trkpt>
      <trkpt lat="42.387837000" lon="-2.713146000">
        <ele>550.10</ele>
        <time>2015-01-17T09:22:35Z</time>
      </trkpt>
      <trkpt lat="42.387815000" lon="-2.713226000">
        <ele>550.00</ele>
        <time>2015-01-17T09:22:36Z</time>
      </trkpt>
      <trkpt lat="42.387798000" lon="-2.713306000">
        <ele>549.90</ele>
        <time>2015-01-17T09:22:37Z</time>
      </trkpt>
      <trkpt lat="42.387784000" lon="-2.713386000">
        <ele>549.80</ele>
        <time>2015-01-17T09:22:38Z</time>
      </trkpt>
      <trkpt lat="42.387771000" lon="-2.713465000">
        <ele>549.70</ele>
        <time>2015-01-17T09:22:39Z</time>
      </trkpt>
      <trkpt lat="42.387760000" lon="-2.713546000">
        <ele>549.60</ele>
        <time>2015-01-17T09:22:40Z</time>
      </trkpt>
      <trkpt lat="42.387752000" lon="-2.713624000">
        <ele>549.50</ele>
        <time>2015-01-17T09:22:41Z</time>
      </trkpt>
      <trkpt lat="42.387744000" lon="-2.713698000">
        <ele>549.40</ele>
        <time>2015-01-17T09:22:42Z</time>
      </trkpt>
      <trkpt lat="42.387735000" lon="-2.713772000">
        <ele>549.30</ele>
        <time>2015-01-17T09:22:43Z</time>
      </trkpt>
      <trkpt lat="42.387726000" lon="-2.713846000">
        <ele>549.20</ele>
        <time>2015-01-17T09:22:44Z</time>
      </trkpt>
      <trkpt lat="42.387716000" lon="-2.713924000">
        <ele>549.10</ele>
        <time>2015-01-17T09:22:45Z</time>
      </trkpt>
      <trkpt lat="42.387708000" lon="-2.713998000">
        <ele>549.00</ele>
        <time>2015-01-17T09:22:46Z</time>
      </trkpt>
      <trkpt lat="42.387694000" lon="-2.714072000">
        <ele>548.80</ele>
        <time>2015-01-17T09:22:47Z</time>
      </trkpt>
      <trkpt lat="42.387677000" lon="-2.714143000">
        <ele>548.60</ele>
        <time>2015-01-17T09:22:48Z</time>
      </trkpt>
      <trkpt lat="42.387657000" lon="-2.714211000">
        <ele>548.50</ele>
        <time>2015-01-17T09:22:49Z</time>
      </trkpt>
      <trkpt lat="42.387635000" lon="-2.714277000">
        <ele>548.40</ele>
        <time>2015-01-17T09:22:50Z</time>
      </trkpt>
      <trkpt lat="42.387611000" lon="-2.714347000">
        <ele>548.30</ele>
        <time>2015-01-17T09:22:51Z</time>
      </trkpt>
      <trkpt lat="42.387570000" lon="-2.714489000">
        <ele>548.20</ele>
        <time>2015-01-17T09:22:53Z</time>
      </trkpt>
      <trkpt lat="42.387551000" lon="-2.714561000">
        <ele>548.20</ele>
        <time>2015-01-17T09:22:54Z</time>
      </trkpt>
      <trkpt lat="42.387530000" lon="-2.714634000">
        <ele>548.20</ele>
        <time>2015-01-17T09:22:55Z</time>
      </trkpt>
      <trkpt lat="42.387510000" lon="-2.714703000">
        <ele>548.10</ele>
        <time>2015-01-17T09:22:56Z</time>
      </trkpt>
      <trkpt lat="42.387493000" lon="-2.714777000">
        <ele>548.00</ele>
        <time>2015-01-17T09:22:57Z</time>
      </trkpt>
      <trkpt lat="42.387481000" lon="-2.714856000">
        <ele>547.80</ele>
        <time>2015-01-17T09:22:58Z</time>
      </trkpt>
      <trkpt lat="42.387472000" lon="-2.714936000">
        <ele>547.70</ele>
        <time>2015-01-17T09:22:59Z</time>
      </trkpt>
      <trkpt lat="42.387463000" lon="-2.715018000">
        <ele>547.60</ele>
        <time>2015-01-17T09:23:00Z</time>
      </trkpt>
      <trkpt lat="42.387455000" lon="-2.715099000">
        <ele>547.50</ele>
        <time>2015-01-17T09:23:01Z</time>
      </trkpt>
      <trkpt lat="42.387447000" lon="-2.715177000">
        <ele>547.40</ele>
        <time>2015-01-17T09:23:02Z</time>
      </trkpt>
      <trkpt lat="42.387437000" lon="-2.715258000">
        <ele>547.30</ele>
        <time>2015-01-17T09:23:03Z</time>
      </trkpt>
      <trkpt lat="42.387425000" lon="-2.715342000">
        <ele>547.20</ele>
        <time>2015-01-17T09:23:04Z</time>
      </trkpt>
      <trkpt lat="42.387413000" lon="-2.715423000">
        <ele>547.10</ele>
        <time>2015-01-17T09:23:05Z</time>
      </trkpt>
      <trkpt lat="42.387396000" lon="-2.715500000">
        <ele>547.00</ele>
        <time>2015-01-17T09:23:06Z</time>
      </trkpt>
      <trkpt lat="42.387377000" lon="-2.715575000">
        <ele>546.90</ele>
        <time>2015-01-17T09:23:07Z</time>
      </trkpt>
      <trkpt lat="42.387358000" lon="-2.715649000">
        <ele>546.70</ele>
        <time>2015-01-17T09:23:08Z</time>
      </trkpt>
      <trkpt lat="42.387340000" lon="-2.715725000">
        <ele>546.60</ele>
        <time>2015-01-17T09:23:09Z</time>
      </trkpt>
      <trkpt lat="42.387324000" lon="-2.715798000">
        <ele>546.60</ele>
        <time>2015-01-17T09:23:10Z</time>
      </trkpt>
      <trkpt lat="42.387308000" lon="-2.715875000">
        <ele>546.50</ele>
        <time>2015-01-17T09:23:11Z</time>
      </trkpt>
      <trkpt lat="42.387292000" lon="-2.715954000">
        <ele>546.50</ele>
        <time>2015-01-17T09:23:12Z</time>
      </trkpt>
      <trkpt lat="42.387277000" lon="-2.716029000">
        <ele>546.40</ele>
        <time>2015-01-17T09:23:13Z</time>
      </trkpt>
      <trkpt lat="42.387264000" lon="-2.716104000">
        <ele>546.40</ele>
        <time>2015-01-17T09:23:14Z</time>
      </trkpt>
      <trkpt lat="42.387250000" lon="-2.716177000">
        <ele>546.40</ele>
        <time>2015-01-17T09:23:15Z</time>
      </trkpt>
      <trkpt lat="42.387238000" lon="-2.716251000">
        <ele>546.40</ele>
        <time>2015-01-17T09:23:16Z</time>
      </trkpt>
      <trkpt lat="42.387225000" lon="-2.716325000">
        <ele>546.30</ele>
        <time>2015-01-17T09:23:17Z</time>
      </trkpt>
      <trkpt lat="42.387212000" lon="-2.716396000">
        <ele>546.10</ele>
        <time>2015-01-17T09:23:18Z</time>
      </trkpt>
      <trkpt lat="42.387200000" lon="-2.716465000">
        <ele>546.10</ele>
        <time>2015-01-17T09:23:19Z</time>
      </trkpt>
      <trkpt lat="42.387187000" lon="-2.716530000">
        <ele>546.00</ele>
        <time>2015-01-17T09:23:20Z</time>
      </trkpt>
      <trkpt lat="42.387174000" lon="-2.716594000">
        <ele>546.00</ele>
        <time>2015-01-17T09:23:21Z</time>
      </trkpt>
      <trkpt lat="42.387169000" lon="-2.716649000">
        <ele>545.90</ele>
        <time>2015-01-17T09:23:22Z</time>
      </trkpt>
      <trkpt lat="42.387178000" lon="-2.716693000">
        <ele>546.00</ele>
        <time>2015-01-17T09:23:23Z</time>
      </trkpt>
      <trkpt lat="42.387200000" lon="-2.716729000">
        <ele>546.00</ele>
        <time>2015-01-17T09:23:24Z</time>
      </trkpt>
      <trkpt lat="42.387225000" lon="-2.716754000">
        <ele>546.00</ele>
        <time>2015-01-17T09:23:25Z</time>
      </trkpt>
      <trkpt lat="42.387253000" lon="-2.716758000">
        <ele>546.00</ele>
        <time>2015-01-17T09:23:26Z</time>
      </trkpt>
      <trkpt lat="42.387276000" lon="-2.716760000">
        <ele>546.10</ele>
        <time>2015-01-17T09:23:27Z</time>
      </trkpt>
      <trkpt lat="42.387304000" lon="-2.716764000">
        <ele>546.10</ele>
        <time>2015-01-17T09:23:28Z</time>
      </trkpt>
      <trkpt lat="42.387338000" lon="-2.716768000">
        <ele>546.10</ele>
        <time>2015-01-17T09:23:29Z</time>
      </trkpt>
      <trkpt lat="42.387371000" lon="-2.716776000">
        <ele>546.10</ele>
        <time>2015-01-17T09:23:30Z</time>
      </trkpt>
      <trkpt lat="42.387400000" lon="-2.716800000">
        <ele>546.10</ele>
        <time>2015-01-17T09:23:31Z</time>
      </trkpt>
      <trkpt lat="42.387434000" lon="-2.716811000">
        <ele>546.10</ele>
        <time>2015-01-17T09:23:32Z</time>
      </trkpt>
      <trkpt lat="42.387466000" lon="-2.716821000">
        <ele>546.10</ele>
        <time>2015-01-17T09:23:33Z</time>
      </trkpt>
      <trkpt lat="42.387494000" lon="-2.716833000">
        <ele>546.10</ele>
        <time>2015-01-17T09:23:34Z</time>
      </trkpt>
      <trkpt lat="42.387511000" lon="-2.716850000">
        <ele>546.20</ele>
        <time>2015-01-17T09:23:35Z</time>
      </trkpt>
      <trkpt lat="42.387523000" lon="-2.716868000">
        <ele>546.20</ele>
        <time>2015-01-17T09:23:36Z</time>
      </trkpt>
      <trkpt lat="42.387532000" lon="-2.716890000">
        <ele>546.20</ele>
        <time>2015-01-17T09:23:37Z</time>
      </trkpt>
      <trkpt lat="42.387539000" lon="-2.716924000">
        <ele>546.20</ele>
        <time>2015-01-17T09:23:38Z</time>
      </trkpt>
      <trkpt lat="42.387551000" lon="-2.716965000">
        <ele>546.00</ele>
        <time>2015-01-17T09:23:39Z</time>
      </trkpt>
      <trkpt lat="42.387567000" lon="-2.717018000">
        <ele>545.90</ele>
        <time>2015-01-17T09:23:40Z</time>
      </trkpt>
      <trkpt lat="42.387583000" lon="-2.717076000">
        <ele>545.80</ele>
        <time>2015-01-17T09:23:41Z</time>
      </trkpt>
      <trkpt lat="42.387602000" lon="-2.717148000">
        <ele>545.80</ele>
        <time>2015-01-17T09:23:42Z</time>
      </trkpt>
      <trkpt lat="42.387625000" lon="-2.717220000">
        <ele>545.80</ele>
        <time>2015-01-17T09:23:43Z</time>
      </trkpt>
      <trkpt lat="42.387653000" lon="-2.717305000">
        <ele>545.80</ele>
        <time>2015-01-17T09:23:44Z</time>
      </trkpt>
      <trkpt lat="42.387681000" lon="-2.717392000">
        <ele>545.80</ele>
        <time>2015-01-17T09:23:45Z</time>
      </trkpt>
      <trkpt lat="42.387707000" lon="-2.717481000">
        <ele>545.80</ele>
        <time>2015-01-17T09:23:46Z</time>
      </trkpt>
      <trkpt lat="42.387729000" lon="-2.717569000">
        <ele>545.60</ele>
        <time>2015-01-17T09:23:47Z</time>
      </trkpt>
      <trkpt lat="42.387743000" lon="-2.717653000">
        <ele>545.50</ele>
        <time>2015-01-17T09:23:48Z</time>
      </trkpt>
      <trkpt lat="42.387754000" lon="-2.717732000">
        <ele>545.40</ele>
        <time>2015-01-17T09:23:49Z</time>
      </trkpt>
      <trkpt lat="42.387759000" lon="-2.717802000">
        <ele>545.30</ele>
        <time>2015-01-17T09:23:50Z</time>
      </trkpt>
      <trkpt lat="42.387758000" lon="-2.717866000">
        <ele>545.20</ele>
        <time>2015-01-17T09:23:51Z</time>
      </trkpt>
      <trkpt lat="42.387751000" lon="-2.717927000">
        <ele>545.20</ele>
        <time>2015-01-17T09:23:52Z</time>
      </trkpt>
      <trkpt lat="42.387735000" lon="-2.718034000">
        <ele>545.20</ele>
        <time>2015-01-17T09:23:54Z</time>
      </trkpt>
      <trkpt lat="42.387726000" lon="-2.718082000">
        <ele>545.20</ele>
        <time>2015-01-17T09:23:55Z</time>
      </trkpt>
      <trkpt lat="42.387717000" lon="-2.718132000">
        <ele>545.20</ele>
        <time>2015-01-17T09:23:56Z</time>
      </trkpt>
      <trkpt lat="42.387705000" lon="-2.718179000">
        <ele>545.30</ele>
        <time>2015-01-17T09:23:57Z</time>
      </trkpt>
      <trkpt lat="42.387696000" lon="-2.718232000">
        <ele>545.40</ele>
        <time>2015-01-17T09:23:58Z</time>
      </trkpt>
      <trkpt lat="42.387691000" lon="-2.718283000">
        <ele>545.30</ele>
        <time>2015-01-17T09:23:59Z</time>
      </trkpt>
      <trkpt lat="42.387686000" lon="-2.718333000">
        <ele>545.30</ele>
        <time>2015-01-17T09:24:00Z</time>
      </trkpt>
      <trkpt lat="42.387683000" lon="-2.718382000">
        <ele>545.20</ele>
        <time>2015-01-17T09:24:01Z</time>
      </trkpt>
      <trkpt lat="42.387679000" lon="-2.718427000">
        <ele>545.20</ele>
        <time>2015-01-17T09:24:02Z</time>
      </trkpt>
      <trkpt lat="42.387674000" lon="-2.718467000">
        <ele>545.10</ele>
        <time>2015-01-17T09:24:03Z</time>
      </trkpt>
      <trkpt lat="42.387666000" lon="-2.718509000">
        <ele>545.10</ele>
        <time>2015-01-17T09:24:04Z</time>
      </trkpt>
      <trkpt lat="42.387656000" lon="-2.718555000">
        <ele>545.20</ele>
        <time>2015-01-17T09:24:05Z</time>
      </trkpt>
      <trkpt lat="42.387653000" lon="-2.718605000">
        <ele>545.30</ele>
        <time>2015-01-17T09:24:06Z</time>
      </trkpt>
      <trkpt lat="42.387647000" lon="-2.718657000">
        <ele>545.30</ele>
        <time>2015-01-17T09:24:07Z</time>
      </trkpt>
      <trkpt lat="42.387635000" lon="-2.718705000">
        <ele>545.40</ele>
        <time>2015-01-17T09:24:08Z</time>
      </trkpt>
      <trkpt lat="42.387626000" lon="-2.718757000">
        <ele>545.40</ele>
        <time>2015-01-17T09:24:09Z</time>
      </trkpt>
      <trkpt lat="42.387619000" lon="-2.718809000">
        <ele>545.40</ele>
        <time>2015-01-17T09:24:10Z</time>
      </trkpt>
      <trkpt lat="42.387611000" lon="-2.718860000">
        <ele>545.40</ele>
        <time>2015-01-17T09:24:11Z</time>
      </trkpt>
      <trkpt lat="42.387604000" lon="-2.718918000">
        <ele>545.40</ele>
        <time>2015-01-17T09:24:12Z</time>
      </trkpt>
      <trkpt lat="42.387599000" lon="-2.718981000">
        <ele>545.50</ele>
        <time>2015-01-17T09:24:13Z</time>
      </trkpt>
      <trkpt lat="42.387588000" lon="-2.719043000">
        <ele>545.50</ele>
        <time>2015-01-17T09:24:14Z</time>
      </trkpt>
      <trkpt lat="42.387574000" lon="-2.719108000">
        <ele>545.50</ele>
        <time>2015-01-17T09:24:15Z</time>
      </trkpt>
      <trkpt lat="42.387559000" lon="-2.719174000">
        <ele>545.50</ele>
        <time>2015-01-17T09:24:16Z</time>
      </trkpt>
      <trkpt lat="42.387539000" lon="-2.719242000">
        <ele>545.30</ele>
        <time>2015-01-17T09:24:17Z</time>
      </trkpt>
      <trkpt lat="42.387521000" lon="-2.719308000">
        <ele>545.20</ele>
        <time>2015-01-17T09:24:18Z</time>
      </trkpt>
      <trkpt lat="42.387503000" lon="-2.719371000">
        <ele>545.00</ele>
        <time>2015-01-17T09:24:19Z</time>
      </trkpt>
      <trkpt lat="42.387483000" lon="-2.719432000">
        <ele>544.80</ele>
        <time>2015-01-17T09:24:20Z</time>
      </trkpt>
      <trkpt lat="42.387466000" lon="-2.719493000">
        <ele>544.40</ele>
        <time>2015-01-17T09:24:21Z</time>
      </trkpt>
      <trkpt lat="42.387448000" lon="-2.719555000">
        <ele>544.10</ele>
        <time>2015-01-17T09:24:22Z</time>
      </trkpt>
      <trkpt lat="42.387440000" lon="-2.719612000">
        <ele>543.90</ele>
        <time>2015-01-17T09:24:23Z</time>
      </trkpt>
      <trkpt lat="42.387438000" lon="-2.719672000">
        <ele>543.70</ele>
        <time>2015-01-17T09:24:24Z</time>
      </trkpt>
      <trkpt lat="42.387443000" lon="-2.719735000">
        <ele>543.50</ele>
        <time>2015-01-17T09:24:25Z</time>
      </trkpt>
      <trkpt lat="42.387448000" lon="-2.719802000">
        <ele>543.40</ele>
        <time>2015-01-17T09:24:26Z</time>
      </trkpt>
      <trkpt lat="42.387455000" lon="-2.719871000">
        <ele>543.30</ele>
        <time>2015-01-17T09:24:27Z</time>
      </trkpt>
      <trkpt lat="42.387464000" lon="-2.719942000">
        <ele>543.20</ele>
        <time>2015-01-17T09:24:28Z</time>
      </trkpt>
      <trkpt lat="42.387470000" lon="-2.720012000">
        <ele>543.10</ele>
        <time>2015-01-17T09:24:29Z</time>
      </trkpt>
      <trkpt lat="42.387478000" lon="-2.720084000">
        <ele>543.00</ele>
        <time>2015-01-17T09:24:30Z</time>
      </trkpt>
      <trkpt lat="42.387489000" lon="-2.720151000">
        <ele>542.70</ele>
        <time>2015-01-17T09:24:31Z</time>
      </trkpt>
      <trkpt lat="42.387509000" lon="-2.720215000">
        <ele>542.60</ele>
        <time>2015-01-17T09:24:32Z</time>
      </trkpt>
      <trkpt lat="42.387540000" lon="-2.720279000">
        <ele>542.30</ele>
        <time>2015-01-17T09:24:33Z</time>
      </trkpt>
      <trkpt lat="42.387579000" lon="-2.720335000">
        <ele>542.10</ele>
        <time>2015-01-17T09:24:34Z</time>
      </trkpt>
      <trkpt lat="42.387625000" lon="-2.720389000">
        <ele>541.90</ele>
        <time>2015-01-17T09:24:35Z</time>
      </trkpt>
      <trkpt lat="42.387666000" lon="-2.720449000">
        <ele>541.80</ele>
        <time>2015-01-17T09:24:36Z</time>
      </trkpt>
      <trkpt lat="42.387710000" lon="-2.720513000">
        <ele>541.50</ele>
        <time>2015-01-17T09:24:37Z</time>
      </trkpt>
      <trkpt lat="42.387751000" lon="-2.720580000">
        <ele>541.30</ele>
        <time>2015-01-17T09:24:38Z</time>
      </trkpt>
      <trkpt lat="42.387794000" lon="-2.720648000">
        <ele>540.80</ele>
        <time>2015-01-17T09:24:39Z</time>
      </trkpt>
      <trkpt lat="42.387837000" lon="-2.720717000">
        <ele>540.40</ele>
        <time>2015-01-17T09:24:40Z</time>
      </trkpt>
      <trkpt lat="42.387879000" lon="-2.720786000">
        <ele>540.10</ele>
        <time>2015-01-17T09:24:41Z</time>
      </trkpt>
      <trkpt lat="42.387924000" lon="-2.720852000">
        <ele>539.80</ele>
        <time>2015-01-17T09:24:42Z</time>
      </trkpt>
      <trkpt lat="42.387967000" lon="-2.720923000">
        <ele>539.70</ele>
        <time>2015-01-17T09:24:43Z</time>
      </trkpt>
      <trkpt lat="42.388009000" lon="-2.720990000">
        <ele>539.50</ele>
        <time>2015-01-17T09:24:44Z</time>
      </trkpt>
      <trkpt lat="42.388050000" lon="-2.721062000">
        <ele>539.20</ele>
        <time>2015-01-17T09:24:45Z</time>
      </trkpt>
      <trkpt lat="42.388094000" lon="-2.721130000">
        <ele>538.90</ele>
        <time>2015-01-17T09:24:46Z</time>
      </trkpt>
      <trkpt lat="42.388135000" lon="-2.721200000">
        <ele>538.50</ele>
        <time>2015-01-17T09:24:47Z</time>
      </trkpt>
      <trkpt lat="42.388174000" lon="-2.721269000">
        <ele>538.10</ele>
        <time>2015-01-17T09:24:48Z</time>
      </trkpt>
      <trkpt lat="42.388212000" lon="-2.721339000">
        <ele>537.80</ele>
        <time>2015-01-17T09:24:49Z</time>
      </trkpt>
      <trkpt lat="42.388251000" lon="-2.721410000">
        <ele>537.60</ele>
        <time>2015-01-17T09:24:50Z</time>
      </trkpt>
      <trkpt lat="42.388290000" lon="-2.721479000">
        <ele>537.30</ele>
        <time>2015-01-17T09:24:51Z</time>
      </trkpt>
      <trkpt lat="42.388328000" lon="-2.721549000">
        <ele>537.20</ele>
        <time>2015-01-17T09:24:52Z</time>
      </trkpt>
      <trkpt lat="42.388367000" lon="-2.721618000">
        <ele>536.70</ele>
        <time>2015-01-17T09:24:53Z</time>
      </trkpt>
      <trkpt lat="42.388446000" lon="-2.721750000">
        <ele>536.00</ele>
        <time>2015-01-17T09:24:55Z</time>
      </trkpt>
      <trkpt lat="42.388487000" lon="-2.721810000">
        <ele>535.80</ele>
        <time>2015-01-17T09:24:56Z</time>
      </trkpt>
      <trkpt lat="42.388526000" lon="-2.721865000">
        <ele>535.40</ele>
        <time>2015-01-17T09:24:57Z</time>
      </trkpt>
      <trkpt lat="42.388567000" lon="-2.721918000">
        <ele>535.10</ele>
        <time>2015-01-17T09:24:58Z</time>
      </trkpt>
      <trkpt lat="42.388606000" lon="-2.721970000">
        <ele>534.90</ele>
        <time>2015-01-17T09:24:59Z</time>
      </trkpt>
      <trkpt lat="42.388643000" lon="-2.722022000">
        <ele>534.70</ele>
        <time>2015-01-17T09:25:00Z</time>
      </trkpt>
      <trkpt lat="42.388674000" lon="-2.722071000">
        <ele>534.60</ele>
        <time>2015-01-17T09:25:01Z</time>
      </trkpt>
      <trkpt lat="42.388710000" lon="-2.722118000">
        <ele>534.40</ele>
        <time>2015-01-17T09:25:02Z</time>
      </trkpt>
      <trkpt lat="42.388744000" lon="-2.722160000">
        <ele>534.50</ele>
        <time>2015-01-17T09:25:03Z</time>
      </trkpt>
      <trkpt lat="42.388778000" lon="-2.722197000">
        <ele>534.60</ele>
        <time>2015-01-17T09:25:04Z</time>
      </trkpt>
      <trkpt lat="42.388810000" lon="-2.722237000">
        <ele>534.60</ele>
        <time>2015-01-17T09:25:05Z</time>
      </trkpt>
      <trkpt lat="42.388843000" lon="-2.722278000">
        <ele>534.60</ele>
        <time>2015-01-17T09:25:06Z</time>
      </trkpt>
      <trkpt lat="42.388872000" lon="-2.722321000">
        <ele>534.60</ele>
        <time>2015-01-17T09:25:07Z</time>
      </trkpt>
      <trkpt lat="42.388907000" lon="-2.722363000">
        <ele>534.70</ele>
        <time>2015-01-17T09:25:08Z</time>
      </trkpt>
      <trkpt lat="42.388941000" lon="-2.722406000">
        <ele>534.60</ele>
        <time>2015-01-17T09:25:09Z</time>
      </trkpt>
      <trkpt lat="42.388975000" lon="-2.722448000">
        <ele>534.60</ele>
        <time>2015-01-17T09:25:10Z</time>
      </trkpt>
      <trkpt lat="42.389008000" lon="-2.722489000">
        <ele>534.60</ele>
        <time>2015-01-17T09:25:11Z</time>
      </trkpt>
      <trkpt lat="42.389042000" lon="-2.722532000">
        <ele>534.60</ele>
        <time>2015-01-17T09:25:12Z</time>
      </trkpt>
      <trkpt lat="42.389076000" lon="-2.722576000">
        <ele>534.60</ele>
        <time>2015-01-17T09:25:13Z</time>
      </trkpt>
      <trkpt lat="42.389110000" lon="-2.722622000">
        <ele>534.50</ele>
        <time>2015-01-17T09:25:14Z</time>
      </trkpt>
      <trkpt lat="42.389144000" lon="-2.722666000">
        <ele>534.50</ele>
        <time>2015-01-17T09:25:15Z</time>
      </trkpt>
      <trkpt lat="42.389180000" lon="-2.722705000">
        <ele>534.50</ele>
        <time>2015-01-17T09:25:16Z</time>
      </trkpt>
      <trkpt lat="42.389214000" lon="-2.722748000">
        <ele>534.60</ele>
        <time>2015-01-17T09:25:17Z</time>
      </trkpt>
      <trkpt lat="42.389248000" lon="-2.722796000">
        <ele>534.70</ele>
        <time>2015-01-17T09:25:18Z</time>
      </trkpt>
      <trkpt lat="42.389285000" lon="-2.722839000">
        <ele>534.80</ele>
        <time>2015-01-17T09:25:19Z</time>
      </trkpt>
      <trkpt lat="42.389318000" lon="-2.722882000">
        <ele>534.80</ele>
        <time>2015-01-17T09:25:20Z</time>
      </trkpt>
      <trkpt lat="42.389349000" lon="-2.722928000">
        <ele>534.90</ele>
        <time>2015-01-17T09:25:21Z</time>
      </trkpt>
      <trkpt lat="42.389382000" lon="-2.722970000">
        <ele>534.90</ele>
        <time>2015-01-17T09:25:22Z</time>
      </trkpt>
      <trkpt lat="42.389414000" lon="-2.723014000">
        <ele>534.90</ele>
        <time>2015-01-17T09:25:23Z</time>
      </trkpt>
      <trkpt lat="42.389444000" lon="-2.723061000">
        <ele>534.90</ele>
        <time>2015-01-17T09:25:24Z</time>
      </trkpt>
      <trkpt lat="42.389475000" lon="-2.723111000">
        <ele>534.70</ele>
        <time>2015-01-17T09:25:25Z</time>
      </trkpt>
      <trkpt lat="42.389508000" lon="-2.723156000">
        <ele>534.60</ele>
        <time>2015-01-17T09:25:26Z</time>
      </trkpt>
      <trkpt lat="42.389541000" lon="-2.723203000">
        <ele>534.50</ele>
        <time>2015-01-17T09:25:27Z</time>
      </trkpt>
      <trkpt lat="42.389567000" lon="-2.723245000">
        <ele>534.40</ele>
        <time>2015-01-17T09:25:28Z</time>
      </trkpt>
      <trkpt lat="42.389590000" lon="-2.723281000">
        <ele>534.30</ele>
        <time>2015-01-17T09:25:29Z</time>
      </trkpt>
      <trkpt lat="42.389612000" lon="-2.723311000">
        <ele>534.30</ele>
        <time>2015-01-17T09:25:30Z</time>
      </trkpt>
      <trkpt lat="42.389633000" lon="-2.723342000">
        <ele>534.30</ele>
        <time>2015-01-17T09:25:31Z</time>
      </trkpt>
      <trkpt lat="42.389651000" lon="-2.723373000">
        <ele>534.20</ele>
        <time>2015-01-17T09:25:32Z</time>
      </trkpt>
      <trkpt lat="42.389670000" lon="-2.723408000">
        <ele>534.20</ele>
        <time>2015-01-17T09:25:33Z</time>
      </trkpt>
      <trkpt lat="42.389691000" lon="-2.723444000">
        <ele>534.10</ele>
        <time>2015-01-17T09:25:34Z</time>
      </trkpt>
      <trkpt lat="42.389715000" lon="-2.723476000">
        <ele>533.90</ele>
        <time>2015-01-17T09:25:35Z</time>
      </trkpt>
      <trkpt lat="42.389737000" lon="-2.723515000">
        <ele>533.70</ele>
        <time>2015-01-17T09:25:36Z</time>
      </trkpt>
      <trkpt lat="42.389763000" lon="-2.723555000">
        <ele>533.50</ele>
        <time>2015-01-17T09:25:37Z</time>
      </trkpt>
      <trkpt lat="42.389791000" lon="-2.723595000">
        <ele>533.40</ele>
        <time>2015-01-17T09:25:38Z</time>
      </trkpt>
      <trkpt lat="42.389817000" lon="-2.723637000">
        <ele>533.20</ele>
        <time>2015-01-17T09:25:39Z</time>
      </trkpt>
      <trkpt lat="42.389850000" lon="-2.723678000">
        <ele>533.10</ele>
        <time>2015-01-17T09:25:40Z</time>
      </trkpt>
      <trkpt lat="42.389881000" lon="-2.723724000">
        <ele>533.00</ele>
        <time>2015-01-17T09:25:41Z</time>
      </trkpt>
      <trkpt lat="42.389910000" lon="-2.723772000">
        <ele>532.90</ele>
        <time>2015-01-17T09:25:42Z</time>
      </trkpt>
      <trkpt lat="42.389941000" lon="-2.723819000">
        <ele>532.80</ele>
        <time>2015-01-17T09:25:43Z</time>
      </trkpt>
      <trkpt lat="42.389973000" lon="-2.723871000">
        <ele>532.80</ele>
        <time>2015-01-17T09:25:44Z</time>
      </trkpt>
      <trkpt lat="42.390005000" lon="-2.723921000">
        <ele>532.60</ele>
        <time>2015-01-17T09:25:45Z</time>
      </trkpt>
      <trkpt lat="42.390037000" lon="-2.723973000">
        <ele>532.50</ele>
        <time>2015-01-17T09:25:46Z</time>
      </trkpt>
      <trkpt lat="42.390070000" lon="-2.724029000">
        <ele>532.20</ele>
        <time>2015-01-17T09:25:47Z</time>
      </trkpt>
      <trkpt lat="42.390102000" lon="-2.724086000">
        <ele>532.00</ele>
        <time>2015-01-17T09:25:48Z</time>
      </trkpt>
      <trkpt lat="42.390137000" lon="-2.724144000">
        <ele>531.80</ele>
        <time>2015-01-17T09:25:49Z</time>
      </trkpt>
      <trkpt lat="42.390167000" lon="-2.724200000">
        <ele>531.70</ele>
        <time>2015-01-17T09:25:50Z</time>
      </trkpt>
      <trkpt lat="42.390200000" lon="-2.724261000">
        <ele>531.50</ele>
        <time>2015-01-17T09:25:51Z</time>
      </trkpt>
      <trkpt lat="42.390232000" lon="-2.724320000">
        <ele>531.40</ele>
        <time>2015-01-17T09:25:52Z</time>
      </trkpt>
      <trkpt lat="42.390265000" lon="-2.724382000">
        <ele>531.20</ele>
        <time>2015-01-17T09:25:53Z</time>
      </trkpt>
      <trkpt lat="42.390295000" lon="-2.724444000">
        <ele>531.10</ele>
        <time>2015-01-17T09:25:54Z</time>
      </trkpt>
      <trkpt lat="42.390356000" lon="-2.724580000">
        <ele>530.60</ele>
        <time>2015-01-17T09:25:56Z</time>
      </trkpt>
      <trkpt lat="42.390391000" lon="-2.724646000">
        <ele>530.30</ele>
        <time>2015-01-17T09:25:57Z</time>
      </trkpt>
      <trkpt lat="42.390422000" lon="-2.724715000">
        <ele>530.00</ele>
        <time>2015-01-17T09:25:58Z</time>
      </trkpt>
      <trkpt lat="42.390453000" lon="-2.724787000">
        <ele>529.90</ele>
        <time>2015-01-17T09:25:59Z</time>
      </trkpt>
      <trkpt lat="42.390483000" lon="-2.724864000">
        <ele>529.80</ele>
        <time>2015-01-17T09:26:00Z</time>
      </trkpt>
      <trkpt lat="42.390514000" lon="-2.724940000">
        <ele>529.50</ele>
        <time>2015-01-17T09:26:01Z</time>
      </trkpt>
      <trkpt lat="42.390545000" lon="-2.725018000">
        <ele>529.30</ele>
        <time>2015-01-17T09:26:02Z</time>
      </trkpt>
      <trkpt lat="42.390569000" lon="-2.725096000">
        <ele>529.00</ele>
        <time>2015-01-17T09:26:03Z</time>
      </trkpt>
      <trkpt lat="42.390589000" lon="-2.725183000">
        <ele>528.90</ele>
        <time>2015-01-17T09:26:04Z</time>
      </trkpt>
      <trkpt lat="42.390606000" lon="-2.725271000">
        <ele>528.60</ele>
        <time>2015-01-17T09:26:05Z</time>
      </trkpt>
      <trkpt lat="42.390622000" lon="-2.725361000">
        <ele>528.40</ele>
        <time>2015-01-17T09:26:06Z</time>
      </trkpt>
      <trkpt lat="42.390636000" lon="-2.725447000">
        <ele>528.10</ele>
        <time>2015-01-17T09:26:07Z</time>
      </trkpt>
      <trkpt lat="42.390646000" lon="-2.725541000">
        <ele>527.90</ele>
        <time>2015-01-17T09:26:08Z</time>
      </trkpt>
      <trkpt lat="42.390657000" lon="-2.725628000">
        <ele>527.50</ele>
        <time>2015-01-17T09:26:09Z</time>
      </trkpt>
      <trkpt lat="42.390670000" lon="-2.725709000">
        <ele>527.20</ele>
        <time>2015-01-17T09:26:10Z</time>
      </trkpt>
      <trkpt lat="42.390685000" lon="-2.725781000">
        <ele>527.00</ele>
        <time>2015-01-17T09:26:11Z</time>
      </trkpt>
      <trkpt lat="42.390699000" lon="-2.725846000">
        <ele>526.90</ele>
        <time>2015-01-17T09:26:12Z</time>
      </trkpt>
      <trkpt lat="42.390713000" lon="-2.725900000">
        <ele>526.70</ele>
        <time>2015-01-17T09:26:13Z</time>
      </trkpt>
      <trkpt lat="42.390726000" lon="-2.725940000">
        <ele>526.50</ele>
        <time>2015-01-17T09:26:14Z</time>
      </trkpt>
      <trkpt lat="42.390736000" lon="-2.725977000">
        <ele>526.30</ele>
        <time>2015-01-17T09:26:15Z</time>
      </trkpt>
      <trkpt lat="42.390745000" lon="-2.726006000">
        <ele>526.20</ele>
        <time>2015-01-17T09:26:16Z</time>
      </trkpt>
      <trkpt lat="42.390756000" lon="-2.726032000">
        <ele>525.80</ele>
        <time>2015-01-17T09:26:17Z</time>
      </trkpt>
      <trkpt lat="42.390768000" lon="-2.726052000">
        <ele>525.50</ele>
        <time>2015-01-17T09:26:18Z</time>
      </trkpt>
      <trkpt lat="42.390789000" lon="-2.726061000">
        <ele>525.20</ele>
        <time>2015-01-17T09:26:19Z</time>
      </trkpt>
      <trkpt lat="42.390811000" lon="-2.726052000">
        <ele>525.00</ele>
        <time>2015-01-17T09:26:20Z</time>
      </trkpt>
      <trkpt lat="42.390833000" lon="-2.726031000">
        <ele>524.80</ele>
        <time>2015-01-17T09:26:21Z</time>
      </trkpt>
      <trkpt lat="42.390857000" lon="-2.726010000">
        <ele>524.70</ele>
        <time>2015-01-17T09:26:22Z</time>
      </trkpt>
      <trkpt lat="42.390879000" lon="-2.725984000">
        <ele>524.60</ele>
        <time>2015-01-17T09:26:23Z</time>
      </trkpt>
      <trkpt lat="42.390904000" lon="-2.725961000">
        <ele>524.60</ele>
        <time>2015-01-17T09:26:24Z</time>
      </trkpt>
      <trkpt lat="42.390929000" lon="-2.725938000">
        <ele>524.40</ele>
        <time>2015-01-17T09:26:25Z</time>
      </trkpt>
      <trkpt lat="42.390956000" lon="-2.725914000">
        <ele>524.40</ele>
        <time>2015-01-17T09:26:26Z</time>
      </trkpt>
      <trkpt lat="42.390981000" lon="-2.725889000">
        <ele>524.20</ele>
        <time>2015-01-17T09:26:27Z</time>
      </trkpt>
      <trkpt lat="42.391007000" lon="-2.725857000">
        <ele>524.10</ele>
        <time>2015-01-17T09:26:28Z</time>
      </trkpt>
      <trkpt lat="42.391033000" lon="-2.725830000">
        <ele>524.10</ele>
        <time>2015-01-17T09:26:29Z</time>
      </trkpt>
      <trkpt lat="42.391057000" lon="-2.725804000">
        <ele>524.10</ele>
        <time>2015-01-17T09:26:30Z</time>
      </trkpt>
      <trkpt lat="42.391084000" lon="-2.725773000">
        <ele>524.10</ele>
        <time>2015-01-17T09:26:31Z</time>
      </trkpt>
      <trkpt lat="42.391111000" lon="-2.725742000">
        <ele>524.10</ele>
        <time>2015-01-17T09:26:32Z</time>
      </trkpt>
      <trkpt lat="42.391136000" lon="-2.725709000">
        <ele>524.10</ele>
        <time>2015-01-17T09:26:33Z</time>
      </trkpt>
      <trkpt lat="42.391159000" lon="-2.725678000">
        <ele>524.10</ele>
        <time>2015-01-17T09:26:34Z</time>
      </trkpt>
      <trkpt lat="42.391185000" lon="-2.725644000">
        <ele>524.00</ele>
        <time>2015-01-17T09:26:35Z</time>
      </trkpt>
      <trkpt lat="42.391211000" lon="-2.725611000">
        <ele>523.90</ele>
        <time>2015-01-17T09:26:36Z</time>
      </trkpt>
      <trkpt lat="42.391235000" lon="-2.725577000">
        <ele>523.80</ele>
        <time>2015-01-17T09:26:37Z</time>
      </trkpt>
      <trkpt lat="42.391260000" lon="-2.725538000">
        <ele>523.70</ele>
        <time>2015-01-17T09:26:38Z</time>
      </trkpt>
      <trkpt lat="42.391283000" lon="-2.725502000">
        <ele>523.70</ele>
        <time>2015-01-17T09:26:39Z</time>
      </trkpt>
      <trkpt lat="42.391306000" lon="-2.725465000">
        <ele>523.70</ele>
        <time>2015-01-17T09:26:40Z</time>
      </trkpt>
      <trkpt lat="42.391329000" lon="-2.725427000">
        <ele>523.60</ele>
        <time>2015-01-17T09:26:41Z</time>
      </trkpt>
      <trkpt lat="42.391353000" lon="-2.725390000">
        <ele>523.50</ele>
        <time>2015-01-17T09:26:42Z</time>
      </trkpt>
      <trkpt lat="42.391377000" lon="-2.725355000">
        <ele>523.40</ele>
        <time>2015-01-17T09:26:43Z</time>
      </trkpt>
      <trkpt lat="42.391403000" lon="-2.725319000">
        <ele>523.30</ele>
        <time>2015-01-17T09:26:44Z</time>
      </trkpt>
      <trkpt lat="42.391428000" lon="-2.725282000">
        <ele>523.20</ele>
        <time>2015-01-17T09:26:45Z</time>
      </trkpt>
      <trkpt lat="42.391454000" lon="-2.725247000">
        <ele>523.10</ele>
        <time>2015-01-17T09:26:46Z</time>
      </trkpt>
      <trkpt lat="42.391479000" lon="-2.725214000">
        <ele>523.10</ele>
        <time>2015-01-17T09:26:47Z</time>
      </trkpt>
      <trkpt lat="42.391506000" lon="-2.725180000">
        <ele>523.00</ele>
        <time>2015-01-17T09:26:48Z</time>
      </trkpt>
      <trkpt lat="42.391534000" lon="-2.725147000">
        <ele>523.00</ele>
        <time>2015-01-17T09:26:49Z</time>
      </trkpt>
      <trkpt lat="42.391562000" lon="-2.725115000">
        <ele>523.00</ele>
        <time>2015-01-17T09:26:50Z</time>
      </trkpt>
      <trkpt lat="42.391587000" lon="-2.725082000">
        <ele>522.90</ele>
        <time>2015-01-17T09:26:51Z</time>
      </trkpt>
      <trkpt lat="42.391617000" lon="-2.725051000">
        <ele>522.90</ele>
        <time>2015-01-17T09:26:52Z</time>
      </trkpt>
      <trkpt lat="42.391645000" lon="-2.725022000">
        <ele>523.00</ele>
        <time>2015-01-17T09:26:53Z</time>
      </trkpt>
      <trkpt lat="42.391672000" lon="-2.724990000">
        <ele>523.00</ele>
        <time>2015-01-17T09:26:54Z</time>
      </trkpt>
      <trkpt lat="42.391700000" lon="-2.724961000">
        <ele>523.00</ele>
        <time>2015-01-17T09:26:55Z</time>
      </trkpt>
      <trkpt lat="42.391762000" lon="-2.724906000">
        <ele>523.10</ele>
        <time>2015-01-17T09:26:57Z</time>
      </trkpt>
      <trkpt lat="42.391792000" lon="-2.724881000">
        <ele>523.10</ele>
        <time>2015-01-17T09:26:58Z</time>
      </trkpt>
      <trkpt lat="42.391823000" lon="-2.724852000">
        <ele>523.20</ele>
        <time>2015-01-17T09:26:59Z</time>
      </trkpt>
      <trkpt lat="42.391853000" lon="-2.724823000">
        <ele>523.30</ele>
        <time>2015-01-17T09:27:00Z</time>
      </trkpt>
      <trkpt lat="42.391884000" lon="-2.724796000">
        <ele>523.40</ele>
        <time>2015-01-17T09:27:01Z</time>
      </trkpt>
      <trkpt lat="42.391914000" lon="-2.724765000">
        <ele>523.50</ele>
        <time>2015-01-17T09:27:02Z</time>
      </trkpt>
      <trkpt lat="42.391945000" lon="-2.724736000">
        <ele>523.30</ele>
        <time>2015-01-17T09:27:03Z</time>
      </trkpt>
      <trkpt lat="42.391973000" lon="-2.724712000">
        <ele>523.10</ele>
        <time>2015-01-17T09:27:04Z</time>
      </trkpt>
      <trkpt lat="42.391997000" lon="-2.724690000">
        <ele>523.00</ele>
        <time>2015-01-17T09:27:05Z</time>
      </trkpt>
      <trkpt lat="42.392021000" lon="-2.724668000">
        <ele>522.90</ele>
        <time>2015-01-17T09:27:06Z</time>
      </trkpt>
      <trkpt lat="42.392049000" lon="-2.724646000">
        <ele>523.30</ele>
        <time>2015-01-17T09:27:07Z</time>
      </trkpt>
      <trkpt lat="42.392081000" lon="-2.724620000">
        <ele>523.70</ele>
        <time>2015-01-17T09:27:08Z</time>
      </trkpt>
      <trkpt lat="42.392117000" lon="-2.724588000">
        <ele>523.90</ele>
        <time>2015-01-17T09:27:09Z</time>
      </trkpt>
      <trkpt lat="42.392152000" lon="-2.724557000">
        <ele>524.10</ele>
        <time>2015-01-17T09:27:10Z</time>
      </trkpt>
      <trkpt lat="42.392186000" lon="-2.724527000">
        <ele>524.30</ele>
        <time>2015-01-17T09:27:11Z</time>
      </trkpt>
      <trkpt lat="42.392218000" lon="-2.724500000">
        <ele>524.40</ele>
        <time>2015-01-17T09:27:12Z</time>
      </trkpt>
      <trkpt lat="42.392251000" lon="-2.724469000">
        <ele>524.30</ele>
        <time>2015-01-17T09:27:13Z</time>
      </trkpt>
      <trkpt lat="42.392285000" lon="-2.724447000">
        <ele>524.30</ele>
        <time>2015-01-17T09:27:14Z</time>
      </trkpt>
      <trkpt lat="42.392318000" lon="-2.724424000">
        <ele>524.30</ele>
        <time>2015-01-17T09:27:15Z</time>
      </trkpt>
      <trkpt lat="42.392351000" lon="-2.724401000">
        <ele>524.20</ele>
        <time>2015-01-17T09:27:16Z</time>
      </trkpt>
      <trkpt lat="42.392385000" lon="-2.724380000">
        <ele>524.20</ele>
        <time>2015-01-17T09:27:17Z</time>
      </trkpt>
      <trkpt lat="42.392420000" lon="-2.724364000">
        <ele>524.20</ele>
        <time>2015-01-17T09:27:18Z</time>
      </trkpt>
      <trkpt lat="42.392458000" lon="-2.724351000">
        <ele>524.20</ele>
        <time>2015-01-17T09:27:19Z</time>
      </trkpt>
      <trkpt lat="42.392495000" lon="-2.724334000">
        <ele>524.20</ele>
        <time>2015-01-17T09:27:20Z</time>
      </trkpt>
      <trkpt lat="42.392532000" lon="-2.724319000">
        <ele>524.20</ele>
        <time>2015-01-17T09:27:21Z</time>
      </trkpt>
      <trkpt lat="42.392571000" lon="-2.724304000">
        <ele>524.10</ele>
        <time>2015-01-17T09:27:22Z</time>
      </trkpt>
      <trkpt lat="42.392613000" lon="-2.724290000">
        <ele>524.10</ele>
        <time>2015-01-17T09:27:23Z</time>
      </trkpt>
      <trkpt lat="42.392652000" lon="-2.724277000">
        <ele>524.10</ele>
        <time>2015-01-17T09:27:24Z</time>
      </trkpt>
      <trkpt lat="42.392693000" lon="-2.724266000">
        <ele>524.10</ele>
        <time>2015-01-17T09:27:25Z</time>
      </trkpt>
      <trkpt lat="42.392731000" lon="-2.724255000">
        <ele>524.10</ele>
        <time>2015-01-17T09:27:26Z</time>
      </trkpt>
      <trkpt lat="42.392770000" lon="-2.724243000">
        <ele>524.10</ele>
        <time>2015-01-17T09:27:27Z</time>
      </trkpt>
      <trkpt lat="42.392809000" lon="-2.724227000">
        <ele>524.10</ele>
        <time>2015-01-17T09:27:28Z</time>
      </trkpt>
      <trkpt lat="42.392848000" lon="-2.724213000">
        <ele>524.00</ele>
        <time>2015-01-17T09:27:29Z</time>
      </trkpt>
      <trkpt lat="42.392886000" lon="-2.724201000">
        <ele>524.00</ele>
        <time>2015-01-17T09:27:30Z</time>
      </trkpt>
      <trkpt lat="42.392925000" lon="-2.724189000">
        <ele>523.90</ele>
        <time>2015-01-17T09:27:31Z</time>
      </trkpt>
      <trkpt lat="42.392963000" lon="-2.724176000">
        <ele>523.90</ele>
        <time>2015-01-17T09:27:32Z</time>
      </trkpt>
      <trkpt lat="42.393000000" lon="-2.724163000">
        <ele>523.80</ele>
        <time>2015-01-17T09:27:33Z</time>
      </trkpt>
      <trkpt lat="42.393041000" lon="-2.724151000">
        <ele>523.80</ele>
        <time>2015-01-17T09:27:34Z</time>
      </trkpt>
      <trkpt lat="42.393079000" lon="-2.724138000">
        <ele>523.90</ele>
        <time>2015-01-17T09:27:35Z</time>
      </trkpt>
      <trkpt lat="42.393119000" lon="-2.724124000">
        <ele>524.00</ele>
        <time>2015-01-17T09:27:36Z</time>
      </trkpt>
      <trkpt lat="42.393157000" lon="-2.724107000">
        <ele>524.10</ele>
        <time>2015-01-17T09:27:37Z</time>
      </trkpt>
      <trkpt lat="42.393197000" lon="-2.724094000">
        <ele>524.10</ele>
        <time>2015-01-17T09:27:38Z</time>
      </trkpt>
      <trkpt lat="42.393233000" lon="-2.724080000">
        <ele>524.10</ele>
        <time>2015-01-17T09:27:39Z</time>
      </trkpt>
      <trkpt lat="42.393271000" lon="-2.724068000">
        <ele>524.10</ele>
        <time>2015-01-17T09:27:40Z</time>
      </trkpt>
      <trkpt lat="42.393309000" lon="-2.724055000">
        <ele>524.10</ele>
        <time>2015-01-17T09:27:41Z</time>
      </trkpt>
      <trkpt lat="42.393347000" lon="-2.724041000">
        <ele>524.00</ele>
        <time>2015-01-17T09:27:42Z</time>
      </trkpt>
      <trkpt lat="42.393385000" lon="-2.724026000">
        <ele>524.10</ele>
        <time>2015-01-17T09:27:43Z</time>
      </trkpt>
      <trkpt lat="42.393425000" lon="-2.724016000">
        <ele>524.10</ele>
        <time>2015-01-17T09:27:44Z</time>
      </trkpt>
      <trkpt lat="42.393466000" lon="-2.724004000">
        <ele>524.20</ele>
        <time>2015-01-17T09:27:45Z</time>
      </trkpt>
      <trkpt lat="42.393506000" lon="-2.723995000">
        <ele>524.20</ele>
        <time>2015-01-17T09:27:46Z</time>
      </trkpt>
      <trkpt lat="42.393547000" lon="-2.723992000">
        <ele>524.20</ele>
        <time>2015-01-17T09:27:47Z</time>
      </trkpt>
      <trkpt lat="42.393590000" lon="-2.723989000">
        <ele>524.20</ele>
        <time>2015-01-17T09:27:48Z</time>
      </trkpt>
      <trkpt lat="42.393632000" lon="-2.723987000">
        <ele>524.20</ele>
        <time>2015-01-17T09:27:49Z</time>
      </trkpt>
      <trkpt lat="42.393671000" lon="-2.723987000">
        <ele>524.20</ele>
        <time>2015-01-17T09:27:50Z</time>
      </trkpt>
      <trkpt lat="42.393702000" lon="-2.723989000">
        <ele>524.30</ele>
        <time>2015-01-17T09:27:51Z</time>
      </trkpt>
      <trkpt lat="42.393736000" lon="-2.723994000">
        <ele>524.30</ele>
        <time>2015-01-17T09:27:52Z</time>
      </trkpt>
      <trkpt lat="42.393775000" lon="-2.724002000">
        <ele>524.40</ele>
        <time>2015-01-17T09:27:53Z</time>
      </trkpt>
      <trkpt lat="42.393819000" lon="-2.724008000">
        <ele>524.50</ele>
        <time>2015-01-17T09:27:54Z</time>
      </trkpt>
      <trkpt lat="42.393862000" lon="-2.724016000">
        <ele>524.60</ele>
        <time>2015-01-17T09:27:55Z</time>
      </trkpt>
      <trkpt lat="42.393905000" lon="-2.724024000">
        <ele>524.60</ele>
        <time>2015-01-17T09:27:56Z</time>
      </trkpt>
      <trkpt lat="42.393986000" lon="-2.724036000">
        <ele>524.70</ele>
        <time>2015-01-17T09:27:58Z</time>
      </trkpt>
      <trkpt lat="42.394027000" lon="-2.724046000">
        <ele>524.60</ele>
        <time>2015-01-17T09:27:59Z</time>
      </trkpt>
      <trkpt lat="42.394070000" lon="-2.724052000">
        <ele>524.50</ele>
        <time>2015-01-17T09:28:00Z</time>
      </trkpt>
      <trkpt lat="42.394110000" lon="-2.724058000">
        <ele>524.40</ele>
        <time>2015-01-17T09:28:01Z</time>
      </trkpt>
      <trkpt lat="42.394150000" lon="-2.724063000">
        <ele>524.40</ele>
        <time>2015-01-17T09:28:02Z</time>
      </trkpt>
      <trkpt lat="42.394189000" lon="-2.724068000">
        <ele>524.40</ele>
        <time>2015-01-17T09:28:03Z</time>
      </trkpt>
      <trkpt lat="42.394228000" lon="-2.724074000">
        <ele>524.50</ele>
        <time>2015-01-17T09:28:04Z</time>
      </trkpt>
      <trkpt lat="42.394269000" lon="-2.724079000">
        <ele>524.50</ele>
        <time>2015-01-17T09:28:05Z</time>
      </trkpt>
      <trkpt lat="42.394310000" lon="-2.724085000">
        <ele>524.50</ele>
        <time>2015-01-17T09:28:06Z</time>
      </trkpt>
      <trkpt lat="42.394349000" lon="-2.724092000">
        <ele>524.10</ele>
        <time>2015-01-17T09:28:07Z</time>
      </trkpt>
      <trkpt lat="42.394388000" lon="-2.724097000">
        <ele>523.80</ele>
        <time>2015-01-17T09:28:08Z</time>
      </trkpt>
      <trkpt lat="42.394429000" lon="-2.724103000">
        <ele>523.60</ele>
        <time>2015-01-17T09:28:09Z</time>
      </trkpt>
      <trkpt lat="42.394470000" lon="-2.724110000">
        <ele>523.40</ele>
        <time>2015-01-17T09:28:10Z</time>
      </trkpt>
      <trkpt lat="42.394510000" lon="-2.724120000">
        <ele>523.60</ele>
        <time>2015-01-17T09:28:11Z</time>
      </trkpt>
      <trkpt lat="42.394552000" lon="-2.724129000">
        <ele>523.70</ele>
        <time>2015-01-17T09:28:12Z</time>
      </trkpt>
      <trkpt lat="42.394596000" lon="-2.724136000">
        <ele>523.80</ele>
        <time>2015-01-17T09:28:13Z</time>
      </trkpt>
      <trkpt lat="42.394635000" lon="-2.724143000">
        <ele>523.90</ele>
        <time>2015-01-17T09:28:14Z</time>
      </trkpt>
      <trkpt lat="42.394676000" lon="-2.724147000">
        <ele>524.00</ele>
        <time>2015-01-17T09:28:15Z</time>
      </trkpt>
      <trkpt lat="42.394718000" lon="-2.724154000">
        <ele>524.00</ele>
        <time>2015-01-17T09:28:16Z</time>
      </trkpt>
      <trkpt lat="42.394757000" lon="-2.724161000">
        <ele>523.90</ele>
        <time>2015-01-17T09:28:17Z</time>
      </trkpt>
      <trkpt lat="42.394795000" lon="-2.724168000">
        <ele>523.90</ele>
        <time>2015-01-17T09:28:18Z</time>
      </trkpt>
      <trkpt lat="42.394830000" lon="-2.724172000">
        <ele>523.80</ele>
        <time>2015-01-17T09:28:19Z</time>
      </trkpt>
      <trkpt lat="42.394860000" lon="-2.724176000">
        <ele>523.80</ele>
        <time>2015-01-17T09:28:20Z</time>
      </trkpt>
      <trkpt lat="42.394884000" lon="-2.724180000">
        <ele>523.90</ele>
        <time>2015-01-17T09:28:21Z</time>
      </trkpt>
      <trkpt lat="42.394903000" lon="-2.724182000">
        <ele>523.90</ele>
        <time>2015-01-17T09:28:22Z</time>
      </trkpt>
      <trkpt lat="42.394920000" lon="-2.724188000">
        <ele>523.90</ele>
        <time>2015-01-17T09:28:23Z</time>
      </trkpt>
      <trkpt lat="42.394935000" lon="-2.724189000">
        <ele>523.90</ele>
        <time>2015-01-17T09:28:24Z</time>
      </trkpt>
      <trkpt lat="42.394949000" lon="-2.724190000">
        <ele>524.00</ele>
        <time>2015-01-17T09:28:25Z</time>
      </trkpt>
      <trkpt lat="42.394964000" lon="-2.724195000">
        <ele>524.00</ele>
        <time>2015-01-17T09:28:26Z</time>
      </trkpt>
      <trkpt lat="42.394976000" lon="-2.724196000">
        <ele>523.90</ele>
        <time>2015-01-17T09:28:27Z</time>
      </trkpt>
      <trkpt lat="42.394992000" lon="-2.724204000">
        <ele>523.90</ele>
        <time>2015-01-17T09:28:28Z</time>
      </trkpt>
      <trkpt lat="42.395007000" lon="-2.724204000">
        <ele>523.90</ele>
        <time>2015-01-17T09:28:29Z</time>
      </trkpt>
      <trkpt lat="42.395019000" lon="-2.724208000">
        <ele>523.90</ele>
        <time>2015-01-17T09:28:30Z</time>
      </trkpt>
      <trkpt lat="42.395034000" lon="-2.724212000">
        <ele>524.00</ele>
        <time>2015-01-17T09:28:31Z</time>
      </trkpt>
      <trkpt lat="42.395047000" lon="-2.724220000">
        <ele>524.00</ele>
        <time>2015-01-17T09:28:32Z</time>
      </trkpt>
      <trkpt lat="42.395063000" lon="-2.724224000">
        <ele>524.00</ele>
        <time>2015-01-17T09:28:33Z</time>
      </trkpt>
      <trkpt lat="42.395081000" lon="-2.724228000">
        <ele>524.10</ele>
        <time>2015-01-17T09:28:34Z</time>
      </trkpt>
      <trkpt lat="42.395099000" lon="-2.724229000">
        <ele>524.20</ele>
        <time>2015-01-17T09:28:35Z</time>
      </trkpt>
      <trkpt lat="42.395118000" lon="-2.724234000">
        <ele>524.20</ele>
        <time>2015-01-17T09:28:36Z</time>
      </trkpt>
      <trkpt lat="42.395134000" lon="-2.724238000">
        <ele>524.40</ele>
        <time>2015-01-17T09:28:37Z</time>
      </trkpt>
      <trkpt lat="42.395149000" lon="-2.724244000">
        <ele>524.60</ele>
        <time>2015-01-17T09:28:38Z</time>
      </trkpt>
      <trkpt lat="42.395172000" lon="-2.724250000">
        <ele>524.70</ele>
        <time>2015-01-17T09:28:39Z</time>
      </trkpt>
      <trkpt lat="42.395198000" lon="-2.724254000">
        <ele>524.70</ele>
        <time>2015-01-17T09:28:40Z</time>
      </trkpt>
      <trkpt lat="42.395224000" lon="-2.724257000">
        <ele>524.80</ele>
        <time>2015-01-17T09:28:41Z</time>
      </trkpt>
      <trkpt lat="42.395252000" lon="-2.724254000">
        <ele>524.80</ele>
        <time>2015-01-17T09:28:42Z</time>
      </trkpt>
      <trkpt lat="42.395279000" lon="-2.724254000">
        <ele>524.80</ele>
        <time>2015-01-17T09:28:43Z</time>
      </trkpt>
      <trkpt lat="42.395309000" lon="-2.724258000">
        <ele>524.80</ele>
        <time>2015-01-17T09:28:44Z</time>
      </trkpt>
      <trkpt lat="42.395340000" lon="-2.724261000">
        <ele>524.80</ele>
        <time>2015-01-17T09:28:45Z</time>
      </trkpt>
      <trkpt lat="42.395377000" lon="-2.724263000">
        <ele>524.70</ele>
        <time>2015-01-17T09:28:46Z</time>
      </trkpt>
      <trkpt lat="42.395416000" lon="-2.724267000">
        <ele>524.70</ele>
        <time>2015-01-17T09:28:47Z</time>
      </trkpt>
      <trkpt lat="42.395456000" lon="-2.724272000">
        <ele>524.70</ele>
        <time>2015-01-17T09:28:48Z</time>
      </trkpt>
      <trkpt lat="42.395495000" lon="-2.724277000">
        <ele>524.70</ele>
        <time>2015-01-17T09:28:49Z</time>
      </trkpt>
      <trkpt lat="42.395535000" lon="-2.724282000">
        <ele>524.70</ele>
        <time>2015-01-17T09:28:50Z</time>
      </trkpt>
      <trkpt lat="42.395574000" lon="-2.724287000">
        <ele>524.50</ele>
        <time>2015-01-17T09:28:51Z</time>
      </trkpt>
      <trkpt lat="42.395612000" lon="-2.724292000">
        <ele>524.40</ele>
        <time>2015-01-17T09:28:52Z</time>
      </trkpt>
      <trkpt lat="42.395648000" lon="-2.724297000">
        <ele>524.30</ele>
        <time>2015-01-17T09:28:53Z</time>
      </trkpt>
      <trkpt lat="42.395687000" lon="-2.724301000">
        <ele>524.30</ele>
        <time>2015-01-17T09:28:54Z</time>
      </trkpt>
      <trkpt lat="42.395725000" lon="-2.724305000">
        <ele>524.20</ele>
        <time>2015-01-17T09:28:55Z</time>
      </trkpt>
      <trkpt lat="42.395763000" lon="-2.724311000">
        <ele>524.10</ele>
        <time>2015-01-17T09:28:56Z</time>
      </trkpt>
      <trkpt lat="42.395802000" lon="-2.724318000">
        <ele>524.10</ele>
        <time>2015-01-17T09:28:57Z</time>
      </trkpt>
      <trkpt lat="42.395878000" lon="-2.724330000">
        <ele>524.00</ele>
        <time>2015-01-17T09:28:59Z</time>
      </trkpt>
      <trkpt lat="42.395917000" lon="-2.724340000">
        <ele>524.00</ele>
        <time>2015-01-17T09:29:00Z</time>
      </trkpt>
      <trkpt lat="42.395956000" lon="-2.724347000">
        <ele>524.00</ele>
        <time>2015-01-17T09:29:01Z</time>
      </trkpt>
      <trkpt lat="42.395995000" lon="-2.724354000">
        <ele>524.00</ele>
        <time>2015-01-17T09:29:02Z</time>
      </trkpt>
      <trkpt lat="42.396033000" lon="-2.724361000">
        <ele>523.90</ele>
        <time>2015-01-17T09:29:03Z</time>
      </trkpt>
      <trkpt lat="42.396072000" lon="-2.724369000">
        <ele>523.90</ele>
        <time>2015-01-17T09:29:04Z</time>
      </trkpt>
      <trkpt lat="42.396113000" lon="-2.724374000">
        <ele>523.90</ele>
        <time>2015-01-17T09:29:05Z</time>
      </trkpt>
      <trkpt lat="42.396156000" lon="-2.724379000">
        <ele>523.90</ele>
        <time>2015-01-17T09:29:06Z</time>
      </trkpt>
      <trkpt lat="42.396197000" lon="-2.724386000">
        <ele>523.90</ele>
        <time>2015-01-17T09:29:07Z</time>
      </trkpt>
      <trkpt lat="42.396238000" lon="-2.724395000">
        <ele>523.80</ele>
        <time>2015-01-17T09:29:08Z</time>
      </trkpt>
      <trkpt lat="42.396278000" lon="-2.724400000">
        <ele>523.90</ele>
        <time>2015-01-17T09:29:09Z</time>
      </trkpt>
      <trkpt lat="42.396317000" lon="-2.724404000">
        <ele>524.00</ele>
        <time>2015-01-17T09:29:10Z</time>
      </trkpt>
      <trkpt lat="42.396356000" lon="-2.724411000">
        <ele>523.90</ele>
        <time>2015-01-17T09:29:11Z</time>
      </trkpt>
      <trkpt lat="42.396396000" lon="-2.724416000">
        <ele>523.80</ele>
        <time>2015-01-17T09:29:12Z</time>
      </trkpt>
      <trkpt lat="42.396437000" lon="-2.724419000">
        <ele>523.70</ele>
        <time>2015-01-17T09:29:13Z</time>
      </trkpt>
      <trkpt lat="42.396479000" lon="-2.724416000">
        <ele>523.50</ele>
        <time>2015-01-17T09:29:14Z</time>
      </trkpt>
      <trkpt lat="42.396523000" lon="-2.724412000">
        <ele>523.40</ele>
        <time>2015-01-17T09:29:15Z</time>
      </trkpt>
      <trkpt lat="42.396562000" lon="-2.724401000">
        <ele>523.40</ele>
        <time>2015-01-17T09:29:16Z</time>
      </trkpt>
      <trkpt lat="42.396599000" lon="-2.724382000">
        <ele>523.60</ele>
        <time>2015-01-17T09:29:17Z</time>
      </trkpt>
      <trkpt lat="42.396632000" lon="-2.724356000">
        <ele>523.70</ele>
        <time>2015-01-17T09:29:18Z</time>
      </trkpt>
      <trkpt lat="42.396663000" lon="-2.724321000">
        <ele>523.80</ele>
        <time>2015-01-17T09:29:19Z</time>
      </trkpt>
      <trkpt lat="42.396691000" lon="-2.724276000">
        <ele>523.90</ele>
        <time>2015-01-17T09:29:20Z</time>
      </trkpt>
      <trkpt lat="42.396717000" lon="-2.724227000">
        <ele>524.00</ele>
        <time>2015-01-17T09:29:21Z</time>
      </trkpt>
      <trkpt lat="42.396740000" lon="-2.724174000">
        <ele>524.00</ele>
        <time>2015-01-17T09:29:22Z</time>
      </trkpt>
      <trkpt lat="42.396760000" lon="-2.724122000">
        <ele>523.90</ele>
        <time>2015-01-17T09:29:23Z</time>
      </trkpt>
      <trkpt lat="42.396776000" lon="-2.724071000">
        <ele>523.90</ele>
        <time>2015-01-17T09:29:24Z</time>
      </trkpt>
      <trkpt lat="42.396794000" lon="-2.724018000">
        <ele>523.80</ele>
        <time>2015-01-17T09:29:25Z</time>
      </trkpt>
      <trkpt lat="42.396811000" lon="-2.723968000">
        <ele>523.80</ele>
        <time>2015-01-17T09:29:26Z</time>
      </trkpt>
      <trkpt lat="42.396827000" lon="-2.723917000">
        <ele>523.60</ele>
        <time>2015-01-17T09:29:27Z</time>
      </trkpt>
      <trkpt lat="42.396841000" lon="-2.723866000">
        <ele>523.40</ele>
        <time>2015-01-17T09:29:28Z</time>
      </trkpt>
      <trkpt lat="42.396857000" lon="-2.723812000">
        <ele>523.20</ele>
        <time>2015-01-17T09:29:29Z</time>
      </trkpt>
      <trkpt lat="42.396874000" lon="-2.723762000">
        <ele>523.10</ele>
        <time>2015-01-17T09:29:30Z</time>
      </trkpt>
      <trkpt lat="42.396890000" lon="-2.723710000">
        <ele>522.70</ele>
        <time>2015-01-17T09:29:31Z</time>
      </trkpt>
      <trkpt lat="42.396907000" lon="-2.723657000">
        <ele>522.50</ele>
        <time>2015-01-17T09:29:32Z</time>
      </trkpt>
      <trkpt lat="42.396923000" lon="-2.723605000">
        <ele>522.30</ele>
        <time>2015-01-17T09:29:33Z</time>
      </trkpt>
      <trkpt lat="42.396941000" lon="-2.723554000">
        <ele>522.20</ele>
        <time>2015-01-17T09:29:34Z</time>
      </trkpt>
      <trkpt lat="42.396955000" lon="-2.723501000">
        <ele>522.10</ele>
        <time>2015-01-17T09:29:35Z</time>
      </trkpt>
      <trkpt lat="42.396972000" lon="-2.723446000">
        <ele>522.00</ele>
        <time>2015-01-17T09:29:36Z</time>
      </trkpt>
      <trkpt lat="42.396990000" lon="-2.723394000">
        <ele>521.90</ele>
        <time>2015-01-17T09:29:37Z</time>
      </trkpt>
      <trkpt lat="42.397005000" lon="-2.723344000">
        <ele>521.80</ele>
        <time>2015-01-17T09:29:38Z</time>
      </trkpt>
      <trkpt lat="42.397022000" lon="-2.723293000">
        <ele>521.80</ele>
        <time>2015-01-17T09:29:39Z</time>
      </trkpt>
      <trkpt lat="42.397038000" lon="-2.723243000">
        <ele>521.80</ele>
        <time>2015-01-17T09:29:40Z</time>
      </trkpt>
      <trkpt lat="42.397053000" lon="-2.723194000">
        <ele>521.90</ele>
        <time>2015-01-17T09:29:41Z</time>
      </trkpt>
      <trkpt lat="42.397068000" lon="-2.723149000">
        <ele>521.90</ele>
        <time>2015-01-17T09:29:42Z</time>
      </trkpt>
      <trkpt lat="42.397084000" lon="-2.723097000">
        <ele>522.00</ele>
        <time>2015-01-17T09:29:43Z</time>
      </trkpt>
      <trkpt lat="42.397101000" lon="-2.723045000">
        <ele>522.10</ele>
        <time>2015-01-17T09:29:44Z</time>
      </trkpt>
      <trkpt lat="42.397116000" lon="-2.722992000">
        <ele>522.00</ele>
        <time>2015-01-17T09:29:45Z</time>
      </trkpt>
      <trkpt lat="42.397133000" lon="-2.722936000">
        <ele>521.90</ele>
        <time>2015-01-17T09:29:46Z</time>
      </trkpt>
      <trkpt lat="42.397151000" lon="-2.722888000">
        <ele>521.80</ele>
        <time>2015-01-17T09:29:47Z</time>
      </trkpt>
      <trkpt lat="42.397172000" lon="-2.722842000">
        <ele>521.80</ele>
        <time>2015-01-17T09:29:48Z</time>
      </trkpt>
      <trkpt lat="42.397196000" lon="-2.722802000">
        <ele>521.90</ele>
        <time>2015-01-17T09:29:49Z</time>
      </trkpt>
      <trkpt lat="42.397227000" lon="-2.722764000">
        <ele>522.00</ele>
        <time>2015-01-17T09:29:50Z</time>
      </trkpt>
      <trkpt lat="42.397260000" lon="-2.722734000">
        <ele>522.10</ele>
        <time>2015-01-17T09:29:51Z</time>
      </trkpt>
      <trkpt lat="42.397296000" lon="-2.722719000">
        <ele>522.20</ele>
        <time>2015-01-17T09:29:52Z</time>
      </trkpt>
      <trkpt lat="42.397332000" lon="-2.722718000">
        <ele>522.20</ele>
        <time>2015-01-17T09:29:53Z</time>
      </trkpt>
      <trkpt lat="42.397364000" lon="-2.722728000">
        <ele>522.30</ele>
        <time>2015-01-17T09:29:54Z</time>
      </trkpt>
      <trkpt lat="42.397394000" lon="-2.722746000">
        <ele>522.30</ele>
        <time>2015-01-17T09:29:55Z</time>
      </trkpt>
      <trkpt lat="42.397424000" lon="-2.722768000">
        <ele>522.40</ele>
        <time>2015-01-17T09:29:56Z</time>
      </trkpt>
      <trkpt lat="42.397451000" lon="-2.722796000">
        <ele>522.30</ele>
        <time>2015-01-17T09:29:57Z</time>
      </trkpt>
      <trkpt lat="42.397479000" lon="-2.722824000">
        <ele>522.20</ele>
        <time>2015-01-17T09:29:58Z</time>
      </trkpt>
      <trkpt lat="42.397530000" lon="-2.722869000">
        <ele>522.10</ele>
        <time>2015-01-17T09:30:00Z</time>
      </trkpt>
      <trkpt lat="42.397551000" lon="-2.722889000">
        <ele>522.40</ele>
        <time>2015-01-17T09:30:01Z</time>
      </trkpt>
      <trkpt lat="42.397568000" lon="-2.722906000">
        <ele>522.50</ele>
        <time>2015-01-17T09:30:02Z</time>
      </trkpt>
      <trkpt lat="42.397583000" lon="-2.722923000">
        <ele>522.70</ele>
        <time>2015-01-17T09:30:03Z</time>
      </trkpt>
      <trkpt lat="42.397600000" lon="-2.722937000">
        <ele>522.80</ele>
        <time>2015-01-17T09:30:04Z</time>
      </trkpt>
      <trkpt lat="42.397611000" lon="-2.722948000">
        <ele>522.80</ele>
        <time>2015-01-17T09:30:05Z</time>
      </trkpt>
      <trkpt lat="42.397625000" lon="-2.722957000">
        <ele>522.90</ele>
        <time>2015-01-17T09:30:06Z</time>
      </trkpt>
      <trkpt lat="42.397637000" lon="-2.722968000">
        <ele>522.80</ele>
        <time>2015-01-17T09:30:07Z</time>
      </trkpt>
      <trkpt lat="42.397648000" lon="-2.722977000">
        <ele>522.80</ele>
        <time>2015-01-17T09:30:08Z</time>
      </trkpt>
      <trkpt lat="42.397654000" lon="-2.722987000">
        <ele>522.70</ele>
        <time>2015-01-17T09:30:09Z</time>
      </trkpt>
      <trkpt lat="42.397660000" lon="-2.722993000">
        <ele>522.70</ele>
        <time>2015-01-17T09:30:10Z</time>
      </trkpt>
      <trkpt lat="42.397668000" lon="-2.723000000">
        <ele>522.70</ele>
        <time>2015-01-17T09:30:11Z</time>
      </trkpt>
      <trkpt lat="42.397676000" lon="-2.723007000">
        <ele>522.70</ele>
        <time>2015-01-17T09:30:12Z</time>
      </trkpt>
      <trkpt lat="42.397684000" lon="-2.723016000">
        <ele>522.80</ele>
        <time>2015-01-17T09:30:13Z</time>
      </trkpt>
      <trkpt lat="42.397691000" lon="-2.723026000">
        <ele>522.90</ele>
        <time>2015-01-17T09:30:14Z</time>
      </trkpt>
      <trkpt lat="42.397698000" lon="-2.723035000">
        <ele>522.90</ele>
        <time>2015-01-17T09:30:15Z</time>
      </trkpt>
      <trkpt lat="42.397707000" lon="-2.723043000">
        <ele>523.00</ele>
        <time>2015-01-17T09:30:16Z</time>
      </trkpt>
      <trkpt lat="42.397717000" lon="-2.723048000">
        <ele>523.00</ele>
        <time>2015-01-17T09:30:17Z</time>
      </trkpt>
      <trkpt lat="42.397724000" lon="-2.723055000">
        <ele>523.10</ele>
        <time>2015-01-17T09:30:18Z</time>
      </trkpt>
      <trkpt lat="42.397732000" lon="-2.723063000">
        <ele>523.10</ele>
        <time>2015-01-17T09:30:19Z</time>
      </trkpt>
      <trkpt lat="42.397741000" lon="-2.723073000">
        <ele>523.10</ele>
        <time>2015-01-17T09:30:20Z</time>
      </trkpt>
      <trkpt lat="42.397749000" lon="-2.723081000">
        <ele>523.10</ele>
        <time>2015-01-17T09:30:21Z</time>
      </trkpt>
      <trkpt lat="42.397758000" lon="-2.723089000">
        <ele>523.20</ele>
        <time>2015-01-17T09:30:22Z</time>
      </trkpt>
      <trkpt lat="42.397771000" lon="-2.723098000">
        <ele>523.20</ele>
        <time>2015-01-17T09:30:23Z</time>
      </trkpt>
      <trkpt lat="42.397782000" lon="-2.723105000">
        <ele>523.20</ele>
        <time>2015-01-17T09:30:24Z</time>
      </trkpt>
      <trkpt lat="42.397791000" lon="-2.723112000">
        <ele>522.90</ele>
        <time>2015-01-17T09:30:25Z</time>
      </trkpt>
      <trkpt lat="42.397803000" lon="-2.723125000">
        <ele>522.70</ele>
        <time>2015-01-17T09:30:26Z</time>
      </trkpt>
      <trkpt lat="42.397809000" lon="-2.723142000">
        <ele>522.60</ele>
        <time>2015-01-17T09:30:27Z</time>
      </trkpt>
      <trkpt lat="42.397817000" lon="-2.723156000">
        <ele>522.50</ele>
        <time>2015-01-17T09:30:28Z</time>
      </trkpt>
      <trkpt lat="42.397830000" lon="-2.723169000">
        <ele>522.60</ele>
        <time>2015-01-17T09:30:29Z</time>
      </trkpt>
      <trkpt lat="42.397848000" lon="-2.723186000">
        <ele>522.70</ele>
        <time>2015-01-17T09:30:30Z</time>
      </trkpt>
      <trkpt lat="42.397864000" lon="-2.723207000">
        <ele>522.80</ele>
        <time>2015-01-17T09:30:31Z</time>
      </trkpt>
      <trkpt lat="42.397880000" lon="-2.723229000">
        <ele>522.80</ele>
        <time>2015-01-17T09:30:32Z</time>
      </trkpt>
      <trkpt lat="42.397899000" lon="-2.723251000">
        <ele>522.80</ele>
        <time>2015-01-17T09:30:33Z</time>
      </trkpt>
      <trkpt lat="42.397925000" lon="-2.723267000">
        <ele>522.80</ele>
        <time>2015-01-17T09:30:34Z</time>
      </trkpt>
      <trkpt lat="42.397954000" lon="-2.723279000">
        <ele>522.80</ele>
        <time>2015-01-17T09:30:35Z</time>
      </trkpt>
      <trkpt lat="42.397977000" lon="-2.723288000">
        <ele>522.70</ele>
        <time>2015-01-17T09:30:36Z</time>
      </trkpt>
      <trkpt lat="42.398001000" lon="-2.723305000">
        <ele>522.90</ele>
        <time>2015-01-17T09:30:37Z</time>
      </trkpt>
      <trkpt lat="42.398023000" lon="-2.723320000">
        <ele>523.00</ele>
        <time>2015-01-17T09:30:38Z</time>
      </trkpt>
      <trkpt lat="42.398044000" lon="-2.723345000">
        <ele>523.10</ele>
        <time>2015-01-17T09:30:39Z</time>
      </trkpt>
      <trkpt lat="42.398062000" lon="-2.723364000">
        <ele>523.20</ele>
        <time>2015-01-17T09:30:40Z</time>
      </trkpt>
      <trkpt lat="42.398086000" lon="-2.723387000">
        <ele>523.30</ele>
        <time>2015-01-17T09:30:41Z</time>
      </trkpt>
      <trkpt lat="42.398115000" lon="-2.723413000">
        <ele>523.40</ele>
        <time>2015-01-17T09:30:42Z</time>
      </trkpt>
      <trkpt lat="42.398144000" lon="-2.723441000">
        <ele>523.60</ele>
        <time>2015-01-17T09:30:43Z</time>
      </trkpt>
      <trkpt lat="42.398172000" lon="-2.723468000">
        <ele>523.80</ele>
        <time>2015-01-17T09:30:44Z</time>
      </trkpt>
      <trkpt lat="42.398200000" lon="-2.723493000">
        <ele>523.90</ele>
        <time>2015-01-17T09:30:45Z</time>
      </trkpt>
      <trkpt lat="42.398229000" lon="-2.723519000">
        <ele>524.00</ele>
        <time>2015-01-17T09:30:46Z</time>
      </trkpt>
      <trkpt lat="42.398259000" lon="-2.723544000">
        <ele>523.90</ele>
        <time>2015-01-17T09:30:47Z</time>
      </trkpt>
      <trkpt lat="42.398291000" lon="-2.723564000">
        <ele>523.80</ele>
        <time>2015-01-17T09:30:48Z</time>
      </trkpt>
      <trkpt lat="42.398325000" lon="-2.723579000">
        <ele>523.70</ele>
        <time>2015-01-17T09:30:49Z</time>
      </trkpt>
      <trkpt lat="42.398360000" lon="-2.723590000">
        <ele>523.70</ele>
        <time>2015-01-17T09:30:50Z</time>
      </trkpt>
      <trkpt lat="42.398399000" lon="-2.723595000">
        <ele>523.70</ele>
        <time>2015-01-17T09:30:51Z</time>
      </trkpt>
      <trkpt lat="42.398437000" lon="-2.723597000">
        <ele>523.80</ele>
        <time>2015-01-17T09:30:52Z</time>
      </trkpt>
      <trkpt lat="42.398474000" lon="-2.723591000">
        <ele>523.90</ele>
        <time>2015-01-17T09:30:53Z</time>
      </trkpt>
      <trkpt lat="42.398512000" lon="-2.723578000">
        <ele>523.90</ele>
        <time>2015-01-17T09:30:54Z</time>
      </trkpt>
      <trkpt lat="42.398549000" lon="-2.723560000">
        <ele>523.90</ele>
        <time>2015-01-17T09:30:55Z</time>
      </trkpt>
      <trkpt lat="42.398584000" lon="-2.723538000">
        <ele>523.80</ele>
        <time>2015-01-17T09:30:56Z</time>
      </trkpt>
      <trkpt lat="42.398618000" lon="-2.723511000">
        <ele>523.80</ele>
        <time>2015-01-17T09:30:57Z</time>
      </trkpt>
      <trkpt lat="42.398653000" lon="-2.723485000">
        <ele>523.80</ele>
        <time>2015-01-17T09:30:58Z</time>
      </trkpt>
      <trkpt lat="42.398688000" lon="-2.723456000">
        <ele>523.60</ele>
        <time>2015-01-17T09:30:59Z</time>
      </trkpt>
      <trkpt lat="42.398762000" lon="-2.723397000">
        <ele>523.30</ele>
        <time>2015-01-17T09:31:01Z</time>
      </trkpt>
      <trkpt lat="42.398799000" lon="-2.723369000">
        <ele>523.20</ele>
        <time>2015-01-17T09:31:02Z</time>
      </trkpt>
      <trkpt lat="42.398835000" lon="-2.723338000">
        <ele>523.00</ele>
        <time>2015-01-17T09:31:03Z</time>
      </trkpt>
      <trkpt lat="42.398869000" lon="-2.723307000">
        <ele>522.80</ele>
        <time>2015-01-17T09:31:04Z</time>
      </trkpt>
      <trkpt lat="42.398906000" lon="-2.723278000">
        <ele>522.70</ele>
        <time>2015-01-17T09:31:05Z</time>
      </trkpt>
      <trkpt lat="42.398942000" lon="-2.723251000">
        <ele>522.60</ele>
        <time>2015-01-17T09:31:06Z</time>
      </trkpt>
      <trkpt lat="42.398976000" lon="-2.723219000">
        <ele>522.80</ele>
        <time>2015-01-17T09:31:07Z</time>
      </trkpt>
      <trkpt lat="42.399010000" lon="-2.723190000">
        <ele>523.00</ele>
        <time>2015-01-17T09:31:08Z</time>
      </trkpt>
      <trkpt lat="42.399043000" lon="-2.723163000">
        <ele>523.20</ele>
        <time>2015-01-17T09:31:09Z</time>
      </trkpt>
      <trkpt lat="42.399077000" lon="-2.723135000">
        <ele>523.30</ele>
        <time>2015-01-17T09:31:10Z</time>
      </trkpt>
      <trkpt lat="42.399109000" lon="-2.723109000">
        <ele>523.40</ele>
        <time>2015-01-17T09:31:11Z</time>
      </trkpt>
      <trkpt lat="42.399140000" lon="-2.723084000">
        <ele>523.50</ele>
        <time>2015-01-17T09:31:12Z</time>
      </trkpt>
      <trkpt lat="42.399171000" lon="-2.723056000">
        <ele>523.60</ele>
        <time>2015-01-17T09:31:13Z</time>
      </trkpt>
      <trkpt lat="42.399200000" lon="-2.723033000">
        <ele>523.60</ele>
        <time>2015-01-17T09:31:14Z</time>
      </trkpt>
      <trkpt lat="42.399228000" lon="-2.723010000">
        <ele>523.60</ele>
        <time>2015-01-17T09:31:15Z</time>
      </trkpt>
      <trkpt lat="42.399253000" lon="-2.722990000">
        <ele>523.70</ele>
        <time>2015-01-17T09:31:16Z</time>
      </trkpt>
      <trkpt lat="42.399277000" lon="-2.722970000">
        <ele>523.70</ele>
        <time>2015-01-17T09:31:17Z</time>
      </trkpt>
      <trkpt lat="42.399304000" lon="-2.722949000">
        <ele>523.70</ele>
        <time>2015-01-17T09:31:18Z</time>
      </trkpt>
      <trkpt lat="42.399331000" lon="-2.722924000">
        <ele>523.70</ele>
        <time>2015-01-17T09:31:19Z</time>
      </trkpt>
      <trkpt lat="42.399360000" lon="-2.722898000">
        <ele>523.70</ele>
        <time>2015-01-17T09:31:20Z</time>
      </trkpt>
      <trkpt lat="42.399391000" lon="-2.722872000">
        <ele>523.60</ele>
        <time>2015-01-17T09:31:21Z</time>
      </trkpt>
      <trkpt lat="42.399421000" lon="-2.722842000">
        <ele>523.50</ele>
        <time>2015-01-17T09:31:22Z</time>
      </trkpt>
      <trkpt lat="42.399451000" lon="-2.722815000">
        <ele>523.40</ele>
        <time>2015-01-17T09:31:23Z</time>
      </trkpt>
      <trkpt lat="42.399480000" lon="-2.722787000">
        <ele>523.40</ele>
        <time>2015-01-17T09:31:24Z</time>
      </trkpt>
      <trkpt lat="42.399510000" lon="-2.722758000">
        <ele>523.50</ele>
        <time>2015-01-17T09:31:25Z</time>
      </trkpt>
      <trkpt lat="42.399541000" lon="-2.722734000">
        <ele>523.70</ele>
        <time>2015-01-17T09:31:26Z</time>
      </trkpt>
      <trkpt lat="42.399571000" lon="-2.722710000">
        <ele>523.70</ele>
        <time>2015-01-17T09:31:27Z</time>
      </trkpt>
      <trkpt lat="42.399603000" lon="-2.722684000">
        <ele>523.80</ele>
        <time>2015-01-17T09:31:28Z</time>
      </trkpt>
      <trkpt lat="42.399632000" lon="-2.722658000">
        <ele>523.90</ele>
        <time>2015-01-17T09:31:29Z</time>
      </trkpt>
      <trkpt lat="42.399662000" lon="-2.722632000">
        <ele>523.90</ele>
        <time>2015-01-17T09:31:30Z</time>
      </trkpt>
      <trkpt lat="42.399691000" lon="-2.722610000">
        <ele>523.70</ele>
        <time>2015-01-17T09:31:31Z</time>
      </trkpt>
      <trkpt lat="42.399722000" lon="-2.722587000">
        <ele>523.60</ele>
        <time>2015-01-17T09:31:32Z</time>
      </trkpt>
      <trkpt lat="42.399756000" lon="-2.722567000">
        <ele>523.40</ele>
        <time>2015-01-17T09:31:33Z</time>
      </trkpt>
      <trkpt lat="42.399790000" lon="-2.722549000">
        <ele>523.30</ele>
        <time>2015-01-17T09:31:34Z</time>
      </trkpt>
      <trkpt lat="42.399825000" lon="-2.722535000">
        <ele>523.30</ele>
        <time>2015-01-17T09:31:35Z</time>
      </trkpt>
      <trkpt lat="42.399860000" lon="-2.722528000">
        <ele>523.30</ele>
        <time>2015-01-17T09:31:36Z</time>
      </trkpt>
      <trkpt lat="42.399895000" lon="-2.722522000">
        <ele>523.30</ele>
        <time>2015-01-17T09:31:37Z</time>
      </trkpt>
      <trkpt lat="42.399929000" lon="-2.722522000">
        <ele>523.40</ele>
        <time>2015-01-17T09:31:38Z</time>
      </trkpt>
      <trkpt lat="42.399960000" lon="-2.722522000">
        <ele>523.40</ele>
        <time>2015-01-17T09:31:39Z</time>
      </trkpt>
      <trkpt lat="42.399990000" lon="-2.722529000">
        <ele>523.40</ele>
        <time>2015-01-17T09:31:40Z</time>
      </trkpt>
      <trkpt lat="42.400024000" lon="-2.722537000">
        <ele>523.40</ele>
        <time>2015-01-17T09:31:41Z</time>
      </trkpt>
      <trkpt lat="42.400057000" lon="-2.722550000">
        <ele>523.30</ele>
        <time>2015-01-17T09:31:42Z</time>
      </trkpt>
      <trkpt lat="42.400092000" lon="-2.722564000">
        <ele>523.30</ele>
        <time>2015-01-17T09:31:43Z</time>
      </trkpt>
      <trkpt lat="42.400125000" lon="-2.722581000">
        <ele>523.30</ele>
        <time>2015-01-17T09:31:44Z</time>
      </trkpt>
      <trkpt lat="42.400155000" lon="-2.722597000">
        <ele>523.30</ele>
        <time>2015-01-17T09:31:45Z</time>
      </trkpt>
      <trkpt lat="42.400187000" lon="-2.722614000">
        <ele>523.40</ele>
        <time>2015-01-17T09:31:46Z</time>
      </trkpt>
      <trkpt lat="42.400221000" lon="-2.722629000">
        <ele>523.40</ele>
        <time>2015-01-17T09:31:47Z</time>
      </trkpt>
      <trkpt lat="42.400255000" lon="-2.722644000">
        <ele>523.40</ele>
        <time>2015-01-17T09:31:48Z</time>
      </trkpt>
      <trkpt lat="42.400287000" lon="-2.722655000">
        <ele>523.40</ele>
        <time>2015-01-17T09:31:49Z</time>
      </trkpt>
      <trkpt lat="42.400319000" lon="-2.722670000">
        <ele>523.30</ele>
        <time>2015-01-17T09:31:50Z</time>
      </trkpt>
      <trkpt lat="42.400352000" lon="-2.722686000">
        <ele>523.30</ele>
        <time>2015-01-17T09:31:51Z</time>
      </trkpt>
      <trkpt lat="42.400386000" lon="-2.722700000">
        <ele>523.30</ele>
        <time>2015-01-17T09:31:52Z</time>
      </trkpt>
      <trkpt lat="42.400416000" lon="-2.722717000">
        <ele>523.30</ele>
        <time>2015-01-17T09:31:53Z</time>
      </trkpt>
      <trkpt lat="42.400448000" lon="-2.722729000">
        <ele>523.40</ele>
        <time>2015-01-17T09:31:54Z</time>
      </trkpt>
      <trkpt lat="42.400479000" lon="-2.722741000">
        <ele>523.50</ele>
        <time>2015-01-17T09:31:55Z</time>
      </trkpt>
      <trkpt lat="42.400511000" lon="-2.722757000">
        <ele>523.50</ele>
        <time>2015-01-17T09:31:56Z</time>
      </trkpt>
      <trkpt lat="42.400542000" lon="-2.722770000">
        <ele>523.50</ele>
        <time>2015-01-17T09:31:57Z</time>
      </trkpt>
      <trkpt lat="42.400570000" lon="-2.722780000">
        <ele>523.50</ele>
        <time>2015-01-17T09:31:58Z</time>
      </trkpt>
      <trkpt lat="42.400596000" lon="-2.722791000">
        <ele>523.40</ele>
        <time>2015-01-17T09:31:59Z</time>
      </trkpt>
      <trkpt lat="42.400627000" lon="-2.722801000">
        <ele>523.30</ele>
        <time>2015-01-17T09:32:00Z</time>
      </trkpt>
      <trkpt lat="42.400688000" lon="-2.722813000">
        <ele>523.10</ele>
        <time>2015-01-17T09:32:02Z</time>
      </trkpt>
      <trkpt lat="42.400721000" lon="-2.722815000">
        <ele>523.00</ele>
        <time>2015-01-17T09:32:03Z</time>
      </trkpt>
      <trkpt lat="42.400756000" lon="-2.722813000">
        <ele>522.80</ele>
        <time>2015-01-17T09:32:04Z</time>
      </trkpt>
      <trkpt lat="42.400791000" lon="-2.722809000">
        <ele>522.80</ele>
        <time>2015-01-17T09:32:05Z</time>
      </trkpt>
      <trkpt lat="42.400826000" lon="-2.722797000">
        <ele>522.80</ele>
        <time>2015-01-17T09:32:06Z</time>
      </trkpt>
      <trkpt lat="42.400861000" lon="-2.722779000">
        <ele>522.80</ele>
        <time>2015-01-17T09:32:07Z</time>
      </trkpt>
      <trkpt lat="42.400896000" lon="-2.722757000">
        <ele>522.70</ele>
        <time>2015-01-17T09:32:08Z</time>
      </trkpt>
      <trkpt lat="42.400928000" lon="-2.722733000">
        <ele>522.70</ele>
        <time>2015-01-17T09:32:09Z</time>
      </trkpt>
      <trkpt lat="42.400961000" lon="-2.722711000">
        <ele>522.70</ele>
        <time>2015-01-17T09:32:10Z</time>
      </trkpt>
      <trkpt lat="42.400993000" lon="-2.722687000">
        <ele>523.00</ele>
        <time>2015-01-17T09:32:11Z</time>
      </trkpt>
      <trkpt lat="42.401025000" lon="-2.722661000">
        <ele>523.20</ele>
        <time>2015-01-17T09:32:12Z</time>
      </trkpt>
      <trkpt lat="42.401055000" lon="-2.722631000">
        <ele>523.30</ele>
        <time>2015-01-17T09:32:13Z</time>
      </trkpt>
      <trkpt lat="42.401087000" lon="-2.722605000">
        <ele>523.40</ele>
        <time>2015-01-17T09:32:14Z</time>
      </trkpt>
      <trkpt lat="42.401118000" lon="-2.722575000">
        <ele>523.40</ele>
        <time>2015-01-17T09:32:15Z</time>
      </trkpt>
      <trkpt lat="42.401148000" lon="-2.722545000">
        <ele>523.50</ele>
        <time>2015-01-17T09:32:16Z</time>
      </trkpt>
      <trkpt lat="42.401178000" lon="-2.722515000">
        <ele>523.50</ele>
        <time>2015-01-17T09:32:17Z</time>
      </trkpt>
      <trkpt lat="42.401207000" lon="-2.722485000">
        <ele>523.50</ele>
        <time>2015-01-17T09:32:18Z</time>
      </trkpt>
      <trkpt lat="42.401237000" lon="-2.722456000">
        <ele>523.30</ele>
        <time>2015-01-17T09:32:19Z</time>
      </trkpt>
      <trkpt lat="42.401267000" lon="-2.722426000">
        <ele>523.10</ele>
        <time>2015-01-17T09:32:20Z</time>
      </trkpt>
      <trkpt lat="42.401298000" lon="-2.722400000">
        <ele>523.00</ele>
        <time>2015-01-17T09:32:21Z</time>
      </trkpt>
      <trkpt lat="42.401331000" lon="-2.722374000">
        <ele>522.90</ele>
        <time>2015-01-17T09:32:22Z</time>
      </trkpt>
      <trkpt lat="42.401365000" lon="-2.722352000">
        <ele>522.90</ele>
        <time>2015-01-17T09:32:23Z</time>
      </trkpt>
      <trkpt lat="42.401399000" lon="-2.722330000">
        <ele>522.80</ele>
        <time>2015-01-17T09:32:24Z</time>
      </trkpt>
      <trkpt lat="42.401434000" lon="-2.722310000">
        <ele>522.90</ele>
        <time>2015-01-17T09:32:25Z</time>
      </trkpt>
      <trkpt lat="42.401470000" lon="-2.722291000">
        <ele>522.90</ele>
        <time>2015-01-17T09:32:26Z</time>
      </trkpt>
      <trkpt lat="42.401508000" lon="-2.722274000">
        <ele>523.10</ele>
        <time>2015-01-17T09:32:27Z</time>
      </trkpt>
      <trkpt lat="42.401545000" lon="-2.722257000">
        <ele>523.20</ele>
        <time>2015-01-17T09:32:28Z</time>
      </trkpt>
      <trkpt lat="42.401583000" lon="-2.722242000">
        <ele>523.20</ele>
        <time>2015-01-17T09:32:29Z</time>
      </trkpt>
      <trkpt lat="42.401622000" lon="-2.722226000">
        <ele>523.10</ele>
        <time>2015-01-17T09:32:30Z</time>
      </trkpt>
      <trkpt lat="42.401663000" lon="-2.722212000">
        <ele>523.10</ele>
        <time>2015-01-17T09:32:31Z</time>
      </trkpt>
      <trkpt lat="42.401703000" lon="-2.722193000">
        <ele>523.20</ele>
        <time>2015-01-17T09:32:32Z</time>
      </trkpt>
      <trkpt lat="42.401741000" lon="-2.722174000">
        <ele>523.10</ele>
        <time>2015-01-17T09:32:33Z</time>
      </trkpt>
      <trkpt lat="42.401779000" lon="-2.722157000">
        <ele>523.10</ele>
        <time>2015-01-17T09:32:34Z</time>
      </trkpt>
      <trkpt lat="42.401814000" lon="-2.722144000">
        <ele>523.00</ele>
        <time>2015-01-17T09:32:35Z</time>
      </trkpt>
      <trkpt lat="42.401852000" lon="-2.722128000">
        <ele>523.00</ele>
        <time>2015-01-17T09:32:36Z</time>
      </trkpt>
      <trkpt lat="42.401887000" lon="-2.722114000">
        <ele>522.90</ele>
        <time>2015-01-17T09:32:37Z</time>
      </trkpt>
      <trkpt lat="42.401925000" lon="-2.722095000">
        <ele>522.90</ele>
        <time>2015-01-17T09:32:38Z</time>
      </trkpt>
      <trkpt lat="42.401963000" lon="-2.722075000">
        <ele>522.80</ele>
        <time>2015-01-17T09:32:39Z</time>
      </trkpt>
      <trkpt lat="42.401996000" lon="-2.722051000">
        <ele>522.80</ele>
        <time>2015-01-17T09:32:40Z</time>
      </trkpt>
      <trkpt lat="42.402030000" lon="-2.722028000">
        <ele>523.00</ele>
        <time>2015-01-17T09:32:41Z</time>
      </trkpt>
      <trkpt lat="42.402066000" lon="-2.722006000">
        <ele>523.10</ele>
        <time>2015-01-17T09:32:42Z</time>
      </trkpt>
      <trkpt lat="42.402099000" lon="-2.721981000">
        <ele>523.20</ele>
        <time>2015-01-17T09:32:43Z</time>
      </trkpt>
      <trkpt lat="42.402129000" lon="-2.721953000">
        <ele>523.20</ele>
        <time>2015-01-17T09:32:44Z</time>
      </trkpt>
      <trkpt lat="42.402158000" lon="-2.721929000">
        <ele>523.30</ele>
        <time>2015-01-17T09:32:45Z</time>
      </trkpt>
      <trkpt lat="42.402181000" lon="-2.721905000">
        <ele>523.30</ele>
        <time>2015-01-17T09:32:46Z</time>
      </trkpt>
      <trkpt lat="42.402202000" lon="-2.721882000">
        <ele>523.30</ele>
        <time>2015-01-17T09:32:47Z</time>
      </trkpt>
      <trkpt lat="42.402227000" lon="-2.721855000">
        <ele>523.30</ele>
        <time>2015-01-17T09:32:48Z</time>
      </trkpt>
      <trkpt lat="42.402252000" lon="-2.721829000">
        <ele>523.20</ele>
        <time>2015-01-17T09:32:49Z</time>
      </trkpt>
      <trkpt lat="42.402281000" lon="-2.721793000">
        <ele>523.10</ele>
        <time>2015-01-17T09:32:50Z</time>
      </trkpt>
      <trkpt lat="42.402308000" lon="-2.721751000">
        <ele>523.10</ele>
        <time>2015-01-17T09:32:51Z</time>
      </trkpt>
      <trkpt lat="42.402334000" lon="-2.721713000">
        <ele>523.00</ele>
        <time>2015-01-17T09:32:52Z</time>
      </trkpt>
      <trkpt lat="42.402360000" lon="-2.721674000">
        <ele>522.90</ele>
        <time>2015-01-17T09:32:53Z</time>
      </trkpt>
      <trkpt lat="42.402383000" lon="-2.721636000">
        <ele>522.90</ele>
        <time>2015-01-17T09:32:54Z</time>
      </trkpt>
      <trkpt lat="42.402408000" lon="-2.721596000">
        <ele>522.80</ele>
        <time>2015-01-17T09:32:55Z</time>
      </trkpt>
      <trkpt lat="42.402432000" lon="-2.721558000">
        <ele>522.80</ele>
        <time>2015-01-17T09:32:56Z</time>
      </trkpt>
      <trkpt lat="42.402457000" lon="-2.721522000">
        <ele>522.80</ele>
        <time>2015-01-17T09:32:57Z</time>
      </trkpt>
      <trkpt lat="42.402481000" lon="-2.721484000">
        <ele>522.80</ele>
        <time>2015-01-17T09:32:58Z</time>
      </trkpt>
      <trkpt lat="42.402504000" lon="-2.721443000">
        <ele>522.40</ele>
        <time>2015-01-17T09:32:59Z</time>
      </trkpt>
      <trkpt lat="42.402529000" lon="-2.721407000">
        <ele>522.10</ele>
        <time>2015-01-17T09:33:00Z</time>
      </trkpt>
      <trkpt lat="42.402555000" lon="-2.721373000">
        <ele>522.00</ele>
        <time>2015-01-17T09:33:01Z</time>
      </trkpt>
      <trkpt lat="42.402605000" lon="-2.721297000">
        <ele>522.00</ele>
        <time>2015-01-17T09:33:03Z</time>
      </trkpt>
      <trkpt lat="42.402632000" lon="-2.721256000">
        <ele>522.00</ele>
        <time>2015-01-17T09:33:04Z</time>
      </trkpt>
      <trkpt lat="42.402660000" lon="-2.721218000">
        <ele>522.00</ele>
        <time>2015-01-17T09:33:05Z</time>
      </trkpt>
      <trkpt lat="42.402687000" lon="-2.721182000">
        <ele>521.90</ele>
        <time>2015-01-17T09:33:06Z</time>
      </trkpt>
      <trkpt lat="42.402715000" lon="-2.721152000">
        <ele>521.90</ele>
        <time>2015-01-17T09:33:07Z</time>
      </trkpt>
      <trkpt lat="42.402743000" lon="-2.721129000">
        <ele>521.90</ele>
        <time>2015-01-17T09:33:08Z</time>
      </trkpt>
      <trkpt lat="42.402768000" lon="-2.721113000">
        <ele>522.10</ele>
        <time>2015-01-17T09:33:09Z</time>
      </trkpt>
      <trkpt lat="42.402794000" lon="-2.721104000">
        <ele>522.20</ele>
        <time>2015-01-17T09:33:10Z</time>
      </trkpt>
      <trkpt lat="42.402811000" lon="-2.721096000">
        <ele>522.30</ele>
        <time>2015-01-17T09:33:11Z</time>
      </trkpt>
      <trkpt lat="42.402821000" lon="-2.721097000">
        <ele>522.40</ele>
        <time>2015-01-17T09:33:12Z</time>
      </trkpt>
      <trkpt lat="42.402834000" lon="-2.721098000">
        <ele>522.50</ele>
        <time>2015-01-17T09:33:13Z</time>
      </trkpt>
      <trkpt lat="42.402849000" lon="-2.721093000">
        <ele>522.50</ele>
        <time>2015-01-17T09:33:14Z</time>
      </trkpt>
      <trkpt lat="42.402860000" lon="-2.721093000">
        <ele>522.60</ele>
        <time>2015-01-17T09:33:15Z</time>
      </trkpt>
      <trkpt lat="42.402873000" lon="-2.721096000">
        <ele>522.60</ele>
        <time>2015-01-17T09:33:16Z</time>
      </trkpt>
      <trkpt lat="42.402889000" lon="-2.721095000">
        <ele>522.60</ele>
        <time>2015-01-17T09:33:17Z</time>
      </trkpt>
      <trkpt lat="42.402903000" lon="-2.721097000">
        <ele>522.70</ele>
        <time>2015-01-17T09:33:18Z</time>
      </trkpt>
      <trkpt lat="42.402921000" lon="-2.721094000">
        <ele>522.70</ele>
        <time>2015-01-17T09:33:19Z</time>
      </trkpt>
      <trkpt lat="42.402945000" lon="-2.721092000">
        <ele>522.70</ele>
        <time>2015-01-17T09:33:20Z</time>
      </trkpt>
      <trkpt lat="42.402976000" lon="-2.721082000">
        <ele>522.70</ele>
        <time>2015-01-17T09:33:21Z</time>
      </trkpt>
      <trkpt lat="42.403007000" lon="-2.721062000">
        <ele>522.80</ele>
        <time>2015-01-17T09:33:22Z</time>
      </trkpt>
      <trkpt lat="42.403039000" lon="-2.721039000">
        <ele>522.90</ele>
        <time>2015-01-17T09:33:23Z</time>
      </trkpt>
      <trkpt lat="42.403071000" lon="-2.721017000">
        <ele>523.00</ele>
        <time>2015-01-17T09:33:24Z</time>
      </trkpt>
      <trkpt lat="42.403105000" lon="-2.720999000">
        <ele>523.00</ele>
        <time>2015-01-17T09:33:25Z</time>
      </trkpt>
      <trkpt lat="42.403144000" lon="-2.720983000">
        <ele>523.10</ele>
        <time>2015-01-17T09:33:26Z</time>
      </trkpt>
      <trkpt lat="42.403181000" lon="-2.720972000">
        <ele>523.10</ele>
        <time>2015-01-17T09:33:27Z</time>
      </trkpt>
      <trkpt lat="42.403218000" lon="-2.720968000">
        <ele>523.20</ele>
        <time>2015-01-17T09:33:28Z</time>
      </trkpt>
      <trkpt lat="42.403255000" lon="-2.720961000">
        <ele>523.10</ele>
        <time>2015-01-17T09:33:29Z</time>
      </trkpt>
      <trkpt lat="42.403290000" lon="-2.720962000">
        <ele>523.10</ele>
        <time>2015-01-17T09:33:30Z</time>
      </trkpt>
      <trkpt lat="42.403324000" lon="-2.720966000">
        <ele>523.00</ele>
        <time>2015-01-17T09:33:31Z</time>
      </trkpt>
      <trkpt lat="42.403356000" lon="-2.720967000">
        <ele>522.90</ele>
        <time>2015-01-17T09:33:32Z</time>
      </trkpt>
      <trkpt lat="42.403386000" lon="-2.720971000">
        <ele>522.90</ele>
        <time>2015-01-17T09:33:33Z</time>
      </trkpt>
      <trkpt lat="42.403417000" lon="-2.720975000">
        <ele>522.80</ele>
        <time>2015-01-17T09:33:34Z</time>
      </trkpt>
      <trkpt lat="42.403451000" lon="-2.720977000">
        <ele>522.80</ele>
        <time>2015-01-17T09:33:35Z</time>
      </trkpt>
      <trkpt lat="42.403488000" lon="-2.720980000">
        <ele>522.80</ele>
        <time>2015-01-17T09:33:36Z</time>
      </trkpt>
      <trkpt lat="42.403524000" lon="-2.720982000">
        <ele>522.70</ele>
        <time>2015-01-17T09:33:37Z</time>
      </trkpt>
      <trkpt lat="42.403561000" lon="-2.720985000">
        <ele>522.60</ele>
        <time>2015-01-17T09:33:38Z</time>
      </trkpt>
      <trkpt lat="42.403597000" lon="-2.720988000">
        <ele>522.60</ele>
        <time>2015-01-17T09:33:39Z</time>
      </trkpt>
      <trkpt lat="42.403631000" lon="-2.720991000">
        <ele>522.50</ele>
        <time>2015-01-17T09:33:40Z</time>
      </trkpt>
      <trkpt lat="42.403668000" lon="-2.720994000">
        <ele>522.50</ele>
        <time>2015-01-17T09:33:41Z</time>
      </trkpt>
      <trkpt lat="42.403703000" lon="-2.720999000">
        <ele>522.40</ele>
        <time>2015-01-17T09:33:42Z</time>
      </trkpt>
      <trkpt lat="42.403741000" lon="-2.721003000">
        <ele>522.40</ele>
        <time>2015-01-17T09:33:43Z</time>
      </trkpt>
      <trkpt lat="42.403779000" lon="-2.721004000">
        <ele>522.40</ele>
        <time>2015-01-17T09:33:44Z</time>
      </trkpt>
      <trkpt lat="42.403815000" lon="-2.721007000">
        <ele>522.60</ele>
        <time>2015-01-17T09:33:45Z</time>
      </trkpt>
      <trkpt lat="42.403852000" lon="-2.721007000">
        <ele>522.70</ele>
        <time>2015-01-17T09:33:46Z</time>
      </trkpt>
      <trkpt lat="42.403890000" lon="-2.721008000">
        <ele>522.90</ele>
        <time>2015-01-17T09:33:47Z</time>
      </trkpt>
      <trkpt lat="42.403930000" lon="-2.721008000">
        <ele>523.00</ele>
        <time>2015-01-17T09:33:48Z</time>
      </trkpt>
      <trkpt lat="42.403970000" lon="-2.721010000">
        <ele>523.00</ele>
        <time>2015-01-17T09:33:49Z</time>
      </trkpt>
      <trkpt lat="42.404009000" lon="-2.721013000">
        <ele>523.10</ele>
        <time>2015-01-17T09:33:50Z</time>
      </trkpt>
      <trkpt lat="42.404046000" lon="-2.721018000">
        <ele>523.00</ele>
        <time>2015-01-17T09:33:51Z</time>
      </trkpt>
      <trkpt lat="42.404084000" lon="-2.721020000">
        <ele>523.00</ele>
        <time>2015-01-17T09:33:52Z</time>
      </trkpt>
      <trkpt lat="42.404124000" lon="-2.721025000">
        <ele>523.00</ele>
        <time>2015-01-17T09:33:53Z</time>
      </trkpt>
      <trkpt lat="42.404164000" lon="-2.721030000">
        <ele>523.00</ele>
        <time>2015-01-17T09:33:54Z</time>
      </trkpt>
      <trkpt lat="42.404202000" lon="-2.721033000">
        <ele>523.00</ele>
        <time>2015-01-17T09:33:55Z</time>
      </trkpt>
      <trkpt lat="42.404240000" lon="-2.721037000">
        <ele>523.00</ele>
        <time>2015-01-17T09:33:56Z</time>
      </trkpt>
      <trkpt lat="42.404277000" lon="-2.721041000">
        <ele>523.00</ele>
        <time>2015-01-17T09:33:57Z</time>
      </trkpt>
      <trkpt lat="42.404311000" lon="-2.721043000">
        <ele>523.10</ele>
        <time>2015-01-17T09:33:58Z</time>
      </trkpt>
      <trkpt lat="42.404343000" lon="-2.721045000">
        <ele>523.10</ele>
        <time>2015-01-17T09:33:59Z</time>
      </trkpt>
      <trkpt lat="42.404371000" lon="-2.721044000">
        <ele>523.00</ele>
        <time>2015-01-17T09:34:00Z</time>
      </trkpt>
      <trkpt lat="42.404397000" lon="-2.721041000">
        <ele>523.00</ele>
        <time>2015-01-17T09:34:01Z</time>
      </trkpt>
      <trkpt lat="42.404423000" lon="-2.721036000">
        <ele>523.00</ele>
        <time>2015-01-17T09:34:02Z</time>
      </trkpt>
      <trkpt lat="42.404477000" lon="-2.721034000">
        <ele>522.80</ele>
        <time>2015-01-17T09:34:04Z</time>
      </trkpt>
      <trkpt lat="42.404507000" lon="-2.721028000">
        <ele>522.70</ele>
        <time>2015-01-17T09:34:05Z</time>
      </trkpt>
      <trkpt lat="42.404533000" lon="-2.721015000">
        <ele>522.70</ele>
        <time>2015-01-17T09:34:06Z</time>
      </trkpt>
      <trkpt lat="42.404559000" lon="-2.721003000">
        <ele>522.60</ele>
        <time>2015-01-17T09:34:07Z</time>
      </trkpt>
      <trkpt lat="42.404587000" lon="-2.720991000">
        <ele>522.60</ele>
        <time>2015-01-17T09:34:08Z</time>
      </trkpt>
      <trkpt lat="42.404619000" lon="-2.720980000">
        <ele>522.60</ele>
        <time>2015-01-17T09:34:09Z</time>
      </trkpt>
      <trkpt lat="42.404649000" lon="-2.720967000">
        <ele>522.60</ele>
        <time>2015-01-17T09:34:10Z</time>
      </trkpt>
      <trkpt lat="42.404678000" lon="-2.720954000">
        <ele>522.60</ele>
        <time>2015-01-17T09:34:11Z</time>
      </trkpt>
      <trkpt lat="42.404710000" lon="-2.720940000">
        <ele>522.60</ele>
        <time>2015-01-17T09:34:12Z</time>
      </trkpt>
      <trkpt lat="42.404742000" lon="-2.720926000">
        <ele>522.40</ele>
        <time>2015-01-17T09:34:13Z</time>
      </trkpt>
      <trkpt lat="42.404775000" lon="-2.720908000">
        <ele>522.30</ele>
        <time>2015-01-17T09:34:14Z</time>
      </trkpt>
      <trkpt lat="42.404811000" lon="-2.720893000">
        <ele>522.20</ele>
        <time>2015-01-17T09:34:15Z</time>
      </trkpt>
      <trkpt lat="42.404848000" lon="-2.720881000">
        <ele>522.20</ele>
        <time>2015-01-17T09:34:16Z</time>
      </trkpt>
      <trkpt lat="42.404883000" lon="-2.720870000">
        <ele>522.10</ele>
        <time>2015-01-17T09:34:17Z</time>
      </trkpt>
      <trkpt lat="42.404920000" lon="-2.720858000">
        <ele>522.10</ele>
        <time>2015-01-17T09:34:18Z</time>
      </trkpt>
      <trkpt lat="42.404957000" lon="-2.720852000">
        <ele>522.10</ele>
        <time>2015-01-17T09:34:19Z</time>
      </trkpt>
      <trkpt lat="42.404993000" lon="-2.720849000">
        <ele>522.10</ele>
        <time>2015-01-17T09:34:20Z</time>
      </trkpt>
      <trkpt lat="42.405030000" lon="-2.720846000">
        <ele>522.10</ele>
        <time>2015-01-17T09:34:21Z</time>
      </trkpt>
      <trkpt lat="42.405065000" lon="-2.720848000">
        <ele>522.20</ele>
        <time>2015-01-17T09:34:22Z</time>
      </trkpt>
      <trkpt lat="42.405101000" lon="-2.720851000">
        <ele>522.20</ele>
        <time>2015-01-17T09:34:23Z</time>
      </trkpt>
      <trkpt lat="42.405136000" lon="-2.720853000">
        <ele>522.20</ele>
        <time>2015-01-17T09:34:24Z</time>
      </trkpt>
      <trkpt lat="42.405171000" lon="-2.720856000">
        <ele>522.30</ele>
        <time>2015-01-17T09:34:25Z</time>
      </trkpt>
      <trkpt lat="42.405210000" lon="-2.720860000">
        <ele>522.30</ele>
        <time>2015-01-17T09:34:26Z</time>
      </trkpt>
      <trkpt lat="42.405250000" lon="-2.720864000">
        <ele>522.50</ele>
        <time>2015-01-17T09:34:27Z</time>
      </trkpt>
      <trkpt lat="42.405287000" lon="-2.720861000">
        <ele>522.60</ele>
        <time>2015-01-17T09:34:28Z</time>
      </trkpt>
      <trkpt lat="42.405325000" lon="-2.720862000">
        <ele>522.70</ele>
        <time>2015-01-17T09:34:29Z</time>
      </trkpt>
      <trkpt lat="42.405362000" lon="-2.720857000">
        <ele>522.80</ele>
        <time>2015-01-17T09:34:30Z</time>
      </trkpt>
      <trkpt lat="42.405398000" lon="-2.720852000">
        <ele>522.80</ele>
        <time>2015-01-17T09:34:31Z</time>
      </trkpt>
      <trkpt lat="42.405436000" lon="-2.720841000">
        <ele>522.70</ele>
        <time>2015-01-17T09:34:32Z</time>
      </trkpt>
      <trkpt lat="42.405472000" lon="-2.720824000">
        <ele>522.70</ele>
        <time>2015-01-17T09:34:33Z</time>
      </trkpt>
      <trkpt lat="42.405506000" lon="-2.720808000">
        <ele>522.70</ele>
        <time>2015-01-17T09:34:34Z</time>
      </trkpt>
      <trkpt lat="42.405539000" lon="-2.720790000">
        <ele>522.60</ele>
        <time>2015-01-17T09:34:35Z</time>
      </trkpt>
      <trkpt lat="42.405576000" lon="-2.720775000">
        <ele>522.60</ele>
        <time>2015-01-17T09:34:36Z</time>
      </trkpt>
      <trkpt lat="42.405611000" lon="-2.720758000">
        <ele>522.60</ele>
        <time>2015-01-17T09:34:37Z</time>
      </trkpt>
      <trkpt lat="42.405647000" lon="-2.720737000">
        <ele>522.60</ele>
        <time>2015-01-17T09:34:38Z</time>
      </trkpt>
      <trkpt lat="42.405681000" lon="-2.720721000">
        <ele>522.60</ele>
        <time>2015-01-17T09:34:39Z</time>
      </trkpt>
      <trkpt lat="42.405709000" lon="-2.720708000">
        <ele>522.60</ele>
        <time>2015-01-17T09:34:40Z</time>
      </trkpt>
      <trkpt lat="42.405740000" lon="-2.720694000">
        <ele>522.70</ele>
        <time>2015-01-17T09:34:41Z</time>
      </trkpt>
      <trkpt lat="42.405768000" lon="-2.720676000">
        <ele>522.80</ele>
        <time>2015-01-17T09:34:42Z</time>
      </trkpt>
      <trkpt lat="42.405796000" lon="-2.720659000">
        <ele>523.00</ele>
        <time>2015-01-17T09:34:43Z</time>
      </trkpt>
      <trkpt lat="42.405821000" lon="-2.720643000">
        <ele>523.20</ele>
        <time>2015-01-17T09:34:44Z</time>
      </trkpt>
      <trkpt lat="42.405847000" lon="-2.720625000">
        <ele>523.30</ele>
        <time>2015-01-17T09:34:45Z</time>
      </trkpt>
      <trkpt lat="42.405872000" lon="-2.720612000">
        <ele>523.40</ele>
        <time>2015-01-17T09:34:46Z</time>
      </trkpt>
      <trkpt lat="42.405897000" lon="-2.720596000">
        <ele>523.50</ele>
        <time>2015-01-17T09:34:47Z</time>
      </trkpt>
      <trkpt lat="42.405926000" lon="-2.720577000">
        <ele>523.50</ele>
        <time>2015-01-17T09:34:48Z</time>
      </trkpt>
      <trkpt lat="42.405960000" lon="-2.720555000">
        <ele>523.50</ele>
        <time>2015-01-17T09:34:49Z</time>
      </trkpt>
      <trkpt lat="42.405998000" lon="-2.720532000">
        <ele>523.50</ele>
        <time>2015-01-17T09:34:50Z</time>
      </trkpt>
      <trkpt lat="42.406037000" lon="-2.720508000">
        <ele>523.50</ele>
        <time>2015-01-17T09:34:51Z</time>
      </trkpt>
      <trkpt lat="42.406077000" lon="-2.720487000">
        <ele>523.50</ele>
        <time>2015-01-17T09:34:52Z</time>
      </trkpt>
      <trkpt lat="42.406117000" lon="-2.720467000">
        <ele>523.40</ele>
        <time>2015-01-17T09:34:53Z</time>
      </trkpt>
      <trkpt lat="42.406158000" lon="-2.720448000">
        <ele>523.40</ele>
        <time>2015-01-17T09:34:54Z</time>
      </trkpt>
      <trkpt lat="42.406197000" lon="-2.720432000">
        <ele>523.30</ele>
        <time>2015-01-17T09:34:55Z</time>
      </trkpt>
      <trkpt lat="42.406238000" lon="-2.720420000">
        <ele>523.20</ele>
        <time>2015-01-17T09:34:56Z</time>
      </trkpt>
      <trkpt lat="42.406279000" lon="-2.720412000">
        <ele>523.10</ele>
        <time>2015-01-17T09:34:57Z</time>
      </trkpt>
      <trkpt lat="42.406322000" lon="-2.720405000">
        <ele>523.10</ele>
        <time>2015-01-17T09:34:58Z</time>
      </trkpt>
      <trkpt lat="42.406364000" lon="-2.720399000">
        <ele>523.10</ele>
        <time>2015-01-17T09:34:59Z</time>
      </trkpt>
      <trkpt lat="42.406404000" lon="-2.720396000">
        <ele>523.00</ele>
        <time>2015-01-17T09:35:00Z</time>
      </trkpt>
      <trkpt lat="42.406446000" lon="-2.720395000">
        <ele>523.00</ele>
        <time>2015-01-17T09:35:01Z</time>
      </trkpt>
      <trkpt lat="42.406489000" lon="-2.720389000">
        <ele>522.90</ele>
        <time>2015-01-17T09:35:02Z</time>
      </trkpt>
      <trkpt lat="42.406535000" lon="-2.720382000">
        <ele>522.80</ele>
        <time>2015-01-17T09:35:03Z</time>
      </trkpt>
      <trkpt lat="42.406623000" lon="-2.720371000">
        <ele>522.70</ele>
        <time>2015-01-17T09:35:05Z</time>
      </trkpt>
      <trkpt lat="42.406665000" lon="-2.720359000">
        <ele>522.60</ele>
        <time>2015-01-17T09:35:06Z</time>
      </trkpt>
      <trkpt lat="42.406703000" lon="-2.720350000">
        <ele>522.50</ele>
        <time>2015-01-17T09:35:07Z</time>
      </trkpt>
      <trkpt lat="42.406742000" lon="-2.720346000">
        <ele>522.40</ele>
        <time>2015-01-17T09:35:08Z</time>
      </trkpt>
      <trkpt lat="42.406781000" lon="-2.720340000">
        <ele>522.60</ele>
        <time>2015-01-17T09:35:09Z</time>
      </trkpt>
      <trkpt lat="42.406826000" lon="-2.720337000">
        <ele>522.70</ele>
        <time>2015-01-17T09:35:10Z</time>
      </trkpt>
      <trkpt lat="42.406871000" lon="-2.720333000">
        <ele>522.70</ele>
        <time>2015-01-17T09:35:11Z</time>
      </trkpt>
      <trkpt lat="42.406921000" lon="-2.720331000">
        <ele>522.80</ele>
        <time>2015-01-17T09:35:12Z</time>
      </trkpt>
      <trkpt lat="42.406966000" lon="-2.720328000">
        <ele>522.80</ele>
        <time>2015-01-17T09:35:13Z</time>
      </trkpt>
      <trkpt lat="42.407014000" lon="-2.720321000">
        <ele>522.90</ele>
        <time>2015-01-17T09:35:14Z</time>
      </trkpt>
      <trkpt lat="42.407059000" lon="-2.720315000">
        <ele>522.90</ele>
        <time>2015-01-17T09:35:15Z</time>
      </trkpt>
      <trkpt lat="42.407107000" lon="-2.720303000">
        <ele>522.90</ele>
        <time>2015-01-17T09:35:16Z</time>
      </trkpt>
      <trkpt lat="42.407153000" lon="-2.720300000">
        <ele>522.90</ele>
        <time>2015-01-17T09:35:17Z</time>
      </trkpt>
      <trkpt lat="42.407203000" lon="-2.720295000">
        <ele>522.90</ele>
        <time>2015-01-17T09:35:18Z</time>
      </trkpt>
      <trkpt lat="42.407249000" lon="-2.720289000">
        <ele>522.80</ele>
        <time>2015-01-17T09:35:19Z</time>
      </trkpt>
      <trkpt lat="42.407294000" lon="-2.720291000">
        <ele>522.60</ele>
        <time>2015-01-17T09:35:20Z</time>
      </trkpt>
      <trkpt lat="42.407339000" lon="-2.720283000">
        <ele>522.60</ele>
        <time>2015-01-17T09:35:21Z</time>
      </trkpt>
      <trkpt lat="42.407383000" lon="-2.720279000">
        <ele>522.50</ele>
        <time>2015-01-17T09:35:22Z</time>
      </trkpt>
      <trkpt lat="42.407429000" lon="-2.720275000">
        <ele>522.40</ele>
        <time>2015-01-17T09:35:23Z</time>
      </trkpt>
      <trkpt lat="42.407474000" lon="-2.720265000">
        <ele>522.40</ele>
        <time>2015-01-17T09:35:24Z</time>
      </trkpt>
      <trkpt lat="42.407517000" lon="-2.720253000">
        <ele>522.40</ele>
        <time>2015-01-17T09:35:25Z</time>
      </trkpt>
      <trkpt lat="42.407562000" lon="-2.720234000">
        <ele>522.30</ele>
        <time>2015-01-17T09:35:26Z</time>
      </trkpt>
      <trkpt lat="42.407605000" lon="-2.720209000">
        <ele>522.30</ele>
        <time>2015-01-17T09:35:27Z</time>
      </trkpt>
      <trkpt lat="42.407646000" lon="-2.720180000">
        <ele>522.30</ele>
        <time>2015-01-17T09:35:28Z</time>
      </trkpt>
      <trkpt lat="42.407683000" lon="-2.720148000">
        <ele>522.20</ele>
        <time>2015-01-17T09:35:29Z</time>
      </trkpt>
      <trkpt lat="42.407721000" lon="-2.720111000">
        <ele>522.20</ele>
        <time>2015-01-17T09:35:30Z</time>
      </trkpt>
      <trkpt lat="42.407754000" lon="-2.720071000">
        <ele>522.20</ele>
        <time>2015-01-17T09:35:31Z</time>
      </trkpt>
      <trkpt lat="42.407786000" lon="-2.720027000">
        <ele>522.20</ele>
        <time>2015-01-17T09:35:32Z</time>
      </trkpt>
      <trkpt lat="42.407817000" lon="-2.719979000">
        <ele>522.30</ele>
        <time>2015-01-17T09:35:33Z</time>
      </trkpt>
      <trkpt lat="42.407847000" lon="-2.719932000">
        <ele>522.30</ele>
        <time>2015-01-17T09:35:34Z</time>
      </trkpt>
      <trkpt lat="42.407876000" lon="-2.719885000">
        <ele>522.30</ele>
        <time>2015-01-17T09:35:35Z</time>
      </trkpt>
      <trkpt lat="42.407904000" lon="-2.719840000">
        <ele>522.40</ele>
        <time>2015-01-17T09:35:36Z</time>
      </trkpt>
      <trkpt lat="42.407933000" lon="-2.719792000">
        <ele>522.30</ele>
        <time>2015-01-17T09:35:37Z</time>
      </trkpt>
      <trkpt lat="42.407962000" lon="-2.719743000">
        <ele>522.30</ele>
        <time>2015-01-17T09:35:38Z</time>
      </trkpt>
      <trkpt lat="42.407991000" lon="-2.719698000">
        <ele>522.20</ele>
        <time>2015-01-17T09:35:39Z</time>
      </trkpt>
      <trkpt lat="42.408020000" lon="-2.719654000">
        <ele>522.10</ele>
        <time>2015-01-17T09:35:40Z</time>
      </trkpt>
      <trkpt lat="42.408048000" lon="-2.719610000">
        <ele>522.00</ele>
        <time>2015-01-17T09:35:41Z</time>
      </trkpt>
      <trkpt lat="42.408076000" lon="-2.719563000">
        <ele>521.90</ele>
        <time>2015-01-17T09:35:42Z</time>
      </trkpt>
      <trkpt lat="42.408102000" lon="-2.719517000">
        <ele>522.00</ele>
        <time>2015-01-17T09:35:43Z</time>
      </trkpt>
      <trkpt lat="42.408132000" lon="-2.719472000">
        <ele>522.10</ele>
        <time>2015-01-17T09:35:44Z</time>
      </trkpt>
      <trkpt lat="42.408163000" lon="-2.719425000">
        <ele>522.10</ele>
        <time>2015-01-17T09:35:45Z</time>
      </trkpt>
      <trkpt lat="42.408192000" lon="-2.719384000">
        <ele>522.20</ele>
        <time>2015-01-17T09:35:46Z</time>
      </trkpt>
      <trkpt lat="42.408222000" lon="-2.719343000">
        <ele>522.10</ele>
        <time>2015-01-17T09:35:47Z</time>
      </trkpt>
      <trkpt lat="42.408251000" lon="-2.719297000">
        <ele>522.10</ele>
        <time>2015-01-17T09:35:48Z</time>
      </trkpt>
      <trkpt lat="42.408278000" lon="-2.719253000">
        <ele>522.10</ele>
        <time>2015-01-17T09:35:49Z</time>
      </trkpt>
      <trkpt lat="42.408306000" lon="-2.719208000">
        <ele>522.10</ele>
        <time>2015-01-17T09:35:50Z</time>
      </trkpt>
      <trkpt lat="42.408336000" lon="-2.719161000">
        <ele>522.00</ele>
        <time>2015-01-17T09:35:51Z</time>
      </trkpt>
      <trkpt lat="42.408365000" lon="-2.719115000">
        <ele>522.00</ele>
        <time>2015-01-17T09:35:52Z</time>
      </trkpt>
      <trkpt lat="42.408395000" lon="-2.719070000">
        <ele>522.00</ele>
        <time>2015-01-17T09:35:53Z</time>
      </trkpt>
      <trkpt lat="42.408423000" lon="-2.719027000">
        <ele>522.00</ele>
        <time>2015-01-17T09:35:54Z</time>
      </trkpt>
      <trkpt lat="42.408450000" lon="-2.718982000">
        <ele>522.00</ele>
        <time>2015-01-17T09:35:55Z</time>
      </trkpt>
      <trkpt lat="42.408478000" lon="-2.718940000">
        <ele>522.00</ele>
        <time>2015-01-17T09:35:56Z</time>
      </trkpt>
      <trkpt lat="42.408507000" lon="-2.718897000">
        <ele>522.00</ele>
        <time>2015-01-17T09:35:57Z</time>
      </trkpt>
      <trkpt lat="42.408536000" lon="-2.718857000">
        <ele>522.00</ele>
        <time>2015-01-17T09:35:58Z</time>
      </trkpt>
      <trkpt lat="42.408568000" lon="-2.718819000">
        <ele>522.10</ele>
        <time>2015-01-17T09:35:59Z</time>
      </trkpt>
      <trkpt lat="42.408601000" lon="-2.718784000">
        <ele>522.10</ele>
        <time>2015-01-17T09:36:00Z</time>
      </trkpt>
      <trkpt lat="42.408635000" lon="-2.718753000">
        <ele>522.20</ele>
        <time>2015-01-17T09:36:01Z</time>
      </trkpt>
      <trkpt lat="42.408668000" lon="-2.718723000">
        <ele>522.20</ele>
        <time>2015-01-17T09:36:02Z</time>
      </trkpt>
      <trkpt lat="42.408704000" lon="-2.718696000">
        <ele>522.20</ele>
        <time>2015-01-17T09:36:03Z</time>
      </trkpt>
      <trkpt lat="42.408740000" lon="-2.718668000">
        <ele>522.20</ele>
        <time>2015-01-17T09:36:04Z</time>
      </trkpt>
      <trkpt lat="42.408805000" lon="-2.718610000">
        <ele>521.90</ele>
        <time>2015-01-17T09:36:06Z</time>
      </trkpt>
      <trkpt lat="42.408833000" lon="-2.718582000">
        <ele>521.80</ele>
        <time>2015-01-17T09:36:07Z</time>
      </trkpt>
      <trkpt lat="42.408863000" lon="-2.718552000">
        <ele>521.70</ele>
        <time>2015-01-17T09:36:08Z</time>
      </trkpt>
      <trkpt lat="42.408895000" lon="-2.718522000">
        <ele>521.70</ele>
        <time>2015-01-17T09:36:09Z</time>
      </trkpt>
      <trkpt lat="42.408930000" lon="-2.718490000">
        <ele>521.60</ele>
        <time>2015-01-17T09:36:10Z</time>
      </trkpt>
      <trkpt lat="42.408967000" lon="-2.718459000">
        <ele>521.60</ele>
        <time>2015-01-17T09:36:11Z</time>
      </trkpt>
      <trkpt lat="42.409002000" lon="-2.718430000">
        <ele>521.60</ele>
        <time>2015-01-17T09:36:12Z</time>
      </trkpt>
      <trkpt lat="42.409035000" lon="-2.718400000">
        <ele>521.60</ele>
        <time>2015-01-17T09:36:13Z</time>
      </trkpt>
      <trkpt lat="42.409068000" lon="-2.718371000">
        <ele>521.70</ele>
        <time>2015-01-17T09:36:14Z</time>
      </trkpt>
      <trkpt lat="42.409101000" lon="-2.718339000">
        <ele>521.70</ele>
        <time>2015-01-17T09:36:15Z</time>
      </trkpt>
      <trkpt lat="42.409136000" lon="-2.718307000">
        <ele>521.80</ele>
        <time>2015-01-17T09:36:16Z</time>
      </trkpt>
      <trkpt lat="42.409173000" lon="-2.718276000">
        <ele>521.90</ele>
        <time>2015-01-17T09:36:17Z</time>
      </trkpt>
      <trkpt lat="42.409208000" lon="-2.718244000">
        <ele>522.00</ele>
        <time>2015-01-17T09:36:18Z</time>
      </trkpt>
      <trkpt lat="42.409242000" lon="-2.718211000">
        <ele>522.10</ele>
        <time>2015-01-17T09:36:19Z</time>
      </trkpt>
      <trkpt lat="42.409276000" lon="-2.718178000">
        <ele>522.10</ele>
        <time>2015-01-17T09:36:20Z</time>
      </trkpt>
      <trkpt lat="42.409310000" lon="-2.718147000">
        <ele>522.30</ele>
        <time>2015-01-17T09:36:21Z</time>
      </trkpt>
      <trkpt lat="42.409345000" lon="-2.718117000">
        <ele>522.40</ele>
        <time>2015-01-17T09:36:22Z</time>
      </trkpt>
      <trkpt lat="42.409379000" lon="-2.718084000">
        <ele>522.40</ele>
        <time>2015-01-17T09:36:23Z</time>
      </trkpt>
      <trkpt lat="42.409409000" lon="-2.718052000">
        <ele>522.40</ele>
        <time>2015-01-17T09:36:24Z</time>
      </trkpt>
      <trkpt lat="42.409437000" lon="-2.718017000">
        <ele>522.40</ele>
        <time>2015-01-17T09:36:25Z</time>
      </trkpt>
      <trkpt lat="42.409467000" lon="-2.717981000">
        <ele>522.40</ele>
        <time>2015-01-17T09:36:26Z</time>
      </trkpt>
      <trkpt lat="42.409495000" lon="-2.717944000">
        <ele>522.20</ele>
        <time>2015-01-17T09:36:27Z</time>
      </trkpt>
      <trkpt lat="42.409524000" lon="-2.717904000">
        <ele>522.10</ele>
        <time>2015-01-17T09:36:28Z</time>
      </trkpt>
      <trkpt lat="42.409553000" lon="-2.717864000">
        <ele>522.10</ele>
        <time>2015-01-17T09:36:29Z</time>
      </trkpt>
      <trkpt lat="42.409580000" lon="-2.717821000">
        <ele>522.00</ele>
        <time>2015-01-17T09:36:30Z</time>
      </trkpt>
      <trkpt lat="42.409607000" lon="-2.717780000">
        <ele>522.00</ele>
        <time>2015-01-17T09:36:31Z</time>
      </trkpt>
      <trkpt lat="42.409631000" lon="-2.717734000">
        <ele>521.90</ele>
        <time>2015-01-17T09:36:32Z</time>
      </trkpt>
      <trkpt lat="42.409656000" lon="-2.717689000">
        <ele>521.60</ele>
        <time>2015-01-17T09:36:33Z</time>
      </trkpt>
      <trkpt lat="42.409680000" lon="-2.717644000">
        <ele>521.30</ele>
        <time>2015-01-17T09:36:34Z</time>
      </trkpt>
      <trkpt lat="42.409704000" lon="-2.717598000">
        <ele>521.10</ele>
        <time>2015-01-17T09:36:35Z</time>
      </trkpt>
      <trkpt lat="42.409732000" lon="-2.717552000">
        <ele>521.00</ele>
        <time>2015-01-17T09:36:36Z</time>
      </trkpt>
      <trkpt lat="42.409757000" lon="-2.717506000">
        <ele>521.10</ele>
        <time>2015-01-17T09:36:37Z</time>
      </trkpt>
      <trkpt lat="42.409782000" lon="-2.717459000">
        <ele>521.10</ele>
        <time>2015-01-17T09:36:38Z</time>
      </trkpt>
      <trkpt lat="42.409806000" lon="-2.717417000">
        <ele>521.20</ele>
        <time>2015-01-17T09:36:39Z</time>
      </trkpt>
      <trkpt lat="42.409827000" lon="-2.717373000">
        <ele>521.20</ele>
        <time>2015-01-17T09:36:40Z</time>
      </trkpt>
      <trkpt lat="42.409852000" lon="-2.717329000">
        <ele>521.20</ele>
        <time>2015-01-17T09:36:41Z</time>
      </trkpt>
      <trkpt lat="42.409880000" lon="-2.717289000">
        <ele>521.30</ele>
        <time>2015-01-17T09:36:42Z</time>
      </trkpt>
      <trkpt lat="42.409905000" lon="-2.717246000">
        <ele>521.50</ele>
        <time>2015-01-17T09:36:43Z</time>
      </trkpt>
      <trkpt lat="42.409930000" lon="-2.717202000">
        <ele>521.60</ele>
        <time>2015-01-17T09:36:44Z</time>
      </trkpt>
      <trkpt lat="42.409958000" lon="-2.717156000">
        <ele>521.70</ele>
        <time>2015-01-17T09:36:45Z</time>
      </trkpt>
      <trkpt lat="42.409982000" lon="-2.717115000">
        <ele>521.80</ele>
        <time>2015-01-17T09:36:46Z</time>
      </trkpt>
      <trkpt lat="42.410003000" lon="-2.717072000">
        <ele>521.90</ele>
        <time>2015-01-17T09:36:47Z</time>
      </trkpt>
      <trkpt lat="42.410026000" lon="-2.717026000">
        <ele>522.00</ele>
        <time>2015-01-17T09:36:48Z</time>
      </trkpt>
      <trkpt lat="42.410054000" lon="-2.716983000">
        <ele>522.10</ele>
        <time>2015-01-17T09:36:49Z</time>
      </trkpt>
      <trkpt lat="42.410082000" lon="-2.716937000">
        <ele>522.10</ele>
        <time>2015-01-17T09:36:50Z</time>
      </trkpt>
      <trkpt lat="42.410110000" lon="-2.716895000">
        <ele>522.30</ele>
        <time>2015-01-17T09:36:51Z</time>
      </trkpt>
      <trkpt lat="42.410139000" lon="-2.716848000">
        <ele>522.40</ele>
        <time>2015-01-17T09:36:52Z</time>
      </trkpt>
      <trkpt lat="42.410165000" lon="-2.716798000">
        <ele>522.40</ele>
        <time>2015-01-17T09:36:53Z</time>
      </trkpt>
      <trkpt lat="42.410191000" lon="-2.716751000">
        <ele>522.50</ele>
        <time>2015-01-17T09:36:54Z</time>
      </trkpt>
      <trkpt lat="42.410215000" lon="-2.716701000">
        <ele>522.30</ele>
        <time>2015-01-17T09:36:55Z</time>
      </trkpt>
      <trkpt lat="42.410243000" lon="-2.716643000">
        <ele>522.10</ele>
        <time>2015-01-17T09:36:56Z</time>
      </trkpt>
      <trkpt lat="42.410269000" lon="-2.716583000">
        <ele>521.80</ele>
        <time>2015-01-17T09:36:57Z</time>
      </trkpt>
      <trkpt lat="42.410294000" lon="-2.716531000">
        <ele>521.60</ele>
        <time>2015-01-17T09:36:58Z</time>
      </trkpt>
      <trkpt lat="42.410322000" lon="-2.716482000">
        <ele>521.40</ele>
        <time>2015-01-17T09:36:59Z</time>
      </trkpt>
      <trkpt lat="42.410350000" lon="-2.716438000">
        <ele>521.20</ele>
        <time>2015-01-17T09:37:00Z</time>
      </trkpt>
      <trkpt lat="42.410381000" lon="-2.716407000">
        <ele>521.10</ele>
        <time>2015-01-17T09:37:01Z</time>
      </trkpt>
      <trkpt lat="42.410413000" lon="-2.716382000">
        <ele>521.00</ele>
        <time>2015-01-17T09:37:02Z</time>
      </trkpt>
      <trkpt lat="42.410448000" lon="-2.716368000">
        <ele>520.90</ele>
        <time>2015-01-17T09:37:03Z</time>
      </trkpt>
      <trkpt lat="42.410484000" lon="-2.716362000">
        <ele>520.90</ele>
        <time>2015-01-17T09:37:04Z</time>
      </trkpt>
      <trkpt lat="42.410521000" lon="-2.716366000">
        <ele>521.00</ele>
        <time>2015-01-17T09:37:05Z</time>
      </trkpt>
      <trkpt lat="42.410575000" lon="-2.716394000">
        <ele>521.30</ele>
        <time>2015-01-17T09:37:07Z</time>
      </trkpt>
      <trkpt lat="42.410598000" lon="-2.716424000">
        <ele>521.50</ele>
        <time>2015-01-17T09:37:08Z</time>
      </trkpt>
      <trkpt lat="42.410623000" lon="-2.716453000">
        <ele>521.90</ele>
        <time>2015-01-17T09:37:09Z</time>
      </trkpt>
      <trkpt lat="42.410649000" lon="-2.716484000">
        <ele>522.20</ele>
        <time>2015-01-17T09:37:10Z</time>
      </trkpt>
      <trkpt lat="42.410673000" lon="-2.716517000">
        <ele>522.50</ele>
        <time>2015-01-17T09:37:11Z</time>
      </trkpt>
      <trkpt lat="42.410701000" lon="-2.716544000">
        <ele>522.70</ele>
        <time>2015-01-17T09:37:12Z</time>
      </trkpt>
      <trkpt lat="42.410729000" lon="-2.716572000">
        <ele>522.80</ele>
        <time>2015-01-17T09:37:13Z</time>
      </trkpt>
      <trkpt lat="42.410758000" lon="-2.716602000">
        <ele>522.90</ele>
        <time>2015-01-17T09:37:14Z</time>
      </trkpt>
      <trkpt lat="42.410786000" lon="-2.716628000">
        <ele>523.10</ele>
        <time>2015-01-17T09:37:15Z</time>
      </trkpt>
      <trkpt lat="42.410813000" lon="-2.716656000">
        <ele>523.30</ele>
        <time>2015-01-17T09:37:16Z</time>
      </trkpt>
      <trkpt lat="42.410843000" lon="-2.716687000">
        <ele>523.20</ele>
        <time>2015-01-17T09:37:17Z</time>
      </trkpt>
      <trkpt lat="42.410868000" lon="-2.716715000">
        <ele>523.10</ele>
        <time>2015-01-17T09:37:18Z</time>
      </trkpt>
      <trkpt lat="42.410898000" lon="-2.716744000">
        <ele>523.10</ele>
        <time>2015-01-17T09:37:19Z</time>
      </trkpt>
      <trkpt lat="42.410925000" lon="-2.716775000">
        <ele>523.00</ele>
        <time>2015-01-17T09:37:20Z</time>
      </trkpt>
      <trkpt lat="42.410955000" lon="-2.716807000">
        <ele>522.80</ele>
        <time>2015-01-17T09:37:21Z</time>
      </trkpt>
      <trkpt lat="42.410982000" lon="-2.716839000">
        <ele>522.70</ele>
        <time>2015-01-17T09:37:22Z</time>
      </trkpt>
      <trkpt lat="42.411011000" lon="-2.716875000">
        <ele>522.60</ele>
        <time>2015-01-17T09:37:23Z</time>
      </trkpt>
      <trkpt lat="42.411039000" lon="-2.716908000">
        <ele>522.60</ele>
        <time>2015-01-17T09:37:24Z</time>
      </trkpt>
      <trkpt lat="42.411067000" lon="-2.716941000">
        <ele>522.50</ele>
        <time>2015-01-17T09:37:25Z</time>
      </trkpt>
      <trkpt lat="42.411096000" lon="-2.716970000">
        <ele>522.50</ele>
        <time>2015-01-17T09:37:26Z</time>
      </trkpt>
      <trkpt lat="42.411124000" lon="-2.717003000">
        <ele>522.40</ele>
        <time>2015-01-17T09:37:27Z</time>
      </trkpt>
      <trkpt lat="42.411153000" lon="-2.717033000">
        <ele>522.40</ele>
        <time>2015-01-17T09:37:28Z</time>
      </trkpt>
      <trkpt lat="42.411184000" lon="-2.717063000">
        <ele>522.80</ele>
        <time>2015-01-17T09:37:29Z</time>
      </trkpt>
      <trkpt lat="42.411217000" lon="-2.717091000">
        <ele>523.10</ele>
        <time>2015-01-17T09:37:30Z</time>
      </trkpt>
      <trkpt lat="42.411250000" lon="-2.717118000">
        <ele>523.30</ele>
        <time>2015-01-17T09:37:31Z</time>
      </trkpt>
      <trkpt lat="42.411285000" lon="-2.717139000">
        <ele>523.40</ele>
        <time>2015-01-17T09:37:32Z</time>
      </trkpt>
      <trkpt lat="42.411321000" lon="-2.717156000">
        <ele>523.40</ele>
        <time>2015-01-17T09:37:33Z</time>
      </trkpt>
      <trkpt lat="42.411355000" lon="-2.717164000">
        <ele>523.40</ele>
        <time>2015-01-17T09:37:34Z</time>
      </trkpt>
      <trkpt lat="42.411390000" lon="-2.717164000">
        <ele>523.30</ele>
        <time>2015-01-17T09:37:35Z</time>
      </trkpt>
      <trkpt lat="42.411426000" lon="-2.717156000">
        <ele>523.20</ele>
        <time>2015-01-17T09:37:36Z</time>
      </trkpt>
      <trkpt lat="42.411461000" lon="-2.717144000">
        <ele>523.20</ele>
        <time>2015-01-17T09:37:37Z</time>
      </trkpt>
      <trkpt lat="42.411496000" lon="-2.717129000">
        <ele>523.30</ele>
        <time>2015-01-17T09:37:38Z</time>
      </trkpt>
      <trkpt lat="42.411532000" lon="-2.717109000">
        <ele>523.50</ele>
        <time>2015-01-17T09:37:39Z</time>
      </trkpt>
      <trkpt lat="42.411566000" lon="-2.717082000">
        <ele>523.70</ele>
        <time>2015-01-17T09:37:40Z</time>
      </trkpt>
      <trkpt lat="42.411597000" lon="-2.717054000">
        <ele>523.80</ele>
        <time>2015-01-17T09:37:41Z</time>
      </trkpt>
      <trkpt lat="42.411626000" lon="-2.717016000">
        <ele>523.90</ele>
        <time>2015-01-17T09:37:42Z</time>
      </trkpt>
      <trkpt lat="42.411651000" lon="-2.716975000">
        <ele>524.00</ele>
        <time>2015-01-17T09:37:43Z</time>
      </trkpt>
      <trkpt lat="42.411674000" lon="-2.716931000">
        <ele>524.00</ele>
        <time>2015-01-17T09:37:44Z</time>
      </trkpt>
      <trkpt lat="42.411693000" lon="-2.716882000">
        <ele>523.50</ele>
        <time>2015-01-17T09:37:45Z</time>
      </trkpt>
      <trkpt lat="42.411710000" lon="-2.716835000">
        <ele>523.10</ele>
        <time>2015-01-17T09:37:46Z</time>
      </trkpt>
      <trkpt lat="42.411728000" lon="-2.716790000">
        <ele>522.80</ele>
        <time>2015-01-17T09:37:47Z</time>
      </trkpt>
      <trkpt lat="42.411745000" lon="-2.716745000">
        <ele>522.60</ele>
        <time>2015-01-17T09:37:48Z</time>
      </trkpt>
      <trkpt lat="42.411762000" lon="-2.716700000">
        <ele>522.60</ele>
        <time>2015-01-17T09:37:49Z</time>
      </trkpt>
      <trkpt lat="42.411781000" lon="-2.716654000">
        <ele>522.50</ele>
        <time>2015-01-17T09:37:50Z</time>
      </trkpt>
      <trkpt lat="42.411799000" lon="-2.716609000">
        <ele>522.50</ele>
        <time>2015-01-17T09:37:51Z</time>
      </trkpt>
      <trkpt lat="42.411817000" lon="-2.716561000">
        <ele>522.50</ele>
        <time>2015-01-17T09:37:52Z</time>
      </trkpt>
      <trkpt lat="42.411832000" lon="-2.716513000">
        <ele>522.50</ele>
        <time>2015-01-17T09:37:53Z</time>
      </trkpt>
      <trkpt lat="42.411845000" lon="-2.716466000">
        <ele>522.50</ele>
        <time>2015-01-17T09:37:54Z</time>
      </trkpt>
      <trkpt lat="42.411860000" lon="-2.716419000">
        <ele>522.50</ele>
        <time>2015-01-17T09:37:55Z</time>
      </trkpt>
      <trkpt lat="42.411875000" lon="-2.716376000">
        <ele>522.50</ele>
        <time>2015-01-17T09:37:56Z</time>
      </trkpt>
      <trkpt lat="42.411890000" lon="-2.716336000">
        <ele>522.50</ele>
        <time>2015-01-17T09:37:57Z</time>
      </trkpt>
      <trkpt lat="42.411906000" lon="-2.716299000">
        <ele>522.60</ele>
        <time>2015-01-17T09:37:58Z</time>
      </trkpt>
      <trkpt lat="42.411920000" lon="-2.716263000">
        <ele>522.60</ele>
        <time>2015-01-17T09:37:59Z</time>
      </trkpt>
      <trkpt lat="42.411933000" lon="-2.716233000">
        <ele>522.60</ele>
        <time>2015-01-17T09:38:00Z</time>
      </trkpt>
      <trkpt lat="42.411944000" lon="-2.716200000">
        <ele>522.30</ele>
        <time>2015-01-17T09:38:01Z</time>
      </trkpt>
      <trkpt lat="42.411960000" lon="-2.716167000">
        <ele>522.10</ele>
        <time>2015-01-17T09:38:02Z</time>
      </trkpt>
      <trkpt lat="42.411973000" lon="-2.716145000">
        <ele>522.00</ele>
        <time>2015-01-17T09:38:03Z</time>
      </trkpt>
      <trkpt lat="42.411985000" lon="-2.716125000">
        <ele>521.80</ele>
        <time>2015-01-17T09:38:04Z</time>
      </trkpt>
      <trkpt lat="42.411993000" lon="-2.716096000">
        <ele>521.80</ele>
        <time>2015-01-17T09:38:05Z</time>
      </trkpt>
      <trkpt lat="42.411999000" lon="-2.716073000">
        <ele>521.70</ele>
        <time>2015-01-17T09:38:06Z</time>
      </trkpt>
      <trkpt lat="42.411980000" lon="-2.716024000">
        <ele>521.60</ele>
        <time>2015-01-17T09:38:08Z</time>
      </trkpt>
      <trkpt lat="42.411956000" lon="-2.715998000">
        <ele>521.60</ele>
        <time>2015-01-17T09:38:09Z</time>
      </trkpt>
      <trkpt lat="42.411937000" lon="-2.715970000">
        <ele>521.70</ele>
        <time>2015-01-17T09:38:10Z</time>
      </trkpt>
      <trkpt lat="42.411925000" lon="-2.715930000">
        <ele>521.70</ele>
        <time>2015-01-17T09:38:11Z</time>
      </trkpt>
      <trkpt lat="42.411917000" lon="-2.715884000">
        <ele>521.70</ele>
        <time>2015-01-17T09:38:12Z</time>
      </trkpt>
      <trkpt lat="42.411906000" lon="-2.715837000">
        <ele>521.70</ele>
        <time>2015-01-17T09:38:13Z</time>
      </trkpt>
      <trkpt lat="42.411894000" lon="-2.715789000">
        <ele>521.70</ele>
        <time>2015-01-17T09:38:14Z</time>
      </trkpt>
      <trkpt lat="42.411885000" lon="-2.715739000">
        <ele>521.80</ele>
        <time>2015-01-17T09:38:15Z</time>
      </trkpt>
      <trkpt lat="42.411877000" lon="-2.715690000">
        <ele>521.90</ele>
        <time>2015-01-17T09:38:16Z</time>
      </trkpt>
      <trkpt lat="42.411870000" lon="-2.715645000">
        <ele>521.90</ele>
        <time>2015-01-17T09:38:17Z</time>
      </trkpt>
      <trkpt lat="42.411867000" lon="-2.715601000">
        <ele>522.00</ele>
        <time>2015-01-17T09:38:18Z</time>
      </trkpt>
      <trkpt lat="42.411862000" lon="-2.715555000">
        <ele>522.10</ele>
        <time>2015-01-17T09:38:19Z</time>
      </trkpt>
      <trkpt lat="42.411859000" lon="-2.715513000">
        <ele>522.30</ele>
        <time>2015-01-17T09:38:20Z</time>
      </trkpt>
      <trkpt lat="42.411850000" lon="-2.715470000">
        <ele>522.40</ele>
        <time>2015-01-17T09:38:21Z</time>
      </trkpt>
      <trkpt lat="42.411842000" lon="-2.715423000">
        <ele>522.50</ele>
        <time>2015-01-17T09:38:22Z</time>
      </trkpt>
      <trkpt lat="42.411836000" lon="-2.715377000">
        <ele>522.60</ele>
        <time>2015-01-17T09:38:23Z</time>
      </trkpt>
      <trkpt lat="42.411828000" lon="-2.715332000">
        <ele>522.60</ele>
        <time>2015-01-17T09:38:24Z</time>
      </trkpt>
      <trkpt lat="42.411820000" lon="-2.715290000">
        <ele>522.60</ele>
        <time>2015-01-17T09:38:25Z</time>
      </trkpt>
      <trkpt lat="42.411814000" lon="-2.715248000">
        <ele>522.70</ele>
        <time>2015-01-17T09:38:26Z</time>
      </trkpt>
      <trkpt lat="42.411807000" lon="-2.715213000">
        <ele>522.70</ele>
        <time>2015-01-17T09:38:27Z</time>
      </trkpt>
      <trkpt lat="42.411802000" lon="-2.715173000">
        <ele>522.70</ele>
        <time>2015-01-17T09:38:28Z</time>
      </trkpt>
      <trkpt lat="42.411798000" lon="-2.715133000">
        <ele>522.80</ele>
        <time>2015-01-17T09:38:29Z</time>
      </trkpt>
      <trkpt lat="42.411792000" lon="-2.715087000">
        <ele>522.80</ele>
        <time>2015-01-17T09:38:30Z</time>
      </trkpt>
      <trkpt lat="42.411788000" lon="-2.715042000">
        <ele>523.10</ele>
        <time>2015-01-17T09:38:31Z</time>
      </trkpt>
      <trkpt lat="42.411783000" lon="-2.714998000">
        <ele>523.30</ele>
        <time>2015-01-17T09:38:32Z</time>
      </trkpt>
      <trkpt lat="42.411776000" lon="-2.714953000">
        <ele>523.40</ele>
        <time>2015-01-17T09:38:33Z</time>
      </trkpt>
      <trkpt lat="42.411770000" lon="-2.714911000">
        <ele>523.50</ele>
        <time>2015-01-17T09:38:34Z</time>
      </trkpt>
      <trkpt lat="42.411763000" lon="-2.714866000">
        <ele>523.80</ele>
        <time>2015-01-17T09:38:35Z</time>
      </trkpt>
      <trkpt lat="42.411754000" lon="-2.714821000">
        <ele>524.00</ele>
        <time>2015-01-17T09:38:36Z</time>
      </trkpt>
      <trkpt lat="42.411743000" lon="-2.714776000">
        <ele>524.20</ele>
        <time>2015-01-17T09:38:37Z</time>
      </trkpt>
      <trkpt lat="42.411733000" lon="-2.714731000">
        <ele>524.30</ele>
        <time>2015-01-17T09:38:38Z</time>
      </trkpt>
      <trkpt lat="42.411724000" lon="-2.714686000">
        <ele>524.40</ele>
        <time>2015-01-17T09:38:39Z</time>
      </trkpt>
      <trkpt lat="42.411712000" lon="-2.714642000">
        <ele>524.50</ele>
        <time>2015-01-17T09:38:40Z</time>
      </trkpt>
      <trkpt lat="42.411698000" lon="-2.714597000">
        <ele>524.60</ele>
        <time>2015-01-17T09:38:41Z</time>
      </trkpt>
      <trkpt lat="42.411682000" lon="-2.714555000">
        <ele>524.70</ele>
        <time>2015-01-17T09:38:42Z</time>
      </trkpt>
      <trkpt lat="42.411664000" lon="-2.714518000">
        <ele>525.00</ele>
        <time>2015-01-17T09:38:43Z</time>
      </trkpt>
      <trkpt lat="42.411648000" lon="-2.714483000">
        <ele>525.30</ele>
        <time>2015-01-17T09:38:44Z</time>
      </trkpt>
      <trkpt lat="42.411630000" lon="-2.714448000">
        <ele>525.50</ele>
        <time>2015-01-17T09:38:45Z</time>
      </trkpt>
      <trkpt lat="42.411611000" lon="-2.714414000">
        <ele>525.70</ele>
        <time>2015-01-17T09:38:46Z</time>
      </trkpt>
      <trkpt lat="42.411595000" lon="-2.714375000">
        <ele>526.00</ele>
        <time>2015-01-17T09:38:47Z</time>
      </trkpt>
      <trkpt lat="42.411580000" lon="-2.714339000">
        <ele>526.20</ele>
        <time>2015-01-17T09:38:48Z</time>
      </trkpt>
      <trkpt lat="42.411565000" lon="-2.714309000">
        <ele>526.50</ele>
        <time>2015-01-17T09:38:49Z</time>
      </trkpt>
      <trkpt lat="42.411551000" lon="-2.714273000">
        <ele>526.70</ele>
        <time>2015-01-17T09:38:50Z</time>
      </trkpt>
      <trkpt lat="42.411534000" lon="-2.714236000">
        <ele>526.80</ele>
        <time>2015-01-17T09:38:51Z</time>
      </trkpt>
      <trkpt lat="42.411521000" lon="-2.714197000">
        <ele>526.90</ele>
        <time>2015-01-17T09:38:52Z</time>
      </trkpt>
      <trkpt lat="42.411506000" lon="-2.714161000">
        <ele>527.00</ele>
        <time>2015-01-17T09:38:53Z</time>
      </trkpt>
      <trkpt lat="42.411492000" lon="-2.714125000">
        <ele>527.00</ele>
        <time>2015-01-17T09:38:54Z</time>
      </trkpt>
      <trkpt lat="42.411480000" lon="-2.714084000">
        <ele>527.10</ele>
        <time>2015-01-17T09:38:55Z</time>
      </trkpt>
      <trkpt lat="42.411467000" lon="-2.714043000">
        <ele>527.10</ele>
        <time>2015-01-17T09:38:56Z</time>
      </trkpt>
      <trkpt lat="42.411456000" lon="-2.714000000">
        <ele>527.10</ele>
        <time>2015-01-17T09:38:57Z</time>
      </trkpt>
      <trkpt lat="42.411442000" lon="-2.713961000">
        <ele>527.10</ele>
        <time>2015-01-17T09:38:58Z</time>
      </trkpt>
      <trkpt lat="42.411426000" lon="-2.713922000">
        <ele>527.40</ele>
        <time>2015-01-17T09:38:59Z</time>
      </trkpt>
      <trkpt lat="42.411412000" lon="-2.713882000">
        <ele>527.60</ele>
        <time>2015-01-17T09:39:00Z</time>
      </trkpt>
      <trkpt lat="42.411398000" lon="-2.713842000">
        <ele>527.80</ele>
        <time>2015-01-17T09:39:01Z</time>
      </trkpt>
      <trkpt lat="42.411382000" lon="-2.713799000">
        <ele>528.00</ele>
        <time>2015-01-17T09:39:02Z</time>
      </trkpt>
      <trkpt lat="42.411366000" lon="-2.713759000">
        <ele>528.10</ele>
        <time>2015-01-17T09:39:03Z</time>
      </trkpt>
      <trkpt lat="42.411352000" lon="-2.713719000">
        <ele>528.20</ele>
        <time>2015-01-17T09:39:04Z</time>
      </trkpt>
      <trkpt lat="42.411336000" lon="-2.713678000">
        <ele>528.20</ele>
        <time>2015-01-17T09:39:05Z</time>
      </trkpt>
      <trkpt lat="42.411322000" lon="-2.713637000">
        <ele>528.20</ele>
        <time>2015-01-17T09:39:06Z</time>
      </trkpt>
      <trkpt lat="42.411305000" lon="-2.713599000">
        <ele>528.20</ele>
        <time>2015-01-17T09:39:07Z</time>
      </trkpt>
      <trkpt lat="42.411275000" lon="-2.713524000">
        <ele>528.50</ele>
        <time>2015-01-17T09:39:09Z</time>
      </trkpt>
      <trkpt lat="42.411260000" lon="-2.713482000">
        <ele>528.70</ele>
        <time>2015-01-17T09:39:10Z</time>
      </trkpt>
      <trkpt lat="42.411244000" lon="-2.713443000">
        <ele>528.90</ele>
        <time>2015-01-17T09:39:11Z</time>
      </trkpt>
      <trkpt lat="42.411228000" lon="-2.713404000">
        <ele>529.10</ele>
        <time>2015-01-17T09:39:12Z</time>
      </trkpt>
      <trkpt lat="42.411209000" lon="-2.713363000">
        <ele>529.30</ele>
        <time>2015-01-17T09:39:13Z</time>
      </trkpt>
      <trkpt lat="42.411191000" lon="-2.713322000">
        <ele>529.40</ele>
        <time>2015-01-17T09:39:14Z</time>
      </trkpt>
      <trkpt lat="42.411179000" lon="-2.713282000">
        <ele>529.50</ele>
        <time>2015-01-17T09:39:15Z</time>
      </trkpt>
      <trkpt lat="42.411163000" lon="-2.713246000">
        <ele>529.50</ele>
        <time>2015-01-17T09:39:16Z</time>
      </trkpt>
      <trkpt lat="42.411149000" lon="-2.713206000">
        <ele>529.50</ele>
        <time>2015-01-17T09:39:17Z</time>
      </trkpt>
      <trkpt lat="42.411134000" lon="-2.713165000">
        <ele>529.50</ele>
        <time>2015-01-17T09:39:18Z</time>
      </trkpt>
      <trkpt lat="42.411119000" lon="-2.713122000">
        <ele>529.50</ele>
        <time>2015-01-17T09:39:19Z</time>
      </trkpt>
      <trkpt lat="42.411103000" lon="-2.713079000">
        <ele>529.50</ele>
        <time>2015-01-17T09:39:20Z</time>
      </trkpt>
      <trkpt lat="42.411090000" lon="-2.713036000">
        <ele>529.60</ele>
        <time>2015-01-17T09:39:21Z</time>
      </trkpt>
      <trkpt lat="42.411077000" lon="-2.712993000">
        <ele>529.70</ele>
        <time>2015-01-17T09:39:22Z</time>
      </trkpt>
      <trkpt lat="42.411064000" lon="-2.712952000">
        <ele>529.80</ele>
        <time>2015-01-17T09:39:23Z</time>
      </trkpt>
      <trkpt lat="42.411052000" lon="-2.712910000">
        <ele>529.80</ele>
        <time>2015-01-17T09:39:24Z</time>
      </trkpt>
      <trkpt lat="42.411040000" lon="-2.712868000">
        <ele>529.80</ele>
        <time>2015-01-17T09:39:25Z</time>
      </trkpt>
      <trkpt lat="42.411024000" lon="-2.712831000">
        <ele>529.70</ele>
        <time>2015-01-17T09:39:26Z</time>
      </trkpt>
      <trkpt lat="42.411013000" lon="-2.712787000">
        <ele>529.70</ele>
        <time>2015-01-17T09:39:27Z</time>
      </trkpt>
      <trkpt lat="42.411002000" lon="-2.712744000">
        <ele>529.70</ele>
        <time>2015-01-17T09:39:28Z</time>
      </trkpt>
      <trkpt lat="42.410991000" lon="-2.712697000">
        <ele>529.80</ele>
        <time>2015-01-17T09:39:29Z</time>
      </trkpt>
      <trkpt lat="42.410978000" lon="-2.712652000">
        <ele>529.80</ele>
        <time>2015-01-17T09:39:30Z</time>
      </trkpt>
      <trkpt lat="42.410966000" lon="-2.712607000">
        <ele>529.90</ele>
        <time>2015-01-17T09:39:31Z</time>
      </trkpt>
      <trkpt lat="42.410955000" lon="-2.712562000">
        <ele>530.00</ele>
        <time>2015-01-17T09:39:32Z</time>
      </trkpt>
      <trkpt lat="42.410944000" lon="-2.712520000">
        <ele>530.00</ele>
        <time>2015-01-17T09:39:33Z</time>
      </trkpt>
      <trkpt lat="42.410931000" lon="-2.712479000">
        <ele>530.00</ele>
        <time>2015-01-17T09:39:34Z</time>
      </trkpt>
      <trkpt lat="42.410917000" lon="-2.712437000">
        <ele>530.10</ele>
        <time>2015-01-17T09:39:35Z</time>
      </trkpt>
      <trkpt lat="42.410903000" lon="-2.712397000">
        <ele>530.20</ele>
        <time>2015-01-17T09:39:36Z</time>
      </trkpt>
      <trkpt lat="42.410891000" lon="-2.712355000">
        <ele>530.30</ele>
        <time>2015-01-17T09:39:37Z</time>
      </trkpt>
      <trkpt lat="42.410877000" lon="-2.712314000">
        <ele>530.40</ele>
        <time>2015-01-17T09:39:38Z</time>
      </trkpt>
      <trkpt lat="42.410860000" lon="-2.712272000">
        <ele>530.50</ele>
        <time>2015-01-17T09:39:39Z</time>
      </trkpt>
      <trkpt lat="42.410843000" lon="-2.712232000">
        <ele>530.50</ele>
        <time>2015-01-17T09:39:40Z</time>
      </trkpt>
      <trkpt lat="42.410824000" lon="-2.712191000">
        <ele>530.60</ele>
        <time>2015-01-17T09:39:41Z</time>
      </trkpt>
      <trkpt lat="42.410809000" lon="-2.712152000">
        <ele>530.70</ele>
        <time>2015-01-17T09:39:42Z</time>
      </trkpt>
      <trkpt lat="42.410794000" lon="-2.712113000">
        <ele>530.80</ele>
        <time>2015-01-17T09:39:43Z</time>
      </trkpt>
      <trkpt lat="42.410782000" lon="-2.712073000">
        <ele>531.00</ele>
        <time>2015-01-17T09:39:44Z</time>
      </trkpt>
      <trkpt lat="42.410769000" lon="-2.712028000">
        <ele>531.10</ele>
        <time>2015-01-17T09:39:45Z</time>
      </trkpt>
      <trkpt lat="42.410751000" lon="-2.711986000">
        <ele>531.20</ele>
        <time>2015-01-17T09:39:46Z</time>
      </trkpt>
      <trkpt lat="42.410734000" lon="-2.711939000">
        <ele>531.30</ele>
        <time>2015-01-17T09:39:47Z</time>
      </trkpt>
      <trkpt lat="42.410721000" lon="-2.711891000">
        <ele>531.50</ele>
        <time>2015-01-17T09:39:48Z</time>
      </trkpt>
      <trkpt lat="42.410711000" lon="-2.711844000">
        <ele>531.60</ele>
        <time>2015-01-17T09:39:49Z</time>
      </trkpt>
      <trkpt lat="42.410703000" lon="-2.711796000">
        <ele>531.70</ele>
        <time>2015-01-17T09:39:50Z</time>
      </trkpt>
      <trkpt lat="42.410692000" lon="-2.711750000">
        <ele>531.80</ele>
        <time>2015-01-17T09:39:51Z</time>
      </trkpt>
      <trkpt lat="42.410682000" lon="-2.711699000">
        <ele>531.90</ele>
        <time>2015-01-17T09:39:52Z</time>
      </trkpt>
      <trkpt lat="42.410677000" lon="-2.711647000">
        <ele>531.90</ele>
        <time>2015-01-17T09:39:53Z</time>
      </trkpt>
      <trkpt lat="42.410672000" lon="-2.711596000">
        <ele>531.90</ele>
        <time>2015-01-17T09:39:54Z</time>
      </trkpt>
      <trkpt lat="42.410668000" lon="-2.711545000">
        <ele>531.90</ele>
        <time>2015-01-17T09:39:55Z</time>
      </trkpt>
      <trkpt lat="42.410665000" lon="-2.711495000">
        <ele>531.90</ele>
        <time>2015-01-17T09:39:56Z</time>
      </trkpt>
      <trkpt lat="42.410659000" lon="-2.711443000">
        <ele>531.90</ele>
        <time>2015-01-17T09:39:57Z</time>
      </trkpt>
      <trkpt lat="42.410653000" lon="-2.711390000">
        <ele>531.90</ele>
        <time>2015-01-17T09:39:58Z</time>
      </trkpt>
      <trkpt lat="42.410646000" lon="-2.711341000">
        <ele>532.00</ele>
        <time>2015-01-17T09:39:59Z</time>
      </trkpt>
      <trkpt lat="42.410642000" lon="-2.711289000">
        <ele>532.10</ele>
        <time>2015-01-17T09:40:00Z</time>
      </trkpt>
      <trkpt lat="42.410631000" lon="-2.711243000">
        <ele>532.30</ele>
        <time>2015-01-17T09:40:01Z</time>
      </trkpt>
      <trkpt lat="42.410619000" lon="-2.711195000">
        <ele>532.40</ele>
        <time>2015-01-17T09:40:02Z</time>
      </trkpt>
      <trkpt lat="42.410605000" lon="-2.711150000">
        <ele>532.40</ele>
        <time>2015-01-17T09:40:03Z</time>
      </trkpt>
      <trkpt lat="42.410589000" lon="-2.711104000">
        <ele>532.50</ele>
        <time>2015-01-17T09:40:04Z</time>
      </trkpt>
      <trkpt lat="42.410578000" lon="-2.711056000">
        <ele>532.40</ele>
        <time>2015-01-17T09:40:05Z</time>
      </trkpt>
      <trkpt lat="42.410564000" lon="-2.711014000">
        <ele>532.40</ele>
        <time>2015-01-17T09:40:06Z</time>
      </trkpt>
      <trkpt lat="42.410549000" lon="-2.710971000">
        <ele>532.40</ele>
        <time>2015-01-17T09:40:07Z</time>
      </trkpt>
      <trkpt lat="42.410539000" lon="-2.710925000">
        <ele>532.30</ele>
        <time>2015-01-17T09:40:08Z</time>
      </trkpt>
      <trkpt lat="42.410509000" lon="-2.710834000">
        <ele>532.10</ele>
        <time>2015-01-17T09:40:10Z</time>
      </trkpt>
      <trkpt lat="42.410493000" lon="-2.710788000">
        <ele>532.40</ele>
        <time>2015-01-17T09:40:11Z</time>
      </trkpt>
      <trkpt lat="42.410476000" lon="-2.710741000">
        <ele>532.70</ele>
        <time>2015-01-17T09:40:12Z</time>
      </trkpt>
      <trkpt lat="42.410458000" lon="-2.710695000">
        <ele>532.80</ele>
        <time>2015-01-17T09:40:13Z</time>
      </trkpt>
      <trkpt lat="42.410441000" lon="-2.710650000">
        <ele>532.90</ele>
        <time>2015-01-17T09:40:14Z</time>
      </trkpt>
      <trkpt lat="42.410427000" lon="-2.710603000">
        <ele>533.00</ele>
        <time>2015-01-17T09:40:15Z</time>
      </trkpt>
      <trkpt lat="42.410411000" lon="-2.710557000">
        <ele>533.00</ele>
        <time>2015-01-17T09:40:16Z</time>
      </trkpt>
      <trkpt lat="42.410395000" lon="-2.710507000">
        <ele>533.10</ele>
        <time>2015-01-17T09:40:17Z</time>
      </trkpt>
      <trkpt lat="42.410378000" lon="-2.710461000">
        <ele>533.10</ele>
        <time>2015-01-17T09:40:18Z</time>
      </trkpt>
      <trkpt lat="42.410359000" lon="-2.710416000">
        <ele>533.10</ele>
        <time>2015-01-17T09:40:19Z</time>
      </trkpt>
      <trkpt lat="42.410338000" lon="-2.710370000">
        <ele>533.10</ele>
        <time>2015-01-17T09:40:20Z</time>
      </trkpt>
      <trkpt lat="42.410317000" lon="-2.710324000">
        <ele>533.10</ele>
        <time>2015-01-17T09:40:21Z</time>
      </trkpt>
      <trkpt lat="42.410299000" lon="-2.710282000">
        <ele>533.20</ele>
        <time>2015-01-17T09:40:22Z</time>
      </trkpt>
      <trkpt lat="42.410283000" lon="-2.710242000">
        <ele>533.20</ele>
        <time>2015-01-17T09:40:23Z</time>
      </trkpt>
      <trkpt lat="42.410263000" lon="-2.710204000">
        <ele>533.20</ele>
        <time>2015-01-17T09:40:24Z</time>
      </trkpt>
      <trkpt lat="42.410247000" lon="-2.710163000">
        <ele>533.30</ele>
        <time>2015-01-17T09:40:25Z</time>
      </trkpt>
      <trkpt lat="42.410231000" lon="-2.710123000">
        <ele>533.40</ele>
        <time>2015-01-17T09:40:26Z</time>
      </trkpt>
      <trkpt lat="42.410210000" lon="-2.710082000">
        <ele>533.50</ele>
        <time>2015-01-17T09:40:27Z</time>
      </trkpt>
      <trkpt lat="42.410186000" lon="-2.710044000">
        <ele>533.60</ele>
        <time>2015-01-17T09:40:28Z</time>
      </trkpt>
      <trkpt lat="42.410165000" lon="-2.710002000">
        <ele>533.90</ele>
        <time>2015-01-17T09:40:29Z</time>
      </trkpt>
      <trkpt lat="42.410146000" lon="-2.709960000">
        <ele>534.00</ele>
        <time>2015-01-17T09:40:30Z</time>
      </trkpt>
      <trkpt lat="42.410125000" lon="-2.709922000">
        <ele>534.20</ele>
        <time>2015-01-17T09:40:31Z</time>
      </trkpt>
      <trkpt lat="42.410104000" lon="-2.709879000">
        <ele>534.40</ele>
        <time>2015-01-17T09:40:32Z</time>
      </trkpt>
      <trkpt lat="42.410082000" lon="-2.709835000">
        <ele>534.50</ele>
        <time>2015-01-17T09:40:33Z</time>
      </trkpt>
      <trkpt lat="42.410064000" lon="-2.709791000">
        <ele>534.60</ele>
        <time>2015-01-17T09:40:34Z</time>
      </trkpt>
      <trkpt lat="42.410048000" lon="-2.709747000">
        <ele>534.90</ele>
        <time>2015-01-17T09:40:35Z</time>
      </trkpt>
      <trkpt lat="42.410032000" lon="-2.709703000">
        <ele>535.10</ele>
        <time>2015-01-17T09:40:36Z</time>
      </trkpt>
      <trkpt lat="42.410021000" lon="-2.709658000">
        <ele>535.30</ele>
        <time>2015-01-17T09:40:37Z</time>
      </trkpt>
      <trkpt lat="42.410003000" lon="-2.709617000">
        <ele>535.50</ele>
        <time>2015-01-17T09:40:38Z</time>
      </trkpt>
      <trkpt lat="42.409982000" lon="-2.709573000">
        <ele>535.80</ele>
        <time>2015-01-17T09:40:39Z</time>
      </trkpt>
      <trkpt lat="42.409962000" lon="-2.709530000">
        <ele>536.00</ele>
        <time>2015-01-17T09:40:40Z</time>
      </trkpt>
      <trkpt lat="42.409943000" lon="-2.709484000">
        <ele>536.20</ele>
        <time>2015-01-17T09:40:41Z</time>
      </trkpt>
      <trkpt lat="42.409934000" lon="-2.709433000">
        <ele>536.40</ele>
        <time>2015-01-17T09:40:42Z</time>
      </trkpt>
      <trkpt lat="42.409920000" lon="-2.709391000">
        <ele>536.30</ele>
        <time>2015-01-17T09:40:43Z</time>
      </trkpt>
      <trkpt lat="42.409908000" lon="-2.709344000">
        <ele>536.20</ele>
        <time>2015-01-17T09:40:44Z</time>
      </trkpt>
      <trkpt lat="42.409896000" lon="-2.709300000">
        <ele>536.10</ele>
        <time>2015-01-17T09:40:45Z</time>
      </trkpt>
      <trkpt lat="42.409883000" lon="-2.709256000">
        <ele>536.00</ele>
        <time>2015-01-17T09:40:46Z</time>
      </trkpt>
      <trkpt lat="42.409868000" lon="-2.709215000">
        <ele>535.90</ele>
        <time>2015-01-17T09:40:47Z</time>
      </trkpt>
      <trkpt lat="42.409854000" lon="-2.709172000">
        <ele>535.80</ele>
        <time>2015-01-17T09:40:48Z</time>
      </trkpt>
      <trkpt lat="42.409841000" lon="-2.709133000">
        <ele>535.80</ele>
        <time>2015-01-17T09:40:49Z</time>
      </trkpt>
      <trkpt lat="42.409820000" lon="-2.709098000">
        <ele>535.70</ele>
        <time>2015-01-17T09:40:50Z</time>
      </trkpt>
      <trkpt lat="42.409790000" lon="-2.709064000">
        <ele>536.00</ele>
        <time>2015-01-17T09:40:51Z</time>
      </trkpt>
      <trkpt lat="42.409754000" lon="-2.709025000">
        <ele>536.20</ele>
        <time>2015-01-17T09:40:52Z</time>
      </trkpt>
      <trkpt lat="42.409720000" lon="-2.708983000">
        <ele>536.40</ele>
        <time>2015-01-17T09:40:53Z</time>
      </trkpt>
      <trkpt lat="42.409690000" lon="-2.708936000">
        <ele>536.50</ele>
        <time>2015-01-17T09:40:54Z</time>
      </trkpt>
      <trkpt lat="42.409664000" lon="-2.708890000">
        <ele>536.40</ele>
        <time>2015-01-17T09:40:55Z</time>
      </trkpt>
      <trkpt lat="42.409642000" lon="-2.708842000">
        <ele>536.40</ele>
        <time>2015-01-17T09:40:56Z</time>
      </trkpt>
      <trkpt lat="42.409623000" lon="-2.708793000">
        <ele>536.30</ele>
        <time>2015-01-17T09:40:57Z</time>
      </trkpt>
      <trkpt lat="42.409606000" lon="-2.708743000">
        <ele>536.30</ele>
        <time>2015-01-17T09:40:58Z</time>
      </trkpt>
      <trkpt lat="42.409589000" lon="-2.708695000">
        <ele>536.30</ele>
        <time>2015-01-17T09:40:59Z</time>
      </trkpt>
      <trkpt lat="42.409573000" lon="-2.708647000">
        <ele>536.20</ele>
        <time>2015-01-17T09:41:00Z</time>
      </trkpt>
      <trkpt lat="42.409557000" lon="-2.708602000">
        <ele>536.30</ele>
        <time>2015-01-17T09:41:01Z</time>
      </trkpt>
      <trkpt lat="42.409541000" lon="-2.708560000">
        <ele>536.40</ele>
        <time>2015-01-17T09:41:02Z</time>
      </trkpt>
      <trkpt lat="42.409525000" lon="-2.708521000">
        <ele>536.70</ele>
        <time>2015-01-17T09:41:03Z</time>
      </trkpt>
      <trkpt lat="42.409508000" lon="-2.708492000">
        <ele>536.90</ele>
        <time>2015-01-17T09:41:04Z</time>
      </trkpt>
      <trkpt lat="42.409483000" lon="-2.708474000">
        <ele>537.10</ele>
        <time>2015-01-17T09:41:05Z</time>
      </trkpt>
      <trkpt lat="42.409462000" lon="-2.708463000">
        <ele>537.20</ele>
        <time>2015-01-17T09:41:06Z</time>
      </trkpt>
      <trkpt lat="42.409453000" lon="-2.708450000">
        <ele>537.30</ele>
        <time>2015-01-17T09:41:07Z</time>
      </trkpt>
      <trkpt lat="42.409456000" lon="-2.708442000">
        <ele>537.40</ele>
        <time>2015-01-17T09:41:08Z</time>
      </trkpt>
      <trkpt lat="42.409465000" lon="-2.708435000">
        <ele>537.50</ele>
        <time>2015-01-17T09:41:09Z</time>
      </trkpt>
      <trkpt lat="42.409468000" lon="-2.708429000">
        <ele>537.60</ele>
        <time>2015-01-17T09:41:11Z</time>
      </trkpt>
      <trkpt lat="42.409466000" lon="-2.708436000">
        <ele>537.70</ele>
        <time>2015-01-17T09:41:12Z</time>
      </trkpt>
      <trkpt lat="42.409468000" lon="-2.708431000">
        <ele>537.60</ele>
        <time>2015-01-17T09:41:13Z</time>
      </trkpt>
      <trkpt lat="42.409460000" lon="-2.708431000">
        <ele>537.40</ele>
        <time>2015-01-17T09:41:14Z</time>
      </trkpt>
      <trkpt lat="42.409459000" lon="-2.708425000">
        <ele>537.30</ele>
        <time>2015-01-17T09:41:15Z</time>
      </trkpt>
      <trkpt lat="42.409457000" lon="-2.708428000">
        <ele>537.20</ele>
        <time>2015-01-17T09:41:16Z</time>
      </trkpt>
      <trkpt lat="42.409453000" lon="-2.708427000">
        <ele>537.10</ele>
        <time>2015-01-17T09:41:17Z</time>
      </trkpt>
      <trkpt lat="42.409452000" lon="-2.708423000">
        <ele>537.00</ele>
        <time>2015-01-17T09:41:18Z</time>
      </trkpt>
      <trkpt lat="42.409451000" lon="-2.708410000">
        <ele>537.00</ele>
        <time>2015-01-17T09:41:19Z</time>
      </trkpt>
      <trkpt lat="42.409446000" lon="-2.708382000">
        <ele>537.00</ele>
        <time>2015-01-17T09:41:20Z</time>
      </trkpt>
      <trkpt lat="42.409444000" lon="-2.708353000">
        <ele>537.00</ele>
        <time>2015-01-17T09:41:21Z</time>
      </trkpt>
      <trkpt lat="42.409434000" lon="-2.708322000">
        <ele>537.00</ele>
        <time>2015-01-17T09:41:22Z</time>
      </trkpt>
      <trkpt lat="42.409420000" lon="-2.708290000">
        <ele>536.80</ele>
        <time>2015-01-17T09:41:23Z</time>
      </trkpt>
      <trkpt lat="42.409412000" lon="-2.708255000">
        <ele>536.70</ele>
        <time>2015-01-17T09:41:24Z</time>
      </trkpt>
      <trkpt lat="42.409403000" lon="-2.708224000">
        <ele>536.70</ele>
        <time>2015-01-17T09:41:25Z</time>
      </trkpt>
      <trkpt lat="42.409392000" lon="-2.708193000">
        <ele>536.60</ele>
        <time>2015-01-17T09:41:26Z</time>
      </trkpt>
      <trkpt lat="42.409384000" lon="-2.708158000">
        <ele>536.80</ele>
        <time>2015-01-17T09:41:27Z</time>
      </trkpt>
      <trkpt lat="42.409371000" lon="-2.708121000">
        <ele>536.90</ele>
        <time>2015-01-17T09:41:28Z</time>
      </trkpt>
      <trkpt lat="42.409363000" lon="-2.708083000">
        <ele>537.00</ele>
        <time>2015-01-17T09:41:29Z</time>
      </trkpt>
      <trkpt lat="42.409347000" lon="-2.708046000">
        <ele>537.10</ele>
        <time>2015-01-17T09:41:30Z</time>
      </trkpt>
      <trkpt lat="42.409333000" lon="-2.708010000">
        <ele>537.10</ele>
        <time>2015-01-17T09:41:31Z</time>
      </trkpt>
      <trkpt lat="42.409333000" lon="-2.707964000">
        <ele>537.20</ele>
        <time>2015-01-17T09:41:32Z</time>
      </trkpt>
      <trkpt lat="42.409330000" lon="-2.707931000">
        <ele>537.20</ele>
        <time>2015-01-17T09:41:33Z</time>
      </trkpt>
      <trkpt lat="42.409326000" lon="-2.707903000">
        <ele>537.20</ele>
        <time>2015-01-17T09:41:34Z</time>
      </trkpt>
      <trkpt lat="42.409326000" lon="-2.707891000">
        <ele>537.20</ele>
        <time>2015-01-17T09:41:35Z</time>
      </trkpt>
      <trkpt lat="42.409331000" lon="-2.707885000">
        <ele>537.10</ele>
        <time>2015-01-17T09:41:36Z</time>
      </trkpt>
      <trkpt lat="42.409336000" lon="-2.707884000">
        <ele>537.30</ele>
        <time>2015-01-17T09:41:37Z</time>
      </trkpt>
      <trkpt lat="42.409340000" lon="-2.707885000">
        <ele>537.40</ele>
        <time>2015-01-17T09:41:38Z</time>
      </trkpt>
      <trkpt lat="42.409342000" lon="-2.707886000">
        <ele>537.50</ele>
        <time>2015-01-17T09:41:39Z</time>
      </trkpt>
      <trkpt lat="42.409342000" lon="-2.707894000">
        <ele>537.50</ele>
        <time>2015-01-17T09:41:40Z</time>
      </trkpt>
      <trkpt lat="42.409347000" lon="-2.707903000">
        <ele>537.60</ele>
        <time>2015-01-17T09:41:41Z</time>
      </trkpt>
      <trkpt lat="42.409353000" lon="-2.707918000">
        <ele>537.60</ele>
        <time>2015-01-17T09:41:42Z</time>
      </trkpt>
      <trkpt lat="42.409360000" lon="-2.707937000">
        <ele>537.80</ele>
        <time>2015-01-17T09:41:43Z</time>
      </trkpt>
      <trkpt lat="42.409366000" lon="-2.707955000">
        <ele>538.00</ele>
        <time>2015-01-17T09:41:44Z</time>
      </trkpt>
      <trkpt lat="42.409372000" lon="-2.707976000">
        <ele>538.00</ele>
        <time>2015-01-17T09:41:45Z</time>
      </trkpt>
      <trkpt lat="42.409376000" lon="-2.707999000">
        <ele>538.00</ele>
        <time>2015-01-17T09:41:46Z</time>
      </trkpt>
      <trkpt lat="42.409381000" lon="-2.708030000">
        <ele>538.00</ele>
        <time>2015-01-17T09:41:47Z</time>
      </trkpt>
      <trkpt lat="42.409386000" lon="-2.708066000">
        <ele>538.10</ele>
        <time>2015-01-17T09:41:48Z</time>
      </trkpt>
      <trkpt lat="42.409392000" lon="-2.708106000">
        <ele>538.10</ele>
        <time>2015-01-17T09:41:49Z</time>
      </trkpt>
      <trkpt lat="42.409401000" lon="-2.708145000">
        <ele>538.10</ele>
        <time>2015-01-17T09:41:50Z</time>
      </trkpt>
      <trkpt lat="42.409410000" lon="-2.708183000">
        <ele>538.20</ele>
        <time>2015-01-17T09:41:51Z</time>
      </trkpt>
      <trkpt lat="42.409419000" lon="-2.708223000">
        <ele>538.20</ele>
        <time>2015-01-17T09:41:52Z</time>
      </trkpt>
      <trkpt lat="42.409428000" lon="-2.708256000">
        <ele>538.40</ele>
        <time>2015-01-17T09:41:53Z</time>
      </trkpt>
      <trkpt lat="42.409431000" lon="-2.708283000">
        <ele>538.50</ele>
        <time>2015-01-17T09:41:54Z</time>
      </trkpt>
      <trkpt lat="42.409423000" lon="-2.708299000">
        <ele>538.60</ele>
        <time>2015-01-17T09:41:55Z</time>
      </trkpt>
      <trkpt lat="42.409416000" lon="-2.708298000">
        <ele>538.70</ele>
        <time>2015-01-17T09:41:56Z</time>
      </trkpt>
      <trkpt lat="42.409414000" lon="-2.708302000">
        <ele>538.80</ele>
        <time>2015-01-17T09:41:57Z</time>
      </trkpt>
      <trkpt lat="42.409410000" lon="-2.708305000">
        <ele>538.80</ele>
        <time>2015-01-17T09:41:58Z</time>
      </trkpt>
      <trkpt lat="42.409408000" lon="-2.708305000">
        <ele>538.90</ele>
        <time>2015-01-17T09:41:59Z</time>
      </trkpt>
      <trkpt lat="42.409409000" lon="-2.708308000">
        <ele>538.90</ele>
        <time>2015-01-17T09:42:00Z</time>
      </trkpt>
      <trkpt lat="42.409407000" lon="-2.708308000">
        <ele>538.70</ele>
        <time>2015-01-17T09:42:01Z</time>
      </trkpt>
      <trkpt lat="42.409406000" lon="-2.708309000">
        <ele>538.60</ele>
        <time>2015-01-17T09:42:02Z</time>
      </trkpt>
      <trkpt lat="42.409411000" lon="-2.708303000">
        <ele>538.30</ele>
        <time>2015-01-17T09:42:03Z</time>
      </trkpt>
      <trkpt lat="42.409413000" lon="-2.708302000">
        <ele>538.10</ele>
        <time>2015-01-17T09:42:04Z</time>
      </trkpt>
      <trkpt lat="42.409413000" lon="-2.708306000">
        <ele>537.90</ele>
        <time>2015-01-17T09:42:05Z</time>
      </trkpt>
      <trkpt lat="42.409411000" lon="-2.708316000">
        <ele>537.80</ele>
        <time>2015-01-17T09:42:06Z</time>
      </trkpt>
      <trkpt lat="42.409408000" lon="-2.708325000">
        <ele>537.80</ele>
        <time>2015-01-17T09:42:07Z</time>
      </trkpt>
      <trkpt lat="42.409405000" lon="-2.708326000">
        <ele>537.80</ele>
        <time>2015-01-17T09:42:08Z</time>
      </trkpt>
      <trkpt lat="42.409406000" lon="-2.708331000">
        <ele>537.80</ele>
        <time>2015-01-17T09:42:09Z</time>
      </trkpt>
      <trkpt lat="42.409410000" lon="-2.708330000">
        <ele>537.80</ele>
        <time>2015-01-17T09:42:10Z</time>
      </trkpt>
      <trkpt lat="42.409422000" lon="-2.708322000">
        <ele>537.80</ele>
        <time>2015-01-17T09:42:12Z</time>
      </trkpt>
      <trkpt lat="42.409420000" lon="-2.708311000">
        <ele>537.80</ele>
        <time>2015-01-17T09:42:13Z</time>
      </trkpt>
      <trkpt lat="42.409419000" lon="-2.708302000">
        <ele>537.80</ele>
        <time>2015-01-17T09:42:14Z</time>
      </trkpt>
      <trkpt lat="42.409416000" lon="-2.708300000">
        <ele>537.80</ele>
        <time>2015-01-17T09:42:15Z</time>
      </trkpt>
      <trkpt lat="42.409414000" lon="-2.708300000">
        <ele>537.80</ele>
        <time>2015-01-17T09:42:16Z</time>
      </trkpt>
      <trkpt lat="42.409414000" lon="-2.708300000">
        <ele>538.00</ele>
        <time>2015-01-17T09:42:17Z</time>
      </trkpt>
      <trkpt lat="42.409412000" lon="-2.708301000">
        <ele>538.10</ele>
        <time>2015-01-17T09:42:18Z</time>
      </trkpt>
      <trkpt lat="42.409409000" lon="-2.708301000">
        <ele>538.10</ele>
        <time>2015-01-17T09:42:19Z</time>
      </trkpt>
      <trkpt lat="42.409409000" lon="-2.708301000">
        <ele>538.20</ele>
        <time>2015-01-17T09:42:20Z</time>
      </trkpt>
      <trkpt lat="42.409407000" lon="-2.708298000">
        <ele>538.00</ele>
        <time>2015-01-17T09:42:21Z</time>
      </trkpt>
      <trkpt lat="42.409411000" lon="-2.708299000">
        <ele>537.80</ele>
        <time>2015-01-17T09:42:22Z</time>
      </trkpt>
      <trkpt lat="42.409411000" lon="-2.708297000">
        <ele>537.70</ele>
        <time>2015-01-17T09:42:23Z</time>
      </trkpt>
      <trkpt lat="42.409410000" lon="-2.708300000">
        <ele>537.60</ele>
        <time>2015-01-17T09:42:24Z</time>
      </trkpt>
      <trkpt lat="42.409414000" lon="-2.708299000">
        <ele>537.50</ele>
        <time>2015-01-17T09:42:25Z</time>
      </trkpt>
      <trkpt lat="42.409415000" lon="-2.708294000">
        <ele>537.50</ele>
        <time>2015-01-17T09:42:26Z</time>
      </trkpt>
      <trkpt lat="42.409416000" lon="-2.708289000">
        <ele>537.50</ele>
        <time>2015-01-17T09:42:27Z</time>
      </trkpt>
      <trkpt lat="42.409415000" lon="-2.708288000">
        <ele>537.60</ele>
        <time>2015-01-17T09:42:28Z</time>
      </trkpt>
      <trkpt lat="42.409415000" lon="-2.708282000">
        <ele>537.70</ele>
        <time>2015-01-17T09:42:29Z</time>
      </trkpt>
      <trkpt lat="42.409419000" lon="-2.708283000">
        <ele>537.80</ele>
        <time>2015-01-17T09:42:30Z</time>
      </trkpt>
      <trkpt lat="42.409422000" lon="-2.708289000">
        <ele>537.90</ele>
        <time>2015-01-17T09:42:31Z</time>
      </trkpt>
      <trkpt lat="42.409424000" lon="-2.708294000">
        <ele>538.00</ele>
        <time>2015-01-17T09:42:32Z</time>
      </trkpt>
      <trkpt lat="42.409424000" lon="-2.708297000">
        <ele>538.20</ele>
        <time>2015-01-17T09:42:33Z</time>
      </trkpt>
      <trkpt lat="42.409421000" lon="-2.708303000">
        <ele>538.40</ele>
        <time>2015-01-17T09:42:34Z</time>
      </trkpt>
      <trkpt lat="42.409421000" lon="-2.708306000">
        <ele>538.50</ele>
        <time>2015-01-17T09:42:35Z</time>
      </trkpt>
      <trkpt lat="42.409420000" lon="-2.708304000">
        <ele>538.50</ele>
        <time>2015-01-17T09:42:36Z</time>
      </trkpt>
      <trkpt lat="42.409419000" lon="-2.708299000">
        <ele>538.40</ele>
        <time>2015-01-17T09:42:37Z</time>
      </trkpt>
      <trkpt lat="42.409417000" lon="-2.708297000">
        <ele>538.30</ele>
        <time>2015-01-17T09:42:38Z</time>
      </trkpt>
      <trkpt lat="42.409412000" lon="-2.708303000">
        <ele>538.30</ele>
        <time>2015-01-17T09:42:39Z</time>
      </trkpt>
      <trkpt lat="42.409409000" lon="-2.708306000">
        <ele>538.00</ele>
        <time>2015-01-17T09:42:40Z</time>
      </trkpt>
      <trkpt lat="42.409409000" lon="-2.708306000">
        <ele>537.80</ele>
        <time>2015-01-17T09:42:41Z</time>
      </trkpt>
      <trkpt lat="42.409410000" lon="-2.708308000">
        <ele>537.60</ele>
        <time>2015-01-17T09:42:42Z</time>
      </trkpt>
      <trkpt lat="42.409411000" lon="-2.708307000">
        <ele>537.40</ele>
        <time>2015-01-17T09:42:43Z</time>
      </trkpt>
      <trkpt lat="42.409409000" lon="-2.708305000">
        <ele>537.30</ele>
        <time>2015-01-17T09:42:44Z</time>
      </trkpt>
      <trkpt lat="42.409409000" lon="-2.708304000">
        <ele>537.20</ele>
        <time>2015-01-17T09:42:45Z</time>
      </trkpt>
      <trkpt lat="42.409409000" lon="-2.708303000">
        <ele>537.40</ele>
        <time>2015-01-17T09:42:46Z</time>
      </trkpt>
      <trkpt lat="42.409412000" lon="-2.708300000">
        <ele>537.50</ele>
        <time>2015-01-17T09:42:47Z</time>
      </trkpt>
      <trkpt lat="42.409415000" lon="-2.708299000">
        <ele>537.50</ele>
        <time>2015-01-17T09:42:48Z</time>
      </trkpt>
      <trkpt lat="42.409417000" lon="-2.708299000">
        <ele>537.60</ele>
        <time>2015-01-17T09:42:49Z</time>
      </trkpt>
      <trkpt lat="42.409418000" lon="-2.708302000">
        <ele>537.60</ele>
        <time>2015-01-17T09:42:50Z</time>
      </trkpt>
      <trkpt lat="42.409418000" lon="-2.708303000">
        <ele>537.60</ele>
        <time>2015-01-17T09:42:51Z</time>
      </trkpt>
      <trkpt lat="42.409418000" lon="-2.708300000">
        <ele>537.70</ele>
        <time>2015-01-17T09:42:52Z</time>
      </trkpt>
      <trkpt lat="42.409418000" lon="-2.708302000">
        <ele>537.70</ele>
        <time>2015-01-17T09:42:53Z</time>
      </trkpt>
      <trkpt lat="42.409418000" lon="-2.708302000">
        <ele>537.80</ele>
        <time>2015-01-17T09:42:54Z</time>
      </trkpt>
      <trkpt lat="42.409414000" lon="-2.708299000">
        <ele>537.90</ele>
        <time>2015-01-17T09:42:55Z</time>
      </trkpt>
      <trkpt lat="42.409415000" lon="-2.708300000">
        <ele>538.10</ele>
        <time>2015-01-17T09:42:56Z</time>
      </trkpt>
      <trkpt lat="42.409416000" lon="-2.708302000">
        <ele>538.30</ele>
        <time>2015-01-17T09:42:57Z</time>
      </trkpt>
      <trkpt lat="42.409416000" lon="-2.708305000">
        <ele>538.40</ele>
        <time>2015-01-17T09:42:58Z</time>
      </trkpt>
      <trkpt lat="42.409415000" lon="-2.708307000">
        <ele>538.50</ele>
        <time>2015-01-17T09:42:59Z</time>
      </trkpt>
      <trkpt lat="42.409416000" lon="-2.708305000">
        <ele>538.50</ele>
        <time>2015-01-17T09:43:00Z</time>
      </trkpt>
      <trkpt lat="42.409413000" lon="-2.708306000">
        <ele>538.40</ele>
        <time>2015-01-17T09:43:01Z</time>
      </trkpt>
      <trkpt lat="42.409412000" lon="-2.708307000">
        <ele>538.20</ele>
        <time>2015-01-17T09:43:02Z</time>
      </trkpt>
      <trkpt lat="42.409410000" lon="-2.708304000">
        <ele>538.10</ele>
        <time>2015-01-17T09:43:03Z</time>
      </trkpt>
      <trkpt lat="42.409411000" lon="-2.708298000">
        <ele>538.00</ele>
        <time>2015-01-17T09:43:04Z</time>
      </trkpt>
      <trkpt lat="42.409409000" lon="-2.708295000">
        <ele>537.90</ele>
        <time>2015-01-17T09:43:05Z</time>
      </trkpt>
      <trkpt lat="42.409410000" lon="-2.708293000">
        <ele>538.10</ele>
        <time>2015-01-17T09:43:06Z</time>
      </trkpt>
      <trkpt lat="42.409406000" lon="-2.708297000">
        <ele>538.20</ele>
        <time>2015-01-17T09:43:07Z</time>
      </trkpt>
      <trkpt lat="42.409402000" lon="-2.708303000">
        <ele>538.30</ele>
        <time>2015-01-17T09:43:08Z</time>
      </trkpt>
      <trkpt lat="42.409402000" lon="-2.708302000">
        <ele>538.30</ele>
        <time>2015-01-17T09:43:09Z</time>
      </trkpt>
      <trkpt lat="42.409400000" lon="-2.708303000">
        <ele>538.30</ele>
        <time>2015-01-17T09:43:10Z</time>
      </trkpt>
      <trkpt lat="42.409398000" lon="-2.708303000">
        <ele>538.20</ele>
        <time>2015-01-17T09:43:11Z</time>
      </trkpt>
      <trkpt lat="42.409395000" lon="-2.708299000">
        <ele>538.10</ele>
        <time>2015-01-17T09:43:13Z</time>
      </trkpt>
      <trkpt lat="42.409394000" lon="-2.708296000">
        <ele>538.00</ele>
        <time>2015-01-17T09:43:14Z</time>
      </trkpt>
      <trkpt lat="42.409394000" lon="-2.708291000">
        <ele>538.00</ele>
        <time>2015-01-17T09:43:15Z</time>
      </trkpt>
      <trkpt lat="42.409394000" lon="-2.708289000">
        <ele>537.90</ele>
        <time>2015-01-17T09:43:16Z</time>
      </trkpt>
      <trkpt lat="42.409395000" lon="-2.708285000">
        <ele>537.80</ele>
        <time>2015-01-17T09:43:17Z</time>
      </trkpt>
      <trkpt lat="42.409395000" lon="-2.708283000">
        <ele>537.70</ele>
        <time>2015-01-17T09:43:18Z</time>
      </trkpt>
      <trkpt lat="42.409396000" lon="-2.708280000">
        <ele>537.70</ele>
        <time>2015-01-17T09:43:19Z</time>
      </trkpt>
      <trkpt lat="42.409397000" lon="-2.708279000">
        <ele>537.50</ele>
        <time>2015-01-17T09:43:20Z</time>
      </trkpt>
      <trkpt lat="42.409398000" lon="-2.708277000">
        <ele>537.30</ele>
        <time>2015-01-17T09:43:21Z</time>
      </trkpt>
      <trkpt lat="42.409398000" lon="-2.708279000">
        <ele>537.20</ele>
        <time>2015-01-17T09:43:22Z</time>
      </trkpt>
      <trkpt lat="42.409400000" lon="-2.708279000">
        <ele>537.10</ele>
        <time>2015-01-17T09:43:23Z</time>
      </trkpt>
      <trkpt lat="42.409399000" lon="-2.708281000">
        <ele>537.00</ele>
        <time>2015-01-17T09:43:24Z</time>
      </trkpt>
      <trkpt lat="42.409400000" lon="-2.708280000">
        <ele>536.90</ele>
        <time>2015-01-17T09:43:25Z</time>
      </trkpt>
      <trkpt lat="42.409402000" lon="-2.708277000">
        <ele>536.90</ele>
        <time>2015-01-17T09:43:26Z</time>
      </trkpt>
      <trkpt lat="42.409404000" lon="-2.708275000">
        <ele>536.90</ele>
        <time>2015-01-17T09:43:27Z</time>
      </trkpt>
      <trkpt lat="42.409405000" lon="-2.708272000">
        <ele>536.90</ele>
        <time>2015-01-17T09:43:28Z</time>
      </trkpt>
      <trkpt lat="42.409406000" lon="-2.708270000">
        <ele>536.80</ele>
        <time>2015-01-17T09:43:29Z</time>
      </trkpt>
      <trkpt lat="42.409407000" lon="-2.708268000">
        <ele>536.80</ele>
        <time>2015-01-17T09:43:30Z</time>
      </trkpt>
      <trkpt lat="42.409403000" lon="-2.708271000">
        <ele>536.80</ele>
        <time>2015-01-17T09:43:31Z</time>
      </trkpt>
      <trkpt lat="42.409402000" lon="-2.708274000">
        <ele>536.90</ele>
        <time>2015-01-17T09:43:32Z</time>
      </trkpt>
      <trkpt lat="42.409400000" lon="-2.708275000">
        <ele>537.00</ele>
        <time>2015-01-17T09:43:33Z</time>
      </trkpt>
      <trkpt lat="42.409397000" lon="-2.708277000">
        <ele>537.10</ele>
        <time>2015-01-17T09:43:34Z</time>
      </trkpt>
      <trkpt lat="42.409397000" lon="-2.708278000">
        <ele>537.10</ele>
        <time>2015-01-17T09:43:35Z</time>
      </trkpt>
      <trkpt lat="42.409395000" lon="-2.708279000">
        <ele>537.20</ele>
        <time>2015-01-17T09:43:36Z</time>
      </trkpt>
      <trkpt lat="42.409392000" lon="-2.708281000">
        <ele>537.20</ele>
        <time>2015-01-17T09:43:37Z</time>
      </trkpt>
      <trkpt lat="42.409391000" lon="-2.708285000">
        <ele>537.30</ele>
        <time>2015-01-17T09:43:38Z</time>
      </trkpt>
      <trkpt lat="42.409394000" lon="-2.708288000">
        <ele>537.30</ele>
        <time>2015-01-17T09:43:39Z</time>
      </trkpt>
      <trkpt lat="42.409398000" lon="-2.708290000">
        <ele>537.30</ele>
        <time>2015-01-17T09:43:40Z</time>
      </trkpt>
      <trkpt lat="42.409401000" lon="-2.708289000">
        <ele>537.30</ele>
        <time>2015-01-17T09:43:41Z</time>
      </trkpt>
      <trkpt lat="42.409403000" lon="-2.708291000">
        <ele>537.50</ele>
        <time>2015-01-17T09:43:42Z</time>
      </trkpt>
      <trkpt lat="42.409405000" lon="-2.708288000">
        <ele>537.70</ele>
        <time>2015-01-17T09:43:43Z</time>
      </trkpt>
      <trkpt lat="42.409404000" lon="-2.708288000">
        <ele>537.90</ele>
        <time>2015-01-17T09:43:44Z</time>
      </trkpt>
      <trkpt lat="42.409404000" lon="-2.708285000">
        <ele>538.00</ele>
        <time>2015-01-17T09:43:45Z</time>
      </trkpt>
      <trkpt lat="42.409404000" lon="-2.708284000">
        <ele>538.10</ele>
        <time>2015-01-17T09:43:46Z</time>
      </trkpt>
      <trkpt lat="42.409406000" lon="-2.708284000">
        <ele>538.10</ele>
        <time>2015-01-17T09:43:47Z</time>
      </trkpt>
      <trkpt lat="42.409405000" lon="-2.708285000">
        <ele>538.00</ele>
        <time>2015-01-17T09:43:48Z</time>
      </trkpt>
      <trkpt lat="42.409404000" lon="-2.708285000">
        <ele>537.90</ele>
        <time>2015-01-17T09:43:49Z</time>
      </trkpt>
      <trkpt lat="42.409402000" lon="-2.708285000">
        <ele>537.80</ele>
        <time>2015-01-17T09:43:50Z</time>
      </trkpt>
      <trkpt lat="42.409402000" lon="-2.708285000">
        <ele>537.80</ele>
        <time>2015-01-17T09:43:51Z</time>
      </trkpt>
      <trkpt lat="42.409404000" lon="-2.708285000">
        <ele>537.80</ele>
        <time>2015-01-17T09:43:52Z</time>
      </trkpt>
      <trkpt lat="42.409406000" lon="-2.708284000">
        <ele>537.70</ele>
        <time>2015-01-17T09:43:53Z</time>
      </trkpt>
      <trkpt lat="42.409406000" lon="-2.708284000">
        <ele>537.70</ele>
        <time>2015-01-17T09:43:54Z</time>
      </trkpt>
      <trkpt lat="42.409408000" lon="-2.708282000">
        <ele>537.70</ele>
        <time>2015-01-17T09:43:55Z</time>
      </trkpt>
      <trkpt lat="42.409408000" lon="-2.708283000">
        <ele>537.70</ele>
        <time>2015-01-17T09:43:56Z</time>
      </trkpt>
      <trkpt lat="42.409408000" lon="-2.708282000">
        <ele>537.70</ele>
        <time>2015-01-17T09:43:57Z</time>
      </trkpt>
      <trkpt lat="42.409402000" lon="-2.708286000">
        <ele>537.70</ele>
        <time>2015-01-17T09:43:58Z</time>
      </trkpt>
      <trkpt lat="42.409408000" lon="-2.708288000">
        <ele>537.70</ele>
        <time>2015-01-17T09:43:59Z</time>
      </trkpt>
      <trkpt lat="42.409409000" lon="-2.708289000">
        <ele>537.80</ele>
        <time>2015-01-17T09:44:00Z</time>
      </trkpt>
      <trkpt lat="42.409411000" lon="-2.708292000">
        <ele>537.90</ele>
        <time>2015-01-17T09:44:01Z</time>
      </trkpt>
      <trkpt lat="42.409412000" lon="-2.708297000">
        <ele>538.00</ele>
        <time>2015-01-17T09:44:02Z</time>
      </trkpt>
      <trkpt lat="42.409415000" lon="-2.708298000">
        <ele>538.10</ele>
        <time>2015-01-17T09:44:03Z</time>
      </trkpt>
      <trkpt lat="42.409420000" lon="-2.708298000">
        <ele>538.40</ele>
        <time>2015-01-17T09:44:04Z</time>
      </trkpt>
      <trkpt lat="42.409422000" lon="-2.708299000">
        <ele>538.70</ele>
        <time>2015-01-17T09:44:05Z</time>
      </trkpt>
      <trkpt lat="42.409426000" lon="-2.708299000">
        <ele>538.90</ele>
        <time>2015-01-17T09:44:06Z</time>
      </trkpt>
      <trkpt lat="42.409428000" lon="-2.708295000">
        <ele>539.00</ele>
        <time>2015-01-17T09:44:07Z</time>
      </trkpt>
      <trkpt lat="42.409428000" lon="-2.708290000">
        <ele>539.20</ele>
        <time>2015-01-17T09:44:08Z</time>
      </trkpt>
      <trkpt lat="42.409428000" lon="-2.708294000">
        <ele>539.30</ele>
        <time>2015-01-17T09:44:09Z</time>
      </trkpt>
      <trkpt lat="42.409424000" lon="-2.708296000">
        <ele>539.30</ele>
        <time>2015-01-17T09:44:10Z</time>
      </trkpt>
      <trkpt lat="42.409428000" lon="-2.708293000">
        <ele>539.40</ele>
        <time>2015-01-17T09:44:11Z</time>
      </trkpt>
      <trkpt lat="42.409428000" lon="-2.708291000">
        <ele>539.40</ele>
        <time>2015-01-17T09:44:12Z</time>
      </trkpt>
      <trkpt lat="42.409434000" lon="-2.708293000">
        <ele>539.50</ele>
        <time>2015-01-17T09:44:14Z</time>
      </trkpt>
      <trkpt lat="42.409425000" lon="-2.708293000">
        <ele>539.50</ele>
        <time>2015-01-17T09:44:15Z</time>
      </trkpt>
      <trkpt lat="42.409428000" lon="-2.708286000">
        <ele>539.30</ele>
        <time>2015-01-17T09:44:16Z</time>
      </trkpt>
      <trkpt lat="42.409427000" lon="-2.708281000">
        <ele>539.20</ele>
        <time>2015-01-17T09:44:17Z</time>
      </trkpt>
      <trkpt lat="42.409428000" lon="-2.708275000">
        <ele>539.10</ele>
        <time>2015-01-17T09:44:18Z</time>
      </trkpt>
      <trkpt lat="42.409433000" lon="-2.708276000">
        <ele>539.00</ele>
        <time>2015-01-17T09:44:19Z</time>
      </trkpt>
      <trkpt lat="42.409433000" lon="-2.708279000">
        <ele>539.00</ele>
        <time>2015-01-17T09:44:20Z</time>
      </trkpt>
      <trkpt lat="42.409438000" lon="-2.708281000">
        <ele>538.90</ele>
        <time>2015-01-17T09:44:21Z</time>
      </trkpt>
      <trkpt lat="42.409440000" lon="-2.708279000">
        <ele>538.90</ele>
        <time>2015-01-17T09:44:22Z</time>
      </trkpt>
      <trkpt lat="42.409443000" lon="-2.708274000">
        <ele>538.90</ele>
        <time>2015-01-17T09:44:23Z</time>
      </trkpt>
      <trkpt lat="42.409438000" lon="-2.708273000">
        <ele>538.90</ele>
        <time>2015-01-17T09:44:24Z</time>
      </trkpt>
      <trkpt lat="42.409435000" lon="-2.708276000">
        <ele>538.90</ele>
        <time>2015-01-17T09:44:25Z</time>
      </trkpt>
      <trkpt lat="42.409436000" lon="-2.708279000">
        <ele>539.00</ele>
        <time>2015-01-17T09:44:26Z</time>
      </trkpt>
      <trkpt lat="42.409434000" lon="-2.708279000">
        <ele>539.00</ele>
        <time>2015-01-17T09:44:27Z</time>
      </trkpt>
      <trkpt lat="42.409436000" lon="-2.708278000">
        <ele>538.90</ele>
        <time>2015-01-17T09:44:28Z</time>
      </trkpt>
      <trkpt lat="42.409437000" lon="-2.708273000">
        <ele>538.80</ele>
        <time>2015-01-17T09:44:29Z</time>
      </trkpt>
      <trkpt lat="42.409439000" lon="-2.708270000">
        <ele>538.60</ele>
        <time>2015-01-17T09:44:30Z</time>
      </trkpt>
      <trkpt lat="42.409442000" lon="-2.708267000">
        <ele>538.40</ele>
        <time>2015-01-17T09:44:31Z</time>
      </trkpt>
      <trkpt lat="42.409438000" lon="-2.708268000">
        <ele>538.50</ele>
        <time>2015-01-17T09:44:32Z</time>
      </trkpt>
      <trkpt lat="42.409437000" lon="-2.708268000">
        <ele>538.50</ele>
        <time>2015-01-17T09:44:33Z</time>
      </trkpt>
      <trkpt lat="42.409438000" lon="-2.708266000">
        <ele>538.50</ele>
        <time>2015-01-17T09:44:34Z</time>
      </trkpt>
      <trkpt lat="42.409437000" lon="-2.708267000">
        <ele>538.50</ele>
        <time>2015-01-17T09:44:35Z</time>
      </trkpt>
      <trkpt lat="42.409439000" lon="-2.708269000">
        <ele>538.50</ele>
        <time>2015-01-17T09:44:36Z</time>
      </trkpt>
      <trkpt lat="42.409437000" lon="-2.708271000">
        <ele>538.50</ele>
        <time>2015-01-17T09:44:37Z</time>
      </trkpt>
      <trkpt lat="42.409432000" lon="-2.708270000">
        <ele>538.50</ele>
        <time>2015-01-17T09:44:38Z</time>
      </trkpt>
      <trkpt lat="42.409426000" lon="-2.708274000">
        <ele>538.60</ele>
        <time>2015-01-17T09:44:39Z</time>
      </trkpt>
      <trkpt lat="42.409420000" lon="-2.708276000">
        <ele>538.60</ele>
        <time>2015-01-17T09:44:40Z</time>
      </trkpt>
      <trkpt lat="42.409415000" lon="-2.708276000">
        <ele>538.50</ele>
        <time>2015-01-17T09:44:41Z</time>
      </trkpt>
      <trkpt lat="42.409408000" lon="-2.708278000">
        <ele>538.50</ele>
        <time>2015-01-17T09:44:42Z</time>
      </trkpt>
      <trkpt lat="42.409402000" lon="-2.708282000">
        <ele>538.30</ele>
        <time>2015-01-17T09:44:43Z</time>
      </trkpt>
      <trkpt lat="42.409397000" lon="-2.708289000">
        <ele>538.20</ele>
        <time>2015-01-17T09:44:44Z</time>
      </trkpt>
      <trkpt lat="42.409391000" lon="-2.708296000">
        <ele>538.10</ele>
        <time>2015-01-17T09:44:45Z</time>
      </trkpt>
      <trkpt lat="42.409394000" lon="-2.708294000">
        <ele>538.00</ele>
        <time>2015-01-17T09:44:46Z</time>
      </trkpt>
      <trkpt lat="42.409395000" lon="-2.708293000">
        <ele>537.90</ele>
        <time>2015-01-17T09:44:47Z</time>
      </trkpt>
      <trkpt lat="42.409400000" lon="-2.708291000">
        <ele>537.80</ele>
        <time>2015-01-17T09:44:48Z</time>
      </trkpt>
      <trkpt lat="42.409400000" lon="-2.708292000">
        <ele>537.80</ele>
        <time>2015-01-17T09:44:49Z</time>
      </trkpt>
      <trkpt lat="42.409399000" lon="-2.708294000">
        <ele>537.70</ele>
        <time>2015-01-17T09:44:50Z</time>
      </trkpt>
      <trkpt lat="42.409401000" lon="-2.708298000">
        <ele>537.70</ele>
        <time>2015-01-17T09:44:51Z</time>
      </trkpt>
      <trkpt lat="42.409402000" lon="-2.708301000">
        <ele>537.60</ele>
        <time>2015-01-17T09:44:52Z</time>
      </trkpt>
      <trkpt lat="42.409402000" lon="-2.708298000">
        <ele>537.80</ele>
        <time>2015-01-17T09:44:53Z</time>
      </trkpt>
      <trkpt lat="42.409402000" lon="-2.708295000">
        <ele>537.80</ele>
        <time>2015-01-17T09:44:54Z</time>
      </trkpt>
      <trkpt lat="42.409402000" lon="-2.708292000">
        <ele>537.90</ele>
        <time>2015-01-17T09:44:55Z</time>
      </trkpt>
      <trkpt lat="42.409402000" lon="-2.708294000">
        <ele>538.00</ele>
        <time>2015-01-17T09:44:56Z</time>
      </trkpt>
      <trkpt lat="42.409401000" lon="-2.708295000">
        <ele>538.10</ele>
        <time>2015-01-17T09:44:57Z</time>
      </trkpt>
      <trkpt lat="42.409400000" lon="-2.708297000">
        <ele>538.10</ele>
        <time>2015-01-17T09:44:58Z</time>
      </trkpt>
      <trkpt lat="42.409400000" lon="-2.708299000">
        <ele>538.20</ele>
        <time>2015-01-17T09:44:59Z</time>
      </trkpt>
      <trkpt lat="42.409399000" lon="-2.708297000">
        <ele>538.30</ele>
        <time>2015-01-17T09:45:00Z</time>
      </trkpt>
      <trkpt lat="42.409397000" lon="-2.708292000">
        <ele>538.40</ele>
        <time>2015-01-17T09:45:01Z</time>
      </trkpt>
      <trkpt lat="42.409400000" lon="-2.708288000">
        <ele>538.40</ele>
        <time>2015-01-17T09:45:02Z</time>
      </trkpt>
      <trkpt lat="42.409403000" lon="-2.708289000">
        <ele>538.40</ele>
        <time>2015-01-17T09:45:03Z</time>
      </trkpt>
      <trkpt lat="42.409411000" lon="-2.708285000">
        <ele>538.50</ele>
        <time>2015-01-17T09:45:04Z</time>
      </trkpt>
      <trkpt lat="42.409412000" lon="-2.708285000">
        <ele>538.40</ele>
        <time>2015-01-17T09:45:05Z</time>
      </trkpt>
      <trkpt lat="42.409413000" lon="-2.708285000">
        <ele>538.40</ele>
        <time>2015-01-17T09:45:06Z</time>
      </trkpt>
      <trkpt lat="42.409411000" lon="-2.708281000">
        <ele>538.30</ele>
        <time>2015-01-17T09:45:07Z</time>
      </trkpt>
      <trkpt lat="42.409408000" lon="-2.708280000">
        <ele>538.30</ele>
        <time>2015-01-17T09:45:08Z</time>
      </trkpt>
      <trkpt lat="42.409403000" lon="-2.708286000">
        <ele>538.30</ele>
        <time>2015-01-17T09:45:09Z</time>
      </trkpt>
      <trkpt lat="42.409400000" lon="-2.708286000">
        <ele>538.30</ele>
        <time>2015-01-17T09:45:10Z</time>
      </trkpt>
      <trkpt lat="42.409398000" lon="-2.708290000">
        <ele>538.40</ele>
        <time>2015-01-17T09:45:11Z</time>
      </trkpt>
      <trkpt lat="42.409397000" lon="-2.708297000">
        <ele>538.40</ele>
        <time>2015-01-17T09:45:12Z</time>
      </trkpt>
      <trkpt lat="42.409397000" lon="-2.708300000">
        <ele>538.20</ele>
        <time>2015-01-17T09:45:13Z</time>
      </trkpt>
      <trkpt lat="42.409396000" lon="-2.708305000">
        <ele>538.10</ele>
        <time>2015-01-17T09:45:15Z</time>
      </trkpt>
      <trkpt lat="42.409395000" lon="-2.708307000">
        <ele>538.20</ele>
        <time>2015-01-17T09:45:16Z</time>
      </trkpt>
      <trkpt lat="42.409394000" lon="-2.708308000">
        <ele>537.90</ele>
        <time>2015-01-17T09:45:17Z</time>
      </trkpt>
      <trkpt lat="42.409397000" lon="-2.708307000">
        <ele>537.80</ele>
        <time>2015-01-17T09:45:18Z</time>
      </trkpt>
      <trkpt lat="42.409408000" lon="-2.708300000">
        <ele>537.90</ele>
        <time>2015-01-17T09:45:19Z</time>
      </trkpt>
      <trkpt lat="42.409415000" lon="-2.708302000">
        <ele>538.00</ele>
        <time>2015-01-17T09:45:20Z</time>
      </trkpt>
      <trkpt lat="42.409414000" lon="-2.708305000">
        <ele>537.70</ele>
        <time>2015-01-17T09:45:21Z</time>
      </trkpt>
      <trkpt lat="42.409414000" lon="-2.708305000">
        <ele>537.60</ele>
        <time>2015-01-17T09:45:22Z</time>
      </trkpt>
      <trkpt lat="42.409410000" lon="-2.708305000">
        <ele>537.40</ele>
        <time>2015-01-17T09:45:23Z</time>
      </trkpt>
      <trkpt lat="42.409408000" lon="-2.708301000">
        <ele>537.30</ele>
        <time>2015-01-17T09:45:24Z</time>
      </trkpt>
      <trkpt lat="42.409410000" lon="-2.708304000">
        <ele>537.30</ele>
        <time>2015-01-17T09:45:25Z</time>
      </trkpt>
      <trkpt lat="42.409412000" lon="-2.708311000">
        <ele>537.20</ele>
        <time>2015-01-17T09:45:26Z</time>
      </trkpt>
      <trkpt lat="42.409411000" lon="-2.708322000">
        <ele>537.40</ele>
        <time>2015-01-17T09:45:27Z</time>
      </trkpt>
      <trkpt lat="42.409411000" lon="-2.708332000">
        <ele>537.60</ele>
        <time>2015-01-17T09:45:28Z</time>
      </trkpt>
      <trkpt lat="42.409414000" lon="-2.708338000">
        <ele>537.80</ele>
        <time>2015-01-17T09:45:29Z</time>
      </trkpt>
      <trkpt lat="42.409409000" lon="-2.708339000">
        <ele>537.90</ele>
        <time>2015-01-17T09:45:30Z</time>
      </trkpt>
      <trkpt lat="42.409406000" lon="-2.708342000">
        <ele>538.00</ele>
        <time>2015-01-17T09:45:31Z</time>
      </trkpt>
      <trkpt lat="42.409414000" lon="-2.708347000">
        <ele>538.00</ele>
        <time>2015-01-17T09:45:32Z</time>
      </trkpt>
      <trkpt lat="42.409419000" lon="-2.708343000">
        <ele>538.10</ele>
        <time>2015-01-17T09:45:33Z</time>
      </trkpt>
      <trkpt lat="42.409425000" lon="-2.708340000">
        <ele>538.10</ele>
        <time>2015-01-17T09:45:34Z</time>
      </trkpt>
      <trkpt lat="42.409425000" lon="-2.708342000">
        <ele>538.10</ele>
        <time>2015-01-17T09:45:35Z</time>
      </trkpt>
      <trkpt lat="42.409427000" lon="-2.708340000">
        <ele>538.10</ele>
        <time>2015-01-17T09:45:36Z</time>
      </trkpt>
      <trkpt lat="42.409428000" lon="-2.708341000">
        <ele>538.10</ele>
        <time>2015-01-17T09:45:37Z</time>
      </trkpt>
      <trkpt lat="42.409429000" lon="-2.708340000">
        <ele>538.10</ele>
        <time>2015-01-17T09:45:38Z</time>
      </trkpt>
      <trkpt lat="42.409432000" lon="-2.708343000">
        <ele>538.10</ele>
        <time>2015-01-17T09:45:39Z</time>
      </trkpt>
      <trkpt lat="42.409429000" lon="-2.708342000">
        <ele>538.00</ele>
        <time>2015-01-17T09:45:40Z</time>
      </trkpt>
      <trkpt lat="42.409435000" lon="-2.708337000">
        <ele>538.00</ele>
        <time>2015-01-17T09:45:41Z</time>
      </trkpt>
      <trkpt lat="42.409438000" lon="-2.708333000">
        <ele>538.00</ele>
        <time>2015-01-17T09:45:42Z</time>
      </trkpt>
      <trkpt lat="42.409443000" lon="-2.708328000">
        <ele>538.10</ele>
        <time>2015-01-17T09:45:43Z</time>
      </trkpt>
      <trkpt lat="42.409444000" lon="-2.708325000">
        <ele>538.20</ele>
        <time>2015-01-17T09:45:44Z</time>
      </trkpt>
      <trkpt lat="42.409444000" lon="-2.708325000">
        <ele>538.20</ele>
        <time>2015-01-17T09:45:45Z</time>
      </trkpt>
      <trkpt lat="42.409441000" lon="-2.708332000">
        <ele>538.30</ele>
        <time>2015-01-17T09:45:46Z</time>
      </trkpt>
      <trkpt lat="42.409438000" lon="-2.708327000">
        <ele>538.20</ele>
        <time>2015-01-17T09:45:47Z</time>
      </trkpt>
      <trkpt lat="42.409436000" lon="-2.708320000">
        <ele>538.20</ele>
        <time>2015-01-17T09:45:48Z</time>
      </trkpt>
      <trkpt lat="42.409427000" lon="-2.708324000">
        <ele>538.10</ele>
        <time>2015-01-17T09:45:49Z</time>
      </trkpt>
      <trkpt lat="42.409431000" lon="-2.708314000">
        <ele>538.10</ele>
        <time>2015-01-17T09:45:50Z</time>
      </trkpt>
      <trkpt lat="42.409432000" lon="-2.708303000">
        <ele>538.20</ele>
        <time>2015-01-17T09:45:51Z</time>
      </trkpt>
      <trkpt lat="42.409431000" lon="-2.708292000">
        <ele>538.40</ele>
        <time>2015-01-17T09:45:52Z</time>
      </trkpt>
      <trkpt lat="42.409429000" lon="-2.708278000">
        <ele>538.40</ele>
        <time>2015-01-17T09:45:53Z</time>
      </trkpt>
      <trkpt lat="42.409430000" lon="-2.708265000">
        <ele>538.50</ele>
        <time>2015-01-17T09:45:54Z</time>
      </trkpt>
      <trkpt lat="42.409429000" lon="-2.708262000">
        <ele>538.50</ele>
        <time>2015-01-17T09:45:55Z</time>
      </trkpt>
      <trkpt lat="42.409433000" lon="-2.708266000">
        <ele>538.50</ele>
        <time>2015-01-17T09:45:56Z</time>
      </trkpt>
      <trkpt lat="42.409438000" lon="-2.708264000">
        <ele>538.50</ele>
        <time>2015-01-17T09:45:57Z</time>
      </trkpt>
      <trkpt lat="42.409439000" lon="-2.708260000">
        <ele>538.50</ele>
        <time>2015-01-17T09:45:58Z</time>
      </trkpt>
      <trkpt lat="42.409441000" lon="-2.708259000">
        <ele>538.50</ele>
        <time>2015-01-17T09:45:59Z</time>
      </trkpt>
      <trkpt lat="42.409442000" lon="-2.708257000">
        <ele>538.50</ele>
        <time>2015-01-17T09:46:00Z</time>
      </trkpt>
      <trkpt lat="42.409443000" lon="-2.708260000">
        <ele>538.50</ele>
        <time>2015-01-17T09:46:01Z</time>
      </trkpt>
      <trkpt lat="42.409443000" lon="-2.708260000">
        <ele>538.50</ele>
        <time>2015-01-17T09:46:02Z</time>
      </trkpt>
      <trkpt lat="42.409443000" lon="-2.708261000">
        <ele>538.50</ele>
        <time>2015-01-17T09:46:03Z</time>
      </trkpt>
      <trkpt lat="42.409444000" lon="-2.708261000">
        <ele>538.50</ele>
        <time>2015-01-17T09:46:04Z</time>
      </trkpt>
      <trkpt lat="42.409444000" lon="-2.708262000">
        <ele>538.70</ele>
        <time>2015-01-17T09:46:05Z</time>
      </trkpt>
      <trkpt lat="42.409446000" lon="-2.708262000">
        <ele>538.90</ele>
        <time>2015-01-17T09:46:06Z</time>
      </trkpt>
      <trkpt lat="42.409448000" lon="-2.708262000">
        <ele>539.00</ele>
        <time>2015-01-17T09:46:07Z</time>
      </trkpt>
      <trkpt lat="42.409450000" lon="-2.708263000">
        <ele>539.10</ele>
        <time>2015-01-17T09:46:08Z</time>
      </trkpt>
      <trkpt lat="42.409454000" lon="-2.708263000">
        <ele>539.00</ele>
        <time>2015-01-17T09:46:09Z</time>
      </trkpt>
      <trkpt lat="42.409461000" lon="-2.708261000">
        <ele>538.90</ele>
        <time>2015-01-17T09:46:10Z</time>
      </trkpt>
      <trkpt lat="42.409463000" lon="-2.708260000">
        <ele>538.90</ele>
        <time>2015-01-17T09:46:11Z</time>
      </trkpt>
      <trkpt lat="42.409455000" lon="-2.708259000">
        <ele>538.90</ele>
        <time>2015-01-17T09:46:12Z</time>
      </trkpt>
      <trkpt lat="42.409451000" lon="-2.708246000">
        <ele>538.90</ele>
        <time>2015-01-17T09:46:13Z</time>
      </trkpt>
      <trkpt lat="42.409447000" lon="-2.708232000">
        <ele>538.90</ele>
        <time>2015-01-17T09:46:14Z</time>
      </trkpt>
      <trkpt lat="42.409443000" lon="-2.708231000">
        <ele>539.00</ele>
        <time>2015-01-17T09:46:16Z</time>
      </trkpt>
      <trkpt lat="42.409436000" lon="-2.708229000">
        <ele>539.00</ele>
        <time>2015-01-17T09:46:17Z</time>
      </trkpt>
      <trkpt lat="42.409432000" lon="-2.708227000">
        <ele>538.90</ele>
        <time>2015-01-17T09:46:18Z</time>
      </trkpt>
      <trkpt lat="42.409425000" lon="-2.708227000">
        <ele>538.90</ele>
        <time>2015-01-17T09:46:19Z</time>
      </trkpt>
      <trkpt lat="42.409423000" lon="-2.708226000">
        <ele>538.90</ele>
        <time>2015-01-17T09:46:20Z</time>
      </trkpt>
      <trkpt lat="42.409424000" lon="-2.708229000">
        <ele>538.90</ele>
        <time>2015-01-17T09:46:21Z</time>
      </trkpt>
      <trkpt lat="42.409423000" lon="-2.708232000">
        <ele>538.90</ele>
        <time>2015-01-17T09:46:22Z</time>
      </trkpt>
      <trkpt lat="42.409422000" lon="-2.708235000">
        <ele>538.70</ele>
        <time>2015-01-17T09:46:23Z</time>
      </trkpt>
      <trkpt lat="42.409424000" lon="-2.708235000">
        <ele>538.50</ele>
        <time>2015-01-17T09:46:24Z</time>
      </trkpt>
      <trkpt lat="42.409423000" lon="-2.708236000">
        <ele>538.40</ele>
        <time>2015-01-17T09:46:25Z</time>
      </trkpt>
      <trkpt lat="42.409421000" lon="-2.708232000">
        <ele>538.30</ele>
        <time>2015-01-17T09:46:26Z</time>
      </trkpt>
      <trkpt lat="42.409422000" lon="-2.708232000">
        <ele>538.30</ele>
        <time>2015-01-17T09:46:27Z</time>
      </trkpt>
      <trkpt lat="42.409424000" lon="-2.708232000">
        <ele>538.20</ele>
        <time>2015-01-17T09:46:28Z</time>
      </trkpt>
      <trkpt lat="42.409428000" lon="-2.708231000">
        <ele>538.40</ele>
        <time>2015-01-17T09:46:29Z</time>
      </trkpt>
      <trkpt lat="42.409428000" lon="-2.708229000">
        <ele>538.50</ele>
        <time>2015-01-17T09:46:30Z</time>
      </trkpt>
      <trkpt lat="42.409428000" lon="-2.708232000">
        <ele>538.60</ele>
        <time>2015-01-17T09:46:31Z</time>
      </trkpt>
      <trkpt lat="42.409425000" lon="-2.708232000">
        <ele>538.70</ele>
        <time>2015-01-17T09:46:32Z</time>
      </trkpt>
      <trkpt lat="42.409426000" lon="-2.708233000">
        <ele>538.70</ele>
        <time>2015-01-17T09:46:33Z</time>
      </trkpt>
      <trkpt lat="42.409426000" lon="-2.708237000">
        <ele>538.60</ele>
        <time>2015-01-17T09:46:34Z</time>
      </trkpt>
      <trkpt lat="42.409428000" lon="-2.708238000">
        <ele>538.60</ele>
        <time>2015-01-17T09:46:35Z</time>
      </trkpt>
      <trkpt lat="42.409426000" lon="-2.708243000">
        <ele>538.50</ele>
        <time>2015-01-17T09:46:36Z</time>
      </trkpt>
      <trkpt lat="42.409427000" lon="-2.708248000">
        <ele>538.50</ele>
        <time>2015-01-17T09:46:37Z</time>
      </trkpt>
      <trkpt lat="42.409426000" lon="-2.708251000">
        <ele>538.40</ele>
        <time>2015-01-17T09:46:38Z</time>
      </trkpt>
      <trkpt lat="42.409420000" lon="-2.708255000">
        <ele>538.50</ele>
        <time>2015-01-17T09:46:39Z</time>
      </trkpt>
      <trkpt lat="42.409417000" lon="-2.708256000">
        <ele>538.60</ele>
        <time>2015-01-17T09:46:40Z</time>
      </trkpt>
      <trkpt lat="42.409415000" lon="-2.708250000">
        <ele>538.70</ele>
        <time>2015-01-17T09:46:41Z</time>
      </trkpt>
      <trkpt lat="42.409421000" lon="-2.708252000">
        <ele>538.70</ele>
        <time>2015-01-17T09:46:42Z</time>
      </trkpt>
      <trkpt lat="42.409425000" lon="-2.708247000">
        <ele>538.80</ele>
        <time>2015-01-17T09:46:43Z</time>
      </trkpt>
      <trkpt lat="42.409424000" lon="-2.708245000">
        <ele>538.80</ele>
        <time>2015-01-17T09:46:44Z</time>
      </trkpt>
      <trkpt lat="42.409424000" lon="-2.708251000">
        <ele>538.70</ele>
        <time>2015-01-17T09:46:45Z</time>
      </trkpt>
      <trkpt lat="42.409422000" lon="-2.708256000">
        <ele>538.70</ele>
        <time>2015-01-17T09:46:46Z</time>
      </trkpt>
      <trkpt lat="42.409423000" lon="-2.708253000">
        <ele>538.70</ele>
        <time>2015-01-17T09:46:47Z</time>
      </trkpt>
      <trkpt lat="42.409422000" lon="-2.708250000">
        <ele>538.70</ele>
        <time>2015-01-17T09:46:48Z</time>
      </trkpt>
      <trkpt lat="42.409422000" lon="-2.708248000">
        <ele>538.70</ele>
        <time>2015-01-17T09:46:49Z</time>
      </trkpt>
      <trkpt lat="42.409420000" lon="-2.708246000">
        <ele>538.60</ele>
        <time>2015-01-17T09:46:50Z</time>
      </trkpt>
      <trkpt lat="42.409417000" lon="-2.708242000">
        <ele>538.60</ele>
        <time>2015-01-17T09:46:51Z</time>
      </trkpt>
      <trkpt lat="42.409417000" lon="-2.708240000">
        <ele>538.60</ele>
        <time>2015-01-17T09:46:52Z</time>
      </trkpt>
      <trkpt lat="42.409420000" lon="-2.708239000">
        <ele>538.70</ele>
        <time>2015-01-17T09:46:53Z</time>
      </trkpt>
      <trkpt lat="42.409421000" lon="-2.708239000">
        <ele>538.70</ele>
        <time>2015-01-17T09:46:54Z</time>
      </trkpt>
      <trkpt lat="42.409418000" lon="-2.708239000">
        <ele>538.80</ele>
        <time>2015-01-17T09:46:55Z</time>
      </trkpt>
      <trkpt lat="42.409420000" lon="-2.708234000">
        <ele>538.80</ele>
        <time>2015-01-17T09:46:56Z</time>
      </trkpt>
      <trkpt lat="42.409423000" lon="-2.708236000">
        <ele>538.70</ele>
        <time>2015-01-17T09:46:57Z</time>
      </trkpt>
      <trkpt lat="42.409424000" lon="-2.708236000">
        <ele>538.60</ele>
        <time>2015-01-17T09:46:58Z</time>
      </trkpt>
      <trkpt lat="42.409426000" lon="-2.708236000">
        <ele>538.50</ele>
        <time>2015-01-17T09:46:59Z</time>
      </trkpt>
      <trkpt lat="42.409429000" lon="-2.708237000">
        <ele>538.50</ele>
        <time>2015-01-17T09:47:00Z</time>
      </trkpt>
      <trkpt lat="42.409427000" lon="-2.708240000">
        <ele>538.50</ele>
        <time>2015-01-17T09:47:01Z</time>
      </trkpt>
      <trkpt lat="42.409428000" lon="-2.708243000">
        <ele>538.40</ele>
        <time>2015-01-17T09:47:02Z</time>
      </trkpt>
      <trkpt lat="42.409428000" lon="-2.708248000">
        <ele>538.40</ele>
        <time>2015-01-17T09:47:03Z</time>
      </trkpt>
      <trkpt lat="42.409428000" lon="-2.708252000">
        <ele>538.40</ele>
        <time>2015-01-17T09:47:04Z</time>
      </trkpt>
      <trkpt lat="42.409427000" lon="-2.708256000">
        <ele>538.30</ele>
        <time>2015-01-17T09:47:05Z</time>
      </trkpt>
      <trkpt lat="42.409426000" lon="-2.708261000">
        <ele>538.10</ele>
        <time>2015-01-17T09:47:06Z</time>
      </trkpt>
      <trkpt lat="42.409431000" lon="-2.708258000">
        <ele>538.00</ele>
        <time>2015-01-17T09:47:07Z</time>
      </trkpt>
      <trkpt lat="42.409437000" lon="-2.708253000">
        <ele>537.90</ele>
        <time>2015-01-17T09:47:08Z</time>
      </trkpt>
      <trkpt lat="42.409438000" lon="-2.708252000">
        <ele>537.90</ele>
        <time>2015-01-17T09:47:09Z</time>
      </trkpt>
      <trkpt lat="42.409436000" lon="-2.708250000">
        <ele>537.90</ele>
        <time>2015-01-17T09:47:10Z</time>
      </trkpt>
      <trkpt lat="42.409433000" lon="-2.708249000">
        <ele>537.80</ele>
        <time>2015-01-17T09:47:11Z</time>
      </trkpt>
      <trkpt lat="42.409429000" lon="-2.708248000">
        <ele>537.70</ele>
        <time>2015-01-17T09:47:12Z</time>
      </trkpt>
      <trkpt lat="42.409426000" lon="-2.708249000">
        <ele>537.70</ele>
        <time>2015-01-17T09:47:13Z</time>
      </trkpt>
      <trkpt lat="42.409423000" lon="-2.708249000">
        <ele>537.70</ele>
        <time>2015-01-17T09:47:14Z</time>
      </trkpt>
      <trkpt lat="42.409420000" lon="-2.708250000">
        <ele>537.60</ele>
        <time>2015-01-17T09:47:15Z</time>
      </trkpt>
      <trkpt lat="42.409414000" lon="-2.708250000">
        <ele>537.60</ele>
        <time>2015-01-17T09:47:17Z</time>
      </trkpt>
      <trkpt lat="42.409416000" lon="-2.708245000">
        <ele>537.60</ele>
        <time>2015-01-17T09:47:18Z</time>
      </trkpt>
      <trkpt lat="42.409422000" lon="-2.708238000">
        <ele>537.80</ele>
        <time>2015-01-17T09:47:19Z</time>
      </trkpt>
      <trkpt lat="42.409423000" lon="-2.708234000">
        <ele>537.90</ele>
        <time>2015-01-17T09:47:20Z</time>
      </trkpt>
      <trkpt lat="42.409422000" lon="-2.708233000">
        <ele>538.00</ele>
        <time>2015-01-17T09:47:21Z</time>
      </trkpt>
      <trkpt lat="42.409424000" lon="-2.708221000">
        <ele>538.10</ele>
        <time>2015-01-17T09:47:22Z</time>
      </trkpt>
      <trkpt lat="42.409421000" lon="-2.708206000">
        <ele>538.20</ele>
        <time>2015-01-17T09:47:23Z</time>
      </trkpt>
      <trkpt lat="42.409417000" lon="-2.708194000">
        <ele>538.20</ele>
        <time>2015-01-17T09:47:24Z</time>
      </trkpt>
      <trkpt lat="42.409411000" lon="-2.708183000">
        <ele>538.20</ele>
        <time>2015-01-17T09:47:25Z</time>
      </trkpt>
      <trkpt lat="42.409410000" lon="-2.708171000">
        <ele>538.30</ele>
        <time>2015-01-17T09:47:26Z</time>
      </trkpt>
      <trkpt lat="42.409400000" lon="-2.708156000">
        <ele>538.20</ele>
        <time>2015-01-17T09:47:27Z</time>
      </trkpt>
      <trkpt lat="42.409388000" lon="-2.708141000">
        <ele>538.10</ele>
        <time>2015-01-17T09:47:28Z</time>
      </trkpt>
      <trkpt lat="42.409378000" lon="-2.708116000">
        <ele>538.10</ele>
        <time>2015-01-17T09:47:29Z</time>
      </trkpt>
      <trkpt lat="42.409357000" lon="-2.708100000">
        <ele>538.00</ele>
        <time>2015-01-17T09:47:30Z</time>
      </trkpt>
      <trkpt lat="42.409347000" lon="-2.708075000">
        <ele>538.00</ele>
        <time>2015-01-17T09:47:31Z</time>
      </trkpt>
      <trkpt lat="42.409343000" lon="-2.708050000">
        <ele>538.00</ele>
        <time>2015-01-17T09:47:32Z</time>
      </trkpt>
      <trkpt lat="42.409339000" lon="-2.708023000">
        <ele>538.00</ele>
        <time>2015-01-17T09:47:33Z</time>
      </trkpt>
      <trkpt lat="42.409336000" lon="-2.707996000">
        <ele>537.90</ele>
        <time>2015-01-17T09:47:34Z</time>
      </trkpt>
      <trkpt lat="42.409336000" lon="-2.707966000">
        <ele>537.90</ele>
        <time>2015-01-17T09:47:35Z</time>
      </trkpt>
      <trkpt lat="42.409329000" lon="-2.707940000">
        <ele>537.90</ele>
        <time>2015-01-17T09:47:36Z</time>
      </trkpt>
      <trkpt lat="42.409327000" lon="-2.707913000">
        <ele>537.80</ele>
        <time>2015-01-17T09:47:37Z</time>
      </trkpt>
      <trkpt lat="42.409325000" lon="-2.707885000">
        <ele>537.80</ele>
        <time>2015-01-17T09:47:38Z</time>
      </trkpt>
      <trkpt lat="42.409323000" lon="-2.707859000">
        <ele>538.00</ele>
        <time>2015-01-17T09:47:39Z</time>
      </trkpt>
      <trkpt lat="42.409319000" lon="-2.707831000">
        <ele>538.10</ele>
        <time>2015-01-17T09:47:40Z</time>
      </trkpt>
      <trkpt lat="42.409316000" lon="-2.707801000">
        <ele>538.20</ele>
        <time>2015-01-17T09:47:41Z</time>
      </trkpt>
      <trkpt lat="42.409312000" lon="-2.707770000">
        <ele>538.30</ele>
        <time>2015-01-17T09:47:42Z</time>
      </trkpt>
      <trkpt lat="42.409306000" lon="-2.707740000">
        <ele>538.30</ele>
        <time>2015-01-17T09:47:43Z</time>
      </trkpt>
      <trkpt lat="42.409301000" lon="-2.707706000">
        <ele>538.30</ele>
        <time>2015-01-17T09:47:44Z</time>
      </trkpt>
      <trkpt lat="42.409295000" lon="-2.707671000">
        <ele>538.30</ele>
        <time>2015-01-17T09:47:45Z</time>
      </trkpt>
      <trkpt lat="42.409288000" lon="-2.707638000">
        <ele>538.30</ele>
        <time>2015-01-17T09:47:46Z</time>
      </trkpt>
      <trkpt lat="42.409279000" lon="-2.707606000">
        <ele>538.50</ele>
        <time>2015-01-17T09:47:47Z</time>
      </trkpt>
      <trkpt lat="42.409271000" lon="-2.707575000">
        <ele>538.60</ele>
        <time>2015-01-17T09:47:48Z</time>
      </trkpt>
      <trkpt lat="42.409264000" lon="-2.707545000">
        <ele>538.70</ele>
        <time>2015-01-17T09:47:49Z</time>
      </trkpt>
      <trkpt lat="42.409260000" lon="-2.707514000">
        <ele>538.80</ele>
        <time>2015-01-17T09:47:50Z</time>
      </trkpt>
      <trkpt lat="42.409251000" lon="-2.707479000">
        <ele>538.80</ele>
        <time>2015-01-17T09:47:51Z</time>
      </trkpt>
      <trkpt lat="42.409243000" lon="-2.707446000">
        <ele>538.80</ele>
        <time>2015-01-17T09:47:52Z</time>
      </trkpt>
      <trkpt lat="42.409235000" lon="-2.707413000">
        <ele>539.00</ele>
        <time>2015-01-17T09:47:53Z</time>
      </trkpt>
      <trkpt lat="42.409218000" lon="-2.707385000">
        <ele>539.20</ele>
        <time>2015-01-17T09:47:54Z</time>
      </trkpt>
      <trkpt lat="42.409208000" lon="-2.707350000">
        <ele>539.10</ele>
        <time>2015-01-17T09:47:55Z</time>
      </trkpt>
      <trkpt lat="42.409193000" lon="-2.707317000">
        <ele>539.10</ele>
        <time>2015-01-17T09:47:56Z</time>
      </trkpt>
      <trkpt lat="42.409184000" lon="-2.707284000">
        <ele>539.30</ele>
        <time>2015-01-17T09:47:57Z</time>
      </trkpt>
      <trkpt lat="42.409176000" lon="-2.707243000">
        <ele>539.40</ele>
        <time>2015-01-17T09:47:58Z</time>
      </trkpt>
      <trkpt lat="42.409168000" lon="-2.707202000">
        <ele>539.70</ele>
        <time>2015-01-17T09:47:59Z</time>
      </trkpt>
      <trkpt lat="42.409161000" lon="-2.707159000">
        <ele>540.00</ele>
        <time>2015-01-17T09:48:00Z</time>
      </trkpt>
      <trkpt lat="42.409157000" lon="-2.707121000">
        <ele>540.20</ele>
        <time>2015-01-17T09:48:01Z</time>
      </trkpt>
      <trkpt lat="42.409153000" lon="-2.707084000">
        <ele>540.30</ele>
        <time>2015-01-17T09:48:02Z</time>
      </trkpt>
      <trkpt lat="42.409149000" lon="-2.707049000">
        <ele>540.50</ele>
        <time>2015-01-17T09:48:03Z</time>
      </trkpt>
      <trkpt lat="42.409140000" lon="-2.707010000">
        <ele>540.60</ele>
        <time>2015-01-17T09:48:04Z</time>
      </trkpt>
      <trkpt lat="42.409129000" lon="-2.706974000">
        <ele>540.70</ele>
        <time>2015-01-17T09:48:05Z</time>
      </trkpt>
      <trkpt lat="42.409117000" lon="-2.706932000">
        <ele>540.80</ele>
        <time>2015-01-17T09:48:06Z</time>
      </trkpt>
      <trkpt lat="42.409100000" lon="-2.706892000">
        <ele>541.00</ele>
        <time>2015-01-17T09:48:07Z</time>
      </trkpt>
      <trkpt lat="42.409086000" lon="-2.706852000">
        <ele>541.10</ele>
        <time>2015-01-17T09:48:08Z</time>
      </trkpt>
      <trkpt lat="42.409073000" lon="-2.706814000">
        <ele>541.10</ele>
        <time>2015-01-17T09:48:09Z</time>
      </trkpt>
      <trkpt lat="42.409063000" lon="-2.706777000">
        <ele>541.20</ele>
        <time>2015-01-17T09:48:10Z</time>
      </trkpt>
      <trkpt lat="42.409054000" lon="-2.706742000">
        <ele>541.40</ele>
        <time>2015-01-17T09:48:11Z</time>
      </trkpt>
      <trkpt lat="42.409042000" lon="-2.706705000">
        <ele>541.50</ele>
        <time>2015-01-17T09:48:12Z</time>
      </trkpt>
      <trkpt lat="42.409027000" lon="-2.706668000">
        <ele>541.70</ele>
        <time>2015-01-17T09:48:13Z</time>
      </trkpt>
      <trkpt lat="42.409011000" lon="-2.706632000">
        <ele>541.80</ele>
        <time>2015-01-17T09:48:14Z</time>
      </trkpt>
      <trkpt lat="42.408995000" lon="-2.706595000">
        <ele>542.00</ele>
        <time>2015-01-17T09:48:15Z</time>
      </trkpt>
      <trkpt lat="42.408978000" lon="-2.706556000">
        <ele>542.10</ele>
        <time>2015-01-17T09:48:16Z</time>
      </trkpt>
      <trkpt lat="42.408944000" lon="-2.706479000">
        <ele>542.20</ele>
        <time>2015-01-17T09:48:18Z</time>
      </trkpt>
      <trkpt lat="42.408926000" lon="-2.706441000">
        <ele>542.40</ele>
        <time>2015-01-17T09:48:19Z</time>
      </trkpt>
      <trkpt lat="42.408909000" lon="-2.706402000">
        <ele>542.40</ele>
        <time>2015-01-17T09:48:20Z</time>
      </trkpt>
      <trkpt lat="42.408891000" lon="-2.706367000">
        <ele>542.60</ele>
        <time>2015-01-17T09:48:21Z</time>
      </trkpt>
      <trkpt lat="42.408873000" lon="-2.706330000">
        <ele>542.70</ele>
        <time>2015-01-17T09:48:22Z</time>
      </trkpt>
      <trkpt lat="42.408855000" lon="-2.706292000">
        <ele>542.70</ele>
        <time>2015-01-17T09:48:23Z</time>
      </trkpt>
      <trkpt lat="42.408839000" lon="-2.706253000">
        <ele>542.80</ele>
        <time>2015-01-17T09:48:24Z</time>
      </trkpt>
      <trkpt lat="42.408823000" lon="-2.706210000">
        <ele>542.80</ele>
        <time>2015-01-17T09:48:25Z</time>
      </trkpt>
      <trkpt lat="42.408803000" lon="-2.706173000">
        <ele>542.90</ele>
        <time>2015-01-17T09:48:26Z</time>
      </trkpt>
      <trkpt lat="42.408784000" lon="-2.706135000">
        <ele>542.90</ele>
        <time>2015-01-17T09:48:27Z</time>
      </trkpt>
      <trkpt lat="42.408764000" lon="-2.706099000">
        <ele>542.90</ele>
        <time>2015-01-17T09:48:28Z</time>
      </trkpt>
      <trkpt lat="42.408745000" lon="-2.706062000">
        <ele>542.70</ele>
        <time>2015-01-17T09:48:29Z</time>
      </trkpt>
      <trkpt lat="42.408725000" lon="-2.706026000">
        <ele>542.60</ele>
        <time>2015-01-17T09:48:30Z</time>
      </trkpt>
      <trkpt lat="42.408708000" lon="-2.705987000">
        <ele>542.50</ele>
        <time>2015-01-17T09:48:31Z</time>
      </trkpt>
      <trkpt lat="42.408693000" lon="-2.705947000">
        <ele>542.50</ele>
        <time>2015-01-17T09:48:32Z</time>
      </trkpt>
      <trkpt lat="42.408678000" lon="-2.705904000">
        <ele>542.70</ele>
        <time>2015-01-17T09:48:33Z</time>
      </trkpt>
      <trkpt lat="42.408662000" lon="-2.705862000">
        <ele>542.80</ele>
        <time>2015-01-17T09:48:34Z</time>
      </trkpt>
      <trkpt lat="42.408639000" lon="-2.705822000">
        <ele>543.00</ele>
        <time>2015-01-17T09:48:35Z</time>
      </trkpt>
      <trkpt lat="42.408624000" lon="-2.705783000">
        <ele>543.20</ele>
        <time>2015-01-17T09:48:36Z</time>
      </trkpt>
      <trkpt lat="42.408612000" lon="-2.705744000">
        <ele>543.20</ele>
        <time>2015-01-17T09:48:37Z</time>
      </trkpt>
      <trkpt lat="42.408596000" lon="-2.705703000">
        <ele>543.20</ele>
        <time>2015-01-17T09:48:38Z</time>
      </trkpt>
      <trkpt lat="42.408581000" lon="-2.705662000">
        <ele>543.30</ele>
        <time>2015-01-17T09:48:39Z</time>
      </trkpt>
      <trkpt lat="42.408557000" lon="-2.705627000">
        <ele>543.40</ele>
        <time>2015-01-17T09:48:40Z</time>
      </trkpt>
      <trkpt lat="42.408540000" lon="-2.705587000">
        <ele>543.30</ele>
        <time>2015-01-17T09:48:41Z</time>
      </trkpt>
      <trkpt lat="42.408531000" lon="-2.705539000">
        <ele>543.30</ele>
        <time>2015-01-17T09:48:42Z</time>
      </trkpt>
      <trkpt lat="42.408520000" lon="-2.705495000">
        <ele>543.30</ele>
        <time>2015-01-17T09:48:43Z</time>
      </trkpt>
      <trkpt lat="42.408504000" lon="-2.705458000">
        <ele>543.40</ele>
        <time>2015-01-17T09:48:44Z</time>
      </trkpt>
      <trkpt lat="42.408480000" lon="-2.705419000">
        <ele>543.40</ele>
        <time>2015-01-17T09:48:45Z</time>
      </trkpt>
      <trkpt lat="42.408463000" lon="-2.705376000">
        <ele>543.40</ele>
        <time>2015-01-17T09:48:46Z</time>
      </trkpt>
      <trkpt lat="42.408446000" lon="-2.705332000">
        <ele>543.60</ele>
        <time>2015-01-17T09:48:47Z</time>
      </trkpt>
      <trkpt lat="42.408430000" lon="-2.705289000">
        <ele>543.80</ele>
        <time>2015-01-17T09:48:48Z</time>
      </trkpt>
      <trkpt lat="42.408415000" lon="-2.705248000">
        <ele>544.00</ele>
        <time>2015-01-17T09:48:49Z</time>
      </trkpt>
      <trkpt lat="42.408393000" lon="-2.705214000">
        <ele>544.10</ele>
        <time>2015-01-17T09:48:50Z</time>
      </trkpt>
      <trkpt lat="42.408372000" lon="-2.705179000">
        <ele>544.30</ele>
        <time>2015-01-17T09:48:51Z</time>
      </trkpt>
      <trkpt lat="42.408354000" lon="-2.705137000">
        <ele>544.40</ele>
        <time>2015-01-17T09:48:52Z</time>
      </trkpt>
      <trkpt lat="42.408335000" lon="-2.705097000">
        <ele>544.60</ele>
        <time>2015-01-17T09:48:53Z</time>
      </trkpt>
      <trkpt lat="42.408315000" lon="-2.705058000">
        <ele>544.60</ele>
        <time>2015-01-17T09:48:54Z</time>
      </trkpt>
      <trkpt lat="42.408292000" lon="-2.705025000">
        <ele>544.70</ele>
        <time>2015-01-17T09:48:55Z</time>
      </trkpt>
      <trkpt lat="42.408276000" lon="-2.704979000">
        <ele>544.70</ele>
        <time>2015-01-17T09:48:56Z</time>
      </trkpt>
      <trkpt lat="42.408258000" lon="-2.704935000">
        <ele>544.80</ele>
        <time>2015-01-17T09:48:57Z</time>
      </trkpt>
      <trkpt lat="42.408239000" lon="-2.704890000">
        <ele>544.80</ele>
        <time>2015-01-17T09:48:58Z</time>
      </trkpt>
      <trkpt lat="42.408222000" lon="-2.704843000">
        <ele>544.90</ele>
        <time>2015-01-17T09:48:59Z</time>
      </trkpt>
      <trkpt lat="42.408206000" lon="-2.704799000">
        <ele>545.10</ele>
        <time>2015-01-17T09:49:00Z</time>
      </trkpt>
      <trkpt lat="42.408188000" lon="-2.704758000">
        <ele>545.20</ele>
        <time>2015-01-17T09:49:01Z</time>
      </trkpt>
      <trkpt lat="42.408171000" lon="-2.704720000">
        <ele>545.30</ele>
        <time>2015-01-17T09:49:02Z</time>
      </trkpt>
      <trkpt lat="42.408153000" lon="-2.704685000">
        <ele>545.50</ele>
        <time>2015-01-17T09:49:03Z</time>
      </trkpt>
      <trkpt lat="42.408136000" lon="-2.704646000">
        <ele>545.70</ele>
        <time>2015-01-17T09:49:04Z</time>
      </trkpt>
      <trkpt lat="42.408117000" lon="-2.704605000">
        <ele>545.80</ele>
        <time>2015-01-17T09:49:05Z</time>
      </trkpt>
      <trkpt lat="42.408095000" lon="-2.704566000">
        <ele>545.90</ele>
        <time>2015-01-17T09:49:06Z</time>
      </trkpt>
      <trkpt lat="42.408080000" lon="-2.704524000">
        <ele>546.10</ele>
        <time>2015-01-17T09:49:07Z</time>
      </trkpt>
      <trkpt lat="42.408059000" lon="-2.704483000">
        <ele>546.30</ele>
        <time>2015-01-17T09:49:08Z</time>
      </trkpt>
      <trkpt lat="42.408039000" lon="-2.704441000">
        <ele>546.40</ele>
        <time>2015-01-17T09:49:09Z</time>
      </trkpt>
      <trkpt lat="42.408021000" lon="-2.704397000">
        <ele>546.40</ele>
        <time>2015-01-17T09:49:10Z</time>
      </trkpt>
      <trkpt lat="42.408003000" lon="-2.704353000">
        <ele>546.70</ele>
        <time>2015-01-17T09:49:11Z</time>
      </trkpt>
      <trkpt lat="42.407987000" lon="-2.704311000">
        <ele>546.90</ele>
        <time>2015-01-17T09:49:12Z</time>
      </trkpt>
      <trkpt lat="42.407970000" lon="-2.704267000">
        <ele>547.00</ele>
        <time>2015-01-17T09:49:13Z</time>
      </trkpt>
      <trkpt lat="42.407951000" lon="-2.704223000">
        <ele>547.20</ele>
        <time>2015-01-17T09:49:14Z</time>
      </trkpt>
      <trkpt lat="42.407932000" lon="-2.704180000">
        <ele>547.30</ele>
        <time>2015-01-17T09:49:15Z</time>
      </trkpt>
      <trkpt lat="42.407914000" lon="-2.704137000">
        <ele>547.50</ele>
        <time>2015-01-17T09:49:16Z</time>
      </trkpt>
      <trkpt lat="42.407896000" lon="-2.704097000">
        <ele>547.60</ele>
        <time>2015-01-17T09:49:17Z</time>
      </trkpt>
      <trkpt lat="42.407858000" lon="-2.704012000">
        <ele>547.70</ele>
        <time>2015-01-17T09:49:19Z</time>
      </trkpt>
      <trkpt lat="42.407838000" lon="-2.703968000">
        <ele>547.80</ele>
        <time>2015-01-17T09:49:20Z</time>
      </trkpt>
      <trkpt lat="42.407818000" lon="-2.703923000">
        <ele>547.80</ele>
        <time>2015-01-17T09:49:21Z</time>
      </trkpt>
      <trkpt lat="42.407797000" lon="-2.703882000">
        <ele>547.80</ele>
        <time>2015-01-17T09:49:22Z</time>
      </trkpt>
      <trkpt lat="42.407775000" lon="-2.703835000">
        <ele>548.10</ele>
        <time>2015-01-17T09:49:23Z</time>
      </trkpt>
      <trkpt lat="42.407754000" lon="-2.703788000">
        <ele>548.30</ele>
        <time>2015-01-17T09:49:24Z</time>
      </trkpt>
      <trkpt lat="42.407737000" lon="-2.703740000">
        <ele>548.50</ele>
        <time>2015-01-17T09:49:25Z</time>
      </trkpt>
      <trkpt lat="42.407720000" lon="-2.703693000">
        <ele>548.60</ele>
        <time>2015-01-17T09:49:26Z</time>
      </trkpt>
      <trkpt lat="42.407705000" lon="-2.703646000">
        <ele>548.70</ele>
        <time>2015-01-17T09:49:27Z</time>
      </trkpt>
      <trkpt lat="42.407692000" lon="-2.703604000">
        <ele>548.80</ele>
        <time>2015-01-17T09:49:28Z</time>
      </trkpt>
      <trkpt lat="42.407675000" lon="-2.703562000">
        <ele>548.80</ele>
        <time>2015-01-17T09:49:29Z</time>
      </trkpt>
      <trkpt lat="42.407656000" lon="-2.703520000">
        <ele>548.90</ele>
        <time>2015-01-17T09:49:30Z</time>
      </trkpt>
      <trkpt lat="42.407637000" lon="-2.703476000">
        <ele>548.90</ele>
        <time>2015-01-17T09:49:31Z</time>
      </trkpt>
      <trkpt lat="42.407615000" lon="-2.703433000">
        <ele>549.00</ele>
        <time>2015-01-17T09:49:32Z</time>
      </trkpt>
      <trkpt lat="42.407599000" lon="-2.703389000">
        <ele>549.10</ele>
        <time>2015-01-17T09:49:33Z</time>
      </trkpt>
      <trkpt lat="42.407573000" lon="-2.703348000">
        <ele>549.10</ele>
        <time>2015-01-17T09:49:34Z</time>
      </trkpt>
      <trkpt lat="42.407550000" lon="-2.703306000">
        <ele>549.20</ele>
        <time>2015-01-17T09:49:35Z</time>
      </trkpt>
      <trkpt lat="42.407537000" lon="-2.703253000">
        <ele>549.30</ele>
        <time>2015-01-17T09:49:36Z</time>
      </trkpt>
      <trkpt lat="42.407524000" lon="-2.703202000">
        <ele>549.40</ele>
        <time>2015-01-17T09:49:37Z</time>
      </trkpt>
      <trkpt lat="42.407507000" lon="-2.703166000">
        <ele>549.50</ele>
        <time>2015-01-17T09:49:38Z</time>
      </trkpt>
      <trkpt lat="42.407483000" lon="-2.703133000">
        <ele>549.50</ele>
        <time>2015-01-17T09:49:39Z</time>
      </trkpt>
      <trkpt lat="42.407460000" lon="-2.703094000">
        <ele>549.60</ele>
        <time>2015-01-17T09:49:40Z</time>
      </trkpt>
      <trkpt lat="42.407441000" lon="-2.703048000">
        <ele>549.60</ele>
        <time>2015-01-17T09:49:41Z</time>
      </trkpt>
      <trkpt lat="42.407422000" lon="-2.703005000">
        <ele>549.60</ele>
        <time>2015-01-17T09:49:42Z</time>
      </trkpt>
      <trkpt lat="42.407407000" lon="-2.702957000">
        <ele>549.60</ele>
        <time>2015-01-17T09:49:43Z</time>
      </trkpt>
      <trkpt lat="42.407391000" lon="-2.702907000">
        <ele>549.60</ele>
        <time>2015-01-17T09:49:44Z</time>
      </trkpt>
      <trkpt lat="42.407377000" lon="-2.702861000">
        <ele>549.40</ele>
        <time>2015-01-17T09:49:45Z</time>
      </trkpt>
      <trkpt lat="42.407363000" lon="-2.702820000">
        <ele>549.30</ele>
        <time>2015-01-17T09:49:46Z</time>
      </trkpt>
      <trkpt lat="42.407349000" lon="-2.702779000">
        <ele>549.20</ele>
        <time>2015-01-17T09:49:47Z</time>
      </trkpt>
      <trkpt lat="42.407335000" lon="-2.702739000">
        <ele>549.10</ele>
        <time>2015-01-17T09:49:48Z</time>
      </trkpt>
      <trkpt lat="42.407321000" lon="-2.702699000">
        <ele>549.10</ele>
        <time>2015-01-17T09:49:49Z</time>
      </trkpt>
      <trkpt lat="42.407305000" lon="-2.702661000">
        <ele>549.10</ele>
        <time>2015-01-17T09:49:50Z</time>
      </trkpt>
      <trkpt lat="42.407287000" lon="-2.702626000">
        <ele>549.10</ele>
        <time>2015-01-17T09:49:51Z</time>
      </trkpt>
      <trkpt lat="42.407272000" lon="-2.702585000">
        <ele>549.10</ele>
        <time>2015-01-17T09:49:52Z</time>
      </trkpt>
      <trkpt lat="42.407257000" lon="-2.702543000">
        <ele>549.10</ele>
        <time>2015-01-17T09:49:53Z</time>
      </trkpt>
      <trkpt lat="42.407240000" lon="-2.702499000">
        <ele>549.10</ele>
        <time>2015-01-17T09:49:54Z</time>
      </trkpt>
      <trkpt lat="42.407223000" lon="-2.702458000">
        <ele>549.10</ele>
        <time>2015-01-17T09:49:55Z</time>
      </trkpt>
      <trkpt lat="42.407206000" lon="-2.702413000">
        <ele>549.10</ele>
        <time>2015-01-17T09:49:56Z</time>
      </trkpt>
      <trkpt lat="42.407187000" lon="-2.702369000">
        <ele>549.30</ele>
        <time>2015-01-17T09:49:57Z</time>
      </trkpt>
      <trkpt lat="42.407171000" lon="-2.702323000">
        <ele>549.40</ele>
        <time>2015-01-17T09:49:58Z</time>
      </trkpt>
      <trkpt lat="42.407154000" lon="-2.702279000">
        <ele>549.50</ele>
        <time>2015-01-17T09:49:59Z</time>
      </trkpt>
      <trkpt lat="42.407137000" lon="-2.702238000">
        <ele>549.60</ele>
        <time>2015-01-17T09:50:00Z</time>
      </trkpt>
      <trkpt lat="42.407121000" lon="-2.702194000">
        <ele>549.50</ele>
        <time>2015-01-17T09:50:01Z</time>
      </trkpt>
      <trkpt lat="42.407104000" lon="-2.702157000">
        <ele>549.40</ele>
        <time>2015-01-17T09:50:02Z</time>
      </trkpt>
      <trkpt lat="42.407089000" lon="-2.702119000">
        <ele>549.30</ele>
        <time>2015-01-17T09:50:03Z</time>
      </trkpt>
      <trkpt lat="42.407077000" lon="-2.702079000">
        <ele>549.20</ele>
        <time>2015-01-17T09:50:04Z</time>
      </trkpt>
      <trkpt lat="42.407065000" lon="-2.702039000">
        <ele>549.20</ele>
        <time>2015-01-17T09:50:05Z</time>
      </trkpt>
      <trkpt lat="42.407049000" lon="-2.701996000">
        <ele>549.30</ele>
        <time>2015-01-17T09:50:06Z</time>
      </trkpt>
      <trkpt lat="42.407034000" lon="-2.701953000">
        <ele>549.30</ele>
        <time>2015-01-17T09:50:07Z</time>
      </trkpt>
      <trkpt lat="42.407017000" lon="-2.701914000">
        <ele>549.30</ele>
        <time>2015-01-17T09:50:08Z</time>
      </trkpt>
      <trkpt lat="42.407003000" lon="-2.701875000">
        <ele>549.40</ele>
        <time>2015-01-17T09:50:09Z</time>
      </trkpt>
      <trkpt lat="42.406990000" lon="-2.701840000">
        <ele>549.50</ele>
        <time>2015-01-17T09:50:10Z</time>
      </trkpt>
      <trkpt lat="42.406977000" lon="-2.701804000">
        <ele>549.60</ele>
        <time>2015-01-17T09:50:11Z</time>
      </trkpt>
      <trkpt lat="42.406964000" lon="-2.701764000">
        <ele>549.70</ele>
        <time>2015-01-17T09:50:12Z</time>
      </trkpt>
      <trkpt lat="42.406948000" lon="-2.701725000">
        <ele>549.70</ele>
        <time>2015-01-17T09:50:13Z</time>
      </trkpt>
      <trkpt lat="42.406930000" lon="-2.701687000">
        <ele>549.70</ele>
        <time>2015-01-17T09:50:14Z</time>
      </trkpt>
      <trkpt lat="42.406914000" lon="-2.701652000">
        <ele>549.80</ele>
        <time>2015-01-17T09:50:15Z</time>
      </trkpt>
      <trkpt lat="42.406897000" lon="-2.701617000">
        <ele>549.80</ele>
        <time>2015-01-17T09:50:16Z</time>
      </trkpt>
      <trkpt lat="42.406879000" lon="-2.701578000">
        <ele>549.80</ele>
        <time>2015-01-17T09:50:17Z</time>
      </trkpt>
      <trkpt lat="42.406859000" lon="-2.701538000">
        <ele>549.80</ele>
        <time>2015-01-17T09:50:18Z</time>
      </trkpt>
      <trkpt lat="42.406822000" lon="-2.701450000">
        <ele>549.80</ele>
        <time>2015-01-17T09:50:20Z</time>
      </trkpt>
      <trkpt lat="42.406804000" lon="-2.701408000">
        <ele>549.70</ele>
        <time>2015-01-17T09:50:21Z</time>
      </trkpt>
      <trkpt lat="42.406788000" lon="-2.701368000">
        <ele>549.60</ele>
        <time>2015-01-17T09:50:22Z</time>
      </trkpt>
      <trkpt lat="42.406773000" lon="-2.701327000">
        <ele>549.50</ele>
        <time>2015-01-17T09:50:23Z</time>
      </trkpt>
      <trkpt lat="42.406757000" lon="-2.701283000">
        <ele>549.50</ele>
        <time>2015-01-17T09:50:24Z</time>
      </trkpt>
      <trkpt lat="42.406742000" lon="-2.701238000">
        <ele>549.60</ele>
        <time>2015-01-17T09:50:25Z</time>
      </trkpt>
      <trkpt lat="42.406723000" lon="-2.701194000">
        <ele>549.70</ele>
        <time>2015-01-17T09:50:26Z</time>
      </trkpt>
      <trkpt lat="42.406705000" lon="-2.701150000">
        <ele>550.10</ele>
        <time>2015-01-17T09:50:27Z</time>
      </trkpt>
      <trkpt lat="42.406689000" lon="-2.701104000">
        <ele>550.40</ele>
        <time>2015-01-17T09:50:28Z</time>
      </trkpt>
      <trkpt lat="42.406673000" lon="-2.701060000">
        <ele>550.60</ele>
        <time>2015-01-17T09:50:29Z</time>
      </trkpt>
      <trkpt lat="42.406653000" lon="-2.701016000">
        <ele>550.80</ele>
        <time>2015-01-17T09:50:30Z</time>
      </trkpt>
      <trkpt lat="42.406636000" lon="-2.700974000">
        <ele>551.00</ele>
        <time>2015-01-17T09:50:31Z</time>
      </trkpt>
      <trkpt lat="42.406620000" lon="-2.700927000">
        <ele>551.10</ele>
        <time>2015-01-17T09:50:32Z</time>
      </trkpt>
      <trkpt lat="42.406603000" lon="-2.700879000">
        <ele>551.20</ele>
        <time>2015-01-17T09:50:33Z</time>
      </trkpt>
      <trkpt lat="42.406586000" lon="-2.700830000">
        <ele>551.30</ele>
        <time>2015-01-17T09:50:34Z</time>
      </trkpt>
      <trkpt lat="42.406568000" lon="-2.700781000">
        <ele>551.60</ele>
        <time>2015-01-17T09:50:35Z</time>
      </trkpt>
      <trkpt lat="42.406549000" lon="-2.700733000">
        <ele>551.80</ele>
        <time>2015-01-17T09:50:36Z</time>
      </trkpt>
      <trkpt lat="42.406530000" lon="-2.700685000">
        <ele>551.80</ele>
        <time>2015-01-17T09:50:37Z</time>
      </trkpt>
      <trkpt lat="42.406510000" lon="-2.700635000">
        <ele>551.80</ele>
        <time>2015-01-17T09:50:38Z</time>
      </trkpt>
      <trkpt lat="42.406495000" lon="-2.700581000">
        <ele>552.00</ele>
        <time>2015-01-17T09:50:39Z</time>
      </trkpt>
      <trkpt lat="42.406480000" lon="-2.700531000">
        <ele>552.10</ele>
        <time>2015-01-17T09:50:40Z</time>
      </trkpt>
      <trkpt lat="42.406465000" lon="-2.700483000">
        <ele>552.30</ele>
        <time>2015-01-17T09:50:41Z</time>
      </trkpt>
      <trkpt lat="42.406449000" lon="-2.700436000">
        <ele>552.40</ele>
        <time>2015-01-17T09:50:42Z</time>
      </trkpt>
      <trkpt lat="42.406436000" lon="-2.700391000">
        <ele>552.60</ele>
        <time>2015-01-17T09:50:43Z</time>
      </trkpt>
      <trkpt lat="42.406420000" lon="-2.700348000">
        <ele>552.80</ele>
        <time>2015-01-17T09:50:44Z</time>
      </trkpt>
      <trkpt lat="42.406408000" lon="-2.700303000">
        <ele>553.10</ele>
        <time>2015-01-17T09:50:45Z</time>
      </trkpt>
      <trkpt lat="42.406400000" lon="-2.700258000">
        <ele>553.30</ele>
        <time>2015-01-17T09:50:46Z</time>
      </trkpt>
      <trkpt lat="42.406387000" lon="-2.700216000">
        <ele>553.50</ele>
        <time>2015-01-17T09:50:47Z</time>
      </trkpt>
      <trkpt lat="42.406374000" lon="-2.700175000">
        <ele>553.60</ele>
        <time>2015-01-17T09:50:48Z</time>
      </trkpt>
      <trkpt lat="42.406362000" lon="-2.700134000">
        <ele>553.80</ele>
        <time>2015-01-17T09:50:49Z</time>
      </trkpt>
      <trkpt lat="42.406352000" lon="-2.700096000">
        <ele>553.90</ele>
        <time>2015-01-17T09:50:50Z</time>
      </trkpt>
      <trkpt lat="42.406343000" lon="-2.700055000">
        <ele>554.10</ele>
        <time>2015-01-17T09:50:51Z</time>
      </trkpt>
      <trkpt lat="42.406333000" lon="-2.700017000">
        <ele>554.20</ele>
        <time>2015-01-17T09:50:52Z</time>
      </trkpt>
      <trkpt lat="42.406322000" lon="-2.699978000">
        <ele>554.40</ele>
        <time>2015-01-17T09:50:53Z</time>
      </trkpt>
      <trkpt lat="42.406312000" lon="-2.699940000">
        <ele>554.40</ele>
        <time>2015-01-17T09:50:54Z</time>
      </trkpt>
      <trkpt lat="42.406301000" lon="-2.699907000">
        <ele>554.50</ele>
        <time>2015-01-17T09:50:55Z</time>
      </trkpt>
      <trkpt lat="42.406288000" lon="-2.699872000">
        <ele>554.60</ele>
        <time>2015-01-17T09:50:56Z</time>
      </trkpt>
      <trkpt lat="42.406274000" lon="-2.699838000">
        <ele>554.60</ele>
        <time>2015-01-17T09:50:57Z</time>
      </trkpt>
      <trkpt lat="42.406259000" lon="-2.699804000">
        <ele>554.60</ele>
        <time>2015-01-17T09:50:58Z</time>
      </trkpt>
      <trkpt lat="42.406245000" lon="-2.699768000">
        <ele>554.80</ele>
        <time>2015-01-17T09:50:59Z</time>
      </trkpt>
      <trkpt lat="42.406230000" lon="-2.699736000">
        <ele>554.90</ele>
        <time>2015-01-17T09:51:00Z</time>
      </trkpt>
      <trkpt lat="42.406215000" lon="-2.699706000">
        <ele>555.00</ele>
        <time>2015-01-17T09:51:01Z</time>
      </trkpt>
      <trkpt lat="42.406200000" lon="-2.699677000">
        <ele>555.10</ele>
        <time>2015-01-17T09:51:02Z</time>
      </trkpt>
      <trkpt lat="42.406184000" lon="-2.699647000">
        <ele>555.10</ele>
        <time>2015-01-17T09:51:03Z</time>
      </trkpt>
      <trkpt lat="42.406167000" lon="-2.699614000">
        <ele>555.10</ele>
        <time>2015-01-17T09:51:04Z</time>
      </trkpt>
      <trkpt lat="42.406151000" lon="-2.699580000">
        <ele>555.10</ele>
        <time>2015-01-17T09:51:05Z</time>
      </trkpt>
      <trkpt lat="42.406133000" lon="-2.699549000">
        <ele>555.10</ele>
        <time>2015-01-17T09:51:06Z</time>
      </trkpt>
      <trkpt lat="42.406117000" lon="-2.699521000">
        <ele>555.10</ele>
        <time>2015-01-17T09:51:07Z</time>
      </trkpt>
      <trkpt lat="42.406099000" lon="-2.699500000">
        <ele>555.10</ele>
        <time>2015-01-17T09:51:08Z</time>
      </trkpt>
      <trkpt lat="42.406082000" lon="-2.699486000">
        <ele>555.20</ele>
        <time>2015-01-17T09:51:09Z</time>
      </trkpt>
      <trkpt lat="42.406065000" lon="-2.699470000">
        <ele>555.30</ele>
        <time>2015-01-17T09:51:10Z</time>
      </trkpt>
      <trkpt lat="42.406051000" lon="-2.699448000">
        <ele>555.40</ele>
        <time>2015-01-17T09:51:11Z</time>
      </trkpt>
      <trkpt lat="42.406037000" lon="-2.699419000">
        <ele>555.50</ele>
        <time>2015-01-17T09:51:12Z</time>
      </trkpt>
      <trkpt lat="42.406021000" lon="-2.699386000">
        <ele>555.50</ele>
        <time>2015-01-17T09:51:13Z</time>
      </trkpt>
      <trkpt lat="42.406005000" lon="-2.699356000">
        <ele>555.60</ele>
        <time>2015-01-17T09:51:14Z</time>
      </trkpt>
      <trkpt lat="42.405986000" lon="-2.699323000">
        <ele>555.60</ele>
        <time>2015-01-17T09:51:15Z</time>
      </trkpt>
      <trkpt lat="42.405970000" lon="-2.699288000">
        <ele>555.60</ele>
        <time>2015-01-17T09:51:16Z</time>
      </trkpt>
      <trkpt lat="42.405953000" lon="-2.699253000">
        <ele>555.60</ele>
        <time>2015-01-17T09:51:17Z</time>
      </trkpt>
      <trkpt lat="42.405937000" lon="-2.699211000">
        <ele>555.70</ele>
        <time>2015-01-17T09:51:18Z</time>
      </trkpt>
      <trkpt lat="42.405921000" lon="-2.699171000">
        <ele>555.90</ele>
        <time>2015-01-17T09:51:19Z</time>
      </trkpt>
      <trkpt lat="42.405898000" lon="-2.699095000">
        <ele>556.20</ele>
        <time>2015-01-17T09:51:21Z</time>
      </trkpt>
      <trkpt lat="42.405886000" lon="-2.699055000">
        <ele>556.20</ele>
        <time>2015-01-17T09:51:22Z</time>
      </trkpt>
      <trkpt lat="42.405875000" lon="-2.699016000">
        <ele>556.20</ele>
        <time>2015-01-17T09:51:23Z</time>
      </trkpt>
      <trkpt lat="42.405863000" lon="-2.698978000">
        <ele>556.20</ele>
        <time>2015-01-17T09:51:24Z</time>
      </trkpt>
      <trkpt lat="42.405854000" lon="-2.698942000">
        <ele>556.20</ele>
        <time>2015-01-17T09:51:25Z</time>
      </trkpt>
      <trkpt lat="42.405845000" lon="-2.698906000">
        <ele>556.30</ele>
        <time>2015-01-17T09:51:26Z</time>
      </trkpt>
      <trkpt lat="42.405833000" lon="-2.698868000">
        <ele>556.20</ele>
        <time>2015-01-17T09:51:27Z</time>
      </trkpt>
      <trkpt lat="42.405823000" lon="-2.698830000">
        <ele>556.20</ele>
        <time>2015-01-17T09:51:28Z</time>
      </trkpt>
      <trkpt lat="42.405814000" lon="-2.698789000">
        <ele>556.20</ele>
        <time>2015-01-17T09:51:29Z</time>
      </trkpt>
      <trkpt lat="42.405803000" lon="-2.698751000">
        <ele>556.30</ele>
        <time>2015-01-17T09:51:30Z</time>
      </trkpt>
      <trkpt lat="42.405793000" lon="-2.698713000">
        <ele>556.70</ele>
        <time>2015-01-17T09:51:31Z</time>
      </trkpt>
      <trkpt lat="42.405779000" lon="-2.698669000">
        <ele>557.10</ele>
        <time>2015-01-17T09:51:32Z</time>
      </trkpt>
      <trkpt lat="42.405767000" lon="-2.698624000">
        <ele>557.30</ele>
        <time>2015-01-17T09:51:33Z</time>
      </trkpt>
      <trkpt lat="42.405753000" lon="-2.698577000">
        <ele>557.50</ele>
        <time>2015-01-17T09:51:34Z</time>
      </trkpt>
      <trkpt lat="42.405737000" lon="-2.698533000">
        <ele>557.60</ele>
        <time>2015-01-17T09:51:35Z</time>
      </trkpt>
      <trkpt lat="42.405723000" lon="-2.698487000">
        <ele>557.60</ele>
        <time>2015-01-17T09:51:36Z</time>
      </trkpt>
      <trkpt lat="42.405707000" lon="-2.698445000">
        <ele>557.60</ele>
        <time>2015-01-17T09:51:37Z</time>
      </trkpt>
      <trkpt lat="42.405690000" lon="-2.698406000">
        <ele>557.60</ele>
        <time>2015-01-17T09:51:38Z</time>
      </trkpt>
      <trkpt lat="42.405673000" lon="-2.698366000">
        <ele>557.60</ele>
        <time>2015-01-17T09:51:39Z</time>
      </trkpt>
      <trkpt lat="42.405656000" lon="-2.698330000">
        <ele>557.60</ele>
        <time>2015-01-17T09:51:40Z</time>
      </trkpt>
      <trkpt lat="42.405637000" lon="-2.698297000">
        <ele>557.80</ele>
        <time>2015-01-17T09:51:41Z</time>
      </trkpt>
      <trkpt lat="42.405618000" lon="-2.698267000">
        <ele>557.90</ele>
        <time>2015-01-17T09:51:42Z</time>
      </trkpt>
      <trkpt lat="42.405598000" lon="-2.698237000">
        <ele>558.00</ele>
        <time>2015-01-17T09:51:43Z</time>
      </trkpt>
      <trkpt lat="42.405579000" lon="-2.698200000">
        <ele>558.00</ele>
        <time>2015-01-17T09:51:44Z</time>
      </trkpt>
      <trkpt lat="42.405562000" lon="-2.698161000">
        <ele>558.20</ele>
        <time>2015-01-17T09:51:45Z</time>
      </trkpt>
      <trkpt lat="42.405546000" lon="-2.698122000">
        <ele>558.40</ele>
        <time>2015-01-17T09:51:46Z</time>
      </trkpt>
      <trkpt lat="42.405533000" lon="-2.698086000">
        <ele>558.60</ele>
        <time>2015-01-17T09:51:47Z</time>
      </trkpt>
      <trkpt lat="42.405523000" lon="-2.698047000">
        <ele>558.80</ele>
        <time>2015-01-17T09:51:48Z</time>
      </trkpt>
      <trkpt lat="42.405514000" lon="-2.698006000">
        <ele>558.90</ele>
        <time>2015-01-17T09:51:49Z</time>
      </trkpt>
      <trkpt lat="42.405502000" lon="-2.697962000">
        <ele>559.00</ele>
        <time>2015-01-17T09:51:50Z</time>
      </trkpt>
      <trkpt lat="42.405489000" lon="-2.697920000">
        <ele>559.20</ele>
        <time>2015-01-17T09:51:51Z</time>
      </trkpt>
      <trkpt lat="42.405475000" lon="-2.697881000">
        <ele>559.40</ele>
        <time>2015-01-17T09:51:52Z</time>
      </trkpt>
      <trkpt lat="42.405461000" lon="-2.697841000">
        <ele>559.50</ele>
        <time>2015-01-17T09:51:53Z</time>
      </trkpt>
      <trkpt lat="42.405451000" lon="-2.697802000">
        <ele>559.60</ele>
        <time>2015-01-17T09:51:54Z</time>
      </trkpt>
      <trkpt lat="42.405441000" lon="-2.697760000">
        <ele>559.70</ele>
        <time>2015-01-17T09:51:55Z</time>
      </trkpt>
      <trkpt lat="42.405429000" lon="-2.697717000">
        <ele>559.80</ele>
        <time>2015-01-17T09:51:56Z</time>
      </trkpt>
      <trkpt lat="42.405413000" lon="-2.697674000">
        <ele>560.00</ele>
        <time>2015-01-17T09:51:57Z</time>
      </trkpt>
      <trkpt lat="42.405401000" lon="-2.697630000">
        <ele>560.10</ele>
        <time>2015-01-17T09:51:58Z</time>
      </trkpt>
      <trkpt lat="42.405388000" lon="-2.697590000">
        <ele>560.30</ele>
        <time>2015-01-17T09:51:59Z</time>
      </trkpt>
      <trkpt lat="42.405376000" lon="-2.697552000">
        <ele>560.40</ele>
        <time>2015-01-17T09:52:00Z</time>
      </trkpt>
      <trkpt lat="42.405364000" lon="-2.697514000">
        <ele>560.50</ele>
        <time>2015-01-17T09:52:01Z</time>
      </trkpt>
      <trkpt lat="42.405352000" lon="-2.697474000">
        <ele>560.60</ele>
        <time>2015-01-17T09:52:02Z</time>
      </trkpt>
      <trkpt lat="42.405340000" lon="-2.697435000">
        <ele>560.60</ele>
        <time>2015-01-17T09:52:03Z</time>
      </trkpt>
      <trkpt lat="42.405329000" lon="-2.697396000">
        <ele>560.70</ele>
        <time>2015-01-17T09:52:04Z</time>
      </trkpt>
      <trkpt lat="42.405314000" lon="-2.697359000">
        <ele>560.70</ele>
        <time>2015-01-17T09:52:05Z</time>
      </trkpt>
      <trkpt lat="42.405299000" lon="-2.697319000">
        <ele>560.70</ele>
        <time>2015-01-17T09:52:06Z</time>
      </trkpt>
      <trkpt lat="42.405284000" lon="-2.697281000">
        <ele>560.80</ele>
        <time>2015-01-17T09:52:07Z</time>
      </trkpt>
      <trkpt lat="42.405271000" lon="-2.697241000">
        <ele>560.80</ele>
        <time>2015-01-17T09:52:08Z</time>
      </trkpt>
      <trkpt lat="42.405256000" lon="-2.697201000">
        <ele>560.90</ele>
        <time>2015-01-17T09:52:09Z</time>
      </trkpt>
      <trkpt lat="42.405242000" lon="-2.697162000">
        <ele>560.90</ele>
        <time>2015-01-17T09:52:10Z</time>
      </trkpt>
      <trkpt lat="42.405231000" lon="-2.697125000">
        <ele>561.00</ele>
        <time>2015-01-17T09:52:11Z</time>
      </trkpt>
      <trkpt lat="42.405220000" lon="-2.697089000">
        <ele>561.00</ele>
        <time>2015-01-17T09:52:12Z</time>
      </trkpt>
      <trkpt lat="42.405208000" lon="-2.697052000">
        <ele>561.20</ele>
        <time>2015-01-17T09:52:13Z</time>
      </trkpt>
      <trkpt lat="42.405196000" lon="-2.697018000">
        <ele>561.30</ele>
        <time>2015-01-17T09:52:14Z</time>
      </trkpt>
      <trkpt lat="42.405184000" lon="-2.696985000">
        <ele>561.40</ele>
        <time>2015-01-17T09:52:15Z</time>
      </trkpt>
      <trkpt lat="42.405175000" lon="-2.696950000">
        <ele>561.50</ele>
        <time>2015-01-17T09:52:16Z</time>
      </trkpt>
      <trkpt lat="42.405166000" lon="-2.696909000">
        <ele>561.50</ele>
        <time>2015-01-17T09:52:17Z</time>
      </trkpt>
      <trkpt lat="42.405154000" lon="-2.696869000">
        <ele>561.50</ele>
        <time>2015-01-17T09:52:18Z</time>
      </trkpt>
      <trkpt lat="42.405141000" lon="-2.696830000">
        <ele>561.50</ele>
        <time>2015-01-17T09:52:19Z</time>
      </trkpt>
      <trkpt lat="42.405127000" lon="-2.696791000">
        <ele>561.50</ele>
        <time>2015-01-17T09:52:20Z</time>
      </trkpt>
      <trkpt lat="42.405104000" lon="-2.696717000">
        <ele>561.50</ele>
        <time>2015-01-17T09:52:22Z</time>
      </trkpt>
      <trkpt lat="42.405095000" lon="-2.696676000">
        <ele>561.50</ele>
        <time>2015-01-17T09:52:23Z</time>
      </trkpt>
      <trkpt lat="42.405081000" lon="-2.696633000">
        <ele>561.50</ele>
        <time>2015-01-17T09:52:24Z</time>
      </trkpt>
      <trkpt lat="42.405069000" lon="-2.696588000">
        <ele>561.60</ele>
        <time>2015-01-17T09:52:25Z</time>
      </trkpt>
      <trkpt lat="42.405053000" lon="-2.696548000">
        <ele>561.60</ele>
        <time>2015-01-17T09:52:26Z</time>
      </trkpt>
      <trkpt lat="42.405040000" lon="-2.696509000">
        <ele>561.60</ele>
        <time>2015-01-17T09:52:27Z</time>
      </trkpt>
      <trkpt lat="42.405032000" lon="-2.696468000">
        <ele>561.70</ele>
        <time>2015-01-17T09:52:28Z</time>
      </trkpt>
      <trkpt lat="42.405022000" lon="-2.696432000">
        <ele>561.80</ele>
        <time>2015-01-17T09:52:29Z</time>
      </trkpt>
      <trkpt lat="42.405014000" lon="-2.696399000">
        <ele>561.90</ele>
        <time>2015-01-17T09:52:30Z</time>
      </trkpt>
      <trkpt lat="42.405008000" lon="-2.696375000">
        <ele>562.10</ele>
        <time>2015-01-17T09:52:31Z</time>
      </trkpt>
      <trkpt lat="42.405002000" lon="-2.696353000">
        <ele>562.20</ele>
        <time>2015-01-17T09:52:32Z</time>
      </trkpt>
      <trkpt lat="42.404999000" lon="-2.696333000">
        <ele>562.40</ele>
        <time>2015-01-17T09:52:33Z</time>
      </trkpt>
      <trkpt lat="42.404995000" lon="-2.696315000">
        <ele>562.60</ele>
        <time>2015-01-17T09:52:34Z</time>
      </trkpt>
      <trkpt lat="42.404994000" lon="-2.696305000">
        <ele>562.80</ele>
        <time>2015-01-17T09:52:35Z</time>
      </trkpt>
      <trkpt lat="42.404995000" lon="-2.696294000">
        <ele>563.00</ele>
        <time>2015-01-17T09:52:36Z</time>
      </trkpt>
      <trkpt lat="42.404995000" lon="-2.696285000">
        <ele>563.10</ele>
        <time>2015-01-17T09:52:37Z</time>
      </trkpt>
      <trkpt lat="42.404995000" lon="-2.696278000">
        <ele>563.20</ele>
        <time>2015-01-17T09:52:38Z</time>
      </trkpt>
      <trkpt lat="42.404993000" lon="-2.696275000">
        <ele>563.10</ele>
        <time>2015-01-17T09:52:39Z</time>
      </trkpt>
      <trkpt lat="42.404987000" lon="-2.696270000">
        <ele>563.10</ele>
        <time>2015-01-17T09:52:40Z</time>
      </trkpt>
      <trkpt lat="42.404985000" lon="-2.696274000">
        <ele>563.10</ele>
        <time>2015-01-17T09:52:41Z</time>
      </trkpt>
      <trkpt lat="42.404983000" lon="-2.696274000">
        <ele>563.00</ele>
        <time>2015-01-17T09:52:42Z</time>
      </trkpt>
      <trkpt lat="42.404983000" lon="-2.696268000">
        <ele>563.10</ele>
        <time>2015-01-17T09:52:43Z</time>
      </trkpt>
      <trkpt lat="42.404985000" lon="-2.696269000">
        <ele>563.10</ele>
        <time>2015-01-17T09:52:44Z</time>
      </trkpt>
      <trkpt lat="42.404987000" lon="-2.696274000">
        <ele>563.10</ele>
        <time>2015-01-17T09:52:45Z</time>
      </trkpt>
      <trkpt lat="42.404992000" lon="-2.696279000">
        <ele>563.10</ele>
        <time>2015-01-17T09:52:46Z</time>
      </trkpt>
      <trkpt lat="42.404991000" lon="-2.696278000">
        <ele>563.10</ele>
        <time>2015-01-17T09:52:47Z</time>
      </trkpt>
      <trkpt lat="42.404988000" lon="-2.696277000">
        <ele>563.10</ele>
        <time>2015-01-17T09:52:48Z</time>
      </trkpt>
      <trkpt lat="42.404986000" lon="-2.696275000">
        <ele>563.10</ele>
        <time>2015-01-17T09:52:49Z</time>
      </trkpt>
      <trkpt lat="42.404982000" lon="-2.696270000">
        <ele>563.00</ele>
        <time>2015-01-17T09:52:50Z</time>
      </trkpt>
      <trkpt lat="42.404978000" lon="-2.696270000">
        <ele>563.00</ele>
        <time>2015-01-17T09:52:51Z</time>
      </trkpt>
      <trkpt lat="42.404972000" lon="-2.696265000">
        <ele>563.00</ele>
        <time>2015-01-17T09:52:52Z</time>
      </trkpt>
      <trkpt lat="42.404968000" lon="-2.696264000">
        <ele>563.00</ele>
        <time>2015-01-17T09:52:53Z</time>
      </trkpt>
      <trkpt lat="42.404965000" lon="-2.696263000">
        <ele>562.90</ele>
        <time>2015-01-17T09:52:54Z</time>
      </trkpt>
      <trkpt lat="42.404965000" lon="-2.696264000">
        <ele>562.80</ele>
        <time>2015-01-17T09:52:55Z</time>
      </trkpt>
      <trkpt lat="42.404967000" lon="-2.696263000">
        <ele>562.70</ele>
        <time>2015-01-17T09:52:56Z</time>
      </trkpt>
      <trkpt lat="42.404972000" lon="-2.696263000">
        <ele>562.50</ele>
        <time>2015-01-17T09:52:57Z</time>
      </trkpt>
      <trkpt lat="42.404976000" lon="-2.696265000">
        <ele>562.40</ele>
        <time>2015-01-17T09:52:58Z</time>
      </trkpt>
      <trkpt lat="42.404979000" lon="-2.696262000">
        <ele>562.30</ele>
        <time>2015-01-17T09:52:59Z</time>
      </trkpt>
      <trkpt lat="42.404982000" lon="-2.696258000">
        <ele>562.20</ele>
        <time>2015-01-17T09:53:00Z</time>
      </trkpt>
      <trkpt lat="42.404983000" lon="-2.696258000">
        <ele>562.20</ele>
        <time>2015-01-17T09:53:01Z</time>
      </trkpt>
      <trkpt lat="42.404983000" lon="-2.696259000">
        <ele>562.20</ele>
        <time>2015-01-17T09:53:02Z</time>
      </trkpt>
      <trkpt lat="42.404981000" lon="-2.696259000">
        <ele>562.20</ele>
        <time>2015-01-17T09:53:03Z</time>
      </trkpt>
      <trkpt lat="42.404980000" lon="-2.696257000">
        <ele>562.20</ele>
        <time>2015-01-17T09:53:04Z</time>
      </trkpt>
      <trkpt lat="42.404980000" lon="-2.696255000">
        <ele>562.20</ele>
        <time>2015-01-17T09:53:05Z</time>
      </trkpt>
      <trkpt lat="42.404978000" lon="-2.696255000">
        <ele>562.20</ele>
        <time>2015-01-17T09:53:06Z</time>
      </trkpt>
      <trkpt lat="42.404975000" lon="-2.696255000">
        <ele>562.10</ele>
        <time>2015-01-17T09:53:07Z</time>
      </trkpt>
      <trkpt lat="42.404973000" lon="-2.696255000">
        <ele>562.00</ele>
        <time>2015-01-17T09:53:08Z</time>
      </trkpt>
      <trkpt lat="42.404972000" lon="-2.696255000">
        <ele>562.00</ele>
        <time>2015-01-17T09:53:09Z</time>
      </trkpt>
      <trkpt lat="42.404972000" lon="-2.696254000">
        <ele>561.90</ele>
        <time>2015-01-17T09:53:10Z</time>
      </trkpt>
      <trkpt lat="42.404971000" lon="-2.696255000">
        <ele>561.90</ele>
        <time>2015-01-17T09:53:11Z</time>
      </trkpt>
      <trkpt lat="42.404972000" lon="-2.696255000">
        <ele>561.80</ele>
        <time>2015-01-17T09:53:12Z</time>
      </trkpt>
      <trkpt lat="42.404972000" lon="-2.696248000">
        <ele>561.80</ele>
        <time>2015-01-17T09:53:13Z</time>
      </trkpt>
      <trkpt lat="42.404971000" lon="-2.696249000">
        <ele>561.80</ele>
        <time>2015-01-17T09:53:14Z</time>
      </trkpt>
      <trkpt lat="42.404968000" lon="-2.696248000">
        <ele>561.90</ele>
        <time>2015-01-17T09:53:15Z</time>
      </trkpt>
      <trkpt lat="42.404965000" lon="-2.696249000">
        <ele>561.90</ele>
        <time>2015-01-17T09:53:16Z</time>
      </trkpt>
      <trkpt lat="42.404961000" lon="-2.696249000">
        <ele>561.90</ele>
        <time>2015-01-17T09:53:17Z</time>
      </trkpt>
      <trkpt lat="42.404955000" lon="-2.696250000">
        <ele>561.90</ele>
        <time>2015-01-17T09:53:18Z</time>
      </trkpt>
      <trkpt lat="42.404954000" lon="-2.696252000">
        <ele>562.10</ele>
        <time>2015-01-17T09:53:19Z</time>
      </trkpt>
      <trkpt lat="42.404953000" lon="-2.696255000">
        <ele>562.20</ele>
        <time>2015-01-17T09:53:20Z</time>
      </trkpt>
      <trkpt lat="42.404951000" lon="-2.696260000">
        <ele>562.20</ele>
        <time>2015-01-17T09:53:21Z</time>
      </trkpt>
      <trkpt lat="42.404949000" lon="-2.696262000">
        <ele>562.20</ele>
        <time>2015-01-17T09:53:23Z</time>
      </trkpt>
      <trkpt lat="42.404950000" lon="-2.696263000">
        <ele>562.30</ele>
        <time>2015-01-17T09:53:24Z</time>
      </trkpt>
      <trkpt lat="42.404950000" lon="-2.696264000">
        <ele>562.40</ele>
        <time>2015-01-17T09:53:25Z</time>
      </trkpt>
      <trkpt lat="42.404951000" lon="-2.696263000">
        <ele>562.50</ele>
        <time>2015-01-17T09:53:26Z</time>
      </trkpt>
      <trkpt lat="42.404951000" lon="-2.696267000">
        <ele>562.60</ele>
        <time>2015-01-17T09:53:27Z</time>
      </trkpt>
      <trkpt lat="42.404953000" lon="-2.696268000">
        <ele>562.60</ele>
        <time>2015-01-17T09:53:28Z</time>
      </trkpt>
      <trkpt lat="42.404958000" lon="-2.696268000">
        <ele>562.50</ele>
        <time>2015-01-17T09:53:29Z</time>
      </trkpt>
      <trkpt lat="42.404962000" lon="-2.696269000">
        <ele>562.50</ele>
        <time>2015-01-17T09:53:30Z</time>
      </trkpt>
      <trkpt lat="42.404967000" lon="-2.696270000">
        <ele>562.40</ele>
        <time>2015-01-17T09:53:31Z</time>
      </trkpt>
      <trkpt lat="42.404972000" lon="-2.696272000">
        <ele>562.40</ele>
        <time>2015-01-17T09:53:32Z</time>
      </trkpt>
      <trkpt lat="42.404974000" lon="-2.696271000">
        <ele>562.40</ele>
        <time>2015-01-17T09:53:33Z</time>
      </trkpt>
      <trkpt lat="42.404977000" lon="-2.696272000">
        <ele>562.30</ele>
        <time>2015-01-17T09:53:34Z</time>
      </trkpt>
      <trkpt lat="42.404980000" lon="-2.696272000">
        <ele>562.30</ele>
        <time>2015-01-17T09:53:35Z</time>
      </trkpt>
      <trkpt lat="42.404981000" lon="-2.696271000">
        <ele>562.30</ele>
        <time>2015-01-17T09:53:36Z</time>
      </trkpt>
      <trkpt lat="42.404982000" lon="-2.696272000">
        <ele>562.30</ele>
        <time>2015-01-17T09:53:37Z</time>
      </trkpt>
      <trkpt lat="42.404984000" lon="-2.696272000">
        <ele>562.20</ele>
        <time>2015-01-17T09:53:38Z</time>
      </trkpt>
      <trkpt lat="42.404985000" lon="-2.696271000">
        <ele>562.30</ele>
        <time>2015-01-17T09:53:39Z</time>
      </trkpt>
      <trkpt lat="42.404987000" lon="-2.696272000">
        <ele>562.30</ele>
        <time>2015-01-17T09:53:40Z</time>
      </trkpt>
      <trkpt lat="42.404988000" lon="-2.696275000">
        <ele>562.30</ele>
        <time>2015-01-17T09:53:41Z</time>
      </trkpt>
      <trkpt lat="42.404990000" lon="-2.696277000">
        <ele>562.20</ele>
        <time>2015-01-17T09:53:42Z</time>
      </trkpt>
      <trkpt lat="42.404992000" lon="-2.696279000">
        <ele>562.30</ele>
        <time>2015-01-17T09:53:43Z</time>
      </trkpt>
      <trkpt lat="42.404992000" lon="-2.696282000">
        <ele>562.30</ele>
        <time>2015-01-17T09:53:44Z</time>
      </trkpt>
      <trkpt lat="42.404994000" lon="-2.696282000">
        <ele>562.30</ele>
        <time>2015-01-17T09:53:45Z</time>
      </trkpt>
      <trkpt lat="42.404992000" lon="-2.696285000">
        <ele>562.30</ele>
        <time>2015-01-17T09:53:46Z</time>
      </trkpt>
      <trkpt lat="42.404991000" lon="-2.696286000">
        <ele>562.20</ele>
        <time>2015-01-17T09:53:47Z</time>
      </trkpt>
      <trkpt lat="42.404994000" lon="-2.696291000">
        <ele>562.20</ele>
        <time>2015-01-17T09:53:48Z</time>
      </trkpt>
      <trkpt lat="42.404994000" lon="-2.696290000">
        <ele>562.20</ele>
        <time>2015-01-17T09:53:49Z</time>
      </trkpt>
      <trkpt lat="42.404993000" lon="-2.696291000">
        <ele>562.20</ele>
        <time>2015-01-17T09:53:50Z</time>
      </trkpt>
      <trkpt lat="42.404992000" lon="-2.696290000">
        <ele>562.20</ele>
        <time>2015-01-17T09:53:51Z</time>
      </trkpt>
      <trkpt lat="42.404992000" lon="-2.696288000">
        <ele>562.20</ele>
        <time>2015-01-17T09:53:52Z</time>
      </trkpt>
      <trkpt lat="42.404993000" lon="-2.696285000">
        <ele>562.20</ele>
        <time>2015-01-17T09:53:53Z</time>
      </trkpt>
      <trkpt lat="42.404993000" lon="-2.696283000">
        <ele>562.20</ele>
        <time>2015-01-17T09:53:54Z</time>
      </trkpt>
      <trkpt lat="42.404991000" lon="-2.696273000">
        <ele>562.20</ele>
        <time>2015-01-17T09:53:55Z</time>
      </trkpt>
      <trkpt lat="42.404979000" lon="-2.696253000">
        <ele>562.20</ele>
        <time>2015-01-17T09:53:56Z</time>
      </trkpt>
      <trkpt lat="42.404970000" lon="-2.696236000">
        <ele>562.20</ele>
        <time>2015-01-17T09:53:57Z</time>
      </trkpt>
      <trkpt lat="42.404963000" lon="-2.696215000">
        <ele>562.20</ele>
        <time>2015-01-17T09:53:58Z</time>
      </trkpt>
      <trkpt lat="42.404955000" lon="-2.696195000">
        <ele>562.20</ele>
        <time>2015-01-17T09:53:59Z</time>
      </trkpt>
      <trkpt lat="42.404945000" lon="-2.696171000">
        <ele>562.20</ele>
        <time>2015-01-17T09:54:00Z</time>
      </trkpt>
      <trkpt lat="42.404935000" lon="-2.696149000">
        <ele>562.30</ele>
        <time>2015-01-17T09:54:01Z</time>
      </trkpt>
      <trkpt lat="42.404927000" lon="-2.696125000">
        <ele>562.30</ele>
        <time>2015-01-17T09:54:02Z</time>
      </trkpt>
      <trkpt lat="42.404920000" lon="-2.696100000">
        <ele>562.30</ele>
        <time>2015-01-17T09:54:03Z</time>
      </trkpt>
      <trkpt lat="42.404912000" lon="-2.696071000">
        <ele>562.20</ele>
        <time>2015-01-17T09:54:04Z</time>
      </trkpt>
      <trkpt lat="42.404903000" lon="-2.696040000">
        <ele>562.20</ele>
        <time>2015-01-17T09:54:05Z</time>
      </trkpt>
      <trkpt lat="42.404892000" lon="-2.696007000">
        <ele>562.10</ele>
        <time>2015-01-17T09:54:06Z</time>
      </trkpt>
      <trkpt lat="42.404882000" lon="-2.695971000">
        <ele>562.10</ele>
        <time>2015-01-17T09:54:07Z</time>
      </trkpt>
      <trkpt lat="42.404869000" lon="-2.695931000">
        <ele>562.00</ele>
        <time>2015-01-17T09:54:08Z</time>
      </trkpt>
      <trkpt lat="42.404861000" lon="-2.695894000">
        <ele>562.10</ele>
        <time>2015-01-17T09:54:09Z</time>
      </trkpt>
      <trkpt lat="42.404851000" lon="-2.695852000">
        <ele>562.10</ele>
        <time>2015-01-17T09:54:10Z</time>
      </trkpt>
      <trkpt lat="42.404837000" lon="-2.695813000">
        <ele>562.30</ele>
        <time>2015-01-17T09:54:11Z</time>
      </trkpt>
      <trkpt lat="42.404824000" lon="-2.695768000">
        <ele>562.50</ele>
        <time>2015-01-17T09:54:12Z</time>
      </trkpt>
      <trkpt lat="42.404809000" lon="-2.695717000">
        <ele>562.60</ele>
        <time>2015-01-17T09:54:13Z</time>
      </trkpt>
      <trkpt lat="42.404795000" lon="-2.695663000">
        <ele>562.70</ele>
        <time>2015-01-17T09:54:14Z</time>
      </trkpt>
      <trkpt lat="42.404778000" lon="-2.695610000">
        <ele>562.90</ele>
        <time>2015-01-17T09:54:15Z</time>
      </trkpt>
      <trkpt lat="42.404764000" lon="-2.695557000">
        <ele>563.00</ele>
        <time>2015-01-17T09:54:16Z</time>
      </trkpt>
      <trkpt lat="42.404750000" lon="-2.695504000">
        <ele>563.00</ele>
        <time>2015-01-17T09:54:17Z</time>
      </trkpt>
      <trkpt lat="42.404741000" lon="-2.695449000">
        <ele>563.00</ele>
        <time>2015-01-17T09:54:18Z</time>
      </trkpt>
      <trkpt lat="42.404737000" lon="-2.695390000">
        <ele>563.10</ele>
        <time>2015-01-17T09:54:19Z</time>
      </trkpt>
      <trkpt lat="42.404738000" lon="-2.695333000">
        <ele>563.20</ele>
        <time>2015-01-17T09:54:20Z</time>
      </trkpt>
      <trkpt lat="42.404740000" lon="-2.695280000">
        <ele>563.20</ele>
        <time>2015-01-17T09:54:21Z</time>
      </trkpt>
      <trkpt lat="42.404744000" lon="-2.695230000">
        <ele>563.30</ele>
        <time>2015-01-17T09:54:22Z</time>
      </trkpt>
      <trkpt lat="42.404748000" lon="-2.695128000">
        <ele>563.70</ele>
        <time>2015-01-17T09:54:24Z</time>
      </trkpt>
      <trkpt lat="42.404754000" lon="-2.695076000">
        <ele>563.80</ele>
        <time>2015-01-17T09:54:25Z</time>
      </trkpt>
      <trkpt lat="42.404761000" lon="-2.695026000">
        <ele>563.80</ele>
        <time>2015-01-17T09:54:26Z</time>
      </trkpt>
      <trkpt lat="42.404768000" lon="-2.694977000">
        <ele>563.90</ele>
        <time>2015-01-17T09:54:27Z</time>
      </trkpt>
      <trkpt lat="42.404772000" lon="-2.694926000">
        <ele>564.00</ele>
        <time>2015-01-17T09:54:28Z</time>
      </trkpt>
      <trkpt lat="42.404775000" lon="-2.694874000">
        <ele>564.10</ele>
        <time>2015-01-17T09:54:29Z</time>
      </trkpt>
      <trkpt lat="42.404780000" lon="-2.694821000">
        <ele>564.10</ele>
        <time>2015-01-17T09:54:30Z</time>
      </trkpt>
      <trkpt lat="42.404785000" lon="-2.694769000">
        <ele>564.60</ele>
        <time>2015-01-17T09:54:31Z</time>
      </trkpt>
      <trkpt lat="42.404790000" lon="-2.694713000">
        <ele>564.90</ele>
        <time>2015-01-17T09:54:32Z</time>
      </trkpt>
      <trkpt lat="42.404795000" lon="-2.694661000">
        <ele>565.10</ele>
        <time>2015-01-17T09:54:33Z</time>
      </trkpt>
      <trkpt lat="42.404801000" lon="-2.694607000">
        <ele>565.30</ele>
        <time>2015-01-17T09:54:34Z</time>
      </trkpt>
      <trkpt lat="42.404807000" lon="-2.694553000">
        <ele>565.30</ele>
        <time>2015-01-17T09:54:35Z</time>
      </trkpt>
      <trkpt lat="42.404813000" lon="-2.694498000">
        <ele>565.20</ele>
        <time>2015-01-17T09:54:36Z</time>
      </trkpt>
      <trkpt lat="42.404819000" lon="-2.694444000">
        <ele>565.20</ele>
        <time>2015-01-17T09:54:37Z</time>
      </trkpt>
      <trkpt lat="42.404823000" lon="-2.694387000">
        <ele>565.20</ele>
        <time>2015-01-17T09:54:38Z</time>
      </trkpt>
      <trkpt lat="42.404827000" lon="-2.694329000">
        <ele>565.10</ele>
        <time>2015-01-17T09:54:39Z</time>
      </trkpt>
      <trkpt lat="42.404832000" lon="-2.694272000">
        <ele>565.10</ele>
        <time>2015-01-17T09:54:40Z</time>
      </trkpt>
      <trkpt lat="42.404839000" lon="-2.694214000">
        <ele>565.10</ele>
        <time>2015-01-17T09:54:41Z</time>
      </trkpt>
      <trkpt lat="42.404845000" lon="-2.694158000">
        <ele>565.10</ele>
        <time>2015-01-17T09:54:42Z</time>
      </trkpt>
      <trkpt lat="42.404852000" lon="-2.694104000">
        <ele>565.10</ele>
        <time>2015-01-17T09:54:43Z</time>
      </trkpt>
      <trkpt lat="42.404858000" lon="-2.694047000">
        <ele>565.20</ele>
        <time>2015-01-17T09:54:44Z</time>
      </trkpt>
      <trkpt lat="42.404867000" lon="-2.693993000">
        <ele>565.20</ele>
        <time>2015-01-17T09:54:45Z</time>
      </trkpt>
      <trkpt lat="42.404873000" lon="-2.693940000">
        <ele>565.20</ele>
        <time>2015-01-17T09:54:46Z</time>
      </trkpt>
      <trkpt lat="42.404881000" lon="-2.693890000">
        <ele>565.20</ele>
        <time>2015-01-17T09:54:47Z</time>
      </trkpt>
      <trkpt lat="42.404888000" lon="-2.693840000">
        <ele>565.30</ele>
        <time>2015-01-17T09:54:48Z</time>
      </trkpt>
      <trkpt lat="42.404897000" lon="-2.693790000">
        <ele>565.60</ele>
        <time>2015-01-17T09:54:49Z</time>
      </trkpt>
      <trkpt lat="42.404907000" lon="-2.693746000">
        <ele>565.90</ele>
        <time>2015-01-17T09:54:50Z</time>
      </trkpt>
      <trkpt lat="42.404915000" lon="-2.693719000">
        <ele>566.10</ele>
        <time>2015-01-17T09:54:51Z</time>
      </trkpt>
      <trkpt lat="42.404920000" lon="-2.693703000">
        <ele>566.30</ele>
        <time>2015-01-17T09:54:52Z</time>
      </trkpt>
      <trkpt lat="42.404921000" lon="-2.693699000">
        <ele>566.20</ele>
        <time>2015-01-17T09:54:53Z</time>
      </trkpt>
      <trkpt lat="42.404916000" lon="-2.693696000">
        <ele>566.10</ele>
        <time>2015-01-17T09:54:54Z</time>
      </trkpt>
      <trkpt lat="42.404917000" lon="-2.693699000">
        <ele>566.00</ele>
        <time>2015-01-17T09:54:55Z</time>
      </trkpt>
      <trkpt lat="42.404919000" lon="-2.693706000">
        <ele>565.90</ele>
        <time>2015-01-17T09:54:56Z</time>
      </trkpt>
      <trkpt lat="42.404914000" lon="-2.693716000">
        <ele>566.30</ele>
        <time>2015-01-17T09:54:57Z</time>
      </trkpt>
      <trkpt lat="42.404904000" lon="-2.693724000">
        <ele>566.60</ele>
        <time>2015-01-17T09:54:58Z</time>
      </trkpt>
      <trkpt lat="42.404893000" lon="-2.693724000">
        <ele>566.80</ele>
        <time>2015-01-17T09:54:59Z</time>
      </trkpt>
      <trkpt lat="42.404881000" lon="-2.693719000">
        <ele>566.90</ele>
        <time>2015-01-17T09:55:00Z</time>
      </trkpt>
      <trkpt lat="42.404865000" lon="-2.693714000">
        <ele>566.60</ele>
        <time>2015-01-17T09:55:01Z</time>
      </trkpt>
      <trkpt lat="42.404842000" lon="-2.693710000">
        <ele>566.40</ele>
        <time>2015-01-17T09:55:02Z</time>
      </trkpt>
      <trkpt lat="42.404815000" lon="-2.693709000">
        <ele>566.20</ele>
        <time>2015-01-17T09:55:03Z</time>
      </trkpt>
      <trkpt lat="42.404787000" lon="-2.693704000">
        <ele>566.10</ele>
        <time>2015-01-17T09:55:04Z</time>
      </trkpt>
      <trkpt lat="42.404753000" lon="-2.693699000">
        <ele>566.00</ele>
        <time>2015-01-17T09:55:05Z</time>
      </trkpt>
      <trkpt lat="42.404720000" lon="-2.693691000">
        <ele>565.90</ele>
        <time>2015-01-17T09:55:06Z</time>
      </trkpt>
      <trkpt lat="42.404682000" lon="-2.693681000">
        <ele>565.80</ele>
        <time>2015-01-17T09:55:07Z</time>
      </trkpt>
      <trkpt lat="42.404641000" lon="-2.693672000">
        <ele>565.80</ele>
        <time>2015-01-17T09:55:08Z</time>
      </trkpt>
      <trkpt lat="42.404601000" lon="-2.693669000">
        <ele>565.90</ele>
        <time>2015-01-17T09:55:09Z</time>
      </trkpt>
      <trkpt lat="42.404562000" lon="-2.693663000">
        <ele>566.00</ele>
        <time>2015-01-17T09:55:10Z</time>
      </trkpt>
      <trkpt lat="42.404526000" lon="-2.693656000">
        <ele>566.10</ele>
        <time>2015-01-17T09:55:11Z</time>
      </trkpt>
      <trkpt lat="42.404492000" lon="-2.693648000">
        <ele>566.20</ele>
        <time>2015-01-17T09:55:12Z</time>
      </trkpt>
      <trkpt lat="42.404458000" lon="-2.693641000">
        <ele>566.40</ele>
        <time>2015-01-17T09:55:13Z</time>
      </trkpt>
      <trkpt lat="42.404419000" lon="-2.693635000">
        <ele>566.60</ele>
        <time>2015-01-17T09:55:14Z</time>
      </trkpt>
      <trkpt lat="42.404380000" lon="-2.693631000">
        <ele>566.70</ele>
        <time>2015-01-17T09:55:15Z</time>
      </trkpt>
      <trkpt lat="42.404339000" lon="-2.693625000">
        <ele>566.80</ele>
        <time>2015-01-17T09:55:16Z</time>
      </trkpt>
      <trkpt lat="42.404302000" lon="-2.693619000">
        <ele>566.90</ele>
        <time>2015-01-17T09:55:17Z</time>
      </trkpt>
      <trkpt lat="42.404264000" lon="-2.693616000">
        <ele>567.00</ele>
        <time>2015-01-17T09:55:18Z</time>
      </trkpt>
      <trkpt lat="42.404224000" lon="-2.693614000">
        <ele>567.30</ele>
        <time>2015-01-17T09:55:19Z</time>
      </trkpt>
      <trkpt lat="42.404183000" lon="-2.693611000">
        <ele>567.50</ele>
        <time>2015-01-17T09:55:20Z</time>
      </trkpt>
      <trkpt lat="42.404142000" lon="-2.693606000">
        <ele>567.70</ele>
        <time>2015-01-17T09:55:21Z</time>
      </trkpt>
      <trkpt lat="42.404102000" lon="-2.693602000">
        <ele>567.80</ele>
        <time>2015-01-17T09:55:22Z</time>
      </trkpt>
      <trkpt lat="42.404063000" lon="-2.693593000">
        <ele>567.90</ele>
        <time>2015-01-17T09:55:23Z</time>
      </trkpt>
      <trkpt lat="42.403989000" lon="-2.693578000">
        <ele>568.00</ele>
        <time>2015-01-17T09:55:25Z</time>
      </trkpt>
      <trkpt lat="42.403953000" lon="-2.693575000">
        <ele>568.00</ele>
        <time>2015-01-17T09:55:26Z</time>
      </trkpt>
      <trkpt lat="42.403918000" lon="-2.693573000">
        <ele>568.10</ele>
        <time>2015-01-17T09:55:27Z</time>
      </trkpt>
      <trkpt lat="42.403883000" lon="-2.693569000">
        <ele>568.10</ele>
        <time>2015-01-17T09:55:28Z</time>
      </trkpt>
      <trkpt lat="42.403850000" lon="-2.693565000">
        <ele>568.10</ele>
        <time>2015-01-17T09:55:29Z</time>
      </trkpt>
      <trkpt lat="42.403815000" lon="-2.693560000">
        <ele>568.10</ele>
        <time>2015-01-17T09:55:30Z</time>
      </trkpt>
      <trkpt lat="42.403782000" lon="-2.693557000">
        <ele>568.20</ele>
        <time>2015-01-17T09:55:31Z</time>
      </trkpt>
      <trkpt lat="42.403753000" lon="-2.693555000">
        <ele>568.30</ele>
        <time>2015-01-17T09:55:32Z</time>
      </trkpt>
      <trkpt lat="42.403727000" lon="-2.693556000">
        <ele>568.30</ele>
        <time>2015-01-17T09:55:33Z</time>
      </trkpt>
      <trkpt lat="42.403704000" lon="-2.693554000">
        <ele>568.40</ele>
        <time>2015-01-17T09:55:34Z</time>
      </trkpt>
      <trkpt lat="42.403683000" lon="-2.693546000">
        <ele>568.50</ele>
        <time>2015-01-17T09:55:35Z</time>
      </trkpt>
      <trkpt lat="42.403671000" lon="-2.693531000">
        <ele>568.60</ele>
        <time>2015-01-17T09:55:36Z</time>
      </trkpt>
      <trkpt lat="42.403661000" lon="-2.693514000">
        <ele>568.70</ele>
        <time>2015-01-17T09:55:37Z</time>
      </trkpt>
      <trkpt lat="42.403656000" lon="-2.693498000">
        <ele>568.80</ele>
        <time>2015-01-17T09:55:38Z</time>
      </trkpt>
      <trkpt lat="42.403654000" lon="-2.693479000">
        <ele>568.90</ele>
        <time>2015-01-17T09:55:39Z</time>
      </trkpt>
      <trkpt lat="42.403658000" lon="-2.693455000">
        <ele>568.90</ele>
        <time>2015-01-17T09:55:40Z</time>
      </trkpt>
      <trkpt lat="42.403662000" lon="-2.693431000">
        <ele>569.10</ele>
        <time>2015-01-17T09:55:41Z</time>
      </trkpt>
      <trkpt lat="42.403669000" lon="-2.693406000">
        <ele>569.20</ele>
        <time>2015-01-17T09:55:42Z</time>
      </trkpt>
      <trkpt lat="42.403677000" lon="-2.693374000">
        <ele>569.20</ele>
        <time>2015-01-17T09:55:43Z</time>
      </trkpt>
      <trkpt lat="42.403688000" lon="-2.693344000">
        <ele>569.20</ele>
        <time>2015-01-17T09:55:44Z</time>
      </trkpt>
      <trkpt lat="42.403698000" lon="-2.693310000">
        <ele>569.20</ele>
        <time>2015-01-17T09:55:45Z</time>
      </trkpt>
      <trkpt lat="42.403707000" lon="-2.693274000">
        <ele>569.20</ele>
        <time>2015-01-17T09:55:46Z</time>
      </trkpt>
      <trkpt lat="42.403714000" lon="-2.693235000">
        <ele>569.20</ele>
        <time>2015-01-17T09:55:47Z</time>
      </trkpt>
      <trkpt lat="42.403722000" lon="-2.693199000">
        <ele>569.10</ele>
        <time>2015-01-17T09:55:48Z</time>
      </trkpt>
      <trkpt lat="42.403731000" lon="-2.693160000">
        <ele>569.10</ele>
        <time>2015-01-17T09:55:49Z</time>
      </trkpt>
      <trkpt lat="42.403739000" lon="-2.693117000">
        <ele>569.10</ele>
        <time>2015-01-17T09:55:50Z</time>
      </trkpt>
      <trkpt lat="42.403747000" lon="-2.693072000">
        <ele>569.10</ele>
        <time>2015-01-17T09:55:51Z</time>
      </trkpt>
      <trkpt lat="42.403755000" lon="-2.693026000">
        <ele>569.20</ele>
        <time>2015-01-17T09:55:52Z</time>
      </trkpt>
      <trkpt lat="42.403765000" lon="-2.692979000">
        <ele>569.20</ele>
        <time>2015-01-17T09:55:53Z</time>
      </trkpt>
      <trkpt lat="42.403775000" lon="-2.692928000">
        <ele>569.20</ele>
        <time>2015-01-17T09:55:54Z</time>
      </trkpt>
      <trkpt lat="42.403782000" lon="-2.692877000">
        <ele>569.20</ele>
        <time>2015-01-17T09:55:55Z</time>
      </trkpt>
      <trkpt lat="42.403788000" lon="-2.692828000">
        <ele>569.10</ele>
        <time>2015-01-17T09:55:56Z</time>
      </trkpt>
      <trkpt lat="42.403795000" lon="-2.692773000">
        <ele>569.00</ele>
        <time>2015-01-17T09:55:57Z</time>
      </trkpt>
      <trkpt lat="42.403798000" lon="-2.692721000">
        <ele>569.00</ele>
        <time>2015-01-17T09:55:58Z</time>
      </trkpt>
      <trkpt lat="42.403798000" lon="-2.692662000">
        <ele>568.60</ele>
        <time>2015-01-17T09:55:59Z</time>
      </trkpt>
      <trkpt lat="42.403794000" lon="-2.692598000">
        <ele>568.40</ele>
        <time>2015-01-17T09:56:00Z</time>
      </trkpt>
      <trkpt lat="42.403793000" lon="-2.692533000">
        <ele>568.10</ele>
        <time>2015-01-17T09:56:01Z</time>
      </trkpt>
      <trkpt lat="42.403787000" lon="-2.692468000">
        <ele>567.90</ele>
        <time>2015-01-17T09:56:02Z</time>
      </trkpt>
      <trkpt lat="42.403782000" lon="-2.692402000">
        <ele>567.60</ele>
        <time>2015-01-17T09:56:03Z</time>
      </trkpt>
      <trkpt lat="42.403780000" lon="-2.692344000">
        <ele>567.40</ele>
        <time>2015-01-17T09:56:04Z</time>
      </trkpt>
      <trkpt lat="42.403777000" lon="-2.692295000">
        <ele>567.20</ele>
        <time>2015-01-17T09:56:05Z</time>
      </trkpt>
      <trkpt lat="42.403777000" lon="-2.692250000">
        <ele>567.10</ele>
        <time>2015-01-17T09:56:06Z</time>
      </trkpt>
      <trkpt lat="42.403780000" lon="-2.692201000">
        <ele>566.90</ele>
        <time>2015-01-17T09:56:07Z</time>
      </trkpt>
      <trkpt lat="42.403782000" lon="-2.692152000">
        <ele>566.80</ele>
        <time>2015-01-17T09:56:08Z</time>
      </trkpt>
      <trkpt lat="42.403788000" lon="-2.692100000">
        <ele>566.60</ele>
        <time>2015-01-17T09:56:09Z</time>
      </trkpt>
      <trkpt lat="42.403788000" lon="-2.692055000">
        <ele>566.40</ele>
        <time>2015-01-17T09:56:10Z</time>
      </trkpt>
      <trkpt lat="42.403785000" lon="-2.692015000">
        <ele>566.10</ele>
        <time>2015-01-17T09:56:11Z</time>
      </trkpt>
      <trkpt lat="42.403781000" lon="-2.691979000">
        <ele>565.90</ele>
        <time>2015-01-17T09:56:12Z</time>
      </trkpt>
      <trkpt lat="42.403778000" lon="-2.691947000">
        <ele>565.70</ele>
        <time>2015-01-17T09:56:13Z</time>
      </trkpt>
      <trkpt lat="42.403776000" lon="-2.691911000">
        <ele>565.40</ele>
        <time>2015-01-17T09:56:14Z</time>
      </trkpt>
      <trkpt lat="42.403774000" lon="-2.691882000">
        <ele>565.20</ele>
        <time>2015-01-17T09:56:15Z</time>
      </trkpt>
      <trkpt lat="42.403768000" lon="-2.691858000">
        <ele>565.10</ele>
        <time>2015-01-17T09:56:16Z</time>
      </trkpt>
      <trkpt lat="42.403763000" lon="-2.691834000">
        <ele>565.00</ele>
        <time>2015-01-17T09:56:17Z</time>
      </trkpt>
      <trkpt lat="42.403760000" lon="-2.691814000">
        <ele>564.90</ele>
        <time>2015-01-17T09:56:18Z</time>
      </trkpt>
      <trkpt lat="42.403758000" lon="-2.691795000">
        <ele>564.70</ele>
        <time>2015-01-17T09:56:19Z</time>
      </trkpt>
      <trkpt lat="42.403759000" lon="-2.691785000">
        <ele>564.60</ele>
        <time>2015-01-17T09:56:20Z</time>
      </trkpt>
      <trkpt lat="42.403756000" lon="-2.691767000">
        <ele>564.40</ele>
        <time>2015-01-17T09:56:21Z</time>
      </trkpt>
      <trkpt lat="42.403760000" lon="-2.691762000">
        <ele>564.40</ele>
        <time>2015-01-17T09:56:22Z</time>
      </trkpt>
      <trkpt lat="42.403765000" lon="-2.691761000">
        <ele>564.20</ele>
        <time>2015-01-17T09:56:23Z</time>
      </trkpt>
      <trkpt lat="42.403770000" lon="-2.691755000">
        <ele>564.10</ele>
        <time>2015-01-17T09:56:24Z</time>
      </trkpt>
      <trkpt lat="42.403770000" lon="-2.691757000">
        <ele>563.90</ele>
        <time>2015-01-17T09:56:26Z</time>
      </trkpt>
      <trkpt lat="42.403766000" lon="-2.691754000">
        <ele>563.80</ele>
        <time>2015-01-17T09:56:27Z</time>
      </trkpt>
      <trkpt lat="42.403765000" lon="-2.691748000">
        <ele>563.80</ele>
        <time>2015-01-17T09:56:28Z</time>
      </trkpt>
      <trkpt lat="42.403760000" lon="-2.691744000">
        <ele>563.70</ele>
        <time>2015-01-17T09:56:29Z</time>
      </trkpt>
      <trkpt lat="42.403758000" lon="-2.691732000">
        <ele>563.70</ele>
        <time>2015-01-17T09:56:30Z</time>
      </trkpt>
      <trkpt lat="42.403759000" lon="-2.691714000">
        <ele>563.60</ele>
        <time>2015-01-17T09:56:31Z</time>
      </trkpt>
      <trkpt lat="42.403758000" lon="-2.691697000">
        <ele>563.50</ele>
        <time>2015-01-17T09:56:32Z</time>
      </trkpt>
      <trkpt lat="42.403758000" lon="-2.691671000">
        <ele>563.40</ele>
        <time>2015-01-17T09:56:33Z</time>
      </trkpt>
      <trkpt lat="42.403758000" lon="-2.691652000">
        <ele>563.30</ele>
        <time>2015-01-17T09:56:34Z</time>
      </trkpt>
      <trkpt lat="42.403764000" lon="-2.691632000">
        <ele>563.30</ele>
        <time>2015-01-17T09:56:35Z</time>
      </trkpt>
      <trkpt lat="42.403767000" lon="-2.691614000">
        <ele>563.30</ele>
        <time>2015-01-17T09:56:36Z</time>
      </trkpt>
      <trkpt lat="42.403771000" lon="-2.691597000">
        <ele>563.30</ele>
        <time>2015-01-17T09:56:37Z</time>
      </trkpt>
      <trkpt lat="42.403777000" lon="-2.691578000">
        <ele>563.30</ele>
        <time>2015-01-17T09:56:38Z</time>
      </trkpt>
      <trkpt lat="42.403784000" lon="-2.691561000">
        <ele>563.30</ele>
        <time>2015-01-17T09:56:39Z</time>
      </trkpt>
      <trkpt lat="42.403788000" lon="-2.691545000">
        <ele>563.30</ele>
        <time>2015-01-17T09:56:40Z</time>
      </trkpt>
      <trkpt lat="42.403795000" lon="-2.691533000">
        <ele>563.30</ele>
        <time>2015-01-17T09:56:41Z</time>
      </trkpt>
      <trkpt lat="42.403800000" lon="-2.691525000">
        <ele>563.20</ele>
        <time>2015-01-17T09:56:42Z</time>
      </trkpt>
      <trkpt lat="42.403807000" lon="-2.691509000">
        <ele>563.20</ele>
        <time>2015-01-17T09:56:43Z</time>
      </trkpt>
      <trkpt lat="42.403812000" lon="-2.691500000">
        <ele>563.20</ele>
        <time>2015-01-17T09:56:44Z</time>
      </trkpt>
      <trkpt lat="42.403820000" lon="-2.691488000">
        <ele>563.30</ele>
        <time>2015-01-17T09:56:45Z</time>
      </trkpt>
      <trkpt lat="42.403826000" lon="-2.691483000">
        <ele>563.40</ele>
        <time>2015-01-17T09:56:46Z</time>
      </trkpt>
      <trkpt lat="42.403835000" lon="-2.691475000">
        <ele>563.60</ele>
        <time>2015-01-17T09:56:47Z</time>
      </trkpt>
      <trkpt lat="42.403843000" lon="-2.691467000">
        <ele>563.70</ele>
        <time>2015-01-17T09:56:48Z</time>
      </trkpt>
      <trkpt lat="42.403853000" lon="-2.691457000">
        <ele>563.80</ele>
        <time>2015-01-17T09:56:49Z</time>
      </trkpt>
      <trkpt lat="42.403864000" lon="-2.691450000">
        <ele>563.80</ele>
        <time>2015-01-17T09:56:50Z</time>
      </trkpt>
      <trkpt lat="42.403873000" lon="-2.691443000">
        <ele>563.90</ele>
        <time>2015-01-17T09:56:51Z</time>
      </trkpt>
      <trkpt lat="42.403886000" lon="-2.691435000">
        <ele>563.90</ele>
        <time>2015-01-17T09:56:52Z</time>
      </trkpt>
      <trkpt lat="42.403895000" lon="-2.691424000">
        <ele>564.00</ele>
        <time>2015-01-17T09:56:53Z</time>
      </trkpt>
      <trkpt lat="42.403909000" lon="-2.691417000">
        <ele>564.00</ele>
        <time>2015-01-17T09:56:54Z</time>
      </trkpt>
      <trkpt lat="42.403923000" lon="-2.691409000">
        <ele>564.00</ele>
        <time>2015-01-17T09:56:55Z</time>
      </trkpt>
      <trkpt lat="42.403940000" lon="-2.691396000">
        <ele>564.00</ele>
        <time>2015-01-17T09:56:56Z</time>
      </trkpt>
      <trkpt lat="42.403955000" lon="-2.691383000">
        <ele>564.00</ele>
        <time>2015-01-17T09:56:57Z</time>
      </trkpt>
      <trkpt lat="42.403969000" lon="-2.691370000">
        <ele>564.00</ele>
        <time>2015-01-17T09:56:58Z</time>
      </trkpt>
      <trkpt lat="42.403985000" lon="-2.691356000">
        <ele>564.20</ele>
        <time>2015-01-17T09:56:59Z</time>
      </trkpt>
      <trkpt lat="42.404002000" lon="-2.691342000">
        <ele>564.40</ele>
        <time>2015-01-17T09:57:00Z</time>
      </trkpt>
      <trkpt lat="42.404020000" lon="-2.691328000">
        <ele>564.50</ele>
        <time>2015-01-17T09:57:01Z</time>
      </trkpt>
      <trkpt lat="42.404038000" lon="-2.691315000">
        <ele>564.60</ele>
        <time>2015-01-17T09:57:02Z</time>
      </trkpt>
      <trkpt lat="42.404056000" lon="-2.691301000">
        <ele>564.60</ele>
        <time>2015-01-17T09:57:03Z</time>
      </trkpt>
      <trkpt lat="42.404074000" lon="-2.691284000">
        <ele>564.70</ele>
        <time>2015-01-17T09:57:04Z</time>
      </trkpt>
      <trkpt lat="42.404093000" lon="-2.691267000">
        <ele>564.70</ele>
        <time>2015-01-17T09:57:05Z</time>
      </trkpt>
      <trkpt lat="42.404110000" lon="-2.691256000">
        <ele>564.70</ele>
        <time>2015-01-17T09:57:06Z</time>
      </trkpt>
      <trkpt lat="42.404125000" lon="-2.691241000">
        <ele>564.70</ele>
        <time>2015-01-17T09:57:07Z</time>
      </trkpt>
      <trkpt lat="42.404140000" lon="-2.691228000">
        <ele>564.70</ele>
        <time>2015-01-17T09:57:08Z</time>
      </trkpt>
      <trkpt lat="42.404156000" lon="-2.691215000">
        <ele>564.70</ele>
        <time>2015-01-17T09:57:09Z</time>
      </trkpt>
      <trkpt lat="42.404174000" lon="-2.691206000">
        <ele>564.70</ele>
        <time>2015-01-17T09:57:10Z</time>
      </trkpt>
      <trkpt lat="42.404191000" lon="-2.691195000">
        <ele>564.70</ele>
        <time>2015-01-17T09:57:11Z</time>
      </trkpt>
      <trkpt lat="42.404209000" lon="-2.691175000">
        <ele>564.70</ele>
        <time>2015-01-17T09:57:12Z</time>
      </trkpt>
      <trkpt lat="42.404228000" lon="-2.691156000">
        <ele>564.80</ele>
        <time>2015-01-17T09:57:13Z</time>
      </trkpt>
      <trkpt lat="42.404241000" lon="-2.691130000">
        <ele>564.80</ele>
        <time>2015-01-17T09:57:14Z</time>
      </trkpt>
      <trkpt lat="42.404260000" lon="-2.691106000">
        <ele>564.90</ele>
        <time>2015-01-17T09:57:15Z</time>
      </trkpt>
      <trkpt lat="42.404276000" lon="-2.691082000">
        <ele>564.90</ele>
        <time>2015-01-17T09:57:16Z</time>
      </trkpt>
      <trkpt lat="42.404291000" lon="-2.691055000">
        <ele>564.90</ele>
        <time>2015-01-17T09:57:17Z</time>
      </trkpt>
      <trkpt lat="42.404309000" lon="-2.691028000">
        <ele>564.90</ele>
        <time>2015-01-17T09:57:18Z</time>
      </trkpt>
      <trkpt lat="42.404328000" lon="-2.691002000">
        <ele>564.70</ele>
        <time>2015-01-17T09:57:19Z</time>
      </trkpt>
      <trkpt lat="42.404342000" lon="-2.690974000">
        <ele>564.60</ele>
        <time>2015-01-17T09:57:20Z</time>
      </trkpt>
      <trkpt lat="42.404357000" lon="-2.690946000">
        <ele>564.50</ele>
        <time>2015-01-17T09:57:21Z</time>
      </trkpt>
      <trkpt lat="42.404369000" lon="-2.690920000">
        <ele>564.40</ele>
        <time>2015-01-17T09:57:22Z</time>
      </trkpt>
      <trkpt lat="42.404378000" lon="-2.690891000">
        <ele>564.60</ele>
        <time>2015-01-17T09:57:23Z</time>
      </trkpt>
      <trkpt lat="42.404393000" lon="-2.690861000">
        <ele>564.80</ele>
        <time>2015-01-17T09:57:24Z</time>
      </trkpt>
      <trkpt lat="42.404406000" lon="-2.690832000">
        <ele>565.00</ele>
        <time>2015-01-17T09:57:25Z</time>
      </trkpt>
      <trkpt lat="42.404430000" lon="-2.690761000">
        <ele>565.40</ele>
        <time>2015-01-17T09:57:27Z</time>
      </trkpt>
      <trkpt lat="42.404440000" lon="-2.690721000">
        <ele>565.60</ele>
        <time>2015-01-17T09:57:28Z</time>
      </trkpt>
      <trkpt lat="42.404450000" lon="-2.690683000">
        <ele>566.00</ele>
        <time>2015-01-17T09:57:29Z</time>
      </trkpt>
      <trkpt lat="42.404461000" lon="-2.690647000">
        <ele>566.30</ele>
        <time>2015-01-17T09:57:30Z</time>
      </trkpt>
      <trkpt lat="42.404467000" lon="-2.690608000">
        <ele>566.90</ele>
        <time>2015-01-17T09:57:31Z</time>
      </trkpt>
      <trkpt lat="42.404479000" lon="-2.690569000">
        <ele>567.40</ele>
        <time>2015-01-17T09:57:32Z</time>
      </trkpt>
      <trkpt lat="42.404493000" lon="-2.690533000">
        <ele>567.80</ele>
        <time>2015-01-17T09:57:33Z</time>
      </trkpt>
      <trkpt lat="42.404508000" lon="-2.690496000">
        <ele>568.00</ele>
        <time>2015-01-17T09:57:34Z</time>
      </trkpt>
      <trkpt lat="42.404524000" lon="-2.690465000">
        <ele>568.40</ele>
        <time>2015-01-17T09:57:35Z</time>
      </trkpt>
      <trkpt lat="42.404540000" lon="-2.690433000">
        <ele>568.70</ele>
        <time>2015-01-17T09:57:36Z</time>
      </trkpt>
      <trkpt lat="42.404557000" lon="-2.690402000">
        <ele>569.10</ele>
        <time>2015-01-17T09:57:37Z</time>
      </trkpt>
      <trkpt lat="42.404568000" lon="-2.690378000">
        <ele>569.40</ele>
        <time>2015-01-17T09:57:38Z</time>
      </trkpt>
      <trkpt lat="42.404580000" lon="-2.690352000">
        <ele>569.80</ele>
        <time>2015-01-17T09:57:39Z</time>
      </trkpt>
      <trkpt lat="42.404592000" lon="-2.690329000">
        <ele>570.10</ele>
        <time>2015-01-17T09:57:40Z</time>
      </trkpt>
      <trkpt lat="42.404603000" lon="-2.690301000">
        <ele>570.40</ele>
        <time>2015-01-17T09:57:41Z</time>
      </trkpt>
      <trkpt lat="42.404615000" lon="-2.690276000">
        <ele>570.70</ele>
        <time>2015-01-17T09:57:42Z</time>
      </trkpt>
      <trkpt lat="42.404625000" lon="-2.690251000">
        <ele>570.90</ele>
        <time>2015-01-17T09:57:43Z</time>
      </trkpt>
      <trkpt lat="42.404637000" lon="-2.690223000">
        <ele>571.10</ele>
        <time>2015-01-17T09:57:44Z</time>
      </trkpt>
      <trkpt lat="42.404645000" lon="-2.690199000">
        <ele>571.20</ele>
        <time>2015-01-17T09:57:45Z</time>
      </trkpt>
      <trkpt lat="42.404653000" lon="-2.690170000">
        <ele>571.30</ele>
        <time>2015-01-17T09:57:46Z</time>
      </trkpt>
      <trkpt lat="42.404663000" lon="-2.690146000">
        <ele>571.40</ele>
        <time>2015-01-17T09:57:47Z</time>
      </trkpt>
      <trkpt lat="42.404671000" lon="-2.690121000">
        <ele>571.50</ele>
        <time>2015-01-17T09:57:48Z</time>
      </trkpt>
      <trkpt lat="42.404678000" lon="-2.690094000">
        <ele>571.70</ele>
        <time>2015-01-17T09:57:49Z</time>
      </trkpt>
      <trkpt lat="42.404683000" lon="-2.690070000">
        <ele>571.90</ele>
        <time>2015-01-17T09:57:50Z</time>
      </trkpt>
      <trkpt lat="42.404691000" lon="-2.690040000">
        <ele>572.10</ele>
        <time>2015-01-17T09:57:51Z</time>
      </trkpt>
      <trkpt lat="42.404694000" lon="-2.690017000">
        <ele>572.20</ele>
        <time>2015-01-17T09:57:52Z</time>
      </trkpt>
      <trkpt lat="42.404699000" lon="-2.689988000">
        <ele>572.10</ele>
        <time>2015-01-17T09:57:53Z</time>
      </trkpt>
      <trkpt lat="42.404705000" lon="-2.689963000">
        <ele>572.10</ele>
        <time>2015-01-17T09:57:54Z</time>
      </trkpt>
      <trkpt lat="42.404705000" lon="-2.689934000">
        <ele>572.10</ele>
        <time>2015-01-17T09:57:55Z</time>
      </trkpt>
      <trkpt lat="42.404705000" lon="-2.689909000">
        <ele>572.10</ele>
        <time>2015-01-17T09:57:56Z</time>
      </trkpt>
      <trkpt lat="42.404706000" lon="-2.689879000">
        <ele>572.20</ele>
        <time>2015-01-17T09:57:57Z</time>
      </trkpt>
      <trkpt lat="42.404709000" lon="-2.689848000">
        <ele>572.30</ele>
        <time>2015-01-17T09:57:58Z</time>
      </trkpt>
      <trkpt lat="42.404708000" lon="-2.689817000">
        <ele>572.50</ele>
        <time>2015-01-17T09:57:59Z</time>
      </trkpt>
      <trkpt lat="42.404705000" lon="-2.689780000">
        <ele>572.70</ele>
        <time>2015-01-17T09:58:00Z</time>
      </trkpt>
      <trkpt lat="42.404702000" lon="-2.689748000">
        <ele>572.90</ele>
        <time>2015-01-17T09:58:01Z</time>
      </trkpt>
      <trkpt lat="42.404702000" lon="-2.689714000">
        <ele>573.00</ele>
        <time>2015-01-17T09:58:02Z</time>
      </trkpt>
      <trkpt lat="42.404700000" lon="-2.689678000">
        <ele>573.20</ele>
        <time>2015-01-17T09:58:03Z</time>
      </trkpt>
      <trkpt lat="42.404700000" lon="-2.689643000">
        <ele>573.40</ele>
        <time>2015-01-17T09:58:04Z</time>
      </trkpt>
      <trkpt lat="42.404701000" lon="-2.689606000">
        <ele>573.60</ele>
        <time>2015-01-17T09:58:05Z</time>
      </trkpt>
      <trkpt lat="42.404707000" lon="-2.689569000">
        <ele>573.70</ele>
        <time>2015-01-17T09:58:06Z</time>
      </trkpt>
      <trkpt lat="42.404714000" lon="-2.689534000">
        <ele>573.80</ele>
        <time>2015-01-17T09:58:07Z</time>
      </trkpt>
      <trkpt lat="42.404724000" lon="-2.689496000">
        <ele>573.80</ele>
        <time>2015-01-17T09:58:08Z</time>
      </trkpt>
      <trkpt lat="42.404736000" lon="-2.689461000">
        <ele>573.80</ele>
        <time>2015-01-17T09:58:09Z</time>
      </trkpt>
      <trkpt lat="42.404748000" lon="-2.689430000">
        <ele>573.80</ele>
        <time>2015-01-17T09:58:10Z</time>
      </trkpt>
      <trkpt lat="42.404759000" lon="-2.689395000">
        <ele>573.70</ele>
        <time>2015-01-17T09:58:11Z</time>
      </trkpt>
      <trkpt lat="42.404769000" lon="-2.689363000">
        <ele>573.60</ele>
        <time>2015-01-17T09:58:12Z</time>
      </trkpt>
      <trkpt lat="42.404772000" lon="-2.689338000">
        <ele>573.60</ele>
        <time>2015-01-17T09:58:13Z</time>
      </trkpt>
      <trkpt lat="42.404774000" lon="-2.689313000">
        <ele>573.60</ele>
        <time>2015-01-17T09:58:14Z</time>
      </trkpt>
      <trkpt lat="42.404778000" lon="-2.689287000">
        <ele>573.60</ele>
        <time>2015-01-17T09:58:15Z</time>
      </trkpt>
      <trkpt lat="42.404783000" lon="-2.689259000">
        <ele>573.60</ele>
        <time>2015-01-17T09:58:16Z</time>
      </trkpt>
      <trkpt lat="42.404800000" lon="-2.689234000">
        <ele>573.70</ele>
        <time>2015-01-17T09:58:17Z</time>
      </trkpt>
      <trkpt lat="42.404818000" lon="-2.689207000">
        <ele>573.80</ele>
        <time>2015-01-17T09:58:18Z</time>
      </trkpt>
      <trkpt lat="42.404831000" lon="-2.689183000">
        <ele>573.80</ele>
        <time>2015-01-17T09:58:19Z</time>
      </trkpt>
      <trkpt lat="42.404842000" lon="-2.689158000">
        <ele>573.90</ele>
        <time>2015-01-17T09:58:20Z</time>
      </trkpt>
      <trkpt lat="42.404852000" lon="-2.689140000">
        <ele>573.90</ele>
        <time>2015-01-17T09:58:21Z</time>
      </trkpt>
      <trkpt lat="42.404863000" lon="-2.689127000">
        <ele>573.90</ele>
        <time>2015-01-17T09:58:22Z</time>
      </trkpt>
      <trkpt lat="42.404871000" lon="-2.689114000">
        <ele>573.80</ele>
        <time>2015-01-17T09:58:23Z</time>
      </trkpt>
      <trkpt lat="42.404883000" lon="-2.689097000">
        <ele>573.80</ele>
        <time>2015-01-17T09:58:24Z</time>
      </trkpt>
      <trkpt lat="42.404893000" lon="-2.689075000">
        <ele>573.80</ele>
        <time>2015-01-17T09:58:25Z</time>
      </trkpt>
      <trkpt lat="42.404910000" lon="-2.689052000">
        <ele>573.70</ele>
        <time>2015-01-17T09:58:26Z</time>
      </trkpt>
      <trkpt lat="42.404967000" lon="-2.689000000">
        <ele>573.70</ele>
        <time>2015-01-17T09:58:28Z</time>
      </trkpt>
      <trkpt lat="42.404988000" lon="-2.688961000">
        <ele>573.70</ele>
        <time>2015-01-17T09:58:29Z</time>
      </trkpt>
      <trkpt lat="42.404998000" lon="-2.688912000">
        <ele>573.70</ele>
        <time>2015-01-17T09:58:30Z</time>
      </trkpt>
      <trkpt lat="42.404995000" lon="-2.688861000">
        <ele>574.00</ele>
        <time>2015-01-17T09:58:31Z</time>
      </trkpt>
      <trkpt lat="42.404991000" lon="-2.688810000">
        <ele>574.20</ele>
        <time>2015-01-17T09:58:32Z</time>
      </trkpt>
      <trkpt lat="42.404988000" lon="-2.688760000">
        <ele>574.40</ele>
        <time>2015-01-17T09:58:33Z</time>
      </trkpt>
      <trkpt lat="42.404989000" lon="-2.688713000">
        <ele>574.50</ele>
        <time>2015-01-17T09:58:34Z</time>
      </trkpt>
      <trkpt lat="42.404990000" lon="-2.688665000">
        <ele>574.70</ele>
        <time>2015-01-17T09:58:35Z</time>
      </trkpt>
      <trkpt lat="42.404994000" lon="-2.688619000">
        <ele>574.80</ele>
        <time>2015-01-17T09:58:36Z</time>
      </trkpt>
      <trkpt lat="42.405000000" lon="-2.688575000">
        <ele>574.90</ele>
        <time>2015-01-17T09:58:37Z</time>
      </trkpt>
      <trkpt lat="42.405003000" lon="-2.688528000">
        <ele>574.90</ele>
        <time>2015-01-17T09:58:38Z</time>
      </trkpt>
      <trkpt lat="42.405004000" lon="-2.688481000">
        <ele>575.00</ele>
        <time>2015-01-17T09:58:39Z</time>
      </trkpt>
      <trkpt lat="42.405003000" lon="-2.688436000">
        <ele>575.00</ele>
        <time>2015-01-17T09:58:40Z</time>
      </trkpt>
      <trkpt lat="42.405003000" lon="-2.688389000">
        <ele>575.00</ele>
        <time>2015-01-17T09:58:41Z</time>
      </trkpt>
      <trkpt lat="42.405002000" lon="-2.688342000">
        <ele>575.10</ele>
        <time>2015-01-17T09:58:42Z</time>
      </trkpt>
      <trkpt lat="42.405005000" lon="-2.688296000">
        <ele>575.20</ele>
        <time>2015-01-17T09:58:43Z</time>
      </trkpt>
      <trkpt lat="42.405012000" lon="-2.688249000">
        <ele>575.30</ele>
        <time>2015-01-17T09:58:44Z</time>
      </trkpt>
      <trkpt lat="42.405017000" lon="-2.688203000">
        <ele>575.40</ele>
        <time>2015-01-17T09:58:45Z</time>
      </trkpt>
      <trkpt lat="42.405021000" lon="-2.688156000">
        <ele>575.40</ele>
        <time>2015-01-17T09:58:46Z</time>
      </trkpt>
      <trkpt lat="42.405024000" lon="-2.688109000">
        <ele>575.50</ele>
        <time>2015-01-17T09:58:47Z</time>
      </trkpt>
      <trkpt lat="42.405031000" lon="-2.688066000">
        <ele>575.60</ele>
        <time>2015-01-17T09:58:48Z</time>
      </trkpt>
      <trkpt lat="42.405035000" lon="-2.688021000">
        <ele>575.60</ele>
        <time>2015-01-17T09:58:49Z</time>
      </trkpt>
      <trkpt lat="42.405038000" lon="-2.687973000">
        <ele>575.60</ele>
        <time>2015-01-17T09:58:50Z</time>
      </trkpt>
      <trkpt lat="42.405036000" lon="-2.687923000">
        <ele>575.40</ele>
        <time>2015-01-17T09:58:51Z</time>
      </trkpt>
      <trkpt lat="42.405039000" lon="-2.687873000">
        <ele>575.30</ele>
        <time>2015-01-17T09:58:52Z</time>
      </trkpt>
      <trkpt lat="42.405040000" lon="-2.687822000">
        <ele>575.30</ele>
        <time>2015-01-17T09:58:53Z</time>
      </trkpt>
      <trkpt lat="42.405041000" lon="-2.687771000">
        <ele>575.20</ele>
        <time>2015-01-17T09:58:54Z</time>
      </trkpt>
      <trkpt lat="42.405044000" lon="-2.687718000">
        <ele>575.50</ele>
        <time>2015-01-17T09:58:55Z</time>
      </trkpt>
      <trkpt lat="42.405044000" lon="-2.687666000">
        <ele>575.70</ele>
        <time>2015-01-17T09:58:56Z</time>
      </trkpt>
      <trkpt lat="42.405044000" lon="-2.687619000">
        <ele>575.80</ele>
        <time>2015-01-17T09:58:57Z</time>
      </trkpt>
      <trkpt lat="42.405047000" lon="-2.687574000">
        <ele>575.90</ele>
        <time>2015-01-17T09:58:58Z</time>
      </trkpt>
      <trkpt lat="42.405051000" lon="-2.687527000">
        <ele>576.10</ele>
        <time>2015-01-17T09:58:59Z</time>
      </trkpt>
      <trkpt lat="42.405056000" lon="-2.687481000">
        <ele>576.30</ele>
        <time>2015-01-17T09:59:00Z</time>
      </trkpt>
      <trkpt lat="42.405060000" lon="-2.687435000">
        <ele>576.50</ele>
        <time>2015-01-17T09:59:01Z</time>
      </trkpt>
      <trkpt lat="42.405065000" lon="-2.687392000">
        <ele>576.60</ele>
        <time>2015-01-17T09:59:02Z</time>
      </trkpt>
      <trkpt lat="42.405067000" lon="-2.687349000">
        <ele>576.70</ele>
        <time>2015-01-17T09:59:03Z</time>
      </trkpt>
      <trkpt lat="42.405070000" lon="-2.687304000">
        <ele>576.80</ele>
        <time>2015-01-17T09:59:04Z</time>
      </trkpt>
      <trkpt lat="42.405067000" lon="-2.687258000">
        <ele>577.00</ele>
        <time>2015-01-17T09:59:05Z</time>
      </trkpt>
      <trkpt lat="42.405067000" lon="-2.687218000">
        <ele>577.10</ele>
        <time>2015-01-17T09:59:06Z</time>
      </trkpt>
      <trkpt lat="42.405067000" lon="-2.687173000">
        <ele>577.20</ele>
        <time>2015-01-17T09:59:07Z</time>
      </trkpt>
      <trkpt lat="42.405068000" lon="-2.687127000">
        <ele>577.30</ele>
        <time>2015-01-17T09:59:08Z</time>
      </trkpt>
      <trkpt lat="42.405070000" lon="-2.687081000">
        <ele>577.30</ele>
        <time>2015-01-17T09:59:09Z</time>
      </trkpt>
      <trkpt lat="42.405071000" lon="-2.687034000">
        <ele>577.40</ele>
        <time>2015-01-17T09:59:10Z</time>
      </trkpt>
      <trkpt lat="42.405070000" lon="-2.686989000">
        <ele>577.40</ele>
        <time>2015-01-17T09:59:11Z</time>
      </trkpt>
      <trkpt lat="42.405067000" lon="-2.686941000">
        <ele>577.50</ele>
        <time>2015-01-17T09:59:12Z</time>
      </trkpt>
      <trkpt lat="42.405066000" lon="-2.686892000">
        <ele>577.50</ele>
        <time>2015-01-17T09:59:13Z</time>
      </trkpt>
      <trkpt lat="42.405065000" lon="-2.686852000">
        <ele>577.50</ele>
        <time>2015-01-17T09:59:14Z</time>
      </trkpt>
      <trkpt lat="42.405083000" lon="-2.686819000">
        <ele>577.60</ele>
        <time>2015-01-17T09:59:15Z</time>
      </trkpt>
      <trkpt lat="42.405076000" lon="-2.686771000">
        <ele>577.70</ele>
        <time>2015-01-17T09:59:16Z</time>
      </trkpt>
      <trkpt lat="42.405070000" lon="-2.686721000">
        <ele>577.80</ele>
        <time>2015-01-17T09:59:17Z</time>
      </trkpt>
      <trkpt lat="42.405063000" lon="-2.686671000">
        <ele>577.80</ele>
        <time>2015-01-17T09:59:18Z</time>
      </trkpt>
      <trkpt lat="42.405060000" lon="-2.686623000">
        <ele>577.90</ele>
        <time>2015-01-17T09:59:19Z</time>
      </trkpt>
      <trkpt lat="42.405055000" lon="-2.686578000">
        <ele>578.00</ele>
        <time>2015-01-17T09:59:20Z</time>
      </trkpt>
      <trkpt lat="42.405050000" lon="-2.686528000">
        <ele>578.20</ele>
        <time>2015-01-17T09:59:21Z</time>
      </trkpt>
      <trkpt lat="42.405043000" lon="-2.686483000">
        <ele>578.40</ele>
        <time>2015-01-17T09:59:22Z</time>
      </trkpt>
      <trkpt lat="42.405034000" lon="-2.686440000">
        <ele>578.50</ele>
        <time>2015-01-17T09:59:23Z</time>
      </trkpt>
      <trkpt lat="42.405029000" lon="-2.686399000">
        <ele>578.70</ele>
        <time>2015-01-17T09:59:24Z</time>
      </trkpt>
      <trkpt lat="42.405022000" lon="-2.686355000">
        <ele>578.80</ele>
        <time>2015-01-17T09:59:25Z</time>
      </trkpt>
      <trkpt lat="42.405014000" lon="-2.686308000">
        <ele>578.80</ele>
        <time>2015-01-17T09:59:26Z</time>
      </trkpt>
      <trkpt lat="42.405004000" lon="-2.686261000">
        <ele>578.90</ele>
        <time>2015-01-17T09:59:27Z</time>
      </trkpt>
      <trkpt lat="42.404987000" lon="-2.686167000">
        <ele>578.90</ele>
        <time>2015-01-17T09:59:29Z</time>
      </trkpt>
      <trkpt lat="42.404978000" lon="-2.686120000">
        <ele>579.00</ele>
        <time>2015-01-17T09:59:30Z</time>
      </trkpt>
      <trkpt lat="42.404972000" lon="-2.686075000">
        <ele>579.20</ele>
        <time>2015-01-17T09:59:31Z</time>
      </trkpt>
      <trkpt lat="42.404964000" lon="-2.686034000">
        <ele>579.30</ele>
        <time>2015-01-17T09:59:32Z</time>
      </trkpt>
      <trkpt lat="42.404955000" lon="-2.685990000">
        <ele>579.50</ele>
        <time>2015-01-17T09:59:33Z</time>
      </trkpt>
      <trkpt lat="42.404946000" lon="-2.685949000">
        <ele>579.70</ele>
        <time>2015-01-17T09:59:34Z</time>
      </trkpt>
      <trkpt lat="42.404936000" lon="-2.685906000">
        <ele>579.80</ele>
        <time>2015-01-17T09:59:35Z</time>
      </trkpt>
      <trkpt lat="42.404929000" lon="-2.685859000">
        <ele>579.90</ele>
        <time>2015-01-17T09:59:36Z</time>
      </trkpt>
      <trkpt lat="42.404923000" lon="-2.685815000">
        <ele>579.90</ele>
        <time>2015-01-17T09:59:37Z</time>
      </trkpt>
      <trkpt lat="42.404916000" lon="-2.685770000">
        <ele>580.00</ele>
        <time>2015-01-17T09:59:38Z</time>
      </trkpt>
      <trkpt lat="42.404909000" lon="-2.685728000">
        <ele>580.00</ele>
        <time>2015-01-17T09:59:39Z</time>
      </trkpt>
      <trkpt lat="42.404900000" lon="-2.685687000">
        <ele>580.00</ele>
        <time>2015-01-17T09:59:40Z</time>
      </trkpt>
      <trkpt lat="42.404890000" lon="-2.685643000">
        <ele>580.20</ele>
        <time>2015-01-17T09:59:41Z</time>
      </trkpt>
      <trkpt lat="42.404881000" lon="-2.685598000">
        <ele>580.30</ele>
        <time>2015-01-17T09:59:42Z</time>
      </trkpt>
      <trkpt lat="42.404870000" lon="-2.685555000">
        <ele>580.40</ele>
        <time>2015-01-17T09:59:43Z</time>
      </trkpt>
      <trkpt lat="42.404859000" lon="-2.685513000">
        <ele>580.40</ele>
        <time>2015-01-17T09:59:44Z</time>
      </trkpt>
      <trkpt lat="42.404849000" lon="-2.685469000">
        <ele>580.50</ele>
        <time>2015-01-17T09:59:45Z</time>
      </trkpt>
      <trkpt lat="42.404839000" lon="-2.685425000">
        <ele>580.60</ele>
        <time>2015-01-17T09:59:46Z</time>
      </trkpt>
      <trkpt lat="42.404829000" lon="-2.685384000">
        <ele>580.80</ele>
        <time>2015-01-17T09:59:47Z</time>
      </trkpt>
      <trkpt lat="42.404819000" lon="-2.685345000">
        <ele>580.80</ele>
        <time>2015-01-17T09:59:48Z</time>
      </trkpt>
      <trkpt lat="42.404813000" lon="-2.685304000">
        <ele>580.90</ele>
        <time>2015-01-17T09:59:49Z</time>
      </trkpt>
      <trkpt lat="42.404813000" lon="-2.685262000">
        <ele>581.00</ele>
        <time>2015-01-17T09:59:50Z</time>
      </trkpt>
      <trkpt lat="42.404814000" lon="-2.685216000">
        <ele>581.30</ele>
        <time>2015-01-17T09:59:51Z</time>
      </trkpt>
      <trkpt lat="42.404813000" lon="-2.685169000">
        <ele>581.50</ele>
        <time>2015-01-17T09:59:52Z</time>
      </trkpt>
      <trkpt lat="42.404811000" lon="-2.685120000">
        <ele>581.40</ele>
        <time>2015-01-17T09:59:53Z</time>
      </trkpt>
      <trkpt lat="42.404808000" lon="-2.685068000">
        <ele>581.30</ele>
        <time>2015-01-17T09:59:54Z</time>
      </trkpt>
      <trkpt lat="42.404806000" lon="-2.685019000">
        <ele>581.30</ele>
        <time>2015-01-17T09:59:55Z</time>
      </trkpt>
      <trkpt lat="42.404804000" lon="-2.684968000">
        <ele>581.30</ele>
        <time>2015-01-17T09:59:56Z</time>
      </trkpt>
      <trkpt lat="42.404798000" lon="-2.684919000">
        <ele>581.20</ele>
        <time>2015-01-17T09:59:57Z</time>
      </trkpt>
      <trkpt lat="42.404793000" lon="-2.684870000">
        <ele>581.20</ele>
        <time>2015-01-17T09:59:58Z</time>
      </trkpt>
      <trkpt lat="42.404788000" lon="-2.684820000">
        <ele>581.30</ele>
        <time>2015-01-17T09:59:59Z</time>
      </trkpt>
      <trkpt lat="42.404782000" lon="-2.684766000">
        <ele>581.30</ele>
        <time>2015-01-17T10:00:00Z</time>
      </trkpt>
      <trkpt lat="42.404774000" lon="-2.684715000">
        <ele>581.40</ele>
        <time>2015-01-17T10:00:01Z</time>
      </trkpt>
      <trkpt lat="42.404764000" lon="-2.684667000">
        <ele>581.50</ele>
        <time>2015-01-17T10:00:02Z</time>
      </trkpt>
      <trkpt lat="42.404756000" lon="-2.684616000">
        <ele>581.60</ele>
        <time>2015-01-17T10:00:03Z</time>
      </trkpt>
      <trkpt lat="42.404752000" lon="-2.684565000">
        <ele>581.70</ele>
        <time>2015-01-17T10:00:04Z</time>
      </trkpt>
      <trkpt lat="42.404746000" lon="-2.684512000">
        <ele>581.80</ele>
        <time>2015-01-17T10:00:05Z</time>
      </trkpt>
      <trkpt lat="42.404742000" lon="-2.684460000">
        <ele>581.80</ele>
        <time>2015-01-17T10:00:06Z</time>
      </trkpt>
      <trkpt lat="42.404737000" lon="-2.684409000">
        <ele>581.90</ele>
        <time>2015-01-17T10:00:07Z</time>
      </trkpt>
      <trkpt lat="42.404732000" lon="-2.684361000">
        <ele>581.90</ele>
        <time>2015-01-17T10:00:08Z</time>
      </trkpt>
      <trkpt lat="42.404729000" lon="-2.684312000">
        <ele>581.90</ele>
        <time>2015-01-17T10:00:09Z</time>
      </trkpt>
      <trkpt lat="42.404723000" lon="-2.684259000">
        <ele>582.00</ele>
        <time>2015-01-17T10:00:10Z</time>
      </trkpt>
      <trkpt lat="42.404717000" lon="-2.684209000">
        <ele>582.00</ele>
        <time>2015-01-17T10:00:11Z</time>
      </trkpt>
      <trkpt lat="42.404711000" lon="-2.684162000">
        <ele>582.10</ele>
        <time>2015-01-17T10:00:12Z</time>
      </trkpt>
      <trkpt lat="42.404706000" lon="-2.684114000">
        <ele>582.20</ele>
        <time>2015-01-17T10:00:13Z</time>
      </trkpt>
      <trkpt lat="42.404703000" lon="-2.684065000">
        <ele>582.30</ele>
        <time>2015-01-17T10:00:14Z</time>
      </trkpt>
      <trkpt lat="42.404698000" lon="-2.684019000">
        <ele>582.70</ele>
        <time>2015-01-17T10:00:15Z</time>
      </trkpt>
      <trkpt lat="42.404691000" lon="-2.683973000">
        <ele>583.10</ele>
        <time>2015-01-17T10:00:16Z</time>
      </trkpt>
      <trkpt lat="42.404686000" lon="-2.683928000">
        <ele>583.40</ele>
        <time>2015-01-17T10:00:17Z</time>
      </trkpt>
      <trkpt lat="42.404682000" lon="-2.683882000">
        <ele>583.70</ele>
        <time>2015-01-17T10:00:18Z</time>
      </trkpt>
      <trkpt lat="42.404676000" lon="-2.683835000">
        <ele>584.30</ele>
        <time>2015-01-17T10:00:19Z</time>
      </trkpt>
      <trkpt lat="42.404672000" lon="-2.683788000">
        <ele>584.70</ele>
        <time>2015-01-17T10:00:20Z</time>
      </trkpt>
      <trkpt lat="42.404667000" lon="-2.683738000">
        <ele>585.10</ele>
        <time>2015-01-17T10:00:21Z</time>
      </trkpt>
      <trkpt lat="42.404662000" lon="-2.683692000">
        <ele>585.40</ele>
        <time>2015-01-17T10:00:22Z</time>
      </trkpt>
      <trkpt lat="42.404657000" lon="-2.683645000">
        <ele>585.70</ele>
        <time>2015-01-17T10:00:23Z</time>
      </trkpt>
      <trkpt lat="42.404651000" lon="-2.683598000">
        <ele>585.90</ele>
        <time>2015-01-17T10:00:24Z</time>
      </trkpt>
      <trkpt lat="42.404645000" lon="-2.683552000">
        <ele>586.00</ele>
        <time>2015-01-17T10:00:25Z</time>
      </trkpt>
      <trkpt lat="42.404643000" lon="-2.683512000">
        <ele>586.10</ele>
        <time>2015-01-17T10:00:26Z</time>
      </trkpt>
      <trkpt lat="42.404646000" lon="-2.683473000">
        <ele>586.50</ele>
        <time>2015-01-17T10:00:27Z</time>
      </trkpt>
      <trkpt lat="42.404644000" lon="-2.683439000">
        <ele>586.70</ele>
        <time>2015-01-17T10:00:28Z</time>
      </trkpt>
      <trkpt lat="42.404650000" lon="-2.683371000">
        <ele>587.20</ele>
        <time>2015-01-17T10:00:30Z</time>
      </trkpt>
      <trkpt lat="42.404655000" lon="-2.683337000">
        <ele>587.40</ele>
        <time>2015-01-17T10:00:31Z</time>
      </trkpt>
      <trkpt lat="42.404658000" lon="-2.683299000">
        <ele>587.60</ele>
        <time>2015-01-17T10:00:32Z</time>
      </trkpt>
      <trkpt lat="42.404665000" lon="-2.683267000">
        <ele>587.50</ele>
        <time>2015-01-17T10:00:33Z</time>
      </trkpt>
      <trkpt lat="42.404673000" lon="-2.683236000">
        <ele>587.50</ele>
        <time>2015-01-17T10:00:34Z</time>
      </trkpt>
      <trkpt lat="42.404683000" lon="-2.683202000">
        <ele>587.50</ele>
        <time>2015-01-17T10:00:35Z</time>
      </trkpt>
      <trkpt lat="42.404692000" lon="-2.683170000">
        <ele>587.50</ele>
        <time>2015-01-17T10:00:36Z</time>
      </trkpt>
      <trkpt lat="42.404702000" lon="-2.683137000">
        <ele>587.70</ele>
        <time>2015-01-17T10:00:37Z</time>
      </trkpt>
      <trkpt lat="42.404713000" lon="-2.683103000">
        <ele>587.80</ele>
        <time>2015-01-17T10:00:38Z</time>
      </trkpt>
      <trkpt lat="42.404727000" lon="-2.683068000">
        <ele>587.90</ele>
        <time>2015-01-17T10:00:39Z</time>
      </trkpt>
      <trkpt lat="42.404739000" lon="-2.683036000">
        <ele>588.00</ele>
        <time>2015-01-17T10:00:40Z</time>
      </trkpt>
      <trkpt lat="42.404749000" lon="-2.683003000">
        <ele>588.10</ele>
        <time>2015-01-17T10:00:41Z</time>
      </trkpt>
      <trkpt lat="42.404759000" lon="-2.682971000">
        <ele>588.20</ele>
        <time>2015-01-17T10:00:42Z</time>
      </trkpt>
      <trkpt lat="42.404772000" lon="-2.682935000">
        <ele>588.40</ele>
        <time>2015-01-17T10:00:43Z</time>
      </trkpt>
      <trkpt lat="42.404785000" lon="-2.682901000">
        <ele>588.50</ele>
        <time>2015-01-17T10:00:44Z</time>
      </trkpt>
      <trkpt lat="42.404798000" lon="-2.682868000">
        <ele>588.50</ele>
        <time>2015-01-17T10:00:45Z</time>
      </trkpt>
      <trkpt lat="42.404809000" lon="-2.682836000">
        <ele>588.50</ele>
        <time>2015-01-17T10:00:46Z</time>
      </trkpt>
      <trkpt lat="42.404820000" lon="-2.682810000">
        <ele>588.60</ele>
        <time>2015-01-17T10:00:47Z</time>
      </trkpt>
      <trkpt lat="42.404831000" lon="-2.682784000">
        <ele>588.70</ele>
        <time>2015-01-17T10:00:48Z</time>
      </trkpt>
      <trkpt lat="42.404842000" lon="-2.682751000">
        <ele>588.60</ele>
        <time>2015-01-17T10:00:49Z</time>
      </trkpt>
      <trkpt lat="42.404851000" lon="-2.682725000">
        <ele>588.50</ele>
        <time>2015-01-17T10:00:50Z</time>
      </trkpt>
      <trkpt lat="42.404865000" lon="-2.682694000">
        <ele>588.80</ele>
        <time>2015-01-17T10:00:51Z</time>
      </trkpt>
      <trkpt lat="42.404879000" lon="-2.682661000">
        <ele>589.10</ele>
        <time>2015-01-17T10:00:52Z</time>
      </trkpt>
      <trkpt lat="42.404891000" lon="-2.682629000">
        <ele>589.40</ele>
        <time>2015-01-17T10:00:53Z</time>
      </trkpt>
      <trkpt lat="42.404903000" lon="-2.682596000">
        <ele>589.60</ele>
        <time>2015-01-17T10:00:54Z</time>
      </trkpt>
      <trkpt lat="42.404914000" lon="-2.682566000">
        <ele>589.70</ele>
        <time>2015-01-17T10:00:55Z</time>
      </trkpt>
      <trkpt lat="42.404924000" lon="-2.682540000">
        <ele>589.80</ele>
        <time>2015-01-17T10:00:56Z</time>
      </trkpt>
      <trkpt lat="42.404933000" lon="-2.682507000">
        <ele>590.10</ele>
        <time>2015-01-17T10:00:57Z</time>
      </trkpt>
      <trkpt lat="42.404941000" lon="-2.682479000">
        <ele>590.30</ele>
        <time>2015-01-17T10:00:58Z</time>
      </trkpt>
      <trkpt lat="42.404948000" lon="-2.682452000">
        <ele>590.50</ele>
        <time>2015-01-17T10:00:59Z</time>
      </trkpt>
      <trkpt lat="42.404954000" lon="-2.682422000">
        <ele>590.60</ele>
        <time>2015-01-17T10:01:00Z</time>
      </trkpt>
      <trkpt lat="42.404957000" lon="-2.682393000">
        <ele>590.70</ele>
        <time>2015-01-17T10:01:01Z</time>
      </trkpt>
      <trkpt lat="42.404960000" lon="-2.682361000">
        <ele>590.80</ele>
        <time>2015-01-17T10:01:02Z</time>
      </trkpt>
      <trkpt lat="42.404967000" lon="-2.682335000">
        <ele>590.90</ele>
        <time>2015-01-17T10:01:03Z</time>
      </trkpt>
      <trkpt lat="42.404974000" lon="-2.682301000">
        <ele>591.00</ele>
        <time>2015-01-17T10:01:04Z</time>
      </trkpt>
      <trkpt lat="42.404983000" lon="-2.682267000">
        <ele>591.10</ele>
        <time>2015-01-17T10:01:05Z</time>
      </trkpt>
      <trkpt lat="42.404992000" lon="-2.682234000">
        <ele>591.10</ele>
        <time>2015-01-17T10:01:06Z</time>
      </trkpt>
      <trkpt lat="42.404998000" lon="-2.682197000">
        <ele>591.20</ele>
        <time>2015-01-17T10:01:07Z</time>
      </trkpt>
      <trkpt lat="42.405007000" lon="-2.682162000">
        <ele>591.30</ele>
        <time>2015-01-17T10:01:08Z</time>
      </trkpt>
      <trkpt lat="42.405014000" lon="-2.682122000">
        <ele>591.40</ele>
        <time>2015-01-17T10:01:09Z</time>
      </trkpt>
      <trkpt lat="42.405020000" lon="-2.682090000">
        <ele>591.50</ele>
        <time>2015-01-17T10:01:10Z</time>
      </trkpt>
      <trkpt lat="42.405027000" lon="-2.682057000">
        <ele>591.60</ele>
        <time>2015-01-17T10:01:11Z</time>
      </trkpt>
      <trkpt lat="42.405037000" lon="-2.682026000">
        <ele>591.60</ele>
        <time>2015-01-17T10:01:12Z</time>
      </trkpt>
      <trkpt lat="42.405042000" lon="-2.681996000">
        <ele>591.70</ele>
        <time>2015-01-17T10:01:13Z</time>
      </trkpt>
      <trkpt lat="42.405045000" lon="-2.681963000">
        <ele>591.80</ele>
        <time>2015-01-17T10:01:14Z</time>
      </trkpt>
      <trkpt lat="42.405048000" lon="-2.681927000">
        <ele>591.90</ele>
        <time>2015-01-17T10:01:15Z</time>
      </trkpt>
      <trkpt lat="42.405048000" lon="-2.681891000">
        <ele>592.00</ele>
        <time>2015-01-17T10:01:16Z</time>
      </trkpt>
      <trkpt lat="42.405049000" lon="-2.681849000">
        <ele>592.30</ele>
        <time>2015-01-17T10:01:17Z</time>
      </trkpt>
      <trkpt lat="42.405052000" lon="-2.681807000">
        <ele>592.50</ele>
        <time>2015-01-17T10:01:18Z</time>
      </trkpt>
      <trkpt lat="42.405058000" lon="-2.681762000">
        <ele>592.60</ele>
        <time>2015-01-17T10:01:19Z</time>
      </trkpt>
      <trkpt lat="42.405065000" lon="-2.681718000">
        <ele>592.60</ele>
        <time>2015-01-17T10:01:20Z</time>
      </trkpt>
      <trkpt lat="42.405075000" lon="-2.681678000">
        <ele>592.80</ele>
        <time>2015-01-17T10:01:21Z</time>
      </trkpt>
      <trkpt lat="42.405083000" lon="-2.681638000">
        <ele>593.00</ele>
        <time>2015-01-17T10:01:22Z</time>
      </trkpt>
      <trkpt lat="42.405089000" lon="-2.681599000">
        <ele>593.10</ele>
        <time>2015-01-17T10:01:23Z</time>
      </trkpt>
      <trkpt lat="42.405092000" lon="-2.681560000">
        <ele>593.10</ele>
        <time>2015-01-17T10:01:24Z</time>
      </trkpt>
      <trkpt lat="42.405095000" lon="-2.681520000">
        <ele>593.30</ele>
        <time>2015-01-17T10:01:25Z</time>
      </trkpt>
      <trkpt lat="42.405100000" lon="-2.681481000">
        <ele>593.50</ele>
        <time>2015-01-17T10:01:26Z</time>
      </trkpt>
      <trkpt lat="42.405107000" lon="-2.681443000">
        <ele>593.60</ele>
        <time>2015-01-17T10:01:27Z</time>
      </trkpt>
      <trkpt lat="42.405116000" lon="-2.681401000">
        <ele>593.70</ele>
        <time>2015-01-17T10:01:28Z</time>
      </trkpt>
      <trkpt lat="42.405120000" lon="-2.681360000">
        <ele>593.80</ele>
        <time>2015-01-17T10:01:29Z</time>
      </trkpt>
      <trkpt lat="42.405129000" lon="-2.681282000">
        <ele>593.90</ele>
        <time>2015-01-17T10:01:31Z</time>
      </trkpt>
      <trkpt lat="42.405135000" lon="-2.681243000">
        <ele>594.00</ele>
        <time>2015-01-17T10:01:32Z</time>
      </trkpt>
      <trkpt lat="42.405139000" lon="-2.681199000">
        <ele>594.00</ele>
        <time>2015-01-17T10:01:33Z</time>
      </trkpt>
      <trkpt lat="42.405144000" lon="-2.681153000">
        <ele>594.00</ele>
        <time>2015-01-17T10:01:34Z</time>
      </trkpt>
      <trkpt lat="42.405149000" lon="-2.681110000">
        <ele>594.10</ele>
        <time>2015-01-17T10:01:35Z</time>
      </trkpt>
      <trkpt lat="42.405154000" lon="-2.681069000">
        <ele>594.20</ele>
        <time>2015-01-17T10:01:36Z</time>
      </trkpt>
      <trkpt lat="42.405158000" lon="-2.681024000">
        <ele>594.20</ele>
        <time>2015-01-17T10:01:37Z</time>
      </trkpt>
      <trkpt lat="42.405158000" lon="-2.680982000">
        <ele>594.20</ele>
        <time>2015-01-17T10:01:38Z</time>
      </trkpt>
      <trkpt lat="42.405162000" lon="-2.680935000">
        <ele>594.30</ele>
        <time>2015-01-17T10:01:39Z</time>
      </trkpt>
      <trkpt lat="42.405164000" lon="-2.680889000">
        <ele>594.30</ele>
        <time>2015-01-17T10:01:40Z</time>
      </trkpt>
      <trkpt lat="42.405163000" lon="-2.680842000">
        <ele>594.30</ele>
        <time>2015-01-17T10:01:41Z</time>
      </trkpt>
      <trkpt lat="42.405164000" lon="-2.680794000">
        <ele>594.30</ele>
        <time>2015-01-17T10:01:42Z</time>
      </trkpt>
      <trkpt lat="42.405163000" lon="-2.680749000">
        <ele>594.40</ele>
        <time>2015-01-17T10:01:43Z</time>
      </trkpt>
      <trkpt lat="42.405161000" lon="-2.680706000">
        <ele>594.50</ele>
        <time>2015-01-17T10:01:44Z</time>
      </trkpt>
      <trkpt lat="42.405164000" lon="-2.680658000">
        <ele>594.60</ele>
        <time>2015-01-17T10:01:45Z</time>
      </trkpt>
      <trkpt lat="42.405166000" lon="-2.680610000">
        <ele>594.70</ele>
        <time>2015-01-17T10:01:46Z</time>
      </trkpt>
      <trkpt lat="42.405168000" lon="-2.680563000">
        <ele>594.70</ele>
        <time>2015-01-17T10:01:47Z</time>
      </trkpt>
      <trkpt lat="42.405170000" lon="-2.680519000">
        <ele>594.60</ele>
        <time>2015-01-17T10:01:48Z</time>
      </trkpt>
      <trkpt lat="42.405171000" lon="-2.680474000">
        <ele>594.60</ele>
        <time>2015-01-17T10:01:49Z</time>
      </trkpt>
      <trkpt lat="42.405172000" lon="-2.680428000">
        <ele>594.60</ele>
        <time>2015-01-17T10:01:50Z</time>
      </trkpt>
      <trkpt lat="42.405170000" lon="-2.680383000">
        <ele>594.60</ele>
        <time>2015-01-17T10:01:51Z</time>
      </trkpt>
      <trkpt lat="42.405172000" lon="-2.680337000">
        <ele>594.60</ele>
        <time>2015-01-17T10:01:52Z</time>
      </trkpt>
      <trkpt lat="42.405176000" lon="-2.680291000">
        <ele>594.60</ele>
        <time>2015-01-17T10:01:53Z</time>
      </trkpt>
      <trkpt lat="42.405175000" lon="-2.680248000">
        <ele>594.60</ele>
        <time>2015-01-17T10:01:54Z</time>
      </trkpt>
      <trkpt lat="42.405177000" lon="-2.680205000">
        <ele>594.60</ele>
        <time>2015-01-17T10:01:55Z</time>
      </trkpt>
      <trkpt lat="42.405185000" lon="-2.680158000">
        <ele>594.60</ele>
        <time>2015-01-17T10:01:56Z</time>
      </trkpt>
      <trkpt lat="42.405191000" lon="-2.680113000">
        <ele>594.60</ele>
        <time>2015-01-17T10:01:57Z</time>
      </trkpt>
      <trkpt lat="42.405194000" lon="-2.680068000">
        <ele>594.60</ele>
        <time>2015-01-17T10:01:58Z</time>
      </trkpt>
      <trkpt lat="42.405194000" lon="-2.680022000">
        <ele>594.70</ele>
        <time>2015-01-17T10:01:59Z</time>
      </trkpt>
      <trkpt lat="42.405198000" lon="-2.679976000">
        <ele>594.80</ele>
        <time>2015-01-17T10:02:00Z</time>
      </trkpt>
      <trkpt lat="42.405200000" lon="-2.679930000">
        <ele>594.90</ele>
        <time>2015-01-17T10:02:01Z</time>
      </trkpt>
      <trkpt lat="42.405204000" lon="-2.679888000">
        <ele>594.90</ele>
        <time>2015-01-17T10:02:02Z</time>
      </trkpt>
      <trkpt lat="42.405205000" lon="-2.679844000">
        <ele>595.20</ele>
        <time>2015-01-17T10:02:03Z</time>
      </trkpt>
      <trkpt lat="42.405208000" lon="-2.679799000">
        <ele>595.40</ele>
        <time>2015-01-17T10:02:04Z</time>
      </trkpt>
      <trkpt lat="42.405212000" lon="-2.679755000">
        <ele>595.50</ele>
        <time>2015-01-17T10:02:05Z</time>
      </trkpt>
      <trkpt lat="42.405215000" lon="-2.679710000">
        <ele>595.60</ele>
        <time>2015-01-17T10:02:06Z</time>
      </trkpt>
      <trkpt lat="42.405217000" lon="-2.679666000">
        <ele>595.80</ele>
        <time>2015-01-17T10:02:07Z</time>
      </trkpt>
      <trkpt lat="42.405218000" lon="-2.679621000">
        <ele>596.00</ele>
        <time>2015-01-17T10:02:08Z</time>
      </trkpt>
      <trkpt lat="42.405220000" lon="-2.679578000">
        <ele>596.10</ele>
        <time>2015-01-17T10:02:09Z</time>
      </trkpt>
      <trkpt lat="42.405223000" lon="-2.679534000">
        <ele>596.30</ele>
        <time>2015-01-17T10:02:10Z</time>
      </trkpt>
      <trkpt lat="42.405226000" lon="-2.679491000">
        <ele>596.50</ele>
        <time>2015-01-17T10:02:11Z</time>
      </trkpt>
      <trkpt lat="42.405229000" lon="-2.679444000">
        <ele>596.60</ele>
        <time>2015-01-17T10:02:12Z</time>
      </trkpt>
      <trkpt lat="42.405228000" lon="-2.679401000">
        <ele>596.70</ele>
        <time>2015-01-17T10:02:13Z</time>
      </trkpt>
      <trkpt lat="42.405231000" lon="-2.679356000">
        <ele>596.70</ele>
        <time>2015-01-17T10:02:14Z</time>
      </trkpt>
      <trkpt lat="42.405232000" lon="-2.679308000">
        <ele>596.80</ele>
        <time>2015-01-17T10:02:15Z</time>
      </trkpt>
      <trkpt lat="42.405234000" lon="-2.679262000">
        <ele>596.80</ele>
        <time>2015-01-17T10:02:16Z</time>
      </trkpt>
      <trkpt lat="42.405237000" lon="-2.679218000">
        <ele>597.00</ele>
        <time>2015-01-17T10:02:17Z</time>
      </trkpt>
      <trkpt lat="42.405237000" lon="-2.679174000">
        <ele>597.10</ele>
        <time>2015-01-17T10:02:18Z</time>
      </trkpt>
      <trkpt lat="42.405241000" lon="-2.679125000">
        <ele>597.30</ele>
        <time>2015-01-17T10:02:19Z</time>
      </trkpt>
      <trkpt lat="42.405243000" lon="-2.679080000">
        <ele>597.40</ele>
        <time>2015-01-17T10:02:20Z</time>
      </trkpt>
      <trkpt lat="42.405245000" lon="-2.679039000">
        <ele>597.50</ele>
        <time>2015-01-17T10:02:21Z</time>
      </trkpt>
      <trkpt lat="42.405249000" lon="-2.678997000">
        <ele>597.50</ele>
        <time>2015-01-17T10:02:22Z</time>
      </trkpt>
      <trkpt lat="42.405252000" lon="-2.678953000">
        <ele>597.60</ele>
        <time>2015-01-17T10:02:23Z</time>
      </trkpt>
      <trkpt lat="42.405253000" lon="-2.678907000">
        <ele>597.60</ele>
        <time>2015-01-17T10:02:24Z</time>
      </trkpt>
      <trkpt lat="42.405255000" lon="-2.678865000">
        <ele>597.50</ele>
        <time>2015-01-17T10:02:25Z</time>
      </trkpt>
      <trkpt lat="42.405258000" lon="-2.678823000">
        <ele>597.30</ele>
        <time>2015-01-17T10:02:26Z</time>
      </trkpt>
      <trkpt lat="42.405260000" lon="-2.678775000">
        <ele>597.20</ele>
        <time>2015-01-17T10:02:27Z</time>
      </trkpt>
      <trkpt lat="42.405262000" lon="-2.678732000">
        <ele>597.20</ele>
        <time>2015-01-17T10:02:28Z</time>
      </trkpt>
      <trkpt lat="42.405264000" lon="-2.678686000">
        <ele>597.10</ele>
        <time>2015-01-17T10:02:29Z</time>
      </trkpt>
      <trkpt lat="42.405265000" lon="-2.678643000">
        <ele>597.10</ele>
        <time>2015-01-17T10:02:30Z</time>
      </trkpt>
      <trkpt lat="42.405268000" lon="-2.678559000">
        <ele>597.40</ele>
        <time>2015-01-17T10:02:32Z</time>
      </trkpt>
      <trkpt lat="42.405270000" lon="-2.678518000">
        <ele>597.50</ele>
        <time>2015-01-17T10:02:33Z</time>
      </trkpt>
      <trkpt lat="42.405271000" lon="-2.678473000">
        <ele>597.50</ele>
        <time>2015-01-17T10:02:34Z</time>
      </trkpt>
      <trkpt lat="42.405273000" lon="-2.678429000">
        <ele>597.60</ele>
        <time>2015-01-17T10:02:35Z</time>
      </trkpt>
      <trkpt lat="42.405272000" lon="-2.678390000">
        <ele>597.60</ele>
        <time>2015-01-17T10:02:36Z</time>
      </trkpt>
      <trkpt lat="42.405273000" lon="-2.678350000">
        <ele>598.20</ele>
        <time>2015-01-17T10:02:37Z</time>
      </trkpt>
      <trkpt lat="42.405273000" lon="-2.678308000">
        <ele>598.60</ele>
        <time>2015-01-17T10:02:38Z</time>
      </trkpt>
      <trkpt lat="42.405277000" lon="-2.678265000">
        <ele>598.90</ele>
        <time>2015-01-17T10:02:39Z</time>
      </trkpt>
      <trkpt lat="42.405277000" lon="-2.678224000">
        <ele>599.10</ele>
        <time>2015-01-17T10:02:40Z</time>
      </trkpt>
      <trkpt lat="42.405277000" lon="-2.678182000">
        <ele>599.20</ele>
        <time>2015-01-17T10:02:41Z</time>
      </trkpt>
      <trkpt lat="42.405278000" lon="-2.678142000">
        <ele>599.40</ele>
        <time>2015-01-17T10:02:42Z</time>
      </trkpt>
      <trkpt lat="42.405278000" lon="-2.678101000">
        <ele>599.40</ele>
        <time>2015-01-17T10:02:43Z</time>
      </trkpt>
      <trkpt lat="42.405278000" lon="-2.678056000">
        <ele>599.40</ele>
        <time>2015-01-17T10:02:44Z</time>
      </trkpt>
      <trkpt lat="42.405279000" lon="-2.678014000">
        <ele>599.40</ele>
        <time>2015-01-17T10:02:45Z</time>
      </trkpt>
      <trkpt lat="42.405281000" lon="-2.677971000">
        <ele>599.50</ele>
        <time>2015-01-17T10:02:46Z</time>
      </trkpt>
      <trkpt lat="42.405282000" lon="-2.677926000">
        <ele>599.50</ele>
        <time>2015-01-17T10:02:47Z</time>
      </trkpt>
      <trkpt lat="42.405284000" lon="-2.677884000">
        <ele>599.50</ele>
        <time>2015-01-17T10:02:48Z</time>
      </trkpt>
      <trkpt lat="42.405285000" lon="-2.677844000">
        <ele>599.50</ele>
        <time>2015-01-17T10:02:49Z</time>
      </trkpt>
      <trkpt lat="42.405289000" lon="-2.677801000">
        <ele>599.50</ele>
        <time>2015-01-17T10:02:50Z</time>
      </trkpt>
      <trkpt lat="42.405290000" lon="-2.677756000">
        <ele>599.60</ele>
        <time>2015-01-17T10:02:51Z</time>
      </trkpt>
      <trkpt lat="42.405290000" lon="-2.677712000">
        <ele>599.60</ele>
        <time>2015-01-17T10:02:52Z</time>
      </trkpt>
      <trkpt lat="42.405290000" lon="-2.677666000">
        <ele>599.60</ele>
        <time>2015-01-17T10:02:53Z</time>
      </trkpt>
      <trkpt lat="42.405291000" lon="-2.677623000">
        <ele>599.70</ele>
        <time>2015-01-17T10:02:54Z</time>
      </trkpt>
      <trkpt lat="42.405292000" lon="-2.677579000">
        <ele>599.80</ele>
        <time>2015-01-17T10:02:55Z</time>
      </trkpt>
      <trkpt lat="42.405292000" lon="-2.677537000">
        <ele>599.90</ele>
        <time>2015-01-17T10:02:56Z</time>
      </trkpt>
      <trkpt lat="42.405292000" lon="-2.677492000">
        <ele>600.20</ele>
        <time>2015-01-17T10:02:57Z</time>
      </trkpt>
      <trkpt lat="42.405290000" lon="-2.677446000">
        <ele>600.30</ele>
        <time>2015-01-17T10:02:58Z</time>
      </trkpt>
      <trkpt lat="42.405288000" lon="-2.677401000">
        <ele>600.50</ele>
        <time>2015-01-17T10:02:59Z</time>
      </trkpt>
      <trkpt lat="42.405286000" lon="-2.677357000">
        <ele>600.60</ele>
        <time>2015-01-17T10:03:00Z</time>
      </trkpt>
      <trkpt lat="42.405285000" lon="-2.677317000">
        <ele>600.80</ele>
        <time>2015-01-17T10:03:01Z</time>
      </trkpt>
      <trkpt lat="42.405284000" lon="-2.677275000">
        <ele>600.80</ele>
        <time>2015-01-17T10:03:02Z</time>
      </trkpt>
      <trkpt lat="42.405283000" lon="-2.677232000">
        <ele>600.80</ele>
        <time>2015-01-17T10:03:03Z</time>
      </trkpt>
      <trkpt lat="42.405283000" lon="-2.677190000">
        <ele>600.80</ele>
        <time>2015-01-17T10:03:04Z</time>
      </trkpt>
      <trkpt lat="42.405281000" lon="-2.677147000">
        <ele>600.80</ele>
        <time>2015-01-17T10:03:05Z</time>
      </trkpt>
      <trkpt lat="42.405279000" lon="-2.677103000">
        <ele>600.80</ele>
        <time>2015-01-17T10:03:06Z</time>
      </trkpt>
      <trkpt lat="42.405277000" lon="-2.677059000">
        <ele>600.90</ele>
        <time>2015-01-17T10:03:07Z</time>
      </trkpt>
      <trkpt lat="42.405276000" lon="-2.677014000">
        <ele>600.90</ele>
        <time>2015-01-17T10:03:08Z</time>
      </trkpt>
      <trkpt lat="42.405275000" lon="-2.676971000">
        <ele>601.20</ele>
        <time>2015-01-17T10:03:09Z</time>
      </trkpt>
      <trkpt lat="42.405273000" lon="-2.676929000">
        <ele>601.30</ele>
        <time>2015-01-17T10:03:10Z</time>
      </trkpt>
      <trkpt lat="42.405271000" lon="-2.676885000">
        <ele>601.50</ele>
        <time>2015-01-17T10:03:11Z</time>
      </trkpt>
      <trkpt lat="42.405269000" lon="-2.676844000">
        <ele>601.70</ele>
        <time>2015-01-17T10:03:12Z</time>
      </trkpt>
      <trkpt lat="42.405268000" lon="-2.676801000">
        <ele>601.80</ele>
        <time>2015-01-17T10:03:13Z</time>
      </trkpt>
      <trkpt lat="42.405268000" lon="-2.676758000">
        <ele>601.90</ele>
        <time>2015-01-17T10:03:14Z</time>
      </trkpt>
      <trkpt lat="42.405268000" lon="-2.676715000">
        <ele>601.70</ele>
        <time>2015-01-17T10:03:15Z</time>
      </trkpt>
      <trkpt lat="42.405269000" lon="-2.676671000">
        <ele>601.60</ele>
        <time>2015-01-17T10:03:16Z</time>
      </trkpt>
      <trkpt lat="42.405268000" lon="-2.676626000">
        <ele>601.60</ele>
        <time>2015-01-17T10:03:17Z</time>
      </trkpt>
      <trkpt lat="42.405266000" lon="-2.676578000">
        <ele>601.50</ele>
        <time>2015-01-17T10:03:18Z</time>
      </trkpt>
      <trkpt lat="42.405265000" lon="-2.676536000">
        <ele>601.70</ele>
        <time>2015-01-17T10:03:19Z</time>
      </trkpt>
      <trkpt lat="42.405263000" lon="-2.676491000">
        <ele>601.80</ele>
        <time>2015-01-17T10:03:20Z</time>
      </trkpt>
      <trkpt lat="42.405262000" lon="-2.676440000">
        <ele>601.90</ele>
        <time>2015-01-17T10:03:21Z</time>
      </trkpt>
      <trkpt lat="42.405262000" lon="-2.676395000">
        <ele>602.00</ele>
        <time>2015-01-17T10:03:22Z</time>
      </trkpt>
      <trkpt lat="42.405258000" lon="-2.676347000">
        <ele>602.10</ele>
        <time>2015-01-17T10:03:23Z</time>
      </trkpt>
      <trkpt lat="42.405255000" lon="-2.676300000">
        <ele>602.10</ele>
        <time>2015-01-17T10:03:24Z</time>
      </trkpt>
      <trkpt lat="42.405254000" lon="-2.676255000">
        <ele>602.30</ele>
        <time>2015-01-17T10:03:25Z</time>
      </trkpt>
      <trkpt lat="42.405256000" lon="-2.676211000">
        <ele>602.40</ele>
        <time>2015-01-17T10:03:26Z</time>
      </trkpt>
      <trkpt lat="42.405256000" lon="-2.676167000">
        <ele>602.60</ele>
        <time>2015-01-17T10:03:27Z</time>
      </trkpt>
      <trkpt lat="42.405258000" lon="-2.676120000">
        <ele>602.70</ele>
        <time>2015-01-17T10:03:28Z</time>
      </trkpt>
      <trkpt lat="42.405260000" lon="-2.676075000">
        <ele>602.80</ele>
        <time>2015-01-17T10:03:29Z</time>
      </trkpt>
      <trkpt lat="42.405261000" lon="-2.676032000">
        <ele>602.80</ele>
        <time>2015-01-17T10:03:30Z</time>
      </trkpt>
      <trkpt lat="42.405263000" lon="-2.675984000">
        <ele>603.00</ele>
        <time>2015-01-17T10:03:31Z</time>
      </trkpt>
      <trkpt lat="42.405265000" lon="-2.675887000">
        <ele>602.90</ele>
        <time>2015-01-17T10:03:33Z</time>
      </trkpt>
      <trkpt lat="42.405269000" lon="-2.675835000">
        <ele>602.70</ele>
        <time>2015-01-17T10:03:34Z</time>
      </trkpt>
      <trkpt lat="42.405273000" lon="-2.675784000">
        <ele>602.90</ele>
        <time>2015-01-17T10:03:35Z</time>
      </trkpt>
      <trkpt lat="42.405279000" lon="-2.675732000">
        <ele>603.00</ele>
        <time>2015-01-17T10:03:36Z</time>
      </trkpt>
      <trkpt lat="42.405285000" lon="-2.675680000">
        <ele>602.80</ele>
        <time>2015-01-17T10:03:37Z</time>
      </trkpt>
      <trkpt lat="42.405293000" lon="-2.675627000">
        <ele>602.70</ele>
        <time>2015-01-17T10:03:38Z</time>
      </trkpt>
      <trkpt lat="42.405304000" lon="-2.675580000">
        <ele>602.70</ele>
        <time>2015-01-17T10:03:39Z</time>
      </trkpt>
      <trkpt lat="42.405316000" lon="-2.675532000">
        <ele>602.60</ele>
        <time>2015-01-17T10:03:40Z</time>
      </trkpt>
      <trkpt lat="42.405330000" lon="-2.675482000">
        <ele>602.60</ele>
        <time>2015-01-17T10:03:41Z</time>
      </trkpt>
      <trkpt lat="42.405343000" lon="-2.675434000">
        <ele>602.60</ele>
        <time>2015-01-17T10:03:42Z</time>
      </trkpt>
      <trkpt lat="42.405360000" lon="-2.675386000">
        <ele>602.70</ele>
        <time>2015-01-17T10:03:43Z</time>
      </trkpt>
      <trkpt lat="42.405377000" lon="-2.675344000">
        <ele>602.70</ele>
        <time>2015-01-17T10:03:44Z</time>
      </trkpt>
      <trkpt lat="42.405393000" lon="-2.675300000">
        <ele>602.90</ele>
        <time>2015-01-17T10:03:45Z</time>
      </trkpt>
      <trkpt lat="42.405410000" lon="-2.675257000">
        <ele>603.10</ele>
        <time>2015-01-17T10:03:46Z</time>
      </trkpt>
      <trkpt lat="42.405428000" lon="-2.675213000">
        <ele>603.30</ele>
        <time>2015-01-17T10:03:47Z</time>
      </trkpt>
      <trkpt lat="42.405448000" lon="-2.675173000">
        <ele>603.40</ele>
        <time>2015-01-17T10:03:48Z</time>
      </trkpt>
      <trkpt lat="42.405466000" lon="-2.675132000">
        <ele>603.60</ele>
        <time>2015-01-17T10:03:49Z</time>
      </trkpt>
      <trkpt lat="42.405484000" lon="-2.675090000">
        <ele>603.80</ele>
        <time>2015-01-17T10:03:50Z</time>
      </trkpt>
      <trkpt lat="42.405501000" lon="-2.675048000">
        <ele>603.90</ele>
        <time>2015-01-17T10:03:51Z</time>
      </trkpt>
      <trkpt lat="42.405518000" lon="-2.675007000">
        <ele>604.00</ele>
        <time>2015-01-17T10:03:52Z</time>
      </trkpt>
      <trkpt lat="42.405531000" lon="-2.674968000">
        <ele>604.20</ele>
        <time>2015-01-17T10:03:53Z</time>
      </trkpt>
      <trkpt lat="42.405546000" lon="-2.674930000">
        <ele>604.30</ele>
        <time>2015-01-17T10:03:54Z</time>
      </trkpt>
      <trkpt lat="42.405565000" lon="-2.674884000">
        <ele>604.10</ele>
        <time>2015-01-17T10:03:55Z</time>
      </trkpt>
      <trkpt lat="42.405590000" lon="-2.674835000">
        <ele>604.00</ele>
        <time>2015-01-17T10:03:56Z</time>
      </trkpt>
      <trkpt lat="42.405614000" lon="-2.674777000">
        <ele>604.00</ele>
        <time>2015-01-17T10:03:57Z</time>
      </trkpt>
      <trkpt lat="42.405644000" lon="-2.674710000">
        <ele>603.90</ele>
        <time>2015-01-17T10:03:58Z</time>
      </trkpt>
      <trkpt lat="42.405677000" lon="-2.674639000">
        <ele>603.80</ele>
        <time>2015-01-17T10:03:59Z</time>
      </trkpt>
      <trkpt lat="42.405713000" lon="-2.674567000">
        <ele>603.60</ele>
        <time>2015-01-17T10:04:00Z</time>
      </trkpt>
      <trkpt lat="42.405753000" lon="-2.674493000">
        <ele>603.30</ele>
        <time>2015-01-17T10:04:01Z</time>
      </trkpt>
      <trkpt lat="42.405800000" lon="-2.674422000">
        <ele>603.00</ele>
        <time>2015-01-17T10:04:02Z</time>
      </trkpt>
      <trkpt lat="42.405851000" lon="-2.674354000">
        <ele>602.70</ele>
        <time>2015-01-17T10:04:03Z</time>
      </trkpt>
      <trkpt lat="42.405912000" lon="-2.674293000">
        <ele>602.40</ele>
        <time>2015-01-17T10:04:04Z</time>
      </trkpt>
      <trkpt lat="42.405980000" lon="-2.674238000">
        <ele>602.00</ele>
        <time>2015-01-17T10:04:05Z</time>
      </trkpt>
      <trkpt lat="42.406051000" lon="-2.674176000">
        <ele>601.80</ele>
        <time>2015-01-17T10:04:06Z</time>
      </trkpt>
      <trkpt lat="42.406122000" lon="-2.674108000">
        <ele>601.00</ele>
        <time>2015-01-17T10:04:07Z</time>
      </trkpt>
      <trkpt lat="42.406194000" lon="-2.674035000">
        <ele>600.30</ele>
        <time>2015-01-17T10:04:08Z</time>
      </trkpt>
      <trkpt lat="42.406265000" lon="-2.673955000">
        <ele>599.80</ele>
        <time>2015-01-17T10:04:09Z</time>
      </trkpt>
      <trkpt lat="42.406335000" lon="-2.673872000">
        <ele>599.40</ele>
        <time>2015-01-17T10:04:10Z</time>
      </trkpt>
      <trkpt lat="42.406403000" lon="-2.673789000">
        <ele>598.80</ele>
        <time>2015-01-17T10:04:11Z</time>
      </trkpt>
      <trkpt lat="42.406472000" lon="-2.673704000">
        <ele>598.30</ele>
        <time>2015-01-17T10:04:12Z</time>
      </trkpt>
      <trkpt lat="42.406539000" lon="-2.673618000">
        <ele>598.00</ele>
        <time>2015-01-17T10:04:13Z</time>
      </trkpt>
      <trkpt lat="42.406605000" lon="-2.673527000">
        <ele>597.80</ele>
        <time>2015-01-17T10:04:14Z</time>
      </trkpt>
      <trkpt lat="42.406665000" lon="-2.673427000">
        <ele>596.60</ele>
        <time>2015-01-17T10:04:15Z</time>
      </trkpt>
      <trkpt lat="42.406719000" lon="-2.673318000">
        <ele>595.70</ele>
        <time>2015-01-17T10:04:16Z</time>
      </trkpt>
      <trkpt lat="42.406770000" lon="-2.673204000">
        <ele>594.90</ele>
        <time>2015-01-17T10:04:17Z</time>
      </trkpt>
      <trkpt lat="42.406829000" lon="-2.673093000">
        <ele>594.30</ele>
        <time>2015-01-17T10:04:18Z</time>
      </trkpt>
      <trkpt lat="42.406893000" lon="-2.672982000">
        <ele>593.80</ele>
        <time>2015-01-17T10:04:19Z</time>
      </trkpt>
      <trkpt lat="42.406965000" lon="-2.672869000">
        <ele>593.50</ele>
        <time>2015-01-17T10:04:20Z</time>
      </trkpt>
      <trkpt lat="42.407044000" lon="-2.672758000">
        <ele>592.30</ele>
        <time>2015-01-17T10:04:21Z</time>
      </trkpt>
      <trkpt lat="42.407130000" lon="-2.672651000">
        <ele>591.50</ele>
        <time>2015-01-17T10:04:22Z</time>
      </trkpt>
      <trkpt lat="42.407228000" lon="-2.672554000">
        <ele>590.40</ele>
        <time>2015-01-17T10:04:23Z</time>
      </trkpt>
      <trkpt lat="42.407336000" lon="-2.672470000">
        <ele>589.50</ele>
        <time>2015-01-17T10:04:24Z</time>
      </trkpt>
      <trkpt lat="42.407447000" lon="-2.672395000">
        <ele>588.00</ele>
        <time>2015-01-17T10:04:25Z</time>
      </trkpt>
      <trkpt lat="42.407555000" lon="-2.672320000">
        <ele>586.90</ele>
        <time>2015-01-17T10:04:26Z</time>
      </trkpt>
      <trkpt lat="42.407654000" lon="-2.672233000">
        <ele>585.80</ele>
        <time>2015-01-17T10:04:27Z</time>
      </trkpt>
      <trkpt lat="42.407745000" lon="-2.672140000">
        <ele>584.90</ele>
        <time>2015-01-17T10:04:28Z</time>
      </trkpt>
      <trkpt lat="42.407822000" lon="-2.672048000">
        <ele>584.20</ele>
        <time>2015-01-17T10:04:29Z</time>
      </trkpt>
      <trkpt lat="42.407885000" lon="-2.671955000">
        <ele>583.70</ele>
        <time>2015-01-17T10:04:30Z</time>
      </trkpt>
      <trkpt lat="42.407936000" lon="-2.671868000">
        <ele>583.00</ele>
        <time>2015-01-17T10:04:31Z</time>
      </trkpt>
      <trkpt lat="42.407977000" lon="-2.671789000">
        <ele>582.50</ele>
        <time>2015-01-17T10:04:32Z</time>
      </trkpt>
      <trkpt lat="42.408008000" lon="-2.671722000">
        <ele>582.00</ele>
        <time>2015-01-17T10:04:33Z</time>
      </trkpt>
      <trkpt lat="42.408050000" lon="-2.671644000">
        <ele>581.50</ele>
        <time>2015-01-17T10:04:35Z</time>
      </trkpt>
      <trkpt lat="42.408066000" lon="-2.671629000">
        <ele>581.40</ele>
        <time>2015-01-17T10:04:36Z</time>
      </trkpt>
      <trkpt lat="42.408077000" lon="-2.671615000">
        <ele>581.40</ele>
        <time>2015-01-17T10:04:37Z</time>
      </trkpt>
      <trkpt lat="42.408089000" lon="-2.671596000">
        <ele>581.40</ele>
        <time>2015-01-17T10:04:38Z</time>
      </trkpt>
      <trkpt lat="42.408100000" lon="-2.671582000">
        <ele>581.50</ele>
        <time>2015-01-17T10:04:39Z</time>
      </trkpt>
      <trkpt lat="42.408117000" lon="-2.671567000">
        <ele>581.60</ele>
        <time>2015-01-17T10:04:40Z</time>
      </trkpt>
      <trkpt lat="42.408134000" lon="-2.671555000">
        <ele>581.70</ele>
        <time>2015-01-17T10:04:41Z</time>
      </trkpt>
      <trkpt lat="42.408148000" lon="-2.671537000">
        <ele>581.80</ele>
        <time>2015-01-17T10:04:42Z</time>
      </trkpt>
      <trkpt lat="42.408159000" lon="-2.671524000">
        <ele>582.10</ele>
        <time>2015-01-17T10:04:43Z</time>
      </trkpt>
      <trkpt lat="42.408176000" lon="-2.671515000">
        <ele>582.30</ele>
        <time>2015-01-17T10:04:44Z</time>
      </trkpt>
      <trkpt lat="42.408191000" lon="-2.671504000">
        <ele>582.80</ele>
        <time>2015-01-17T10:04:45Z</time>
      </trkpt>
      <trkpt lat="42.408207000" lon="-2.671488000">
        <ele>583.10</ele>
        <time>2015-01-17T10:04:46Z</time>
      </trkpt>
      <trkpt lat="42.408222000" lon="-2.671480000">
        <ele>583.40</ele>
        <time>2015-01-17T10:04:47Z</time>
      </trkpt>
      <trkpt lat="42.408239000" lon="-2.671471000">
        <ele>583.60</ele>
        <time>2015-01-17T10:04:48Z</time>
      </trkpt>
      <trkpt lat="42.408256000" lon="-2.671463000">
        <ele>583.90</ele>
        <time>2015-01-17T10:04:49Z</time>
      </trkpt>
      <trkpt lat="42.408275000" lon="-2.671454000">
        <ele>584.10</ele>
        <time>2015-01-17T10:04:50Z</time>
      </trkpt>
      <trkpt lat="42.408291000" lon="-2.671443000">
        <ele>584.40</ele>
        <time>2015-01-17T10:04:51Z</time>
      </trkpt>
      <trkpt lat="42.408310000" lon="-2.671434000">
        <ele>584.60</ele>
        <time>2015-01-17T10:04:52Z</time>
      </trkpt>
      <trkpt lat="42.408324000" lon="-2.671428000">
        <ele>585.10</ele>
        <time>2015-01-17T10:04:53Z</time>
      </trkpt>
      <trkpt lat="42.408342000" lon="-2.671415000">
        <ele>585.50</ele>
        <time>2015-01-17T10:04:54Z</time>
      </trkpt>
      <trkpt lat="42.408357000" lon="-2.671407000">
        <ele>585.80</ele>
        <time>2015-01-17T10:04:55Z</time>
      </trkpt>
      <trkpt lat="42.408375000" lon="-2.671398000">
        <ele>586.00</ele>
        <time>2015-01-17T10:04:56Z</time>
      </trkpt>
      <trkpt lat="42.408391000" lon="-2.671393000">
        <ele>586.60</ele>
        <time>2015-01-17T10:04:57Z</time>
      </trkpt>
      <trkpt lat="42.408405000" lon="-2.671388000">
        <ele>587.10</ele>
        <time>2015-01-17T10:04:58Z</time>
      </trkpt>
      <trkpt lat="42.408424000" lon="-2.671381000">
        <ele>587.60</ele>
        <time>2015-01-17T10:04:59Z</time>
      </trkpt>
      <trkpt lat="42.408443000" lon="-2.671374000">
        <ele>588.00</ele>
        <time>2015-01-17T10:05:00Z</time>
      </trkpt>
      <trkpt lat="42.408458000" lon="-2.671366000">
        <ele>588.40</ele>
        <time>2015-01-17T10:05:01Z</time>
      </trkpt>
      <trkpt lat="42.408476000" lon="-2.671367000">
        <ele>588.70</ele>
        <time>2015-01-17T10:05:02Z</time>
      </trkpt>
      <trkpt lat="42.408488000" lon="-2.671365000">
        <ele>588.90</ele>
        <time>2015-01-17T10:05:03Z</time>
      </trkpt>
      <trkpt lat="42.408504000" lon="-2.671363000">
        <ele>589.10</ele>
        <time>2015-01-17T10:05:04Z</time>
      </trkpt>
      <trkpt lat="42.408522000" lon="-2.671363000">
        <ele>589.40</ele>
        <time>2015-01-17T10:05:05Z</time>
      </trkpt>
      <trkpt lat="42.408537000" lon="-2.671359000">
        <ele>589.60</ele>
        <time>2015-01-17T10:05:06Z</time>
      </trkpt>
      <trkpt lat="42.408556000" lon="-2.671353000">
        <ele>590.00</ele>
        <time>2015-01-17T10:05:07Z</time>
      </trkpt>
      <trkpt lat="42.408570000" lon="-2.671347000">
        <ele>590.30</ele>
        <time>2015-01-17T10:05:08Z</time>
      </trkpt>
      <trkpt lat="42.408588000" lon="-2.671340000">
        <ele>590.70</ele>
        <time>2015-01-17T10:05:09Z</time>
      </trkpt>
      <trkpt lat="42.408608000" lon="-2.671332000">
        <ele>590.90</ele>
        <time>2015-01-17T10:05:10Z</time>
      </trkpt>
      <trkpt lat="42.408624000" lon="-2.671321000">
        <ele>591.10</ele>
        <time>2015-01-17T10:05:11Z</time>
      </trkpt>
      <trkpt lat="42.408642000" lon="-2.671309000">
        <ele>591.30</ele>
        <time>2015-01-17T10:05:12Z</time>
      </trkpt>
      <trkpt lat="42.408660000" lon="-2.671294000">
        <ele>591.50</ele>
        <time>2015-01-17T10:05:13Z</time>
      </trkpt>
      <trkpt lat="42.408673000" lon="-2.671276000">
        <ele>591.70</ele>
        <time>2015-01-17T10:05:14Z</time>
      </trkpt>
      <trkpt lat="42.408683000" lon="-2.671263000">
        <ele>592.20</ele>
        <time>2015-01-17T10:05:15Z</time>
      </trkpt>
      <trkpt lat="42.408690000" lon="-2.671246000">
        <ele>592.60</ele>
        <time>2015-01-17T10:05:16Z</time>
      </trkpt>
      <trkpt lat="42.408697000" lon="-2.671234000">
        <ele>592.90</ele>
        <time>2015-01-17T10:05:17Z</time>
      </trkpt>
      <trkpt lat="42.408704000" lon="-2.671220000">
        <ele>593.10</ele>
        <time>2015-01-17T10:05:18Z</time>
      </trkpt>
      <trkpt lat="42.408707000" lon="-2.671203000">
        <ele>593.30</ele>
        <time>2015-01-17T10:05:19Z</time>
      </trkpt>
      <trkpt lat="42.408712000" lon="-2.671194000">
        <ele>593.40</ele>
        <time>2015-01-17T10:05:20Z</time>
      </trkpt>
      <trkpt lat="42.408716000" lon="-2.671179000">
        <ele>593.40</ele>
        <time>2015-01-17T10:05:21Z</time>
      </trkpt>
      <trkpt lat="42.408722000" lon="-2.671167000">
        <ele>593.50</ele>
        <time>2015-01-17T10:05:22Z</time>
      </trkpt>
      <trkpt lat="42.408725000" lon="-2.671152000">
        <ele>593.50</ele>
        <time>2015-01-17T10:05:23Z</time>
      </trkpt>
      <trkpt lat="42.408730000" lon="-2.671137000">
        <ele>593.60</ele>
        <time>2015-01-17T10:05:24Z</time>
      </trkpt>
      <trkpt lat="42.408733000" lon="-2.671122000">
        <ele>593.50</ele>
        <time>2015-01-17T10:05:25Z</time>
      </trkpt>
      <trkpt lat="42.408738000" lon="-2.671112000">
        <ele>593.50</ele>
        <time>2015-01-17T10:05:26Z</time>
      </trkpt>
      <trkpt lat="42.408742000" lon="-2.671111000">
        <ele>593.60</ele>
        <time>2015-01-17T10:05:27Z</time>
      </trkpt>
      <trkpt lat="42.408743000" lon="-2.671110000">
        <ele>593.60</ele>
        <time>2015-01-17T10:05:28Z</time>
      </trkpt>
      <trkpt lat="42.408745000" lon="-2.671111000">
        <ele>593.40</ele>
        <time>2015-01-17T10:05:29Z</time>
      </trkpt>
      <trkpt lat="42.408745000" lon="-2.671109000">
        <ele>593.30</ele>
        <time>2015-01-17T10:05:30Z</time>
      </trkpt>
      <trkpt lat="42.408744000" lon="-2.671107000">
        <ele>593.20</ele>
        <time>2015-01-17T10:05:31Z</time>
      </trkpt>
      <trkpt lat="42.408743000" lon="-2.671105000">
        <ele>593.20</ele>
        <time>2015-01-17T10:05:32Z</time>
      </trkpt>
      <trkpt lat="42.408743000" lon="-2.671103000">
        <ele>593.10</ele>
        <time>2015-01-17T10:05:33Z</time>
      </trkpt>
      <trkpt lat="42.408743000" lon="-2.671102000">
        <ele>593.10</ele>
        <time>2015-01-17T10:05:34Z</time>
      </trkpt>
      <trkpt lat="42.408742000" lon="-2.671099000">
        <ele>593.00</ele>
        <time>2015-01-17T10:05:35Z</time>
      </trkpt>
      <trkpt lat="42.408742000" lon="-2.671098000">
        <ele>593.00</ele>
        <time>2015-01-17T10:05:37Z</time>
      </trkpt>
      <trkpt lat="42.408742000" lon="-2.671098000">
        <ele>592.90</ele>
        <time>2015-01-17T10:05:38Z</time>
      </trkpt>
      <trkpt lat="42.408742000" lon="-2.671097000">
        <ele>592.90</ele>
        <time>2015-01-17T10:05:39Z</time>
      </trkpt>
      <trkpt lat="42.408742000" lon="-2.671096000">
        <ele>592.90</ele>
        <time>2015-01-17T10:05:40Z</time>
      </trkpt>
      <trkpt lat="42.408741000" lon="-2.671094000">
        <ele>592.90</ele>
        <time>2015-01-17T10:05:41Z</time>
      </trkpt>
      <trkpt lat="42.408741000" lon="-2.671091000">
        <ele>592.90</ele>
        <time>2015-01-17T10:05:42Z</time>
      </trkpt>
      <trkpt lat="42.408742000" lon="-2.671081000">
        <ele>592.90</ele>
        <time>2015-01-17T10:05:43Z</time>
      </trkpt>
      <trkpt lat="42.408742000" lon="-2.671066000">
        <ele>592.90</ele>
        <time>2015-01-17T10:05:44Z</time>
      </trkpt>
      <trkpt lat="42.408746000" lon="-2.671050000">
        <ele>592.70</ele>
        <time>2015-01-17T10:05:45Z</time>
      </trkpt>
      <trkpt lat="42.408745000" lon="-2.671026000">
        <ele>592.60</ele>
        <time>2015-01-17T10:05:46Z</time>
      </trkpt>
      <trkpt lat="42.408746000" lon="-2.671005000">
        <ele>592.60</ele>
        <time>2015-01-17T10:05:47Z</time>
      </trkpt>
      <trkpt lat="42.408747000" lon="-2.670974000">
        <ele>592.50</ele>
        <time>2015-01-17T10:05:48Z</time>
      </trkpt>
      <trkpt lat="42.408748000" lon="-2.670944000">
        <ele>592.60</ele>
        <time>2015-01-17T10:05:49Z</time>
      </trkpt>
      <trkpt lat="42.408751000" lon="-2.670919000">
        <ele>592.60</ele>
        <time>2015-01-17T10:05:50Z</time>
      </trkpt>
      <trkpt lat="42.408757000" lon="-2.670882000">
        <ele>592.60</ele>
        <time>2015-01-17T10:05:51Z</time>
      </trkpt>
      <trkpt lat="42.408756000" lon="-2.670848000">
        <ele>592.70</ele>
        <time>2015-01-17T10:05:52Z</time>
      </trkpt>
      <trkpt lat="42.408756000" lon="-2.670817000">
        <ele>592.70</ele>
        <time>2015-01-17T10:05:53Z</time>
      </trkpt>
      <trkpt lat="42.408753000" lon="-2.670783000">
        <ele>592.70</ele>
        <time>2015-01-17T10:05:54Z</time>
      </trkpt>
      <trkpt lat="42.408752000" lon="-2.670746000">
        <ele>592.60</ele>
        <time>2015-01-17T10:05:55Z</time>
      </trkpt>
      <trkpt lat="42.408752000" lon="-2.670711000">
        <ele>592.50</ele>
        <time>2015-01-17T10:05:56Z</time>
      </trkpt>
      <trkpt lat="42.408753000" lon="-2.670676000">
        <ele>592.30</ele>
        <time>2015-01-17T10:05:57Z</time>
      </trkpt>
      <trkpt lat="42.408754000" lon="-2.670638000">
        <ele>592.20</ele>
        <time>2015-01-17T10:05:58Z</time>
      </trkpt>
      <trkpt lat="42.408755000" lon="-2.670603000">
        <ele>592.10</ele>
        <time>2015-01-17T10:05:59Z</time>
      </trkpt>
      <trkpt lat="42.408758000" lon="-2.670569000">
        <ele>592.00</ele>
        <time>2015-01-17T10:06:00Z</time>
      </trkpt>
      <trkpt lat="42.408759000" lon="-2.670536000">
        <ele>592.00</ele>
        <time>2015-01-17T10:06:01Z</time>
      </trkpt>
      <trkpt lat="42.408763000" lon="-2.670504000">
        <ele>592.00</ele>
        <time>2015-01-17T10:06:02Z</time>
      </trkpt>
      <trkpt lat="42.408768000" lon="-2.670476000">
        <ele>591.90</ele>
        <time>2015-01-17T10:06:03Z</time>
      </trkpt>
      <trkpt lat="42.408773000" lon="-2.670447000">
        <ele>591.90</ele>
        <time>2015-01-17T10:06:04Z</time>
      </trkpt>
      <trkpt lat="42.408780000" lon="-2.670422000">
        <ele>592.00</ele>
        <time>2015-01-17T10:06:05Z</time>
      </trkpt>
      <trkpt lat="42.408784000" lon="-2.670398000">
        <ele>592.00</ele>
        <time>2015-01-17T10:06:06Z</time>
      </trkpt>
      <trkpt lat="42.408789000" lon="-2.670380000">
        <ele>591.90</ele>
        <time>2015-01-17T10:06:07Z</time>
      </trkpt>
      <trkpt lat="42.408794000" lon="-2.670359000">
        <ele>591.80</ele>
        <time>2015-01-17T10:06:08Z</time>
      </trkpt>
      <trkpt lat="42.408798000" lon="-2.670339000">
        <ele>591.90</ele>
        <time>2015-01-17T10:06:09Z</time>
      </trkpt>
      <trkpt lat="42.408803000" lon="-2.670318000">
        <ele>591.90</ele>
        <time>2015-01-17T10:06:10Z</time>
      </trkpt>
      <trkpt lat="42.408804000" lon="-2.670294000">
        <ele>592.00</ele>
        <time>2015-01-17T10:06:11Z</time>
      </trkpt>
      <trkpt lat="42.408808000" lon="-2.670273000">
        <ele>592.00</ele>
        <time>2015-01-17T10:06:12Z</time>
      </trkpt>
      <trkpt lat="42.408815000" lon="-2.670254000">
        <ele>592.00</ele>
        <time>2015-01-17T10:06:13Z</time>
      </trkpt>
      <trkpt lat="42.408821000" lon="-2.670232000">
        <ele>592.00</ele>
        <time>2015-01-17T10:06:14Z</time>
      </trkpt>
      <trkpt lat="42.408825000" lon="-2.670213000">
        <ele>591.90</ele>
        <time>2015-01-17T10:06:15Z</time>
      </trkpt>
      <trkpt lat="42.408829000" lon="-2.670210000">
        <ele>591.80</ele>
        <time>2015-01-17T10:06:16Z</time>
      </trkpt>
      <trkpt lat="42.408827000" lon="-2.670209000">
        <ele>591.70</ele>
        <time>2015-01-17T10:06:17Z</time>
      </trkpt>
      <trkpt lat="42.408827000" lon="-2.670209000">
        <ele>591.60</ele>
        <time>2015-01-17T10:06:18Z</time>
      </trkpt>
      <trkpt lat="42.408825000" lon="-2.670207000">
        <ele>591.40</ele>
        <time>2015-01-17T10:06:19Z</time>
      </trkpt>
      <trkpt lat="42.408824000" lon="-2.670205000">
        <ele>591.20</ele>
        <time>2015-01-17T10:06:20Z</time>
      </trkpt>
      <trkpt lat="42.408825000" lon="-2.670203000">
        <ele>591.00</ele>
        <time>2015-01-17T10:06:21Z</time>
      </trkpt>
      <trkpt lat="42.408822000" lon="-2.670197000">
        <ele>590.80</ele>
        <time>2015-01-17T10:06:22Z</time>
      </trkpt>
      <trkpt lat="42.408825000" lon="-2.670195000">
        <ele>590.70</ele>
        <time>2015-01-17T10:06:23Z</time>
      </trkpt>
      <trkpt lat="42.408825000" lon="-2.670195000">
        <ele>590.60</ele>
        <time>2015-01-17T10:06:24Z</time>
      </trkpt>
      <trkpt lat="42.408825000" lon="-2.670196000">
        <ele>590.50</ele>
        <time>2015-01-17T10:06:25Z</time>
      </trkpt>
      <trkpt lat="42.408826000" lon="-2.670197000">
        <ele>590.50</ele>
        <time>2015-01-17T10:06:26Z</time>
      </trkpt>
      <trkpt lat="42.408827000" lon="-2.670196000">
        <ele>590.40</ele>
        <time>2015-01-17T10:06:27Z</time>
      </trkpt>
      <trkpt lat="42.408824000" lon="-2.670194000">
        <ele>590.40</ele>
        <time>2015-01-17T10:06:28Z</time>
      </trkpt>
      <trkpt lat="42.408819000" lon="-2.670194000">
        <ele>590.60</ele>
        <time>2015-01-17T10:06:29Z</time>
      </trkpt>
      <trkpt lat="42.408816000" lon="-2.670193000">
        <ele>590.70</ele>
        <time>2015-01-17T10:06:30Z</time>
      </trkpt>
      <trkpt lat="42.408815000" lon="-2.670189000">
        <ele>590.80</ele>
        <time>2015-01-17T10:06:31Z</time>
      </trkpt>
      <trkpt lat="42.408817000" lon="-2.670185000">
        <ele>590.90</ele>
        <time>2015-01-17T10:06:32Z</time>
      </trkpt>
      <trkpt lat="42.408821000" lon="-2.670185000">
        <ele>591.10</ele>
        <time>2015-01-17T10:06:33Z</time>
      </trkpt>
      <trkpt lat="42.408822000" lon="-2.670181000">
        <ele>591.30</ele>
        <time>2015-01-17T10:06:34Z</time>
      </trkpt>
      <trkpt lat="42.408822000" lon="-2.670179000">
        <ele>591.50</ele>
        <time>2015-01-17T10:06:35Z</time>
      </trkpt>
      <trkpt lat="42.408822000" lon="-2.670179000">
        <ele>591.70</ele>
        <time>2015-01-17T10:06:36Z</time>
      </trkpt>
      <trkpt lat="42.408822000" lon="-2.670180000">
        <ele>591.90</ele>
        <time>2015-01-17T10:06:37Z</time>
      </trkpt>
      <trkpt lat="42.408823000" lon="-2.670185000">
        <ele>592.10</ele>
        <time>2015-01-17T10:06:39Z</time>
      </trkpt>
      <trkpt lat="42.408822000" lon="-2.670188000">
        <ele>592.20</ele>
        <time>2015-01-17T10:06:40Z</time>
      </trkpt>
      <trkpt lat="42.408823000" lon="-2.670188000">
        <ele>592.10</ele>
        <time>2015-01-17T10:06:41Z</time>
      </trkpt>
      <trkpt lat="42.408821000" lon="-2.670189000">
        <ele>592.10</ele>
        <time>2015-01-17T10:06:42Z</time>
      </trkpt>
      <trkpt lat="42.408820000" lon="-2.670194000">
        <ele>592.00</ele>
        <time>2015-01-17T10:06:43Z</time>
      </trkpt>
      <trkpt lat="42.408820000" lon="-2.670194000">
        <ele>591.90</ele>
        <time>2015-01-17T10:06:44Z</time>
      </trkpt>
      <trkpt lat="42.408817000" lon="-2.670195000">
        <ele>591.80</ele>
        <time>2015-01-17T10:06:45Z</time>
      </trkpt>
      <trkpt lat="42.408815000" lon="-2.670196000">
        <ele>591.70</ele>
        <time>2015-01-17T10:06:46Z</time>
      </trkpt>
      <trkpt lat="42.408818000" lon="-2.670194000">
        <ele>591.60</ele>
        <time>2015-01-17T10:06:47Z</time>
      </trkpt>
      <trkpt lat="42.408817000" lon="-2.670192000">
        <ele>591.60</ele>
        <time>2015-01-17T10:06:48Z</time>
      </trkpt>
      <trkpt lat="42.408818000" lon="-2.670194000">
        <ele>591.40</ele>
        <time>2015-01-17T10:06:49Z</time>
      </trkpt>
      <trkpt lat="42.408817000" lon="-2.670194000">
        <ele>591.20</ele>
        <time>2015-01-17T10:06:50Z</time>
      </trkpt>
      <trkpt lat="42.408817000" lon="-2.670193000">
        <ele>591.30</ele>
        <time>2015-01-17T10:06:51Z</time>
      </trkpt>
      <trkpt lat="42.408821000" lon="-2.670196000">
        <ele>591.30</ele>
        <time>2015-01-17T10:06:52Z</time>
      </trkpt>
      <trkpt lat="42.408822000" lon="-2.670197000">
        <ele>591.30</ele>
        <time>2015-01-17T10:06:53Z</time>
      </trkpt>
      <trkpt lat="42.408821000" lon="-2.670194000">
        <ele>591.40</ele>
        <time>2015-01-17T10:06:54Z</time>
      </trkpt>
      <trkpt lat="42.408821000" lon="-2.670191000">
        <ele>591.40</ele>
        <time>2015-01-17T10:06:55Z</time>
      </trkpt>
      <trkpt lat="42.408825000" lon="-2.670188000">
        <ele>591.40</ele>
        <time>2015-01-17T10:06:56Z</time>
      </trkpt>
      <trkpt lat="42.408823000" lon="-2.670189000">
        <ele>591.50</ele>
        <time>2015-01-17T10:06:57Z</time>
      </trkpt>
      <trkpt lat="42.408822000" lon="-2.670192000">
        <ele>591.50</ele>
        <time>2015-01-17T10:06:58Z</time>
      </trkpt>
      <trkpt lat="42.408821000" lon="-2.670197000">
        <ele>591.40</ele>
        <time>2015-01-17T10:06:59Z</time>
      </trkpt>
      <trkpt lat="42.408821000" lon="-2.670193000">
        <ele>591.40</ele>
        <time>2015-01-17T10:07:00Z</time>
      </trkpt>
      <trkpt lat="42.408819000" lon="-2.670187000">
        <ele>591.40</ele>
        <time>2015-01-17T10:07:01Z</time>
      </trkpt>
      <trkpt lat="42.408817000" lon="-2.670186000">
        <ele>591.30</ele>
        <time>2015-01-17T10:07:02Z</time>
      </trkpt>
      <trkpt lat="42.408814000" lon="-2.670186000">
        <ele>591.30</ele>
        <time>2015-01-17T10:07:03Z</time>
      </trkpt>
      <trkpt lat="42.408814000" lon="-2.670184000">
        <ele>591.20</ele>
        <time>2015-01-17T10:07:04Z</time>
      </trkpt>
      <trkpt lat="42.408813000" lon="-2.670186000">
        <ele>591.10</ele>
        <time>2015-01-17T10:07:05Z</time>
      </trkpt>
      <trkpt lat="42.408812000" lon="-2.670188000">
        <ele>591.00</ele>
        <time>2015-01-17T10:07:06Z</time>
      </trkpt>
      <trkpt lat="42.408816000" lon="-2.670189000">
        <ele>591.00</ele>
        <time>2015-01-17T10:07:07Z</time>
      </trkpt>
      <trkpt lat="42.408816000" lon="-2.670188000">
        <ele>590.90</ele>
        <time>2015-01-17T10:07:08Z</time>
      </trkpt>
      <trkpt lat="42.408816000" lon="-2.670188000">
        <ele>590.90</ele>
        <time>2015-01-17T10:07:09Z</time>
      </trkpt>
      <trkpt lat="42.408818000" lon="-2.670186000">
        <ele>590.90</ele>
        <time>2015-01-17T10:07:10Z</time>
      </trkpt>
      <trkpt lat="42.408818000" lon="-2.670186000">
        <ele>590.90</ele>
        <time>2015-01-17T10:07:11Z</time>
      </trkpt>
      <trkpt lat="42.408819000" lon="-2.670187000">
        <ele>590.90</ele>
        <time>2015-01-17T10:07:12Z</time>
      </trkpt>
      <trkpt lat="42.408820000" lon="-2.670188000">
        <ele>590.80</ele>
        <time>2015-01-17T10:07:13Z</time>
      </trkpt>
      <trkpt lat="42.408820000" lon="-2.670189000">
        <ele>590.70</ele>
        <time>2015-01-17T10:07:14Z</time>
      </trkpt>
      <trkpt lat="42.408818000" lon="-2.670189000">
        <ele>590.70</ele>
        <time>2015-01-17T10:07:15Z</time>
      </trkpt>
      <trkpt lat="42.408819000" lon="-2.670188000">
        <ele>590.70</ele>
        <time>2015-01-17T10:07:16Z</time>
      </trkpt>
      <trkpt lat="42.408817000" lon="-2.670191000">
        <ele>590.90</ele>
        <time>2015-01-17T10:07:17Z</time>
      </trkpt>
      <trkpt lat="42.408817000" lon="-2.670196000">
        <ele>591.10</ele>
        <time>2015-01-17T10:07:18Z</time>
      </trkpt>
      <trkpt lat="42.408819000" lon="-2.670198000">
        <ele>591.30</ele>
        <time>2015-01-17T10:07:19Z</time>
      </trkpt>
      <trkpt lat="42.408822000" lon="-2.670201000">
        <ele>591.40</ele>
        <time>2015-01-17T10:07:20Z</time>
      </trkpt>
      <trkpt lat="42.408824000" lon="-2.670206000">
        <ele>591.30</ele>
        <time>2015-01-17T10:07:21Z</time>
      </trkpt>
      <trkpt lat="42.408824000" lon="-2.670208000">
        <ele>591.20</ele>
        <time>2015-01-17T10:07:22Z</time>
      </trkpt>
      <trkpt lat="42.408824000" lon="-2.670209000">
        <ele>591.10</ele>
        <time>2015-01-17T10:07:23Z</time>
      </trkpt>
      <trkpt lat="42.408823000" lon="-2.670210000">
        <ele>591.10</ele>
        <time>2015-01-17T10:07:24Z</time>
      </trkpt>
      <trkpt lat="42.408824000" lon="-2.670212000">
        <ele>591.20</ele>
        <time>2015-01-17T10:07:25Z</time>
      </trkpt>
      <trkpt lat="42.408824000" lon="-2.670212000">
        <ele>591.20</ele>
        <time>2015-01-17T10:07:26Z</time>
      </trkpt>
      <trkpt lat="42.408823000" lon="-2.670209000">
        <ele>591.30</ele>
        <time>2015-01-17T10:07:27Z</time>
      </trkpt>
      <trkpt lat="42.408825000" lon="-2.670209000">
        <ele>591.30</ele>
        <time>2015-01-17T10:07:28Z</time>
      </trkpt>
      <trkpt lat="42.408830000" lon="-2.670211000">
        <ele>591.40</ele>
        <time>2015-01-17T10:07:29Z</time>
      </trkpt>
      <trkpt lat="42.408829000" lon="-2.670205000">
        <ele>591.50</ele>
        <time>2015-01-17T10:07:30Z</time>
      </trkpt>
      <trkpt lat="42.408829000" lon="-2.670203000">
        <ele>591.50</ele>
        <time>2015-01-17T10:07:31Z</time>
      </trkpt>
      <trkpt lat="42.408830000" lon="-2.670201000">
        <ele>591.60</ele>
        <time>2015-01-17T10:07:32Z</time>
      </trkpt>
      <trkpt lat="42.408830000" lon="-2.670202000">
        <ele>591.60</ele>
        <time>2015-01-17T10:07:33Z</time>
      </trkpt>
      <trkpt lat="42.408829000" lon="-2.670202000">
        <ele>591.60</ele>
        <time>2015-01-17T10:07:34Z</time>
      </trkpt>
      <trkpt lat="42.408829000" lon="-2.670203000">
        <ele>591.60</ele>
        <time>2015-01-17T10:07:35Z</time>
      </trkpt>
      <trkpt lat="42.408827000" lon="-2.670206000">
        <ele>591.60</ele>
        <time>2015-01-17T10:07:36Z</time>
      </trkpt>
      <trkpt lat="42.408826000" lon="-2.670208000">
        <ele>591.50</ele>
        <time>2015-01-17T10:07:37Z</time>
      </trkpt>
      <trkpt lat="42.408823000" lon="-2.670207000">
        <ele>591.50</ele>
        <time>2015-01-17T10:07:38Z</time>
      </trkpt>
      <trkpt lat="42.408824000" lon="-2.670208000">
        <ele>591.40</ele>
        <time>2015-01-17T10:07:39Z</time>
      </trkpt>
      <trkpt lat="42.408825000" lon="-2.670210000">
        <ele>591.30</ele>
        <time>2015-01-17T10:07:41Z</time>
      </trkpt>
      <trkpt lat="42.408828000" lon="-2.670209000">
        <ele>591.30</ele>
        <time>2015-01-17T10:07:42Z</time>
      </trkpt>
      <trkpt lat="42.408830000" lon="-2.670206000">
        <ele>591.30</ele>
        <time>2015-01-17T10:07:43Z</time>
      </trkpt>
      <trkpt lat="42.408831000" lon="-2.670201000">
        <ele>591.20</ele>
        <time>2015-01-17T10:07:44Z</time>
      </trkpt>
      <trkpt lat="42.408835000" lon="-2.670197000">
        <ele>591.30</ele>
        <time>2015-01-17T10:07:45Z</time>
      </trkpt>
      <trkpt lat="42.408839000" lon="-2.670190000">
        <ele>591.30</ele>
        <time>2015-01-17T10:07:46Z</time>
      </trkpt>
      <trkpt lat="42.408841000" lon="-2.670188000">
        <ele>591.40</ele>
        <time>2015-01-17T10:07:47Z</time>
      </trkpt>
      <trkpt lat="42.408843000" lon="-2.670180000">
        <ele>591.60</ele>
        <time>2015-01-17T10:07:48Z</time>
      </trkpt>
      <trkpt lat="42.408849000" lon="-2.670166000">
        <ele>591.50</ele>
        <time>2015-01-17T10:07:49Z</time>
      </trkpt>
      <trkpt lat="42.408855000" lon="-2.670148000">
        <ele>591.50</ele>
        <time>2015-01-17T10:07:50Z</time>
      </trkpt>
      <trkpt lat="42.408860000" lon="-2.670130000">
        <ele>591.40</ele>
        <time>2015-01-17T10:07:51Z</time>
      </trkpt>
      <trkpt lat="42.408866000" lon="-2.670108000">
        <ele>591.40</ele>
        <time>2015-01-17T10:07:52Z</time>
      </trkpt>
      <trkpt lat="42.408874000" lon="-2.670087000">
        <ele>591.40</ele>
        <time>2015-01-17T10:07:53Z</time>
      </trkpt>
      <trkpt lat="42.408878000" lon="-2.670071000">
        <ele>591.40</ele>
        <time>2015-01-17T10:07:54Z</time>
      </trkpt>
      <trkpt lat="42.408886000" lon="-2.670058000">
        <ele>591.40</ele>
        <time>2015-01-17T10:07:55Z</time>
      </trkpt>
      <trkpt lat="42.408890000" lon="-2.670045000">
        <ele>591.50</ele>
        <time>2015-01-17T10:07:56Z</time>
      </trkpt>
      <trkpt lat="42.408896000" lon="-2.670033000">
        <ele>591.50</ele>
        <time>2015-01-17T10:07:57Z</time>
      </trkpt>
      <trkpt lat="42.408902000" lon="-2.670020000">
        <ele>591.50</ele>
        <time>2015-01-17T10:07:58Z</time>
      </trkpt>
      <trkpt lat="42.408908000" lon="-2.670004000">
        <ele>591.50</ele>
        <time>2015-01-17T10:07:59Z</time>
      </trkpt>
      <trkpt lat="42.408910000" lon="-2.669986000">
        <ele>591.50</ele>
        <time>2015-01-17T10:08:00Z</time>
      </trkpt>
      <trkpt lat="42.408911000" lon="-2.669971000">
        <ele>591.50</ele>
        <time>2015-01-17T10:08:01Z</time>
      </trkpt>
      <trkpt lat="42.408911000" lon="-2.669953000">
        <ele>591.40</ele>
        <time>2015-01-17T10:08:02Z</time>
      </trkpt>
      <trkpt lat="42.408902000" lon="-2.669937000">
        <ele>591.30</ele>
        <time>2015-01-17T10:08:03Z</time>
      </trkpt>
      <trkpt lat="42.408894000" lon="-2.669923000">
        <ele>591.20</ele>
        <time>2015-01-17T10:08:04Z</time>
      </trkpt>
      <trkpt lat="42.408887000" lon="-2.669908000">
        <ele>591.00</ele>
        <time>2015-01-17T10:08:05Z</time>
      </trkpt>
      <trkpt lat="42.408877000" lon="-2.669895000">
        <ele>590.80</ele>
        <time>2015-01-17T10:08:06Z</time>
      </trkpt>
      <trkpt lat="42.408864000" lon="-2.669874000">
        <ele>590.70</ele>
        <time>2015-01-17T10:08:07Z</time>
      </trkpt>
      <trkpt lat="42.408855000" lon="-2.669850000">
        <ele>590.70</ele>
        <time>2015-01-17T10:08:08Z</time>
      </trkpt>
      <trkpt lat="42.408845000" lon="-2.669830000">
        <ele>590.60</ele>
        <time>2015-01-17T10:08:09Z</time>
      </trkpt>
      <trkpt lat="42.408830000" lon="-2.669814000">
        <ele>590.60</ele>
        <time>2015-01-17T10:08:10Z</time>
      </trkpt>
      <trkpt lat="42.408820000" lon="-2.669802000">
        <ele>590.60</ele>
        <time>2015-01-17T10:08:11Z</time>
      </trkpt>
      <trkpt lat="42.408807000" lon="-2.669786000">
        <ele>590.50</ele>
        <time>2015-01-17T10:08:12Z</time>
      </trkpt>
      <trkpt lat="42.408796000" lon="-2.669767000">
        <ele>590.50</ele>
        <time>2015-01-17T10:08:13Z</time>
      </trkpt>
      <trkpt lat="42.408784000" lon="-2.669751000">
        <ele>590.50</ele>
        <time>2015-01-17T10:08:14Z</time>
      </trkpt>
      <trkpt lat="42.408774000" lon="-2.669730000">
        <ele>590.40</ele>
        <time>2015-01-17T10:08:15Z</time>
      </trkpt>
      <trkpt lat="42.408763000" lon="-2.669711000">
        <ele>590.30</ele>
        <time>2015-01-17T10:08:16Z</time>
      </trkpt>
      <trkpt lat="42.408752000" lon="-2.669690000">
        <ele>590.30</ele>
        <time>2015-01-17T10:08:17Z</time>
      </trkpt>
      <trkpt lat="42.408745000" lon="-2.669666000">
        <ele>590.20</ele>
        <time>2015-01-17T10:08:18Z</time>
      </trkpt>
      <trkpt lat="42.408735000" lon="-2.669646000">
        <ele>590.40</ele>
        <time>2015-01-17T10:08:19Z</time>
      </trkpt>
      <trkpt lat="42.408729000" lon="-2.669621000">
        <ele>590.50</ele>
        <time>2015-01-17T10:08:20Z</time>
      </trkpt>
      <trkpt lat="42.408722000" lon="-2.669595000">
        <ele>590.60</ele>
        <time>2015-01-17T10:08:21Z</time>
      </trkpt>
      <trkpt lat="42.408715000" lon="-2.669569000">
        <ele>590.70</ele>
        <time>2015-01-17T10:08:22Z</time>
      </trkpt>
      <trkpt lat="42.408706000" lon="-2.669542000">
        <ele>590.80</ele>
        <time>2015-01-17T10:08:23Z</time>
      </trkpt>
      <trkpt lat="42.408699000" lon="-2.669511000">
        <ele>590.80</ele>
        <time>2015-01-17T10:08:24Z</time>
      </trkpt>
      <trkpt lat="42.408690000" lon="-2.669482000">
        <ele>591.00</ele>
        <time>2015-01-17T10:08:25Z</time>
      </trkpt>
      <trkpt lat="42.408684000" lon="-2.669451000">
        <ele>591.10</ele>
        <time>2015-01-17T10:08:26Z</time>
      </trkpt>
      <trkpt lat="42.408674000" lon="-2.669420000">
        <ele>591.30</ele>
        <time>2015-01-17T10:08:27Z</time>
      </trkpt>
      <trkpt lat="42.408665000" lon="-2.669387000">
        <ele>591.50</ele>
        <time>2015-01-17T10:08:28Z</time>
      </trkpt>
      <trkpt lat="42.408657000" lon="-2.669355000">
        <ele>591.60</ele>
        <time>2015-01-17T10:08:29Z</time>
      </trkpt>
      <trkpt lat="42.408648000" lon="-2.669324000">
        <ele>591.70</ele>
        <time>2015-01-17T10:08:30Z</time>
      </trkpt>
      <trkpt lat="42.408636000" lon="-2.669293000">
        <ele>591.80</ele>
        <time>2015-01-17T10:08:31Z</time>
      </trkpt>
      <trkpt lat="42.408624000" lon="-2.669261000">
        <ele>591.80</ele>
        <time>2015-01-17T10:08:32Z</time>
      </trkpt>
      <trkpt lat="42.408612000" lon="-2.669229000">
        <ele>591.90</ele>
        <time>2015-01-17T10:08:33Z</time>
      </trkpt>
      <trkpt lat="42.408600000" lon="-2.669199000">
        <ele>592.00</ele>
        <time>2015-01-17T10:08:34Z</time>
      </trkpt>
      <trkpt lat="42.408589000" lon="-2.669170000">
        <ele>592.10</ele>
        <time>2015-01-17T10:08:35Z</time>
      </trkpt>
      <trkpt lat="42.408574000" lon="-2.669137000">
        <ele>592.10</ele>
        <time>2015-01-17T10:08:36Z</time>
      </trkpt>
      <trkpt lat="42.408561000" lon="-2.669105000">
        <ele>592.30</ele>
        <time>2015-01-17T10:08:37Z</time>
      </trkpt>
      <trkpt lat="42.408549000" lon="-2.669072000">
        <ele>592.50</ele>
        <time>2015-01-17T10:08:38Z</time>
      </trkpt>
      <trkpt lat="42.408533000" lon="-2.669035000">
        <ele>592.60</ele>
        <time>2015-01-17T10:08:39Z</time>
      </trkpt>
      <trkpt lat="42.408516000" lon="-2.668999000">
        <ele>592.80</ele>
        <time>2015-01-17T10:08:40Z</time>
      </trkpt>
      <trkpt lat="42.408488000" lon="-2.668922000">
        <ele>593.10</ele>
        <time>2015-01-17T10:08:42Z</time>
      </trkpt>
      <trkpt lat="42.408476000" lon="-2.668882000">
        <ele>593.30</ele>
        <time>2015-01-17T10:08:43Z</time>
      </trkpt>
      <trkpt lat="42.408461000" lon="-2.668846000">
        <ele>593.40</ele>
        <time>2015-01-17T10:08:44Z</time>
      </trkpt>
      <trkpt lat="42.408448000" lon="-2.668809000">
        <ele>593.60</ele>
        <time>2015-01-17T10:08:45Z</time>
      </trkpt>
      <trkpt lat="42.408433000" lon="-2.668770000">
        <ele>593.80</ele>
        <time>2015-01-17T10:08:46Z</time>
      </trkpt>
      <trkpt lat="42.408418000" lon="-2.668732000">
        <ele>593.80</ele>
        <time>2015-01-17T10:08:47Z</time>
      </trkpt>
      <trkpt lat="42.408404000" lon="-2.668692000">
        <ele>593.80</ele>
        <time>2015-01-17T10:08:48Z</time>
      </trkpt>
      <trkpt lat="42.408392000" lon="-2.668653000">
        <ele>593.90</ele>
        <time>2015-01-17T10:08:49Z</time>
      </trkpt>
      <trkpt lat="42.408378000" lon="-2.668615000">
        <ele>593.90</ele>
        <time>2015-01-17T10:08:50Z</time>
      </trkpt>
      <trkpt lat="42.408364000" lon="-2.668574000">
        <ele>593.80</ele>
        <time>2015-01-17T10:08:51Z</time>
      </trkpt>
      <trkpt lat="42.408352000" lon="-2.668533000">
        <ele>593.80</ele>
        <time>2015-01-17T10:08:52Z</time>
      </trkpt>
      <trkpt lat="42.408340000" lon="-2.668492000">
        <ele>593.90</ele>
        <time>2015-01-17T10:08:53Z</time>
      </trkpt>
      <trkpt lat="42.408329000" lon="-2.668450000">
        <ele>593.90</ele>
        <time>2015-01-17T10:08:54Z</time>
      </trkpt>
      <trkpt lat="42.408321000" lon="-2.668407000">
        <ele>593.80</ele>
        <time>2015-01-17T10:08:55Z</time>
      </trkpt>
      <trkpt lat="42.408314000" lon="-2.668366000">
        <ele>593.80</ele>
        <time>2015-01-17T10:08:56Z</time>
      </trkpt>
      <trkpt lat="42.408306000" lon="-2.668325000">
        <ele>593.90</ele>
        <time>2015-01-17T10:08:57Z</time>
      </trkpt>
      <trkpt lat="42.408296000" lon="-2.668283000">
        <ele>594.00</ele>
        <time>2015-01-17T10:08:58Z</time>
      </trkpt>
      <trkpt lat="42.408288000" lon="-2.668239000">
        <ele>594.10</ele>
        <time>2015-01-17T10:08:59Z</time>
      </trkpt>
      <trkpt lat="42.408281000" lon="-2.668193000">
        <ele>594.30</ele>
        <time>2015-01-17T10:09:00Z</time>
      </trkpt>
      <trkpt lat="42.408272000" lon="-2.668146000">
        <ele>594.40</ele>
        <time>2015-01-17T10:09:01Z</time>
      </trkpt>
      <trkpt lat="42.408263000" lon="-2.668099000">
        <ele>594.50</ele>
        <time>2015-01-17T10:09:02Z</time>
      </trkpt>
      <trkpt lat="42.408252000" lon="-2.668052000">
        <ele>594.40</ele>
        <time>2015-01-17T10:09:03Z</time>
      </trkpt>
      <trkpt lat="42.408243000" lon="-2.668009000">
        <ele>594.40</ele>
        <time>2015-01-17T10:09:04Z</time>
      </trkpt>
      <trkpt lat="42.408231000" lon="-2.667966000">
        <ele>594.30</ele>
        <time>2015-01-17T10:09:05Z</time>
      </trkpt>
      <trkpt lat="42.408221000" lon="-2.667922000">
        <ele>594.30</ele>
        <time>2015-01-17T10:09:06Z</time>
      </trkpt>
      <trkpt lat="42.408209000" lon="-2.667879000">
        <ele>594.40</ele>
        <time>2015-01-17T10:09:07Z</time>
      </trkpt>
      <trkpt lat="42.408200000" lon="-2.667834000">
        <ele>594.40</ele>
        <time>2015-01-17T10:09:08Z</time>
      </trkpt>
      <trkpt lat="42.408190000" lon="-2.667790000">
        <ele>594.40</ele>
        <time>2015-01-17T10:09:09Z</time>
      </trkpt>
      <trkpt lat="42.408179000" lon="-2.667747000">
        <ele>594.40</ele>
        <time>2015-01-17T10:09:10Z</time>
      </trkpt>
      <trkpt lat="42.408169000" lon="-2.667705000">
        <ele>594.50</ele>
        <time>2015-01-17T10:09:11Z</time>
      </trkpt>
      <trkpt lat="42.408159000" lon="-2.667661000">
        <ele>594.50</ele>
        <time>2015-01-17T10:09:12Z</time>
      </trkpt>
      <trkpt lat="42.408150000" lon="-2.667618000">
        <ele>594.60</ele>
        <time>2015-01-17T10:09:13Z</time>
      </trkpt>
      <trkpt lat="42.408138000" lon="-2.667574000">
        <ele>594.80</ele>
        <time>2015-01-17T10:09:14Z</time>
      </trkpt>
      <trkpt lat="42.408124000" lon="-2.667534000">
        <ele>594.80</ele>
        <time>2015-01-17T10:09:15Z</time>
      </trkpt>
      <trkpt lat="42.408112000" lon="-2.667493000">
        <ele>594.90</ele>
        <time>2015-01-17T10:09:16Z</time>
      </trkpt>
      <trkpt lat="42.408098000" lon="-2.667452000">
        <ele>595.00</ele>
        <time>2015-01-17T10:09:17Z</time>
      </trkpt>
      <trkpt lat="42.408080000" lon="-2.667414000">
        <ele>595.00</ele>
        <time>2015-01-17T10:09:18Z</time>
      </trkpt>
      <trkpt lat="42.408066000" lon="-2.667373000">
        <ele>595.10</ele>
        <time>2015-01-17T10:09:19Z</time>
      </trkpt>
      <trkpt lat="42.408052000" lon="-2.667334000">
        <ele>595.20</ele>
        <time>2015-01-17T10:09:20Z</time>
      </trkpt>
      <trkpt lat="42.408041000" lon="-2.667298000">
        <ele>595.30</ele>
        <time>2015-01-17T10:09:21Z</time>
      </trkpt>
      <trkpt lat="42.408031000" lon="-2.667262000">
        <ele>595.30</ele>
        <time>2015-01-17T10:09:22Z</time>
      </trkpt>
      <trkpt lat="42.408016000" lon="-2.667225000">
        <ele>595.40</ele>
        <time>2015-01-17T10:09:23Z</time>
      </trkpt>
      <trkpt lat="42.408003000" lon="-2.667188000">
        <ele>595.40</ele>
        <time>2015-01-17T10:09:24Z</time>
      </trkpt>
      <trkpt lat="42.407990000" lon="-2.667153000">
        <ele>595.50</ele>
        <time>2015-01-17T10:09:25Z</time>
      </trkpt>
      <trkpt lat="42.407975000" lon="-2.667119000">
        <ele>595.70</ele>
        <time>2015-01-17T10:09:26Z</time>
      </trkpt>
      <trkpt lat="42.407964000" lon="-2.667085000">
        <ele>595.60</ele>
        <time>2015-01-17T10:09:27Z</time>
      </trkpt>
      <trkpt lat="42.407949000" lon="-2.667050000">
        <ele>595.60</ele>
        <time>2015-01-17T10:09:28Z</time>
      </trkpt>
      <trkpt lat="42.407934000" lon="-2.667019000">
        <ele>595.60</ele>
        <time>2015-01-17T10:09:29Z</time>
      </trkpt>
      <trkpt lat="42.407920000" lon="-2.666985000">
        <ele>595.60</ele>
        <time>2015-01-17T10:09:30Z</time>
      </trkpt>
      <trkpt lat="42.407904000" lon="-2.666951000">
        <ele>595.60</ele>
        <time>2015-01-17T10:09:31Z</time>
      </trkpt>
      <trkpt lat="42.407889000" lon="-2.666915000">
        <ele>595.60</ele>
        <time>2015-01-17T10:09:32Z</time>
      </trkpt>
      <trkpt lat="42.407876000" lon="-2.666879000">
        <ele>595.60</ele>
        <time>2015-01-17T10:09:33Z</time>
      </trkpt>
      <trkpt lat="42.407864000" lon="-2.666845000">
        <ele>595.60</ele>
        <time>2015-01-17T10:09:34Z</time>
      </trkpt>
      <trkpt lat="42.407851000" lon="-2.666811000">
        <ele>595.60</ele>
        <time>2015-01-17T10:09:35Z</time>
      </trkpt>
      <trkpt lat="42.407840000" lon="-2.666773000">
        <ele>595.60</ele>
        <time>2015-01-17T10:09:36Z</time>
      </trkpt>
      <trkpt lat="42.407831000" lon="-2.666737000">
        <ele>595.60</ele>
        <time>2015-01-17T10:09:37Z</time>
      </trkpt>
      <trkpt lat="42.407822000" lon="-2.666701000">
        <ele>595.70</ele>
        <time>2015-01-17T10:09:38Z</time>
      </trkpt>
      <trkpt lat="42.407813000" lon="-2.666665000">
        <ele>595.80</ele>
        <time>2015-01-17T10:09:39Z</time>
      </trkpt>
      <trkpt lat="42.407804000" lon="-2.666630000">
        <ele>595.90</ele>
        <time>2015-01-17T10:09:40Z</time>
      </trkpt>
      <trkpt lat="42.407793000" lon="-2.666595000">
        <ele>596.00</ele>
        <time>2015-01-17T10:09:41Z</time>
      </trkpt>
      <trkpt lat="42.407772000" lon="-2.666524000">
        <ele>596.10</ele>
        <time>2015-01-17T10:09:43Z</time>
      </trkpt>
      <trkpt lat="42.407764000" lon="-2.666490000">
        <ele>596.10</ele>
        <time>2015-01-17T10:09:44Z</time>
      </trkpt>
      <trkpt lat="42.407753000" lon="-2.666455000">
        <ele>596.10</ele>
        <time>2015-01-17T10:09:45Z</time>
      </trkpt>
      <trkpt lat="42.407743000" lon="-2.666419000">
        <ele>596.20</ele>
        <time>2015-01-17T10:09:46Z</time>
      </trkpt>
      <trkpt lat="42.407732000" lon="-2.666384000">
        <ele>596.50</ele>
        <time>2015-01-17T10:09:47Z</time>
      </trkpt>
      <trkpt lat="42.407720000" lon="-2.666353000">
        <ele>596.80</ele>
        <time>2015-01-17T10:09:48Z</time>
      </trkpt>
      <trkpt lat="42.407711000" lon="-2.666318000">
        <ele>597.00</ele>
        <time>2015-01-17T10:09:49Z</time>
      </trkpt>
      <trkpt lat="42.407702000" lon="-2.666285000">
        <ele>597.10</ele>
        <time>2015-01-17T10:09:50Z</time>
      </trkpt>
      <trkpt lat="42.407691000" lon="-2.666253000">
        <ele>597.10</ele>
        <time>2015-01-17T10:09:51Z</time>
      </trkpt>
      <trkpt lat="42.407677000" lon="-2.666219000">
        <ele>597.00</ele>
        <time>2015-01-17T10:09:52Z</time>
      </trkpt>
      <trkpt lat="42.407667000" lon="-2.666187000">
        <ele>597.00</ele>
        <time>2015-01-17T10:09:53Z</time>
      </trkpt>
      <trkpt lat="42.407657000" lon="-2.666156000">
        <ele>597.00</ele>
        <time>2015-01-17T10:09:54Z</time>
      </trkpt>
      <trkpt lat="42.407645000" lon="-2.666121000">
        <ele>597.20</ele>
        <time>2015-01-17T10:09:55Z</time>
      </trkpt>
      <trkpt lat="42.407632000" lon="-2.666087000">
        <ele>597.40</ele>
        <time>2015-01-17T10:09:56Z</time>
      </trkpt>
      <trkpt lat="42.407622000" lon="-2.666054000">
        <ele>597.50</ele>
        <time>2015-01-17T10:09:57Z</time>
      </trkpt>
      <trkpt lat="42.407609000" lon="-2.666020000">
        <ele>597.70</ele>
        <time>2015-01-17T10:09:58Z</time>
      </trkpt>
      <trkpt lat="42.407599000" lon="-2.665985000">
        <ele>597.80</ele>
        <time>2015-01-17T10:09:59Z</time>
      </trkpt>
      <trkpt lat="42.407591000" lon="-2.665952000">
        <ele>598.00</ele>
        <time>2015-01-17T10:10:00Z</time>
      </trkpt>
      <trkpt lat="42.407582000" lon="-2.665923000">
        <ele>598.10</ele>
        <time>2015-01-17T10:10:01Z</time>
      </trkpt>
      <trkpt lat="42.407573000" lon="-2.665888000">
        <ele>598.10</ele>
        <time>2015-01-17T10:10:02Z</time>
      </trkpt>
      <trkpt lat="42.407561000" lon="-2.665857000">
        <ele>598.20</ele>
        <time>2015-01-17T10:10:03Z</time>
      </trkpt>
      <trkpt lat="42.407552000" lon="-2.665828000">
        <ele>598.30</ele>
        <time>2015-01-17T10:10:04Z</time>
      </trkpt>
      <trkpt lat="42.407542000" lon="-2.665796000">
        <ele>598.40</ele>
        <time>2015-01-17T10:10:05Z</time>
      </trkpt>
      <trkpt lat="42.407530000" lon="-2.665761000">
        <ele>598.40</ele>
        <time>2015-01-17T10:10:06Z</time>
      </trkpt>
      <trkpt lat="42.407520000" lon="-2.665730000">
        <ele>598.60</ele>
        <time>2015-01-17T10:10:07Z</time>
      </trkpt>
      <trkpt lat="42.407508000" lon="-2.665700000">
        <ele>598.70</ele>
        <time>2015-01-17T10:10:08Z</time>
      </trkpt>
      <trkpt lat="42.407496000" lon="-2.665667000">
        <ele>598.80</ele>
        <time>2015-01-17T10:10:09Z</time>
      </trkpt>
      <trkpt lat="42.407488000" lon="-2.665636000">
        <ele>598.80</ele>
        <time>2015-01-17T10:10:10Z</time>
      </trkpt>
      <trkpt lat="42.407481000" lon="-2.665601000">
        <ele>598.90</ele>
        <time>2015-01-17T10:10:11Z</time>
      </trkpt>
      <trkpt lat="42.407473000" lon="-2.665567000">
        <ele>598.90</ele>
        <time>2015-01-17T10:10:12Z</time>
      </trkpt>
      <trkpt lat="42.407463000" lon="-2.665531000">
        <ele>598.90</ele>
        <time>2015-01-17T10:10:13Z</time>
      </trkpt>
      <trkpt lat="42.407454000" lon="-2.665495000">
        <ele>598.90</ele>
        <time>2015-01-17T10:10:14Z</time>
      </trkpt>
      <trkpt lat="42.407444000" lon="-2.665456000">
        <ele>599.10</ele>
        <time>2015-01-17T10:10:15Z</time>
      </trkpt>
      <trkpt lat="42.407433000" lon="-2.665416000">
        <ele>599.20</ele>
        <time>2015-01-17T10:10:16Z</time>
      </trkpt>
      <trkpt lat="42.407424000" lon="-2.665381000">
        <ele>599.30</ele>
        <time>2015-01-17T10:10:17Z</time>
      </trkpt>
      <trkpt lat="42.407416000" lon="-2.665344000">
        <ele>599.40</ele>
        <time>2015-01-17T10:10:18Z</time>
      </trkpt>
      <trkpt lat="42.407409000" lon="-2.665310000">
        <ele>599.50</ele>
        <time>2015-01-17T10:10:19Z</time>
      </trkpt>
      <trkpt lat="42.407398000" lon="-2.665276000">
        <ele>599.60</ele>
        <time>2015-01-17T10:10:20Z</time>
      </trkpt>
      <trkpt lat="42.407386000" lon="-2.665245000">
        <ele>599.60</ele>
        <time>2015-01-17T10:10:21Z</time>
      </trkpt>
      <trkpt lat="42.407374000" lon="-2.665213000">
        <ele>599.60</ele>
        <time>2015-01-17T10:10:22Z</time>
      </trkpt>
      <trkpt lat="42.407364000" lon="-2.665180000">
        <ele>599.70</ele>
        <time>2015-01-17T10:10:23Z</time>
      </trkpt>
      <trkpt lat="42.407351000" lon="-2.665146000">
        <ele>599.70</ele>
        <time>2015-01-17T10:10:24Z</time>
      </trkpt>
      <trkpt lat="42.407337000" lon="-2.665113000">
        <ele>599.70</ele>
        <time>2015-01-17T10:10:25Z</time>
      </trkpt>
      <trkpt lat="42.407325000" lon="-2.665082000">
        <ele>599.80</ele>
        <time>2015-01-17T10:10:26Z</time>
      </trkpt>
      <trkpt lat="42.407311000" lon="-2.665049000">
        <ele>599.80</ele>
        <time>2015-01-17T10:10:27Z</time>
      </trkpt>
      <trkpt lat="42.407296000" lon="-2.665019000">
        <ele>599.90</ele>
        <time>2015-01-17T10:10:28Z</time>
      </trkpt>
      <trkpt lat="42.407279000" lon="-2.664989000">
        <ele>600.00</ele>
        <time>2015-01-17T10:10:29Z</time>
      </trkpt>
      <trkpt lat="42.407263000" lon="-2.664960000">
        <ele>600.10</ele>
        <time>2015-01-17T10:10:30Z</time>
      </trkpt>
      <trkpt lat="42.407248000" lon="-2.664935000">
        <ele>600.30</ele>
        <time>2015-01-17T10:10:31Z</time>
      </trkpt>
      <trkpt lat="42.407233000" lon="-2.664911000">
        <ele>600.40</ele>
        <time>2015-01-17T10:10:32Z</time>
      </trkpt>
      <trkpt lat="42.407217000" lon="-2.664888000">
        <ele>600.60</ele>
        <time>2015-01-17T10:10:33Z</time>
      </trkpt>
      <trkpt lat="42.407198000" lon="-2.664859000">
        <ele>600.70</ele>
        <time>2015-01-17T10:10:34Z</time>
      </trkpt>
      <trkpt lat="42.407179000" lon="-2.664833000">
        <ele>600.70</ele>
        <time>2015-01-17T10:10:35Z</time>
      </trkpt>
      <trkpt lat="42.407161000" lon="-2.664807000">
        <ele>600.80</ele>
        <time>2015-01-17T10:10:36Z</time>
      </trkpt>
      <trkpt lat="42.407144000" lon="-2.664781000">
        <ele>600.70</ele>
        <time>2015-01-17T10:10:37Z</time>
      </trkpt>
      <trkpt lat="42.407128000" lon="-2.664753000">
        <ele>600.60</ele>
        <time>2015-01-17T10:10:38Z</time>
      </trkpt>
      <trkpt lat="42.407107000" lon="-2.664725000">
        <ele>600.60</ele>
        <time>2015-01-17T10:10:39Z</time>
      </trkpt>
      <trkpt lat="42.407086000" lon="-2.664696000">
        <ele>600.60</ele>
        <time>2015-01-17T10:10:40Z</time>
      </trkpt>
      <trkpt lat="42.407063000" lon="-2.664669000">
        <ele>600.60</ele>
        <time>2015-01-17T10:10:41Z</time>
      </trkpt>
      <trkpt lat="42.407043000" lon="-2.664643000">
        <ele>600.70</ele>
        <time>2015-01-17T10:10:42Z</time>
      </trkpt>
      <trkpt lat="42.407025000" lon="-2.664614000">
        <ele>600.70</ele>
        <time>2015-01-17T10:10:43Z</time>
      </trkpt>
      <trkpt lat="42.406990000" lon="-2.664560000">
        <ele>600.70</ele>
        <time>2015-01-17T10:10:45Z</time>
      </trkpt>
      <trkpt lat="42.406972000" lon="-2.664532000">
        <ele>600.80</ele>
        <time>2015-01-17T10:10:46Z</time>
      </trkpt>
      <trkpt lat="42.406956000" lon="-2.664501000">
        <ele>600.80</ele>
        <time>2015-01-17T10:10:47Z</time>
      </trkpt>
      <trkpt lat="42.406941000" lon="-2.664473000">
        <ele>600.90</ele>
        <time>2015-01-17T10:10:48Z</time>
      </trkpt>
      <trkpt lat="42.406924000" lon="-2.664444000">
        <ele>601.00</ele>
        <time>2015-01-17T10:10:49Z</time>
      </trkpt>
      <trkpt lat="42.406908000" lon="-2.664417000">
        <ele>601.10</ele>
        <time>2015-01-17T10:10:50Z</time>
      </trkpt>
      <trkpt lat="42.406890000" lon="-2.664386000">
        <ele>601.30</ele>
        <time>2015-01-17T10:10:51Z</time>
      </trkpt>
      <trkpt lat="42.406872000" lon="-2.664356000">
        <ele>601.40</ele>
        <time>2015-01-17T10:10:52Z</time>
      </trkpt>
      <trkpt lat="42.406852000" lon="-2.664330000">
        <ele>601.60</ele>
        <time>2015-01-17T10:10:53Z</time>
      </trkpt>
      <trkpt lat="42.406835000" lon="-2.664305000">
        <ele>601.70</ele>
        <time>2015-01-17T10:10:54Z</time>
      </trkpt>
      <trkpt lat="42.406819000" lon="-2.664282000">
        <ele>601.90</ele>
        <time>2015-01-17T10:10:55Z</time>
      </trkpt>
      <trkpt lat="42.406797000" lon="-2.664263000">
        <ele>602.10</ele>
        <time>2015-01-17T10:10:56Z</time>
      </trkpt>
      <trkpt lat="42.406778000" lon="-2.664239000">
        <ele>602.10</ele>
        <time>2015-01-17T10:10:57Z</time>
      </trkpt>
      <trkpt lat="42.406760000" lon="-2.664217000">
        <ele>602.20</ele>
        <time>2015-01-17T10:10:58Z</time>
      </trkpt>
      <trkpt lat="42.406743000" lon="-2.664199000">
        <ele>602.40</ele>
        <time>2015-01-17T10:10:59Z</time>
      </trkpt>
      <trkpt lat="42.406724000" lon="-2.664178000">
        <ele>602.60</ele>
        <time>2015-01-17T10:11:00Z</time>
      </trkpt>
      <trkpt lat="42.406701000" lon="-2.664158000">
        <ele>602.70</ele>
        <time>2015-01-17T10:11:01Z</time>
      </trkpt>
      <trkpt lat="42.406677000" lon="-2.664137000">
        <ele>602.80</ele>
        <time>2015-01-17T10:11:02Z</time>
      </trkpt>
      <trkpt lat="42.406659000" lon="-2.664113000">
        <ele>602.90</ele>
        <time>2015-01-17T10:11:03Z</time>
      </trkpt>
      <trkpt lat="42.406639000" lon="-2.664096000">
        <ele>602.90</ele>
        <time>2015-01-17T10:11:04Z</time>
      </trkpt>
      <trkpt lat="42.406622000" lon="-2.664081000">
        <ele>602.90</ele>
        <time>2015-01-17T10:11:05Z</time>
      </trkpt>
      <trkpt lat="42.406606000" lon="-2.664067000">
        <ele>602.90</ele>
        <time>2015-01-17T10:11:06Z</time>
      </trkpt>
      <trkpt lat="42.406590000" lon="-2.664050000">
        <ele>602.90</ele>
        <time>2015-01-17T10:11:07Z</time>
      </trkpt>
      <trkpt lat="42.406573000" lon="-2.664034000">
        <ele>602.90</ele>
        <time>2015-01-17T10:11:08Z</time>
      </trkpt>
      <trkpt lat="42.406556000" lon="-2.664018000">
        <ele>603.30</ele>
        <time>2015-01-17T10:11:09Z</time>
      </trkpt>
      <trkpt lat="42.406538000" lon="-2.663998000">
        <ele>603.60</ele>
        <time>2015-01-17T10:11:10Z</time>
      </trkpt>
      <trkpt lat="42.406519000" lon="-2.663982000">
        <ele>603.90</ele>
        <time>2015-01-17T10:11:11Z</time>
      </trkpt>
      <trkpt lat="42.406499000" lon="-2.663963000">
        <ele>604.00</ele>
        <time>2015-01-17T10:11:12Z</time>
      </trkpt>
      <trkpt lat="42.406480000" lon="-2.663945000">
        <ele>604.00</ele>
        <time>2015-01-17T10:11:13Z</time>
      </trkpt>
      <trkpt lat="42.406462000" lon="-2.663930000">
        <ele>604.00</ele>
        <time>2015-01-17T10:11:14Z</time>
      </trkpt>
      <trkpt lat="42.406442000" lon="-2.663911000">
        <ele>604.00</ele>
        <time>2015-01-17T10:11:15Z</time>
      </trkpt>
      <trkpt lat="42.406422000" lon="-2.663892000">
        <ele>604.00</ele>
        <time>2015-01-17T10:11:16Z</time>
      </trkpt>
      <trkpt lat="42.406398000" lon="-2.663874000">
        <ele>604.10</ele>
        <time>2015-01-17T10:11:17Z</time>
      </trkpt>
      <trkpt lat="42.406376000" lon="-2.663855000">
        <ele>604.10</ele>
        <time>2015-01-17T10:11:18Z</time>
      </trkpt>
      <trkpt lat="42.406355000" lon="-2.663835000">
        <ele>604.20</ele>
        <time>2015-01-17T10:11:19Z</time>
      </trkpt>
      <trkpt lat="42.406335000" lon="-2.663816000">
        <ele>604.20</ele>
        <time>2015-01-17T10:11:20Z</time>
      </trkpt>
      <trkpt lat="42.406315000" lon="-2.663801000">
        <ele>604.30</ele>
        <time>2015-01-17T10:11:21Z</time>
      </trkpt>
      <trkpt lat="42.406297000" lon="-2.663781000">
        <ele>604.30</ele>
        <time>2015-01-17T10:11:22Z</time>
      </trkpt>
      <trkpt lat="42.406277000" lon="-2.663759000">
        <ele>604.40</ele>
        <time>2015-01-17T10:11:23Z</time>
      </trkpt>
      <trkpt lat="42.406260000" lon="-2.663738000">
        <ele>604.50</ele>
        <time>2015-01-17T10:11:24Z</time>
      </trkpt>
      <trkpt lat="42.406240000" lon="-2.663718000">
        <ele>604.60</ele>
        <time>2015-01-17T10:11:25Z</time>
      </trkpt>
      <trkpt lat="42.406223000" lon="-2.663699000">
        <ele>604.70</ele>
        <time>2015-01-17T10:11:26Z</time>
      </trkpt>
      <trkpt lat="42.406205000" lon="-2.663683000">
        <ele>604.90</ele>
        <time>2015-01-17T10:11:27Z</time>
      </trkpt>
      <trkpt lat="42.406188000" lon="-2.663664000">
        <ele>605.10</ele>
        <time>2015-01-17T10:11:28Z</time>
      </trkpt>
      <trkpt lat="42.406176000" lon="-2.663644000">
        <ele>605.20</ele>
        <time>2015-01-17T10:11:29Z</time>
      </trkpt>
      <trkpt lat="42.406160000" lon="-2.663622000">
        <ele>605.30</ele>
        <time>2015-01-17T10:11:30Z</time>
      </trkpt>
      <trkpt lat="42.406142000" lon="-2.663605000">
        <ele>605.50</ele>
        <time>2015-01-17T10:11:31Z</time>
      </trkpt>
      <trkpt lat="42.406119000" lon="-2.663586000">
        <ele>605.60</ele>
        <time>2015-01-17T10:11:32Z</time>
      </trkpt>
      <trkpt lat="42.406100000" lon="-2.663567000">
        <ele>606.00</ele>
        <time>2015-01-17T10:11:33Z</time>
      </trkpt>
      <trkpt lat="42.406080000" lon="-2.663553000">
        <ele>606.30</ele>
        <time>2015-01-17T10:11:34Z</time>
      </trkpt>
      <trkpt lat="42.406060000" lon="-2.663540000">
        <ele>606.50</ele>
        <time>2015-01-17T10:11:35Z</time>
      </trkpt>
      <trkpt lat="42.406045000" lon="-2.663528000">
        <ele>606.70</ele>
        <time>2015-01-17T10:11:36Z</time>
      </trkpt>
      <trkpt lat="42.406029000" lon="-2.663513000">
        <ele>606.80</ele>
        <time>2015-01-17T10:11:37Z</time>
      </trkpt>
      <trkpt lat="42.406012000" lon="-2.663497000">
        <ele>606.90</ele>
        <time>2015-01-17T10:11:38Z</time>
      </trkpt>
      <trkpt lat="42.405990000" lon="-2.663484000">
        <ele>606.90</ele>
        <time>2015-01-17T10:11:39Z</time>
      </trkpt>
      <trkpt lat="42.405970000" lon="-2.663473000">
        <ele>606.90</ele>
        <time>2015-01-17T10:11:40Z</time>
      </trkpt>
      <trkpt lat="42.405951000" lon="-2.663460000">
        <ele>607.10</ele>
        <time>2015-01-17T10:11:41Z</time>
      </trkpt>
      <trkpt lat="42.405932000" lon="-2.663445000">
        <ele>607.20</ele>
        <time>2015-01-17T10:11:42Z</time>
      </trkpt>
      <trkpt lat="42.405914000" lon="-2.663429000">
        <ele>607.30</ele>
        <time>2015-01-17T10:11:43Z</time>
      </trkpt>
      <trkpt lat="42.405898000" lon="-2.663417000">
        <ele>607.30</ele>
        <time>2015-01-17T10:11:44Z</time>
      </trkpt>
      <trkpt lat="42.405880000" lon="-2.663404000">
        <ele>607.60</ele>
        <time>2015-01-17T10:11:45Z</time>
      </trkpt>
      <trkpt lat="42.405842000" lon="-2.663372000">
        <ele>607.90</ele>
        <time>2015-01-17T10:11:47Z</time>
      </trkpt>
      <trkpt lat="42.405823000" lon="-2.663361000">
        <ele>608.00</ele>
        <time>2015-01-17T10:11:48Z</time>
      </trkpt>
      <trkpt lat="42.405804000" lon="-2.663349000">
        <ele>608.10</ele>
        <time>2015-01-17T10:11:49Z</time>
      </trkpt>
      <trkpt lat="42.405784000" lon="-2.663338000">
        <ele>608.20</ele>
        <time>2015-01-17T10:11:50Z</time>
      </trkpt>
      <trkpt lat="42.405765000" lon="-2.663321000">
        <ele>608.30</ele>
        <time>2015-01-17T10:11:51Z</time>
      </trkpt>
      <trkpt lat="42.405745000" lon="-2.663305000">
        <ele>608.30</ele>
        <time>2015-01-17T10:11:52Z</time>
      </trkpt>
      <trkpt lat="42.405725000" lon="-2.663291000">
        <ele>608.60</ele>
        <time>2015-01-17T10:11:53Z</time>
      </trkpt>
      <trkpt lat="42.405705000" lon="-2.663278000">
        <ele>608.80</ele>
        <time>2015-01-17T10:11:54Z</time>
      </trkpt>
      <trkpt lat="42.405684000" lon="-2.663260000">
        <ele>609.10</ele>
        <time>2015-01-17T10:11:55Z</time>
      </trkpt>
      <trkpt lat="42.405665000" lon="-2.663244000">
        <ele>609.30</ele>
        <time>2015-01-17T10:11:56Z</time>
      </trkpt>
      <trkpt lat="42.405646000" lon="-2.663223000">
        <ele>609.40</ele>
        <time>2015-01-17T10:11:57Z</time>
      </trkpt>
      <trkpt lat="42.405628000" lon="-2.663206000">
        <ele>609.50</ele>
        <time>2015-01-17T10:11:58Z</time>
      </trkpt>
      <trkpt lat="42.405610000" lon="-2.663194000">
        <ele>609.60</ele>
        <time>2015-01-17T10:11:59Z</time>
      </trkpt>
      <trkpt lat="42.405585000" lon="-2.663186000">
        <ele>609.60</ele>
        <time>2015-01-17T10:12:00Z</time>
      </trkpt>
      <trkpt lat="42.405564000" lon="-2.663172000">
        <ele>609.70</ele>
        <time>2015-01-17T10:12:01Z</time>
      </trkpt>
      <trkpt lat="42.405543000" lon="-2.663164000">
        <ele>609.70</ele>
        <time>2015-01-17T10:12:02Z</time>
      </trkpt>
      <trkpt lat="42.405524000" lon="-2.663150000">
        <ele>609.90</ele>
        <time>2015-01-17T10:12:03Z</time>
      </trkpt>
      <trkpt lat="42.405503000" lon="-2.663137000">
        <ele>610.00</ele>
        <time>2015-01-17T10:12:04Z</time>
      </trkpt>
      <trkpt lat="42.405483000" lon="-2.663121000">
        <ele>610.20</ele>
        <time>2015-01-17T10:12:05Z</time>
      </trkpt>
      <trkpt lat="42.405462000" lon="-2.663105000">
        <ele>610.30</ele>
        <time>2015-01-17T10:12:06Z</time>
      </trkpt>
      <trkpt lat="42.405446000" lon="-2.663095000">
        <ele>610.40</ele>
        <time>2015-01-17T10:12:07Z</time>
      </trkpt>
      <trkpt lat="42.405429000" lon="-2.663084000">
        <ele>610.50</ele>
        <time>2015-01-17T10:12:08Z</time>
      </trkpt>
      <trkpt lat="42.405417000" lon="-2.663058000">
        <ele>610.50</ele>
        <time>2015-01-17T10:12:09Z</time>
      </trkpt>
      <trkpt lat="42.405395000" lon="-2.663037000">
        <ele>610.50</ele>
        <time>2015-01-17T10:12:10Z</time>
      </trkpt>
      <trkpt lat="42.405374000" lon="-2.663020000">
        <ele>610.50</ele>
        <time>2015-01-17T10:12:11Z</time>
      </trkpt>
      <trkpt lat="42.405354000" lon="-2.663008000">
        <ele>610.50</ele>
        <time>2015-01-17T10:12:12Z</time>
      </trkpt>
      <trkpt lat="42.405333000" lon="-2.662993000">
        <ele>610.60</ele>
        <time>2015-01-17T10:12:13Z</time>
      </trkpt>
      <trkpt lat="42.405309000" lon="-2.662983000">
        <ele>610.70</ele>
        <time>2015-01-17T10:12:14Z</time>
      </trkpt>
      <trkpt lat="42.405286000" lon="-2.662971000">
        <ele>610.80</ele>
        <time>2015-01-17T10:12:15Z</time>
      </trkpt>
      <trkpt lat="42.405263000" lon="-2.662958000">
        <ele>610.90</ele>
        <time>2015-01-17T10:12:16Z</time>
      </trkpt>
      <trkpt lat="42.405243000" lon="-2.662949000">
        <ele>611.10</ele>
        <time>2015-01-17T10:12:17Z</time>
      </trkpt>
      <trkpt lat="42.405220000" lon="-2.662936000">
        <ele>611.30</ele>
        <time>2015-01-17T10:12:18Z</time>
      </trkpt>
      <trkpt lat="42.405198000" lon="-2.662927000">
        <ele>611.20</ele>
        <time>2015-01-17T10:12:19Z</time>
      </trkpt>
      <trkpt lat="42.405176000" lon="-2.662914000">
        <ele>611.20</ele>
        <time>2015-01-17T10:12:20Z</time>
      </trkpt>
      <trkpt lat="42.405154000" lon="-2.662902000">
        <ele>611.30</ele>
        <time>2015-01-17T10:12:21Z</time>
      </trkpt>
      <trkpt lat="42.405135000" lon="-2.662891000">
        <ele>611.40</ele>
        <time>2015-01-17T10:12:22Z</time>
      </trkpt>
      <trkpt lat="42.405115000" lon="-2.662876000">
        <ele>611.50</ele>
        <time>2015-01-17T10:12:23Z</time>
      </trkpt>
      <trkpt lat="42.405095000" lon="-2.662865000">
        <ele>611.50</ele>
        <time>2015-01-17T10:12:24Z</time>
      </trkpt>
      <trkpt lat="42.405073000" lon="-2.662856000">
        <ele>611.70</ele>
        <time>2015-01-17T10:12:25Z</time>
      </trkpt>
      <trkpt lat="42.405051000" lon="-2.662844000">
        <ele>611.80</ele>
        <time>2015-01-17T10:12:26Z</time>
      </trkpt>
      <trkpt lat="42.405029000" lon="-2.662834000">
        <ele>611.90</ele>
        <time>2015-01-17T10:12:27Z</time>
      </trkpt>
      <trkpt lat="42.405008000" lon="-2.662824000">
        <ele>612.00</ele>
        <time>2015-01-17T10:12:28Z</time>
      </trkpt>
      <trkpt lat="42.404986000" lon="-2.662817000">
        <ele>612.20</ele>
        <time>2015-01-17T10:12:29Z</time>
      </trkpt>
      <trkpt lat="42.404964000" lon="-2.662809000">
        <ele>612.30</ele>
        <time>2015-01-17T10:12:30Z</time>
      </trkpt>
      <trkpt lat="42.404942000" lon="-2.662800000">
        <ele>612.30</ele>
        <time>2015-01-17T10:12:31Z</time>
      </trkpt>
      <trkpt lat="42.404925000" lon="-2.662790000">
        <ele>612.30</ele>
        <time>2015-01-17T10:12:32Z</time>
      </trkpt>
      <trkpt lat="42.404903000" lon="-2.662781000">
        <ele>612.40</ele>
        <time>2015-01-17T10:12:33Z</time>
      </trkpt>
      <trkpt lat="42.404880000" lon="-2.662771000">
        <ele>612.50</ele>
        <time>2015-01-17T10:12:34Z</time>
      </trkpt>
      <trkpt lat="42.404854000" lon="-2.662762000">
        <ele>612.50</ele>
        <time>2015-01-17T10:12:35Z</time>
      </trkpt>
      <trkpt lat="42.404831000" lon="-2.662748000">
        <ele>612.60</ele>
        <time>2015-01-17T10:12:36Z</time>
      </trkpt>
      <trkpt lat="42.404810000" lon="-2.662737000">
        <ele>612.60</ele>
        <time>2015-01-17T10:12:37Z</time>
      </trkpt>
      <trkpt lat="42.404786000" lon="-2.662723000">
        <ele>612.60</ele>
        <time>2015-01-17T10:12:38Z</time>
      </trkpt>
      <trkpt lat="42.404762000" lon="-2.662712000">
        <ele>612.60</ele>
        <time>2015-01-17T10:12:39Z</time>
      </trkpt>
      <trkpt lat="42.404740000" lon="-2.662697000">
        <ele>612.60</ele>
        <time>2015-01-17T10:12:40Z</time>
      </trkpt>
      <trkpt lat="42.404719000" lon="-2.662685000">
        <ele>612.60</ele>
        <time>2015-01-17T10:12:41Z</time>
      </trkpt>
      <trkpt lat="42.404700000" lon="-2.662677000">
        <ele>612.60</ele>
        <time>2015-01-17T10:12:42Z</time>
      </trkpt>
      <trkpt lat="42.404683000" lon="-2.662667000">
        <ele>612.80</ele>
        <time>2015-01-17T10:12:43Z</time>
      </trkpt>
      <trkpt lat="42.404667000" lon="-2.662650000">
        <ele>613.00</ele>
        <time>2015-01-17T10:12:44Z</time>
      </trkpt>
      <trkpt lat="42.404651000" lon="-2.662642000">
        <ele>613.10</ele>
        <time>2015-01-17T10:12:45Z</time>
      </trkpt>
      <trkpt lat="42.404636000" lon="-2.662634000">
        <ele>613.20</ele>
        <time>2015-01-17T10:12:46Z</time>
      </trkpt>
      <trkpt lat="42.404597000" lon="-2.662602000">
        <ele>613.40</ele>
        <time>2015-01-17T10:12:48Z</time>
      </trkpt>
      <trkpt lat="42.404580000" lon="-2.662592000">
        <ele>613.40</ele>
        <time>2015-01-17T10:12:49Z</time>
      </trkpt>
      <trkpt lat="42.404562000" lon="-2.662578000">
        <ele>613.40</ele>
        <time>2015-01-17T10:12:50Z</time>
      </trkpt>
      <trkpt lat="42.404544000" lon="-2.662563000">
        <ele>613.40</ele>
        <time>2015-01-17T10:12:51Z</time>
      </trkpt>
      <trkpt lat="42.404523000" lon="-2.662548000">
        <ele>613.40</ele>
        <time>2015-01-17T10:12:52Z</time>
      </trkpt>
      <trkpt lat="42.404505000" lon="-2.662538000">
        <ele>613.30</ele>
        <time>2015-01-17T10:12:53Z</time>
      </trkpt>
      <trkpt lat="42.404488000" lon="-2.662531000">
        <ele>613.30</ele>
        <time>2015-01-17T10:12:54Z</time>
      </trkpt>
      <trkpt lat="42.404474000" lon="-2.662521000">
        <ele>613.80</ele>
        <time>2015-01-17T10:12:55Z</time>
      </trkpt>
      <trkpt lat="42.404459000" lon="-2.662510000">
        <ele>614.10</ele>
        <time>2015-01-17T10:12:56Z</time>
      </trkpt>
      <trkpt lat="42.404444000" lon="-2.662500000">
        <ele>614.30</ele>
        <time>2015-01-17T10:12:57Z</time>
      </trkpt>
      <trkpt lat="42.404423000" lon="-2.662492000">
        <ele>614.50</ele>
        <time>2015-01-17T10:12:58Z</time>
      </trkpt>
      <trkpt lat="42.404404000" lon="-2.662491000">
        <ele>614.60</ele>
        <time>2015-01-17T10:12:59Z</time>
      </trkpt>
      <trkpt lat="42.404387000" lon="-2.662484000">
        <ele>614.60</ele>
        <time>2015-01-17T10:13:00Z</time>
      </trkpt>
      <trkpt lat="42.404364000" lon="-2.662479000">
        <ele>614.60</ele>
        <time>2015-01-17T10:13:01Z</time>
      </trkpt>
      <trkpt lat="42.404341000" lon="-2.662482000">
        <ele>614.70</ele>
        <time>2015-01-17T10:13:02Z</time>
      </trkpt>
      <trkpt lat="42.404320000" lon="-2.662493000">
        <ele>614.90</ele>
        <time>2015-01-17T10:13:03Z</time>
      </trkpt>
      <trkpt lat="42.404300000" lon="-2.662510000">
        <ele>615.00</ele>
        <time>2015-01-17T10:13:04Z</time>
      </trkpt>
      <trkpt lat="42.404282000" lon="-2.662531000">
        <ele>615.30</ele>
        <time>2015-01-17T10:13:05Z</time>
      </trkpt>
      <trkpt lat="42.404264000" lon="-2.662552000">
        <ele>615.50</ele>
        <time>2015-01-17T10:13:06Z</time>
      </trkpt>
      <trkpt lat="42.404251000" lon="-2.662580000">
        <ele>615.70</ele>
        <time>2015-01-17T10:13:07Z</time>
      </trkpt>
      <trkpt lat="42.404239000" lon="-2.662612000">
        <ele>615.80</ele>
        <time>2015-01-17T10:13:08Z</time>
      </trkpt>
      <trkpt lat="42.404220000" lon="-2.662635000">
        <ele>616.10</ele>
        <time>2015-01-17T10:13:09Z</time>
      </trkpt>
      <trkpt lat="42.404203000" lon="-2.662662000">
        <ele>616.30</ele>
        <time>2015-01-17T10:13:10Z</time>
      </trkpt>
      <trkpt lat="42.404189000" lon="-2.662693000">
        <ele>616.50</ele>
        <time>2015-01-17T10:13:11Z</time>
      </trkpt>
      <trkpt lat="42.404177000" lon="-2.662722000">
        <ele>616.60</ele>
        <time>2015-01-17T10:13:12Z</time>
      </trkpt>
      <trkpt lat="42.404162000" lon="-2.662753000">
        <ele>616.80</ele>
        <time>2015-01-17T10:13:13Z</time>
      </trkpt>
      <trkpt lat="42.404149000" lon="-2.662781000">
        <ele>617.00</ele>
        <time>2015-01-17T10:13:14Z</time>
      </trkpt>
      <trkpt lat="42.404136000" lon="-2.662804000">
        <ele>617.10</ele>
        <time>2015-01-17T10:13:15Z</time>
      </trkpt>
      <trkpt lat="42.404123000" lon="-2.662828000">
        <ele>617.30</ele>
        <time>2015-01-17T10:13:16Z</time>
      </trkpt>
      <trkpt lat="42.404112000" lon="-2.662855000">
        <ele>617.40</ele>
        <time>2015-01-17T10:13:17Z</time>
      </trkpt>
      <trkpt lat="42.404100000" lon="-2.662885000">
        <ele>617.50</ele>
        <time>2015-01-17T10:13:18Z</time>
      </trkpt>
      <trkpt lat="42.404088000" lon="-2.662912000">
        <ele>617.50</ele>
        <time>2015-01-17T10:13:19Z</time>
      </trkpt>
      <trkpt lat="42.404079000" lon="-2.662938000">
        <ele>617.60</ele>
        <time>2015-01-17T10:13:20Z</time>
      </trkpt>
      <trkpt lat="42.404068000" lon="-2.662965000">
        <ele>617.70</ele>
        <time>2015-01-17T10:13:21Z</time>
      </trkpt>
      <trkpt lat="42.404053000" lon="-2.662989000">
        <ele>617.70</ele>
        <time>2015-01-17T10:13:22Z</time>
      </trkpt>
      <trkpt lat="42.404039000" lon="-2.663017000">
        <ele>618.00</ele>
        <time>2015-01-17T10:13:23Z</time>
      </trkpt>
      <trkpt lat="42.404025000" lon="-2.663046000">
        <ele>618.20</ele>
        <time>2015-01-17T10:13:24Z</time>
      </trkpt>
      <trkpt lat="42.404013000" lon="-2.663068000">
        <ele>618.40</ele>
        <time>2015-01-17T10:13:25Z</time>
      </trkpt>
      <trkpt lat="42.403999000" lon="-2.663096000">
        <ele>618.50</ele>
        <time>2015-01-17T10:13:26Z</time>
      </trkpt>
      <trkpt lat="42.403987000" lon="-2.663124000">
        <ele>618.60</ele>
        <time>2015-01-17T10:13:27Z</time>
      </trkpt>
      <trkpt lat="42.403974000" lon="-2.663151000">
        <ele>618.60</ele>
        <time>2015-01-17T10:13:28Z</time>
      </trkpt>
      <trkpt lat="42.403958000" lon="-2.663176000">
        <ele>618.70</ele>
        <time>2015-01-17T10:13:29Z</time>
      </trkpt>
      <trkpt lat="42.403944000" lon="-2.663203000">
        <ele>618.70</ele>
        <time>2015-01-17T10:13:30Z</time>
      </trkpt>
      <trkpt lat="42.403933000" lon="-2.663228000">
        <ele>618.80</ele>
        <time>2015-01-17T10:13:31Z</time>
      </trkpt>
      <trkpt lat="42.403922000" lon="-2.663257000">
        <ele>618.80</ele>
        <time>2015-01-17T10:13:32Z</time>
      </trkpt>
      <trkpt lat="42.403909000" lon="-2.663280000">
        <ele>619.00</ele>
        <time>2015-01-17T10:13:33Z</time>
      </trkpt>
      <trkpt lat="42.403894000" lon="-2.663308000">
        <ele>619.20</ele>
        <time>2015-01-17T10:13:34Z</time>
      </trkpt>
      <trkpt lat="42.403883000" lon="-2.663334000">
        <ele>619.40</ele>
        <time>2015-01-17T10:13:35Z</time>
      </trkpt>
      <trkpt lat="42.403871000" lon="-2.663356000">
        <ele>619.60</ele>
        <time>2015-01-17T10:13:36Z</time>
      </trkpt>
      <trkpt lat="42.403860000" lon="-2.663381000">
        <ele>619.60</ele>
        <time>2015-01-17T10:13:37Z</time>
      </trkpt>
      <trkpt lat="42.403849000" lon="-2.663409000">
        <ele>619.60</ele>
        <time>2015-01-17T10:13:38Z</time>
      </trkpt>
      <trkpt lat="42.403835000" lon="-2.663432000">
        <ele>619.90</ele>
        <time>2015-01-17T10:13:39Z</time>
      </trkpt>
      <trkpt lat="42.403821000" lon="-2.663458000">
        <ele>620.10</ele>
        <time>2015-01-17T10:13:40Z</time>
      </trkpt>
      <trkpt lat="42.403809000" lon="-2.663483000">
        <ele>620.00</ele>
        <time>2015-01-17T10:13:41Z</time>
      </trkpt>
      <trkpt lat="42.403794000" lon="-2.663511000">
        <ele>620.00</ele>
        <time>2015-01-17T10:13:42Z</time>
      </trkpt>
      <trkpt lat="42.403780000" lon="-2.663538000">
        <ele>620.20</ele>
        <time>2015-01-17T10:13:43Z</time>
      </trkpt>
      <trkpt lat="42.403767000" lon="-2.663568000">
        <ele>620.40</ele>
        <time>2015-01-17T10:13:44Z</time>
      </trkpt>
      <trkpt lat="42.403753000" lon="-2.663598000">
        <ele>620.50</ele>
        <time>2015-01-17T10:13:45Z</time>
      </trkpt>
      <trkpt lat="42.403740000" lon="-2.663630000">
        <ele>620.60</ele>
        <time>2015-01-17T10:13:46Z</time>
      </trkpt>
      <trkpt lat="42.403726000" lon="-2.663659000">
        <ele>620.80</ele>
        <time>2015-01-17T10:13:47Z</time>
      </trkpt>
      <trkpt lat="42.403703000" lon="-2.663719000">
        <ele>621.00</ele>
        <time>2015-01-17T10:13:49Z</time>
      </trkpt>
      <trkpt lat="42.403693000" lon="-2.663749000">
        <ele>621.00</ele>
        <time>2015-01-17T10:13:50Z</time>
      </trkpt>
      <trkpt lat="42.403683000" lon="-2.663777000">
        <ele>621.00</ele>
        <time>2015-01-17T10:13:51Z</time>
      </trkpt>
      <trkpt lat="42.403673000" lon="-2.663807000">
        <ele>621.00</ele>
        <time>2015-01-17T10:13:52Z</time>
      </trkpt>
      <trkpt lat="42.403662000" lon="-2.663834000">
        <ele>621.00</ele>
        <time>2015-01-17T10:13:53Z</time>
      </trkpt>
      <trkpt lat="42.403655000" lon="-2.663860000">
        <ele>621.00</ele>
        <time>2015-01-17T10:13:54Z</time>
      </trkpt>
      <trkpt lat="42.403645000" lon="-2.663884000">
        <ele>621.00</ele>
        <time>2015-01-17T10:13:55Z</time>
      </trkpt>
      <trkpt lat="42.403632000" lon="-2.663903000">
        <ele>621.00</ele>
        <time>2015-01-17T10:13:56Z</time>
      </trkpt>
      <trkpt lat="42.403619000" lon="-2.663910000">
        <ele>621.00</ele>
        <time>2015-01-17T10:13:57Z</time>
      </trkpt>
      <trkpt lat="42.403606000" lon="-2.663900000">
        <ele>621.00</ele>
        <time>2015-01-17T10:13:58Z</time>
      </trkpt>
      <trkpt lat="42.403596000" lon="-2.663881000">
        <ele>620.80</ele>
        <time>2015-01-17T10:13:59Z</time>
      </trkpt>
      <trkpt lat="42.403591000" lon="-2.663857000">
        <ele>620.70</ele>
        <time>2015-01-17T10:14:00Z</time>
      </trkpt>
      <trkpt lat="42.403588000" lon="-2.663831000">
        <ele>620.60</ele>
        <time>2015-01-17T10:14:01Z</time>
      </trkpt>
      <trkpt lat="42.403582000" lon="-2.663801000">
        <ele>620.60</ele>
        <time>2015-01-17T10:14:02Z</time>
      </trkpt>
      <trkpt lat="42.403576000" lon="-2.663766000">
        <ele>620.40</ele>
        <time>2015-01-17T10:14:03Z</time>
      </trkpt>
      <trkpt lat="42.403571000" lon="-2.663726000">
        <ele>620.30</ele>
        <time>2015-01-17T10:14:04Z</time>
      </trkpt>
      <trkpt lat="42.403562000" lon="-2.663685000">
        <ele>620.30</ele>
        <time>2015-01-17T10:14:05Z</time>
      </trkpt>
      <trkpt lat="42.403554000" lon="-2.663644000">
        <ele>620.20</ele>
        <time>2015-01-17T10:14:06Z</time>
      </trkpt>
      <trkpt lat="42.403545000" lon="-2.663605000">
        <ele>620.30</ele>
        <time>2015-01-17T10:14:07Z</time>
      </trkpt>
      <trkpt lat="42.403531000" lon="-2.663564000">
        <ele>620.30</ele>
        <time>2015-01-17T10:14:08Z</time>
      </trkpt>
      <trkpt lat="42.403514000" lon="-2.663532000">
        <ele>620.30</ele>
        <time>2015-01-17T10:14:09Z</time>
      </trkpt>
      <trkpt lat="42.403493000" lon="-2.663505000">
        <ele>620.30</ele>
        <time>2015-01-17T10:14:10Z</time>
      </trkpt>
      <trkpt lat="42.403472000" lon="-2.663479000">
        <ele>620.30</ele>
        <time>2015-01-17T10:14:11Z</time>
      </trkpt>
      <trkpt lat="42.403451000" lon="-2.663457000">
        <ele>620.30</ele>
        <time>2015-01-17T10:14:12Z</time>
      </trkpt>
      <trkpt lat="42.403428000" lon="-2.663437000">
        <ele>620.30</ele>
        <time>2015-01-17T10:14:13Z</time>
      </trkpt>
      <trkpt lat="42.403405000" lon="-2.663424000">
        <ele>620.30</ele>
        <time>2015-01-17T10:14:14Z</time>
      </trkpt>
      <trkpt lat="42.403381000" lon="-2.663415000">
        <ele>620.50</ele>
        <time>2015-01-17T10:14:15Z</time>
      </trkpt>
      <trkpt lat="42.403356000" lon="-2.663402000">
        <ele>620.70</ele>
        <time>2015-01-17T10:14:16Z</time>
      </trkpt>
      <trkpt lat="42.403330000" lon="-2.663384000">
        <ele>620.90</ele>
        <time>2015-01-17T10:14:17Z</time>
      </trkpt>
      <trkpt lat="42.403301000" lon="-2.663359000">
        <ele>621.10</ele>
        <time>2015-01-17T10:14:18Z</time>
      </trkpt>
      <trkpt lat="42.403279000" lon="-2.663321000">
        <ele>621.20</ele>
        <time>2015-01-17T10:14:19Z</time>
      </trkpt>
      <trkpt lat="42.403258000" lon="-2.663282000">
        <ele>621.30</ele>
        <time>2015-01-17T10:14:20Z</time>
      </trkpt>
      <trkpt lat="42.403243000" lon="-2.663235000">
        <ele>621.20</ele>
        <time>2015-01-17T10:14:21Z</time>
      </trkpt>
      <trkpt lat="42.403232000" lon="-2.663181000">
        <ele>621.20</ele>
        <time>2015-01-17T10:14:22Z</time>
      </trkpt>
      <trkpt lat="42.403224000" lon="-2.663124000">
        <ele>620.90</ele>
        <time>2015-01-17T10:14:23Z</time>
      </trkpt>
      <trkpt lat="42.403217000" lon="-2.663067000">
        <ele>620.80</ele>
        <time>2015-01-17T10:14:24Z</time>
      </trkpt>
      <trkpt lat="42.403212000" lon="-2.663013000">
        <ele>620.60</ele>
        <time>2015-01-17T10:14:25Z</time>
      </trkpt>
      <trkpt lat="42.403206000" lon="-2.662962000">
        <ele>620.40</ele>
        <time>2015-01-17T10:14:26Z</time>
      </trkpt>
      <trkpt lat="42.403202000" lon="-2.662911000">
        <ele>620.30</ele>
        <time>2015-01-17T10:14:27Z</time>
      </trkpt>
      <trkpt lat="42.403202000" lon="-2.662864000">
        <ele>620.10</ele>
        <time>2015-01-17T10:14:28Z</time>
      </trkpt>
      <trkpt lat="42.403201000" lon="-2.662818000">
        <ele>620.00</ele>
        <time>2015-01-17T10:14:29Z</time>
      </trkpt>
      <trkpt lat="42.403202000" lon="-2.662775000">
        <ele>619.90</ele>
        <time>2015-01-17T10:14:30Z</time>
      </trkpt>
      <trkpt lat="42.403205000" lon="-2.662739000">
        <ele>619.90</ele>
        <time>2015-01-17T10:14:31Z</time>
      </trkpt>
      <trkpt lat="42.403205000" lon="-2.662702000">
        <ele>619.80</ele>
        <time>2015-01-17T10:14:32Z</time>
      </trkpt>
      <trkpt lat="42.403202000" lon="-2.662671000">
        <ele>619.90</ele>
        <time>2015-01-17T10:14:33Z</time>
      </trkpt>
      <trkpt lat="42.403197000" lon="-2.662640000">
        <ele>619.90</ele>
        <time>2015-01-17T10:14:34Z</time>
      </trkpt>
      <trkpt lat="42.403188000" lon="-2.662617000">
        <ele>620.30</ele>
        <time>2015-01-17T10:14:35Z</time>
      </trkpt>
      <trkpt lat="42.403177000" lon="-2.662595000">
        <ele>620.50</ele>
        <time>2015-01-17T10:14:36Z</time>
      </trkpt>
      <trkpt lat="42.403166000" lon="-2.662578000">
        <ele>620.90</ele>
        <time>2015-01-17T10:14:37Z</time>
      </trkpt>
      <trkpt lat="42.403152000" lon="-2.662566000">
        <ele>621.20</ele>
        <time>2015-01-17T10:14:38Z</time>
      </trkpt>
      <trkpt lat="42.403140000" lon="-2.662553000">
        <ele>621.40</ele>
        <time>2015-01-17T10:14:39Z</time>
      </trkpt>
      <trkpt lat="42.403126000" lon="-2.662545000">
        <ele>621.60</ele>
        <time>2015-01-17T10:14:40Z</time>
      </trkpt>
      <trkpt lat="42.403108000" lon="-2.662535000">
        <ele>621.70</ele>
        <time>2015-01-17T10:14:41Z</time>
      </trkpt>
      <trkpt lat="42.403090000" lon="-2.662522000">
        <ele>621.80</ele>
        <time>2015-01-17T10:14:42Z</time>
      </trkpt>
      <trkpt lat="42.403072000" lon="-2.662511000">
        <ele>621.70</ele>
        <time>2015-01-17T10:14:43Z</time>
      </trkpt>
      <trkpt lat="42.403052000" lon="-2.662503000">
        <ele>621.70</ele>
        <time>2015-01-17T10:14:44Z</time>
      </trkpt>
      <trkpt lat="42.403034000" lon="-2.662490000">
        <ele>621.70</ele>
        <time>2015-01-17T10:14:45Z</time>
      </trkpt>
      <trkpt lat="42.403011000" lon="-2.662474000">
        <ele>621.80</ele>
        <time>2015-01-17T10:14:46Z</time>
      </trkpt>
      <trkpt lat="42.402987000" lon="-2.662447000">
        <ele>621.70</ele>
        <time>2015-01-17T10:14:47Z</time>
      </trkpt>
      <trkpt lat="42.402968000" lon="-2.662412000">
        <ele>621.70</ele>
        <time>2015-01-17T10:14:48Z</time>
      </trkpt>
      <trkpt lat="42.402954000" lon="-2.662354000">
        <ele>621.70</ele>
        <time>2015-01-17T10:14:50Z</time>
      </trkpt>
      <trkpt lat="42.402958000" lon="-2.662326000">
        <ele>621.80</ele>
        <time>2015-01-17T10:14:51Z</time>
      </trkpt>
      <trkpt lat="42.402960000" lon="-2.662298000">
        <ele>621.90</ele>
        <time>2015-01-17T10:14:52Z</time>
      </trkpt>
      <trkpt lat="42.402965000" lon="-2.662275000">
        <ele>621.90</ele>
        <time>2015-01-17T10:14:53Z</time>
      </trkpt>
      <trkpt lat="42.402967000" lon="-2.662253000">
        <ele>622.00</ele>
        <time>2015-01-17T10:14:54Z</time>
      </trkpt>
      <trkpt lat="42.402966000" lon="-2.662230000">
        <ele>622.10</ele>
        <time>2015-01-17T10:14:55Z</time>
      </trkpt>
      <trkpt lat="42.402972000" lon="-2.662206000">
        <ele>622.10</ele>
        <time>2015-01-17T10:14:56Z</time>
      </trkpt>
      <trkpt lat="42.402978000" lon="-2.662179000">
        <ele>622.10</ele>
        <time>2015-01-17T10:14:57Z</time>
      </trkpt>
      <trkpt lat="42.402983000" lon="-2.662152000">
        <ele>622.10</ele>
        <time>2015-01-17T10:14:58Z</time>
      </trkpt>
      <trkpt lat="42.402990000" lon="-2.662121000">
        <ele>622.10</ele>
        <time>2015-01-17T10:14:59Z</time>
      </trkpt>
      <trkpt lat="42.403001000" lon="-2.662089000">
        <ele>622.10</ele>
        <time>2015-01-17T10:15:00Z</time>
      </trkpt>
      <trkpt lat="42.403011000" lon="-2.662059000">
        <ele>622.10</ele>
        <time>2015-01-17T10:15:01Z</time>
      </trkpt>
      <trkpt lat="42.403019000" lon="-2.662027000">
        <ele>622.10</ele>
        <time>2015-01-17T10:15:02Z</time>
      </trkpt>
      <trkpt lat="42.403028000" lon="-2.661997000">
        <ele>622.10</ele>
        <time>2015-01-17T10:15:03Z</time>
      </trkpt>
      <trkpt lat="42.403037000" lon="-2.661963000">
        <ele>622.00</ele>
        <time>2015-01-17T10:15:04Z</time>
      </trkpt>
      <trkpt lat="42.403044000" lon="-2.661926000">
        <ele>622.30</ele>
        <time>2015-01-17T10:15:05Z</time>
      </trkpt>
      <trkpt lat="42.403052000" lon="-2.661891000">
        <ele>622.40</ele>
        <time>2015-01-17T10:15:06Z</time>
      </trkpt>
      <trkpt lat="42.403060000" lon="-2.661857000">
        <ele>622.50</ele>
        <time>2015-01-17T10:15:07Z</time>
      </trkpt>
      <trkpt lat="42.403065000" lon="-2.661821000">
        <ele>622.50</ele>
        <time>2015-01-17T10:15:08Z</time>
      </trkpt>
      <trkpt lat="42.403070000" lon="-2.661786000">
        <ele>622.50</ele>
        <time>2015-01-17T10:15:09Z</time>
      </trkpt>
      <trkpt lat="42.403073000" lon="-2.661750000">
        <ele>622.50</ele>
        <time>2015-01-17T10:15:10Z</time>
      </trkpt>
      <trkpt lat="42.403078000" lon="-2.661717000">
        <ele>622.40</ele>
        <time>2015-01-17T10:15:11Z</time>
      </trkpt>
      <trkpt lat="42.403083000" lon="-2.661682000">
        <ele>622.40</ele>
        <time>2015-01-17T10:15:12Z</time>
      </trkpt>
      <trkpt lat="42.403089000" lon="-2.661647000">
        <ele>622.40</ele>
        <time>2015-01-17T10:15:13Z</time>
      </trkpt>
      <trkpt lat="42.403097000" lon="-2.661614000">
        <ele>622.30</ele>
        <time>2015-01-17T10:15:14Z</time>
      </trkpt>
      <trkpt lat="42.403101000" lon="-2.661581000">
        <ele>622.30</ele>
        <time>2015-01-17T10:15:15Z</time>
      </trkpt>
      <trkpt lat="42.403107000" lon="-2.661545000">
        <ele>622.30</ele>
        <time>2015-01-17T10:15:16Z</time>
      </trkpt>
      <trkpt lat="42.403111000" lon="-2.661510000">
        <ele>622.40</ele>
        <time>2015-01-17T10:15:17Z</time>
      </trkpt>
      <trkpt lat="42.403116000" lon="-2.661475000">
        <ele>622.40</ele>
        <time>2015-01-17T10:15:18Z</time>
      </trkpt>
      <trkpt lat="42.403120000" lon="-2.661443000">
        <ele>622.50</ele>
        <time>2015-01-17T10:15:19Z</time>
      </trkpt>
      <trkpt lat="42.403124000" lon="-2.661413000">
        <ele>622.60</ele>
        <time>2015-01-17T10:15:20Z</time>
      </trkpt>
      <trkpt lat="42.403132000" lon="-2.661378000">
        <ele>622.60</ele>
        <time>2015-01-17T10:15:21Z</time>
      </trkpt>
      <trkpt lat="42.403135000" lon="-2.661346000">
        <ele>622.70</ele>
        <time>2015-01-17T10:15:22Z</time>
      </trkpt>
      <trkpt lat="42.403138000" lon="-2.661310000">
        <ele>622.70</ele>
        <time>2015-01-17T10:15:23Z</time>
      </trkpt>
      <trkpt lat="42.403142000" lon="-2.661274000">
        <ele>622.80</ele>
        <time>2015-01-17T10:15:24Z</time>
      </trkpt>
      <trkpt lat="42.403148000" lon="-2.661238000">
        <ele>622.90</ele>
        <time>2015-01-17T10:15:25Z</time>
      </trkpt>
      <trkpt lat="42.403151000" lon="-2.661201000">
        <ele>623.00</ele>
        <time>2015-01-17T10:15:26Z</time>
      </trkpt>
      <trkpt lat="42.403155000" lon="-2.661162000">
        <ele>623.10</ele>
        <time>2015-01-17T10:15:27Z</time>
      </trkpt>
      <trkpt lat="42.403161000" lon="-2.661125000">
        <ele>623.20</ele>
        <time>2015-01-17T10:15:28Z</time>
      </trkpt>
      <trkpt lat="42.403167000" lon="-2.661092000">
        <ele>623.30</ele>
        <time>2015-01-17T10:15:29Z</time>
      </trkpt>
      <trkpt lat="42.403173000" lon="-2.661058000">
        <ele>623.30</ele>
        <time>2015-01-17T10:15:30Z</time>
      </trkpt>
      <trkpt lat="42.403178000" lon="-2.661023000">
        <ele>623.30</ele>
        <time>2015-01-17T10:15:31Z</time>
      </trkpt>
      <trkpt lat="42.403183000" lon="-2.660990000">
        <ele>623.30</ele>
        <time>2015-01-17T10:15:32Z</time>
      </trkpt>
      <trkpt lat="42.403189000" lon="-2.660955000">
        <ele>623.50</ele>
        <time>2015-01-17T10:15:33Z</time>
      </trkpt>
      <trkpt lat="42.403195000" lon="-2.660923000">
        <ele>623.60</ele>
        <time>2015-01-17T10:15:34Z</time>
      </trkpt>
      <trkpt lat="42.403201000" lon="-2.660890000">
        <ele>623.50</ele>
        <time>2015-01-17T10:15:35Z</time>
      </trkpt>
      <trkpt lat="42.403207000" lon="-2.660855000">
        <ele>623.40</ele>
        <time>2015-01-17T10:15:36Z</time>
      </trkpt>
      <trkpt lat="42.403215000" lon="-2.660820000">
        <ele>623.50</ele>
        <time>2015-01-17T10:15:37Z</time>
      </trkpt>
      <trkpt lat="42.403220000" lon="-2.660787000">
        <ele>623.60</ele>
        <time>2015-01-17T10:15:38Z</time>
      </trkpt>
      <trkpt lat="42.403225000" lon="-2.660754000">
        <ele>623.90</ele>
        <time>2015-01-17T10:15:39Z</time>
      </trkpt>
      <trkpt lat="42.403231000" lon="-2.660720000">
        <ele>624.10</ele>
        <time>2015-01-17T10:15:40Z</time>
      </trkpt>
      <trkpt lat="42.403236000" lon="-2.660685000">
        <ele>624.30</ele>
        <time>2015-01-17T10:15:41Z</time>
      </trkpt>
      <trkpt lat="42.403241000" lon="-2.660647000">
        <ele>624.40</ele>
        <time>2015-01-17T10:15:42Z</time>
      </trkpt>
      <trkpt lat="42.403250000" lon="-2.660610000">
        <ele>624.40</ele>
        <time>2015-01-17T10:15:43Z</time>
      </trkpt>
      <trkpt lat="42.403259000" lon="-2.660573000">
        <ele>624.40</ele>
        <time>2015-01-17T10:15:44Z</time>
      </trkpt>
      <trkpt lat="42.403263000" lon="-2.660534000">
        <ele>624.40</ele>
        <time>2015-01-17T10:15:45Z</time>
      </trkpt>
      <trkpt lat="42.403269000" lon="-2.660499000">
        <ele>624.40</ele>
        <time>2015-01-17T10:15:46Z</time>
      </trkpt>
      <trkpt lat="42.403275000" lon="-2.660465000">
        <ele>624.40</ele>
        <time>2015-01-17T10:15:47Z</time>
      </trkpt>
      <trkpt lat="42.403280000" lon="-2.660427000">
        <ele>624.40</ele>
        <time>2015-01-17T10:15:48Z</time>
      </trkpt>
      <trkpt lat="42.403282000" lon="-2.660391000">
        <ele>624.40</ele>
        <time>2015-01-17T10:15:49Z</time>
      </trkpt>
      <trkpt lat="42.403286000" lon="-2.660318000">
        <ele>624.70</ele>
        <time>2015-01-17T10:15:51Z</time>
      </trkpt>
      <trkpt lat="42.403287000" lon="-2.660278000">
        <ele>624.90</ele>
        <time>2015-01-17T10:15:52Z</time>
      </trkpt>
      <trkpt lat="42.403288000" lon="-2.660238000">
        <ele>625.00</ele>
        <time>2015-01-17T10:15:53Z</time>
      </trkpt>
      <trkpt lat="42.403285000" lon="-2.660196000">
        <ele>625.10</ele>
        <time>2015-01-17T10:15:54Z</time>
      </trkpt>
      <trkpt lat="42.403282000" lon="-2.660154000">
        <ele>625.00</ele>
        <time>2015-01-17T10:15:55Z</time>
      </trkpt>
      <trkpt lat="42.403278000" lon="-2.660113000">
        <ele>624.90</ele>
        <time>2015-01-17T10:15:56Z</time>
      </trkpt>
      <trkpt lat="42.403273000" lon="-2.660070000">
        <ele>624.90</ele>
        <time>2015-01-17T10:15:57Z</time>
      </trkpt>
      <trkpt lat="42.403268000" lon="-2.660030000">
        <ele>624.80</ele>
        <time>2015-01-17T10:15:58Z</time>
      </trkpt>
      <trkpt lat="42.403264000" lon="-2.659989000">
        <ele>624.80</ele>
        <time>2015-01-17T10:15:59Z</time>
      </trkpt>
      <trkpt lat="42.403263000" lon="-2.659946000">
        <ele>624.80</ele>
        <time>2015-01-17T10:16:00Z</time>
      </trkpt>
      <trkpt lat="42.403262000" lon="-2.659901000">
        <ele>624.90</ele>
        <time>2015-01-17T10:16:01Z</time>
      </trkpt>
      <trkpt lat="42.403261000" lon="-2.659856000">
        <ele>625.10</ele>
        <time>2015-01-17T10:16:02Z</time>
      </trkpt>
      <trkpt lat="42.403258000" lon="-2.659809000">
        <ele>625.00</ele>
        <time>2015-01-17T10:16:03Z</time>
      </trkpt>
      <trkpt lat="42.403258000" lon="-2.659764000">
        <ele>625.00</ele>
        <time>2015-01-17T10:16:04Z</time>
      </trkpt>
      <trkpt lat="42.403259000" lon="-2.659717000">
        <ele>625.00</ele>
        <time>2015-01-17T10:16:05Z</time>
      </trkpt>
      <trkpt lat="42.403258000" lon="-2.659671000">
        <ele>625.00</ele>
        <time>2015-01-17T10:16:06Z</time>
      </trkpt>
      <trkpt lat="42.403258000" lon="-2.659623000">
        <ele>624.90</ele>
        <time>2015-01-17T10:16:07Z</time>
      </trkpt>
      <trkpt lat="42.403260000" lon="-2.659577000">
        <ele>624.90</ele>
        <time>2015-01-17T10:16:08Z</time>
      </trkpt>
      <trkpt lat="42.403261000" lon="-2.659528000">
        <ele>624.80</ele>
        <time>2015-01-17T10:16:09Z</time>
      </trkpt>
      <trkpt lat="42.403266000" lon="-2.659486000">
        <ele>624.70</ele>
        <time>2015-01-17T10:16:10Z</time>
      </trkpt>
      <trkpt lat="42.403273000" lon="-2.659439000">
        <ele>624.70</ele>
        <time>2015-01-17T10:16:11Z</time>
      </trkpt>
      <trkpt lat="42.403282000" lon="-2.659392000">
        <ele>624.70</ele>
        <time>2015-01-17T10:16:12Z</time>
      </trkpt>
      <trkpt lat="42.403289000" lon="-2.659345000">
        <ele>624.60</ele>
        <time>2015-01-17T10:16:13Z</time>
      </trkpt>
      <trkpt lat="42.403296000" lon="-2.659298000">
        <ele>624.60</ele>
        <time>2015-01-17T10:16:14Z</time>
      </trkpt>
      <trkpt lat="42.403305000" lon="-2.659254000">
        <ele>624.60</ele>
        <time>2015-01-17T10:16:15Z</time>
      </trkpt>
      <trkpt lat="42.403313000" lon="-2.659215000">
        <ele>624.50</ele>
        <time>2015-01-17T10:16:16Z</time>
      </trkpt>
      <trkpt lat="42.403319000" lon="-2.659179000">
        <ele>624.50</ele>
        <time>2015-01-17T10:16:17Z</time>
      </trkpt>
      <trkpt lat="42.403328000" lon="-2.659146000">
        <ele>624.50</ele>
        <time>2015-01-17T10:16:18Z</time>
      </trkpt>
      <trkpt lat="42.403336000" lon="-2.659112000">
        <ele>624.50</ele>
        <time>2015-01-17T10:16:19Z</time>
      </trkpt>
      <trkpt lat="42.403348000" lon="-2.659076000">
        <ele>624.50</ele>
        <time>2015-01-17T10:16:20Z</time>
      </trkpt>
      <trkpt lat="42.403358000" lon="-2.659040000">
        <ele>624.50</ele>
        <time>2015-01-17T10:16:21Z</time>
      </trkpt>
      <trkpt lat="42.403370000" lon="-2.659005000">
        <ele>624.50</ele>
        <time>2015-01-17T10:16:22Z</time>
      </trkpt>
      <trkpt lat="42.403380000" lon="-2.658968000">
        <ele>624.50</ele>
        <time>2015-01-17T10:16:23Z</time>
      </trkpt>
      <trkpt lat="42.403391000" lon="-2.658934000">
        <ele>624.60</ele>
        <time>2015-01-17T10:16:24Z</time>
      </trkpt>
      <trkpt lat="42.403402000" lon="-2.658899000">
        <ele>624.60</ele>
        <time>2015-01-17T10:16:25Z</time>
      </trkpt>
      <trkpt lat="42.403412000" lon="-2.658865000">
        <ele>624.60</ele>
        <time>2015-01-17T10:16:26Z</time>
      </trkpt>
      <trkpt lat="42.403419000" lon="-2.658832000">
        <ele>624.80</ele>
        <time>2015-01-17T10:16:27Z</time>
      </trkpt>
      <trkpt lat="42.403429000" lon="-2.658803000">
        <ele>625.00</ele>
        <time>2015-01-17T10:16:28Z</time>
      </trkpt>
      <trkpt lat="42.403439000" lon="-2.658778000">
        <ele>625.10</ele>
        <time>2015-01-17T10:16:29Z</time>
      </trkpt>
      <trkpt lat="42.403450000" lon="-2.658754000">
        <ele>625.20</ele>
        <time>2015-01-17T10:16:30Z</time>
      </trkpt>
      <trkpt lat="42.403459000" lon="-2.658727000">
        <ele>625.30</ele>
        <time>2015-01-17T10:16:31Z</time>
      </trkpt>
      <trkpt lat="42.403467000" lon="-2.658700000">
        <ele>625.40</ele>
        <time>2015-01-17T10:16:32Z</time>
      </trkpt>
      <trkpt lat="42.403475000" lon="-2.658674000">
        <ele>625.40</ele>
        <time>2015-01-17T10:16:33Z</time>
      </trkpt>
      <trkpt lat="42.403486000" lon="-2.658649000">
        <ele>625.40</ele>
        <time>2015-01-17T10:16:34Z</time>
      </trkpt>
      <trkpt lat="42.403496000" lon="-2.658623000">
        <ele>625.60</ele>
        <time>2015-01-17T10:16:35Z</time>
      </trkpt>
      <trkpt lat="42.403509000" lon="-2.658599000">
        <ele>625.80</ele>
        <time>2015-01-17T10:16:36Z</time>
      </trkpt>
      <trkpt lat="42.403519000" lon="-2.658571000">
        <ele>626.00</ele>
        <time>2015-01-17T10:16:37Z</time>
      </trkpt>
      <trkpt lat="42.403527000" lon="-2.658547000">
        <ele>626.20</ele>
        <time>2015-01-17T10:16:38Z</time>
      </trkpt>
      <trkpt lat="42.403535000" lon="-2.658522000">
        <ele>626.30</ele>
        <time>2015-01-17T10:16:39Z</time>
      </trkpt>
      <trkpt lat="42.403544000" lon="-2.658498000">
        <ele>626.40</ele>
        <time>2015-01-17T10:16:40Z</time>
      </trkpt>
      <trkpt lat="42.403552000" lon="-2.658478000">
        <ele>626.60</ele>
        <time>2015-01-17T10:16:41Z</time>
      </trkpt>
      <trkpt lat="42.403559000" lon="-2.658454000">
        <ele>626.80</ele>
        <time>2015-01-17T10:16:42Z</time>
      </trkpt>
      <trkpt lat="42.403567000" lon="-2.658429000">
        <ele>626.90</ele>
        <time>2015-01-17T10:16:43Z</time>
      </trkpt>
      <trkpt lat="42.403574000" lon="-2.658411000">
        <ele>627.00</ele>
        <time>2015-01-17T10:16:44Z</time>
      </trkpt>
      <trkpt lat="42.403584000" lon="-2.658392000">
        <ele>627.10</ele>
        <time>2015-01-17T10:16:45Z</time>
      </trkpt>
      <trkpt lat="42.403595000" lon="-2.658372000">
        <ele>627.10</ele>
        <time>2015-01-17T10:16:46Z</time>
      </trkpt>
      <trkpt lat="42.403604000" lon="-2.658352000">
        <ele>627.20</ele>
        <time>2015-01-17T10:16:47Z</time>
      </trkpt>
      <trkpt lat="42.403612000" lon="-2.658332000">
        <ele>627.20</ele>
        <time>2015-01-17T10:16:48Z</time>
      </trkpt>
      <trkpt lat="42.403620000" lon="-2.658319000">
        <ele>627.20</ele>
        <time>2015-01-17T10:16:49Z</time>
      </trkpt>
      <trkpt lat="42.403627000" lon="-2.658297000">
        <ele>627.20</ele>
        <time>2015-01-17T10:16:50Z</time>
      </trkpt>
      <trkpt lat="42.403634000" lon="-2.658282000">
        <ele>627.40</ele>
        <time>2015-01-17T10:16:51Z</time>
      </trkpt>
      <trkpt lat="42.403649000" lon="-2.658244000">
        <ele>628.00</ele>
        <time>2015-01-17T10:16:53Z</time>
      </trkpt>
      <trkpt lat="42.403659000" lon="-2.658227000">
        <ele>628.40</ele>
        <time>2015-01-17T10:16:54Z</time>
      </trkpt>
      <trkpt lat="42.403668000" lon="-2.658210000">
        <ele>628.60</ele>
        <time>2015-01-17T10:16:55Z</time>
      </trkpt>
      <trkpt lat="42.403676000" lon="-2.658194000">
        <ele>628.80</ele>
        <time>2015-01-17T10:16:56Z</time>
      </trkpt>
      <trkpt lat="42.403684000" lon="-2.658173000">
        <ele>629.10</ele>
        <time>2015-01-17T10:16:57Z</time>
      </trkpt>
      <trkpt lat="42.403692000" lon="-2.658157000">
        <ele>629.30</ele>
        <time>2015-01-17T10:16:58Z</time>
      </trkpt>
      <trkpt lat="42.403702000" lon="-2.658135000">
        <ele>629.40</ele>
        <time>2015-01-17T10:16:59Z</time>
      </trkpt>
      <trkpt lat="42.403707000" lon="-2.658117000">
        <ele>629.60</ele>
        <time>2015-01-17T10:17:00Z</time>
      </trkpt>
      <trkpt lat="42.403716000" lon="-2.658101000">
        <ele>629.60</ele>
        <time>2015-01-17T10:17:01Z</time>
      </trkpt>
      <trkpt lat="42.403726000" lon="-2.658079000">
        <ele>629.70</ele>
        <time>2015-01-17T10:17:02Z</time>
      </trkpt>
      <trkpt lat="42.403734000" lon="-2.658060000">
        <ele>629.80</ele>
        <time>2015-01-17T10:17:03Z</time>
      </trkpt>
      <trkpt lat="42.403742000" lon="-2.658044000">
        <ele>629.80</ele>
        <time>2015-01-17T10:17:04Z</time>
      </trkpt>
      <trkpt lat="42.403749000" lon="-2.658025000">
        <ele>630.20</ele>
        <time>2015-01-17T10:17:05Z</time>
      </trkpt>
      <trkpt lat="42.403756000" lon="-2.658007000">
        <ele>630.50</ele>
        <time>2015-01-17T10:17:06Z</time>
      </trkpt>
      <trkpt lat="42.403763000" lon="-2.657992000">
        <ele>630.70</ele>
        <time>2015-01-17T10:17:07Z</time>
      </trkpt>
      <trkpt lat="42.403769000" lon="-2.657972000">
        <ele>630.90</ele>
        <time>2015-01-17T10:17:08Z</time>
      </trkpt>
      <trkpt lat="42.403775000" lon="-2.657957000">
        <ele>630.90</ele>
        <time>2015-01-17T10:17:09Z</time>
      </trkpt>
      <trkpt lat="42.403782000" lon="-2.657938000">
        <ele>630.90</ele>
        <time>2015-01-17T10:17:10Z</time>
      </trkpt>
      <trkpt lat="42.403788000" lon="-2.657922000">
        <ele>630.90</ele>
        <time>2015-01-17T10:17:11Z</time>
      </trkpt>
      <trkpt lat="42.403793000" lon="-2.657901000">
        <ele>630.90</ele>
        <time>2015-01-17T10:17:12Z</time>
      </trkpt>
      <trkpt lat="42.403800000" lon="-2.657880000">
        <ele>631.00</ele>
        <time>2015-01-17T10:17:13Z</time>
      </trkpt>
      <trkpt lat="42.403807000" lon="-2.657856000">
        <ele>631.10</ele>
        <time>2015-01-17T10:17:14Z</time>
      </trkpt>
      <trkpt lat="42.403814000" lon="-2.657828000">
        <ele>631.20</ele>
        <time>2015-01-17T10:17:15Z</time>
      </trkpt>
      <trkpt lat="42.403818000" lon="-2.657803000">
        <ele>631.30</ele>
        <time>2015-01-17T10:17:16Z</time>
      </trkpt>
      <trkpt lat="42.403823000" lon="-2.657776000">
        <ele>631.40</ele>
        <time>2015-01-17T10:17:17Z</time>
      </trkpt>
      <trkpt lat="42.403830000" lon="-2.657749000">
        <ele>631.40</ele>
        <time>2015-01-17T10:17:18Z</time>
      </trkpt>
      <trkpt lat="42.403833000" lon="-2.657722000">
        <ele>631.40</ele>
        <time>2015-01-17T10:17:19Z</time>
      </trkpt>
      <trkpt lat="42.403832000" lon="-2.657693000">
        <ele>631.50</ele>
        <time>2015-01-17T10:17:20Z</time>
      </trkpt>
      <trkpt lat="42.403832000" lon="-2.657662000">
        <ele>631.50</ele>
        <time>2015-01-17T10:17:21Z</time>
      </trkpt>
      <trkpt lat="42.403832000" lon="-2.657631000">
        <ele>631.50</ele>
        <time>2015-01-17T10:17:22Z</time>
      </trkpt>
      <trkpt lat="42.403830000" lon="-2.657605000">
        <ele>631.60</ele>
        <time>2015-01-17T10:17:23Z</time>
      </trkpt>
      <trkpt lat="42.403830000" lon="-2.657576000">
        <ele>631.70</ele>
        <time>2015-01-17T10:17:24Z</time>
      </trkpt>
      <trkpt lat="42.403829000" lon="-2.657547000">
        <ele>631.80</ele>
        <time>2015-01-17T10:17:25Z</time>
      </trkpt>
      <trkpt lat="42.403827000" lon="-2.657516000">
        <ele>632.00</ele>
        <time>2015-01-17T10:17:26Z</time>
      </trkpt>
      <trkpt lat="42.403826000" lon="-2.657488000">
        <ele>632.10</ele>
        <time>2015-01-17T10:17:27Z</time>
      </trkpt>
      <trkpt lat="42.403825000" lon="-2.657459000">
        <ele>632.20</ele>
        <time>2015-01-17T10:17:28Z</time>
      </trkpt>
      <trkpt lat="42.403825000" lon="-2.657432000">
        <ele>632.30</ele>
        <time>2015-01-17T10:17:29Z</time>
      </trkpt>
      <trkpt lat="42.403821000" lon="-2.657398000">
        <ele>632.40</ele>
        <time>2015-01-17T10:17:30Z</time>
      </trkpt>
      <trkpt lat="42.403820000" lon="-2.657364000">
        <ele>632.50</ele>
        <time>2015-01-17T10:17:31Z</time>
      </trkpt>
      <trkpt lat="42.403818000" lon="-2.657333000">
        <ele>632.60</ele>
        <time>2015-01-17T10:17:32Z</time>
      </trkpt>
      <trkpt lat="42.403814000" lon="-2.657300000">
        <ele>632.70</ele>
        <time>2015-01-17T10:17:33Z</time>
      </trkpt>
      <trkpt lat="42.403810000" lon="-2.657268000">
        <ele>632.70</ele>
        <time>2015-01-17T10:17:34Z</time>
      </trkpt>
      <trkpt lat="42.403810000" lon="-2.657235000">
        <ele>632.80</ele>
        <time>2015-01-17T10:17:35Z</time>
      </trkpt>
      <trkpt lat="42.403811000" lon="-2.657202000">
        <ele>632.90</ele>
        <time>2015-01-17T10:17:36Z</time>
      </trkpt>
      <trkpt lat="42.403808000" lon="-2.657169000">
        <ele>633.00</ele>
        <time>2015-01-17T10:17:37Z</time>
      </trkpt>
      <trkpt lat="42.403805000" lon="-2.657138000">
        <ele>633.10</ele>
        <time>2015-01-17T10:17:38Z</time>
      </trkpt>
      <trkpt lat="42.403802000" lon="-2.657103000">
        <ele>633.20</ele>
        <time>2015-01-17T10:17:39Z</time>
      </trkpt>
      <trkpt lat="42.403801000" lon="-2.657071000">
        <ele>633.30</ele>
        <time>2015-01-17T10:17:40Z</time>
      </trkpt>
      <trkpt lat="42.403799000" lon="-2.657038000">
        <ele>633.40</ele>
        <time>2015-01-17T10:17:41Z</time>
      </trkpt>
      <trkpt lat="42.403794000" lon="-2.657004000">
        <ele>633.40</ele>
        <time>2015-01-17T10:17:42Z</time>
      </trkpt>
      <trkpt lat="42.403794000" lon="-2.656971000">
        <ele>633.50</ele>
        <time>2015-01-17T10:17:43Z</time>
      </trkpt>
      <trkpt lat="42.403793000" lon="-2.656939000">
        <ele>633.50</ele>
        <time>2015-01-17T10:17:44Z</time>
      </trkpt>
      <trkpt lat="42.403787000" lon="-2.656908000">
        <ele>633.60</ele>
        <time>2015-01-17T10:17:45Z</time>
      </trkpt>
      <trkpt lat="42.403787000" lon="-2.656877000">
        <ele>633.60</ele>
        <time>2015-01-17T10:17:46Z</time>
      </trkpt>
      <trkpt lat="42.403784000" lon="-2.656845000">
        <ele>633.60</ele>
        <time>2015-01-17T10:17:47Z</time>
      </trkpt>
      <trkpt lat="42.403779000" lon="-2.656814000">
        <ele>633.60</ele>
        <time>2015-01-17T10:17:48Z</time>
      </trkpt>
      <trkpt lat="42.403773000" lon="-2.656784000">
        <ele>633.70</ele>
        <time>2015-01-17T10:17:49Z</time>
      </trkpt>
      <trkpt lat="42.403772000" lon="-2.656753000">
        <ele>633.80</ele>
        <time>2015-01-17T10:17:50Z</time>
      </trkpt>
      <trkpt lat="42.403773000" lon="-2.656724000">
        <ele>633.90</ele>
        <time>2015-01-17T10:17:51Z</time>
      </trkpt>
      <trkpt lat="42.403769000" lon="-2.656695000">
        <ele>634.00</ele>
        <time>2015-01-17T10:17:52Z</time>
      </trkpt>
      <trkpt lat="42.403767000" lon="-2.656663000">
        <ele>634.00</ele>
        <time>2015-01-17T10:17:53Z</time>
      </trkpt>
      <trkpt lat="42.403762000" lon="-2.656603000">
        <ele>634.00</ele>
        <time>2015-01-17T10:17:55Z</time>
      </trkpt>
      <trkpt lat="42.403758000" lon="-2.656573000">
        <ele>634.10</ele>
        <time>2015-01-17T10:17:56Z</time>
      </trkpt>
      <trkpt lat="42.403753000" lon="-2.656545000">
        <ele>634.10</ele>
        <time>2015-01-17T10:17:57Z</time>
      </trkpt>
      <trkpt lat="42.403750000" lon="-2.656512000">
        <ele>634.10</ele>
        <time>2015-01-17T10:17:58Z</time>
      </trkpt>
      <trkpt lat="42.403745000" lon="-2.656476000">
        <ele>634.10</ele>
        <time>2015-01-17T10:17:59Z</time>
      </trkpt>
      <trkpt lat="42.403742000" lon="-2.656447000">
        <ele>634.10</ele>
        <time>2015-01-17T10:18:00Z</time>
      </trkpt>
      <trkpt lat="42.403740000" lon="-2.656415000">
        <ele>634.10</ele>
        <time>2015-01-17T10:18:01Z</time>
      </trkpt>
      <trkpt lat="42.403738000" lon="-2.656383000">
        <ele>634.10</ele>
        <time>2015-01-17T10:18:02Z</time>
      </trkpt>
      <trkpt lat="42.403735000" lon="-2.656354000">
        <ele>634.30</ele>
        <time>2015-01-17T10:18:03Z</time>
      </trkpt>
      <trkpt lat="42.403732000" lon="-2.656321000">
        <ele>634.40</ele>
        <time>2015-01-17T10:18:04Z</time>
      </trkpt>
      <trkpt lat="42.403727000" lon="-2.656290000">
        <ele>634.60</ele>
        <time>2015-01-17T10:18:05Z</time>
      </trkpt>
      <trkpt lat="42.403724000" lon="-2.656259000">
        <ele>634.60</ele>
        <time>2015-01-17T10:18:06Z</time>
      </trkpt>
      <trkpt lat="42.403727000" lon="-2.656230000">
        <ele>634.70</ele>
        <time>2015-01-17T10:18:07Z</time>
      </trkpt>
      <trkpt lat="42.403728000" lon="-2.656196000">
        <ele>634.80</ele>
        <time>2015-01-17T10:18:08Z</time>
      </trkpt>
      <trkpt lat="42.403727000" lon="-2.656168000">
        <ele>634.80</ele>
        <time>2015-01-17T10:18:09Z</time>
      </trkpt>
      <trkpt lat="42.403727000" lon="-2.656137000">
        <ele>634.80</ele>
        <time>2015-01-17T10:18:10Z</time>
      </trkpt>
      <trkpt lat="42.403727000" lon="-2.656110000">
        <ele>634.90</ele>
        <time>2015-01-17T10:18:11Z</time>
      </trkpt>
      <trkpt lat="42.403728000" lon="-2.656081000">
        <ele>635.00</ele>
        <time>2015-01-17T10:18:12Z</time>
      </trkpt>
      <trkpt lat="42.403729000" lon="-2.656051000">
        <ele>635.00</ele>
        <time>2015-01-17T10:18:13Z</time>
      </trkpt>
      <trkpt lat="42.403731000" lon="-2.656022000">
        <ele>635.10</ele>
        <time>2015-01-17T10:18:14Z</time>
      </trkpt>
      <trkpt lat="42.403731000" lon="-2.655995000">
        <ele>635.10</ele>
        <time>2015-01-17T10:18:15Z</time>
      </trkpt>
      <trkpt lat="42.403734000" lon="-2.655966000">
        <ele>635.10</ele>
        <time>2015-01-17T10:18:16Z</time>
      </trkpt>
      <trkpt lat="42.403738000" lon="-2.655937000">
        <ele>635.30</ele>
        <time>2015-01-17T10:18:17Z</time>
      </trkpt>
      <trkpt lat="42.403737000" lon="-2.655910000">
        <ele>635.50</ele>
        <time>2015-01-17T10:18:18Z</time>
      </trkpt>
      <trkpt lat="42.403742000" lon="-2.655886000">
        <ele>635.60</ele>
        <time>2015-01-17T10:18:19Z</time>
      </trkpt>
      <trkpt lat="42.403749000" lon="-2.655857000">
        <ele>635.70</ele>
        <time>2015-01-17T10:18:20Z</time>
      </trkpt>
      <trkpt lat="42.403753000" lon="-2.655826000">
        <ele>635.80</ele>
        <time>2015-01-17T10:18:21Z</time>
      </trkpt>
      <trkpt lat="42.403760000" lon="-2.655794000">
        <ele>635.80</ele>
        <time>2015-01-17T10:18:22Z</time>
      </trkpt>
      <trkpt lat="42.403765000" lon="-2.655763000">
        <ele>635.80</ele>
        <time>2015-01-17T10:18:23Z</time>
      </trkpt>
      <trkpt lat="42.403770000" lon="-2.655733000">
        <ele>635.90</ele>
        <time>2015-01-17T10:18:24Z</time>
      </trkpt>
      <trkpt lat="42.403778000" lon="-2.655706000">
        <ele>635.90</ele>
        <time>2015-01-17T10:18:25Z</time>
      </trkpt>
      <trkpt lat="42.403783000" lon="-2.655677000">
        <ele>635.90</ele>
        <time>2015-01-17T10:18:26Z</time>
      </trkpt>
      <trkpt lat="42.403787000" lon="-2.655646000">
        <ele>635.90</ele>
        <time>2015-01-17T10:18:27Z</time>
      </trkpt>
      <trkpt lat="42.403792000" lon="-2.655615000">
        <ele>635.90</ele>
        <time>2015-01-17T10:18:28Z</time>
      </trkpt>
      <trkpt lat="42.403798000" lon="-2.655588000">
        <ele>636.10</ele>
        <time>2015-01-17T10:18:29Z</time>
      </trkpt>
      <trkpt lat="42.403804000" lon="-2.655558000">
        <ele>636.20</ele>
        <time>2015-01-17T10:18:30Z</time>
      </trkpt>
      <trkpt lat="42.403812000" lon="-2.655526000">
        <ele>636.30</ele>
        <time>2015-01-17T10:18:31Z</time>
      </trkpt>
      <trkpt lat="42.403818000" lon="-2.655497000">
        <ele>636.40</ele>
        <time>2015-01-17T10:18:32Z</time>
      </trkpt>
      <trkpt lat="42.403825000" lon="-2.655462000">
        <ele>636.60</ele>
        <time>2015-01-17T10:18:33Z</time>
      </trkpt>
      <trkpt lat="42.403831000" lon="-2.655429000">
        <ele>636.70</ele>
        <time>2015-01-17T10:18:34Z</time>
      </trkpt>
      <trkpt lat="42.403841000" lon="-2.655401000">
        <ele>636.70</ele>
        <time>2015-01-17T10:18:35Z</time>
      </trkpt>
      <trkpt lat="42.403849000" lon="-2.655372000">
        <ele>636.70</ele>
        <time>2015-01-17T10:18:36Z</time>
      </trkpt>
      <trkpt lat="42.403857000" lon="-2.655343000">
        <ele>636.80</ele>
        <time>2015-01-17T10:18:37Z</time>
      </trkpt>
      <trkpt lat="42.403862000" lon="-2.655310000">
        <ele>636.80</ele>
        <time>2015-01-17T10:18:38Z</time>
      </trkpt>
      <trkpt lat="42.403872000" lon="-2.655284000">
        <ele>636.90</ele>
        <time>2015-01-17T10:18:39Z</time>
      </trkpt>
      <trkpt lat="42.403879000" lon="-2.655256000">
        <ele>636.90</ele>
        <time>2015-01-17T10:18:40Z</time>
      </trkpt>
      <trkpt lat="42.403890000" lon="-2.655229000">
        <ele>637.10</ele>
        <time>2015-01-17T10:18:41Z</time>
      </trkpt>
      <trkpt lat="42.403895000" lon="-2.655200000">
        <ele>637.30</ele>
        <time>2015-01-17T10:18:42Z</time>
      </trkpt>
      <trkpt lat="42.403902000" lon="-2.655176000">
        <ele>637.60</ele>
        <time>2015-01-17T10:18:43Z</time>
      </trkpt>
      <trkpt lat="42.403909000" lon="-2.655154000">
        <ele>637.80</ele>
        <time>2015-01-17T10:18:44Z</time>
      </trkpt>
      <trkpt lat="42.403919000" lon="-2.655129000">
        <ele>638.00</ele>
        <time>2015-01-17T10:18:45Z</time>
      </trkpt>
      <trkpt lat="42.403927000" lon="-2.655102000">
        <ele>638.10</ele>
        <time>2015-01-17T10:18:46Z</time>
      </trkpt>
      <trkpt lat="42.403934000" lon="-2.655079000">
        <ele>638.20</ele>
        <time>2015-01-17T10:18:47Z</time>
      </trkpt>
      <trkpt lat="42.403944000" lon="-2.655054000">
        <ele>638.30</ele>
        <time>2015-01-17T10:18:48Z</time>
      </trkpt>
      <trkpt lat="42.403955000" lon="-2.655028000">
        <ele>638.20</ele>
        <time>2015-01-17T10:18:49Z</time>
      </trkpt>
      <trkpt lat="42.403966000" lon="-2.655000000">
        <ele>638.10</ele>
        <time>2015-01-17T10:18:50Z</time>
      </trkpt>
      <trkpt lat="42.403978000" lon="-2.654972000">
        <ele>638.10</ele>
        <time>2015-01-17T10:18:51Z</time>
      </trkpt>
      <trkpt lat="42.403993000" lon="-2.654943000">
        <ele>638.10</ele>
        <time>2015-01-17T10:18:52Z</time>
      </trkpt>
      <trkpt lat="42.404004000" lon="-2.654919000">
        <ele>638.20</ele>
        <time>2015-01-17T10:18:53Z</time>
      </trkpt>
      <trkpt lat="42.404016000" lon="-2.654895000">
        <ele>638.40</ele>
        <time>2015-01-17T10:18:54Z</time>
      </trkpt>
      <trkpt lat="42.404028000" lon="-2.654868000">
        <ele>638.50</ele>
        <time>2015-01-17T10:18:55Z</time>
      </trkpt>
      <trkpt lat="42.404046000" lon="-2.654817000">
        <ele>638.70</ele>
        <time>2015-01-17T10:18:57Z</time>
      </trkpt>
      <trkpt lat="42.404056000" lon="-2.654791000">
        <ele>638.80</ele>
        <time>2015-01-17T10:18:58Z</time>
      </trkpt>
      <trkpt lat="42.404065000" lon="-2.654769000">
        <ele>638.80</ele>
        <time>2015-01-17T10:18:59Z</time>
      </trkpt>
      <trkpt lat="42.404075000" lon="-2.654743000">
        <ele>638.90</ele>
        <time>2015-01-17T10:19:00Z</time>
      </trkpt>
      <trkpt lat="42.404085000" lon="-2.654718000">
        <ele>639.00</ele>
        <time>2015-01-17T10:19:01Z</time>
      </trkpt>
      <trkpt lat="42.404093000" lon="-2.654692000">
        <ele>639.20</ele>
        <time>2015-01-17T10:19:02Z</time>
      </trkpt>
      <trkpt lat="42.404102000" lon="-2.654667000">
        <ele>639.30</ele>
        <time>2015-01-17T10:19:03Z</time>
      </trkpt>
      <trkpt lat="42.404109000" lon="-2.654641000">
        <ele>639.30</ele>
        <time>2015-01-17T10:19:04Z</time>
      </trkpt>
      <trkpt lat="42.404117000" lon="-2.654613000">
        <ele>639.50</ele>
        <time>2015-01-17T10:19:05Z</time>
      </trkpt>
      <trkpt lat="42.404124000" lon="-2.654587000">
        <ele>639.60</ele>
        <time>2015-01-17T10:19:06Z</time>
      </trkpt>
      <trkpt lat="42.404132000" lon="-2.654564000">
        <ele>639.70</ele>
        <time>2015-01-17T10:19:07Z</time>
      </trkpt>
      <trkpt lat="42.404140000" lon="-2.654541000">
        <ele>639.80</ele>
        <time>2015-01-17T10:19:08Z</time>
      </trkpt>
      <trkpt lat="42.404150000" lon="-2.654518000">
        <ele>639.80</ele>
        <time>2015-01-17T10:19:09Z</time>
      </trkpt>
      <trkpt lat="42.404160000" lon="-2.654496000">
        <ele>639.90</ele>
        <time>2015-01-17T10:19:10Z</time>
      </trkpt>
      <trkpt lat="42.404170000" lon="-2.654470000">
        <ele>639.90</ele>
        <time>2015-01-17T10:19:11Z</time>
      </trkpt>
      <trkpt lat="42.404181000" lon="-2.654443000">
        <ele>639.90</ele>
        <time>2015-01-17T10:19:12Z</time>
      </trkpt>
      <trkpt lat="42.404192000" lon="-2.654420000">
        <ele>640.10</ele>
        <time>2015-01-17T10:19:13Z</time>
      </trkpt>
      <trkpt lat="42.404200000" lon="-2.654396000">
        <ele>640.20</ele>
        <time>2015-01-17T10:19:14Z</time>
      </trkpt>
      <trkpt lat="42.404211000" lon="-2.654371000">
        <ele>640.30</ele>
        <time>2015-01-17T10:19:15Z</time>
      </trkpt>
      <trkpt lat="42.404222000" lon="-2.654344000">
        <ele>640.30</ele>
        <time>2015-01-17T10:19:16Z</time>
      </trkpt>
      <trkpt lat="42.404233000" lon="-2.654323000">
        <ele>640.40</ele>
        <time>2015-01-17T10:19:17Z</time>
      </trkpt>
      <trkpt lat="42.404244000" lon="-2.654301000">
        <ele>640.50</ele>
        <time>2015-01-17T10:19:18Z</time>
      </trkpt>
      <trkpt lat="42.404257000" lon="-2.654280000">
        <ele>640.80</ele>
        <time>2015-01-17T10:19:19Z</time>
      </trkpt>
      <trkpt lat="42.404267000" lon="-2.654257000">
        <ele>641.00</ele>
        <time>2015-01-17T10:19:20Z</time>
      </trkpt>
      <trkpt lat="42.404280000" lon="-2.654237000">
        <ele>641.10</ele>
        <time>2015-01-17T10:19:21Z</time>
      </trkpt>
      <trkpt lat="42.404293000" lon="-2.654218000">
        <ele>641.20</ele>
        <time>2015-01-17T10:19:22Z</time>
      </trkpt>
      <trkpt lat="42.404305000" lon="-2.654198000">
        <ele>641.30</ele>
        <time>2015-01-17T10:19:23Z</time>
      </trkpt>
      <trkpt lat="42.404315000" lon="-2.654172000">
        <ele>641.30</ele>
        <time>2015-01-17T10:19:24Z</time>
      </trkpt>
      <trkpt lat="42.404325000" lon="-2.654146000">
        <ele>641.30</ele>
        <time>2015-01-17T10:19:25Z</time>
      </trkpt>
      <trkpt lat="42.404337000" lon="-2.654124000">
        <ele>641.30</ele>
        <time>2015-01-17T10:19:26Z</time>
      </trkpt>
      <trkpt lat="42.404353000" lon="-2.654109000">
        <ele>641.30</ele>
        <time>2015-01-17T10:19:27Z</time>
      </trkpt>
      <trkpt lat="42.404366000" lon="-2.654088000">
        <ele>641.30</ele>
        <time>2015-01-17T10:19:28Z</time>
      </trkpt>
      <trkpt lat="42.404380000" lon="-2.654069000">
        <ele>641.30</ele>
        <time>2015-01-17T10:19:29Z</time>
      </trkpt>
      <trkpt lat="42.404392000" lon="-2.654051000">
        <ele>641.20</ele>
        <time>2015-01-17T10:19:30Z</time>
      </trkpt>
      <trkpt lat="42.404404000" lon="-2.654032000">
        <ele>641.40</ele>
        <time>2015-01-17T10:19:31Z</time>
      </trkpt>
      <trkpt lat="42.404413000" lon="-2.654015000">
        <ele>641.60</ele>
        <time>2015-01-17T10:19:32Z</time>
      </trkpt>
      <trkpt lat="42.404423000" lon="-2.653999000">
        <ele>641.70</ele>
        <time>2015-01-17T10:19:33Z</time>
      </trkpt>
      <trkpt lat="42.404432000" lon="-2.653983000">
        <ele>641.80</ele>
        <time>2015-01-17T10:19:34Z</time>
      </trkpt>
      <trkpt lat="42.404445000" lon="-2.653967000">
        <ele>641.80</ele>
        <time>2015-01-17T10:19:35Z</time>
      </trkpt>
      <trkpt lat="42.404453000" lon="-2.653951000">
        <ele>641.90</ele>
        <time>2015-01-17T10:19:36Z</time>
      </trkpt>
      <trkpt lat="42.404463000" lon="-2.653933000">
        <ele>641.90</ele>
        <time>2015-01-17T10:19:37Z</time>
      </trkpt>
      <trkpt lat="42.404472000" lon="-2.653914000">
        <ele>641.90</ele>
        <time>2015-01-17T10:19:38Z</time>
      </trkpt>
      <trkpt lat="42.404482000" lon="-2.653897000">
        <ele>642.20</ele>
        <time>2015-01-17T10:19:39Z</time>
      </trkpt>
      <trkpt lat="42.404491000" lon="-2.653876000">
        <ele>642.40</ele>
        <time>2015-01-17T10:19:40Z</time>
      </trkpt>
      <trkpt lat="42.404498000" lon="-2.653863000">
        <ele>642.70</ele>
        <time>2015-01-17T10:19:41Z</time>
      </trkpt>
      <trkpt lat="42.404506000" lon="-2.653848000">
        <ele>642.90</ele>
        <time>2015-01-17T10:19:42Z</time>
      </trkpt>
      <trkpt lat="42.404513000" lon="-2.653834000">
        <ele>643.10</ele>
        <time>2015-01-17T10:19:43Z</time>
      </trkpt>
      <trkpt lat="42.404519000" lon="-2.653821000">
        <ele>643.20</ele>
        <time>2015-01-17T10:19:44Z</time>
      </trkpt>
      <trkpt lat="42.404525000" lon="-2.653803000">
        <ele>643.40</ele>
        <time>2015-01-17T10:19:45Z</time>
      </trkpt>
      <trkpt lat="42.404531000" lon="-2.653784000">
        <ele>643.50</ele>
        <time>2015-01-17T10:19:46Z</time>
      </trkpt>
      <trkpt lat="42.404537000" lon="-2.653766000">
        <ele>643.60</ele>
        <time>2015-01-17T10:19:47Z</time>
      </trkpt>
      <trkpt lat="42.404543000" lon="-2.653749000">
        <ele>643.70</ele>
        <time>2015-01-17T10:19:48Z</time>
      </trkpt>
      <trkpt lat="42.404547000" lon="-2.653734000">
        <ele>643.80</ele>
        <time>2015-01-17T10:19:49Z</time>
      </trkpt>
      <trkpt lat="42.404555000" lon="-2.653720000">
        <ele>643.90</ele>
        <time>2015-01-17T10:19:50Z</time>
      </trkpt>
      <trkpt lat="42.404557000" lon="-2.653702000">
        <ele>643.90</ele>
        <time>2015-01-17T10:19:51Z</time>
      </trkpt>
      <trkpt lat="42.404562000" lon="-2.653685000">
        <ele>643.90</ele>
        <time>2015-01-17T10:19:52Z</time>
      </trkpt>
      <trkpt lat="42.404568000" lon="-2.653665000">
        <ele>644.00</ele>
        <time>2015-01-17T10:19:53Z</time>
      </trkpt>
      <trkpt lat="42.404574000" lon="-2.653648000">
        <ele>644.10</ele>
        <time>2015-01-17T10:19:54Z</time>
      </trkpt>
      <trkpt lat="42.404579000" lon="-2.653633000">
        <ele>644.20</ele>
        <time>2015-01-17T10:19:55Z</time>
      </trkpt>
      <trkpt lat="42.404589000" lon="-2.653617000">
        <ele>644.20</ele>
        <time>2015-01-17T10:19:56Z</time>
      </trkpt>
      <trkpt lat="42.404597000" lon="-2.653578000">
        <ele>644.30</ele>
        <time>2015-01-17T10:19:58Z</time>
      </trkpt>
      <trkpt lat="42.404602000" lon="-2.653555000">
        <ele>644.30</ele>
        <time>2015-01-17T10:19:59Z</time>
      </trkpt>
      <trkpt lat="42.404607000" lon="-2.653533000">
        <ele>644.30</ele>
        <time>2015-01-17T10:20:00Z</time>
      </trkpt>
      <trkpt lat="42.404610000" lon="-2.653512000">
        <ele>644.30</ele>
        <time>2015-01-17T10:20:01Z</time>
      </trkpt>
      <trkpt lat="42.404616000" lon="-2.653491000">
        <ele>644.20</ele>
        <time>2015-01-17T10:20:02Z</time>
      </trkpt>
      <trkpt lat="42.404619000" lon="-2.653471000">
        <ele>644.40</ele>
        <time>2015-01-17T10:20:03Z</time>
      </trkpt>
      <trkpt lat="42.404622000" lon="-2.653451000">
        <ele>644.60</ele>
        <time>2015-01-17T10:20:04Z</time>
      </trkpt>
      <trkpt lat="42.404627000" lon="-2.653429000">
        <ele>644.70</ele>
        <time>2015-01-17T10:20:05Z</time>
      </trkpt>
      <trkpt lat="42.404632000" lon="-2.653407000">
        <ele>644.80</ele>
        <time>2015-01-17T10:20:06Z</time>
      </trkpt>
      <trkpt lat="42.404635000" lon="-2.653383000">
        <ele>644.80</ele>
        <time>2015-01-17T10:20:07Z</time>
      </trkpt>
      <trkpt lat="42.404634000" lon="-2.653358000">
        <ele>644.90</ele>
        <time>2015-01-17T10:20:08Z</time>
      </trkpt>
      <trkpt lat="42.404633000" lon="-2.653334000">
        <ele>644.90</ele>
        <time>2015-01-17T10:20:09Z</time>
      </trkpt>
      <trkpt lat="42.404629000" lon="-2.653304000">
        <ele>644.90</ele>
        <time>2015-01-17T10:20:10Z</time>
      </trkpt>
      <trkpt lat="42.404628000" lon="-2.653275000">
        <ele>644.90</ele>
        <time>2015-01-17T10:20:11Z</time>
      </trkpt>
      <trkpt lat="42.404622000" lon="-2.653246000">
        <ele>644.90</ele>
        <time>2015-01-17T10:20:12Z</time>
      </trkpt>
      <trkpt lat="42.404621000" lon="-2.653220000">
        <ele>644.90</ele>
        <time>2015-01-17T10:20:13Z</time>
      </trkpt>
      <trkpt lat="42.404622000" lon="-2.653196000">
        <ele>644.90</ele>
        <time>2015-01-17T10:20:14Z</time>
      </trkpt>
      <trkpt lat="42.404623000" lon="-2.653177000">
        <ele>645.30</ele>
        <time>2015-01-17T10:20:15Z</time>
      </trkpt>
      <trkpt lat="42.404623000" lon="-2.653155000">
        <ele>645.60</ele>
        <time>2015-01-17T10:20:16Z</time>
      </trkpt>
      <trkpt lat="42.404622000" lon="-2.653133000">
        <ele>646.00</ele>
        <time>2015-01-17T10:20:17Z</time>
      </trkpt>
      <trkpt lat="42.404622000" lon="-2.653110000">
        <ele>646.30</ele>
        <time>2015-01-17T10:20:18Z</time>
      </trkpt>
      <trkpt lat="42.404621000" lon="-2.653090000">
        <ele>646.60</ele>
        <time>2015-01-17T10:20:19Z</time>
      </trkpt>
      <trkpt lat="42.404620000" lon="-2.653071000">
        <ele>646.80</ele>
        <time>2015-01-17T10:20:20Z</time>
      </trkpt>
      <trkpt lat="42.404621000" lon="-2.653050000">
        <ele>646.90</ele>
        <time>2015-01-17T10:20:21Z</time>
      </trkpt>
      <trkpt lat="42.404623000" lon="-2.653030000">
        <ele>647.00</ele>
        <time>2015-01-17T10:20:22Z</time>
      </trkpt>
      <trkpt lat="42.404621000" lon="-2.653011000">
        <ele>647.20</ele>
        <time>2015-01-17T10:20:23Z</time>
      </trkpt>
      <trkpt lat="42.404620000" lon="-2.652993000">
        <ele>647.30</ele>
        <time>2015-01-17T10:20:24Z</time>
      </trkpt>
      <trkpt lat="42.404620000" lon="-2.652973000">
        <ele>647.60</ele>
        <time>2015-01-17T10:20:25Z</time>
      </trkpt>
      <trkpt lat="42.404621000" lon="-2.652952000">
        <ele>647.80</ele>
        <time>2015-01-17T10:20:26Z</time>
      </trkpt>
      <trkpt lat="42.404623000" lon="-2.652932000">
        <ele>648.10</ele>
        <time>2015-01-17T10:20:27Z</time>
      </trkpt>
      <trkpt lat="42.404626000" lon="-2.652910000">
        <ele>648.30</ele>
        <time>2015-01-17T10:20:28Z</time>
      </trkpt>
      <trkpt lat="42.404631000" lon="-2.652890000">
        <ele>648.40</ele>
        <time>2015-01-17T10:20:29Z</time>
      </trkpt>
      <trkpt lat="42.404635000" lon="-2.652871000">
        <ele>648.50</ele>
        <time>2015-01-17T10:20:30Z</time>
      </trkpt>
      <trkpt lat="42.404639000" lon="-2.652854000">
        <ele>648.80</ele>
        <time>2015-01-17T10:20:31Z</time>
      </trkpt>
      <trkpt lat="42.404642000" lon="-2.652835000">
        <ele>649.00</ele>
        <time>2015-01-17T10:20:32Z</time>
      </trkpt>
      <trkpt lat="42.404646000" lon="-2.652811000">
        <ele>649.30</ele>
        <time>2015-01-17T10:20:33Z</time>
      </trkpt>
      <trkpt lat="42.404651000" lon="-2.652787000">
        <ele>649.50</ele>
        <time>2015-01-17T10:20:34Z</time>
      </trkpt>
      <trkpt lat="42.404655000" lon="-2.652760000">
        <ele>650.10</ele>
        <time>2015-01-17T10:20:35Z</time>
      </trkpt>
      <trkpt lat="42.404659000" lon="-2.652741000">
        <ele>650.50</ele>
        <time>2015-01-17T10:20:36Z</time>
      </trkpt>
      <trkpt lat="42.404662000" lon="-2.652721000">
        <ele>650.80</ele>
        <time>2015-01-17T10:20:37Z</time>
      </trkpt>
      <trkpt lat="42.404667000" lon="-2.652701000">
        <ele>651.10</ele>
        <time>2015-01-17T10:20:38Z</time>
      </trkpt>
      <trkpt lat="42.404670000" lon="-2.652682000">
        <ele>651.50</ele>
        <time>2015-01-17T10:20:39Z</time>
      </trkpt>
      <trkpt lat="42.404669000" lon="-2.652661000">
        <ele>651.80</ele>
        <time>2015-01-17T10:20:40Z</time>
      </trkpt>
      <trkpt lat="42.404670000" lon="-2.652637000">
        <ele>652.60</ele>
        <time>2015-01-17T10:20:41Z</time>
      </trkpt>
      <trkpt lat="42.404673000" lon="-2.652616000">
        <ele>653.10</ele>
        <time>2015-01-17T10:20:42Z</time>
      </trkpt>
      <trkpt lat="42.404677000" lon="-2.652596000">
        <ele>653.70</ele>
        <time>2015-01-17T10:20:43Z</time>
      </trkpt>
      <trkpt lat="42.404679000" lon="-2.652572000">
        <ele>654.10</ele>
        <time>2015-01-17T10:20:44Z</time>
      </trkpt>
      <trkpt lat="42.404685000" lon="-2.652548000">
        <ele>654.50</ele>
        <time>2015-01-17T10:20:45Z</time>
      </trkpt>
      <trkpt lat="42.404686000" lon="-2.652526000">
        <ele>654.80</ele>
        <time>2015-01-17T10:20:46Z</time>
      </trkpt>
      <trkpt lat="42.404688000" lon="-2.652507000">
        <ele>655.10</ele>
        <time>2015-01-17T10:20:47Z</time>
      </trkpt>
      <trkpt lat="42.404692000" lon="-2.652492000">
        <ele>655.40</ele>
        <time>2015-01-17T10:20:48Z</time>
      </trkpt>
      <trkpt lat="42.404697000" lon="-2.652477000">
        <ele>655.70</ele>
        <time>2015-01-17T10:20:49Z</time>
      </trkpt>
      <trkpt lat="42.404700000" lon="-2.652457000">
        <ele>656.00</ele>
        <time>2015-01-17T10:20:50Z</time>
      </trkpt>
      <trkpt lat="42.404703000" lon="-2.652446000">
        <ele>656.10</ele>
        <time>2015-01-17T10:20:51Z</time>
      </trkpt>
      <trkpt lat="42.404705000" lon="-2.652426000">
        <ele>656.30</ele>
        <time>2015-01-17T10:20:52Z</time>
      </trkpt>
      <trkpt lat="42.404705000" lon="-2.652407000">
        <ele>656.40</ele>
        <time>2015-01-17T10:20:53Z</time>
      </trkpt>
      <trkpt lat="42.404707000" lon="-2.652398000">
        <ele>656.60</ele>
        <time>2015-01-17T10:20:54Z</time>
      </trkpt>
      <trkpt lat="42.404709000" lon="-2.652384000">
        <ele>656.80</ele>
        <time>2015-01-17T10:20:55Z</time>
      </trkpt>
      <trkpt lat="42.404706000" lon="-2.652365000">
        <ele>657.00</ele>
        <time>2015-01-17T10:20:56Z</time>
      </trkpt>
      <trkpt lat="42.404709000" lon="-2.652351000">
        <ele>657.10</ele>
        <time>2015-01-17T10:20:57Z</time>
      </trkpt>
      <trkpt lat="42.404714000" lon="-2.652341000">
        <ele>657.30</ele>
        <time>2015-01-17T10:20:59Z</time>
      </trkpt>
      <trkpt lat="42.404712000" lon="-2.652340000">
        <ele>657.30</ele>
        <time>2015-01-17T10:21:00Z</time>
      </trkpt>
      <trkpt lat="42.404714000" lon="-2.652337000">
        <ele>657.40</ele>
        <time>2015-01-17T10:21:01Z</time>
      </trkpt>
      <trkpt lat="42.404715000" lon="-2.652337000">
        <ele>657.40</ele>
        <time>2015-01-17T10:21:02Z</time>
      </trkpt>
      <trkpt lat="42.404715000" lon="-2.652336000">
        <ele>657.40</ele>
        <time>2015-01-17T10:21:03Z</time>
      </trkpt>
      <trkpt lat="42.404715000" lon="-2.652337000">
        <ele>657.40</ele>
        <time>2015-01-17T10:21:04Z</time>
      </trkpt>
      <trkpt lat="42.404716000" lon="-2.652337000">
        <ele>657.40</ele>
        <time>2015-01-17T10:21:05Z</time>
      </trkpt>
      <trkpt lat="42.404719000" lon="-2.652342000">
        <ele>657.50</ele>
        <time>2015-01-17T10:21:06Z</time>
      </trkpt>
      <trkpt lat="42.404721000" lon="-2.652348000">
        <ele>657.40</ele>
        <time>2015-01-17T10:21:07Z</time>
      </trkpt>
      <trkpt lat="42.404720000" lon="-2.652350000">
        <ele>657.40</ele>
        <time>2015-01-17T10:21:08Z</time>
      </trkpt>
      <trkpt lat="42.404719000" lon="-2.652351000">
        <ele>657.30</ele>
        <time>2015-01-17T10:21:09Z</time>
      </trkpt>
      <trkpt lat="42.404720000" lon="-2.652351000">
        <ele>657.30</ele>
        <time>2015-01-17T10:21:10Z</time>
      </trkpt>
      <trkpt lat="42.404721000" lon="-2.652349000">
        <ele>657.40</ele>
        <time>2015-01-17T10:21:11Z</time>
      </trkpt>
      <trkpt lat="42.404722000" lon="-2.652346000">
        <ele>657.50</ele>
        <time>2015-01-17T10:21:12Z</time>
      </trkpt>
      <trkpt lat="42.404722000" lon="-2.652343000">
        <ele>657.60</ele>
        <time>2015-01-17T10:21:13Z</time>
      </trkpt>
      <trkpt lat="42.404723000" lon="-2.652344000">
        <ele>657.60</ele>
        <time>2015-01-17T10:21:14Z</time>
      </trkpt>
      <trkpt lat="42.404723000" lon="-2.652346000">
        <ele>657.70</ele>
        <time>2015-01-17T10:21:15Z</time>
      </trkpt>
      <trkpt lat="42.404720000" lon="-2.652348000">
        <ele>657.70</ele>
        <time>2015-01-17T10:21:16Z</time>
      </trkpt>
      <trkpt lat="42.404717000" lon="-2.652350000">
        <ele>657.80</ele>
        <time>2015-01-17T10:21:17Z</time>
      </trkpt>
      <trkpt lat="42.404716000" lon="-2.652352000">
        <ele>657.80</ele>
        <time>2015-01-17T10:21:18Z</time>
      </trkpt>
      <trkpt lat="42.404713000" lon="-2.652349000">
        <ele>657.70</ele>
        <time>2015-01-17T10:21:19Z</time>
      </trkpt>
      <trkpt lat="42.404710000" lon="-2.652353000">
        <ele>657.60</ele>
        <time>2015-01-17T10:21:20Z</time>
      </trkpt>
      <trkpt lat="42.404709000" lon="-2.652357000">
        <ele>657.60</ele>
        <time>2015-01-17T10:21:21Z</time>
      </trkpt>
      <trkpt lat="42.404708000" lon="-2.652359000">
        <ele>657.60</ele>
        <time>2015-01-17T10:21:22Z</time>
      </trkpt>
      <trkpt lat="42.404709000" lon="-2.652356000">
        <ele>657.70</ele>
        <time>2015-01-17T10:21:23Z</time>
      </trkpt>
      <trkpt lat="42.404708000" lon="-2.652351000">
        <ele>657.80</ele>
        <time>2015-01-17T10:21:24Z</time>
      </trkpt>
      <trkpt lat="42.404709000" lon="-2.652349000">
        <ele>658.00</ele>
        <time>2015-01-17T10:21:25Z</time>
      </trkpt>
      <trkpt lat="42.404710000" lon="-2.652346000">
        <ele>658.10</ele>
        <time>2015-01-17T10:21:26Z</time>
      </trkpt>
      <trkpt lat="42.404712000" lon="-2.652343000">
        <ele>658.20</ele>
        <time>2015-01-17T10:21:27Z</time>
      </trkpt>
      <trkpt lat="42.404713000" lon="-2.652343000">
        <ele>658.30</ele>
        <time>2015-01-17T10:21:28Z</time>
      </trkpt>
      <trkpt lat="42.404716000" lon="-2.652343000">
        <ele>658.40</ele>
        <time>2015-01-17T10:21:29Z</time>
      </trkpt>
      <trkpt lat="42.404719000" lon="-2.652341000">
        <ele>658.40</ele>
        <time>2015-01-17T10:21:30Z</time>
      </trkpt>
      <trkpt lat="42.404723000" lon="-2.652340000">
        <ele>658.10</ele>
        <time>2015-01-17T10:21:31Z</time>
      </trkpt>
      <trkpt lat="42.404725000" lon="-2.652340000">
        <ele>657.90</ele>
        <time>2015-01-17T10:21:32Z</time>
      </trkpt>
      <trkpt lat="42.404724000" lon="-2.652340000">
        <ele>657.70</ele>
        <time>2015-01-17T10:21:33Z</time>
      </trkpt>
      <trkpt lat="42.404723000" lon="-2.652341000">
        <ele>657.60</ele>
        <time>2015-01-17T10:21:34Z</time>
      </trkpt>
      <trkpt lat="42.404722000" lon="-2.652346000">
        <ele>657.60</ele>
        <time>2015-01-17T10:21:35Z</time>
      </trkpt>
      <trkpt lat="42.404722000" lon="-2.652350000">
        <ele>657.70</ele>
        <time>2015-01-17T10:21:36Z</time>
      </trkpt>
      <trkpt lat="42.404720000" lon="-2.652355000">
        <ele>657.80</ele>
        <time>2015-01-17T10:21:37Z</time>
      </trkpt>
      <trkpt lat="42.404720000" lon="-2.652358000">
        <ele>657.80</ele>
        <time>2015-01-17T10:21:38Z</time>
      </trkpt>
      <trkpt lat="42.404721000" lon="-2.652360000">
        <ele>657.80</ele>
        <time>2015-01-17T10:21:39Z</time>
      </trkpt>
      <trkpt lat="42.404721000" lon="-2.652359000">
        <ele>657.90</ele>
        <time>2015-01-17T10:21:40Z</time>
      </trkpt>
      <trkpt lat="42.404723000" lon="-2.652358000">
        <ele>657.90</ele>
        <time>2015-01-17T10:21:41Z</time>
      </trkpt>
      <trkpt lat="42.404724000" lon="-2.652356000">
        <ele>657.90</ele>
        <time>2015-01-17T10:21:42Z</time>
      </trkpt>
      <trkpt lat="42.404725000" lon="-2.652352000">
        <ele>657.90</ele>
        <time>2015-01-17T10:21:43Z</time>
      </trkpt>
      <trkpt lat="42.404724000" lon="-2.652349000">
        <ele>657.90</ele>
        <time>2015-01-17T10:21:44Z</time>
      </trkpt>
      <trkpt lat="42.404725000" lon="-2.652344000">
        <ele>657.90</ele>
        <time>2015-01-17T10:21:45Z</time>
      </trkpt>
      <trkpt lat="42.404727000" lon="-2.652340000">
        <ele>657.90</ele>
        <time>2015-01-17T10:21:46Z</time>
      </trkpt>
      <trkpt lat="42.404729000" lon="-2.652337000">
        <ele>657.90</ele>
        <time>2015-01-17T10:21:47Z</time>
      </trkpt>
      <trkpt lat="42.404730000" lon="-2.652339000">
        <ele>657.90</ele>
        <time>2015-01-17T10:21:48Z</time>
      </trkpt>
      <trkpt lat="42.404730000" lon="-2.652343000">
        <ele>657.90</ele>
        <time>2015-01-17T10:21:49Z</time>
      </trkpt>
      <trkpt lat="42.404730000" lon="-2.652347000">
        <ele>657.90</ele>
        <time>2015-01-17T10:21:50Z</time>
      </trkpt>
      <trkpt lat="42.404729000" lon="-2.652352000">
        <ele>657.90</ele>
        <time>2015-01-17T10:21:51Z</time>
      </trkpt>
      <trkpt lat="42.404726000" lon="-2.652354000">
        <ele>657.80</ele>
        <time>2015-01-17T10:21:52Z</time>
      </trkpt>
      <trkpt lat="42.404724000" lon="-2.652353000">
        <ele>657.80</ele>
        <time>2015-01-17T10:21:53Z</time>
      </trkpt>
      <trkpt lat="42.404721000" lon="-2.652352000">
        <ele>657.70</ele>
        <time>2015-01-17T10:21:54Z</time>
      </trkpt>
      <trkpt lat="42.404719000" lon="-2.652355000">
        <ele>657.70</ele>
        <time>2015-01-17T10:21:55Z</time>
      </trkpt>
      <trkpt lat="42.404718000" lon="-2.652355000">
        <ele>657.70</ele>
        <time>2015-01-17T10:21:56Z</time>
      </trkpt>
      <trkpt lat="42.404717000" lon="-2.652351000">
        <ele>657.80</ele>
        <time>2015-01-17T10:21:57Z</time>
      </trkpt>
      <trkpt lat="42.404717000" lon="-2.652349000">
        <ele>657.80</ele>
        <time>2015-01-17T10:21:58Z</time>
      </trkpt>
      <trkpt lat="42.404717000" lon="-2.652351000">
        <ele>657.90</ele>
        <time>2015-01-17T10:22:00Z</time>
      </trkpt>
      <trkpt lat="42.404718000" lon="-2.652351000">
        <ele>657.90</ele>
        <time>2015-01-17T10:22:01Z</time>
      </trkpt>
      <trkpt lat="42.404718000" lon="-2.652348000">
        <ele>657.90</ele>
        <time>2015-01-17T10:22:02Z</time>
      </trkpt>
      <trkpt lat="42.404718000" lon="-2.652343000">
        <ele>657.90</ele>
        <time>2015-01-17T10:22:03Z</time>
      </trkpt>
      <trkpt lat="42.404722000" lon="-2.652340000">
        <ele>658.00</ele>
        <time>2015-01-17T10:22:04Z</time>
      </trkpt>
      <trkpt lat="42.404725000" lon="-2.652336000">
        <ele>657.90</ele>
        <time>2015-01-17T10:22:05Z</time>
      </trkpt>
      <trkpt lat="42.404727000" lon="-2.652335000">
        <ele>657.90</ele>
        <time>2015-01-17T10:22:06Z</time>
      </trkpt>
      <trkpt lat="42.404728000" lon="-2.652334000">
        <ele>658.00</ele>
        <time>2015-01-17T10:22:07Z</time>
      </trkpt>
      <trkpt lat="42.404729000" lon="-2.652335000">
        <ele>658.00</ele>
        <time>2015-01-17T10:22:08Z</time>
      </trkpt>
      <trkpt lat="42.404728000" lon="-2.652334000">
        <ele>658.00</ele>
        <time>2015-01-17T10:22:09Z</time>
      </trkpt>
      <trkpt lat="42.404726000" lon="-2.652333000">
        <ele>657.90</ele>
        <time>2015-01-17T10:22:10Z</time>
      </trkpt>
      <trkpt lat="42.404725000" lon="-2.652333000">
        <ele>657.80</ele>
        <time>2015-01-17T10:22:11Z</time>
      </trkpt>
      <trkpt lat="42.404723000" lon="-2.652333000">
        <ele>657.80</ele>
        <time>2015-01-17T10:22:12Z</time>
      </trkpt>
      <trkpt lat="42.404722000" lon="-2.652331000">
        <ele>657.70</ele>
        <time>2015-01-17T10:22:13Z</time>
      </trkpt>
      <trkpt lat="42.404723000" lon="-2.652333000">
        <ele>657.70</ele>
        <time>2015-01-17T10:22:14Z</time>
      </trkpt>
      <trkpt lat="42.404724000" lon="-2.652337000">
        <ele>657.80</ele>
        <time>2015-01-17T10:22:15Z</time>
      </trkpt>
      <trkpt lat="42.404724000" lon="-2.652342000">
        <ele>657.90</ele>
        <time>2015-01-17T10:22:16Z</time>
      </trkpt>
      <trkpt lat="42.404725000" lon="-2.652345000">
        <ele>657.90</ele>
        <time>2015-01-17T10:22:17Z</time>
      </trkpt>
      <trkpt lat="42.404725000" lon="-2.652342000">
        <ele>658.00</ele>
        <time>2015-01-17T10:22:18Z</time>
      </trkpt>
      <trkpt lat="42.404725000" lon="-2.652342000">
        <ele>657.90</ele>
        <time>2015-01-17T10:22:19Z</time>
      </trkpt>
      <trkpt lat="42.404726000" lon="-2.652346000">
        <ele>657.90</ele>
        <time>2015-01-17T10:22:20Z</time>
      </trkpt>
      <trkpt lat="42.404726000" lon="-2.652350000">
        <ele>657.90</ele>
        <time>2015-01-17T10:22:21Z</time>
      </trkpt>
      <trkpt lat="42.404726000" lon="-2.652351000">
        <ele>657.90</ele>
        <time>2015-01-17T10:22:22Z</time>
      </trkpt>
      <trkpt lat="42.404725000" lon="-2.652356000">
        <ele>657.90</ele>
        <time>2015-01-17T10:22:23Z</time>
      </trkpt>
      <trkpt lat="42.404723000" lon="-2.652356000">
        <ele>657.90</ele>
        <time>2015-01-17T10:22:24Z</time>
      </trkpt>
      <trkpt lat="42.404723000" lon="-2.652356000">
        <ele>658.10</ele>
        <time>2015-01-17T10:22:25Z</time>
      </trkpt>
      <trkpt lat="42.404721000" lon="-2.652357000">
        <ele>658.20</ele>
        <time>2015-01-17T10:22:26Z</time>
      </trkpt>
      <trkpt lat="42.404720000" lon="-2.652355000">
        <ele>658.30</ele>
        <time>2015-01-17T10:22:27Z</time>
      </trkpt>
      <trkpt lat="42.404721000" lon="-2.652357000">
        <ele>658.40</ele>
        <time>2015-01-17T10:22:28Z</time>
      </trkpt>
      <trkpt lat="42.404721000" lon="-2.652357000">
        <ele>658.40</ele>
        <time>2015-01-17T10:22:29Z</time>
      </trkpt>
      <trkpt lat="42.404721000" lon="-2.652357000">
        <ele>658.40</ele>
        <time>2015-01-17T10:22:30Z</time>
      </trkpt>
      <trkpt lat="42.404721000" lon="-2.652358000">
        <ele>658.50</ele>
        <time>2015-01-17T10:22:31Z</time>
      </trkpt>
      <trkpt lat="42.404720000" lon="-2.652357000">
        <ele>658.50</ele>
        <time>2015-01-17T10:22:32Z</time>
      </trkpt>
      <trkpt lat="42.404721000" lon="-2.652359000">
        <ele>658.40</ele>
        <time>2015-01-17T10:22:33Z</time>
      </trkpt>
      <trkpt lat="42.404721000" lon="-2.652361000">
        <ele>658.30</ele>
        <time>2015-01-17T10:22:34Z</time>
      </trkpt>
      <trkpt lat="42.404720000" lon="-2.652362000">
        <ele>658.20</ele>
        <time>2015-01-17T10:22:35Z</time>
      </trkpt>
      <trkpt lat="42.404718000" lon="-2.652366000">
        <ele>658.20</ele>
        <time>2015-01-17T10:22:36Z</time>
      </trkpt>
      <trkpt lat="42.404717000" lon="-2.652373000">
        <ele>658.10</ele>
        <time>2015-01-17T10:22:37Z</time>
      </trkpt>
      <trkpt lat="42.404717000" lon="-2.652377000">
        <ele>658.10</ele>
        <time>2015-01-17T10:22:38Z</time>
      </trkpt>
      <trkpt lat="42.404714000" lon="-2.652379000">
        <ele>658.10</ele>
        <time>2015-01-17T10:22:39Z</time>
      </trkpt>
      <trkpt lat="42.404714000" lon="-2.652381000">
        <ele>658.10</ele>
        <time>2015-01-17T10:22:40Z</time>
      </trkpt>
      <trkpt lat="42.404714000" lon="-2.652380000">
        <ele>658.10</ele>
        <time>2015-01-17T10:22:41Z</time>
      </trkpt>
      <trkpt lat="42.404714000" lon="-2.652377000">
        <ele>658.20</ele>
        <time>2015-01-17T10:22:42Z</time>
      </trkpt>
      <trkpt lat="42.404714000" lon="-2.652373000">
        <ele>658.20</ele>
        <time>2015-01-17T10:22:43Z</time>
      </trkpt>
      <trkpt lat="42.404713000" lon="-2.652368000">
        <ele>658.20</ele>
        <time>2015-01-17T10:22:44Z</time>
      </trkpt>
      <trkpt lat="42.404711000" lon="-2.652365000">
        <ele>658.20</ele>
        <time>2015-01-17T10:22:45Z</time>
      </trkpt>
      <trkpt lat="42.404710000" lon="-2.652364000">
        <ele>658.20</ele>
        <time>2015-01-17T10:22:46Z</time>
      </trkpt>
      <trkpt lat="42.404708000" lon="-2.652364000">
        <ele>658.20</ele>
        <time>2015-01-17T10:22:47Z</time>
      </trkpt>
      <trkpt lat="42.404707000" lon="-2.652363000">
        <ele>658.30</ele>
        <time>2015-01-17T10:22:48Z</time>
      </trkpt>
      <trkpt lat="42.404704000" lon="-2.652363000">
        <ele>658.30</ele>
        <time>2015-01-17T10:22:49Z</time>
      </trkpt>
      <trkpt lat="42.404699000" lon="-2.652361000">
        <ele>658.40</ele>
        <time>2015-01-17T10:22:50Z</time>
      </trkpt>
      <trkpt lat="42.404697000" lon="-2.652364000">
        <ele>658.30</ele>
        <time>2015-01-17T10:22:51Z</time>
      </trkpt>
      <trkpt lat="42.404697000" lon="-2.652368000">
        <ele>658.30</ele>
        <time>2015-01-17T10:22:52Z</time>
      </trkpt>
      <trkpt lat="42.404696000" lon="-2.652373000">
        <ele>658.30</ele>
        <time>2015-01-17T10:22:53Z</time>
      </trkpt>
      <trkpt lat="42.404695000" lon="-2.652375000">
        <ele>658.20</ele>
        <time>2015-01-17T10:22:54Z</time>
      </trkpt>
      <trkpt lat="42.404696000" lon="-2.652374000">
        <ele>658.20</ele>
        <time>2015-01-17T10:22:55Z</time>
      </trkpt>
      <trkpt lat="42.404697000" lon="-2.652372000">
        <ele>658.20</ele>
        <time>2015-01-17T10:22:56Z</time>
      </trkpt>
      <trkpt lat="42.404701000" lon="-2.652371000">
        <ele>658.20</ele>
        <time>2015-01-17T10:22:57Z</time>
      </trkpt>
      <trkpt lat="42.404705000" lon="-2.652370000">
        <ele>658.20</ele>
        <time>2015-01-17T10:22:58Z</time>
      </trkpt>
      <trkpt lat="42.404708000" lon="-2.652372000">
        <ele>658.20</ele>
        <time>2015-01-17T10:22:59Z</time>
      </trkpt>
      <trkpt lat="42.404710000" lon="-2.652370000">
        <ele>658.20</ele>
        <time>2015-01-17T10:23:01Z</time>
      </trkpt>
      <trkpt lat="42.404708000" lon="-2.652368000">
        <ele>658.20</ele>
        <time>2015-01-17T10:23:02Z</time>
      </trkpt>
      <trkpt lat="42.404704000" lon="-2.652367000">
        <ele>658.20</ele>
        <time>2015-01-17T10:23:03Z</time>
      </trkpt>
      <trkpt lat="42.404700000" lon="-2.652365000">
        <ele>658.20</ele>
        <time>2015-01-17T10:23:04Z</time>
      </trkpt>
      <trkpt lat="42.404699000" lon="-2.652360000">
        <ele>658.30</ele>
        <time>2015-01-17T10:23:05Z</time>
      </trkpt>
      <trkpt lat="42.404698000" lon="-2.652359000">
        <ele>658.30</ele>
        <time>2015-01-17T10:23:06Z</time>
      </trkpt>
      <trkpt lat="42.404699000" lon="-2.652347000">
        <ele>658.30</ele>
        <time>2015-01-17T10:23:07Z</time>
      </trkpt>
      <trkpt lat="42.404697000" lon="-2.652326000">
        <ele>658.40</ele>
        <time>2015-01-17T10:23:08Z</time>
      </trkpt>
      <trkpt lat="42.404698000" lon="-2.652303000">
        <ele>658.40</ele>
        <time>2015-01-17T10:23:09Z</time>
      </trkpt>
      <trkpt lat="42.404702000" lon="-2.652283000">
        <ele>658.40</ele>
        <time>2015-01-17T10:23:10Z</time>
      </trkpt>
      <trkpt lat="42.404703000" lon="-2.652257000">
        <ele>658.30</ele>
        <time>2015-01-17T10:23:11Z</time>
      </trkpt>
      <trkpt lat="42.404702000" lon="-2.652231000">
        <ele>658.20</ele>
        <time>2015-01-17T10:23:12Z</time>
      </trkpt>
      <trkpt lat="42.404699000" lon="-2.652198000">
        <ele>658.30</ele>
        <time>2015-01-17T10:23:13Z</time>
      </trkpt>
      <trkpt lat="42.404697000" lon="-2.652163000">
        <ele>658.30</ele>
        <time>2015-01-17T10:23:14Z</time>
      </trkpt>
      <trkpt lat="42.404695000" lon="-2.652122000">
        <ele>658.30</ele>
        <time>2015-01-17T10:23:15Z</time>
      </trkpt>
      <trkpt lat="42.404696000" lon="-2.652084000">
        <ele>658.40</ele>
        <time>2015-01-17T10:23:16Z</time>
      </trkpt>
      <trkpt lat="42.404698000" lon="-2.652046000">
        <ele>658.40</ele>
        <time>2015-01-17T10:23:17Z</time>
      </trkpt>
      <trkpt lat="42.404699000" lon="-2.652011000">
        <ele>658.40</ele>
        <time>2015-01-17T10:23:18Z</time>
      </trkpt>
      <trkpt lat="42.404690000" lon="-2.651980000">
        <ele>658.20</ele>
        <time>2015-01-17T10:23:19Z</time>
      </trkpt>
      <trkpt lat="42.404680000" lon="-2.651954000">
        <ele>658.00</ele>
        <time>2015-01-17T10:23:20Z</time>
      </trkpt>
      <trkpt lat="42.404671000" lon="-2.651926000">
        <ele>657.90</ele>
        <time>2015-01-17T10:23:21Z</time>
      </trkpt>
      <trkpt lat="42.404660000" lon="-2.651902000">
        <ele>657.80</ele>
        <time>2015-01-17T10:23:22Z</time>
      </trkpt>
      <trkpt lat="42.404649000" lon="-2.651881000">
        <ele>657.80</ele>
        <time>2015-01-17T10:23:23Z</time>
      </trkpt>
      <trkpt lat="42.404636000" lon="-2.651858000">
        <ele>657.80</ele>
        <time>2015-01-17T10:23:24Z</time>
      </trkpt>
      <trkpt lat="42.404624000" lon="-2.651834000">
        <ele>657.80</ele>
        <time>2015-01-17T10:23:25Z</time>
      </trkpt>
      <trkpt lat="42.404607000" lon="-2.651815000">
        <ele>657.80</ele>
        <time>2015-01-17T10:23:26Z</time>
      </trkpt>
      <trkpt lat="42.404595000" lon="-2.651790000">
        <ele>657.80</ele>
        <time>2015-01-17T10:23:27Z</time>
      </trkpt>
      <trkpt lat="42.404584000" lon="-2.651767000">
        <ele>657.80</ele>
        <time>2015-01-17T10:23:28Z</time>
      </trkpt>
      <trkpt lat="42.404569000" lon="-2.651738000">
        <ele>657.80</ele>
        <time>2015-01-17T10:23:29Z</time>
      </trkpt>
      <trkpt lat="42.404557000" lon="-2.651714000">
        <ele>657.80</ele>
        <time>2015-01-17T10:23:30Z</time>
      </trkpt>
      <trkpt lat="42.404548000" lon="-2.651688000">
        <ele>657.80</ele>
        <time>2015-01-17T10:23:31Z</time>
      </trkpt>
      <trkpt lat="42.404534000" lon="-2.651662000">
        <ele>657.80</ele>
        <time>2015-01-17T10:23:32Z</time>
      </trkpt>
      <trkpt lat="42.404525000" lon="-2.651636000">
        <ele>658.10</ele>
        <time>2015-01-17T10:23:33Z</time>
      </trkpt>
      <trkpt lat="42.404518000" lon="-2.651611000">
        <ele>658.30</ele>
        <time>2015-01-17T10:23:34Z</time>
      </trkpt>
      <trkpt lat="42.404511000" lon="-2.651582000">
        <ele>658.40</ele>
        <time>2015-01-17T10:23:35Z</time>
      </trkpt>
      <trkpt lat="42.404509000" lon="-2.651558000">
        <ele>658.60</ele>
        <time>2015-01-17T10:23:36Z</time>
      </trkpt>
      <trkpt lat="42.404507000" lon="-2.651533000">
        <ele>658.60</ele>
        <time>2015-01-17T10:23:37Z</time>
      </trkpt>
      <trkpt lat="42.404505000" lon="-2.651510000">
        <ele>658.70</ele>
        <time>2015-01-17T10:23:38Z</time>
      </trkpt>
      <trkpt lat="42.404504000" lon="-2.651487000">
        <ele>658.90</ele>
        <time>2015-01-17T10:23:39Z</time>
      </trkpt>
      <trkpt lat="42.404503000" lon="-2.651463000">
        <ele>659.00</ele>
        <time>2015-01-17T10:23:40Z</time>
      </trkpt>
      <trkpt lat="42.404501000" lon="-2.651437000">
        <ele>659.20</ele>
        <time>2015-01-17T10:23:41Z</time>
      </trkpt>
      <trkpt lat="42.404502000" lon="-2.651408000">
        <ele>659.30</ele>
        <time>2015-01-17T10:23:42Z</time>
      </trkpt>
      <trkpt lat="42.404502000" lon="-2.651382000">
        <ele>659.60</ele>
        <time>2015-01-17T10:23:43Z</time>
      </trkpt>
      <trkpt lat="42.404501000" lon="-2.651351000">
        <ele>659.70</ele>
        <time>2015-01-17T10:23:44Z</time>
      </trkpt>
      <trkpt lat="42.404500000" lon="-2.651319000">
        <ele>659.80</ele>
        <time>2015-01-17T10:23:45Z</time>
      </trkpt>
      <trkpt lat="42.404500000" lon="-2.651290000">
        <ele>659.90</ele>
        <time>2015-01-17T10:23:46Z</time>
      </trkpt>
      <trkpt lat="42.404499000" lon="-2.651264000">
        <ele>660.50</ele>
        <time>2015-01-17T10:23:47Z</time>
      </trkpt>
      <trkpt lat="42.404497000" lon="-2.651239000">
        <ele>660.90</ele>
        <time>2015-01-17T10:23:48Z</time>
      </trkpt>
      <trkpt lat="42.404499000" lon="-2.651220000">
        <ele>661.20</ele>
        <time>2015-01-17T10:23:49Z</time>
      </trkpt>
      <trkpt lat="42.404496000" lon="-2.651197000">
        <ele>661.40</ele>
        <time>2015-01-17T10:23:50Z</time>
      </trkpt>
      <trkpt lat="42.404494000" lon="-2.651175000">
        <ele>661.60</ele>
        <time>2015-01-17T10:23:51Z</time>
      </trkpt>
      <trkpt lat="42.404486000" lon="-2.651155000">
        <ele>661.80</ele>
        <time>2015-01-17T10:23:52Z</time>
      </trkpt>
      <trkpt lat="42.404486000" lon="-2.651141000">
        <ele>662.00</ele>
        <time>2015-01-17T10:23:53Z</time>
      </trkpt>
      <trkpt lat="42.404487000" lon="-2.651125000">
        <ele>662.10</ele>
        <time>2015-01-17T10:23:54Z</time>
      </trkpt>
      <trkpt lat="42.404488000" lon="-2.651109000">
        <ele>662.30</ele>
        <time>2015-01-17T10:23:55Z</time>
      </trkpt>
      <trkpt lat="42.404489000" lon="-2.651091000">
        <ele>662.40</ele>
        <time>2015-01-17T10:23:56Z</time>
      </trkpt>
      <trkpt lat="42.404488000" lon="-2.651072000">
        <ele>662.50</ele>
        <time>2015-01-17T10:23:57Z</time>
      </trkpt>
      <trkpt lat="42.404490000" lon="-2.651052000">
        <ele>662.60</ele>
        <time>2015-01-17T10:23:58Z</time>
      </trkpt>
      <trkpt lat="42.404490000" lon="-2.651037000">
        <ele>662.70</ele>
        <time>2015-01-17T10:23:59Z</time>
      </trkpt>
      <trkpt lat="42.404491000" lon="-2.651017000">
        <ele>662.80</ele>
        <time>2015-01-17T10:24:00Z</time>
      </trkpt>
      <trkpt lat="42.404493000" lon="-2.650997000">
        <ele>662.80</ele>
        <time>2015-01-17T10:24:01Z</time>
      </trkpt>
      <trkpt lat="42.404503000" lon="-2.650948000">
        <ele>662.80</ele>
        <time>2015-01-17T10:24:03Z</time>
      </trkpt>
      <trkpt lat="42.404511000" lon="-2.650923000">
        <ele>662.70</ele>
        <time>2015-01-17T10:24:04Z</time>
      </trkpt>
      <trkpt lat="42.404516000" lon="-2.650894000">
        <ele>662.80</ele>
        <time>2015-01-17T10:24:05Z</time>
      </trkpt>
      <trkpt lat="42.404519000" lon="-2.650868000">
        <ele>663.00</ele>
        <time>2015-01-17T10:24:06Z</time>
      </trkpt>
      <trkpt lat="42.404520000" lon="-2.650841000">
        <ele>663.10</ele>
        <time>2015-01-17T10:24:07Z</time>
      </trkpt>
      <trkpt lat="42.404515000" lon="-2.650809000">
        <ele>663.20</ele>
        <time>2015-01-17T10:24:08Z</time>
      </trkpt>
      <trkpt lat="42.404517000" lon="-2.650783000">
        <ele>663.40</ele>
        <time>2015-01-17T10:24:09Z</time>
      </trkpt>
      <trkpt lat="42.404519000" lon="-2.650761000">
        <ele>663.50</ele>
        <time>2015-01-17T10:24:10Z</time>
      </trkpt>
      <trkpt lat="42.404523000" lon="-2.650743000">
        <ele>663.50</ele>
        <time>2015-01-17T10:24:11Z</time>
      </trkpt>
      <trkpt lat="42.404526000" lon="-2.650723000">
        <ele>663.50</ele>
        <time>2015-01-17T10:24:12Z</time>
      </trkpt>
      <trkpt lat="42.404531000" lon="-2.650708000">
        <ele>663.60</ele>
        <time>2015-01-17T10:24:13Z</time>
      </trkpt>
      <trkpt lat="42.404536000" lon="-2.650693000">
        <ele>663.60</ele>
        <time>2015-01-17T10:24:14Z</time>
      </trkpt>
      <trkpt lat="42.404543000" lon="-2.650677000">
        <ele>663.80</ele>
        <time>2015-01-17T10:24:15Z</time>
      </trkpt>
      <trkpt lat="42.404548000" lon="-2.650656000">
        <ele>664.00</ele>
        <time>2015-01-17T10:24:16Z</time>
      </trkpt>
      <trkpt lat="42.404557000" lon="-2.650638000">
        <ele>664.20</ele>
        <time>2015-01-17T10:24:17Z</time>
      </trkpt>
      <trkpt lat="42.404570000" lon="-2.650615000">
        <ele>664.30</ele>
        <time>2015-01-17T10:24:18Z</time>
      </trkpt>
      <trkpt lat="42.404586000" lon="-2.650600000">
        <ele>664.40</ele>
        <time>2015-01-17T10:24:19Z</time>
      </trkpt>
      <trkpt lat="42.404597000" lon="-2.650588000">
        <ele>664.50</ele>
        <time>2015-01-17T10:24:20Z</time>
      </trkpt>
      <trkpt lat="42.404607000" lon="-2.650575000">
        <ele>664.50</ele>
        <time>2015-01-17T10:24:21Z</time>
      </trkpt>
      <trkpt lat="42.404615000" lon="-2.650564000">
        <ele>664.60</ele>
        <time>2015-01-17T10:24:22Z</time>
      </trkpt>
      <trkpt lat="42.404623000" lon="-2.650557000">
        <ele>664.80</ele>
        <time>2015-01-17T10:24:23Z</time>
      </trkpt>
      <trkpt lat="42.404634000" lon="-2.650550000">
        <ele>665.00</ele>
        <time>2015-01-17T10:24:24Z</time>
      </trkpt>
      <trkpt lat="42.404644000" lon="-2.650540000">
        <ele>665.10</ele>
        <time>2015-01-17T10:24:25Z</time>
      </trkpt>
      <trkpt lat="42.404649000" lon="-2.650533000">
        <ele>665.20</ele>
        <time>2015-01-17T10:24:26Z</time>
      </trkpt>
      <trkpt lat="42.404660000" lon="-2.650522000">
        <ele>665.30</ele>
        <time>2015-01-17T10:24:27Z</time>
      </trkpt>
      <trkpt lat="42.404670000" lon="-2.650511000">
        <ele>665.30</ele>
        <time>2015-01-17T10:24:28Z</time>
      </trkpt>
      <trkpt lat="42.404682000" lon="-2.650506000">
        <ele>665.70</ele>
        <time>2015-01-17T10:24:29Z</time>
      </trkpt>
      <trkpt lat="42.404693000" lon="-2.650502000">
        <ele>665.90</ele>
        <time>2015-01-17T10:24:30Z</time>
      </trkpt>
      <trkpt lat="42.404704000" lon="-2.650495000">
        <ele>666.20</ele>
        <time>2015-01-17T10:24:31Z</time>
      </trkpt>
      <trkpt lat="42.404712000" lon="-2.650492000">
        <ele>666.40</ele>
        <time>2015-01-17T10:24:32Z</time>
      </trkpt>
      <trkpt lat="42.404725000" lon="-2.650491000">
        <ele>666.60</ele>
        <time>2015-01-17T10:24:33Z</time>
      </trkpt>
      <trkpt lat="42.404737000" lon="-2.650483000">
        <ele>666.70</ele>
        <time>2015-01-17T10:24:34Z</time>
      </trkpt>
      <trkpt lat="42.404746000" lon="-2.650474000">
        <ele>666.90</ele>
        <time>2015-01-17T10:24:35Z</time>
      </trkpt>
      <trkpt lat="42.404757000" lon="-2.650472000">
        <ele>667.00</ele>
        <time>2015-01-17T10:24:36Z</time>
      </trkpt>
      <trkpt lat="42.404770000" lon="-2.650465000">
        <ele>667.00</ele>
        <time>2015-01-17T10:24:37Z</time>
      </trkpt>
      <trkpt lat="42.404777000" lon="-2.650458000">
        <ele>667.00</ele>
        <time>2015-01-17T10:24:38Z</time>
      </trkpt>
      <trkpt lat="42.404789000" lon="-2.650451000">
        <ele>667.10</ele>
        <time>2015-01-17T10:24:39Z</time>
      </trkpt>
      <trkpt lat="42.404800000" lon="-2.650444000">
        <ele>667.20</ele>
        <time>2015-01-17T10:24:40Z</time>
      </trkpt>
      <trkpt lat="42.404813000" lon="-2.650436000">
        <ele>667.30</ele>
        <time>2015-01-17T10:24:41Z</time>
      </trkpt>
      <trkpt lat="42.404823000" lon="-2.650432000">
        <ele>667.30</ele>
        <time>2015-01-17T10:24:42Z</time>
      </trkpt>
      <trkpt lat="42.404833000" lon="-2.650421000">
        <ele>667.60</ele>
        <time>2015-01-17T10:24:43Z</time>
      </trkpt>
      <trkpt lat="42.404844000" lon="-2.650408000">
        <ele>667.80</ele>
        <time>2015-01-17T10:24:44Z</time>
      </trkpt>
      <trkpt lat="42.404852000" lon="-2.650401000">
        <ele>668.00</ele>
        <time>2015-01-17T10:24:45Z</time>
      </trkpt>
      <trkpt lat="42.404864000" lon="-2.650397000">
        <ele>668.10</ele>
        <time>2015-01-17T10:24:46Z</time>
      </trkpt>
      <trkpt lat="42.404873000" lon="-2.650401000">
        <ele>668.50</ele>
        <time>2015-01-17T10:24:47Z</time>
      </trkpt>
      <trkpt lat="42.404880000" lon="-2.650399000">
        <ele>668.80</ele>
        <time>2015-01-17T10:24:48Z</time>
      </trkpt>
      <trkpt lat="42.404890000" lon="-2.650393000">
        <ele>669.00</ele>
        <time>2015-01-17T10:24:49Z</time>
      </trkpt>
      <trkpt lat="42.404898000" lon="-2.650386000">
        <ele>669.20</ele>
        <time>2015-01-17T10:24:50Z</time>
      </trkpt>
      <trkpt lat="42.404906000" lon="-2.650383000">
        <ele>669.30</ele>
        <time>2015-01-17T10:24:51Z</time>
      </trkpt>
      <trkpt lat="42.404917000" lon="-2.650376000">
        <ele>669.50</ele>
        <time>2015-01-17T10:24:52Z</time>
      </trkpt>
      <trkpt lat="42.404929000" lon="-2.650374000">
        <ele>669.60</ele>
        <time>2015-01-17T10:24:53Z</time>
      </trkpt>
      <trkpt lat="42.404942000" lon="-2.650367000">
        <ele>669.70</ele>
        <time>2015-01-17T10:24:54Z</time>
      </trkpt>
      <trkpt lat="42.404950000" lon="-2.650359000">
        <ele>669.70</ele>
        <time>2015-01-17T10:24:55Z</time>
      </trkpt>
      <trkpt lat="42.404957000" lon="-2.650351000">
        <ele>669.80</ele>
        <time>2015-01-17T10:24:56Z</time>
      </trkpt>
      <trkpt lat="42.404965000" lon="-2.650349000">
        <ele>669.70</ele>
        <time>2015-01-17T10:24:57Z</time>
      </trkpt>
      <trkpt lat="42.404975000" lon="-2.650347000">
        <ele>669.70</ele>
        <time>2015-01-17T10:24:58Z</time>
      </trkpt>
      <trkpt lat="42.404982000" lon="-2.650342000">
        <ele>669.60</ele>
        <time>2015-01-17T10:24:59Z</time>
      </trkpt>
      <trkpt lat="42.404989000" lon="-2.650337000">
        <ele>669.60</ele>
        <time>2015-01-17T10:25:00Z</time>
      </trkpt>
      <trkpt lat="42.404997000" lon="-2.650333000">
        <ele>669.70</ele>
        <time>2015-01-17T10:25:01Z</time>
      </trkpt>
      <trkpt lat="42.405008000" lon="-2.650330000">
        <ele>669.70</ele>
        <time>2015-01-17T10:25:02Z</time>
      </trkpt>
      <trkpt lat="42.405018000" lon="-2.650329000">
        <ele>669.80</ele>
        <time>2015-01-17T10:25:03Z</time>
      </trkpt>
      <trkpt lat="42.405036000" lon="-2.650315000">
        <ele>669.90</ele>
        <time>2015-01-17T10:25:05Z</time>
      </trkpt>
      <trkpt lat="42.405048000" lon="-2.650312000">
        <ele>670.00</ele>
        <time>2015-01-17T10:25:06Z</time>
      </trkpt>
      <trkpt lat="42.405064000" lon="-2.650313000">
        <ele>670.10</ele>
        <time>2015-01-17T10:25:07Z</time>
      </trkpt>
      <trkpt lat="42.405078000" lon="-2.650313000">
        <ele>670.20</ele>
        <time>2015-01-17T10:25:08Z</time>
      </trkpt>
      <trkpt lat="42.405097000" lon="-2.650312000">
        <ele>670.30</ele>
        <time>2015-01-17T10:25:09Z</time>
      </trkpt>
      <trkpt lat="42.405114000" lon="-2.650307000">
        <ele>670.30</ele>
        <time>2015-01-17T10:25:10Z</time>
      </trkpt>
      <trkpt lat="42.405130000" lon="-2.650302000">
        <ele>670.40</ele>
        <time>2015-01-17T10:25:11Z</time>
      </trkpt>
      <trkpt lat="42.405145000" lon="-2.650297000">
        <ele>670.40</ele>
        <time>2015-01-17T10:25:12Z</time>
      </trkpt>
      <trkpt lat="42.405161000" lon="-2.650290000">
        <ele>670.40</ele>
        <time>2015-01-17T10:25:13Z</time>
      </trkpt>
      <trkpt lat="42.405178000" lon="-2.650285000">
        <ele>670.50</ele>
        <time>2015-01-17T10:25:14Z</time>
      </trkpt>
      <trkpt lat="42.405194000" lon="-2.650277000">
        <ele>670.70</ele>
        <time>2015-01-17T10:25:15Z</time>
      </trkpt>
      <trkpt lat="42.405212000" lon="-2.650265000">
        <ele>670.60</ele>
        <time>2015-01-17T10:25:16Z</time>
      </trkpt>
      <trkpt lat="42.405229000" lon="-2.650253000">
        <ele>670.60</ele>
        <time>2015-01-17T10:25:17Z</time>
      </trkpt>
      <trkpt lat="42.405249000" lon="-2.650233000">
        <ele>670.60</ele>
        <time>2015-01-17T10:25:18Z</time>
      </trkpt>
      <trkpt lat="42.405268000" lon="-2.650203000">
        <ele>670.60</ele>
        <time>2015-01-17T10:25:19Z</time>
      </trkpt>
      <trkpt lat="42.405281000" lon="-2.650171000">
        <ele>670.60</ele>
        <time>2015-01-17T10:25:20Z</time>
      </trkpt>
      <trkpt lat="42.405293000" lon="-2.650135000">
        <ele>670.50</ele>
        <time>2015-01-17T10:25:21Z</time>
      </trkpt>
      <trkpt lat="42.405303000" lon="-2.650097000">
        <ele>670.60</ele>
        <time>2015-01-17T10:25:22Z</time>
      </trkpt>
      <trkpt lat="42.405310000" lon="-2.650077000">
        <ele>670.70</ele>
        <time>2015-01-17T10:25:23Z</time>
      </trkpt>
      <trkpt lat="42.405318000" lon="-2.650063000">
        <ele>671.00</ele>
        <time>2015-01-17T10:25:24Z</time>
      </trkpt>
      <trkpt lat="42.405327000" lon="-2.650044000">
        <ele>671.20</ele>
        <time>2015-01-17T10:25:25Z</time>
      </trkpt>
      <trkpt lat="42.405329000" lon="-2.650024000">
        <ele>671.60</ele>
        <time>2015-01-17T10:25:26Z</time>
      </trkpt>
      <trkpt lat="42.405330000" lon="-2.650006000">
        <ele>671.80</ele>
        <time>2015-01-17T10:25:27Z</time>
      </trkpt>
      <trkpt lat="42.405333000" lon="-2.649988000">
        <ele>672.10</ele>
        <time>2015-01-17T10:25:28Z</time>
      </trkpt>
      <trkpt lat="42.405335000" lon="-2.649973000">
        <ele>672.30</ele>
        <time>2015-01-17T10:25:29Z</time>
      </trkpt>
      <trkpt lat="42.405341000" lon="-2.649961000">
        <ele>672.60</ele>
        <time>2015-01-17T10:25:30Z</time>
      </trkpt>
      <trkpt lat="42.405348000" lon="-2.649943000">
        <ele>672.70</ele>
        <time>2015-01-17T10:25:31Z</time>
      </trkpt>
      <trkpt lat="42.405351000" lon="-2.649921000">
        <ele>672.80</ele>
        <time>2015-01-17T10:25:32Z</time>
      </trkpt>
      <trkpt lat="42.405357000" lon="-2.649909000">
        <ele>672.80</ele>
        <time>2015-01-17T10:25:33Z</time>
      </trkpt>
      <trkpt lat="42.405364000" lon="-2.649896000">
        <ele>672.90</ele>
        <time>2015-01-17T10:25:34Z</time>
      </trkpt>
      <trkpt lat="42.405370000" lon="-2.649876000">
        <ele>673.00</ele>
        <time>2015-01-17T10:25:35Z</time>
      </trkpt>
      <trkpt lat="42.405376000" lon="-2.649858000">
        <ele>673.00</ele>
        <time>2015-01-17T10:25:36Z</time>
      </trkpt>
      <trkpt lat="42.405379000" lon="-2.649838000">
        <ele>673.10</ele>
        <time>2015-01-17T10:25:37Z</time>
      </trkpt>
      <trkpt lat="42.405383000" lon="-2.649821000">
        <ele>673.10</ele>
        <time>2015-01-17T10:25:38Z</time>
      </trkpt>
      <trkpt lat="42.405387000" lon="-2.649818000">
        <ele>673.20</ele>
        <time>2015-01-17T10:25:39Z</time>
      </trkpt>
      <trkpt lat="42.405389000" lon="-2.649819000">
        <ele>673.40</ele>
        <time>2015-01-17T10:25:40Z</time>
      </trkpt>
      <trkpt lat="42.405392000" lon="-2.649815000">
        <ele>673.60</ele>
        <time>2015-01-17T10:25:41Z</time>
      </trkpt>
      <trkpt lat="42.405395000" lon="-2.649809000">
        <ele>673.60</ele>
        <time>2015-01-17T10:25:42Z</time>
      </trkpt>
      <trkpt lat="42.405399000" lon="-2.649804000">
        <ele>673.50</ele>
        <time>2015-01-17T10:25:43Z</time>
      </trkpt>
      <trkpt lat="42.405404000" lon="-2.649798000">
        <ele>673.50</ele>
        <time>2015-01-17T10:25:44Z</time>
      </trkpt>
      <trkpt lat="42.405405000" lon="-2.649800000">
        <ele>673.40</ele>
        <time>2015-01-17T10:25:45Z</time>
      </trkpt>
      <trkpt lat="42.405405000" lon="-2.649802000">
        <ele>673.40</ele>
        <time>2015-01-17T10:25:46Z</time>
      </trkpt>
      <trkpt lat="42.405406000" lon="-2.649803000">
        <ele>673.40</ele>
        <time>2015-01-17T10:25:47Z</time>
      </trkpt>
      <trkpt lat="42.405406000" lon="-2.649803000">
        <ele>673.40</ele>
        <time>2015-01-17T10:25:48Z</time>
      </trkpt>
      <trkpt lat="42.405405000" lon="-2.649804000">
        <ele>673.40</ele>
        <time>2015-01-17T10:25:49Z</time>
      </trkpt>
      <trkpt lat="42.405406000" lon="-2.649807000">
        <ele>673.30</ele>
        <time>2015-01-17T10:25:50Z</time>
      </trkpt>
      <trkpt lat="42.405404000" lon="-2.649806000">
        <ele>673.20</ele>
        <time>2015-01-17T10:25:51Z</time>
      </trkpt>
      <trkpt lat="42.405404000" lon="-2.649807000">
        <ele>673.10</ele>
        <time>2015-01-17T10:25:52Z</time>
      </trkpt>
      <trkpt lat="42.405402000" lon="-2.649810000">
        <ele>673.10</ele>
        <time>2015-01-17T10:25:53Z</time>
      </trkpt>
      <trkpt lat="42.405400000" lon="-2.649813000">
        <ele>673.10</ele>
        <time>2015-01-17T10:25:54Z</time>
      </trkpt>
      <trkpt lat="42.405397000" lon="-2.649817000">
        <ele>673.10</ele>
        <time>2015-01-17T10:25:55Z</time>
      </trkpt>
      <trkpt lat="42.405394000" lon="-2.649817000">
        <ele>672.90</ele>
        <time>2015-01-17T10:25:56Z</time>
      </trkpt>
      <trkpt lat="42.405392000" lon="-2.649820000">
        <ele>672.80</ele>
        <time>2015-01-17T10:25:57Z</time>
      </trkpt>
      <trkpt lat="42.405394000" lon="-2.649811000">
        <ele>672.70</ele>
        <time>2015-01-17T10:25:58Z</time>
      </trkpt>
      <trkpt lat="42.405394000" lon="-2.649793000">
        <ele>672.60</ele>
        <time>2015-01-17T10:25:59Z</time>
      </trkpt>
      <trkpt lat="42.405396000" lon="-2.649780000">
        <ele>672.50</ele>
        <time>2015-01-17T10:26:00Z</time>
      </trkpt>
      <trkpt lat="42.405400000" lon="-2.649762000">
        <ele>672.50</ele>
        <time>2015-01-17T10:26:01Z</time>
      </trkpt>
      <trkpt lat="42.405407000" lon="-2.649745000">
        <ele>672.40</ele>
        <time>2015-01-17T10:26:02Z</time>
      </trkpt>
      <trkpt lat="42.405418000" lon="-2.649730000">
        <ele>672.30</ele>
        <time>2015-01-17T10:26:03Z</time>
      </trkpt>
      <trkpt lat="42.405438000" lon="-2.649710000">
        <ele>672.20</ele>
        <time>2015-01-17T10:26:04Z</time>
      </trkpt>
      <trkpt lat="42.405463000" lon="-2.649687000">
        <ele>672.10</ele>
        <time>2015-01-17T10:26:05Z</time>
      </trkpt>
      <trkpt lat="42.405534000" lon="-2.649679000">
        <ele>672.00</ele>
        <time>2015-01-17T10:26:07Z</time>
      </trkpt>
      <trkpt lat="42.405575000" lon="-2.649678000">
        <ele>672.00</ele>
        <time>2015-01-17T10:26:08Z</time>
      </trkpt>
      <trkpt lat="42.405618000" lon="-2.649672000">
        <ele>671.90</ele>
        <time>2015-01-17T10:26:09Z</time>
      </trkpt>
      <trkpt lat="42.405660000" lon="-2.649666000">
        <ele>671.80</ele>
        <time>2015-01-17T10:26:10Z</time>
      </trkpt>
      <trkpt lat="42.405705000" lon="-2.649668000">
        <ele>671.70</ele>
        <time>2015-01-17T10:26:11Z</time>
      </trkpt>
      <trkpt lat="42.405742000" lon="-2.649665000">
        <ele>671.10</ele>
        <time>2015-01-17T10:26:12Z</time>
      </trkpt>
      <trkpt lat="42.405768000" lon="-2.649655000">
        <ele>670.60</ele>
        <time>2015-01-17T10:26:13Z</time>
      </trkpt>
      <trkpt lat="42.405783000" lon="-2.649650000">
        <ele>670.10</ele>
        <time>2015-01-17T10:26:14Z</time>
      </trkpt>
      <trkpt lat="42.405796000" lon="-2.649648000">
        <ele>669.70</ele>
        <time>2015-01-17T10:26:15Z</time>
      </trkpt>
      <trkpt lat="42.405796000" lon="-2.649655000">
        <ele>669.40</ele>
        <time>2015-01-17T10:26:16Z</time>
      </trkpt>
      <trkpt lat="42.405801000" lon="-2.649652000">
        <ele>669.20</ele>
        <time>2015-01-17T10:26:17Z</time>
      </trkpt>
      <trkpt lat="42.405804000" lon="-2.649652000">
        <ele>668.90</ele>
        <time>2015-01-17T10:26:18Z</time>
      </trkpt>
      <trkpt lat="42.405803000" lon="-2.649650000">
        <ele>668.80</ele>
        <time>2015-01-17T10:26:19Z</time>
      </trkpt>
      <trkpt lat="42.405810000" lon="-2.649647000">
        <ele>668.60</ele>
        <time>2015-01-17T10:26:20Z</time>
      </trkpt>
      <trkpt lat="42.405814000" lon="-2.649645000">
        <ele>668.50</ele>
        <time>2015-01-17T10:26:21Z</time>
      </trkpt>
      <trkpt lat="42.405815000" lon="-2.649642000">
        <ele>668.40</ele>
        <time>2015-01-17T10:26:22Z</time>
      </trkpt>
      <trkpt lat="42.405816000" lon="-2.649641000">
        <ele>668.40</ele>
        <time>2015-01-17T10:26:23Z</time>
      </trkpt>
      <trkpt lat="42.405813000" lon="-2.649640000">
        <ele>668.30</ele>
        <time>2015-01-17T10:26:24Z</time>
      </trkpt>
      <trkpt lat="42.405812000" lon="-2.649636000">
        <ele>668.20</ele>
        <time>2015-01-17T10:26:25Z</time>
      </trkpt>
      <trkpt lat="42.405813000" lon="-2.649632000">
        <ele>668.10</ele>
        <time>2015-01-17T10:26:26Z</time>
      </trkpt>
      <trkpt lat="42.405815000" lon="-2.649632000">
        <ele>668.10</ele>
        <time>2015-01-17T10:26:27Z</time>
      </trkpt>
      <trkpt lat="42.405817000" lon="-2.649634000">
        <ele>668.20</ele>
        <time>2015-01-17T10:26:28Z</time>
      </trkpt>
      <trkpt lat="42.405818000" lon="-2.649635000">
        <ele>668.20</ele>
        <time>2015-01-17T10:26:29Z</time>
      </trkpt>
      <trkpt lat="42.405818000" lon="-2.649633000">
        <ele>668.30</ele>
        <time>2015-01-17T10:26:30Z</time>
      </trkpt>
      <trkpt lat="42.405820000" lon="-2.649631000">
        <ele>668.30</ele>
        <time>2015-01-17T10:26:31Z</time>
      </trkpt>
      <trkpt lat="42.405824000" lon="-2.649633000">
        <ele>668.30</ele>
        <time>2015-01-17T10:26:32Z</time>
      </trkpt>
      <trkpt lat="42.405827000" lon="-2.649632000">
        <ele>668.30</ele>
        <time>2015-01-17T10:26:33Z</time>
      </trkpt>
      <trkpt lat="42.405830000" lon="-2.649633000">
        <ele>668.30</ele>
        <time>2015-01-17T10:26:34Z</time>
      </trkpt>
      <trkpt lat="42.405828000" lon="-2.649632000">
        <ele>668.30</ele>
        <time>2015-01-17T10:26:35Z</time>
      </trkpt>
      <trkpt lat="42.405825000" lon="-2.649631000">
        <ele>668.30</ele>
        <time>2015-01-17T10:26:36Z</time>
      </trkpt>
      <trkpt lat="42.405825000" lon="-2.649630000">
        <ele>668.30</ele>
        <time>2015-01-17T10:26:37Z</time>
      </trkpt>
      <trkpt lat="42.405824000" lon="-2.649631000">
        <ele>668.30</ele>
        <time>2015-01-17T10:26:38Z</time>
      </trkpt>
      <trkpt lat="42.405822000" lon="-2.649628000">
        <ele>668.30</ele>
        <time>2015-01-17T10:26:39Z</time>
      </trkpt>
      <trkpt lat="42.405823000" lon="-2.649629000">
        <ele>668.30</ele>
        <time>2015-01-17T10:26:40Z</time>
      </trkpt>
      <trkpt lat="42.405822000" lon="-2.649631000">
        <ele>668.30</ele>
        <time>2015-01-17T10:26:41Z</time>
      </trkpt>
      <trkpt lat="42.405820000" lon="-2.649634000">
        <ele>668.20</ele>
        <time>2015-01-17T10:26:42Z</time>
      </trkpt>
      <trkpt lat="42.405818000" lon="-2.649634000">
        <ele>668.00</ele>
        <time>2015-01-17T10:26:43Z</time>
      </trkpt>
      <trkpt lat="42.405812000" lon="-2.649634000">
        <ele>668.00</ele>
        <time>2015-01-17T10:26:44Z</time>
      </trkpt>
      <trkpt lat="42.405809000" lon="-2.649633000">
        <ele>667.90</ele>
        <time>2015-01-17T10:26:45Z</time>
      </trkpt>
      <trkpt lat="42.405808000" lon="-2.649636000">
        <ele>667.80</ele>
        <time>2015-01-17T10:26:46Z</time>
      </trkpt>
      <trkpt lat="42.405810000" lon="-2.649639000">
        <ele>667.80</ele>
        <time>2015-01-17T10:26:47Z</time>
      </trkpt>
      <trkpt lat="42.405812000" lon="-2.649643000">
        <ele>667.80</ele>
        <time>2015-01-17T10:26:48Z</time>
      </trkpt>
      <trkpt lat="42.405815000" lon="-2.649646000">
        <ele>667.80</ele>
        <time>2015-01-17T10:26:49Z</time>
      </trkpt>
      <trkpt lat="42.405815000" lon="-2.649645000">
        <ele>667.80</ele>
        <time>2015-01-17T10:26:50Z</time>
      </trkpt>
      <trkpt lat="42.405817000" lon="-2.649647000">
        <ele>667.90</ele>
        <time>2015-01-17T10:26:51Z</time>
      </trkpt>
      <trkpt lat="42.405817000" lon="-2.649648000">
        <ele>667.90</ele>
        <time>2015-01-17T10:26:52Z</time>
      </trkpt>
      <trkpt lat="42.405815000" lon="-2.649646000">
        <ele>668.00</ele>
        <time>2015-01-17T10:26:53Z</time>
      </trkpt>
      <trkpt lat="42.405814000" lon="-2.649648000">
        <ele>667.90</ele>
        <time>2015-01-17T10:26:54Z</time>
      </trkpt>
      <trkpt lat="42.405810000" lon="-2.649648000">
        <ele>667.90</ele>
        <time>2015-01-17T10:26:55Z</time>
      </trkpt>
      <trkpt lat="42.405806000" lon="-2.649649000">
        <ele>667.90</ele>
        <time>2015-01-17T10:26:56Z</time>
      </trkpt>
      <trkpt lat="42.405810000" lon="-2.649650000">
        <ele>667.90</ele>
        <time>2015-01-17T10:26:57Z</time>
      </trkpt>
      <trkpt lat="42.405812000" lon="-2.649651000">
        <ele>667.90</ele>
        <time>2015-01-17T10:26:58Z</time>
      </trkpt>
      <trkpt lat="42.405811000" lon="-2.649652000">
        <ele>668.00</ele>
        <time>2015-01-17T10:26:59Z</time>
      </trkpt>
      <trkpt lat="42.405812000" lon="-2.649653000">
        <ele>668.00</ele>
        <time>2015-01-17T10:27:00Z</time>
      </trkpt>
      <trkpt lat="42.405815000" lon="-2.649652000">
        <ele>668.00</ele>
        <time>2015-01-17T10:27:01Z</time>
      </trkpt>
      <trkpt lat="42.405819000" lon="-2.649649000">
        <ele>667.90</ele>
        <time>2015-01-17T10:27:02Z</time>
      </trkpt>
      <trkpt lat="42.405820000" lon="-2.649651000">
        <ele>667.80</ele>
        <time>2015-01-17T10:27:03Z</time>
      </trkpt>
      <trkpt lat="42.405820000" lon="-2.649646000">
        <ele>667.80</ele>
        <time>2015-01-17T10:27:04Z</time>
      </trkpt>
      <trkpt lat="42.405821000" lon="-2.649642000">
        <ele>667.70</ele>
        <time>2015-01-17T10:27:05Z</time>
      </trkpt>
      <trkpt lat="42.405819000" lon="-2.649641000">
        <ele>667.60</ele>
        <time>2015-01-17T10:27:06Z</time>
      </trkpt>
      <trkpt lat="42.405818000" lon="-2.649645000">
        <ele>667.60</ele>
        <time>2015-01-17T10:27:07Z</time>
      </trkpt>
      <trkpt lat="42.405811000" lon="-2.649654000">
        <ele>667.60</ele>
        <time>2015-01-17T10:27:09Z</time>
      </trkpt>
      <trkpt lat="42.405811000" lon="-2.649660000">
        <ele>667.70</ele>
        <time>2015-01-17T10:27:10Z</time>
      </trkpt>
      <trkpt lat="42.405810000" lon="-2.649661000">
        <ele>667.80</ele>
        <time>2015-01-17T10:27:11Z</time>
      </trkpt>
      <trkpt lat="42.405810000" lon="-2.649662000">
        <ele>667.90</ele>
        <time>2015-01-17T10:27:12Z</time>
      </trkpt>
      <trkpt lat="42.405815000" lon="-2.649661000">
        <ele>667.90</ele>
        <time>2015-01-17T10:27:13Z</time>
      </trkpt>
      <trkpt lat="42.405818000" lon="-2.649658000">
        <ele>667.90</ele>
        <time>2015-01-17T10:27:14Z</time>
      </trkpt>
      <trkpt lat="42.405823000" lon="-2.649657000">
        <ele>667.90</ele>
        <time>2015-01-17T10:27:15Z</time>
      </trkpt>
      <trkpt lat="42.405824000" lon="-2.649657000">
        <ele>667.90</ele>
        <time>2015-01-17T10:27:16Z</time>
      </trkpt>
      <trkpt lat="42.405827000" lon="-2.649658000">
        <ele>667.90</ele>
        <time>2015-01-17T10:27:17Z</time>
      </trkpt>
      <trkpt lat="42.405829000" lon="-2.649658000">
        <ele>667.90</ele>
        <time>2015-01-17T10:27:18Z</time>
      </trkpt>
      <trkpt lat="42.405829000" lon="-2.649652000">
        <ele>667.90</ele>
        <time>2015-01-17T10:27:19Z</time>
      </trkpt>
      <trkpt lat="42.405829000" lon="-2.649651000">
        <ele>667.90</ele>
        <time>2015-01-17T10:27:20Z</time>
      </trkpt>
      <trkpt lat="42.405829000" lon="-2.649653000">
        <ele>667.90</ele>
        <time>2015-01-17T10:27:21Z</time>
      </trkpt>
      <trkpt lat="42.405827000" lon="-2.649655000">
        <ele>667.90</ele>
        <time>2015-01-17T10:27:22Z</time>
      </trkpt>
      <trkpt lat="42.405823000" lon="-2.649656000">
        <ele>667.90</ele>
        <time>2015-01-17T10:27:23Z</time>
      </trkpt>
      <trkpt lat="42.405820000" lon="-2.649653000">
        <ele>667.90</ele>
        <time>2015-01-17T10:27:24Z</time>
      </trkpt>
      <trkpt lat="42.405817000" lon="-2.649651000">
        <ele>667.80</ele>
        <time>2015-01-17T10:27:25Z</time>
      </trkpt>
      <trkpt lat="42.405815000" lon="-2.649650000">
        <ele>667.80</ele>
        <time>2015-01-17T10:27:26Z</time>
      </trkpt>
      <trkpt lat="42.405815000" lon="-2.649649000">
        <ele>667.80</ele>
        <time>2015-01-17T10:27:27Z</time>
      </trkpt>
      <trkpt lat="42.405810000" lon="-2.649646000">
        <ele>667.70</ele>
        <time>2015-01-17T10:27:28Z</time>
      </trkpt>
      <trkpt lat="42.405809000" lon="-2.649648000">
        <ele>667.70</ele>
        <time>2015-01-17T10:27:29Z</time>
      </trkpt>
      <trkpt lat="42.405807000" lon="-2.649648000">
        <ele>667.60</ele>
        <time>2015-01-17T10:27:30Z</time>
      </trkpt>
      <trkpt lat="42.405805000" lon="-2.649647000">
        <ele>667.60</ele>
        <time>2015-01-17T10:27:31Z</time>
      </trkpt>
      <trkpt lat="42.405807000" lon="-2.649650000">
        <ele>667.60</ele>
        <time>2015-01-17T10:27:32Z</time>
      </trkpt>
      <trkpt lat="42.405805000" lon="-2.649650000">
        <ele>667.60</ele>
        <time>2015-01-17T10:27:33Z</time>
      </trkpt>
      <trkpt lat="42.405809000" lon="-2.649650000">
        <ele>667.60</ele>
        <time>2015-01-17T10:27:34Z</time>
      </trkpt>
      <trkpt lat="42.405809000" lon="-2.649650000">
        <ele>667.60</ele>
        <time>2015-01-17T10:27:35Z</time>
      </trkpt>
      <trkpt lat="42.405812000" lon="-2.649652000">
        <ele>667.70</ele>
        <time>2015-01-17T10:27:36Z</time>
      </trkpt>
      <trkpt lat="42.405815000" lon="-2.649654000">
        <ele>667.70</ele>
        <time>2015-01-17T10:27:37Z</time>
      </trkpt>
      <trkpt lat="42.405815000" lon="-2.649650000">
        <ele>667.90</ele>
        <time>2015-01-17T10:27:38Z</time>
      </trkpt>
      <trkpt lat="42.405815000" lon="-2.649649000">
        <ele>667.90</ele>
        <time>2015-01-17T10:27:39Z</time>
      </trkpt>
      <trkpt lat="42.405812000" lon="-2.649652000">
        <ele>668.00</ele>
        <time>2015-01-17T10:27:40Z</time>
      </trkpt>
      <trkpt lat="42.405810000" lon="-2.649655000">
        <ele>668.00</ele>
        <time>2015-01-17T10:27:41Z</time>
      </trkpt>
      <trkpt lat="42.405813000" lon="-2.649659000">
        <ele>668.10</ele>
        <time>2015-01-17T10:27:42Z</time>
      </trkpt>
      <trkpt lat="42.405813000" lon="-2.649658000">
        <ele>668.10</ele>
        <time>2015-01-17T10:27:43Z</time>
      </trkpt>
      <trkpt lat="42.405813000" lon="-2.649656000">
        <ele>668.00</ele>
        <time>2015-01-17T10:27:44Z</time>
      </trkpt>
      <trkpt lat="42.405814000" lon="-2.649657000">
        <ele>667.90</ele>
        <time>2015-01-17T10:27:45Z</time>
      </trkpt>
      <trkpt lat="42.405812000" lon="-2.649658000">
        <ele>667.80</ele>
        <time>2015-01-17T10:27:46Z</time>
      </trkpt>
      <trkpt lat="42.405811000" lon="-2.649656000">
        <ele>667.80</ele>
        <time>2015-01-17T10:27:47Z</time>
      </trkpt>
      <trkpt lat="42.405808000" lon="-2.649655000">
        <ele>667.70</ele>
        <time>2015-01-17T10:27:48Z</time>
      </trkpt>
      <trkpt lat="42.405807000" lon="-2.649656000">
        <ele>667.70</ele>
        <time>2015-01-17T10:27:49Z</time>
      </trkpt>
      <trkpt lat="42.405804000" lon="-2.649653000">
        <ele>667.60</ele>
        <time>2015-01-17T10:27:50Z</time>
      </trkpt>
      <trkpt lat="42.405807000" lon="-2.649655000">
        <ele>667.60</ele>
        <time>2015-01-17T10:27:51Z</time>
      </trkpt>
      <trkpt lat="42.405807000" lon="-2.649657000">
        <ele>667.70</ele>
        <time>2015-01-17T10:27:52Z</time>
      </trkpt>
      <trkpt lat="42.405805000" lon="-2.649660000">
        <ele>667.80</ele>
        <time>2015-01-17T10:27:53Z</time>
      </trkpt>
      <trkpt lat="42.405801000" lon="-2.649660000">
        <ele>667.90</ele>
        <time>2015-01-17T10:27:54Z</time>
      </trkpt>
      <trkpt lat="42.405801000" lon="-2.649659000">
        <ele>668.00</ele>
        <time>2015-01-17T10:27:55Z</time>
      </trkpt>
      <trkpt lat="42.405799000" lon="-2.649658000">
        <ele>668.10</ele>
        <time>2015-01-17T10:27:56Z</time>
      </trkpt>
      <trkpt lat="42.405800000" lon="-2.649660000">
        <ele>668.20</ele>
        <time>2015-01-17T10:27:57Z</time>
      </trkpt>
      <trkpt lat="42.405800000" lon="-2.649661000">
        <ele>668.20</ele>
        <time>2015-01-17T10:27:58Z</time>
      </trkpt>
      <trkpt lat="42.405798000" lon="-2.649661000">
        <ele>668.30</ele>
        <time>2015-01-17T10:27:59Z</time>
      </trkpt>
      <trkpt lat="42.405799000" lon="-2.649662000">
        <ele>668.20</ele>
        <time>2015-01-17T10:28:00Z</time>
      </trkpt>
      <trkpt lat="42.405803000" lon="-2.649661000">
        <ele>668.10</ele>
        <time>2015-01-17T10:28:01Z</time>
      </trkpt>
      <trkpt lat="42.405815000" lon="-2.649658000">
        <ele>667.90</ele>
        <time>2015-01-17T10:28:02Z</time>
      </trkpt>
      <trkpt lat="42.405830000" lon="-2.649653000">
        <ele>667.80</ele>
        <time>2015-01-17T10:28:03Z</time>
      </trkpt>
      <trkpt lat="42.405849000" lon="-2.649647000">
        <ele>667.70</ele>
        <time>2015-01-17T10:28:04Z</time>
      </trkpt>
      <trkpt lat="42.405870000" lon="-2.649642000">
        <ele>667.60</ele>
        <time>2015-01-17T10:28:05Z</time>
      </trkpt>
      <trkpt lat="42.405895000" lon="-2.649639000">
        <ele>667.50</ele>
        <time>2015-01-17T10:28:06Z</time>
      </trkpt>
      <trkpt lat="42.405923000" lon="-2.649633000">
        <ele>667.50</ele>
        <time>2015-01-17T10:28:07Z</time>
      </trkpt>
      <trkpt lat="42.405956000" lon="-2.649624000">
        <ele>667.50</ele>
        <time>2015-01-17T10:28:08Z</time>
      </trkpt>
      <trkpt lat="42.406030000" lon="-2.649611000">
        <ele>667.40</ele>
        <time>2015-01-17T10:28:10Z</time>
      </trkpt>
      <trkpt lat="42.406072000" lon="-2.649604000">
        <ele>667.40</ele>
        <time>2015-01-17T10:28:11Z</time>
      </trkpt>
      <trkpt lat="42.406113000" lon="-2.649594000">
        <ele>667.40</ele>
        <time>2015-01-17T10:28:12Z</time>
      </trkpt>
      <trkpt lat="42.406160000" lon="-2.649582000">
        <ele>667.30</ele>
        <time>2015-01-17T10:28:13Z</time>
      </trkpt>
      <trkpt lat="42.406212000" lon="-2.649572000">
        <ele>667.30</ele>
        <time>2015-01-17T10:28:14Z</time>
      </trkpt>
      <trkpt lat="42.406262000" lon="-2.649564000">
        <ele>667.30</ele>
        <time>2015-01-17T10:28:15Z</time>
      </trkpt>
      <trkpt lat="42.406317000" lon="-2.649550000">
        <ele>667.30</ele>
        <time>2015-01-17T10:28:16Z</time>
      </trkpt>
      <trkpt lat="42.406371000" lon="-2.649533000">
        <ele>667.30</ele>
        <time>2015-01-17T10:28:17Z</time>
      </trkpt>
      <trkpt lat="42.406422000" lon="-2.649519000">
        <ele>667.00</ele>
        <time>2015-01-17T10:28:18Z</time>
      </trkpt>
      <trkpt lat="42.406468000" lon="-2.649504000">
        <ele>666.70</ele>
        <time>2015-01-17T10:28:19Z</time>
      </trkpt>
      <trkpt lat="42.406508000" lon="-2.649492000">
        <ele>666.30</ele>
        <time>2015-01-17T10:28:20Z</time>
      </trkpt>
      <trkpt lat="42.406543000" lon="-2.649481000">
        <ele>666.00</ele>
        <time>2015-01-17T10:28:21Z</time>
      </trkpt>
      <trkpt lat="42.406576000" lon="-2.649475000">
        <ele>665.80</ele>
        <time>2015-01-17T10:28:22Z</time>
      </trkpt>
      <trkpt lat="42.406608000" lon="-2.649472000">
        <ele>665.60</ele>
        <time>2015-01-17T10:28:23Z</time>
      </trkpt>
      <trkpt lat="42.406642000" lon="-2.649474000">
        <ele>665.50</ele>
        <time>2015-01-17T10:28:24Z</time>
      </trkpt>
      <trkpt lat="42.406672000" lon="-2.649475000">
        <ele>665.40</ele>
        <time>2015-01-17T10:28:25Z</time>
      </trkpt>
      <trkpt lat="42.406702000" lon="-2.649469000">
        <ele>665.40</ele>
        <time>2015-01-17T10:28:26Z</time>
      </trkpt>
      <trkpt lat="42.406733000" lon="-2.649465000">
        <ele>665.30</ele>
        <time>2015-01-17T10:28:27Z</time>
      </trkpt>
      <trkpt lat="42.406771000" lon="-2.649461000">
        <ele>665.20</ele>
        <time>2015-01-17T10:28:28Z</time>
      </trkpt>
      <trkpt lat="42.406810000" lon="-2.649458000">
        <ele>665.10</ele>
        <time>2015-01-17T10:28:29Z</time>
      </trkpt>
      <trkpt lat="42.406854000" lon="-2.649456000">
        <ele>665.00</ele>
        <time>2015-01-17T10:28:30Z</time>
      </trkpt>
      <trkpt lat="42.406898000" lon="-2.649457000">
        <ele>665.00</ele>
        <time>2015-01-17T10:28:31Z</time>
      </trkpt>
      <trkpt lat="42.406942000" lon="-2.649460000">
        <ele>664.90</ele>
        <time>2015-01-17T10:28:32Z</time>
      </trkpt>
      <trkpt lat="42.406991000" lon="-2.649466000">
        <ele>664.90</ele>
        <time>2015-01-17T10:28:33Z</time>
      </trkpt>
      <trkpt lat="42.407047000" lon="-2.649472000">
        <ele>664.60</ele>
        <time>2015-01-17T10:28:34Z</time>
      </trkpt>
      <trkpt lat="42.407101000" lon="-2.649472000">
        <ele>664.40</ele>
        <time>2015-01-17T10:28:35Z</time>
      </trkpt>
      <trkpt lat="42.407156000" lon="-2.649476000">
        <ele>664.50</ele>
        <time>2015-01-17T10:28:36Z</time>
      </trkpt>
      <trkpt lat="42.407213000" lon="-2.649479000">
        <ele>664.70</ele>
        <time>2015-01-17T10:28:37Z</time>
      </trkpt>
      <trkpt lat="42.407269000" lon="-2.649478000">
        <ele>664.20</ele>
        <time>2015-01-17T10:28:38Z</time>
      </trkpt>
      <trkpt lat="42.407324000" lon="-2.649470000">
        <ele>663.90</ele>
        <time>2015-01-17T10:28:39Z</time>
      </trkpt>
      <trkpt lat="42.407375000" lon="-2.649459000">
        <ele>663.60</ele>
        <time>2015-01-17T10:28:40Z</time>
      </trkpt>
      <trkpt lat="42.407422000" lon="-2.649446000">
        <ele>663.40</ele>
        <time>2015-01-17T10:28:41Z</time>
      </trkpt>
      <trkpt lat="42.407468000" lon="-2.649429000">
        <ele>663.30</ele>
        <time>2015-01-17T10:28:42Z</time>
      </trkpt>
      <trkpt lat="42.407511000" lon="-2.649414000">
        <ele>663.20</ele>
        <time>2015-01-17T10:28:43Z</time>
      </trkpt>
      <trkpt lat="42.407549000" lon="-2.649397000">
        <ele>663.10</ele>
        <time>2015-01-17T10:28:44Z</time>
      </trkpt>
      <trkpt lat="42.407581000" lon="-2.649380000">
        <ele>663.00</ele>
        <time>2015-01-17T10:28:45Z</time>
      </trkpt>
      <trkpt lat="42.407614000" lon="-2.649362000">
        <ele>663.10</ele>
        <time>2015-01-17T10:28:46Z</time>
      </trkpt>
      <trkpt lat="42.407646000" lon="-2.649346000">
        <ele>663.20</ele>
        <time>2015-01-17T10:28:47Z</time>
      </trkpt>
      <trkpt lat="42.407674000" lon="-2.649331000">
        <ele>663.40</ele>
        <time>2015-01-17T10:28:48Z</time>
      </trkpt>
      <trkpt lat="42.407701000" lon="-2.649314000">
        <ele>663.50</ele>
        <time>2015-01-17T10:28:49Z</time>
      </trkpt>
      <trkpt lat="42.407734000" lon="-2.649302000">
        <ele>663.70</ele>
        <time>2015-01-17T10:28:50Z</time>
      </trkpt>
      <trkpt lat="42.407764000" lon="-2.649297000">
        <ele>663.90</ele>
        <time>2015-01-17T10:28:51Z</time>
      </trkpt>
      <trkpt lat="42.407791000" lon="-2.649297000">
        <ele>664.10</ele>
        <time>2015-01-17T10:28:52Z</time>
      </trkpt>
      <trkpt lat="42.407817000" lon="-2.649299000">
        <ele>664.30</ele>
        <time>2015-01-17T10:28:53Z</time>
      </trkpt>
      <trkpt lat="42.407839000" lon="-2.649300000">
        <ele>664.50</ele>
        <time>2015-01-17T10:28:54Z</time>
      </trkpt>
      <trkpt lat="42.407865000" lon="-2.649297000">
        <ele>664.60</ele>
        <time>2015-01-17T10:28:55Z</time>
      </trkpt>
      <trkpt lat="42.407888000" lon="-2.649294000">
        <ele>665.00</ele>
        <time>2015-01-17T10:28:56Z</time>
      </trkpt>
      <trkpt lat="42.407910000" lon="-2.649292000">
        <ele>665.40</ele>
        <time>2015-01-17T10:28:57Z</time>
      </trkpt>
      <trkpt lat="42.407931000" lon="-2.649293000">
        <ele>665.60</ele>
        <time>2015-01-17T10:28:58Z</time>
      </trkpt>
      <trkpt lat="42.407951000" lon="-2.649290000">
        <ele>665.80</ele>
        <time>2015-01-17T10:28:59Z</time>
      </trkpt>
      <trkpt lat="42.407972000" lon="-2.649288000">
        <ele>666.00</ele>
        <time>2015-01-17T10:29:00Z</time>
      </trkpt>
      <trkpt lat="42.407991000" lon="-2.649288000">
        <ele>666.10</ele>
        <time>2015-01-17T10:29:01Z</time>
      </trkpt>
      <trkpt lat="42.408011000" lon="-2.649291000">
        <ele>666.30</ele>
        <time>2015-01-17T10:29:02Z</time>
      </trkpt>
      <trkpt lat="42.408031000" lon="-2.649291000">
        <ele>666.50</ele>
        <time>2015-01-17T10:29:03Z</time>
      </trkpt>
      <trkpt lat="42.408051000" lon="-2.649293000">
        <ele>666.70</ele>
        <time>2015-01-17T10:29:04Z</time>
      </trkpt>
      <trkpt lat="42.408075000" lon="-2.649298000">
        <ele>666.80</ele>
        <time>2015-01-17T10:29:05Z</time>
      </trkpt>
      <trkpt lat="42.408106000" lon="-2.649308000">
        <ele>667.00</ele>
        <time>2015-01-17T10:29:06Z</time>
      </trkpt>
      <trkpt lat="42.408137000" lon="-2.649319000">
        <ele>667.20</ele>
        <time>2015-01-17T10:29:07Z</time>
      </trkpt>
      <trkpt lat="42.408165000" lon="-2.649325000">
        <ele>667.40</ele>
        <time>2015-01-17T10:29:08Z</time>
      </trkpt>
      <trkpt lat="42.408194000" lon="-2.649330000">
        <ele>667.50</ele>
        <time>2015-01-17T10:29:09Z</time>
      </trkpt>
      <trkpt lat="42.408224000" lon="-2.649336000">
        <ele>667.60</ele>
        <time>2015-01-17T10:29:10Z</time>
      </trkpt>
      <trkpt lat="42.408282000" lon="-2.649346000">
        <ele>667.60</ele>
        <time>2015-01-17T10:29:12Z</time>
      </trkpt>
      <trkpt lat="42.408312000" lon="-2.649349000">
        <ele>667.50</ele>
        <time>2015-01-17T10:29:13Z</time>
      </trkpt>
      <trkpt lat="42.408347000" lon="-2.649353000">
        <ele>667.20</ele>
        <time>2015-01-17T10:29:14Z</time>
      </trkpt>
      <trkpt lat="42.408384000" lon="-2.649355000">
        <ele>667.10</ele>
        <time>2015-01-17T10:29:15Z</time>
      </trkpt>
      <trkpt lat="42.408421000" lon="-2.649347000">
        <ele>666.90</ele>
        <time>2015-01-17T10:29:16Z</time>
      </trkpt>
      <trkpt lat="42.408456000" lon="-2.649341000">
        <ele>666.80</ele>
        <time>2015-01-17T10:29:17Z</time>
      </trkpt>
      <trkpt lat="42.408489000" lon="-2.649332000">
        <ele>666.70</ele>
        <time>2015-01-17T10:29:18Z</time>
      </trkpt>
      <trkpt lat="42.408520000" lon="-2.649324000">
        <ele>666.60</ele>
        <time>2015-01-17T10:29:19Z</time>
      </trkpt>
      <trkpt lat="42.408556000" lon="-2.649314000">
        <ele>666.40</ele>
        <time>2015-01-17T10:29:20Z</time>
      </trkpt>
      <trkpt lat="42.408594000" lon="-2.649305000">
        <ele>666.30</ele>
        <time>2015-01-17T10:29:21Z</time>
      </trkpt>
      <trkpt lat="42.408630000" lon="-2.649305000">
        <ele>666.20</ele>
        <time>2015-01-17T10:29:22Z</time>
      </trkpt>
      <trkpt lat="42.408672000" lon="-2.649307000">
        <ele>666.20</ele>
        <time>2015-01-17T10:29:23Z</time>
      </trkpt>
      <trkpt lat="42.408718000" lon="-2.649309000">
        <ele>666.10</ele>
        <time>2015-01-17T10:29:24Z</time>
      </trkpt>
      <trkpt lat="42.408771000" lon="-2.649315000">
        <ele>666.00</ele>
        <time>2015-01-17T10:29:25Z</time>
      </trkpt>
      <trkpt lat="42.408821000" lon="-2.649329000">
        <ele>665.70</ele>
        <time>2015-01-17T10:29:26Z</time>
      </trkpt>
      <trkpt lat="42.408874000" lon="-2.649343000">
        <ele>665.50</ele>
        <time>2015-01-17T10:29:27Z</time>
      </trkpt>
      <trkpt lat="42.408924000" lon="-2.649360000">
        <ele>665.30</ele>
        <time>2015-01-17T10:29:28Z</time>
      </trkpt>
      <trkpt lat="42.408975000" lon="-2.649379000">
        <ele>665.20</ele>
        <time>2015-01-17T10:29:29Z</time>
      </trkpt>
      <trkpt lat="42.409029000" lon="-2.649391000">
        <ele>664.90</ele>
        <time>2015-01-17T10:29:30Z</time>
      </trkpt>
      <trkpt lat="42.409081000" lon="-2.649395000">
        <ele>664.60</ele>
        <time>2015-01-17T10:29:31Z</time>
      </trkpt>
      <trkpt lat="42.409135000" lon="-2.649394000">
        <ele>664.40</ele>
        <time>2015-01-17T10:29:32Z</time>
      </trkpt>
      <trkpt lat="42.409188000" lon="-2.649381000">
        <ele>664.30</ele>
        <time>2015-01-17T10:29:33Z</time>
      </trkpt>
      <trkpt lat="42.409243000" lon="-2.649366000">
        <ele>664.10</ele>
        <time>2015-01-17T10:29:34Z</time>
      </trkpt>
      <trkpt lat="42.409302000" lon="-2.649342000">
        <ele>663.90</ele>
        <time>2015-01-17T10:29:35Z</time>
      </trkpt>
      <trkpt lat="42.409362000" lon="-2.649313000">
        <ele>663.60</ele>
        <time>2015-01-17T10:29:36Z</time>
      </trkpt>
      <trkpt lat="42.409421000" lon="-2.649281000">
        <ele>663.40</ele>
        <time>2015-01-17T10:29:37Z</time>
      </trkpt>
      <trkpt lat="42.409478000" lon="-2.649250000">
        <ele>663.20</ele>
        <time>2015-01-17T10:29:38Z</time>
      </trkpt>
      <trkpt lat="42.409538000" lon="-2.649220000">
        <ele>663.00</ele>
        <time>2015-01-17T10:29:39Z</time>
      </trkpt>
      <trkpt lat="42.409598000" lon="-2.649193000">
        <ele>662.60</ele>
        <time>2015-01-17T10:29:40Z</time>
      </trkpt>
      <trkpt lat="42.409659000" lon="-2.649171000">
        <ele>662.20</ele>
        <time>2015-01-17T10:29:41Z</time>
      </trkpt>
      <trkpt lat="42.409717000" lon="-2.649149000">
        <ele>662.00</ele>
        <time>2015-01-17T10:29:42Z</time>
      </trkpt>
      <trkpt lat="42.409774000" lon="-2.649134000">
        <ele>661.80</ele>
        <time>2015-01-17T10:29:43Z</time>
      </trkpt>
      <trkpt lat="42.409828000" lon="-2.649122000">
        <ele>661.50</ele>
        <time>2015-01-17T10:29:44Z</time>
      </trkpt>
      <trkpt lat="42.409879000" lon="-2.649110000">
        <ele>661.20</ele>
        <time>2015-01-17T10:29:45Z</time>
      </trkpt>
      <trkpt lat="42.409933000" lon="-2.649099000">
        <ele>661.10</ele>
        <time>2015-01-17T10:29:46Z</time>
      </trkpt>
      <trkpt lat="42.409987000" lon="-2.649085000">
        <ele>660.90</ele>
        <time>2015-01-17T10:29:47Z</time>
      </trkpt>
      <trkpt lat="42.410038000" lon="-2.649070000">
        <ele>660.70</ele>
        <time>2015-01-17T10:29:48Z</time>
      </trkpt>
      <trkpt lat="42.410090000" lon="-2.649058000">
        <ele>660.50</ele>
        <time>2015-01-17T10:29:49Z</time>
      </trkpt>
      <trkpt lat="42.410142000" lon="-2.649037000">
        <ele>660.30</ele>
        <time>2015-01-17T10:29:50Z</time>
      </trkpt>
      <trkpt lat="42.410198000" lon="-2.649012000">
        <ele>660.10</ele>
        <time>2015-01-17T10:29:51Z</time>
      </trkpt>
      <trkpt lat="42.410258000" lon="-2.648973000">
        <ele>659.80</ele>
        <time>2015-01-17T10:29:52Z</time>
      </trkpt>
      <trkpt lat="42.410321000" lon="-2.648930000">
        <ele>659.60</ele>
        <time>2015-01-17T10:29:53Z</time>
      </trkpt>
      <trkpt lat="42.410390000" lon="-2.648889000">
        <ele>659.20</ele>
        <time>2015-01-17T10:29:54Z</time>
      </trkpt>
      <trkpt lat="42.410459000" lon="-2.648852000">
        <ele>658.90</ele>
        <time>2015-01-17T10:29:55Z</time>
      </trkpt>
      <trkpt lat="42.410527000" lon="-2.648822000">
        <ele>658.30</ele>
        <time>2015-01-17T10:29:56Z</time>
      </trkpt>
      <trkpt lat="42.410591000" lon="-2.648795000">
        <ele>657.80</ele>
        <time>2015-01-17T10:29:57Z</time>
      </trkpt>
      <trkpt lat="42.410650000" lon="-2.648770000">
        <ele>657.60</ele>
        <time>2015-01-17T10:29:58Z</time>
      </trkpt>
      <trkpt lat="42.410707000" lon="-2.648749000">
        <ele>657.50</ele>
        <time>2015-01-17T10:29:59Z</time>
      </trkpt>
      <trkpt lat="42.410767000" lon="-2.648732000">
        <ele>657.20</ele>
        <time>2015-01-17T10:30:00Z</time>
      </trkpt>
      <trkpt lat="42.410825000" lon="-2.648712000">
        <ele>657.10</ele>
        <time>2015-01-17T10:30:01Z</time>
      </trkpt>
      <trkpt lat="42.410881000" lon="-2.648683000">
        <ele>656.80</ele>
        <time>2015-01-17T10:30:02Z</time>
      </trkpt>
      <trkpt lat="42.410932000" lon="-2.648649000">
        <ele>656.60</ele>
        <time>2015-01-17T10:30:03Z</time>
      </trkpt>
      <trkpt lat="42.410983000" lon="-2.648615000">
        <ele>656.40</ele>
        <time>2015-01-17T10:30:04Z</time>
      </trkpt>
      <trkpt lat="42.411032000" lon="-2.648585000">
        <ele>656.30</ele>
        <time>2015-01-17T10:30:05Z</time>
      </trkpt>
      <trkpt lat="42.411078000" lon="-2.648561000">
        <ele>656.20</ele>
        <time>2015-01-17T10:30:06Z</time>
      </trkpt>
      <trkpt lat="42.411121000" lon="-2.648536000">
        <ele>656.20</ele>
        <time>2015-01-17T10:30:07Z</time>
      </trkpt>
      <trkpt lat="42.411165000" lon="-2.648515000">
        <ele>656.00</ele>
        <time>2015-01-17T10:30:08Z</time>
      </trkpt>
      <trkpt lat="42.411211000" lon="-2.648493000">
        <ele>655.90</ele>
        <time>2015-01-17T10:30:09Z</time>
      </trkpt>
      <trkpt lat="42.411257000" lon="-2.648470000">
        <ele>655.70</ele>
        <time>2015-01-17T10:30:10Z</time>
      </trkpt>
      <trkpt lat="42.411299000" lon="-2.648443000">
        <ele>655.50</ele>
        <time>2015-01-17T10:30:11Z</time>
      </trkpt>
      <trkpt lat="42.411338000" lon="-2.648415000">
        <ele>655.30</ele>
        <time>2015-01-17T10:30:12Z</time>
      </trkpt>
      <trkpt lat="42.411415000" lon="-2.648370000">
        <ele>655.00</ele>
        <time>2015-01-17T10:30:14Z</time>
      </trkpt>
      <trkpt lat="42.411452000" lon="-2.648349000">
        <ele>654.90</ele>
        <time>2015-01-17T10:30:15Z</time>
      </trkpt>
      <trkpt lat="42.411490000" lon="-2.648326000">
        <ele>655.00</ele>
        <time>2015-01-17T10:30:16Z</time>
      </trkpt>
      <trkpt lat="42.411527000" lon="-2.648303000">
        <ele>655.00</ele>
        <time>2015-01-17T10:30:17Z</time>
      </trkpt>
      <trkpt lat="42.411566000" lon="-2.648283000">
        <ele>655.10</ele>
        <time>2015-01-17T10:30:18Z</time>
      </trkpt>
      <trkpt lat="42.411604000" lon="-2.648262000">
        <ele>655.10</ele>
        <time>2015-01-17T10:30:19Z</time>
      </trkpt>
      <trkpt lat="42.411642000" lon="-2.648239000">
        <ele>655.10</ele>
        <time>2015-01-17T10:30:20Z</time>
      </trkpt>
      <trkpt lat="42.411677000" lon="-2.648216000">
        <ele>655.10</ele>
        <time>2015-01-17T10:30:21Z</time>
      </trkpt>
      <trkpt lat="42.411711000" lon="-2.648192000">
        <ele>655.00</ele>
        <time>2015-01-17T10:30:22Z</time>
      </trkpt>
      <trkpt lat="42.411743000" lon="-2.648167000">
        <ele>654.90</ele>
        <time>2015-01-17T10:30:23Z</time>
      </trkpt>
      <trkpt lat="42.411770000" lon="-2.648136000">
        <ele>654.80</ele>
        <time>2015-01-17T10:30:24Z</time>
      </trkpt>
      <trkpt lat="42.411796000" lon="-2.648103000">
        <ele>654.70</ele>
        <time>2015-01-17T10:30:25Z</time>
      </trkpt>
      <trkpt lat="42.411821000" lon="-2.648067000">
        <ele>654.60</ele>
        <time>2015-01-17T10:30:26Z</time>
      </trkpt>
      <trkpt lat="42.411845000" lon="-2.648029000">
        <ele>654.50</ele>
        <time>2015-01-17T10:30:27Z</time>
      </trkpt>
      <trkpt lat="42.411867000" lon="-2.647988000">
        <ele>654.50</ele>
        <time>2015-01-17T10:30:28Z</time>
      </trkpt>
      <trkpt lat="42.411888000" lon="-2.647948000">
        <ele>654.40</ele>
        <time>2015-01-17T10:30:29Z</time>
      </trkpt>
      <trkpt lat="42.411909000" lon="-2.647906000">
        <ele>654.40</ele>
        <time>2015-01-17T10:30:30Z</time>
      </trkpt>
      <trkpt lat="42.411932000" lon="-2.647865000">
        <ele>654.50</ele>
        <time>2015-01-17T10:30:31Z</time>
      </trkpt>
      <trkpt lat="42.411956000" lon="-2.647824000">
        <ele>654.50</ele>
        <time>2015-01-17T10:30:32Z</time>
      </trkpt>
      <trkpt lat="42.411983000" lon="-2.647787000">
        <ele>654.50</ele>
        <time>2015-01-17T10:30:33Z</time>
      </trkpt>
      <trkpt lat="42.412013000" lon="-2.647754000">
        <ele>654.50</ele>
        <time>2015-01-17T10:30:34Z</time>
      </trkpt>
      <trkpt lat="42.412049000" lon="-2.647729000">
        <ele>654.50</ele>
        <time>2015-01-17T10:30:35Z</time>
      </trkpt>
      <trkpt lat="42.412084000" lon="-2.647719000">
        <ele>654.50</ele>
        <time>2015-01-17T10:30:36Z</time>
      </trkpt>
      <trkpt lat="42.412123000" lon="-2.647712000">
        <ele>654.60</ele>
        <time>2015-01-17T10:30:37Z</time>
      </trkpt>
      <trkpt lat="42.412162000" lon="-2.647705000">
        <ele>654.60</ele>
        <time>2015-01-17T10:30:38Z</time>
      </trkpt>
      <trkpt lat="42.412198000" lon="-2.647690000">
        <ele>654.60</ele>
        <time>2015-01-17T10:30:39Z</time>
      </trkpt>
      <trkpt lat="42.412232000" lon="-2.647667000">
        <ele>654.60</ele>
        <time>2015-01-17T10:30:40Z</time>
      </trkpt>
      <trkpt lat="42.412264000" lon="-2.647640000">
        <ele>654.50</ele>
        <time>2015-01-17T10:30:41Z</time>
      </trkpt>
      <trkpt lat="42.412294000" lon="-2.647616000">
        <ele>654.40</ele>
        <time>2015-01-17T10:30:42Z</time>
      </trkpt>
      <trkpt lat="42.412320000" lon="-2.647587000">
        <ele>654.40</ele>
        <time>2015-01-17T10:30:43Z</time>
      </trkpt>
      <trkpt lat="42.412346000" lon="-2.647559000">
        <ele>654.30</ele>
        <time>2015-01-17T10:30:44Z</time>
      </trkpt>
      <trkpt lat="42.412370000" lon="-2.647532000">
        <ele>654.30</ele>
        <time>2015-01-17T10:30:45Z</time>
      </trkpt>
      <trkpt lat="42.412400000" lon="-2.647511000">
        <ele>654.20</ele>
        <time>2015-01-17T10:30:46Z</time>
      </trkpt>
      <trkpt lat="42.412433000" lon="-2.647497000">
        <ele>654.20</ele>
        <time>2015-01-17T10:30:47Z</time>
      </trkpt>
      <trkpt lat="42.412465000" lon="-2.647490000">
        <ele>654.10</ele>
        <time>2015-01-17T10:30:48Z</time>
      </trkpt>
      <trkpt lat="42.412496000" lon="-2.647487000">
        <ele>654.10</ele>
        <time>2015-01-17T10:30:49Z</time>
      </trkpt>
      <trkpt lat="42.412528000" lon="-2.647474000">
        <ele>654.10</ele>
        <time>2015-01-17T10:30:50Z</time>
      </trkpt>
      <trkpt lat="42.412550000" lon="-2.647448000">
        <ele>654.10</ele>
        <time>2015-01-17T10:30:51Z</time>
      </trkpt>
      <trkpt lat="42.412562000" lon="-2.647415000">
        <ele>654.10</ele>
        <time>2015-01-17T10:30:52Z</time>
      </trkpt>
      <trkpt lat="42.412570000" lon="-2.647378000">
        <ele>654.00</ele>
        <time>2015-01-17T10:30:53Z</time>
      </trkpt>
      <trkpt lat="42.412573000" lon="-2.647338000">
        <ele>654.00</ele>
        <time>2015-01-17T10:30:54Z</time>
      </trkpt>
      <trkpt lat="42.412575000" lon="-2.647300000">
        <ele>654.00</ele>
        <time>2015-01-17T10:30:55Z</time>
      </trkpt>
      <trkpt lat="42.412572000" lon="-2.647258000">
        <ele>653.90</ele>
        <time>2015-01-17T10:30:56Z</time>
      </trkpt>
      <trkpt lat="42.412573000" lon="-2.647217000">
        <ele>653.90</ele>
        <time>2015-01-17T10:30:57Z</time>
      </trkpt>
      <trkpt lat="42.412568000" lon="-2.647176000">
        <ele>653.70</ele>
        <time>2015-01-17T10:30:58Z</time>
      </trkpt>
      <trkpt lat="42.412561000" lon="-2.647135000">
        <ele>653.60</ele>
        <time>2015-01-17T10:30:59Z</time>
      </trkpt>
      <trkpt lat="42.412557000" lon="-2.647097000">
        <ele>653.50</ele>
        <time>2015-01-17T10:31:00Z</time>
      </trkpt>
      <trkpt lat="42.412549000" lon="-2.647058000">
        <ele>653.50</ele>
        <time>2015-01-17T10:31:01Z</time>
      </trkpt>
      <trkpt lat="42.412543000" lon="-2.647016000">
        <ele>653.40</ele>
        <time>2015-01-17T10:31:02Z</time>
      </trkpt>
      <trkpt lat="42.412533000" lon="-2.646977000">
        <ele>653.40</ele>
        <time>2015-01-17T10:31:03Z</time>
      </trkpt>
      <trkpt lat="42.412524000" lon="-2.646937000">
        <ele>653.40</ele>
        <time>2015-01-17T10:31:04Z</time>
      </trkpt>
      <trkpt lat="42.412517000" lon="-2.646895000">
        <ele>653.40</ele>
        <time>2015-01-17T10:31:05Z</time>
      </trkpt>
      <trkpt lat="42.412512000" lon="-2.646856000">
        <ele>653.50</ele>
        <time>2015-01-17T10:31:06Z</time>
      </trkpt>
      <trkpt lat="42.412505000" lon="-2.646815000">
        <ele>653.50</ele>
        <time>2015-01-17T10:31:07Z</time>
      </trkpt>
      <trkpt lat="42.412500000" lon="-2.646781000">
        <ele>653.80</ele>
        <time>2015-01-17T10:31:08Z</time>
      </trkpt>
      <trkpt lat="42.412500000" lon="-2.646743000">
        <ele>654.00</ele>
        <time>2015-01-17T10:31:09Z</time>
      </trkpt>
      <trkpt lat="42.412497000" lon="-2.646705000">
        <ele>654.20</ele>
        <time>2015-01-17T10:31:10Z</time>
      </trkpt>
      <trkpt lat="42.412494000" lon="-2.646667000">
        <ele>654.40</ele>
        <time>2015-01-17T10:31:11Z</time>
      </trkpt>
      <trkpt lat="42.412491000" lon="-2.646631000">
        <ele>654.30</ele>
        <time>2015-01-17T10:31:12Z</time>
      </trkpt>
      <trkpt lat="42.412490000" lon="-2.646594000">
        <ele>654.30</ele>
        <time>2015-01-17T10:31:13Z</time>
      </trkpt>
      <trkpt lat="42.412491000" lon="-2.646558000">
        <ele>654.30</ele>
        <time>2015-01-17T10:31:14Z</time>
      </trkpt>
      <trkpt lat="42.412493000" lon="-2.646493000">
        <ele>654.40</ele>
        <time>2015-01-17T10:31:16Z</time>
      </trkpt>
      <trkpt lat="42.412496000" lon="-2.646457000">
        <ele>654.50</ele>
        <time>2015-01-17T10:31:17Z</time>
      </trkpt>
      <trkpt lat="42.412495000" lon="-2.646421000">
        <ele>654.60</ele>
        <time>2015-01-17T10:31:18Z</time>
      </trkpt>
      <trkpt lat="42.412493000" lon="-2.646389000">
        <ele>654.70</ele>
        <time>2015-01-17T10:31:19Z</time>
      </trkpt>
      <trkpt lat="42.412491000" lon="-2.646362000">
        <ele>655.00</ele>
        <time>2015-01-17T10:31:20Z</time>
      </trkpt>
      <trkpt lat="42.412490000" lon="-2.646332000">
        <ele>655.20</ele>
        <time>2015-01-17T10:31:21Z</time>
      </trkpt>
      <trkpt lat="42.412490000" lon="-2.646301000">
        <ele>655.40</ele>
        <time>2015-01-17T10:31:22Z</time>
      </trkpt>
      <trkpt lat="42.412490000" lon="-2.646268000">
        <ele>655.60</ele>
        <time>2015-01-17T10:31:23Z</time>
      </trkpt>
      <trkpt lat="42.412490000" lon="-2.646238000">
        <ele>655.80</ele>
        <time>2015-01-17T10:31:24Z</time>
      </trkpt>
      <trkpt lat="42.412489000" lon="-2.646212000">
        <ele>655.90</ele>
        <time>2015-01-17T10:31:25Z</time>
      </trkpt>
      <trkpt lat="42.412487000" lon="-2.646186000">
        <ele>656.00</ele>
        <time>2015-01-17T10:31:26Z</time>
      </trkpt>
      <trkpt lat="42.412487000" lon="-2.646159000">
        <ele>656.10</ele>
        <time>2015-01-17T10:31:27Z</time>
      </trkpt>
      <trkpt lat="42.412486000" lon="-2.646131000">
        <ele>656.10</ele>
        <time>2015-01-17T10:31:28Z</time>
      </trkpt>
      <trkpt lat="42.412482000" lon="-2.646104000">
        <ele>656.20</ele>
        <time>2015-01-17T10:31:29Z</time>
      </trkpt>
      <trkpt lat="42.412479000" lon="-2.646081000">
        <ele>656.30</ele>
        <time>2015-01-17T10:31:30Z</time>
      </trkpt>
      <trkpt lat="42.412478000" lon="-2.646053000">
        <ele>656.40</ele>
        <time>2015-01-17T10:31:31Z</time>
      </trkpt>
      <trkpt lat="42.412480000" lon="-2.646028000">
        <ele>656.80</ele>
        <time>2015-01-17T10:31:32Z</time>
      </trkpt>
      <trkpt lat="42.412482000" lon="-2.646005000">
        <ele>657.10</ele>
        <time>2015-01-17T10:31:33Z</time>
      </trkpt>
      <trkpt lat="42.412484000" lon="-2.645983000">
        <ele>657.50</ele>
        <time>2015-01-17T10:31:34Z</time>
      </trkpt>
      <trkpt lat="42.412486000" lon="-2.645957000">
        <ele>657.80</ele>
        <time>2015-01-17T10:31:35Z</time>
      </trkpt>
      <trkpt lat="42.412482000" lon="-2.645933000">
        <ele>658.40</ele>
        <time>2015-01-17T10:31:36Z</time>
      </trkpt>
      <trkpt lat="42.412482000" lon="-2.645913000">
        <ele>658.80</ele>
        <time>2015-01-17T10:31:37Z</time>
      </trkpt>
      <trkpt lat="42.412485000" lon="-2.645889000">
        <ele>659.30</ele>
        <time>2015-01-17T10:31:38Z</time>
      </trkpt>
      <trkpt lat="42.412485000" lon="-2.645865000">
        <ele>659.70</ele>
        <time>2015-01-17T10:31:39Z</time>
      </trkpt>
      <trkpt lat="42.412490000" lon="-2.645837000">
        <ele>660.00</ele>
        <time>2015-01-17T10:31:40Z</time>
      </trkpt>
      <trkpt lat="42.412490000" lon="-2.645816000">
        <ele>660.20</ele>
        <time>2015-01-17T10:31:41Z</time>
      </trkpt>
      <trkpt lat="42.412492000" lon="-2.645793000">
        <ele>660.40</ele>
        <time>2015-01-17T10:31:42Z</time>
      </trkpt>
      <trkpt lat="42.412491000" lon="-2.645767000">
        <ele>660.60</ele>
        <time>2015-01-17T10:31:43Z</time>
      </trkpt>
      <trkpt lat="42.412492000" lon="-2.645743000">
        <ele>660.80</ele>
        <time>2015-01-17T10:31:44Z</time>
      </trkpt>
      <trkpt lat="42.412491000" lon="-2.645724000">
        <ele>661.00</ele>
        <time>2015-01-17T10:31:45Z</time>
      </trkpt>
      <trkpt lat="42.412490000" lon="-2.645698000">
        <ele>661.30</ele>
        <time>2015-01-17T10:31:46Z</time>
      </trkpt>
      <trkpt lat="42.412487000" lon="-2.645677000">
        <ele>661.60</ele>
        <time>2015-01-17T10:31:47Z</time>
      </trkpt>
      <trkpt lat="42.412482000" lon="-2.645655000">
        <ele>661.80</ele>
        <time>2015-01-17T10:31:48Z</time>
      </trkpt>
      <trkpt lat="42.412481000" lon="-2.645632000">
        <ele>661.90</ele>
        <time>2015-01-17T10:31:49Z</time>
      </trkpt>
      <trkpt lat="42.412481000" lon="-2.645610000">
        <ele>661.90</ele>
        <time>2015-01-17T10:31:50Z</time>
      </trkpt>
      <trkpt lat="42.412480000" lon="-2.645585000">
        <ele>662.00</ele>
        <time>2015-01-17T10:31:51Z</time>
      </trkpt>
      <trkpt lat="42.412478000" lon="-2.645556000">
        <ele>662.00</ele>
        <time>2015-01-17T10:31:52Z</time>
      </trkpt>
      <trkpt lat="42.412475000" lon="-2.645525000">
        <ele>662.00</ele>
        <time>2015-01-17T10:31:53Z</time>
      </trkpt>
      <trkpt lat="42.412473000" lon="-2.645493000">
        <ele>662.40</ele>
        <time>2015-01-17T10:31:54Z</time>
      </trkpt>
      <trkpt lat="42.412472000" lon="-2.645465000">
        <ele>662.60</ele>
        <time>2015-01-17T10:31:55Z</time>
      </trkpt>
      <trkpt lat="42.412474000" lon="-2.645438000">
        <ele>662.80</ele>
        <time>2015-01-17T10:31:56Z</time>
      </trkpt>
      <trkpt lat="42.412470000" lon="-2.645413000">
        <ele>662.90</ele>
        <time>2015-01-17T10:31:57Z</time>
      </trkpt>
      <trkpt lat="42.412470000" lon="-2.645393000">
        <ele>662.80</ele>
        <time>2015-01-17T10:31:58Z</time>
      </trkpt>
      <trkpt lat="42.412469000" lon="-2.645363000">
        <ele>662.70</ele>
        <time>2015-01-17T10:31:59Z</time>
      </trkpt>
      <trkpt lat="42.412466000" lon="-2.645336000">
        <ele>662.60</ele>
        <time>2015-01-17T10:32:00Z</time>
      </trkpt>
      <trkpt lat="42.412459000" lon="-2.645309000">
        <ele>662.60</ele>
        <time>2015-01-17T10:32:01Z</time>
      </trkpt>
      <trkpt lat="42.412455000" lon="-2.645283000">
        <ele>662.60</ele>
        <time>2015-01-17T10:32:02Z</time>
      </trkpt>
      <trkpt lat="42.412452000" lon="-2.645255000">
        <ele>662.60</ele>
        <time>2015-01-17T10:32:03Z</time>
      </trkpt>
      <trkpt lat="42.412453000" lon="-2.645228000">
        <ele>662.60</ele>
        <time>2015-01-17T10:32:04Z</time>
      </trkpt>
      <trkpt lat="42.412453000" lon="-2.645196000">
        <ele>662.60</ele>
        <time>2015-01-17T10:32:05Z</time>
      </trkpt>
      <trkpt lat="42.412453000" lon="-2.645169000">
        <ele>662.70</ele>
        <time>2015-01-17T10:32:06Z</time>
      </trkpt>
      <trkpt lat="42.412452000" lon="-2.645142000">
        <ele>662.70</ele>
        <time>2015-01-17T10:32:07Z</time>
      </trkpt>
      <trkpt lat="42.412451000" lon="-2.645117000">
        <ele>662.60</ele>
        <time>2015-01-17T10:32:08Z</time>
      </trkpt>
      <trkpt lat="42.412452000" lon="-2.645091000">
        <ele>662.50</ele>
        <time>2015-01-17T10:32:09Z</time>
      </trkpt>
      <trkpt lat="42.412449000" lon="-2.645062000">
        <ele>662.70</ele>
        <time>2015-01-17T10:32:10Z</time>
      </trkpt>
      <trkpt lat="42.412444000" lon="-2.645034000">
        <ele>662.80</ele>
        <time>2015-01-17T10:32:11Z</time>
      </trkpt>
      <trkpt lat="42.412442000" lon="-2.645004000">
        <ele>662.80</ele>
        <time>2015-01-17T10:32:12Z</time>
      </trkpt>
      <trkpt lat="42.412439000" lon="-2.644975000">
        <ele>662.80</ele>
        <time>2015-01-17T10:32:13Z</time>
      </trkpt>
      <trkpt lat="42.412435000" lon="-2.644947000">
        <ele>662.90</ele>
        <time>2015-01-17T10:32:14Z</time>
      </trkpt>
      <trkpt lat="42.412435000" lon="-2.644920000">
        <ele>662.90</ele>
        <time>2015-01-17T10:32:15Z</time>
      </trkpt>
      <trkpt lat="42.412434000" lon="-2.644892000">
        <ele>663.00</ele>
        <time>2015-01-17T10:32:16Z</time>
      </trkpt>
      <trkpt lat="42.412433000" lon="-2.644837000">
        <ele>663.10</ele>
        <time>2015-01-17T10:32:18Z</time>
      </trkpt>
      <trkpt lat="42.412430000" lon="-2.644807000">
        <ele>663.20</ele>
        <time>2015-01-17T10:32:19Z</time>
      </trkpt>
      <trkpt lat="42.412430000" lon="-2.644785000">
        <ele>663.20</ele>
        <time>2015-01-17T10:32:20Z</time>
      </trkpt>
      <trkpt lat="42.412424000" lon="-2.644762000">
        <ele>663.30</ele>
        <time>2015-01-17T10:32:21Z</time>
      </trkpt>
      <trkpt lat="42.412425000" lon="-2.644737000">
        <ele>663.40</ele>
        <time>2015-01-17T10:32:22Z</time>
      </trkpt>
      <trkpt lat="42.412423000" lon="-2.644714000">
        <ele>663.50</ele>
        <time>2015-01-17T10:32:23Z</time>
      </trkpt>
      <trkpt lat="42.412420000" lon="-2.644690000">
        <ele>663.50</ele>
        <time>2015-01-17T10:32:24Z</time>
      </trkpt>
      <trkpt lat="42.412421000" lon="-2.644668000">
        <ele>663.50</ele>
        <time>2015-01-17T10:32:25Z</time>
      </trkpt>
      <trkpt lat="42.412423000" lon="-2.644651000">
        <ele>663.50</ele>
        <time>2015-01-17T10:32:26Z</time>
      </trkpt>
      <trkpt lat="42.412421000" lon="-2.644633000">
        <ele>663.60</ele>
        <time>2015-01-17T10:32:27Z</time>
      </trkpt>
      <trkpt lat="42.412418000" lon="-2.644618000">
        <ele>663.80</ele>
        <time>2015-01-17T10:32:28Z</time>
      </trkpt>
      <trkpt lat="42.412414000" lon="-2.644600000">
        <ele>663.90</ele>
        <time>2015-01-17T10:32:29Z</time>
      </trkpt>
      <trkpt lat="42.412411000" lon="-2.644579000">
        <ele>664.00</ele>
        <time>2015-01-17T10:32:30Z</time>
      </trkpt>
      <trkpt lat="42.412410000" lon="-2.644561000">
        <ele>664.00</ele>
        <time>2015-01-17T10:32:31Z</time>
      </trkpt>
      <trkpt lat="42.412406000" lon="-2.644541000">
        <ele>664.10</ele>
        <time>2015-01-17T10:32:32Z</time>
      </trkpt>
      <trkpt lat="42.412404000" lon="-2.644523000">
        <ele>664.20</ele>
        <time>2015-01-17T10:32:33Z</time>
      </trkpt>
      <trkpt lat="42.412400000" lon="-2.644506000">
        <ele>664.20</ele>
        <time>2015-01-17T10:32:34Z</time>
      </trkpt>
      <trkpt lat="42.412399000" lon="-2.644491000">
        <ele>664.30</ele>
        <time>2015-01-17T10:32:35Z</time>
      </trkpt>
      <trkpt lat="42.412402000" lon="-2.644477000">
        <ele>664.30</ele>
        <time>2015-01-17T10:32:36Z</time>
      </trkpt>
      <trkpt lat="42.412401000" lon="-2.644454000">
        <ele>664.30</ele>
        <time>2015-01-17T10:32:37Z</time>
      </trkpt>
      <trkpt lat="42.412401000" lon="-2.644440000">
        <ele>664.60</ele>
        <time>2015-01-17T10:32:38Z</time>
      </trkpt>
      <trkpt lat="42.412405000" lon="-2.644416000">
        <ele>664.80</ele>
        <time>2015-01-17T10:32:39Z</time>
      </trkpt>
      <trkpt lat="42.412404000" lon="-2.644383000">
        <ele>664.70</ele>
        <time>2015-01-17T10:32:40Z</time>
      </trkpt>
      <trkpt lat="42.412405000" lon="-2.644350000">
        <ele>664.50</ele>
        <time>2015-01-17T10:32:41Z</time>
      </trkpt>
      <trkpt lat="42.412406000" lon="-2.644320000">
        <ele>664.80</ele>
        <time>2015-01-17T10:32:42Z</time>
      </trkpt>
      <trkpt lat="42.412408000" lon="-2.644287000">
        <ele>665.00</ele>
        <time>2015-01-17T10:32:43Z</time>
      </trkpt>
      <trkpt lat="42.412412000" lon="-2.644254000">
        <ele>665.60</ele>
        <time>2015-01-17T10:32:44Z</time>
      </trkpt>
      <trkpt lat="42.412418000" lon="-2.644223000">
        <ele>666.00</ele>
        <time>2015-01-17T10:32:45Z</time>
      </trkpt>
      <trkpt lat="42.412422000" lon="-2.644191000">
        <ele>666.30</ele>
        <time>2015-01-17T10:32:46Z</time>
      </trkpt>
      <trkpt lat="42.412426000" lon="-2.644164000">
        <ele>666.60</ele>
        <time>2015-01-17T10:32:47Z</time>
      </trkpt>
      <trkpt lat="42.412434000" lon="-2.644135000">
        <ele>666.60</ele>
        <time>2015-01-17T10:32:48Z</time>
      </trkpt>
      <trkpt lat="42.412440000" lon="-2.644108000">
        <ele>666.50</ele>
        <time>2015-01-17T10:32:49Z</time>
      </trkpt>
      <trkpt lat="42.412446000" lon="-2.644072000">
        <ele>666.50</ele>
        <time>2015-01-17T10:32:50Z</time>
      </trkpt>
      <trkpt lat="42.412452000" lon="-2.644044000">
        <ele>666.50</ele>
        <time>2015-01-17T10:32:51Z</time>
      </trkpt>
      <trkpt lat="42.412460000" lon="-2.644017000">
        <ele>666.80</ele>
        <time>2015-01-17T10:32:52Z</time>
      </trkpt>
      <trkpt lat="42.412466000" lon="-2.643985000">
        <ele>667.00</ele>
        <time>2015-01-17T10:32:53Z</time>
      </trkpt>
      <trkpt lat="42.412474000" lon="-2.643950000">
        <ele>667.30</ele>
        <time>2015-01-17T10:32:54Z</time>
      </trkpt>
      <trkpt lat="42.412478000" lon="-2.643911000">
        <ele>667.40</ele>
        <time>2015-01-17T10:32:55Z</time>
      </trkpt>
      <trkpt lat="42.412481000" lon="-2.643874000">
        <ele>667.60</ele>
        <time>2015-01-17T10:32:56Z</time>
      </trkpt>
      <trkpt lat="42.412483000" lon="-2.643839000">
        <ele>667.80</ele>
        <time>2015-01-17T10:32:57Z</time>
      </trkpt>
      <trkpt lat="42.412482000" lon="-2.643806000">
        <ele>668.00</ele>
        <time>2015-01-17T10:32:58Z</time>
      </trkpt>
      <trkpt lat="42.412474000" lon="-2.643775000">
        <ele>668.10</ele>
        <time>2015-01-17T10:32:59Z</time>
      </trkpt>
      <trkpt lat="42.412466000" lon="-2.643746000">
        <ele>668.30</ele>
        <time>2015-01-17T10:33:00Z</time>
      </trkpt>
      <trkpt lat="42.412459000" lon="-2.643716000">
        <ele>668.40</ele>
        <time>2015-01-17T10:33:01Z</time>
      </trkpt>
      <trkpt lat="42.412447000" lon="-2.643686000">
        <ele>668.50</ele>
        <time>2015-01-17T10:33:02Z</time>
      </trkpt>
      <trkpt lat="42.412439000" lon="-2.643661000">
        <ele>668.60</ele>
        <time>2015-01-17T10:33:03Z</time>
      </trkpt>
      <trkpt lat="42.412431000" lon="-2.643629000">
        <ele>668.80</ele>
        <time>2015-01-17T10:33:04Z</time>
      </trkpt>
      <trkpt lat="42.412419000" lon="-2.643597000">
        <ele>668.90</ele>
        <time>2015-01-17T10:33:05Z</time>
      </trkpt>
      <trkpt lat="42.412407000" lon="-2.643569000">
        <ele>668.90</ele>
        <time>2015-01-17T10:33:06Z</time>
      </trkpt>
      <trkpt lat="42.412395000" lon="-2.643541000">
        <ele>668.90</ele>
        <time>2015-01-17T10:33:07Z</time>
      </trkpt>
      <trkpt lat="42.412384000" lon="-2.643511000">
        <ele>669.00</ele>
        <time>2015-01-17T10:33:08Z</time>
      </trkpt>
      <trkpt lat="42.412372000" lon="-2.643483000">
        <ele>669.00</ele>
        <time>2015-01-17T10:33:09Z</time>
      </trkpt>
      <trkpt lat="42.412359000" lon="-2.643455000">
        <ele>669.00</ele>
        <time>2015-01-17T10:33:10Z</time>
      </trkpt>
      <trkpt lat="42.412345000" lon="-2.643425000">
        <ele>669.00</ele>
        <time>2015-01-17T10:33:11Z</time>
      </trkpt>
      <trkpt lat="42.412332000" lon="-2.643396000">
        <ele>669.00</ele>
        <time>2015-01-17T10:33:12Z</time>
      </trkpt>
      <trkpt lat="42.412318000" lon="-2.643366000">
        <ele>669.00</ele>
        <time>2015-01-17T10:33:13Z</time>
      </trkpt>
      <trkpt lat="42.412306000" lon="-2.643334000">
        <ele>669.10</ele>
        <time>2015-01-17T10:33:14Z</time>
      </trkpt>
      <trkpt lat="42.412296000" lon="-2.643300000">
        <ele>669.20</ele>
        <time>2015-01-17T10:33:15Z</time>
      </trkpt>
      <trkpt lat="42.412277000" lon="-2.643267000">
        <ele>669.40</ele>
        <time>2015-01-17T10:33:16Z</time>
      </trkpt>
      <trkpt lat="42.412262000" lon="-2.643240000">
        <ele>669.60</ele>
        <time>2015-01-17T10:33:17Z</time>
      </trkpt>
      <trkpt lat="42.412249000" lon="-2.643211000">
        <ele>669.70</ele>
        <time>2015-01-17T10:33:18Z</time>
      </trkpt>
      <trkpt lat="42.412225000" lon="-2.643152000">
        <ele>669.90</ele>
        <time>2015-01-17T10:33:20Z</time>
      </trkpt>
      <trkpt lat="42.412207000" lon="-2.643123000">
        <ele>670.00</ele>
        <time>2015-01-17T10:33:21Z</time>
      </trkpt>
      <trkpt lat="42.412184000" lon="-2.643096000">
        <ele>670.20</ele>
        <time>2015-01-17T10:33:22Z</time>
      </trkpt>
      <trkpt lat="42.412160000" lon="-2.643068000">
        <ele>670.30</ele>
        <time>2015-01-17T10:33:23Z</time>
      </trkpt>
      <trkpt lat="42.412141000" lon="-2.643040000">
        <ele>670.30</ele>
        <time>2015-01-17T10:33:24Z</time>
      </trkpt>
      <trkpt lat="42.412119000" lon="-2.643012000">
        <ele>670.30</ele>
        <time>2015-01-17T10:33:25Z</time>
      </trkpt>
      <trkpt lat="42.412095000" lon="-2.642984000">
        <ele>670.40</ele>
        <time>2015-01-17T10:33:26Z</time>
      </trkpt>
      <trkpt lat="42.412072000" lon="-2.642947000">
        <ele>670.50</ele>
        <time>2015-01-17T10:33:27Z</time>
      </trkpt>
      <trkpt lat="42.412053000" lon="-2.642907000">
        <ele>670.50</ele>
        <time>2015-01-17T10:33:28Z</time>
      </trkpt>
      <trkpt lat="42.412045000" lon="-2.642856000">
        <ele>670.60</ele>
        <time>2015-01-17T10:33:29Z</time>
      </trkpt>
      <trkpt lat="42.412041000" lon="-2.642803000">
        <ele>670.80</ele>
        <time>2015-01-17T10:33:30Z</time>
      </trkpt>
      <trkpt lat="42.412035000" lon="-2.642751000">
        <ele>670.90</ele>
        <time>2015-01-17T10:33:31Z</time>
      </trkpt>
      <trkpt lat="42.412025000" lon="-2.642710000">
        <ele>670.90</ele>
        <time>2015-01-17T10:33:32Z</time>
      </trkpt>
      <trkpt lat="42.412005000" lon="-2.642683000">
        <ele>670.90</ele>
        <time>2015-01-17T10:33:33Z</time>
      </trkpt>
      <trkpt lat="42.411982000" lon="-2.642660000">
        <ele>670.90</ele>
        <time>2015-01-17T10:33:34Z</time>
      </trkpt>
      <trkpt lat="42.411960000" lon="-2.642635000">
        <ele>670.90</ele>
        <time>2015-01-17T10:33:35Z</time>
      </trkpt>
      <trkpt lat="42.411937000" lon="-2.642614000">
        <ele>670.60</ele>
        <time>2015-01-17T10:33:36Z</time>
      </trkpt>
      <trkpt lat="42.411917000" lon="-2.642599000">
        <ele>670.30</ele>
        <time>2015-01-17T10:33:37Z</time>
      </trkpt>
      <trkpt lat="42.411897000" lon="-2.642581000">
        <ele>669.90</ele>
        <time>2015-01-17T10:33:38Z</time>
      </trkpt>
      <trkpt lat="42.411877000" lon="-2.642563000">
        <ele>669.60</ele>
        <time>2015-01-17T10:33:39Z</time>
      </trkpt>
      <trkpt lat="42.411852000" lon="-2.642547000">
        <ele>669.10</ele>
        <time>2015-01-17T10:33:40Z</time>
      </trkpt>
      <trkpt lat="42.411826000" lon="-2.642536000">
        <ele>668.80</ele>
        <time>2015-01-17T10:33:41Z</time>
      </trkpt>
      <trkpt lat="42.411799000" lon="-2.642528000">
        <ele>668.60</ele>
        <time>2015-01-17T10:33:42Z</time>
      </trkpt>
      <trkpt lat="42.411779000" lon="-2.642518000">
        <ele>668.40</ele>
        <time>2015-01-17T10:33:43Z</time>
      </trkpt>
      <trkpt lat="42.411763000" lon="-2.642504000">
        <ele>667.70</ele>
        <time>2015-01-17T10:33:44Z</time>
      </trkpt>
      <trkpt lat="42.411750000" lon="-2.642488000">
        <ele>667.20</ele>
        <time>2015-01-17T10:33:45Z</time>
      </trkpt>
      <trkpt lat="42.411746000" lon="-2.642472000">
        <ele>666.50</ele>
        <time>2015-01-17T10:33:46Z</time>
      </trkpt>
      <trkpt lat="42.411743000" lon="-2.642455000">
        <ele>665.90</ele>
        <time>2015-01-17T10:33:47Z</time>
      </trkpt>
      <trkpt lat="42.411737000" lon="-2.642437000">
        <ele>665.50</ele>
        <time>2015-01-17T10:33:48Z</time>
      </trkpt>
      <trkpt lat="42.411727000" lon="-2.642419000">
        <ele>665.20</ele>
        <time>2015-01-17T10:33:49Z</time>
      </trkpt>
      <trkpt lat="42.411724000" lon="-2.642403000">
        <ele>665.00</ele>
        <time>2015-01-17T10:33:50Z</time>
      </trkpt>
      <trkpt lat="42.411722000" lon="-2.642393000">
        <ele>664.90</ele>
        <time>2015-01-17T10:33:51Z</time>
      </trkpt>
      <trkpt lat="42.411714000" lon="-2.642373000">
        <ele>664.80</ele>
        <time>2015-01-17T10:33:52Z</time>
      </trkpt>
      <trkpt lat="42.411706000" lon="-2.642348000">
        <ele>664.70</ele>
        <time>2015-01-17T10:33:53Z</time>
      </trkpt>
      <trkpt lat="42.411698000" lon="-2.642329000">
        <ele>664.40</ele>
        <time>2015-01-17T10:33:54Z</time>
      </trkpt>
      <trkpt lat="42.411693000" lon="-2.642302000">
        <ele>664.20</ele>
        <time>2015-01-17T10:33:55Z</time>
      </trkpt>
      <trkpt lat="42.411680000" lon="-2.642280000">
        <ele>663.90</ele>
        <time>2015-01-17T10:33:56Z</time>
      </trkpt>
      <trkpt lat="42.411669000" lon="-2.642262000">
        <ele>663.70</ele>
        <time>2015-01-17T10:33:57Z</time>
      </trkpt>
      <trkpt lat="42.411652000" lon="-2.642241000">
        <ele>663.50</ele>
        <time>2015-01-17T10:33:58Z</time>
      </trkpt>
      <trkpt lat="42.411632000" lon="-2.642216000">
        <ele>663.40</ele>
        <time>2015-01-17T10:33:59Z</time>
      </trkpt>
      <trkpt lat="42.411615000" lon="-2.642192000">
        <ele>663.20</ele>
        <time>2015-01-17T10:34:00Z</time>
      </trkpt>
      <trkpt lat="42.411602000" lon="-2.642170000">
        <ele>663.10</ele>
        <time>2015-01-17T10:34:01Z</time>
      </trkpt>
      <trkpt lat="42.411593000" lon="-2.642145000">
        <ele>662.60</ele>
        <time>2015-01-17T10:34:02Z</time>
      </trkpt>
      <trkpt lat="42.411575000" lon="-2.642121000">
        <ele>662.30</ele>
        <time>2015-01-17T10:34:03Z</time>
      </trkpt>
      <trkpt lat="42.411558000" lon="-2.642092000">
        <ele>661.60</ele>
        <time>2015-01-17T10:34:04Z</time>
      </trkpt>
      <trkpt lat="42.411535000" lon="-2.642063000">
        <ele>661.00</ele>
        <time>2015-01-17T10:34:05Z</time>
      </trkpt>
      <trkpt lat="42.411513000" lon="-2.642032000">
        <ele>660.50</ele>
        <time>2015-01-17T10:34:06Z</time>
      </trkpt>
      <trkpt lat="42.411491000" lon="-2.642001000">
        <ele>660.10</ele>
        <time>2015-01-17T10:34:07Z</time>
      </trkpt>
      <trkpt lat="42.411466000" lon="-2.641957000">
        <ele>659.70</ele>
        <time>2015-01-17T10:34:08Z</time>
      </trkpt>
      <trkpt lat="42.411452000" lon="-2.641909000">
        <ele>659.30</ele>
        <time>2015-01-17T10:34:09Z</time>
      </trkpt>
      <trkpt lat="42.411440000" lon="-2.641859000">
        <ele>659.00</ele>
        <time>2015-01-17T10:34:10Z</time>
      </trkpt>
      <trkpt lat="42.411423000" lon="-2.641808000">
        <ele>658.70</ele>
        <time>2015-01-17T10:34:11Z</time>
      </trkpt>
      <trkpt lat="42.411408000" lon="-2.641761000">
        <ele>658.10</ele>
        <time>2015-01-17T10:34:12Z</time>
      </trkpt>
      <trkpt lat="42.411397000" lon="-2.641707000">
        <ele>657.70</ele>
        <time>2015-01-17T10:34:13Z</time>
      </trkpt>
      <trkpt lat="42.411392000" lon="-2.641651000">
        <ele>657.30</ele>
        <time>2015-01-17T10:34:14Z</time>
      </trkpt>
      <trkpt lat="42.411384000" lon="-2.641598000">
        <ele>657.10</ele>
        <time>2015-01-17T10:34:15Z</time>
      </trkpt>
      <trkpt lat="42.411372000" lon="-2.641546000">
        <ele>656.90</ele>
        <time>2015-01-17T10:34:16Z</time>
      </trkpt>
      <trkpt lat="42.411364000" lon="-2.641492000">
        <ele>656.80</ele>
        <time>2015-01-17T10:34:17Z</time>
      </trkpt>
      <trkpt lat="42.411366000" lon="-2.641438000">
        <ele>656.60</ele>
        <time>2015-01-17T10:34:18Z</time>
      </trkpt>
      <trkpt lat="42.411366000" lon="-2.641379000">
        <ele>656.50</ele>
        <time>2015-01-17T10:34:19Z</time>
      </trkpt>
      <trkpt lat="42.411371000" lon="-2.641324000">
        <ele>656.20</ele>
        <time>2015-01-17T10:34:20Z</time>
      </trkpt>
      <trkpt lat="42.411384000" lon="-2.641194000">
        <ele>655.70</ele>
        <time>2015-01-17T10:34:22Z</time>
      </trkpt>
      <trkpt lat="42.411387000" lon="-2.641119000">
        <ele>655.50</ele>
        <time>2015-01-17T10:34:23Z</time>
      </trkpt>
      <trkpt lat="42.411388000" lon="-2.641042000">
        <ele>655.40</ele>
        <time>2015-01-17T10:34:24Z</time>
      </trkpt>
      <trkpt lat="42.411390000" lon="-2.640963000">
        <ele>655.40</ele>
        <time>2015-01-17T10:34:25Z</time>
      </trkpt>
      <trkpt lat="42.411388000" lon="-2.640886000">
        <ele>654.60</ele>
        <time>2015-01-17T10:34:26Z</time>
      </trkpt>
      <trkpt lat="42.411386000" lon="-2.640806000">
        <ele>654.10</ele>
        <time>2015-01-17T10:34:27Z</time>
      </trkpt>
      <trkpt lat="42.411381000" lon="-2.640729000">
        <ele>653.60</ele>
        <time>2015-01-17T10:34:28Z</time>
      </trkpt>
      <trkpt lat="42.411374000" lon="-2.640649000">
        <ele>653.30</ele>
        <time>2015-01-17T10:34:29Z</time>
      </trkpt>
      <trkpt lat="42.411366000" lon="-2.640563000">
        <ele>653.10</ele>
        <time>2015-01-17T10:34:30Z</time>
      </trkpt>
      <trkpt lat="42.411360000" lon="-2.640474000">
        <ele>652.90</ele>
        <time>2015-01-17T10:34:31Z</time>
      </trkpt>
      <trkpt lat="42.411357000" lon="-2.640384000">
        <ele>652.40</ele>
        <time>2015-01-17T10:34:32Z</time>
      </trkpt>
      <trkpt lat="42.411355000" lon="-2.640290000">
        <ele>652.00</ele>
        <time>2015-01-17T10:34:33Z</time>
      </trkpt>
      <trkpt lat="42.411350000" lon="-2.640199000">
        <ele>651.60</ele>
        <time>2015-01-17T10:34:34Z</time>
      </trkpt>
      <trkpt lat="42.411344000" lon="-2.640108000">
        <ele>651.30</ele>
        <time>2015-01-17T10:34:35Z</time>
      </trkpt>
      <trkpt lat="42.411341000" lon="-2.640020000">
        <ele>650.90</ele>
        <time>2015-01-17T10:34:36Z</time>
      </trkpt>
      <trkpt lat="42.411336000" lon="-2.639931000">
        <ele>650.70</ele>
        <time>2015-01-17T10:34:37Z</time>
      </trkpt>
      <trkpt lat="42.411337000" lon="-2.639850000">
        <ele>650.50</ele>
        <time>2015-01-17T10:34:38Z</time>
      </trkpt>
      <trkpt lat="42.411343000" lon="-2.639765000">
        <ele>650.30</ele>
        <time>2015-01-17T10:34:39Z</time>
      </trkpt>
      <trkpt lat="42.411352000" lon="-2.639685000">
        <ele>649.90</ele>
        <time>2015-01-17T10:34:40Z</time>
      </trkpt>
      <trkpt lat="42.411357000" lon="-2.639615000">
        <ele>649.60</ele>
        <time>2015-01-17T10:34:41Z</time>
      </trkpt>
      <trkpt lat="42.411366000" lon="-2.639561000">
        <ele>649.30</ele>
        <time>2015-01-17T10:34:42Z</time>
      </trkpt>
      <trkpt lat="42.411365000" lon="-2.639516000">
        <ele>649.10</ele>
        <time>2015-01-17T10:34:43Z</time>
      </trkpt>
      <trkpt lat="42.411372000" lon="-2.639491000">
        <ele>648.80</ele>
        <time>2015-01-17T10:34:44Z</time>
      </trkpt>
      <trkpt lat="42.411368000" lon="-2.639462000">
        <ele>648.60</ele>
        <time>2015-01-17T10:34:45Z</time>
      </trkpt>
      <trkpt lat="42.411370000" lon="-2.639448000">
        <ele>648.40</ele>
        <time>2015-01-17T10:34:46Z</time>
      </trkpt>
      <trkpt lat="42.411370000" lon="-2.639446000">
        <ele>648.20</ele>
        <time>2015-01-17T10:34:47Z</time>
      </trkpt>
      <trkpt lat="42.411367000" lon="-2.639447000">
        <ele>648.10</ele>
        <time>2015-01-17T10:34:48Z</time>
      </trkpt>
      <trkpt lat="42.411363000" lon="-2.639449000">
        <ele>648.00</ele>
        <time>2015-01-17T10:34:49Z</time>
      </trkpt>
      <trkpt lat="42.411360000" lon="-2.639451000">
        <ele>647.90</ele>
        <time>2015-01-17T10:34:50Z</time>
      </trkpt>
      <trkpt lat="42.411360000" lon="-2.639451000">
        <ele>647.80</ele>
        <time>2015-01-17T10:34:51Z</time>
      </trkpt>
      <trkpt lat="42.411360000" lon="-2.639448000">
        <ele>647.60</ele>
        <time>2015-01-17T10:34:52Z</time>
      </trkpt>
      <trkpt lat="42.411358000" lon="-2.639444000">
        <ele>647.50</ele>
        <time>2015-01-17T10:34:53Z</time>
      </trkpt>
      <trkpt lat="42.411355000" lon="-2.639436000">
        <ele>647.40</ele>
        <time>2015-01-17T10:34:54Z</time>
      </trkpt>
      <trkpt lat="42.411355000" lon="-2.639431000">
        <ele>647.30</ele>
        <time>2015-01-17T10:34:55Z</time>
      </trkpt>
      <trkpt lat="42.411355000" lon="-2.639428000">
        <ele>647.20</ele>
        <time>2015-01-17T10:34:56Z</time>
      </trkpt>
      <trkpt lat="42.411356000" lon="-2.639425000">
        <ele>647.20</ele>
        <time>2015-01-17T10:34:57Z</time>
      </trkpt>
      <trkpt lat="42.411359000" lon="-2.639423000">
        <ele>647.10</ele>
        <time>2015-01-17T10:34:58Z</time>
      </trkpt>
      <trkpt lat="42.411358000" lon="-2.639422000">
        <ele>647.10</ele>
        <time>2015-01-17T10:34:59Z</time>
      </trkpt>
      <trkpt lat="42.411358000" lon="-2.639418000">
        <ele>647.10</ele>
        <time>2015-01-17T10:35:00Z</time>
      </trkpt>
      <trkpt lat="42.411357000" lon="-2.639414000">
        <ele>647.00</ele>
        <time>2015-01-17T10:35:01Z</time>
      </trkpt>
      <trkpt lat="42.411356000" lon="-2.639407000">
        <ele>646.90</ele>
        <time>2015-01-17T10:35:02Z</time>
      </trkpt>
      <trkpt lat="42.411356000" lon="-2.639400000">
        <ele>646.80</ele>
        <time>2015-01-17T10:35:03Z</time>
      </trkpt>
      <trkpt lat="42.411356000" lon="-2.639391000">
        <ele>646.70</ele>
        <time>2015-01-17T10:35:04Z</time>
      </trkpt>
      <trkpt lat="42.411355000" lon="-2.639384000">
        <ele>646.60</ele>
        <time>2015-01-17T10:35:05Z</time>
      </trkpt>
      <trkpt lat="42.411351000" lon="-2.639381000">
        <ele>646.60</ele>
        <time>2015-01-17T10:35:06Z</time>
      </trkpt>
      <trkpt lat="42.411350000" lon="-2.639379000">
        <ele>646.60</ele>
        <time>2015-01-17T10:35:07Z</time>
      </trkpt>
      <trkpt lat="42.411351000" lon="-2.639375000">
        <ele>646.60</ele>
        <time>2015-01-17T10:35:08Z</time>
      </trkpt>
      <trkpt lat="42.411351000" lon="-2.639372000">
        <ele>646.60</ele>
        <time>2015-01-17T10:35:09Z</time>
      </trkpt>
      <trkpt lat="42.411353000" lon="-2.639371000">
        <ele>646.50</ele>
        <time>2015-01-17T10:35:10Z</time>
      </trkpt>
      <trkpt lat="42.411352000" lon="-2.639372000">
        <ele>646.40</ele>
        <time>2015-01-17T10:35:11Z</time>
      </trkpt>
      <trkpt lat="42.411352000" lon="-2.639369000">
        <ele>646.30</ele>
        <time>2015-01-17T10:35:12Z</time>
      </trkpt>
      <trkpt lat="42.411353000" lon="-2.639369000">
        <ele>646.20</ele>
        <time>2015-01-17T10:35:13Z</time>
      </trkpt>
      <trkpt lat="42.411352000" lon="-2.639369000">
        <ele>646.10</ele>
        <time>2015-01-17T10:35:14Z</time>
      </trkpt>
      <trkpt lat="42.411351000" lon="-2.639370000">
        <ele>646.10</ele>
        <time>2015-01-17T10:35:15Z</time>
      </trkpt>
      <trkpt lat="42.411349000" lon="-2.639370000">
        <ele>646.20</ele>
        <time>2015-01-17T10:35:16Z</time>
      </trkpt>
      <trkpt lat="42.411349000" lon="-2.639370000">
        <ele>646.30</ele>
        <time>2015-01-17T10:35:17Z</time>
      </trkpt>
      <trkpt lat="42.411349000" lon="-2.639370000">
        <ele>646.30</ele>
        <time>2015-01-17T10:35:18Z</time>
      </trkpt>
      <trkpt lat="42.411348000" lon="-2.639370000">
        <ele>646.40</ele>
        <time>2015-01-17T10:35:19Z</time>
      </trkpt>
      <trkpt lat="42.411349000" lon="-2.639370000">
        <ele>646.40</ele>
        <time>2015-01-17T10:35:20Z</time>
      </trkpt>
      <trkpt lat="42.411349000" lon="-2.639369000">
        <ele>646.40</ele>
        <time>2015-01-17T10:35:21Z</time>
      </trkpt>
      <trkpt lat="42.411349000" lon="-2.639370000">
        <ele>646.40</ele>
        <time>2015-01-17T10:35:22Z</time>
      </trkpt>
      <trkpt lat="42.411350000" lon="-2.639370000">
        <ele>646.50</ele>
        <time>2015-01-17T10:35:24Z</time>
      </trkpt>
      <trkpt lat="42.411351000" lon="-2.639371000">
        <ele>646.50</ele>
        <time>2015-01-17T10:35:25Z</time>
      </trkpt>
      <trkpt lat="42.411353000" lon="-2.639367000">
        <ele>646.60</ele>
        <time>2015-01-17T10:35:26Z</time>
      </trkpt>
      <trkpt lat="42.411352000" lon="-2.639365000">
        <ele>646.70</ele>
        <time>2015-01-17T10:35:27Z</time>
      </trkpt>
      <trkpt lat="42.411353000" lon="-2.639363000">
        <ele>646.60</ele>
        <time>2015-01-17T10:35:28Z</time>
      </trkpt>
      <trkpt lat="42.411353000" lon="-2.639363000">
        <ele>646.60</ele>
        <time>2015-01-17T10:35:29Z</time>
      </trkpt>
      <trkpt lat="42.411353000" lon="-2.639362000">
        <ele>646.70</ele>
        <time>2015-01-17T10:35:30Z</time>
      </trkpt>
      <trkpt lat="42.411352000" lon="-2.639361000">
        <ele>646.70</ele>
        <time>2015-01-17T10:35:31Z</time>
      </trkpt>
      <trkpt lat="42.411352000" lon="-2.639361000">
        <ele>646.80</ele>
        <time>2015-01-17T10:35:32Z</time>
      </trkpt>
      <trkpt lat="42.411352000" lon="-2.639360000">
        <ele>646.80</ele>
        <time>2015-01-17T10:35:33Z</time>
      </trkpt>
      <trkpt lat="42.411352000" lon="-2.639361000">
        <ele>647.00</ele>
        <time>2015-01-17T10:35:34Z</time>
      </trkpt>
      <trkpt lat="42.411351000" lon="-2.639361000">
        <ele>647.20</ele>
        <time>2015-01-17T10:35:35Z</time>
      </trkpt>
      <trkpt lat="42.411352000" lon="-2.639359000">
        <ele>647.10</ele>
        <time>2015-01-17T10:35:36Z</time>
      </trkpt>
      <trkpt lat="42.411353000" lon="-2.639359000">
        <ele>647.00</ele>
        <time>2015-01-17T10:35:37Z</time>
      </trkpt>
      <trkpt lat="42.411354000" lon="-2.639358000">
        <ele>646.90</ele>
        <time>2015-01-17T10:35:38Z</time>
      </trkpt>
      <trkpt lat="42.411352000" lon="-2.639359000">
        <ele>646.80</ele>
        <time>2015-01-17T10:35:39Z</time>
      </trkpt>
      <trkpt lat="42.411352000" lon="-2.639361000">
        <ele>646.80</ele>
        <time>2015-01-17T10:35:40Z</time>
      </trkpt>
      <trkpt lat="42.411351000" lon="-2.639362000">
        <ele>646.70</ele>
        <time>2015-01-17T10:35:41Z</time>
      </trkpt>
      <trkpt lat="42.411350000" lon="-2.639363000">
        <ele>646.60</ele>
        <time>2015-01-17T10:35:42Z</time>
      </trkpt>
      <trkpt lat="42.411349000" lon="-2.639364000">
        <ele>646.60</ele>
        <time>2015-01-17T10:35:43Z</time>
      </trkpt>
      <trkpt lat="42.411348000" lon="-2.639364000">
        <ele>646.50</ele>
        <time>2015-01-17T10:35:44Z</time>
      </trkpt>
      <trkpt lat="42.411348000" lon="-2.639365000">
        <ele>646.50</ele>
        <time>2015-01-17T10:35:45Z</time>
      </trkpt>
      <trkpt lat="42.411349000" lon="-2.639366000">
        <ele>646.50</ele>
        <time>2015-01-17T10:35:46Z</time>
      </trkpt>
      <trkpt lat="42.411349000" lon="-2.639367000">
        <ele>646.50</ele>
        <time>2015-01-17T10:35:47Z</time>
      </trkpt>
      <trkpt lat="42.411349000" lon="-2.639367000">
        <ele>646.40</ele>
        <time>2015-01-17T10:35:48Z</time>
      </trkpt>
      <trkpt lat="42.411349000" lon="-2.639367000">
        <ele>646.40</ele>
        <time>2015-01-17T10:35:49Z</time>
      </trkpt>
      <trkpt lat="42.411349000" lon="-2.639366000">
        <ele>646.40</ele>
        <time>2015-01-17T10:35:50Z</time>
      </trkpt>
      <trkpt lat="42.411350000" lon="-2.639367000">
        <ele>646.40</ele>
        <time>2015-01-17T10:35:51Z</time>
      </trkpt>
      <trkpt lat="42.411351000" lon="-2.639366000">
        <ele>646.40</ele>
        <time>2015-01-17T10:35:52Z</time>
      </trkpt>
      <trkpt lat="42.411351000" lon="-2.639366000">
        <ele>646.40</ele>
        <time>2015-01-17T10:35:53Z</time>
      </trkpt>
      <trkpt lat="42.411353000" lon="-2.639366000">
        <ele>646.30</ele>
        <time>2015-01-17T10:35:54Z</time>
      </trkpt>
      <trkpt lat="42.411354000" lon="-2.639365000">
        <ele>646.30</ele>
        <time>2015-01-17T10:35:55Z</time>
      </trkpt>
      <trkpt lat="42.411354000" lon="-2.639365000">
        <ele>646.30</ele>
        <time>2015-01-17T10:35:56Z</time>
      </trkpt>
      <trkpt lat="42.411354000" lon="-2.639365000">
        <ele>646.30</ele>
        <time>2015-01-17T10:35:57Z</time>
      </trkpt>
      <trkpt lat="42.411354000" lon="-2.639366000">
        <ele>646.30</ele>
        <time>2015-01-17T10:35:58Z</time>
      </trkpt>
      <trkpt lat="42.411354000" lon="-2.639367000">
        <ele>646.30</ele>
        <time>2015-01-17T10:35:59Z</time>
      </trkpt>
      <trkpt lat="42.411353000" lon="-2.639368000">
        <ele>646.30</ele>
        <time>2015-01-17T10:36:00Z</time>
      </trkpt>
      <trkpt lat="42.411352000" lon="-2.639368000">
        <ele>646.30</ele>
        <time>2015-01-17T10:36:01Z</time>
      </trkpt>
      <trkpt lat="42.411352000" lon="-2.639369000">
        <ele>646.50</ele>
        <time>2015-01-17T10:36:02Z</time>
      </trkpt>
      <trkpt lat="42.411352000" lon="-2.639369000">
        <ele>646.60</ele>
        <time>2015-01-17T10:36:03Z</time>
      </trkpt>
      <trkpt lat="42.411353000" lon="-2.639370000">
        <ele>646.60</ele>
        <time>2015-01-17T10:36:04Z</time>
      </trkpt>
      <trkpt lat="42.411353000" lon="-2.639371000">
        <ele>646.70</ele>
        <time>2015-01-17T10:36:05Z</time>
      </trkpt>
      <trkpt lat="42.411352000" lon="-2.639372000">
        <ele>646.80</ele>
        <time>2015-01-17T10:36:06Z</time>
      </trkpt>
      <trkpt lat="42.411352000" lon="-2.639371000">
        <ele>646.80</ele>
        <time>2015-01-17T10:36:07Z</time>
      </trkpt>
      <trkpt lat="42.411353000" lon="-2.639370000">
        <ele>646.80</ele>
        <time>2015-01-17T10:36:08Z</time>
      </trkpt>
      <trkpt lat="42.411353000" lon="-2.639369000">
        <ele>646.80</ele>
        <time>2015-01-17T10:36:09Z</time>
      </trkpt>
      <trkpt lat="42.411353000" lon="-2.639368000">
        <ele>646.70</ele>
        <time>2015-01-17T10:36:10Z</time>
      </trkpt>
      <trkpt lat="42.411353000" lon="-2.639365000">
        <ele>646.50</ele>
        <time>2015-01-17T10:36:11Z</time>
      </trkpt>
      <trkpt lat="42.411354000" lon="-2.639365000">
        <ele>646.40</ele>
        <time>2015-01-17T10:36:12Z</time>
      </trkpt>
      <trkpt lat="42.411354000" lon="-2.639364000">
        <ele>646.40</ele>
        <time>2015-01-17T10:36:13Z</time>
      </trkpt>
      <trkpt lat="42.411354000" lon="-2.639363000">
        <ele>646.20</ele>
        <time>2015-01-17T10:36:14Z</time>
      </trkpt>
      <trkpt lat="42.411355000" lon="-2.639364000">
        <ele>646.00</ele>
        <time>2015-01-17T10:36:15Z</time>
      </trkpt>
      <trkpt lat="42.411355000" lon="-2.639365000">
        <ele>645.90</ele>
        <time>2015-01-17T10:36:16Z</time>
      </trkpt>
      <trkpt lat="42.411355000" lon="-2.639366000">
        <ele>645.80</ele>
        <time>2015-01-17T10:36:17Z</time>
      </trkpt>
      <trkpt lat="42.411355000" lon="-2.639366000">
        <ele>645.90</ele>
        <time>2015-01-17T10:36:18Z</time>
      </trkpt>
      <trkpt lat="42.411357000" lon="-2.639353000">
        <ele>645.90</ele>
        <time>2015-01-17T10:36:19Z</time>
      </trkpt>
      <trkpt lat="42.411359000" lon="-2.639340000">
        <ele>645.90</ele>
        <time>2015-01-17T10:36:20Z</time>
      </trkpt>
      <trkpt lat="42.411361000" lon="-2.639325000">
        <ele>646.00</ele>
        <time>2015-01-17T10:36:21Z</time>
      </trkpt>
      <trkpt lat="42.411365000" lon="-2.639303000">
        <ele>646.00</ele>
        <time>2015-01-17T10:36:22Z</time>
      </trkpt>
      <trkpt lat="42.411368000" lon="-2.639279000">
        <ele>645.90</ele>
        <time>2015-01-17T10:36:23Z</time>
      </trkpt>
      <trkpt lat="42.411367000" lon="-2.639252000">
        <ele>645.90</ele>
        <time>2015-01-17T10:36:24Z</time>
      </trkpt>
      <trkpt lat="42.411375000" lon="-2.639186000">
        <ele>645.60</ele>
        <time>2015-01-17T10:36:26Z</time>
      </trkpt>
      <trkpt lat="42.411380000" lon="-2.639146000">
        <ele>645.50</ele>
        <time>2015-01-17T10:36:27Z</time>
      </trkpt>
      <trkpt lat="42.411382000" lon="-2.639103000">
        <ele>645.40</ele>
        <time>2015-01-17T10:36:28Z</time>
      </trkpt>
      <trkpt lat="42.411385000" lon="-2.639056000">
        <ele>645.30</ele>
        <time>2015-01-17T10:36:29Z</time>
      </trkpt>
      <trkpt lat="42.411389000" lon="-2.639006000">
        <ele>645.10</ele>
        <time>2015-01-17T10:36:30Z</time>
      </trkpt>
      <trkpt lat="42.411394000" lon="-2.638953000">
        <ele>645.00</ele>
        <time>2015-01-17T10:36:31Z</time>
      </trkpt>
      <trkpt lat="42.411402000" lon="-2.638898000">
        <ele>644.90</ele>
        <time>2015-01-17T10:36:32Z</time>
      </trkpt>
      <trkpt lat="42.411409000" lon="-2.638839000">
        <ele>644.80</ele>
        <time>2015-01-17T10:36:33Z</time>
      </trkpt>
      <trkpt lat="42.411420000" lon="-2.638776000">
        <ele>644.70</ele>
        <time>2015-01-17T10:36:34Z</time>
      </trkpt>
      <trkpt lat="42.411437000" lon="-2.638711000">
        <ele>644.60</ele>
        <time>2015-01-17T10:36:35Z</time>
      </trkpt>
      <trkpt lat="42.411455000" lon="-2.638639000">
        <ele>644.40</ele>
        <time>2015-01-17T10:36:36Z</time>
      </trkpt>
      <trkpt lat="42.411472000" lon="-2.638566000">
        <ele>644.30</ele>
        <time>2015-01-17T10:36:37Z</time>
      </trkpt>
      <trkpt lat="42.411486000" lon="-2.638488000">
        <ele>643.90</ele>
        <time>2015-01-17T10:36:38Z</time>
      </trkpt>
      <trkpt lat="42.411496000" lon="-2.638408000">
        <ele>643.60</ele>
        <time>2015-01-17T10:36:39Z</time>
      </trkpt>
      <trkpt lat="42.411503000" lon="-2.638322000">
        <ele>643.40</ele>
        <time>2015-01-17T10:36:40Z</time>
      </trkpt>
      <trkpt lat="42.411509000" lon="-2.638234000">
        <ele>643.20</ele>
        <time>2015-01-17T10:36:41Z</time>
      </trkpt>
      <trkpt lat="42.411511000" lon="-2.638146000">
        <ele>643.40</ele>
        <time>2015-01-17T10:36:42Z</time>
      </trkpt>
      <trkpt lat="42.411503000" lon="-2.638059000">
        <ele>643.50</ele>
        <time>2015-01-17T10:36:43Z</time>
      </trkpt>
      <trkpt lat="42.411491000" lon="-2.637972000">
        <ele>643.50</ele>
        <time>2015-01-17T10:36:44Z</time>
      </trkpt>
      <trkpt lat="42.411474000" lon="-2.637885000">
        <ele>643.60</ele>
        <time>2015-01-17T10:36:45Z</time>
      </trkpt>
      <trkpt lat="42.411461000" lon="-2.637798000">
        <ele>643.40</ele>
        <time>2015-01-17T10:36:46Z</time>
      </trkpt>
      <trkpt lat="42.411455000" lon="-2.637712000">
        <ele>643.20</ele>
        <time>2015-01-17T10:36:47Z</time>
      </trkpt>
      <trkpt lat="42.411451000" lon="-2.637625000">
        <ele>642.60</ele>
        <time>2015-01-17T10:36:48Z</time>
      </trkpt>
      <trkpt lat="42.411450000" lon="-2.637534000">
        <ele>642.20</ele>
        <time>2015-01-17T10:36:49Z</time>
      </trkpt>
      <trkpt lat="42.411451000" lon="-2.637440000">
        <ele>641.70</ele>
        <time>2015-01-17T10:36:50Z</time>
      </trkpt>
      <trkpt lat="42.411457000" lon="-2.637346000">
        <ele>641.40</ele>
        <time>2015-01-17T10:36:51Z</time>
      </trkpt>
      <trkpt lat="42.411466000" lon="-2.637247000">
        <ele>640.90</ele>
        <time>2015-01-17T10:36:52Z</time>
      </trkpt>
      <trkpt lat="42.411480000" lon="-2.637141000">
        <ele>640.50</ele>
        <time>2015-01-17T10:36:53Z</time>
      </trkpt>
      <trkpt lat="42.411499000" lon="-2.637034000">
        <ele>639.40</ele>
        <time>2015-01-17T10:36:54Z</time>
      </trkpt>
      <trkpt lat="42.411514000" lon="-2.636921000">
        <ele>638.60</ele>
        <time>2015-01-17T10:36:55Z</time>
      </trkpt>
      <trkpt lat="42.411525000" lon="-2.636807000">
        <ele>638.00</ele>
        <time>2015-01-17T10:36:56Z</time>
      </trkpt>
      <trkpt lat="42.411525000" lon="-2.636691000">
        <ele>637.50</ele>
        <time>2015-01-17T10:36:57Z</time>
      </trkpt>
      <trkpt lat="42.411519000" lon="-2.636575000">
        <ele>637.10</ele>
        <time>2015-01-17T10:36:58Z</time>
      </trkpt>
      <trkpt lat="42.411512000" lon="-2.636458000">
        <ele>636.80</ele>
        <time>2015-01-17T10:36:59Z</time>
      </trkpt>
      <trkpt lat="42.411501000" lon="-2.636343000">
        <ele>636.50</ele>
        <time>2015-01-17T10:37:00Z</time>
      </trkpt>
      <trkpt lat="42.411490000" lon="-2.636230000">
        <ele>636.30</ele>
        <time>2015-01-17T10:37:01Z</time>
      </trkpt>
      <trkpt lat="42.411479000" lon="-2.636117000">
        <ele>635.70</ele>
        <time>2015-01-17T10:37:02Z</time>
      </trkpt>
      <trkpt lat="42.411467000" lon="-2.636005000">
        <ele>635.20</ele>
        <time>2015-01-17T10:37:03Z</time>
      </trkpt>
      <trkpt lat="42.411455000" lon="-2.635891000">
        <ele>634.70</ele>
        <time>2015-01-17T10:37:04Z</time>
      </trkpt>
      <trkpt lat="42.411447000" lon="-2.635777000">
        <ele>634.40</ele>
        <time>2015-01-17T10:37:05Z</time>
      </trkpt>
      <trkpt lat="42.411434000" lon="-2.635665000">
        <ele>634.20</ele>
        <time>2015-01-17T10:37:06Z</time>
      </trkpt>
      <trkpt lat="42.411425000" lon="-2.635555000">
        <ele>634.10</ele>
        <time>2015-01-17T10:37:07Z</time>
      </trkpt>
      <trkpt lat="42.411419000" lon="-2.635445000">
        <ele>633.90</ele>
        <time>2015-01-17T10:37:08Z</time>
      </trkpt>
      <trkpt lat="42.411414000" lon="-2.635336000">
        <ele>633.80</ele>
        <time>2015-01-17T10:37:09Z</time>
      </trkpt>
      <trkpt lat="42.411408000" lon="-2.635234000">
        <ele>633.40</ele>
        <time>2015-01-17T10:37:10Z</time>
      </trkpt>
      <trkpt lat="42.411402000" lon="-2.635139000">
        <ele>633.10</ele>
        <time>2015-01-17T10:37:11Z</time>
      </trkpt>
      <trkpt lat="42.411397000" lon="-2.635057000">
        <ele>632.90</ele>
        <time>2015-01-17T10:37:12Z</time>
      </trkpt>
      <trkpt lat="42.411391000" lon="-2.634992000">
        <ele>632.70</ele>
        <time>2015-01-17T10:37:13Z</time>
      </trkpt>
      <trkpt lat="42.411384000" lon="-2.634939000">
        <ele>632.80</ele>
        <time>2015-01-17T10:37:14Z</time>
      </trkpt>
      <trkpt lat="42.411376000" lon="-2.634898000">
        <ele>632.90</ele>
        <time>2015-01-17T10:37:15Z</time>
      </trkpt>
      <trkpt lat="42.411369000" lon="-2.634868000">
        <ele>632.90</ele>
        <time>2015-01-17T10:37:16Z</time>
      </trkpt>
      <trkpt lat="42.411363000" lon="-2.634840000">
        <ele>633.00</ele>
        <time>2015-01-17T10:37:17Z</time>
      </trkpt>
      <trkpt lat="42.411358000" lon="-2.634818000">
        <ele>633.00</ele>
        <time>2015-01-17T10:37:18Z</time>
      </trkpt>
      <trkpt lat="42.411353000" lon="-2.634804000">
        <ele>633.00</ele>
        <time>2015-01-17T10:37:19Z</time>
      </trkpt>
      <trkpt lat="42.411349000" lon="-2.634786000">
        <ele>632.60</ele>
        <time>2015-01-17T10:37:20Z</time>
      </trkpt>
      <trkpt lat="42.411344000" lon="-2.634773000">
        <ele>632.40</ele>
        <time>2015-01-17T10:37:21Z</time>
      </trkpt>
      <trkpt lat="42.411344000" lon="-2.634767000">
        <ele>632.20</ele>
        <time>2015-01-17T10:37:22Z</time>
      </trkpt>
      <trkpt lat="42.411346000" lon="-2.634772000">
        <ele>632.00</ele>
        <time>2015-01-17T10:37:23Z</time>
      </trkpt>
      <trkpt lat="42.411344000" lon="-2.634776000">
        <ele>632.00</ele>
        <time>2015-01-17T10:37:24Z</time>
      </trkpt>
      <trkpt lat="42.411343000" lon="-2.634778000">
        <ele>631.90</ele>
        <time>2015-01-17T10:37:25Z</time>
      </trkpt>
      <trkpt lat="42.411342000" lon="-2.634780000">
        <ele>631.90</ele>
        <time>2015-01-17T10:37:26Z</time>
      </trkpt>
      <trkpt lat="42.411340000" lon="-2.634782000">
        <ele>631.90</ele>
        <time>2015-01-17T10:37:28Z</time>
      </trkpt>
      <trkpt lat="42.411339000" lon="-2.634781000">
        <ele>631.90</ele>
        <time>2015-01-17T10:37:29Z</time>
      </trkpt>
      <trkpt lat="42.411339000" lon="-2.634779000">
        <ele>631.90</ele>
        <time>2015-01-17T10:37:30Z</time>
      </trkpt>
      <trkpt lat="42.411340000" lon="-2.634775000">
        <ele>631.90</ele>
        <time>2015-01-17T10:37:31Z</time>
      </trkpt>
      <trkpt lat="42.411340000" lon="-2.634773000">
        <ele>631.90</ele>
        <time>2015-01-17T10:37:32Z</time>
      </trkpt>
      <trkpt lat="42.411339000" lon="-2.634772000">
        <ele>632.00</ele>
        <time>2015-01-17T10:37:33Z</time>
      </trkpt>
      <trkpt lat="42.411338000" lon="-2.634774000">
        <ele>632.10</ele>
        <time>2015-01-17T10:37:34Z</time>
      </trkpt>
      <trkpt lat="42.411338000" lon="-2.634775000">
        <ele>632.20</ele>
        <time>2015-01-17T10:37:35Z</time>
      </trkpt>
      <trkpt lat="42.411339000" lon="-2.634774000">
        <ele>632.30</ele>
        <time>2015-01-17T10:37:36Z</time>
      </trkpt>
      <trkpt lat="42.411339000" lon="-2.634774000">
        <ele>632.40</ele>
        <time>2015-01-17T10:37:37Z</time>
      </trkpt>
      <trkpt lat="42.411340000" lon="-2.634773000">
        <ele>632.50</ele>
        <time>2015-01-17T10:37:38Z</time>
      </trkpt>
      <trkpt lat="42.411340000" lon="-2.634772000">
        <ele>632.70</ele>
        <time>2015-01-17T10:37:39Z</time>
      </trkpt>
      <trkpt lat="42.411341000" lon="-2.634771000">
        <ele>632.80</ele>
        <time>2015-01-17T10:37:40Z</time>
      </trkpt>
      <trkpt lat="42.411341000" lon="-2.634770000">
        <ele>632.90</ele>
        <time>2015-01-17T10:37:41Z</time>
      </trkpt>
      <trkpt lat="42.411342000" lon="-2.634769000">
        <ele>633.10</ele>
        <time>2015-01-17T10:37:42Z</time>
      </trkpt>
      <trkpt lat="42.411343000" lon="-2.634767000">
        <ele>633.20</ele>
        <time>2015-01-17T10:37:43Z</time>
      </trkpt>
      <trkpt lat="42.411343000" lon="-2.634765000">
        <ele>633.20</ele>
        <time>2015-01-17T10:37:44Z</time>
      </trkpt>
      <trkpt lat="42.411344000" lon="-2.634762000">
        <ele>633.30</ele>
        <time>2015-01-17T10:37:45Z</time>
      </trkpt>
      <trkpt lat="42.411344000" lon="-2.634763000">
        <ele>633.40</ele>
        <time>2015-01-17T10:37:46Z</time>
      </trkpt>
      <trkpt lat="42.411344000" lon="-2.634764000">
        <ele>633.40</ele>
        <time>2015-01-17T10:37:47Z</time>
      </trkpt>
      <trkpt lat="42.411346000" lon="-2.634765000">
        <ele>633.40</ele>
        <time>2015-01-17T10:37:48Z</time>
      </trkpt>
      <trkpt lat="42.411345000" lon="-2.634766000">
        <ele>633.40</ele>
        <time>2015-01-17T10:37:49Z</time>
      </trkpt>
      <trkpt lat="42.411345000" lon="-2.634766000">
        <ele>633.40</ele>
        <time>2015-01-17T10:37:50Z</time>
      </trkpt>
      <trkpt lat="42.411345000" lon="-2.634765000">
        <ele>633.50</ele>
        <time>2015-01-17T10:37:51Z</time>
      </trkpt>
      <trkpt lat="42.411343000" lon="-2.634765000">
        <ele>633.50</ele>
        <time>2015-01-17T10:37:52Z</time>
      </trkpt>
      <trkpt lat="42.411343000" lon="-2.634763000">
        <ele>633.60</ele>
        <time>2015-01-17T10:37:53Z</time>
      </trkpt>
      <trkpt lat="42.411343000" lon="-2.634764000">
        <ele>633.60</ele>
        <time>2015-01-17T10:37:54Z</time>
      </trkpt>
      <trkpt lat="42.411345000" lon="-2.634763000">
        <ele>633.70</ele>
        <time>2015-01-17T10:37:55Z</time>
      </trkpt>
      <trkpt lat="42.411346000" lon="-2.634764000">
        <ele>633.60</ele>
        <time>2015-01-17T10:37:56Z</time>
      </trkpt>
      <trkpt lat="42.411347000" lon="-2.634760000">
        <ele>633.60</ele>
        <time>2015-01-17T10:37:57Z</time>
      </trkpt>
      <trkpt lat="42.411350000" lon="-2.634745000">
        <ele>633.60</ele>
        <time>2015-01-17T10:37:58Z</time>
      </trkpt>
      <trkpt lat="42.411354000" lon="-2.634731000">
        <ele>633.50</ele>
        <time>2015-01-17T10:37:59Z</time>
      </trkpt>
      <trkpt lat="42.411358000" lon="-2.634717000">
        <ele>633.50</ele>
        <time>2015-01-17T10:38:00Z</time>
      </trkpt>
      <trkpt lat="42.411369000" lon="-2.634697000">
        <ele>633.40</ele>
        <time>2015-01-17T10:38:01Z</time>
      </trkpt>
      <trkpt lat="42.411371000" lon="-2.634665000">
        <ele>633.40</ele>
        <time>2015-01-17T10:38:02Z</time>
      </trkpt>
      <trkpt lat="42.411381000" lon="-2.634632000">
        <ele>633.30</ele>
        <time>2015-01-17T10:38:03Z</time>
      </trkpt>
      <trkpt lat="42.411384000" lon="-2.634593000">
        <ele>633.00</ele>
        <time>2015-01-17T10:38:04Z</time>
      </trkpt>
      <trkpt lat="42.411389000" lon="-2.634553000">
        <ele>632.80</ele>
        <time>2015-01-17T10:38:05Z</time>
      </trkpt>
      <trkpt lat="42.411400000" lon="-2.634513000">
        <ele>632.60</ele>
        <time>2015-01-17T10:38:06Z</time>
      </trkpt>
      <trkpt lat="42.411415000" lon="-2.634471000">
        <ele>632.50</ele>
        <time>2015-01-17T10:38:07Z</time>
      </trkpt>
      <trkpt lat="42.411434000" lon="-2.634425000">
        <ele>632.40</ele>
        <time>2015-01-17T10:38:08Z</time>
      </trkpt>
      <trkpt lat="42.411457000" lon="-2.634373000">
        <ele>632.30</ele>
        <time>2015-01-17T10:38:09Z</time>
      </trkpt>
      <trkpt lat="42.411478000" lon="-2.634319000">
        <ele>632.30</ele>
        <time>2015-01-17T10:38:10Z</time>
      </trkpt>
      <trkpt lat="42.411502000" lon="-2.634260000">
        <ele>632.20</ele>
        <time>2015-01-17T10:38:11Z</time>
      </trkpt>
      <trkpt lat="42.411522000" lon="-2.634198000">
        <ele>631.90</ele>
        <time>2015-01-17T10:38:12Z</time>
      </trkpt>
      <trkpt lat="42.411540000" lon="-2.634132000">
        <ele>631.70</ele>
        <time>2015-01-17T10:38:13Z</time>
      </trkpt>
      <trkpt lat="42.411558000" lon="-2.634069000">
        <ele>631.70</ele>
        <time>2015-01-17T10:38:14Z</time>
      </trkpt>
      <trkpt lat="42.411575000" lon="-2.634009000">
        <ele>631.60</ele>
        <time>2015-01-17T10:38:15Z</time>
      </trkpt>
      <trkpt lat="42.411588000" lon="-2.633949000">
        <ele>631.60</ele>
        <time>2015-01-17T10:38:16Z</time>
      </trkpt>
      <trkpt lat="42.411597000" lon="-2.633887000">
        <ele>631.60</ele>
        <time>2015-01-17T10:38:17Z</time>
      </trkpt>
      <trkpt lat="42.411599000" lon="-2.633817000">
        <ele>631.80</ele>
        <time>2015-01-17T10:38:18Z</time>
      </trkpt>
      <trkpt lat="42.411598000" lon="-2.633743000">
        <ele>631.90</ele>
        <time>2015-01-17T10:38:19Z</time>
      </trkpt>
      <trkpt lat="42.411596000" lon="-2.633667000">
        <ele>632.00</ele>
        <time>2015-01-17T10:38:20Z</time>
      </trkpt>
      <trkpt lat="42.411592000" lon="-2.633592000">
        <ele>632.10</ele>
        <time>2015-01-17T10:38:21Z</time>
      </trkpt>
      <trkpt lat="42.411589000" lon="-2.633515000">
        <ele>631.80</ele>
        <time>2015-01-17T10:38:22Z</time>
      </trkpt>
      <trkpt lat="42.411585000" lon="-2.633434000">
        <ele>631.70</ele>
        <time>2015-01-17T10:38:23Z</time>
      </trkpt>
      <trkpt lat="42.411583000" lon="-2.633351000">
        <ele>631.40</ele>
        <time>2015-01-17T10:38:24Z</time>
      </trkpt>
      <trkpt lat="42.411580000" lon="-2.633265000">
        <ele>631.20</ele>
        <time>2015-01-17T10:38:25Z</time>
      </trkpt>
      <trkpt lat="42.411577000" lon="-2.633181000">
        <ele>631.00</ele>
        <time>2015-01-17T10:38:26Z</time>
      </trkpt>
      <trkpt lat="42.411572000" lon="-2.633097000">
        <ele>630.90</ele>
        <time>2015-01-17T10:38:27Z</time>
      </trkpt>
      <trkpt lat="42.411566000" lon="-2.633014000">
        <ele>630.70</ele>
        <time>2015-01-17T10:38:28Z</time>
      </trkpt>
      <trkpt lat="42.411558000" lon="-2.632848000">
        <ele>630.50</ele>
        <time>2015-01-17T10:38:30Z</time>
      </trkpt>
      <trkpt lat="42.411553000" lon="-2.632766000">
        <ele>630.40</ele>
        <time>2015-01-17T10:38:31Z</time>
      </trkpt>
      <trkpt lat="42.411550000" lon="-2.632683000">
        <ele>630.10</ele>
        <time>2015-01-17T10:38:32Z</time>
      </trkpt>
      <trkpt lat="42.411547000" lon="-2.632599000">
        <ele>629.80</ele>
        <time>2015-01-17T10:38:33Z</time>
      </trkpt>
      <trkpt lat="42.411546000" lon="-2.632517000">
        <ele>629.60</ele>
        <time>2015-01-17T10:38:34Z</time>
      </trkpt>
      <trkpt lat="42.411544000" lon="-2.632435000">
        <ele>629.50</ele>
        <time>2015-01-17T10:38:35Z</time>
      </trkpt>
      <trkpt lat="42.411547000" lon="-2.632357000">
        <ele>629.30</ele>
        <time>2015-01-17T10:38:36Z</time>
      </trkpt>
      <trkpt lat="42.411549000" lon="-2.632281000">
        <ele>629.30</ele>
        <time>2015-01-17T10:38:37Z</time>
      </trkpt>
      <trkpt lat="42.411543000" lon="-2.632210000">
        <ele>629.10</ele>
        <time>2015-01-17T10:38:38Z</time>
      </trkpt>
      <trkpt lat="42.411539000" lon="-2.632131000">
        <ele>629.00</ele>
        <time>2015-01-17T10:38:39Z</time>
      </trkpt>
      <trkpt lat="42.411538000" lon="-2.632057000">
        <ele>629.00</ele>
        <time>2015-01-17T10:38:40Z</time>
      </trkpt>
      <trkpt lat="42.411536000" lon="-2.631985000">
        <ele>628.90</ele>
        <time>2015-01-17T10:38:41Z</time>
      </trkpt>
      <trkpt lat="42.411538000" lon="-2.631906000">
        <ele>628.80</ele>
        <time>2015-01-17T10:38:42Z</time>
      </trkpt>
      <trkpt lat="42.411536000" lon="-2.631829000">
        <ele>628.70</ele>
        <time>2015-01-17T10:38:43Z</time>
      </trkpt>
      <trkpt lat="42.411536000" lon="-2.631750000">
        <ele>628.70</ele>
        <time>2015-01-17T10:38:44Z</time>
      </trkpt>
      <trkpt lat="42.411540000" lon="-2.631665000">
        <ele>628.60</ele>
        <time>2015-01-17T10:38:45Z</time>
      </trkpt>
      <trkpt lat="42.411546000" lon="-2.631578000">
        <ele>628.60</ele>
        <time>2015-01-17T10:38:46Z</time>
      </trkpt>
      <trkpt lat="42.411550000" lon="-2.631489000">
        <ele>628.60</ele>
        <time>2015-01-17T10:38:47Z</time>
      </trkpt>
      <trkpt lat="42.411552000" lon="-2.631408000">
        <ele>628.40</ele>
        <time>2015-01-17T10:38:48Z</time>
      </trkpt>
      <trkpt lat="42.411556000" lon="-2.631325000">
        <ele>628.20</ele>
        <time>2015-01-17T10:38:49Z</time>
      </trkpt>
      <trkpt lat="42.411558000" lon="-2.631235000">
        <ele>627.90</ele>
        <time>2015-01-17T10:38:50Z</time>
      </trkpt>
      <trkpt lat="42.411567000" lon="-2.631148000">
        <ele>627.70</ele>
        <time>2015-01-17T10:38:51Z</time>
      </trkpt>
      <trkpt lat="42.411576000" lon="-2.631066000">
        <ele>627.70</ele>
        <time>2015-01-17T10:38:52Z</time>
      </trkpt>
      <trkpt lat="42.411579000" lon="-2.630987000">
        <ele>627.70</ele>
        <time>2015-01-17T10:38:53Z</time>
      </trkpt>
      <trkpt lat="42.411584000" lon="-2.630907000">
        <ele>627.90</ele>
        <time>2015-01-17T10:38:54Z</time>
      </trkpt>
      <trkpt lat="42.411586000" lon="-2.630827000">
        <ele>627.90</ele>
        <time>2015-01-17T10:38:55Z</time>
      </trkpt>
      <trkpt lat="42.411588000" lon="-2.630747000">
        <ele>628.10</ele>
        <time>2015-01-17T10:38:56Z</time>
      </trkpt>
      <trkpt lat="42.411586000" lon="-2.630663000">
        <ele>628.20</ele>
        <time>2015-01-17T10:38:57Z</time>
      </trkpt>
      <trkpt lat="42.411586000" lon="-2.630576000">
        <ele>628.30</ele>
        <time>2015-01-17T10:38:58Z</time>
      </trkpt>
      <trkpt lat="42.411585000" lon="-2.630485000">
        <ele>628.30</ele>
        <time>2015-01-17T10:38:59Z</time>
      </trkpt>
      <trkpt lat="42.411585000" lon="-2.630389000">
        <ele>628.00</ele>
        <time>2015-01-17T10:39:00Z</time>
      </trkpt>
      <trkpt lat="42.411587000" lon="-2.630289000">
        <ele>627.70</ele>
        <time>2015-01-17T10:39:01Z</time>
      </trkpt>
      <trkpt lat="42.411590000" lon="-2.630188000">
        <ele>627.40</ele>
        <time>2015-01-17T10:39:02Z</time>
      </trkpt>
      <trkpt lat="42.411595000" lon="-2.630085000">
        <ele>627.20</ele>
        <time>2015-01-17T10:39:03Z</time>
      </trkpt>
      <trkpt lat="42.411598000" lon="-2.629981000">
        <ele>627.20</ele>
        <time>2015-01-17T10:39:04Z</time>
      </trkpt>
      <trkpt lat="42.411605000" lon="-2.629876000">
        <ele>627.10</ele>
        <time>2015-01-17T10:39:05Z</time>
      </trkpt>
      <trkpt lat="42.411609000" lon="-2.629771000">
        <ele>627.00</ele>
        <time>2015-01-17T10:39:06Z</time>
      </trkpt>
      <trkpt lat="42.411613000" lon="-2.629663000">
        <ele>626.90</ele>
        <time>2015-01-17T10:39:07Z</time>
      </trkpt>
      <trkpt lat="42.411617000" lon="-2.629557000">
        <ele>626.00</ele>
        <time>2015-01-17T10:39:08Z</time>
      </trkpt>
      <trkpt lat="42.411614000" lon="-2.629450000">
        <ele>625.40</ele>
        <time>2015-01-17T10:39:09Z</time>
      </trkpt>
      <trkpt lat="42.411607000" lon="-2.629350000">
        <ele>624.90</ele>
        <time>2015-01-17T10:39:10Z</time>
      </trkpt>
      <trkpt lat="42.411601000" lon="-2.629253000">
        <ele>624.50</ele>
        <time>2015-01-17T10:39:11Z</time>
      </trkpt>
      <trkpt lat="42.411602000" lon="-2.629155000">
        <ele>624.30</ele>
        <time>2015-01-17T10:39:12Z</time>
      </trkpt>
      <trkpt lat="42.411611000" lon="-2.629057000">
        <ele>624.10</ele>
        <time>2015-01-17T10:39:13Z</time>
      </trkpt>
      <trkpt lat="42.411623000" lon="-2.628962000">
        <ele>624.00</ele>
        <time>2015-01-17T10:39:14Z</time>
      </trkpt>
      <trkpt lat="42.411636000" lon="-2.628883000">
        <ele>623.90</ele>
        <time>2015-01-17T10:39:15Z</time>
      </trkpt>
      <trkpt lat="42.411645000" lon="-2.628822000">
        <ele>623.80</ele>
        <time>2015-01-17T10:39:16Z</time>
      </trkpt>
      <trkpt lat="42.411653000" lon="-2.628774000">
        <ele>623.70</ele>
        <time>2015-01-17T10:39:17Z</time>
      </trkpt>
      <trkpt lat="42.411666000" lon="-2.628733000">
        <ele>623.40</ele>
        <time>2015-01-17T10:39:18Z</time>
      </trkpt>
      <trkpt lat="42.411675000" lon="-2.628697000">
        <ele>623.10</ele>
        <time>2015-01-17T10:39:19Z</time>
      </trkpt>
      <trkpt lat="42.411683000" lon="-2.628665000">
        <ele>622.90</ele>
        <time>2015-01-17T10:39:20Z</time>
      </trkpt>
      <trkpt lat="42.411687000" lon="-2.628637000">
        <ele>622.70</ele>
        <time>2015-01-17T10:39:21Z</time>
      </trkpt>
      <trkpt lat="42.411691000" lon="-2.628614000">
        <ele>622.30</ele>
        <time>2015-01-17T10:39:22Z</time>
      </trkpt>
      <trkpt lat="42.411693000" lon="-2.628589000">
        <ele>622.10</ele>
        <time>2015-01-17T10:39:23Z</time>
      </trkpt>
      <trkpt lat="42.411696000" lon="-2.628568000">
        <ele>621.90</ele>
        <time>2015-01-17T10:39:24Z</time>
      </trkpt>
      <trkpt lat="42.411701000" lon="-2.628541000">
        <ele>621.80</ele>
        <time>2015-01-17T10:39:25Z</time>
      </trkpt>
      <trkpt lat="42.411703000" lon="-2.628514000">
        <ele>621.70</ele>
        <time>2015-01-17T10:39:26Z</time>
      </trkpt>
      <trkpt lat="42.411707000" lon="-2.628486000">
        <ele>621.60</ele>
        <time>2015-01-17T10:39:27Z</time>
      </trkpt>
      <trkpt lat="42.411716000" lon="-2.628457000">
        <ele>621.40</ele>
        <time>2015-01-17T10:39:28Z</time>
      </trkpt>
      <trkpt lat="42.411730000" lon="-2.628430000">
        <ele>621.20</ele>
        <time>2015-01-17T10:39:29Z</time>
      </trkpt>
      <trkpt lat="42.411742000" lon="-2.628394000">
        <ele>621.00</ele>
        <time>2015-01-17T10:39:30Z</time>
      </trkpt>
      <trkpt lat="42.411749000" lon="-2.628324000">
        <ele>620.80</ele>
        <time>2015-01-17T10:39:32Z</time>
      </trkpt>
      <trkpt lat="42.411745000" lon="-2.628291000">
        <ele>620.80</ele>
        <time>2015-01-17T10:39:33Z</time>
      </trkpt>
      <trkpt lat="42.411742000" lon="-2.628258000">
        <ele>620.70</ele>
        <time>2015-01-17T10:39:34Z</time>
      </trkpt>
      <trkpt lat="42.411744000" lon="-2.628226000">
        <ele>620.70</ele>
        <time>2015-01-17T10:39:35Z</time>
      </trkpt>
      <trkpt lat="42.411749000" lon="-2.628192000">
        <ele>620.80</ele>
        <time>2015-01-17T10:39:36Z</time>
      </trkpt>
      <trkpt lat="42.411756000" lon="-2.628164000">
        <ele>620.90</ele>
        <time>2015-01-17T10:39:37Z</time>
      </trkpt>
      <trkpt lat="42.411763000" lon="-2.628140000">
        <ele>620.90</ele>
        <time>2015-01-17T10:39:38Z</time>
      </trkpt>
      <trkpt lat="42.411766000" lon="-2.628124000">
        <ele>621.00</ele>
        <time>2015-01-17T10:39:39Z</time>
      </trkpt>
      <trkpt lat="42.411772000" lon="-2.628104000">
        <ele>621.10</ele>
        <time>2015-01-17T10:39:40Z</time>
      </trkpt>
      <trkpt lat="42.411779000" lon="-2.628079000">
        <ele>621.20</ele>
        <time>2015-01-17T10:39:41Z</time>
      </trkpt>
      <trkpt lat="42.411782000" lon="-2.628052000">
        <ele>621.40</ele>
        <time>2015-01-17T10:39:42Z</time>
      </trkpt>
      <trkpt lat="42.411784000" lon="-2.628021000">
        <ele>621.60</ele>
        <time>2015-01-17T10:39:43Z</time>
      </trkpt>
      <trkpt lat="42.411786000" lon="-2.627991000">
        <ele>621.90</ele>
        <time>2015-01-17T10:39:44Z</time>
      </trkpt>
      <trkpt lat="42.411788000" lon="-2.627961000">
        <ele>622.20</ele>
        <time>2015-01-17T10:39:45Z</time>
      </trkpt>
      <trkpt lat="42.411791000" lon="-2.627924000">
        <ele>622.30</ele>
        <time>2015-01-17T10:39:46Z</time>
      </trkpt>
      <trkpt lat="42.411792000" lon="-2.627883000">
        <ele>622.30</ele>
        <time>2015-01-17T10:39:47Z</time>
      </trkpt>
      <trkpt lat="42.411789000" lon="-2.627824000">
        <ele>622.30</ele>
        <time>2015-01-17T10:39:48Z</time>
      </trkpt>
      <trkpt lat="42.411783000" lon="-2.627754000">
        <ele>622.40</ele>
        <time>2015-01-17T10:39:49Z</time>
      </trkpt>
      <trkpt lat="42.411776000" lon="-2.627670000">
        <ele>622.30</ele>
        <time>2015-01-17T10:39:50Z</time>
      </trkpt>
      <trkpt lat="42.411773000" lon="-2.627581000">
        <ele>622.20</ele>
        <time>2015-01-17T10:39:51Z</time>
      </trkpt>
      <trkpt lat="42.411776000" lon="-2.627489000">
        <ele>622.00</ele>
        <time>2015-01-17T10:39:52Z</time>
      </trkpt>
      <trkpt lat="42.411778000" lon="-2.627395000">
        <ele>621.90</ele>
        <time>2015-01-17T10:39:53Z</time>
      </trkpt>
      <trkpt lat="42.411782000" lon="-2.627302000">
        <ele>621.40</ele>
        <time>2015-01-17T10:39:54Z</time>
      </trkpt>
      <trkpt lat="42.411786000" lon="-2.627210000">
        <ele>621.00</ele>
        <time>2015-01-17T10:39:55Z</time>
      </trkpt>
      <trkpt lat="42.411790000" lon="-2.627123000">
        <ele>620.70</ele>
        <time>2015-01-17T10:39:56Z</time>
      </trkpt>
      <trkpt lat="42.411796000" lon="-2.627037000">
        <ele>620.40</ele>
        <time>2015-01-17T10:39:57Z</time>
      </trkpt>
      <trkpt lat="42.411799000" lon="-2.626951000">
        <ele>620.30</ele>
        <time>2015-01-17T10:39:58Z</time>
      </trkpt>
      <trkpt lat="42.411802000" lon="-2.626869000">
        <ele>620.20</ele>
        <time>2015-01-17T10:39:59Z</time>
      </trkpt>
      <trkpt lat="42.411808000" lon="-2.626789000">
        <ele>619.90</ele>
        <time>2015-01-17T10:40:00Z</time>
      </trkpt>
      <trkpt lat="42.411814000" lon="-2.626709000">
        <ele>619.70</ele>
        <time>2015-01-17T10:40:01Z</time>
      </trkpt>
      <trkpt lat="42.411819000" lon="-2.626632000">
        <ele>619.60</ele>
        <time>2015-01-17T10:40:02Z</time>
      </trkpt>
      <trkpt lat="42.411825000" lon="-2.626557000">
        <ele>619.40</ele>
        <time>2015-01-17T10:40:03Z</time>
      </trkpt>
      <trkpt lat="42.411828000" lon="-2.626479000">
        <ele>619.40</ele>
        <time>2015-01-17T10:40:04Z</time>
      </trkpt>
      <trkpt lat="42.411834000" lon="-2.626403000">
        <ele>619.30</ele>
        <time>2015-01-17T10:40:05Z</time>
      </trkpt>
      <trkpt lat="42.411840000" lon="-2.626325000">
        <ele>619.20</ele>
        <time>2015-01-17T10:40:06Z</time>
      </trkpt>
      <trkpt lat="42.411846000" lon="-2.626247000">
        <ele>619.10</ele>
        <time>2015-01-17T10:40:07Z</time>
      </trkpt>
      <trkpt lat="42.411853000" lon="-2.626168000">
        <ele>618.80</ele>
        <time>2015-01-17T10:40:08Z</time>
      </trkpt>
      <trkpt lat="42.411859000" lon="-2.626089000">
        <ele>618.60</ele>
        <time>2015-01-17T10:40:09Z</time>
      </trkpt>
      <trkpt lat="42.411864000" lon="-2.626010000">
        <ele>618.50</ele>
        <time>2015-01-17T10:40:10Z</time>
      </trkpt>
      <trkpt lat="42.411869000" lon="-2.625929000">
        <ele>618.40</ele>
        <time>2015-01-17T10:40:11Z</time>
      </trkpt>
      <trkpt lat="42.411875000" lon="-2.625849000">
        <ele>618.30</ele>
        <time>2015-01-17T10:40:12Z</time>
      </trkpt>
      <trkpt lat="42.411879000" lon="-2.625768000">
        <ele>618.20</ele>
        <time>2015-01-17T10:40:13Z</time>
      </trkpt>
      <trkpt lat="42.411882000" lon="-2.625691000">
        <ele>618.10</ele>
        <time>2015-01-17T10:40:14Z</time>
      </trkpt>
      <trkpt lat="42.411887000" lon="-2.625611000">
        <ele>618.00</ele>
        <time>2015-01-17T10:40:15Z</time>
      </trkpt>
      <trkpt lat="42.411890000" lon="-2.625534000">
        <ele>617.70</ele>
        <time>2015-01-17T10:40:16Z</time>
      </trkpt>
      <trkpt lat="42.411893000" lon="-2.625457000">
        <ele>617.50</ele>
        <time>2015-01-17T10:40:17Z</time>
      </trkpt>
      <trkpt lat="42.411899000" lon="-2.625381000">
        <ele>617.30</ele>
        <time>2015-01-17T10:40:18Z</time>
      </trkpt>
      <trkpt lat="42.411904000" lon="-2.625302000">
        <ele>617.20</ele>
        <time>2015-01-17T10:40:19Z</time>
      </trkpt>
      <trkpt lat="42.411908000" lon="-2.625224000">
        <ele>617.10</ele>
        <time>2015-01-17T10:40:20Z</time>
      </trkpt>
      <trkpt lat="42.411911000" lon="-2.625144000">
        <ele>617.00</ele>
        <time>2015-01-17T10:40:21Z</time>
      </trkpt>
      <trkpt lat="42.411915000" lon="-2.625065000">
        <ele>617.00</ele>
        <time>2015-01-17T10:40:22Z</time>
      </trkpt>
      <trkpt lat="42.411916000" lon="-2.624983000">
        <ele>616.90</ele>
        <time>2015-01-17T10:40:23Z</time>
      </trkpt>
      <trkpt lat="42.411919000" lon="-2.624903000">
        <ele>616.80</ele>
        <time>2015-01-17T10:40:24Z</time>
      </trkpt>
      <trkpt lat="42.411924000" lon="-2.624822000">
        <ele>616.80</ele>
        <time>2015-01-17T10:40:25Z</time>
      </trkpt>
      <trkpt lat="42.411929000" lon="-2.624737000">
        <ele>616.70</ele>
        <time>2015-01-17T10:40:26Z</time>
      </trkpt>
      <trkpt lat="42.411936000" lon="-2.624650000">
        <ele>616.60</ele>
        <time>2015-01-17T10:40:27Z</time>
      </trkpt>
      <trkpt lat="42.411943000" lon="-2.624563000">
        <ele>616.40</ele>
        <time>2015-01-17T10:40:28Z</time>
      </trkpt>
      <trkpt lat="42.411951000" lon="-2.624472000">
        <ele>616.30</ele>
        <time>2015-01-17T10:40:29Z</time>
      </trkpt>
      <trkpt lat="42.411960000" lon="-2.624382000">
        <ele>616.10</ele>
        <time>2015-01-17T10:40:30Z</time>
      </trkpt>
      <trkpt lat="42.411972000" lon="-2.624294000">
        <ele>615.90</ele>
        <time>2015-01-17T10:40:31Z</time>
      </trkpt>
      <trkpt lat="42.411982000" lon="-2.624204000">
        <ele>615.50</ele>
        <time>2015-01-17T10:40:32Z</time>
      </trkpt>
      <trkpt lat="42.411999000" lon="-2.624019000">
        <ele>615.30</ele>
        <time>2015-01-17T10:40:34Z</time>
      </trkpt>
      <trkpt lat="42.412008000" lon="-2.623926000">
        <ele>615.30</ele>
        <time>2015-01-17T10:40:35Z</time>
      </trkpt>
      <trkpt lat="42.412014000" lon="-2.623834000">
        <ele>615.20</ele>
        <time>2015-01-17T10:40:36Z</time>
      </trkpt>
      <trkpt lat="42.412017000" lon="-2.623745000">
        <ele>615.10</ele>
        <time>2015-01-17T10:40:37Z</time>
      </trkpt>
      <trkpt lat="42.412019000" lon="-2.623658000">
        <ele>615.00</ele>
        <time>2015-01-17T10:40:38Z</time>
      </trkpt>
      <trkpt lat="42.412022000" lon="-2.623573000">
        <ele>615.00</ele>
        <time>2015-01-17T10:40:39Z</time>
      </trkpt>
      <trkpt lat="42.412028000" lon="-2.623489000">
        <ele>614.90</ele>
        <time>2015-01-17T10:40:40Z</time>
      </trkpt>
      <trkpt lat="42.412033000" lon="-2.623403000">
        <ele>614.80</ele>
        <time>2015-01-17T10:40:41Z</time>
      </trkpt>
      <trkpt lat="42.412039000" lon="-2.623315000">
        <ele>614.60</ele>
        <time>2015-01-17T10:40:42Z</time>
      </trkpt>
      <trkpt lat="42.412043000" lon="-2.623226000">
        <ele>614.50</ele>
        <time>2015-01-17T10:40:43Z</time>
      </trkpt>
      <trkpt lat="42.412043000" lon="-2.623140000">
        <ele>614.30</ele>
        <time>2015-01-17T10:40:44Z</time>
      </trkpt>
      <trkpt lat="42.412041000" lon="-2.623049000">
        <ele>614.20</ele>
        <time>2015-01-17T10:40:45Z</time>
      </trkpt>
      <trkpt lat="42.412037000" lon="-2.622961000">
        <ele>614.20</ele>
        <time>2015-01-17T10:40:46Z</time>
      </trkpt>
      <trkpt lat="42.412031000" lon="-2.622872000">
        <ele>614.20</ele>
        <time>2015-01-17T10:40:47Z</time>
      </trkpt>
      <trkpt lat="42.412026000" lon="-2.622788000">
        <ele>614.10</ele>
        <time>2015-01-17T10:40:48Z</time>
      </trkpt>
      <trkpt lat="42.412029000" lon="-2.622707000">
        <ele>614.00</ele>
        <time>2015-01-17T10:40:49Z</time>
      </trkpt>
      <trkpt lat="42.412044000" lon="-2.622629000">
        <ele>613.70</ele>
        <time>2015-01-17T10:40:50Z</time>
      </trkpt>
      <trkpt lat="42.412070000" lon="-2.622556000">
        <ele>613.50</ele>
        <time>2015-01-17T10:40:51Z</time>
      </trkpt>
      <trkpt lat="42.412100000" lon="-2.622483000">
        <ele>613.30</ele>
        <time>2015-01-17T10:40:52Z</time>
      </trkpt>
      <trkpt lat="42.412125000" lon="-2.622405000">
        <ele>613.20</ele>
        <time>2015-01-17T10:40:53Z</time>
      </trkpt>
      <trkpt lat="42.412139000" lon="-2.622321000">
        <ele>613.20</ele>
        <time>2015-01-17T10:40:54Z</time>
      </trkpt>
      <trkpt lat="42.412143000" lon="-2.622238000">
        <ele>613.20</ele>
        <time>2015-01-17T10:40:55Z</time>
      </trkpt>
      <trkpt lat="42.412138000" lon="-2.622154000">
        <ele>613.30</ele>
        <time>2015-01-17T10:40:56Z</time>
      </trkpt>
      <trkpt lat="42.412131000" lon="-2.622074000">
        <ele>613.40</ele>
        <time>2015-01-17T10:40:57Z</time>
      </trkpt>
      <trkpt lat="42.412123000" lon="-2.621999000">
        <ele>613.80</ele>
        <time>2015-01-17T10:40:58Z</time>
      </trkpt>
      <trkpt lat="42.412116000" lon="-2.621923000">
        <ele>614.10</ele>
        <time>2015-01-17T10:40:59Z</time>
      </trkpt>
      <trkpt lat="42.412111000" lon="-2.621854000">
        <ele>614.40</ele>
        <time>2015-01-17T10:41:00Z</time>
      </trkpt>
      <trkpt lat="42.412106000" lon="-2.621783000">
        <ele>614.50</ele>
        <time>2015-01-17T10:41:01Z</time>
      </trkpt>
      <trkpt lat="42.412100000" lon="-2.621713000">
        <ele>614.90</ele>
        <time>2015-01-17T10:41:02Z</time>
      </trkpt>
      <trkpt lat="42.412096000" lon="-2.621646000">
        <ele>615.20</ele>
        <time>2015-01-17T10:41:03Z</time>
      </trkpt>
      <trkpt lat="42.412093000" lon="-2.621575000">
        <ele>615.70</ele>
        <time>2015-01-17T10:41:04Z</time>
      </trkpt>
      <trkpt lat="42.412090000" lon="-2.621511000">
        <ele>616.00</ele>
        <time>2015-01-17T10:41:05Z</time>
      </trkpt>
      <trkpt lat="42.412090000" lon="-2.621447000">
        <ele>616.40</ele>
        <time>2015-01-17T10:41:06Z</time>
      </trkpt>
      <trkpt lat="42.412089000" lon="-2.621384000">
        <ele>616.70</ele>
        <time>2015-01-17T10:41:07Z</time>
      </trkpt>
      <trkpt lat="42.412092000" lon="-2.621317000">
        <ele>616.80</ele>
        <time>2015-01-17T10:41:08Z</time>
      </trkpt>
      <trkpt lat="42.412090000" lon="-2.621255000">
        <ele>616.90</ele>
        <time>2015-01-17T10:41:09Z</time>
      </trkpt>
      <trkpt lat="42.412088000" lon="-2.621194000">
        <ele>617.10</ele>
        <time>2015-01-17T10:41:10Z</time>
      </trkpt>
      <trkpt lat="42.412088000" lon="-2.621132000">
        <ele>617.20</ele>
        <time>2015-01-17T10:41:11Z</time>
      </trkpt>
      <trkpt lat="42.412089000" lon="-2.621068000">
        <ele>617.60</ele>
        <time>2015-01-17T10:41:12Z</time>
      </trkpt>
      <trkpt lat="42.412090000" lon="-2.621003000">
        <ele>617.90</ele>
        <time>2015-01-17T10:41:13Z</time>
      </trkpt>
      <trkpt lat="42.412090000" lon="-2.620934000">
        <ele>618.20</ele>
        <time>2015-01-17T10:41:14Z</time>
      </trkpt>
      <trkpt lat="42.412092000" lon="-2.620862000">
        <ele>618.30</ele>
        <time>2015-01-17T10:41:15Z</time>
      </trkpt>
      <trkpt lat="42.412098000" lon="-2.620785000">
        <ele>618.30</ele>
        <time>2015-01-17T10:41:16Z</time>
      </trkpt>
      <trkpt lat="42.412105000" lon="-2.620703000">
        <ele>618.20</ele>
        <time>2015-01-17T10:41:17Z</time>
      </trkpt>
      <trkpt lat="42.412110000" lon="-2.620620000">
        <ele>618.10</ele>
        <time>2015-01-17T10:41:18Z</time>
      </trkpt>
      <trkpt lat="42.412117000" lon="-2.620530000">
        <ele>618.00</ele>
        <time>2015-01-17T10:41:19Z</time>
      </trkpt>
      <trkpt lat="42.412126000" lon="-2.620434000">
        <ele>617.60</ele>
        <time>2015-01-17T10:41:20Z</time>
      </trkpt>
      <trkpt lat="42.412136000" lon="-2.620330000">
        <ele>617.30</ele>
        <time>2015-01-17T10:41:21Z</time>
      </trkpt>
      <trkpt lat="42.412142000" lon="-2.620226000">
        <ele>616.60</ele>
        <time>2015-01-17T10:41:22Z</time>
      </trkpt>
      <trkpt lat="42.412149000" lon="-2.620116000">
        <ele>616.10</ele>
        <time>2015-01-17T10:41:23Z</time>
      </trkpt>
      <trkpt lat="42.412154000" lon="-2.619998000">
        <ele>615.60</ele>
        <time>2015-01-17T10:41:24Z</time>
      </trkpt>
      <trkpt lat="42.412158000" lon="-2.619878000">
        <ele>615.30</ele>
        <time>2015-01-17T10:41:25Z</time>
      </trkpt>
      <trkpt lat="42.412163000" lon="-2.619754000">
        <ele>614.90</ele>
        <time>2015-01-17T10:41:26Z</time>
      </trkpt>
      <trkpt lat="42.412165000" lon="-2.619627000">
        <ele>614.60</ele>
        <time>2015-01-17T10:41:27Z</time>
      </trkpt>
      <trkpt lat="42.412168000" lon="-2.619497000">
        <ele>613.80</ele>
        <time>2015-01-17T10:41:28Z</time>
      </trkpt>
      <trkpt lat="42.412169000" lon="-2.619362000">
        <ele>613.20</ele>
        <time>2015-01-17T10:41:29Z</time>
      </trkpt>
      <trkpt lat="42.412170000" lon="-2.619230000">
        <ele>612.70</ele>
        <time>2015-01-17T10:41:30Z</time>
      </trkpt>
      <trkpt lat="42.412173000" lon="-2.619093000">
        <ele>612.30</ele>
        <time>2015-01-17T10:41:31Z</time>
      </trkpt>
      <trkpt lat="42.412177000" lon="-2.618954000">
        <ele>611.90</ele>
        <time>2015-01-17T10:41:32Z</time>
      </trkpt>
      <trkpt lat="42.412180000" lon="-2.618818000">
        <ele>611.60</ele>
        <time>2015-01-17T10:41:33Z</time>
      </trkpt>
      <trkpt lat="42.412185000" lon="-2.618679000">
        <ele>611.20</ele>
        <time>2015-01-17T10:41:34Z</time>
      </trkpt>
      <trkpt lat="42.412188000" lon="-2.618402000">
        <ele>610.60</ele>
        <time>2015-01-17T10:41:36Z</time>
      </trkpt>
      <trkpt lat="42.412192000" lon="-2.618264000">
        <ele>610.40</ele>
        <time>2015-01-17T10:41:37Z</time>
      </trkpt>
      <trkpt lat="42.412196000" lon="-2.618126000">
        <ele>609.80</ele>
        <time>2015-01-17T10:41:38Z</time>
      </trkpt>
      <trkpt lat="42.412197000" lon="-2.617991000">
        <ele>609.40</ele>
        <time>2015-01-17T10:41:39Z</time>
      </trkpt>
      <trkpt lat="42.412200000" lon="-2.617857000">
        <ele>608.80</ele>
        <time>2015-01-17T10:41:40Z</time>
      </trkpt>
      <trkpt lat="42.412203000" lon="-2.617728000">
        <ele>608.40</ele>
        <time>2015-01-17T10:41:41Z</time>
      </trkpt>
      <trkpt lat="42.412205000" lon="-2.617597000">
        <ele>608.10</ele>
        <time>2015-01-17T10:41:42Z</time>
      </trkpt>
      <trkpt lat="42.412205000" lon="-2.617463000">
        <ele>607.80</ele>
        <time>2015-01-17T10:41:43Z</time>
      </trkpt>
      <trkpt lat="42.412208000" lon="-2.617329000">
        <ele>607.60</ele>
        <time>2015-01-17T10:41:44Z</time>
      </trkpt>
      <trkpt lat="42.412210000" lon="-2.617196000">
        <ele>607.50</ele>
        <time>2015-01-17T10:41:45Z</time>
      </trkpt>
      <trkpt lat="42.412214000" lon="-2.617063000">
        <ele>607.20</ele>
        <time>2015-01-17T10:41:46Z</time>
      </trkpt>
      <trkpt lat="42.412216000" lon="-2.616934000">
        <ele>607.00</ele>
        <time>2015-01-17T10:41:47Z</time>
      </trkpt>
      <trkpt lat="42.412218000" lon="-2.616805000">
        <ele>606.80</ele>
        <time>2015-01-17T10:41:48Z</time>
      </trkpt>
      <trkpt lat="42.412218000" lon="-2.616676000">
        <ele>606.70</ele>
        <time>2015-01-17T10:41:49Z</time>
      </trkpt>
      <trkpt lat="42.412219000" lon="-2.616549000">
        <ele>606.60</ele>
        <time>2015-01-17T10:41:50Z</time>
      </trkpt>
      <trkpt lat="42.412221000" lon="-2.616421000">
        <ele>606.50</ele>
        <time>2015-01-17T10:41:51Z</time>
      </trkpt>
      <trkpt lat="42.412222000" lon="-2.616298000">
        <ele>606.50</ele>
        <time>2015-01-17T10:41:52Z</time>
      </trkpt>
      <trkpt lat="42.412225000" lon="-2.616179000">
        <ele>606.50</ele>
        <time>2015-01-17T10:41:53Z</time>
      </trkpt>
      <trkpt lat="42.412226000" lon="-2.616064000">
        <ele>606.40</ele>
        <time>2015-01-17T10:41:54Z</time>
      </trkpt>
      <trkpt lat="42.412228000" lon="-2.615949000">
        <ele>606.40</ele>
        <time>2015-01-17T10:41:55Z</time>
      </trkpt>
      <trkpt lat="42.412230000" lon="-2.615839000">
        <ele>606.30</ele>
        <time>2015-01-17T10:41:56Z</time>
      </trkpt>
      <trkpt lat="42.412232000" lon="-2.615731000">
        <ele>606.20</ele>
        <time>2015-01-17T10:41:57Z</time>
      </trkpt>
      <trkpt lat="42.412232000" lon="-2.615627000">
        <ele>606.00</ele>
        <time>2015-01-17T10:41:58Z</time>
      </trkpt>
      <trkpt lat="42.412233000" lon="-2.615527000">
        <ele>605.80</ele>
        <time>2015-01-17T10:41:59Z</time>
      </trkpt>
      <trkpt lat="42.412233000" lon="-2.615426000">
        <ele>605.60</ele>
        <time>2015-01-17T10:42:00Z</time>
      </trkpt>
      <trkpt lat="42.412232000" lon="-2.615327000">
        <ele>605.40</ele>
        <time>2015-01-17T10:42:01Z</time>
      </trkpt>
      <trkpt lat="42.412233000" lon="-2.615229000">
        <ele>605.30</ele>
        <time>2015-01-17T10:42:02Z</time>
      </trkpt>
      <trkpt lat="42.412233000" lon="-2.615132000">
        <ele>605.20</ele>
        <time>2015-01-17T10:42:03Z</time>
      </trkpt>
      <trkpt lat="42.412234000" lon="-2.615034000">
        <ele>605.10</ele>
        <time>2015-01-17T10:42:04Z</time>
      </trkpt>
      <trkpt lat="42.412236000" lon="-2.614936000">
        <ele>605.00</ele>
        <time>2015-01-17T10:42:05Z</time>
      </trkpt>
      <trkpt lat="42.412239000" lon="-2.614840000">
        <ele>604.70</ele>
        <time>2015-01-17T10:42:06Z</time>
      </trkpt>
      <trkpt lat="42.412242000" lon="-2.614746000">
        <ele>604.50</ele>
        <time>2015-01-17T10:42:07Z</time>
      </trkpt>
      <trkpt lat="42.412242000" lon="-2.614651000">
        <ele>604.30</ele>
        <time>2015-01-17T10:42:08Z</time>
      </trkpt>
      <trkpt lat="42.412243000" lon="-2.614555000">
        <ele>604.10</ele>
        <time>2015-01-17T10:42:09Z</time>
      </trkpt>
      <trkpt lat="42.412246000" lon="-2.614460000">
        <ele>604.00</ele>
        <time>2015-01-17T10:42:10Z</time>
      </trkpt>
      <trkpt lat="42.412246000" lon="-2.614363000">
        <ele>603.90</ele>
        <time>2015-01-17T10:42:11Z</time>
      </trkpt>
      <trkpt lat="42.412245000" lon="-2.614262000">
        <ele>603.50</ele>
        <time>2015-01-17T10:42:12Z</time>
      </trkpt>
      <trkpt lat="42.412248000" lon="-2.614161000">
        <ele>603.20</ele>
        <time>2015-01-17T10:42:13Z</time>
      </trkpt>
      <trkpt lat="42.412253000" lon="-2.614064000">
        <ele>603.20</ele>
        <time>2015-01-17T10:42:14Z</time>
      </trkpt>
      <trkpt lat="42.412257000" lon="-2.613969000">
        <ele>603.20</ele>
        <time>2015-01-17T10:42:15Z</time>
      </trkpt>
      <trkpt lat="42.412261000" lon="-2.613875000">
        <ele>602.80</ele>
        <time>2015-01-17T10:42:16Z</time>
      </trkpt>
      <trkpt lat="42.412264000" lon="-2.613782000">
        <ele>602.50</ele>
        <time>2015-01-17T10:42:17Z</time>
      </trkpt>
      <trkpt lat="42.412269000" lon="-2.613688000">
        <ele>602.20</ele>
        <time>2015-01-17T10:42:18Z</time>
      </trkpt>
      <trkpt lat="42.412272000" lon="-2.613595000">
        <ele>602.10</ele>
        <time>2015-01-17T10:42:19Z</time>
      </trkpt>
      <trkpt lat="42.412274000" lon="-2.613502000">
        <ele>601.90</ele>
        <time>2015-01-17T10:42:20Z</time>
      </trkpt>
      <trkpt lat="42.412277000" lon="-2.613408000">
        <ele>601.80</ele>
        <time>2015-01-17T10:42:21Z</time>
      </trkpt>
      <trkpt lat="42.412283000" lon="-2.613308000">
        <ele>601.60</ele>
        <time>2015-01-17T10:42:22Z</time>
      </trkpt>
      <trkpt lat="42.412289000" lon="-2.613207000">
        <ele>601.40</ele>
        <time>2015-01-17T10:42:23Z</time>
      </trkpt>
      <trkpt lat="42.412298000" lon="-2.613103000">
        <ele>601.00</ele>
        <time>2015-01-17T10:42:24Z</time>
      </trkpt>
      <trkpt lat="42.412305000" lon="-2.612998000">
        <ele>600.70</ele>
        <time>2015-01-17T10:42:25Z</time>
      </trkpt>
      <trkpt lat="42.412313000" lon="-2.612896000">
        <ele>600.40</ele>
        <time>2015-01-17T10:42:26Z</time>
      </trkpt>
      <trkpt lat="42.412322000" lon="-2.612792000">
        <ele>600.20</ele>
        <time>2015-01-17T10:42:27Z</time>
      </trkpt>
      <trkpt lat="42.412333000" lon="-2.612691000">
        <ele>600.10</ele>
        <time>2015-01-17T10:42:28Z</time>
      </trkpt>
      <trkpt lat="42.412345000" lon="-2.612589000">
        <ele>600.00</ele>
        <time>2015-01-17T10:42:29Z</time>
      </trkpt>
      <trkpt lat="42.412357000" lon="-2.612488000">
        <ele>599.80</ele>
        <time>2015-01-17T10:42:30Z</time>
      </trkpt>
      <trkpt lat="42.412370000" lon="-2.612387000">
        <ele>599.70</ele>
        <time>2015-01-17T10:42:31Z</time>
      </trkpt>
      <trkpt lat="42.412384000" lon="-2.612286000">
        <ele>599.50</ele>
        <time>2015-01-17T10:42:32Z</time>
      </trkpt>
      <trkpt lat="42.412397000" lon="-2.612188000">
        <ele>599.40</ele>
        <time>2015-01-17T10:42:33Z</time>
      </trkpt>
      <trkpt lat="42.412411000" lon="-2.612087000">
        <ele>599.30</ele>
        <time>2015-01-17T10:42:34Z</time>
      </trkpt>
      <trkpt lat="42.412422000" lon="-2.611987000">
        <ele>599.20</ele>
        <time>2015-01-17T10:42:35Z</time>
      </trkpt>
      <trkpt lat="42.412436000" lon="-2.611885000">
        <ele>598.90</ele>
        <time>2015-01-17T10:42:36Z</time>
      </trkpt>
      <trkpt lat="42.412467000" lon="-2.611681000">
        <ele>598.50</ele>
        <time>2015-01-17T10:42:38Z</time>
      </trkpt>
      <trkpt lat="42.412482000" lon="-2.611577000">
        <ele>598.30</ele>
        <time>2015-01-17T10:42:39Z</time>
      </trkpt>
      <trkpt lat="42.412500000" lon="-2.611476000">
        <ele>598.00</ele>
        <time>2015-01-17T10:42:40Z</time>
      </trkpt>
      <trkpt lat="42.412517000" lon="-2.611374000">
        <ele>597.80</ele>
        <time>2015-01-17T10:42:41Z</time>
      </trkpt>
      <trkpt lat="42.412536000" lon="-2.611271000">
        <ele>597.50</ele>
        <time>2015-01-17T10:42:42Z</time>
      </trkpt>
      <trkpt lat="42.412552000" lon="-2.611173000">
        <ele>597.20</ele>
        <time>2015-01-17T10:42:43Z</time>
      </trkpt>
      <trkpt lat="42.412574000" lon="-2.611073000">
        <ele>597.00</ele>
        <time>2015-01-17T10:42:44Z</time>
      </trkpt>
      <trkpt lat="42.412593000" lon="-2.610974000">
        <ele>596.90</ele>
        <time>2015-01-17T10:42:45Z</time>
      </trkpt>
      <trkpt lat="42.412612000" lon="-2.610873000">
        <ele>596.80</ele>
        <time>2015-01-17T10:42:46Z</time>
      </trkpt>
      <trkpt lat="42.412634000" lon="-2.610777000">
        <ele>596.70</ele>
        <time>2015-01-17T10:42:47Z</time>
      </trkpt>
      <trkpt lat="42.412655000" lon="-2.610681000">
        <ele>596.60</ele>
        <time>2015-01-17T10:42:48Z</time>
      </trkpt>
      <trkpt lat="42.412680000" lon="-2.610585000">
        <ele>596.50</ele>
        <time>2015-01-17T10:42:49Z</time>
      </trkpt>
      <trkpt lat="42.412703000" lon="-2.610488000">
        <ele>596.50</ele>
        <time>2015-01-17T10:42:50Z</time>
      </trkpt>
      <trkpt lat="42.412725000" lon="-2.610386000">
        <ele>596.50</ele>
        <time>2015-01-17T10:42:51Z</time>
      </trkpt>
      <trkpt lat="42.412750000" lon="-2.610278000">
        <ele>596.40</ele>
        <time>2015-01-17T10:42:52Z</time>
      </trkpt>
      <trkpt lat="42.412775000" lon="-2.610171000">
        <ele>596.40</ele>
        <time>2015-01-17T10:42:53Z</time>
      </trkpt>
      <trkpt lat="42.412802000" lon="-2.610061000">
        <ele>596.00</ele>
        <time>2015-01-17T10:42:54Z</time>
      </trkpt>
      <trkpt lat="42.412827000" lon="-2.609950000">
        <ele>595.70</ele>
        <time>2015-01-17T10:42:55Z</time>
      </trkpt>
      <trkpt lat="42.412857000" lon="-2.609839000">
        <ele>595.30</ele>
        <time>2015-01-17T10:42:56Z</time>
      </trkpt>
      <trkpt lat="42.412886000" lon="-2.609728000">
        <ele>594.90</ele>
        <time>2015-01-17T10:42:57Z</time>
      </trkpt>
      <trkpt lat="42.412911000" lon="-2.609617000">
        <ele>594.60</ele>
        <time>2015-01-17T10:42:58Z</time>
      </trkpt>
      <trkpt lat="42.412940000" lon="-2.609502000">
        <ele>594.40</ele>
        <time>2015-01-17T10:42:59Z</time>
      </trkpt>
      <trkpt lat="42.412970000" lon="-2.609394000">
        <ele>594.00</ele>
        <time>2015-01-17T10:43:00Z</time>
      </trkpt>
      <trkpt lat="42.413001000" lon="-2.609281000">
        <ele>593.80</ele>
        <time>2015-01-17T10:43:01Z</time>
      </trkpt>
      <trkpt lat="42.413032000" lon="-2.609169000">
        <ele>593.40</ele>
        <time>2015-01-17T10:43:02Z</time>
      </trkpt>
      <trkpt lat="42.413064000" lon="-2.609059000">
        <ele>593.10</ele>
        <time>2015-01-17T10:43:03Z</time>
      </trkpt>
      <trkpt lat="42.413095000" lon="-2.608958000">
        <ele>592.60</ele>
        <time>2015-01-17T10:43:04Z</time>
      </trkpt>
      <trkpt lat="42.413127000" lon="-2.608848000">
        <ele>592.30</ele>
        <time>2015-01-17T10:43:05Z</time>
      </trkpt>
      <trkpt lat="42.413161000" lon="-2.608740000">
        <ele>591.90</ele>
        <time>2015-01-17T10:43:06Z</time>
      </trkpt>
      <trkpt lat="42.413194000" lon="-2.608635000">
        <ele>591.60</ele>
        <time>2015-01-17T10:43:07Z</time>
      </trkpt>
      <trkpt lat="42.413228000" lon="-2.608529000">
        <ele>591.30</ele>
        <time>2015-01-17T10:43:08Z</time>
      </trkpt>
      <trkpt lat="42.413261000" lon="-2.608424000">
        <ele>591.20</ele>
        <time>2015-01-17T10:43:09Z</time>
      </trkpt>
      <trkpt lat="42.413295000" lon="-2.608322000">
        <ele>591.00</ele>
        <time>2015-01-17T10:43:10Z</time>
      </trkpt>
      <trkpt lat="42.413328000" lon="-2.608219000">
        <ele>590.80</ele>
        <time>2015-01-17T10:43:11Z</time>
      </trkpt>
      <trkpt lat="42.413361000" lon="-2.608118000">
        <ele>590.30</ele>
        <time>2015-01-17T10:43:12Z</time>
      </trkpt>
      <trkpt lat="42.413395000" lon="-2.608016000">
        <ele>589.80</ele>
        <time>2015-01-17T10:43:13Z</time>
      </trkpt>
      <trkpt lat="42.413431000" lon="-2.607913000">
        <ele>589.50</ele>
        <time>2015-01-17T10:43:14Z</time>
      </trkpt>
      <trkpt lat="42.413467000" lon="-2.607810000">
        <ele>589.30</ele>
        <time>2015-01-17T10:43:15Z</time>
      </trkpt>
      <trkpt lat="42.413503000" lon="-2.607709000">
        <ele>589.10</ele>
        <time>2015-01-17T10:43:16Z</time>
      </trkpt>
      <trkpt lat="42.413538000" lon="-2.607610000">
        <ele>589.00</ele>
        <time>2015-01-17T10:43:17Z</time>
      </trkpt>
      <trkpt lat="42.413576000" lon="-2.607512000">
        <ele>588.70</ele>
        <time>2015-01-17T10:43:18Z</time>
      </trkpt>
      <trkpt lat="42.413613000" lon="-2.607415000">
        <ele>588.40</ele>
        <time>2015-01-17T10:43:19Z</time>
      </trkpt>
      <trkpt lat="42.413650000" lon="-2.607314000">
        <ele>588.10</ele>
        <time>2015-01-17T10:43:20Z</time>
      </trkpt>
      <trkpt lat="42.413687000" lon="-2.607213000">
        <ele>587.90</ele>
        <time>2015-01-17T10:43:21Z</time>
      </trkpt>
      <trkpt lat="42.413724000" lon="-2.607115000">
        <ele>587.70</ele>
        <time>2015-01-17T10:43:22Z</time>
      </trkpt>
      <trkpt lat="42.413762000" lon="-2.607018000">
        <ele>587.60</ele>
        <time>2015-01-17T10:43:23Z</time>
      </trkpt>
      <trkpt lat="42.413800000" lon="-2.606923000">
        <ele>587.40</ele>
        <time>2015-01-17T10:43:24Z</time>
      </trkpt>
      <trkpt lat="42.413835000" lon="-2.606828000">
        <ele>587.20</ele>
        <time>2015-01-17T10:43:25Z</time>
      </trkpt>
      <trkpt lat="42.413868000" lon="-2.606734000">
        <ele>587.20</ele>
        <time>2015-01-17T10:43:26Z</time>
      </trkpt>
      <trkpt lat="42.413902000" lon="-2.606638000">
        <ele>587.20</ele>
        <time>2015-01-17T10:43:27Z</time>
      </trkpt>
      <trkpt lat="42.413933000" lon="-2.606543000">
        <ele>587.10</ele>
        <time>2015-01-17T10:43:28Z</time>
      </trkpt>
      <trkpt lat="42.413962000" lon="-2.606452000">
        <ele>587.00</ele>
        <time>2015-01-17T10:43:29Z</time>
      </trkpt>
      <trkpt lat="42.413995000" lon="-2.606363000">
        <ele>586.90</ele>
        <time>2015-01-17T10:43:30Z</time>
      </trkpt>
      <trkpt lat="42.414028000" lon="-2.606273000">
        <ele>586.80</ele>
        <time>2015-01-17T10:43:31Z</time>
      </trkpt>
      <trkpt lat="42.414062000" lon="-2.606187000">
        <ele>586.30</ele>
        <time>2015-01-17T10:43:32Z</time>
      </trkpt>
      <trkpt lat="42.414093000" lon="-2.606096000">
        <ele>585.90</ele>
        <time>2015-01-17T10:43:33Z</time>
      </trkpt>
      <trkpt lat="42.414123000" lon="-2.606003000">
        <ele>585.70</ele>
        <time>2015-01-17T10:43:34Z</time>
      </trkpt>
      <trkpt lat="42.414156000" lon="-2.605919000">
        <ele>585.40</ele>
        <time>2015-01-17T10:43:35Z</time>
      </trkpt>
      <trkpt lat="42.414189000" lon="-2.605833000">
        <ele>585.30</ele>
        <time>2015-01-17T10:43:36Z</time>
      </trkpt>
      <trkpt lat="42.414219000" lon="-2.605748000">
        <ele>585.20</ele>
        <time>2015-01-17T10:43:37Z</time>
      </trkpt>
      <trkpt lat="42.414249000" lon="-2.605661000">
        <ele>584.80</ele>
        <time>2015-01-17T10:43:38Z</time>
      </trkpt>
      <trkpt lat="42.414311000" lon="-2.605487000">
        <ele>584.60</ele>
        <time>2015-01-17T10:43:40Z</time>
      </trkpt>
      <trkpt lat="42.414344000" lon="-2.605399000">
        <ele>584.70</ele>
        <time>2015-01-17T10:43:41Z</time>
      </trkpt>
      <trkpt lat="42.414376000" lon="-2.605310000">
        <ele>584.70</ele>
        <time>2015-01-17T10:43:42Z</time>
      </trkpt>
      <trkpt lat="42.414409000" lon="-2.605218000">
        <ele>584.70</ele>
        <time>2015-01-17T10:43:43Z</time>
      </trkpt>
      <trkpt lat="42.414442000" lon="-2.605126000">
        <ele>584.70</ele>
        <time>2015-01-17T10:43:44Z</time>
      </trkpt>
      <trkpt lat="42.414475000" lon="-2.605035000">
        <ele>584.70</ele>
        <time>2015-01-17T10:43:45Z</time>
      </trkpt>
      <trkpt lat="42.414509000" lon="-2.604943000">
        <ele>584.30</ele>
        <time>2015-01-17T10:43:46Z</time>
      </trkpt>
      <trkpt lat="42.414544000" lon="-2.604851000">
        <ele>584.10</ele>
        <time>2015-01-17T10:43:47Z</time>
      </trkpt>
      <trkpt lat="42.414580000" lon="-2.604757000">
        <ele>583.50</ele>
        <time>2015-01-17T10:43:48Z</time>
      </trkpt>
      <trkpt lat="42.414615000" lon="-2.604662000">
        <ele>583.00</ele>
        <time>2015-01-17T10:43:49Z</time>
      </trkpt>
      <trkpt lat="42.414647000" lon="-2.604566000">
        <ele>582.50</ele>
        <time>2015-01-17T10:43:50Z</time>
      </trkpt>
      <trkpt lat="42.414678000" lon="-2.604468000">
        <ele>582.20</ele>
        <time>2015-01-17T10:43:51Z</time>
      </trkpt>
      <trkpt lat="42.414712000" lon="-2.604372000">
        <ele>581.90</ele>
        <time>2015-01-17T10:43:52Z</time>
      </trkpt>
      <trkpt lat="42.414747000" lon="-2.604274000">
        <ele>581.70</ele>
        <time>2015-01-17T10:43:53Z</time>
      </trkpt>
      <trkpt lat="42.414780000" lon="-2.604178000">
        <ele>581.60</ele>
        <time>2015-01-17T10:43:54Z</time>
      </trkpt>
      <trkpt lat="42.414816000" lon="-2.604078000">
        <ele>581.50</ele>
        <time>2015-01-17T10:43:55Z</time>
      </trkpt>
      <trkpt lat="42.414849000" lon="-2.603978000">
        <ele>581.50</ele>
        <time>2015-01-17T10:43:56Z</time>
      </trkpt>
      <trkpt lat="42.414882000" lon="-2.603880000">
        <ele>581.40</ele>
        <time>2015-01-17T10:43:57Z</time>
      </trkpt>
      <trkpt lat="42.414915000" lon="-2.603780000">
        <ele>581.40</ele>
        <time>2015-01-17T10:43:58Z</time>
      </trkpt>
      <trkpt lat="42.414949000" lon="-2.603683000">
        <ele>581.40</ele>
        <time>2015-01-17T10:43:59Z</time>
      </trkpt>
      <trkpt lat="42.414986000" lon="-2.603589000">
        <ele>581.20</ele>
        <time>2015-01-17T10:44:00Z</time>
      </trkpt>
      <trkpt lat="42.415020000" lon="-2.603495000">
        <ele>581.00</ele>
        <time>2015-01-17T10:44:01Z</time>
      </trkpt>
      <trkpt lat="42.415054000" lon="-2.603399000">
        <ele>580.90</ele>
        <time>2015-01-17T10:44:02Z</time>
      </trkpt>
      <trkpt lat="42.415088000" lon="-2.603300000">
        <ele>580.80</ele>
        <time>2015-01-17T10:44:03Z</time>
      </trkpt>
      <trkpt lat="42.415124000" lon="-2.603202000">
        <ele>580.60</ele>
        <time>2015-01-17T10:44:04Z</time>
      </trkpt>
      <trkpt lat="42.415162000" lon="-2.603105000">
        <ele>580.40</ele>
        <time>2015-01-17T10:44:05Z</time>
      </trkpt>
      <trkpt lat="42.415200000" lon="-2.603006000">
        <ele>580.30</ele>
        <time>2015-01-17T10:44:06Z</time>
      </trkpt>
      <trkpt lat="42.415236000" lon="-2.602914000">
        <ele>580.20</ele>
        <time>2015-01-17T10:44:07Z</time>
      </trkpt>
      <trkpt lat="42.415269000" lon="-2.602819000">
        <ele>580.10</ele>
        <time>2015-01-17T10:44:08Z</time>
      </trkpt>
      <trkpt lat="42.415302000" lon="-2.602728000">
        <ele>580.10</ele>
        <time>2015-01-17T10:44:09Z</time>
      </trkpt>
      <trkpt lat="42.415334000" lon="-2.602635000">
        <ele>579.90</ele>
        <time>2015-01-17T10:44:10Z</time>
      </trkpt>
      <trkpt lat="42.415366000" lon="-2.602543000">
        <ele>579.80</ele>
        <time>2015-01-17T10:44:11Z</time>
      </trkpt>
      <trkpt lat="42.415398000" lon="-2.602450000">
        <ele>579.50</ele>
        <time>2015-01-17T10:44:12Z</time>
      </trkpt>
      <trkpt lat="42.415434000" lon="-2.602358000">
        <ele>579.40</ele>
        <time>2015-01-17T10:44:13Z</time>
      </trkpt>
      <trkpt lat="42.415471000" lon="-2.602266000">
        <ele>579.30</ele>
        <time>2015-01-17T10:44:14Z</time>
      </trkpt>
      <trkpt lat="42.415505000" lon="-2.602177000">
        <ele>579.30</ele>
        <time>2015-01-17T10:44:15Z</time>
      </trkpt>
      <trkpt lat="42.415537000" lon="-2.602085000">
        <ele>579.20</ele>
        <time>2015-01-17T10:44:16Z</time>
      </trkpt>
      <trkpt lat="42.415571000" lon="-2.601988000">
        <ele>579.10</ele>
        <time>2015-01-17T10:44:17Z</time>
      </trkpt>
      <trkpt lat="42.415603000" lon="-2.601893000">
        <ele>579.00</ele>
        <time>2015-01-17T10:44:18Z</time>
      </trkpt>
      <trkpt lat="42.415637000" lon="-2.601795000">
        <ele>579.00</ele>
        <time>2015-01-17T10:44:19Z</time>
      </trkpt>
      <trkpt lat="42.415671000" lon="-2.601700000">
        <ele>578.60</ele>
        <time>2015-01-17T10:44:20Z</time>
      </trkpt>
      <trkpt lat="42.415705000" lon="-2.601604000">
        <ele>578.30</ele>
        <time>2015-01-17T10:44:21Z</time>
      </trkpt>
      <trkpt lat="42.415737000" lon="-2.601509000">
        <ele>578.00</ele>
        <time>2015-01-17T10:44:22Z</time>
      </trkpt>
      <trkpt lat="42.415768000" lon="-2.601415000">
        <ele>577.80</ele>
        <time>2015-01-17T10:44:23Z</time>
      </trkpt>
      <trkpt lat="42.415802000" lon="-2.601321000">
        <ele>577.50</ele>
        <time>2015-01-17T10:44:24Z</time>
      </trkpt>
      <trkpt lat="42.415835000" lon="-2.601229000">
        <ele>577.30</ele>
        <time>2015-01-17T10:44:25Z</time>
      </trkpt>
      <trkpt lat="42.415869000" lon="-2.601136000">
        <ele>577.20</ele>
        <time>2015-01-17T10:44:26Z</time>
      </trkpt>
      <trkpt lat="42.415903000" lon="-2.601043000">
        <ele>577.00</ele>
        <time>2015-01-17T10:44:27Z</time>
      </trkpt>
      <trkpt lat="42.415937000" lon="-2.600951000">
        <ele>577.00</ele>
        <time>2015-01-17T10:44:28Z</time>
      </trkpt>
      <trkpt lat="42.415969000" lon="-2.600861000">
        <ele>576.90</ele>
        <time>2015-01-17T10:44:29Z</time>
      </trkpt>
      <trkpt lat="42.416005000" lon="-2.600770000">
        <ele>576.70</ele>
        <time>2015-01-17T10:44:30Z</time>
      </trkpt>
      <trkpt lat="42.416042000" lon="-2.600679000">
        <ele>576.60</ele>
        <time>2015-01-17T10:44:31Z</time>
      </trkpt>
      <trkpt lat="42.416079000" lon="-2.600586000">
        <ele>576.50</ele>
        <time>2015-01-17T10:44:32Z</time>
      </trkpt>
      <trkpt lat="42.416118000" lon="-2.600492000">
        <ele>576.40</ele>
        <time>2015-01-17T10:44:33Z</time>
      </trkpt>
      <trkpt lat="42.416158000" lon="-2.600398000">
        <ele>576.10</ele>
        <time>2015-01-17T10:44:34Z</time>
      </trkpt>
      <trkpt lat="42.416200000" lon="-2.600309000">
        <ele>575.90</ele>
        <time>2015-01-17T10:44:35Z</time>
      </trkpt>
      <trkpt lat="42.416242000" lon="-2.600218000">
        <ele>575.80</ele>
        <time>2015-01-17T10:44:36Z</time>
      </trkpt>
      <trkpt lat="42.416282000" lon="-2.600127000">
        <ele>575.60</ele>
        <time>2015-01-17T10:44:37Z</time>
      </trkpt>
      <trkpt lat="42.416325000" lon="-2.600037000">
        <ele>575.20</ele>
        <time>2015-01-17T10:44:38Z</time>
      </trkpt>
      <trkpt lat="42.416369000" lon="-2.599947000">
        <ele>574.90</ele>
        <time>2015-01-17T10:44:39Z</time>
      </trkpt>
      <trkpt lat="42.416415000" lon="-2.599855000">
        <ele>574.70</ele>
        <time>2015-01-17T10:44:40Z</time>
      </trkpt>
      <trkpt lat="42.416508000" lon="-2.599668000">
        <ele>574.20</ele>
        <time>2015-01-17T10:44:42Z</time>
      </trkpt>
      <trkpt lat="42.416554000" lon="-2.599573000">
        <ele>574.00</ele>
        <time>2015-01-17T10:44:43Z</time>
      </trkpt>
      <trkpt lat="42.416599000" lon="-2.599479000">
        <ele>573.80</ele>
        <time>2015-01-17T10:44:44Z</time>
      </trkpt>
      <trkpt lat="42.416643000" lon="-2.599384000">
        <ele>573.70</ele>
        <time>2015-01-17T10:44:45Z</time>
      </trkpt>
      <trkpt lat="42.416687000" lon="-2.599291000">
        <ele>573.60</ele>
        <time>2015-01-17T10:44:46Z</time>
      </trkpt>
      <trkpt lat="42.416732000" lon="-2.599196000">
        <ele>573.60</ele>
        <time>2015-01-17T10:44:47Z</time>
      </trkpt>
      <trkpt lat="42.416775000" lon="-2.599104000">
        <ele>573.50</ele>
        <time>2015-01-17T10:44:48Z</time>
      </trkpt>
      <trkpt lat="42.416820000" lon="-2.599008000">
        <ele>573.50</ele>
        <time>2015-01-17T10:44:49Z</time>
      </trkpt>
      <trkpt lat="42.416862000" lon="-2.598913000">
        <ele>573.20</ele>
        <time>2015-01-17T10:44:50Z</time>
      </trkpt>
      <trkpt lat="42.416909000" lon="-2.598812000">
        <ele>573.10</ele>
        <time>2015-01-17T10:44:51Z</time>
      </trkpt>
      <trkpt lat="42.416953000" lon="-2.598716000">
        <ele>572.70</ele>
        <time>2015-01-17T10:44:52Z</time>
      </trkpt>
      <trkpt lat="42.416999000" lon="-2.598620000">
        <ele>572.50</ele>
        <time>2015-01-17T10:44:53Z</time>
      </trkpt>
      <trkpt lat="42.417044000" lon="-2.598523000">
        <ele>572.20</ele>
        <time>2015-01-17T10:44:54Z</time>
      </trkpt>
      <trkpt lat="42.417089000" lon="-2.598425000">
        <ele>572.00</ele>
        <time>2015-01-17T10:44:55Z</time>
      </trkpt>
      <trkpt lat="42.417130000" lon="-2.598329000">
        <ele>571.80</ele>
        <time>2015-01-17T10:44:56Z</time>
      </trkpt>
      <trkpt lat="42.417172000" lon="-2.598232000">
        <ele>571.70</ele>
        <time>2015-01-17T10:44:57Z</time>
      </trkpt>
      <trkpt lat="42.417214000" lon="-2.598133000">
        <ele>571.20</ele>
        <time>2015-01-17T10:44:58Z</time>
      </trkpt>
      <trkpt lat="42.417257000" lon="-2.598034000">
        <ele>570.90</ele>
        <time>2015-01-17T10:44:59Z</time>
      </trkpt>
      <trkpt lat="42.417302000" lon="-2.597930000">
        <ele>570.20</ele>
        <time>2015-01-17T10:45:00Z</time>
      </trkpt>
      <trkpt lat="42.417351000" lon="-2.597824000">
        <ele>569.60</ele>
        <time>2015-01-17T10:45:01Z</time>
      </trkpt>
      <trkpt lat="42.417401000" lon="-2.597718000">
        <ele>569.10</ele>
        <time>2015-01-17T10:45:02Z</time>
      </trkpt>
      <trkpt lat="42.417453000" lon="-2.597613000">
        <ele>568.60</ele>
        <time>2015-01-17T10:45:03Z</time>
      </trkpt>
      <trkpt lat="42.417505000" lon="-2.597509000">
        <ele>568.30</ele>
        <time>2015-01-17T10:45:04Z</time>
      </trkpt>
      <trkpt lat="42.417555000" lon="-2.597404000">
        <ele>568.10</ele>
        <time>2015-01-17T10:45:05Z</time>
      </trkpt>
      <trkpt lat="42.417605000" lon="-2.597298000">
        <ele>567.90</ele>
        <time>2015-01-17T10:45:06Z</time>
      </trkpt>
      <trkpt lat="42.417650000" lon="-2.597191000">
        <ele>567.80</ele>
        <time>2015-01-17T10:45:07Z</time>
      </trkpt>
      <trkpt lat="42.417694000" lon="-2.597088000">
        <ele>567.70</ele>
        <time>2015-01-17T10:45:08Z</time>
      </trkpt>
      <trkpt lat="42.417736000" lon="-2.596990000">
        <ele>567.60</ele>
        <time>2015-01-17T10:45:09Z</time>
      </trkpt>
      <trkpt lat="42.417782000" lon="-2.596896000">
        <ele>566.90</ele>
        <time>2015-01-17T10:45:10Z</time>
      </trkpt>
      <trkpt lat="42.417825000" lon="-2.596801000">
        <ele>566.40</ele>
        <time>2015-01-17T10:45:11Z</time>
      </trkpt>
      <trkpt lat="42.417869000" lon="-2.596702000">
        <ele>565.90</ele>
        <time>2015-01-17T10:45:12Z</time>
      </trkpt>
      <trkpt lat="42.417916000" lon="-2.596600000">
        <ele>565.50</ele>
        <time>2015-01-17T10:45:13Z</time>
      </trkpt>
      <trkpt lat="42.417961000" lon="-2.596499000">
        <ele>565.10</ele>
        <time>2015-01-17T10:45:14Z</time>
      </trkpt>
      <trkpt lat="42.418009000" lon="-2.596398000">
        <ele>564.80</ele>
        <time>2015-01-17T10:45:15Z</time>
      </trkpt>
      <trkpt lat="42.418058000" lon="-2.596293000">
        <ele>564.50</ele>
        <time>2015-01-17T10:45:16Z</time>
      </trkpt>
      <trkpt lat="42.418107000" lon="-2.596186000">
        <ele>564.30</ele>
        <time>2015-01-17T10:45:17Z</time>
      </trkpt>
      <trkpt lat="42.418154000" lon="-2.596081000">
        <ele>563.90</ele>
        <time>2015-01-17T10:45:18Z</time>
      </trkpt>
      <trkpt lat="42.418203000" lon="-2.595980000">
        <ele>563.60</ele>
        <time>2015-01-17T10:45:19Z</time>
      </trkpt>
      <trkpt lat="42.418253000" lon="-2.595879000">
        <ele>563.30</ele>
        <time>2015-01-17T10:45:20Z</time>
      </trkpt>
      <trkpt lat="42.418304000" lon="-2.595780000">
        <ele>563.10</ele>
        <time>2015-01-17T10:45:21Z</time>
      </trkpt>
      <trkpt lat="42.418352000" lon="-2.595683000">
        <ele>563.00</ele>
        <time>2015-01-17T10:45:22Z</time>
      </trkpt>
      <trkpt lat="42.418398000" lon="-2.595589000">
        <ele>562.90</ele>
        <time>2015-01-17T10:45:23Z</time>
      </trkpt>
      <trkpt lat="42.418442000" lon="-2.595498000">
        <ele>562.80</ele>
        <time>2015-01-17T10:45:24Z</time>
      </trkpt>
      <trkpt lat="42.418486000" lon="-2.595409000">
        <ele>562.70</ele>
        <time>2015-01-17T10:45:25Z</time>
      </trkpt>
      <trkpt lat="42.418531000" lon="-2.595318000">
        <ele>562.10</ele>
        <time>2015-01-17T10:45:26Z</time>
      </trkpt>
      <trkpt lat="42.418575000" lon="-2.595226000">
        <ele>561.60</ele>
        <time>2015-01-17T10:45:27Z</time>
      </trkpt>
      <trkpt lat="42.418616000" lon="-2.595133000">
        <ele>561.30</ele>
        <time>2015-01-17T10:45:28Z</time>
      </trkpt>
      <trkpt lat="42.418660000" lon="-2.595042000">
        <ele>561.00</ele>
        <time>2015-01-17T10:45:29Z</time>
      </trkpt>
      <trkpt lat="42.418700000" lon="-2.594952000">
        <ele>560.70</ele>
        <time>2015-01-17T10:45:30Z</time>
      </trkpt>
      <trkpt lat="42.418744000" lon="-2.594861000">
        <ele>560.40</ele>
        <time>2015-01-17T10:45:31Z</time>
      </trkpt>
      <trkpt lat="42.418781000" lon="-2.594775000">
        <ele>560.40</ele>
        <time>2015-01-17T10:45:32Z</time>
      </trkpt>
      <trkpt lat="42.418815000" lon="-2.594687000">
        <ele>560.30</ele>
        <time>2015-01-17T10:45:33Z</time>
      </trkpt>
      <trkpt lat="42.418851000" lon="-2.594596000">
        <ele>560.10</ele>
        <time>2015-01-17T10:45:34Z</time>
      </trkpt>
      <trkpt lat="42.418889000" lon="-2.594504000">
        <ele>560.00</ele>
        <time>2015-01-17T10:45:35Z</time>
      </trkpt>
      <trkpt lat="42.418933000" lon="-2.594410000">
        <ele>560.00</ele>
        <time>2015-01-17T10:45:36Z</time>
      </trkpt>
      <trkpt lat="42.418974000" lon="-2.594317000">
        <ele>559.90</ele>
        <time>2015-01-17T10:45:37Z</time>
      </trkpt>
      <trkpt lat="42.419015000" lon="-2.594224000">
        <ele>559.90</ele>
        <time>2015-01-17T10:45:38Z</time>
      </trkpt>
      <trkpt lat="42.419056000" lon="-2.594132000">
        <ele>559.90</ele>
        <time>2015-01-17T10:45:39Z</time>
      </trkpt>
      <trkpt lat="42.419100000" lon="-2.594039000">
        <ele>559.90</ele>
        <time>2015-01-17T10:45:40Z</time>
      </trkpt>
      <trkpt lat="42.419143000" lon="-2.593946000">
        <ele>559.90</ele>
        <time>2015-01-17T10:45:41Z</time>
      </trkpt>
      <trkpt lat="42.419184000" lon="-2.593854000">
        <ele>559.50</ele>
        <time>2015-01-17T10:45:42Z</time>
      </trkpt>
      <trkpt lat="42.419265000" lon="-2.593667000">
        <ele>559.00</ele>
        <time>2015-01-17T10:45:44Z</time>
      </trkpt>
      <trkpt lat="42.419303000" lon="-2.593578000">
        <ele>558.70</ele>
        <time>2015-01-17T10:45:45Z</time>
      </trkpt>
      <trkpt lat="42.419343000" lon="-2.593491000">
        <ele>558.50</ele>
        <time>2015-01-17T10:45:46Z</time>
      </trkpt>
      <trkpt lat="42.419383000" lon="-2.593403000">
        <ele>558.40</ele>
        <time>2015-01-17T10:45:47Z</time>
      </trkpt>
      <trkpt lat="42.419424000" lon="-2.593313000">
        <ele>558.10</ele>
        <time>2015-01-17T10:45:48Z</time>
      </trkpt>
      <trkpt lat="42.419462000" lon="-2.593225000">
        <ele>557.90</ele>
        <time>2015-01-17T10:45:49Z</time>
      </trkpt>
      <trkpt lat="42.419497000" lon="-2.593132000">
        <ele>557.80</ele>
        <time>2015-01-17T10:45:50Z</time>
      </trkpt>
      <trkpt lat="42.419531000" lon="-2.593043000">
        <ele>557.70</ele>
        <time>2015-01-17T10:45:51Z</time>
      </trkpt>
      <trkpt lat="42.419566000" lon="-2.592949000">
        <ele>557.60</ele>
        <time>2015-01-17T10:45:52Z</time>
      </trkpt>
      <trkpt lat="42.419600000" lon="-2.592856000">
        <ele>557.50</ele>
        <time>2015-01-17T10:45:53Z</time>
      </trkpt>
      <trkpt lat="42.419635000" lon="-2.592767000">
        <ele>557.10</ele>
        <time>2015-01-17T10:45:54Z</time>
      </trkpt>
      <trkpt lat="42.419667000" lon="-2.592681000">
        <ele>556.80</ele>
        <time>2015-01-17T10:45:55Z</time>
      </trkpt>
      <trkpt lat="42.419698000" lon="-2.592597000">
        <ele>556.50</ele>
        <time>2015-01-17T10:45:56Z</time>
      </trkpt>
      <trkpt lat="42.419730000" lon="-2.592512000">
        <ele>556.40</ele>
        <time>2015-01-17T10:45:57Z</time>
      </trkpt>
      <trkpt lat="42.419761000" lon="-2.592435000">
        <ele>556.30</ele>
        <time>2015-01-17T10:45:58Z</time>
      </trkpt>
      <trkpt lat="42.419792000" lon="-2.592356000">
        <ele>556.20</ele>
        <time>2015-01-17T10:45:59Z</time>
      </trkpt>
      <trkpt lat="42.419817000" lon="-2.592281000">
        <ele>556.40</ele>
        <time>2015-01-17T10:46:00Z</time>
      </trkpt>
      <trkpt lat="42.419845000" lon="-2.592212000">
        <ele>556.60</ele>
        <time>2015-01-17T10:46:01Z</time>
      </trkpt>
      <trkpt lat="42.419869000" lon="-2.592142000">
        <ele>556.70</ele>
        <time>2015-01-17T10:46:02Z</time>
      </trkpt>
      <trkpt lat="42.419891000" lon="-2.592077000">
        <ele>556.80</ele>
        <time>2015-01-17T10:46:03Z</time>
      </trkpt>
      <trkpt lat="42.419911000" lon="-2.592014000">
        <ele>556.90</ele>
        <time>2015-01-17T10:46:04Z</time>
      </trkpt>
      <trkpt lat="42.419933000" lon="-2.591952000">
        <ele>556.90</ele>
        <time>2015-01-17T10:46:05Z</time>
      </trkpt>
      <trkpt lat="42.419953000" lon="-2.591888000">
        <ele>557.50</ele>
        <time>2015-01-17T10:46:06Z</time>
      </trkpt>
      <trkpt lat="42.419972000" lon="-2.591822000">
        <ele>557.90</ele>
        <time>2015-01-17T10:46:07Z</time>
      </trkpt>
      <trkpt lat="42.419996000" lon="-2.591753000">
        <ele>558.30</ele>
        <time>2015-01-17T10:46:08Z</time>
      </trkpt>
      <trkpt lat="42.420017000" lon="-2.591684000">
        <ele>558.50</ele>
        <time>2015-01-17T10:46:09Z</time>
      </trkpt>
      <trkpt lat="42.420038000" lon="-2.591615000">
        <ele>558.70</ele>
        <time>2015-01-17T10:46:10Z</time>
      </trkpt>
      <trkpt lat="42.420060000" lon="-2.591548000">
        <ele>558.80</ele>
        <time>2015-01-17T10:46:11Z</time>
      </trkpt>
      <trkpt lat="42.420080000" lon="-2.591479000">
        <ele>559.10</ele>
        <time>2015-01-17T10:46:12Z</time>
      </trkpt>
      <trkpt lat="42.420104000" lon="-2.591409000">
        <ele>559.20</ele>
        <time>2015-01-17T10:46:13Z</time>
      </trkpt>
      <trkpt lat="42.420125000" lon="-2.591339000">
        <ele>559.90</ele>
        <time>2015-01-17T10:46:14Z</time>
      </trkpt>
      <trkpt lat="42.420145000" lon="-2.591270000">
        <ele>560.40</ele>
        <time>2015-01-17T10:46:15Z</time>
      </trkpt>
      <trkpt lat="42.420165000" lon="-2.591202000">
        <ele>560.90</ele>
        <time>2015-01-17T10:46:16Z</time>
      </trkpt>
      <trkpt lat="42.420188000" lon="-2.591133000">
        <ele>561.20</ele>
        <time>2015-01-17T10:46:17Z</time>
      </trkpt>
      <trkpt lat="42.420210000" lon="-2.591067000">
        <ele>561.50</ele>
        <time>2015-01-17T10:46:18Z</time>
      </trkpt>
      <trkpt lat="42.420228000" lon="-2.591002000">
        <ele>561.70</ele>
        <time>2015-01-17T10:46:19Z</time>
      </trkpt>
      <trkpt lat="42.420248000" lon="-2.590935000">
        <ele>561.80</ele>
        <time>2015-01-17T10:46:20Z</time>
      </trkpt>
      <trkpt lat="42.420266000" lon="-2.590869000">
        <ele>562.00</ele>
        <time>2015-01-17T10:46:21Z</time>
      </trkpt>
      <trkpt lat="42.420285000" lon="-2.590803000">
        <ele>562.30</ele>
        <time>2015-01-17T10:46:22Z</time>
      </trkpt>
      <trkpt lat="42.420297000" lon="-2.590737000">
        <ele>562.60</ele>
        <time>2015-01-17T10:46:23Z</time>
      </trkpt>
      <trkpt lat="42.420314000" lon="-2.590676000">
        <ele>562.80</ele>
        <time>2015-01-17T10:46:24Z</time>
      </trkpt>
      <trkpt lat="42.420320000" lon="-2.590614000">
        <ele>562.90</ele>
        <time>2015-01-17T10:46:25Z</time>
      </trkpt>
      <trkpt lat="42.420318000" lon="-2.590558000">
        <ele>563.10</ele>
        <time>2015-01-17T10:46:26Z</time>
      </trkpt>
      <trkpt lat="42.420306000" lon="-2.590507000">
        <ele>563.20</ele>
        <time>2015-01-17T10:46:27Z</time>
      </trkpt>
      <trkpt lat="42.420287000" lon="-2.590464000">
        <ele>563.30</ele>
        <time>2015-01-17T10:46:28Z</time>
      </trkpt>
      <trkpt lat="42.420260000" lon="-2.590430000">
        <ele>563.30</ele>
        <time>2015-01-17T10:46:29Z</time>
      </trkpt>
      <trkpt lat="42.420229000" lon="-2.590406000">
        <ele>563.40</ele>
        <time>2015-01-17T10:46:30Z</time>
      </trkpt>
      <trkpt lat="42.420199000" lon="-2.590387000">
        <ele>563.40</ele>
        <time>2015-01-17T10:46:31Z</time>
      </trkpt>
      <trkpt lat="42.420168000" lon="-2.590377000">
        <ele>563.30</ele>
        <time>2015-01-17T10:46:32Z</time>
      </trkpt>
      <trkpt lat="42.420139000" lon="-2.590363000">
        <ele>563.20</ele>
        <time>2015-01-17T10:46:33Z</time>
      </trkpt>
      <trkpt lat="42.420113000" lon="-2.590355000">
        <ele>563.20</ele>
        <time>2015-01-17T10:46:34Z</time>
      </trkpt>
      <trkpt lat="42.420088000" lon="-2.590348000">
        <ele>563.10</ele>
        <time>2015-01-17T10:46:35Z</time>
      </trkpt>
      <trkpt lat="42.420064000" lon="-2.590339000">
        <ele>563.10</ele>
        <time>2015-01-17T10:46:36Z</time>
      </trkpt>
      <trkpt lat="42.420039000" lon="-2.590330000">
        <ele>563.10</ele>
        <time>2015-01-17T10:46:37Z</time>
      </trkpt>
      <trkpt lat="42.420020000" lon="-2.590318000">
        <ele>563.20</ele>
        <time>2015-01-17T10:46:38Z</time>
      </trkpt>
      <trkpt lat="42.420009000" lon="-2.590296000">
        <ele>563.30</ele>
        <time>2015-01-17T10:46:39Z</time>
      </trkpt>
      <trkpt lat="42.420003000" lon="-2.590270000">
        <ele>563.40</ele>
        <time>2015-01-17T10:46:40Z</time>
      </trkpt>
      <trkpt lat="42.420005000" lon="-2.590236000">
        <ele>563.50</ele>
        <time>2015-01-17T10:46:41Z</time>
      </trkpt>
      <trkpt lat="42.420017000" lon="-2.590205000">
        <ele>563.60</ele>
        <time>2015-01-17T10:46:42Z</time>
      </trkpt>
      <trkpt lat="42.420035000" lon="-2.590173000">
        <ele>563.70</ele>
        <time>2015-01-17T10:46:43Z</time>
      </trkpt>
      <trkpt lat="42.420058000" lon="-2.590139000">
        <ele>563.70</ele>
        <time>2015-01-17T10:46:44Z</time>
      </trkpt>
      <trkpt lat="42.420112000" lon="-2.590069000">
        <ele>563.80</ele>
        <time>2015-01-17T10:46:46Z</time>
      </trkpt>
      <trkpt lat="42.420143000" lon="-2.590035000">
        <ele>563.70</ele>
        <time>2015-01-17T10:46:47Z</time>
      </trkpt>
      <trkpt lat="42.420175000" lon="-2.590005000">
        <ele>563.70</ele>
        <time>2015-01-17T10:46:48Z</time>
      </trkpt>
      <trkpt lat="42.420207000" lon="-2.589970000">
        <ele>563.60</ele>
        <time>2015-01-17T10:46:49Z</time>
      </trkpt>
      <trkpt lat="42.420237000" lon="-2.589930000">
        <ele>563.50</ele>
        <time>2015-01-17T10:46:50Z</time>
      </trkpt>
      <trkpt lat="42.420265000" lon="-2.589883000">
        <ele>563.40</ele>
        <time>2015-01-17T10:46:51Z</time>
      </trkpt>
      <trkpt lat="42.420292000" lon="-2.589834000">
        <ele>563.40</ele>
        <time>2015-01-17T10:46:52Z</time>
      </trkpt>
      <trkpt lat="42.420321000" lon="-2.589786000">
        <ele>563.30</ele>
        <time>2015-01-17T10:46:53Z</time>
      </trkpt>
      <trkpt lat="42.420356000" lon="-2.589738000">
        <ele>563.00</ele>
        <time>2015-01-17T10:46:54Z</time>
      </trkpt>
      <trkpt lat="42.420402000" lon="-2.589694000">
        <ele>562.80</ele>
        <time>2015-01-17T10:46:55Z</time>
      </trkpt>
      <trkpt lat="42.420455000" lon="-2.589661000">
        <ele>562.60</ele>
        <time>2015-01-17T10:46:56Z</time>
      </trkpt>
      <trkpt lat="42.420511000" lon="-2.589625000">
        <ele>562.50</ele>
        <time>2015-01-17T10:46:57Z</time>
      </trkpt>
      <trkpt lat="42.420568000" lon="-2.589585000">
        <ele>562.50</ele>
        <time>2015-01-17T10:46:58Z</time>
      </trkpt>
      <trkpt lat="42.420616000" lon="-2.589523000">
        <ele>562.40</ele>
        <time>2015-01-17T10:46:59Z</time>
      </trkpt>
      <trkpt lat="42.420654000" lon="-2.589453000">
        <ele>562.40</ele>
        <time>2015-01-17T10:47:00Z</time>
      </trkpt>
      <trkpt lat="42.420687000" lon="-2.589377000">
        <ele>562.40</ele>
        <time>2015-01-17T10:47:01Z</time>
      </trkpt>
      <trkpt lat="42.420718000" lon="-2.589301000">
        <ele>562.30</ele>
        <time>2015-01-17T10:47:02Z</time>
      </trkpt>
      <trkpt lat="42.420749000" lon="-2.589227000">
        <ele>562.30</ele>
        <time>2015-01-17T10:47:03Z</time>
      </trkpt>
      <trkpt lat="42.420781000" lon="-2.589156000">
        <ele>562.20</ele>
        <time>2015-01-17T10:47:04Z</time>
      </trkpt>
      <trkpt lat="42.420813000" lon="-2.589087000">
        <ele>562.20</ele>
        <time>2015-01-17T10:47:05Z</time>
      </trkpt>
      <trkpt lat="42.420844000" lon="-2.589017000">
        <ele>562.20</ele>
        <time>2015-01-17T10:47:06Z</time>
      </trkpt>
      <trkpt lat="42.420875000" lon="-2.588945000">
        <ele>562.20</ele>
        <time>2015-01-17T10:47:07Z</time>
      </trkpt>
      <trkpt lat="42.420906000" lon="-2.588872000">
        <ele>562.20</ele>
        <time>2015-01-17T10:47:08Z</time>
      </trkpt>
      <trkpt lat="42.420937000" lon="-2.588798000">
        <ele>562.10</ele>
        <time>2015-01-17T10:47:09Z</time>
      </trkpt>
      <trkpt lat="42.420971000" lon="-2.588721000">
        <ele>562.00</ele>
        <time>2015-01-17T10:47:10Z</time>
      </trkpt>
      <trkpt lat="42.421005000" lon="-2.588644000">
        <ele>561.90</ele>
        <time>2015-01-17T10:47:11Z</time>
      </trkpt>
      <trkpt lat="42.421038000" lon="-2.588568000">
        <ele>561.80</ele>
        <time>2015-01-17T10:47:12Z</time>
      </trkpt>
      <trkpt lat="42.421073000" lon="-2.588488000">
        <ele>561.80</ele>
        <time>2015-01-17T10:47:13Z</time>
      </trkpt>
      <trkpt lat="42.421107000" lon="-2.588406000">
        <ele>561.60</ele>
        <time>2015-01-17T10:47:14Z</time>
      </trkpt>
      <trkpt lat="42.421141000" lon="-2.588327000">
        <ele>561.50</ele>
        <time>2015-01-17T10:47:15Z</time>
      </trkpt>
      <trkpt lat="42.421176000" lon="-2.588247000">
        <ele>561.20</ele>
        <time>2015-01-17T10:47:16Z</time>
      </trkpt>
      <trkpt lat="42.421210000" lon="-2.588166000">
        <ele>561.10</ele>
        <time>2015-01-17T10:47:17Z</time>
      </trkpt>
      <trkpt lat="42.421247000" lon="-2.588084000">
        <ele>560.70</ele>
        <time>2015-01-17T10:47:18Z</time>
      </trkpt>
      <trkpt lat="42.421282000" lon="-2.588001000">
        <ele>560.50</ele>
        <time>2015-01-17T10:47:19Z</time>
      </trkpt>
      <trkpt lat="42.421319000" lon="-2.587914000">
        <ele>560.30</ele>
        <time>2015-01-17T10:47:20Z</time>
      </trkpt>
      <trkpt lat="42.421359000" lon="-2.587828000">
        <ele>560.10</ele>
        <time>2015-01-17T10:47:21Z</time>
      </trkpt>
      <trkpt lat="42.421399000" lon="-2.587741000">
        <ele>559.90</ele>
        <time>2015-01-17T10:47:22Z</time>
      </trkpt>
      <trkpt lat="42.421439000" lon="-2.587652000">
        <ele>559.70</ele>
        <time>2015-01-17T10:47:23Z</time>
      </trkpt>
      <trkpt lat="42.421479000" lon="-2.587561000">
        <ele>559.60</ele>
        <time>2015-01-17T10:47:24Z</time>
      </trkpt>
      <trkpt lat="42.421520000" lon="-2.587463000">
        <ele>559.50</ele>
        <time>2015-01-17T10:47:25Z</time>
      </trkpt>
      <trkpt lat="42.421557000" lon="-2.587354000">
        <ele>559.40</ele>
        <time>2015-01-17T10:47:26Z</time>
      </trkpt>
      <trkpt lat="42.421603000" lon="-2.587246000">
        <ele>559.10</ele>
        <time>2015-01-17T10:47:27Z</time>
      </trkpt>
      <trkpt lat="42.421651000" lon="-2.587135000">
        <ele>558.80</ele>
        <time>2015-01-17T10:47:28Z</time>
      </trkpt>
      <trkpt lat="42.421704000" lon="-2.587018000">
        <ele>558.30</ele>
        <time>2015-01-17T10:47:29Z</time>
      </trkpt>
      <trkpt lat="42.421758000" lon="-2.586899000">
        <ele>558.00</ele>
        <time>2015-01-17T10:47:30Z</time>
      </trkpt>
      <trkpt lat="42.421812000" lon="-2.586779000">
        <ele>557.70</ele>
        <time>2015-01-17T10:47:31Z</time>
      </trkpt>
      <trkpt lat="42.421867000" lon="-2.586652000">
        <ele>557.50</ele>
        <time>2015-01-17T10:47:32Z</time>
      </trkpt>
      <trkpt lat="42.421921000" lon="-2.586520000">
        <ele>557.00</ele>
        <time>2015-01-17T10:47:33Z</time>
      </trkpt>
      <trkpt lat="42.421976000" lon="-2.586389000">
        <ele>556.70</ele>
        <time>2015-01-17T10:47:34Z</time>
      </trkpt>
      <trkpt lat="42.422034000" lon="-2.586258000">
        <ele>556.10</ele>
        <time>2015-01-17T10:47:35Z</time>
      </trkpt>
      <trkpt lat="42.422095000" lon="-2.586123000">
        <ele>555.70</ele>
        <time>2015-01-17T10:47:36Z</time>
      </trkpt>
      <trkpt lat="42.422155000" lon="-2.585986000">
        <ele>555.00</ele>
        <time>2015-01-17T10:47:37Z</time>
      </trkpt>
      <trkpt lat="42.422216000" lon="-2.585851000">
        <ele>554.50</ele>
        <time>2015-01-17T10:47:38Z</time>
      </trkpt>
      <trkpt lat="42.422275000" lon="-2.585714000">
        <ele>554.10</ele>
        <time>2015-01-17T10:47:39Z</time>
      </trkpt>
      <trkpt lat="42.422332000" lon="-2.585574000">
        <ele>553.80</ele>
        <time>2015-01-17T10:47:40Z</time>
      </trkpt>
      <trkpt lat="42.422389000" lon="-2.585435000">
        <ele>553.40</ele>
        <time>2015-01-17T10:47:41Z</time>
      </trkpt>
      <trkpt lat="42.422446000" lon="-2.585296000">
        <ele>553.10</ele>
        <time>2015-01-17T10:47:42Z</time>
      </trkpt>
      <trkpt lat="42.422505000" lon="-2.585163000">
        <ele>552.80</ele>
        <time>2015-01-17T10:47:43Z</time>
      </trkpt>
      <trkpt lat="42.422567000" lon="-2.585027000">
        <ele>552.50</ele>
        <time>2015-01-17T10:47:44Z</time>
      </trkpt>
      <trkpt lat="42.422625000" lon="-2.584890000">
        <ele>552.30</ele>
        <time>2015-01-17T10:47:45Z</time>
      </trkpt>
      <trkpt lat="42.422679000" lon="-2.584750000">
        <ele>552.10</ele>
        <time>2015-01-17T10:47:46Z</time>
      </trkpt>
      <trkpt lat="42.422785000" lon="-2.584481000">
        <ele>551.50</ele>
        <time>2015-01-17T10:47:48Z</time>
      </trkpt>
      <trkpt lat="42.422840000" lon="-2.584353000">
        <ele>551.10</ele>
        <time>2015-01-17T10:47:49Z</time>
      </trkpt>
      <trkpt lat="42.422898000" lon="-2.584228000">
        <ele>550.90</ele>
        <time>2015-01-17T10:47:50Z</time>
      </trkpt>
      <trkpt lat="42.422955000" lon="-2.584102000">
        <ele>550.30</ele>
        <time>2015-01-17T10:47:51Z</time>
      </trkpt>
      <trkpt lat="42.423008000" lon="-2.583977000">
        <ele>549.80</ele>
        <time>2015-01-17T10:47:52Z</time>
      </trkpt>
      <trkpt lat="42.423064000" lon="-2.583854000">
        <ele>549.20</ele>
        <time>2015-01-17T10:47:53Z</time>
      </trkpt>
      <trkpt lat="42.423119000" lon="-2.583734000">
        <ele>548.70</ele>
        <time>2015-01-17T10:47:54Z</time>
      </trkpt>
      <trkpt lat="42.423174000" lon="-2.583613000">
        <ele>548.10</ele>
        <time>2015-01-17T10:47:55Z</time>
      </trkpt>
      <trkpt lat="42.423226000" lon="-2.583491000">
        <ele>547.60</ele>
        <time>2015-01-17T10:47:56Z</time>
      </trkpt>
      <trkpt lat="42.423278000" lon="-2.583367000">
        <ele>547.10</ele>
        <time>2015-01-17T10:47:57Z</time>
      </trkpt>
      <trkpt lat="42.423329000" lon="-2.583241000">
        <ele>546.70</ele>
        <time>2015-01-17T10:47:58Z</time>
      </trkpt>
      <trkpt lat="42.423379000" lon="-2.583114000">
        <ele>546.20</ele>
        <time>2015-01-17T10:47:59Z</time>
      </trkpt>
      <trkpt lat="42.423427000" lon="-2.582989000">
        <ele>545.80</ele>
        <time>2015-01-17T10:48:00Z</time>
      </trkpt>
      <trkpt lat="42.423476000" lon="-2.582863000">
        <ele>545.00</ele>
        <time>2015-01-17T10:48:01Z</time>
      </trkpt>
      <trkpt lat="42.423525000" lon="-2.582739000">
        <ele>544.40</ele>
        <time>2015-01-17T10:48:02Z</time>
      </trkpt>
      <trkpt lat="42.423575000" lon="-2.582616000">
        <ele>543.90</ele>
        <time>2015-01-17T10:48:03Z</time>
      </trkpt>
      <trkpt lat="42.423629000" lon="-2.582497000">
        <ele>543.50</ele>
        <time>2015-01-17T10:48:04Z</time>
      </trkpt>
      <trkpt lat="42.423683000" lon="-2.582381000">
        <ele>542.80</ele>
        <time>2015-01-17T10:48:05Z</time>
      </trkpt>
      <trkpt lat="42.423737000" lon="-2.582264000">
        <ele>542.30</ele>
        <time>2015-01-17T10:48:06Z</time>
      </trkpt>
      <trkpt lat="42.423789000" lon="-2.582144000">
        <ele>541.90</ele>
        <time>2015-01-17T10:48:07Z</time>
      </trkpt>
      <trkpt lat="42.423839000" lon="-2.582027000">
        <ele>541.60</ele>
        <time>2015-01-17T10:48:08Z</time>
      </trkpt>
      <trkpt lat="42.423888000" lon="-2.581910000">
        <ele>541.10</ele>
        <time>2015-01-17T10:48:09Z</time>
      </trkpt>
      <trkpt lat="42.423938000" lon="-2.581790000">
        <ele>540.70</ele>
        <time>2015-01-17T10:48:10Z</time>
      </trkpt>
      <trkpt lat="42.423988000" lon="-2.581671000">
        <ele>540.00</ele>
        <time>2015-01-17T10:48:11Z</time>
      </trkpt>
      <trkpt lat="42.424039000" lon="-2.581549000">
        <ele>539.50</ele>
        <time>2015-01-17T10:48:12Z</time>
      </trkpt>
      <trkpt lat="42.424089000" lon="-2.581431000">
        <ele>539.00</ele>
        <time>2015-01-17T10:48:13Z</time>
      </trkpt>
      <trkpt lat="42.424142000" lon="-2.581310000">
        <ele>538.60</ele>
        <time>2015-01-17T10:48:14Z</time>
      </trkpt>
      <trkpt lat="42.424194000" lon="-2.581188000">
        <ele>537.80</ele>
        <time>2015-01-17T10:48:15Z</time>
      </trkpt>
      <trkpt lat="42.424246000" lon="-2.581067000">
        <ele>537.30</ele>
        <time>2015-01-17T10:48:16Z</time>
      </trkpt>
      <trkpt lat="42.424299000" lon="-2.580943000">
        <ele>536.80</ele>
        <time>2015-01-17T10:48:17Z</time>
      </trkpt>
      <trkpt lat="42.424351000" lon="-2.580821000">
        <ele>536.50</ele>
        <time>2015-01-17T10:48:18Z</time>
      </trkpt>
      <trkpt lat="42.424404000" lon="-2.580695000">
        <ele>536.10</ele>
        <time>2015-01-17T10:48:19Z</time>
      </trkpt>
      <trkpt lat="42.424456000" lon="-2.580572000">
        <ele>535.90</ele>
        <time>2015-01-17T10:48:20Z</time>
      </trkpt>
      <trkpt lat="42.424508000" lon="-2.580447000">
        <ele>535.80</ele>
        <time>2015-01-17T10:48:21Z</time>
      </trkpt>
      <trkpt lat="42.424559000" lon="-2.580322000">
        <ele>535.70</ele>
        <time>2015-01-17T10:48:22Z</time>
      </trkpt>
      <trkpt lat="42.424610000" lon="-2.580200000">
        <ele>535.50</ele>
        <time>2015-01-17T10:48:23Z</time>
      </trkpt>
      <trkpt lat="42.424659000" lon="-2.580080000">
        <ele>535.40</ele>
        <time>2015-01-17T10:48:24Z</time>
      </trkpt>
      <trkpt lat="42.424711000" lon="-2.579966000">
        <ele>535.20</ele>
        <time>2015-01-17T10:48:25Z</time>
      </trkpt>
      <trkpt lat="42.424768000" lon="-2.579845000">
        <ele>535.10</ele>
        <time>2015-01-17T10:48:26Z</time>
      </trkpt>
      <trkpt lat="42.424826000" lon="-2.579724000">
        <ele>535.00</ele>
        <time>2015-01-17T10:48:27Z</time>
      </trkpt>
      <trkpt lat="42.424882000" lon="-2.579603000">
        <ele>534.90</ele>
        <time>2015-01-17T10:48:28Z</time>
      </trkpt>
      <trkpt lat="42.424939000" lon="-2.579476000">
        <ele>534.50</ele>
        <time>2015-01-17T10:48:29Z</time>
      </trkpt>
      <trkpt lat="42.424992000" lon="-2.579348000">
        <ele>534.20</ele>
        <time>2015-01-17T10:48:30Z</time>
      </trkpt>
      <trkpt lat="42.425044000" lon="-2.579221000">
        <ele>534.00</ele>
        <time>2015-01-17T10:48:31Z</time>
      </trkpt>
      <trkpt lat="42.425092000" lon="-2.579093000">
        <ele>533.80</ele>
        <time>2015-01-17T10:48:32Z</time>
      </trkpt>
      <trkpt lat="42.425144000" lon="-2.578966000">
        <ele>533.20</ele>
        <time>2015-01-17T10:48:33Z</time>
      </trkpt>
      <trkpt lat="42.425195000" lon="-2.578842000">
        <ele>532.70</ele>
        <time>2015-01-17T10:48:34Z</time>
      </trkpt>
      <trkpt lat="42.425247000" lon="-2.578717000">
        <ele>532.20</ele>
        <time>2015-01-17T10:48:35Z</time>
      </trkpt>
      <trkpt lat="42.425299000" lon="-2.578598000">
        <ele>531.80</ele>
        <time>2015-01-17T10:48:36Z</time>
      </trkpt>
      <trkpt lat="42.425351000" lon="-2.578476000">
        <ele>531.30</ele>
        <time>2015-01-17T10:48:37Z</time>
      </trkpt>
      <trkpt lat="42.425406000" lon="-2.578353000">
        <ele>530.90</ele>
        <time>2015-01-17T10:48:38Z</time>
      </trkpt>
      <trkpt lat="42.425456000" lon="-2.578230000">
        <ele>530.30</ele>
        <time>2015-01-17T10:48:39Z</time>
      </trkpt>
      <trkpt lat="42.425511000" lon="-2.578109000">
        <ele>529.80</ele>
        <time>2015-01-17T10:48:40Z</time>
      </trkpt>
      <trkpt lat="42.425563000" lon="-2.577991000">
        <ele>529.20</ele>
        <time>2015-01-17T10:48:41Z</time>
      </trkpt>
      <trkpt lat="42.425616000" lon="-2.577873000">
        <ele>528.80</ele>
        <time>2015-01-17T10:48:42Z</time>
      </trkpt>
      <trkpt lat="42.425667000" lon="-2.577753000">
        <ele>528.40</ele>
        <time>2015-01-17T10:48:43Z</time>
      </trkpt>
      <trkpt lat="42.425716000" lon="-2.577633000">
        <ele>528.00</ele>
        <time>2015-01-17T10:48:44Z</time>
      </trkpt>
      <trkpt lat="42.425766000" lon="-2.577517000">
        <ele>527.80</ele>
        <time>2015-01-17T10:48:45Z</time>
      </trkpt>
      <trkpt lat="42.425815000" lon="-2.577401000">
        <ele>527.60</ele>
        <time>2015-01-17T10:48:46Z</time>
      </trkpt>
      <trkpt lat="42.425863000" lon="-2.577285000">
        <ele>527.30</ele>
        <time>2015-01-17T10:48:47Z</time>
      </trkpt>
      <trkpt lat="42.425910000" lon="-2.577169000">
        <ele>527.00</ele>
        <time>2015-01-17T10:48:48Z</time>
      </trkpt>
      <trkpt lat="42.426004000" lon="-2.576943000">
        <ele>526.20</ele>
        <time>2015-01-17T10:48:50Z</time>
      </trkpt>
      <trkpt lat="42.426053000" lon="-2.576831000">
        <ele>525.90</ele>
        <time>2015-01-17T10:48:51Z</time>
      </trkpt>
      <trkpt lat="42.426101000" lon="-2.576721000">
        <ele>525.70</ele>
        <time>2015-01-17T10:48:52Z</time>
      </trkpt>
      <trkpt lat="42.426151000" lon="-2.576611000">
        <ele>525.40</ele>
        <time>2015-01-17T10:48:53Z</time>
      </trkpt>
      <trkpt lat="42.426201000" lon="-2.576498000">
        <ele>525.10</ele>
        <time>2015-01-17T10:48:54Z</time>
      </trkpt>
      <trkpt lat="42.426249000" lon="-2.576384000">
        <ele>525.00</ele>
        <time>2015-01-17T10:48:55Z</time>
      </trkpt>
      <trkpt lat="42.426296000" lon="-2.576271000">
        <ele>524.90</ele>
        <time>2015-01-17T10:48:56Z</time>
      </trkpt>
      <trkpt lat="42.426341000" lon="-2.576161000">
        <ele>524.60</ele>
        <time>2015-01-17T10:48:57Z</time>
      </trkpt>
      <trkpt lat="42.426387000" lon="-2.576052000">
        <ele>524.50</ele>
        <time>2015-01-17T10:48:58Z</time>
      </trkpt>
      <trkpt lat="42.426431000" lon="-2.575947000">
        <ele>524.20</ele>
        <time>2015-01-17T10:48:59Z</time>
      </trkpt>
      <trkpt lat="42.426476000" lon="-2.575843000">
        <ele>523.90</ele>
        <time>2015-01-17T10:49:00Z</time>
      </trkpt>
      <trkpt lat="42.426518000" lon="-2.575740000">
        <ele>523.50</ele>
        <time>2015-01-17T10:49:01Z</time>
      </trkpt>
      <trkpt lat="42.426562000" lon="-2.575638000">
        <ele>523.20</ele>
        <time>2015-01-17T10:49:02Z</time>
      </trkpt>
      <trkpt lat="42.426605000" lon="-2.575536000">
        <ele>522.50</ele>
        <time>2015-01-17T10:49:03Z</time>
      </trkpt>
      <trkpt lat="42.426651000" lon="-2.575435000">
        <ele>521.90</ele>
        <time>2015-01-17T10:49:04Z</time>
      </trkpt>
      <trkpt lat="42.426695000" lon="-2.575334000">
        <ele>521.50</ele>
        <time>2015-01-17T10:49:05Z</time>
      </trkpt>
      <trkpt lat="42.426740000" lon="-2.575231000">
        <ele>521.20</ele>
        <time>2015-01-17T10:49:06Z</time>
      </trkpt>
      <trkpt lat="42.426785000" lon="-2.575128000">
        <ele>520.70</ele>
        <time>2015-01-17T10:49:07Z</time>
      </trkpt>
      <trkpt lat="42.426835000" lon="-2.575023000">
        <ele>520.30</ele>
        <time>2015-01-17T10:49:08Z</time>
      </trkpt>
      <trkpt lat="42.426882000" lon="-2.574916000">
        <ele>519.90</ele>
        <time>2015-01-17T10:49:09Z</time>
      </trkpt>
      <trkpt lat="42.426931000" lon="-2.574812000">
        <ele>519.60</ele>
        <time>2015-01-17T10:49:10Z</time>
      </trkpt>
      <trkpt lat="42.426974000" lon="-2.574706000">
        <ele>519.50</ele>
        <time>2015-01-17T10:49:11Z</time>
      </trkpt>
      <trkpt lat="42.427021000" lon="-2.574600000">
        <ele>519.40</ele>
        <time>2015-01-17T10:49:12Z</time>
      </trkpt>
      <trkpt lat="42.427069000" lon="-2.574496000">
        <ele>519.20</ele>
        <time>2015-01-17T10:49:13Z</time>
      </trkpt>
      <trkpt lat="42.427119000" lon="-2.574392000">
        <ele>519.10</ele>
        <time>2015-01-17T10:49:14Z</time>
      </trkpt>
      <trkpt lat="42.427168000" lon="-2.574291000">
        <ele>518.70</ele>
        <time>2015-01-17T10:49:15Z</time>
      </trkpt>
      <trkpt lat="42.427216000" lon="-2.574190000">
        <ele>518.50</ele>
        <time>2015-01-17T10:49:16Z</time>
      </trkpt>
      <trkpt lat="42.427263000" lon="-2.574092000">
        <ele>518.10</ele>
        <time>2015-01-17T10:49:17Z</time>
      </trkpt>
      <trkpt lat="42.427309000" lon="-2.573995000">
        <ele>517.80</ele>
        <time>2015-01-17T10:49:18Z</time>
      </trkpt>
      <trkpt lat="42.427354000" lon="-2.573900000">
        <ele>517.70</ele>
        <time>2015-01-17T10:49:19Z</time>
      </trkpt>
      <trkpt lat="42.427401000" lon="-2.573805000">
        <ele>517.50</ele>
        <time>2015-01-17T10:49:20Z</time>
      </trkpt>
      <trkpt lat="42.427451000" lon="-2.573710000">
        <ele>517.40</ele>
        <time>2015-01-17T10:49:21Z</time>
      </trkpt>
      <trkpt lat="42.427501000" lon="-2.573613000">
        <ele>517.30</ele>
        <time>2015-01-17T10:49:22Z</time>
      </trkpt>
      <trkpt lat="42.427550000" lon="-2.573516000">
        <ele>517.20</ele>
        <time>2015-01-17T10:49:23Z</time>
      </trkpt>
      <trkpt lat="42.427599000" lon="-2.573420000">
        <ele>517.20</ele>
        <time>2015-01-17T10:49:24Z</time>
      </trkpt>
      <trkpt lat="42.427645000" lon="-2.573323000">
        <ele>517.00</ele>
        <time>2015-01-17T10:49:25Z</time>
      </trkpt>
      <trkpt lat="42.427691000" lon="-2.573224000">
        <ele>516.80</ele>
        <time>2015-01-17T10:49:26Z</time>
      </trkpt>
      <trkpt lat="42.427739000" lon="-2.573125000">
        <ele>516.60</ele>
        <time>2015-01-17T10:49:27Z</time>
      </trkpt>
      <trkpt lat="42.427785000" lon="-2.573028000">
        <ele>516.50</ele>
        <time>2015-01-17T10:49:28Z</time>
      </trkpt>
      <trkpt lat="42.427834000" lon="-2.572929000">
        <ele>516.20</ele>
        <time>2015-01-17T10:49:29Z</time>
      </trkpt>
      <trkpt lat="42.427877000" lon="-2.572830000">
        <ele>516.00</ele>
        <time>2015-01-17T10:49:30Z</time>
      </trkpt>
      <trkpt lat="42.427921000" lon="-2.572731000">
        <ele>515.60</ele>
        <time>2015-01-17T10:49:31Z</time>
      </trkpt>
      <trkpt lat="42.427964000" lon="-2.572638000">
        <ele>515.30</ele>
        <time>2015-01-17T10:49:32Z</time>
      </trkpt>
      <trkpt lat="42.428008000" lon="-2.572543000">
        <ele>515.00</ele>
        <time>2015-01-17T10:49:33Z</time>
      </trkpt>
      <trkpt lat="42.428052000" lon="-2.572449000">
        <ele>514.70</ele>
        <time>2015-01-17T10:49:34Z</time>
      </trkpt>
      <trkpt lat="42.428094000" lon="-2.572354000">
        <ele>514.50</ele>
        <time>2015-01-17T10:49:35Z</time>
      </trkpt>
      <trkpt lat="42.428140000" lon="-2.572261000">
        <ele>514.30</ele>
        <time>2015-01-17T10:49:36Z</time>
      </trkpt>
      <trkpt lat="42.428180000" lon="-2.572174000">
        <ele>514.10</ele>
        <time>2015-01-17T10:49:37Z</time>
      </trkpt>
      <trkpt lat="42.428221000" lon="-2.572088000">
        <ele>513.90</ele>
        <time>2015-01-17T10:49:38Z</time>
      </trkpt>
      <trkpt lat="42.428264000" lon="-2.571998000">
        <ele>513.70</ele>
        <time>2015-01-17T10:49:39Z</time>
      </trkpt>
      <trkpt lat="42.428306000" lon="-2.571908000">
        <ele>513.50</ele>
        <time>2015-01-17T10:49:40Z</time>
      </trkpt>
      <trkpt lat="42.428347000" lon="-2.571822000">
        <ele>513.30</ele>
        <time>2015-01-17T10:49:41Z</time>
      </trkpt>
      <trkpt lat="42.428391000" lon="-2.571735000">
        <ele>513.20</ele>
        <time>2015-01-17T10:49:42Z</time>
      </trkpt>
      <trkpt lat="42.428432000" lon="-2.571650000">
        <ele>513.10</ele>
        <time>2015-01-17T10:49:43Z</time>
      </trkpt>
      <trkpt lat="42.428473000" lon="-2.571559000">
        <ele>513.10</ele>
        <time>2015-01-17T10:49:44Z</time>
      </trkpt>
      <trkpt lat="42.428514000" lon="-2.571470000">
        <ele>513.10</ele>
        <time>2015-01-17T10:49:45Z</time>
      </trkpt>
      <trkpt lat="42.428556000" lon="-2.571378000">
        <ele>513.20</ele>
        <time>2015-01-17T10:49:46Z</time>
      </trkpt>
      <trkpt lat="42.428597000" lon="-2.571289000">
        <ele>513.30</ele>
        <time>2015-01-17T10:49:47Z</time>
      </trkpt>
      <trkpt lat="42.428637000" lon="-2.571205000">
        <ele>513.30</ele>
        <time>2015-01-17T10:49:48Z</time>
      </trkpt>
      <trkpt lat="42.428678000" lon="-2.571117000">
        <ele>513.30</ele>
        <time>2015-01-17T10:49:49Z</time>
      </trkpt>
      <trkpt lat="42.428721000" lon="-2.571028000">
        <ele>513.30</ele>
        <time>2015-01-17T10:49:50Z</time>
      </trkpt>
      <trkpt lat="42.428805000" lon="-2.570855000">
        <ele>513.30</ele>
        <time>2015-01-17T10:49:52Z</time>
      </trkpt>
      <trkpt lat="42.428848000" lon="-2.570767000">
        <ele>513.20</ele>
        <time>2015-01-17T10:49:53Z</time>
      </trkpt>
      <trkpt lat="42.428888000" lon="-2.570679000">
        <ele>513.10</ele>
        <time>2015-01-17T10:49:54Z</time>
      </trkpt>
      <trkpt lat="42.428928000" lon="-2.570593000">
        <ele>513.10</ele>
        <time>2015-01-17T10:49:55Z</time>
      </trkpt>
      <trkpt lat="42.428967000" lon="-2.570507000">
        <ele>513.00</ele>
        <time>2015-01-17T10:49:56Z</time>
      </trkpt>
      <trkpt lat="42.429007000" lon="-2.570421000">
        <ele>512.80</ele>
        <time>2015-01-17T10:49:57Z</time>
      </trkpt>
      <trkpt lat="42.429047000" lon="-2.570345000">
        <ele>512.60</ele>
        <time>2015-01-17T10:49:58Z</time>
      </trkpt>
      <trkpt lat="42.429086000" lon="-2.570265000">
        <ele>512.30</ele>
        <time>2015-01-17T10:49:59Z</time>
      </trkpt>
      <trkpt lat="42.429121000" lon="-2.570184000">
        <ele>512.00</ele>
        <time>2015-01-17T10:50:00Z</time>
      </trkpt>
      <trkpt lat="42.429154000" lon="-2.570108000">
        <ele>511.60</ele>
        <time>2015-01-17T10:50:01Z</time>
      </trkpt>
      <trkpt lat="42.429188000" lon="-2.570030000">
        <ele>511.30</ele>
        <time>2015-01-17T10:50:02Z</time>
      </trkpt>
      <trkpt lat="42.429223000" lon="-2.569956000">
        <ele>511.10</ele>
        <time>2015-01-17T10:50:03Z</time>
      </trkpt>
      <trkpt lat="42.429260000" lon="-2.569882000">
        <ele>511.00</ele>
        <time>2015-01-17T10:50:04Z</time>
      </trkpt>
      <trkpt lat="42.429296000" lon="-2.569812000">
        <ele>511.00</ele>
        <time>2015-01-17T10:50:05Z</time>
      </trkpt>
      <trkpt lat="42.429334000" lon="-2.569740000">
        <ele>511.00</ele>
        <time>2015-01-17T10:50:06Z</time>
      </trkpt>
      <trkpt lat="42.429367000" lon="-2.569670000">
        <ele>511.10</ele>
        <time>2015-01-17T10:50:07Z</time>
      </trkpt>
      <trkpt lat="42.429401000" lon="-2.569599000">
        <ele>511.10</ele>
        <time>2015-01-17T10:50:08Z</time>
      </trkpt>
      <trkpt lat="42.429435000" lon="-2.569530000">
        <ele>511.00</ele>
        <time>2015-01-17T10:50:09Z</time>
      </trkpt>
      <trkpt lat="42.429470000" lon="-2.569461000">
        <ele>510.90</ele>
        <time>2015-01-17T10:50:10Z</time>
      </trkpt>
      <trkpt lat="42.429509000" lon="-2.569392000">
        <ele>510.80</ele>
        <time>2015-01-17T10:50:11Z</time>
      </trkpt>
      <trkpt lat="42.429546000" lon="-2.569321000">
        <ele>510.80</ele>
        <time>2015-01-17T10:50:12Z</time>
      </trkpt>
      <trkpt lat="42.429580000" lon="-2.569249000">
        <ele>510.80</ele>
        <time>2015-01-17T10:50:13Z</time>
      </trkpt>
      <trkpt lat="42.429612000" lon="-2.569174000">
        <ele>510.80</ele>
        <time>2015-01-17T10:50:14Z</time>
      </trkpt>
      <trkpt lat="42.429642000" lon="-2.569100000">
        <ele>510.80</ele>
        <time>2015-01-17T10:50:15Z</time>
      </trkpt>
      <trkpt lat="42.429676000" lon="-2.569023000">
        <ele>510.80</ele>
        <time>2015-01-17T10:50:16Z</time>
      </trkpt>
      <trkpt lat="42.429710000" lon="-2.568954000">
        <ele>510.80</ele>
        <time>2015-01-17T10:50:17Z</time>
      </trkpt>
      <trkpt lat="42.429750000" lon="-2.568884000">
        <ele>510.80</ele>
        <time>2015-01-17T10:50:18Z</time>
      </trkpt>
      <trkpt lat="42.429785000" lon="-2.568817000">
        <ele>510.70</ele>
        <time>2015-01-17T10:50:19Z</time>
      </trkpt>
      <trkpt lat="42.429818000" lon="-2.568749000">
        <ele>510.70</ele>
        <time>2015-01-17T10:50:20Z</time>
      </trkpt>
      <trkpt lat="42.429849000" lon="-2.568683000">
        <ele>510.60</ele>
        <time>2015-01-17T10:50:21Z</time>
      </trkpt>
      <trkpt lat="42.429875000" lon="-2.568615000">
        <ele>510.60</ele>
        <time>2015-01-17T10:50:22Z</time>
      </trkpt>
      <trkpt lat="42.429902000" lon="-2.568547000">
        <ele>510.50</ele>
        <time>2015-01-17T10:50:23Z</time>
      </trkpt>
      <trkpt lat="42.429928000" lon="-2.568480000">
        <ele>510.50</ele>
        <time>2015-01-17T10:50:24Z</time>
      </trkpt>
      <trkpt lat="42.429957000" lon="-2.568414000">
        <ele>510.50</ele>
        <time>2015-01-17T10:50:25Z</time>
      </trkpt>
      <trkpt lat="42.429990000" lon="-2.568347000">
        <ele>510.50</ele>
        <time>2015-01-17T10:50:26Z</time>
      </trkpt>
      <trkpt lat="42.430025000" lon="-2.568278000">
        <ele>510.70</ele>
        <time>2015-01-17T10:50:27Z</time>
      </trkpt>
      <trkpt lat="42.430051000" lon="-2.568207000">
        <ele>510.80</ele>
        <time>2015-01-17T10:50:28Z</time>
      </trkpt>
      <trkpt lat="42.430075000" lon="-2.568136000">
        <ele>510.80</ele>
        <time>2015-01-17T10:50:29Z</time>
      </trkpt>
      <trkpt lat="42.430098000" lon="-2.568063000">
        <ele>510.70</ele>
        <time>2015-01-17T10:50:30Z</time>
      </trkpt>
      <trkpt lat="42.430120000" lon="-2.567987000">
        <ele>510.70</ele>
        <time>2015-01-17T10:50:31Z</time>
      </trkpt>
      <trkpt lat="42.430138000" lon="-2.567909000">
        <ele>510.70</ele>
        <time>2015-01-17T10:50:32Z</time>
      </trkpt>
      <trkpt lat="42.430155000" lon="-2.567829000">
        <ele>510.70</ele>
        <time>2015-01-17T10:50:33Z</time>
      </trkpt>
      <trkpt lat="42.430170000" lon="-2.567746000">
        <ele>510.70</ele>
        <time>2015-01-17T10:50:34Z</time>
      </trkpt>
      <trkpt lat="42.430183000" lon="-2.567662000">
        <ele>510.50</ele>
        <time>2015-01-17T10:50:35Z</time>
      </trkpt>
      <trkpt lat="42.430196000" lon="-2.567574000">
        <ele>510.40</ele>
        <time>2015-01-17T10:50:36Z</time>
      </trkpt>
      <trkpt lat="42.430210000" lon="-2.567485000">
        <ele>510.40</ele>
        <time>2015-01-17T10:50:37Z</time>
      </trkpt>
      <trkpt lat="42.430225000" lon="-2.567395000">
        <ele>510.30</ele>
        <time>2015-01-17T10:50:38Z</time>
      </trkpt>
      <trkpt lat="42.430239000" lon="-2.567306000">
        <ele>510.20</ele>
        <time>2015-01-17T10:50:39Z</time>
      </trkpt>
      <trkpt lat="42.430253000" lon="-2.567218000">
        <ele>510.10</ele>
        <time>2015-01-17T10:50:40Z</time>
      </trkpt>
      <trkpt lat="42.430267000" lon="-2.567127000">
        <ele>510.00</ele>
        <time>2015-01-17T10:50:41Z</time>
      </trkpt>
      <trkpt lat="42.430287000" lon="-2.567036000">
        <ele>509.80</ele>
        <time>2015-01-17T10:50:42Z</time>
      </trkpt>
      <trkpt lat="42.430306000" lon="-2.566945000">
        <ele>509.80</ele>
        <time>2015-01-17T10:50:43Z</time>
      </trkpt>
      <trkpt lat="42.430320000" lon="-2.566857000">
        <ele>509.70</ele>
        <time>2015-01-17T10:50:44Z</time>
      </trkpt>
      <trkpt lat="42.430334000" lon="-2.566765000">
        <ele>509.60</ele>
        <time>2015-01-17T10:50:45Z</time>
      </trkpt>
      <trkpt lat="42.430350000" lon="-2.566676000">
        <ele>509.50</ele>
        <time>2015-01-17T10:50:46Z</time>
      </trkpt>
      <trkpt lat="42.430367000" lon="-2.566588000">
        <ele>509.10</ele>
        <time>2015-01-17T10:50:47Z</time>
      </trkpt>
      <trkpt lat="42.430380000" lon="-2.566499000">
        <ele>508.80</ele>
        <time>2015-01-17T10:50:48Z</time>
      </trkpt>
      <trkpt lat="42.430394000" lon="-2.566411000">
        <ele>508.40</ele>
        <time>2015-01-17T10:50:49Z</time>
      </trkpt>
      <trkpt lat="42.430408000" lon="-2.566326000">
        <ele>508.10</ele>
        <time>2015-01-17T10:50:50Z</time>
      </trkpt>
      <trkpt lat="42.430420000" lon="-2.566241000">
        <ele>507.90</ele>
        <time>2015-01-17T10:50:51Z</time>
      </trkpt>
      <trkpt lat="42.430446000" lon="-2.566074000">
        <ele>507.60</ele>
        <time>2015-01-17T10:50:53Z</time>
      </trkpt>
      <trkpt lat="42.430457000" lon="-2.565998000">
        <ele>507.50</ele>
        <time>2015-01-17T10:50:54Z</time>
      </trkpt>
      <trkpt lat="42.430468000" lon="-2.565929000">
        <ele>507.20</ele>
        <time>2015-01-17T10:50:55Z</time>
      </trkpt>
      <trkpt lat="42.430478000" lon="-2.565867000">
        <ele>507.10</ele>
        <time>2015-01-17T10:50:56Z</time>
      </trkpt>
      <trkpt lat="42.430487000" lon="-2.565812000">
        <ele>506.90</ele>
        <time>2015-01-17T10:50:57Z</time>
      </trkpt>
      <trkpt lat="42.430496000" lon="-2.565763000">
        <ele>506.90</ele>
        <time>2015-01-17T10:50:58Z</time>
      </trkpt>
      <trkpt lat="42.430503000" lon="-2.565721000">
        <ele>506.80</ele>
        <time>2015-01-17T10:50:59Z</time>
      </trkpt>
      <trkpt lat="42.430510000" lon="-2.565680000">
        <ele>507.10</ele>
        <time>2015-01-17T10:51:00Z</time>
      </trkpt>
      <trkpt lat="42.430517000" lon="-2.565640000">
        <ele>507.30</ele>
        <time>2015-01-17T10:51:01Z</time>
      </trkpt>
      <trkpt lat="42.430523000" lon="-2.565603000">
        <ele>507.40</ele>
        <time>2015-01-17T10:51:02Z</time>
      </trkpt>
      <trkpt lat="42.430527000" lon="-2.565569000">
        <ele>507.50</ele>
        <time>2015-01-17T10:51:03Z</time>
      </trkpt>
      <trkpt lat="42.430534000" lon="-2.565541000">
        <ele>507.50</ele>
        <time>2015-01-17T10:51:04Z</time>
      </trkpt>
      <trkpt lat="42.430534000" lon="-2.565509000">
        <ele>507.40</ele>
        <time>2015-01-17T10:51:05Z</time>
      </trkpt>
      <trkpt lat="42.430527000" lon="-2.565482000">
        <ele>507.40</ele>
        <time>2015-01-17T10:51:06Z</time>
      </trkpt>
      <trkpt lat="42.430516000" lon="-2.565456000">
        <ele>507.40</ele>
        <time>2015-01-17T10:51:07Z</time>
      </trkpt>
      <trkpt lat="42.430509000" lon="-2.565438000">
        <ele>507.60</ele>
        <time>2015-01-17T10:51:08Z</time>
      </trkpt>
      <trkpt lat="42.430506000" lon="-2.565418000">
        <ele>507.80</ele>
        <time>2015-01-17T10:51:09Z</time>
      </trkpt>
      <trkpt lat="42.430501000" lon="-2.565398000">
        <ele>507.90</ele>
        <time>2015-01-17T10:51:10Z</time>
      </trkpt>
      <trkpt lat="42.430500000" lon="-2.565380000">
        <ele>508.00</ele>
        <time>2015-01-17T10:51:11Z</time>
      </trkpt>
      <trkpt lat="42.430493000" lon="-2.565360000">
        <ele>508.10</ele>
        <time>2015-01-17T10:51:12Z</time>
      </trkpt>
      <trkpt lat="42.430483000" lon="-2.565347000">
        <ele>508.10</ele>
        <time>2015-01-17T10:51:13Z</time>
      </trkpt>
      <trkpt lat="42.430464000" lon="-2.565336000">
        <ele>508.20</ele>
        <time>2015-01-17T10:51:14Z</time>
      </trkpt>
      <trkpt lat="42.430439000" lon="-2.565329000">
        <ele>508.20</ele>
        <time>2015-01-17T10:51:15Z</time>
      </trkpt>
      <trkpt lat="42.430412000" lon="-2.565318000">
        <ele>508.40</ele>
        <time>2015-01-17T10:51:16Z</time>
      </trkpt>
      <trkpt lat="42.430386000" lon="-2.565308000">
        <ele>508.60</ele>
        <time>2015-01-17T10:51:17Z</time>
      </trkpt>
      <trkpt lat="42.430361000" lon="-2.565297000">
        <ele>508.70</ele>
        <time>2015-01-17T10:51:18Z</time>
      </trkpt>
      <trkpt lat="42.430340000" lon="-2.565281000">
        <ele>508.80</ele>
        <time>2015-01-17T10:51:19Z</time>
      </trkpt>
      <trkpt lat="42.430318000" lon="-2.565262000">
        <ele>508.90</ele>
        <time>2015-01-17T10:51:20Z</time>
      </trkpt>
      <trkpt lat="42.430292000" lon="-2.565247000">
        <ele>508.90</ele>
        <time>2015-01-17T10:51:21Z</time>
      </trkpt>
      <trkpt lat="42.430269000" lon="-2.565233000">
        <ele>508.60</ele>
        <time>2015-01-17T10:51:22Z</time>
      </trkpt>
      <trkpt lat="42.430242000" lon="-2.565222000">
        <ele>508.30</ele>
        <time>2015-01-17T10:51:23Z</time>
      </trkpt>
      <trkpt lat="42.430216000" lon="-2.565212000">
        <ele>508.10</ele>
        <time>2015-01-17T10:51:24Z</time>
      </trkpt>
      <trkpt lat="42.430191000" lon="-2.565198000">
        <ele>508.00</ele>
        <time>2015-01-17T10:51:25Z</time>
      </trkpt>
      <trkpt lat="42.430164000" lon="-2.565182000">
        <ele>507.90</ele>
        <time>2015-01-17T10:51:26Z</time>
      </trkpt>
      <trkpt lat="42.430135000" lon="-2.565164000">
        <ele>507.80</ele>
        <time>2015-01-17T10:51:27Z</time>
      </trkpt>
      <trkpt lat="42.430104000" lon="-2.565151000">
        <ele>507.80</ele>
        <time>2015-01-17T10:51:28Z</time>
      </trkpt>
      <trkpt lat="42.430073000" lon="-2.565138000">
        <ele>507.70</ele>
        <time>2015-01-17T10:51:29Z</time>
      </trkpt>
      <trkpt lat="42.430044000" lon="-2.565123000">
        <ele>507.70</ele>
        <time>2015-01-17T10:51:30Z</time>
      </trkpt>
      <trkpt lat="42.430014000" lon="-2.565110000">
        <ele>507.70</ele>
        <time>2015-01-17T10:51:31Z</time>
      </trkpt>
      <trkpt lat="42.429987000" lon="-2.565095000">
        <ele>507.60</ele>
        <time>2015-01-17T10:51:32Z</time>
      </trkpt>
      <trkpt lat="42.429957000" lon="-2.565081000">
        <ele>507.60</ele>
        <time>2015-01-17T10:51:33Z</time>
      </trkpt>
      <trkpt lat="42.429934000" lon="-2.565062000">
        <ele>507.40</ele>
        <time>2015-01-17T10:51:34Z</time>
      </trkpt>
      <trkpt lat="42.429907000" lon="-2.565042000">
        <ele>507.20</ele>
        <time>2015-01-17T10:51:35Z</time>
      </trkpt>
      <trkpt lat="42.429873000" lon="-2.565019000">
        <ele>506.90</ele>
        <time>2015-01-17T10:51:36Z</time>
      </trkpt>
      <trkpt lat="42.429839000" lon="-2.565000000">
        <ele>506.60</ele>
        <time>2015-01-17T10:51:37Z</time>
      </trkpt>
      <trkpt lat="42.429802000" lon="-2.564984000">
        <ele>506.50</ele>
        <time>2015-01-17T10:51:38Z</time>
      </trkpt>
      <trkpt lat="42.429766000" lon="-2.564969000">
        <ele>506.40</ele>
        <time>2015-01-17T10:51:39Z</time>
      </trkpt>
      <trkpt lat="42.429727000" lon="-2.564966000">
        <ele>506.30</ele>
        <time>2015-01-17T10:51:40Z</time>
      </trkpt>
      <trkpt lat="42.429691000" lon="-2.564966000">
        <ele>506.30</ele>
        <time>2015-01-17T10:51:41Z</time>
      </trkpt>
      <trkpt lat="42.429657000" lon="-2.564966000">
        <ele>506.30</ele>
        <time>2015-01-17T10:51:42Z</time>
      </trkpt>
      <trkpt lat="42.429623000" lon="-2.564966000">
        <ele>506.30</ele>
        <time>2015-01-17T10:51:43Z</time>
      </trkpt>
      <trkpt lat="42.429590000" lon="-2.564963000">
        <ele>506.40</ele>
        <time>2015-01-17T10:51:44Z</time>
      </trkpt>
      <trkpt lat="42.429559000" lon="-2.564959000">
        <ele>506.50</ele>
        <time>2015-01-17T10:51:45Z</time>
      </trkpt>
      <trkpt lat="42.429530000" lon="-2.564948000">
        <ele>506.50</ele>
        <time>2015-01-17T10:51:46Z</time>
      </trkpt>
      <trkpt lat="42.429501000" lon="-2.564931000">
        <ele>506.60</ele>
        <time>2015-01-17T10:51:47Z</time>
      </trkpt>
      <trkpt lat="42.429475000" lon="-2.564902000">
        <ele>506.70</ele>
        <time>2015-01-17T10:51:48Z</time>
      </trkpt>
      <trkpt lat="42.429455000" lon="-2.564867000">
        <ele>506.40</ele>
        <time>2015-01-17T10:51:49Z</time>
      </trkpt>
      <trkpt lat="42.429439000" lon="-2.564820000">
        <ele>506.30</ele>
        <time>2015-01-17T10:51:50Z</time>
      </trkpt>
      <trkpt lat="42.429428000" lon="-2.564772000">
        <ele>506.20</ele>
        <time>2015-01-17T10:51:51Z</time>
      </trkpt>
      <trkpt lat="42.429418000" lon="-2.564723000">
        <ele>506.20</ele>
        <time>2015-01-17T10:51:52Z</time>
      </trkpt>
      <trkpt lat="42.429407000" lon="-2.564674000">
        <ele>506.20</ele>
        <time>2015-01-17T10:51:53Z</time>
      </trkpt>
      <trkpt lat="42.429390000" lon="-2.564567000">
        <ele>506.30</ele>
        <time>2015-01-17T10:51:55Z</time>
      </trkpt>
      <trkpt lat="42.429382000" lon="-2.564511000">
        <ele>506.30</ele>
        <time>2015-01-17T10:51:56Z</time>
      </trkpt>
      <trkpt lat="42.429371000" lon="-2.564452000">
        <ele>506.40</ele>
        <time>2015-01-17T10:51:57Z</time>
      </trkpt>
      <trkpt lat="42.429354000" lon="-2.564390000">
        <ele>506.40</ele>
        <time>2015-01-17T10:51:58Z</time>
      </trkpt>
      <trkpt lat="42.429331000" lon="-2.564334000">
        <ele>506.40</ele>
        <time>2015-01-17T10:51:59Z</time>
      </trkpt>
      <trkpt lat="42.429303000" lon="-2.564284000">
        <ele>506.30</ele>
        <time>2015-01-17T10:52:00Z</time>
      </trkpt>
      <trkpt lat="42.429266000" lon="-2.564243000">
        <ele>506.20</ele>
        <time>2015-01-17T10:52:01Z</time>
      </trkpt>
      <trkpt lat="42.429223000" lon="-2.564217000">
        <ele>506.00</ele>
        <time>2015-01-17T10:52:02Z</time>
      </trkpt>
      <trkpt lat="42.429177000" lon="-2.564205000">
        <ele>505.90</ele>
        <time>2015-01-17T10:52:03Z</time>
      </trkpt>
      <trkpt lat="42.429130000" lon="-2.564188000">
        <ele>505.80</ele>
        <time>2015-01-17T10:52:04Z</time>
      </trkpt>
      <trkpt lat="42.429084000" lon="-2.564168000">
        <ele>505.70</ele>
        <time>2015-01-17T10:52:05Z</time>
      </trkpt>
      <trkpt lat="42.429037000" lon="-2.564147000">
        <ele>505.60</ele>
        <time>2015-01-17T10:52:06Z</time>
      </trkpt>
      <trkpt lat="42.428992000" lon="-2.564125000">
        <ele>505.50</ele>
        <time>2015-01-17T10:52:07Z</time>
      </trkpt>
      <trkpt lat="42.428946000" lon="-2.564104000">
        <ele>505.40</ele>
        <time>2015-01-17T10:52:08Z</time>
      </trkpt>
      <trkpt lat="42.428899000" lon="-2.564081000">
        <ele>505.30</ele>
        <time>2015-01-17T10:52:09Z</time>
      </trkpt>
      <trkpt lat="42.428854000" lon="-2.564057000">
        <ele>505.20</ele>
        <time>2015-01-17T10:52:10Z</time>
      </trkpt>
      <trkpt lat="42.428809000" lon="-2.564030000">
        <ele>505.10</ele>
        <time>2015-01-17T10:52:11Z</time>
      </trkpt>
      <trkpt lat="42.428767000" lon="-2.563996000">
        <ele>505.10</ele>
        <time>2015-01-17T10:52:12Z</time>
      </trkpt>
      <trkpt lat="42.428726000" lon="-2.563959000">
        <ele>505.00</ele>
        <time>2015-01-17T10:52:13Z</time>
      </trkpt>
      <trkpt lat="42.428687000" lon="-2.563914000">
        <ele>505.00</ele>
        <time>2015-01-17T10:52:14Z</time>
      </trkpt>
      <trkpt lat="42.428648000" lon="-2.563864000">
        <ele>505.00</ele>
        <time>2015-01-17T10:52:15Z</time>
      </trkpt>
      <trkpt lat="42.428612000" lon="-2.563810000">
        <ele>504.90</ele>
        <time>2015-01-17T10:52:16Z</time>
      </trkpt>
      <trkpt lat="42.428578000" lon="-2.563750000">
        <ele>504.80</ele>
        <time>2015-01-17T10:52:17Z</time>
      </trkpt>
      <trkpt lat="42.428544000" lon="-2.563689000">
        <ele>504.70</ele>
        <time>2015-01-17T10:52:18Z</time>
      </trkpt>
      <trkpt lat="42.428515000" lon="-2.563621000">
        <ele>504.60</ele>
        <time>2015-01-17T10:52:19Z</time>
      </trkpt>
      <trkpt lat="42.428488000" lon="-2.563551000">
        <ele>504.40</ele>
        <time>2015-01-17T10:52:20Z</time>
      </trkpt>
      <trkpt lat="42.428466000" lon="-2.563475000">
        <ele>504.30</ele>
        <time>2015-01-17T10:52:21Z</time>
      </trkpt>
      <trkpt lat="42.428447000" lon="-2.563396000">
        <ele>504.20</ele>
        <time>2015-01-17T10:52:22Z</time>
      </trkpt>
      <trkpt lat="42.428436000" lon="-2.563313000">
        <ele>504.10</ele>
        <time>2015-01-17T10:52:23Z</time>
      </trkpt>
      <trkpt lat="42.428428000" lon="-2.563227000">
        <ele>504.00</ele>
        <time>2015-01-17T10:52:24Z</time>
      </trkpt>
      <trkpt lat="42.428415000" lon="-2.563144000">
        <ele>503.90</ele>
        <time>2015-01-17T10:52:25Z</time>
      </trkpt>
      <trkpt lat="42.428396000" lon="-2.563066000">
        <ele>503.80</ele>
        <time>2015-01-17T10:52:26Z</time>
      </trkpt>
      <trkpt lat="42.428374000" lon="-2.562988000">
        <ele>503.80</ele>
        <time>2015-01-17T10:52:27Z</time>
      </trkpt>
      <trkpt lat="42.428352000" lon="-2.562911000">
        <ele>503.80</ele>
        <time>2015-01-17T10:52:28Z</time>
      </trkpt>
      <trkpt lat="42.428326000" lon="-2.562836000">
        <ele>503.90</ele>
        <time>2015-01-17T10:52:29Z</time>
      </trkpt>
      <trkpt lat="42.428303000" lon="-2.562761000">
        <ele>503.90</ele>
        <time>2015-01-17T10:52:30Z</time>
      </trkpt>
      <trkpt lat="42.428281000" lon="-2.562689000">
        <ele>503.90</ele>
        <time>2015-01-17T10:52:31Z</time>
      </trkpt>
      <trkpt lat="42.428258000" lon="-2.562616000">
        <ele>503.90</ele>
        <time>2015-01-17T10:52:32Z</time>
      </trkpt>
      <trkpt lat="42.428238000" lon="-2.562541000">
        <ele>503.70</ele>
        <time>2015-01-17T10:52:33Z</time>
      </trkpt>
      <trkpt lat="42.428214000" lon="-2.562467000">
        <ele>503.50</ele>
        <time>2015-01-17T10:52:34Z</time>
      </trkpt>
      <trkpt lat="42.428192000" lon="-2.562399000">
        <ele>503.40</ele>
        <time>2015-01-17T10:52:35Z</time>
      </trkpt>
      <trkpt lat="42.428168000" lon="-2.562331000">
        <ele>503.30</ele>
        <time>2015-01-17T10:52:36Z</time>
      </trkpt>
      <trkpt lat="42.428142000" lon="-2.562264000">
        <ele>503.20</ele>
        <time>2015-01-17T10:52:37Z</time>
      </trkpt>
      <trkpt lat="42.428115000" lon="-2.562199000">
        <ele>503.20</ele>
        <time>2015-01-17T10:52:38Z</time>
      </trkpt>
      <trkpt lat="42.428091000" lon="-2.562132000">
        <ele>502.90</ele>
        <time>2015-01-17T10:52:39Z</time>
      </trkpt>
      <trkpt lat="42.428071000" lon="-2.562065000">
        <ele>502.70</ele>
        <time>2015-01-17T10:52:40Z</time>
      </trkpt>
      <trkpt lat="42.428049000" lon="-2.561998000">
        <ele>502.60</ele>
        <time>2015-01-17T10:52:41Z</time>
      </trkpt>
      <trkpt lat="42.428029000" lon="-2.561931000">
        <ele>502.50</ele>
        <time>2015-01-17T10:52:42Z</time>
      </trkpt>
      <trkpt lat="42.428012000" lon="-2.561872000">
        <ele>502.50</ele>
        <time>2015-01-17T10:52:43Z</time>
      </trkpt>
      <trkpt lat="42.427996000" lon="-2.561819000">
        <ele>502.40</ele>
        <time>2015-01-17T10:52:44Z</time>
      </trkpt>
      <trkpt lat="42.427987000" lon="-2.561770000">
        <ele>502.50</ele>
        <time>2015-01-17T10:52:45Z</time>
      </trkpt>
      <trkpt lat="42.427986000" lon="-2.561727000">
        <ele>502.50</ele>
        <time>2015-01-17T10:52:46Z</time>
      </trkpt>
      <trkpt lat="42.427999000" lon="-2.561691000">
        <ele>502.40</ele>
        <time>2015-01-17T10:52:47Z</time>
      </trkpt>
      <trkpt lat="42.428021000" lon="-2.561654000">
        <ele>502.40</ele>
        <time>2015-01-17T10:52:48Z</time>
      </trkpt>
      <trkpt lat="42.428048000" lon="-2.561614000">
        <ele>502.40</ele>
        <time>2015-01-17T10:52:49Z</time>
      </trkpt>
      <trkpt lat="42.428077000" lon="-2.561597000">
        <ele>502.30</ele>
        <time>2015-01-17T10:52:50Z</time>
      </trkpt>
      <trkpt lat="42.428110000" lon="-2.561601000">
        <ele>502.20</ele>
        <time>2015-01-17T10:52:51Z</time>
      </trkpt>
      <trkpt lat="42.428139000" lon="-2.561608000">
        <ele>502.10</ele>
        <time>2015-01-17T10:52:52Z</time>
      </trkpt>
      <trkpt lat="42.428164000" lon="-2.561606000">
        <ele>502.10</ele>
        <time>2015-01-17T10:52:53Z</time>
      </trkpt>
      <trkpt lat="42.428186000" lon="-2.561608000">
        <ele>502.10</ele>
        <time>2015-01-17T10:52:54Z</time>
      </trkpt>
      <trkpt lat="42.428208000" lon="-2.561610000">
        <ele>502.20</ele>
        <time>2015-01-17T10:52:55Z</time>
      </trkpt>
      <trkpt lat="42.428258000" lon="-2.561606000">
        <ele>502.60</ele>
        <time>2015-01-17T10:52:57Z</time>
      </trkpt>
      <trkpt lat="42.428282000" lon="-2.561608000">
        <ele>502.80</ele>
        <time>2015-01-17T10:52:58Z</time>
      </trkpt>
      <trkpt lat="42.428306000" lon="-2.561605000">
        <ele>503.00</ele>
        <time>2015-01-17T10:52:59Z</time>
      </trkpt>
      <trkpt lat="42.428335000" lon="-2.561598000">
        <ele>503.10</ele>
        <time>2015-01-17T10:53:00Z</time>
      </trkpt>
      <trkpt lat="42.428368000" lon="-2.561589000">
        <ele>503.40</ele>
        <time>2015-01-17T10:53:01Z</time>
      </trkpt>
      <trkpt lat="42.428401000" lon="-2.561581000">
        <ele>503.60</ele>
        <time>2015-01-17T10:53:02Z</time>
      </trkpt>
      <trkpt lat="42.428434000" lon="-2.561572000">
        <ele>503.80</ele>
        <time>2015-01-17T10:53:03Z</time>
      </trkpt>
      <trkpt lat="42.428462000" lon="-2.561566000">
        <ele>504.00</ele>
        <time>2015-01-17T10:53:04Z</time>
      </trkpt>
      <trkpt lat="42.428486000" lon="-2.561565000">
        <ele>504.30</ele>
        <time>2015-01-17T10:53:05Z</time>
      </trkpt>
      <trkpt lat="42.428507000" lon="-2.561556000">
        <ele>504.60</ele>
        <time>2015-01-17T10:53:06Z</time>
      </trkpt>
      <trkpt lat="42.428525000" lon="-2.561547000">
        <ele>504.80</ele>
        <time>2015-01-17T10:53:07Z</time>
      </trkpt>
      <trkpt lat="42.428541000" lon="-2.561536000">
        <ele>505.00</ele>
        <time>2015-01-17T10:53:08Z</time>
      </trkpt>
      <trkpt lat="42.428553000" lon="-2.561524000">
        <ele>505.10</ele>
        <time>2015-01-17T10:53:09Z</time>
      </trkpt>
      <trkpt lat="42.428576000" lon="-2.561516000">
        <ele>505.20</ele>
        <time>2015-01-17T10:53:10Z</time>
      </trkpt>
      <trkpt lat="42.428598000" lon="-2.561515000">
        <ele>505.30</ele>
        <time>2015-01-17T10:53:11Z</time>
      </trkpt>
      <trkpt lat="42.428624000" lon="-2.561508000">
        <ele>505.40</ele>
        <time>2015-01-17T10:53:12Z</time>
      </trkpt>
      <trkpt lat="42.428649000" lon="-2.561501000">
        <ele>505.70</ele>
        <time>2015-01-17T10:53:13Z</time>
      </trkpt>
      <trkpt lat="42.428677000" lon="-2.561496000">
        <ele>506.00</ele>
        <time>2015-01-17T10:53:14Z</time>
      </trkpt>
      <trkpt lat="42.428707000" lon="-2.561489000">
        <ele>506.20</ele>
        <time>2015-01-17T10:53:15Z</time>
      </trkpt>
      <trkpt lat="42.428733000" lon="-2.561476000">
        <ele>506.30</ele>
        <time>2015-01-17T10:53:16Z</time>
      </trkpt>
      <trkpt lat="42.428749000" lon="-2.561453000">
        <ele>506.50</ele>
        <time>2015-01-17T10:53:17Z</time>
      </trkpt>
      <trkpt lat="42.428765000" lon="-2.561423000">
        <ele>506.70</ele>
        <time>2015-01-17T10:53:18Z</time>
      </trkpt>
      <trkpt lat="42.428774000" lon="-2.561384000">
        <ele>506.70</ele>
        <time>2015-01-17T10:53:19Z</time>
      </trkpt>
      <trkpt lat="42.428777000" lon="-2.561341000">
        <ele>506.70</ele>
        <time>2015-01-17T10:53:20Z</time>
      </trkpt>
      <trkpt lat="42.428782000" lon="-2.561295000">
        <ele>506.90</ele>
        <time>2015-01-17T10:53:21Z</time>
      </trkpt>
      <trkpt lat="42.428781000" lon="-2.561246000">
        <ele>507.10</ele>
        <time>2015-01-17T10:53:22Z</time>
      </trkpt>
      <trkpt lat="42.428781000" lon="-2.561198000">
        <ele>507.10</ele>
        <time>2015-01-17T10:53:23Z</time>
      </trkpt>
      <trkpt lat="42.428775000" lon="-2.561146000">
        <ele>507.20</ele>
        <time>2015-01-17T10:53:24Z</time>
      </trkpt>
      <trkpt lat="42.428780000" lon="-2.561095000">
        <ele>507.20</ele>
        <time>2015-01-17T10:53:25Z</time>
      </trkpt>
      <trkpt lat="42.428788000" lon="-2.561039000">
        <ele>507.30</ele>
        <time>2015-01-17T10:53:26Z</time>
      </trkpt>
      <trkpt lat="42.428799000" lon="-2.560984000">
        <ele>507.30</ele>
        <time>2015-01-17T10:53:27Z</time>
      </trkpt>
      <trkpt lat="42.428809000" lon="-2.560930000">
        <ele>507.30</ele>
        <time>2015-01-17T10:53:28Z</time>
      </trkpt>
      <trkpt lat="42.428819000" lon="-2.560873000">
        <ele>507.20</ele>
        <time>2015-01-17T10:53:29Z</time>
      </trkpt>
      <trkpt lat="42.428825000" lon="-2.560815000">
        <ele>507.20</ele>
        <time>2015-01-17T10:53:30Z</time>
      </trkpt>
      <trkpt lat="42.428838000" lon="-2.560755000">
        <ele>507.10</ele>
        <time>2015-01-17T10:53:31Z</time>
      </trkpt>
      <trkpt lat="42.428848000" lon="-2.560691000">
        <ele>507.10</ele>
        <time>2015-01-17T10:53:32Z</time>
      </trkpt>
      <trkpt lat="42.428857000" lon="-2.560624000">
        <ele>507.00</ele>
        <time>2015-01-17T10:53:33Z</time>
      </trkpt>
      <trkpt lat="42.428863000" lon="-2.560561000">
        <ele>507.00</ele>
        <time>2015-01-17T10:53:34Z</time>
      </trkpt>
      <trkpt lat="42.428873000" lon="-2.560498000">
        <ele>506.70</ele>
        <time>2015-01-17T10:53:35Z</time>
      </trkpt>
      <trkpt lat="42.428881000" lon="-2.560433000">
        <ele>506.40</ele>
        <time>2015-01-17T10:53:36Z</time>
      </trkpt>
      <trkpt lat="42.428886000" lon="-2.560366000">
        <ele>506.20</ele>
        <time>2015-01-17T10:53:37Z</time>
      </trkpt>
      <trkpt lat="42.428893000" lon="-2.560298000">
        <ele>506.00</ele>
        <time>2015-01-17T10:53:38Z</time>
      </trkpt>
      <trkpt lat="42.428900000" lon="-2.560229000">
        <ele>505.70</ele>
        <time>2015-01-17T10:53:39Z</time>
      </trkpt>
      <trkpt lat="42.428904000" lon="-2.560157000">
        <ele>505.50</ele>
        <time>2015-01-17T10:53:40Z</time>
      </trkpt>
      <trkpt lat="42.428912000" lon="-2.560085000">
        <ele>505.40</ele>
        <time>2015-01-17T10:53:41Z</time>
      </trkpt>
      <trkpt lat="42.428922000" lon="-2.560012000">
        <ele>505.30</ele>
        <time>2015-01-17T10:53:42Z</time>
      </trkpt>
      <trkpt lat="42.428931000" lon="-2.559937000">
        <ele>505.00</ele>
        <time>2015-01-17T10:53:43Z</time>
      </trkpt>
      <trkpt lat="42.428940000" lon="-2.559861000">
        <ele>504.80</ele>
        <time>2015-01-17T10:53:44Z</time>
      </trkpt>
      <trkpt lat="42.428947000" lon="-2.559785000">
        <ele>504.70</ele>
        <time>2015-01-17T10:53:45Z</time>
      </trkpt>
      <trkpt lat="42.428953000" lon="-2.559710000">
        <ele>504.60</ele>
        <time>2015-01-17T10:53:46Z</time>
      </trkpt>
      <trkpt lat="42.428961000" lon="-2.559635000">
        <ele>504.50</ele>
        <time>2015-01-17T10:53:47Z</time>
      </trkpt>
      <trkpt lat="42.428968000" lon="-2.559561000">
        <ele>504.50</ele>
        <time>2015-01-17T10:53:48Z</time>
      </trkpt>
      <trkpt lat="42.428974000" lon="-2.559485000">
        <ele>504.40</ele>
        <time>2015-01-17T10:53:49Z</time>
      </trkpt>
      <trkpt lat="42.428980000" lon="-2.559411000">
        <ele>504.40</ele>
        <time>2015-01-17T10:53:50Z</time>
      </trkpt>
      <trkpt lat="42.428986000" lon="-2.559334000">
        <ele>504.20</ele>
        <time>2015-01-17T10:53:51Z</time>
      </trkpt>
      <trkpt lat="42.428996000" lon="-2.559257000">
        <ele>504.10</ele>
        <time>2015-01-17T10:53:52Z</time>
      </trkpt>
      <trkpt lat="42.429005000" lon="-2.559180000">
        <ele>503.80</ele>
        <time>2015-01-17T10:53:53Z</time>
      </trkpt>
      <trkpt lat="42.429013000" lon="-2.559100000">
        <ele>503.60</ele>
        <time>2015-01-17T10:53:54Z</time>
      </trkpt>
      <trkpt lat="42.429021000" lon="-2.559019000">
        <ele>503.20</ele>
        <time>2015-01-17T10:53:55Z</time>
      </trkpt>
      <trkpt lat="42.429027000" lon="-2.558938000">
        <ele>502.90</ele>
        <time>2015-01-17T10:53:56Z</time>
      </trkpt>
      <trkpt lat="42.429035000" lon="-2.558858000">
        <ele>502.60</ele>
        <time>2015-01-17T10:53:57Z</time>
      </trkpt>
      <trkpt lat="42.429041000" lon="-2.558688000">
        <ele>502.30</ele>
        <time>2015-01-17T10:53:59Z</time>
      </trkpt>
      <trkpt lat="42.429046000" lon="-2.558604000">
        <ele>502.10</ele>
        <time>2015-01-17T10:54:00Z</time>
      </trkpt>
      <trkpt lat="42.429047000" lon="-2.558513000">
        <ele>501.70</ele>
        <time>2015-01-17T10:54:01Z</time>
      </trkpt>
      <trkpt lat="42.429046000" lon="-2.558422000">
        <ele>501.40</ele>
        <time>2015-01-17T10:54:02Z</time>
      </trkpt>
      <trkpt lat="42.429050000" lon="-2.558331000">
        <ele>501.00</ele>
        <time>2015-01-17T10:54:03Z</time>
      </trkpt>
      <trkpt lat="42.429054000" lon="-2.558244000">
        <ele>500.70</ele>
        <time>2015-01-17T10:54:04Z</time>
      </trkpt>
      <trkpt lat="42.429057000" lon="-2.558153000">
        <ele>500.30</ele>
        <time>2015-01-17T10:54:05Z</time>
      </trkpt>
      <trkpt lat="42.429064000" lon="-2.558064000">
        <ele>500.00</ele>
        <time>2015-01-17T10:54:06Z</time>
      </trkpt>
      <trkpt lat="42.429072000" lon="-2.557971000">
        <ele>499.70</ele>
        <time>2015-01-17T10:54:07Z</time>
      </trkpt>
      <trkpt lat="42.429077000" lon="-2.557879000">
        <ele>499.50</ele>
        <time>2015-01-17T10:54:08Z</time>
      </trkpt>
      <trkpt lat="42.429082000" lon="-2.557786000">
        <ele>499.30</ele>
        <time>2015-01-17T10:54:09Z</time>
      </trkpt>
      <trkpt lat="42.429088000" lon="-2.557690000">
        <ele>499.10</ele>
        <time>2015-01-17T10:54:10Z</time>
      </trkpt>
      <trkpt lat="42.429097000" lon="-2.557594000">
        <ele>498.60</ele>
        <time>2015-01-17T10:54:11Z</time>
      </trkpt>
      <trkpt lat="42.429111000" lon="-2.557499000">
        <ele>498.20</ele>
        <time>2015-01-17T10:54:12Z</time>
      </trkpt>
      <trkpt lat="42.429126000" lon="-2.557400000">
        <ele>497.90</ele>
        <time>2015-01-17T10:54:13Z</time>
      </trkpt>
      <trkpt lat="42.429144000" lon="-2.557305000">
        <ele>497.60</ele>
        <time>2015-01-17T10:54:14Z</time>
      </trkpt>
      <trkpt lat="42.429169000" lon="-2.557206000">
        <ele>497.10</ele>
        <time>2015-01-17T10:54:15Z</time>
      </trkpt>
      <trkpt lat="42.429203000" lon="-2.557116000">
        <ele>496.80</ele>
        <time>2015-01-17T10:54:16Z</time>
      </trkpt>
      <trkpt lat="42.429249000" lon="-2.557036000">
        <ele>496.40</ele>
        <time>2015-01-17T10:54:17Z</time>
      </trkpt>
      <trkpt lat="42.429305000" lon="-2.556975000">
        <ele>496.20</ele>
        <time>2015-01-17T10:54:18Z</time>
      </trkpt>
      <trkpt lat="42.429364000" lon="-2.556937000">
        <ele>495.90</ele>
        <time>2015-01-17T10:54:19Z</time>
      </trkpt>
      <trkpt lat="42.429424000" lon="-2.556918000">
        <ele>495.70</ele>
        <time>2015-01-17T10:54:20Z</time>
      </trkpt>
      <trkpt lat="42.429476000" lon="-2.556899000">
        <ele>495.30</ele>
        <time>2015-01-17T10:54:21Z</time>
      </trkpt>
      <trkpt lat="42.429523000" lon="-2.556873000">
        <ele>495.00</ele>
        <time>2015-01-17T10:54:22Z</time>
      </trkpt>
      <trkpt lat="42.429560000" lon="-2.556830000">
        <ele>494.40</ele>
        <time>2015-01-17T10:54:23Z</time>
      </trkpt>
      <trkpt lat="42.429573000" lon="-2.556759000">
        <ele>494.00</ele>
        <time>2015-01-17T10:54:24Z</time>
      </trkpt>
      <trkpt lat="42.429574000" lon="-2.556676000">
        <ele>493.40</ele>
        <time>2015-01-17T10:54:25Z</time>
      </trkpt>
      <trkpt lat="42.429572000" lon="-2.556592000">
        <ele>492.90</ele>
        <time>2015-01-17T10:54:26Z</time>
      </trkpt>
      <trkpt lat="42.429576000" lon="-2.556502000">
        <ele>492.50</ele>
        <time>2015-01-17T10:54:27Z</time>
      </trkpt>
      <trkpt lat="42.429581000" lon="-2.556406000">
        <ele>492.20</ele>
        <time>2015-01-17T10:54:28Z</time>
      </trkpt>
      <trkpt lat="42.429585000" lon="-2.556307000">
        <ele>491.90</ele>
        <time>2015-01-17T10:54:29Z</time>
      </trkpt>
      <trkpt lat="42.429592000" lon="-2.556206000">
        <ele>491.80</ele>
        <time>2015-01-17T10:54:30Z</time>
      </trkpt>
      <trkpt lat="42.429604000" lon="-2.556104000">
        <ele>491.00</ele>
        <time>2015-01-17T10:54:31Z</time>
      </trkpt>
      <trkpt lat="42.429614000" lon="-2.556001000">
        <ele>490.50</ele>
        <time>2015-01-17T10:54:32Z</time>
      </trkpt>
      <trkpt lat="42.429625000" lon="-2.555893000">
        <ele>490.00</ele>
        <time>2015-01-17T10:54:33Z</time>
      </trkpt>
      <trkpt lat="42.429634000" lon="-2.555784000">
        <ele>489.60</ele>
        <time>2015-01-17T10:54:34Z</time>
      </trkpt>
      <trkpt lat="42.429645000" lon="-2.555674000">
        <ele>489.10</ele>
        <time>2015-01-17T10:54:35Z</time>
      </trkpt>
      <trkpt lat="42.429656000" lon="-2.555563000">
        <ele>488.70</ele>
        <time>2015-01-17T10:54:36Z</time>
      </trkpt>
      <trkpt lat="42.429668000" lon="-2.555452000">
        <ele>488.10</ele>
        <time>2015-01-17T10:54:37Z</time>
      </trkpt>
      <trkpt lat="42.429684000" lon="-2.555338000">
        <ele>487.70</ele>
        <time>2015-01-17T10:54:38Z</time>
      </trkpt>
      <trkpt lat="42.429706000" lon="-2.555227000">
        <ele>487.30</ele>
        <time>2015-01-17T10:54:39Z</time>
      </trkpt>
      <trkpt lat="42.429731000" lon="-2.555111000">
        <ele>487.10</ele>
        <time>2015-01-17T10:54:40Z</time>
      </trkpt>
      <trkpt lat="42.429756000" lon="-2.554994000">
        <ele>486.70</ele>
        <time>2015-01-17T10:54:41Z</time>
      </trkpt>
      <trkpt lat="42.429781000" lon="-2.554875000">
        <ele>486.40</ele>
        <time>2015-01-17T10:54:42Z</time>
      </trkpt>
      <trkpt lat="42.429802000" lon="-2.554755000">
        <ele>485.50</ele>
        <time>2015-01-17T10:54:43Z</time>
      </trkpt>
      <trkpt lat="42.429817000" lon="-2.554638000">
        <ele>484.90</ele>
        <time>2015-01-17T10:54:44Z</time>
      </trkpt>
      <trkpt lat="42.429828000" lon="-2.554520000">
        <ele>484.10</ele>
        <time>2015-01-17T10:54:45Z</time>
      </trkpt>
      <trkpt lat="42.429837000" lon="-2.554405000">
        <ele>483.40</ele>
        <time>2015-01-17T10:54:46Z</time>
      </trkpt>
      <trkpt lat="42.429850000" lon="-2.554290000">
        <ele>482.50</ele>
        <time>2015-01-17T10:54:47Z</time>
      </trkpt>
      <trkpt lat="42.429863000" lon="-2.554176000">
        <ele>481.90</ele>
        <time>2015-01-17T10:54:48Z</time>
      </trkpt>
      <trkpt lat="42.429877000" lon="-2.554067000">
        <ele>481.30</ele>
        <time>2015-01-17T10:54:49Z</time>
      </trkpt>
      <trkpt lat="42.429890000" lon="-2.553963000">
        <ele>481.00</ele>
        <time>2015-01-17T10:54:50Z</time>
      </trkpt>
      <trkpt lat="42.429902000" lon="-2.553855000">
        <ele>480.70</ele>
        <time>2015-01-17T10:54:51Z</time>
      </trkpt>
      <trkpt lat="42.429910000" lon="-2.553752000">
        <ele>480.50</ele>
        <time>2015-01-17T10:54:52Z</time>
      </trkpt>
      <trkpt lat="42.429912000" lon="-2.553647000">
        <ele>480.30</ele>
        <time>2015-01-17T10:54:53Z</time>
      </trkpt>
      <trkpt lat="42.429908000" lon="-2.553546000">
        <ele>480.10</ele>
        <time>2015-01-17T10:54:54Z</time>
      </trkpt>
      <trkpt lat="42.429902000" lon="-2.553446000">
        <ele>480.00</ele>
        <time>2015-01-17T10:54:55Z</time>
      </trkpt>
      <trkpt lat="42.429891000" lon="-2.553349000">
        <ele>479.80</ele>
        <time>2015-01-17T10:54:56Z</time>
      </trkpt>
      <trkpt lat="42.429884000" lon="-2.553253000">
        <ele>479.70</ele>
        <time>2015-01-17T10:54:57Z</time>
      </trkpt>
      <trkpt lat="42.429873000" lon="-2.553157000">
        <ele>479.60</ele>
        <time>2015-01-17T10:54:58Z</time>
      </trkpt>
      <trkpt lat="42.429865000" lon="-2.553063000">
        <ele>479.50</ele>
        <time>2015-01-17T10:54:59Z</time>
      </trkpt>
      <trkpt lat="42.429842000" lon="-2.552885000">
        <ele>479.20</ele>
        <time>2015-01-17T10:55:01Z</time>
      </trkpt>
      <trkpt lat="42.429829000" lon="-2.552802000">
        <ele>479.00</ele>
        <time>2015-01-17T10:55:02Z</time>
      </trkpt>
      <trkpt lat="42.429811000" lon="-2.552722000">
        <ele>478.80</ele>
        <time>2015-01-17T10:55:03Z</time>
      </trkpt>
      <trkpt lat="42.429784000" lon="-2.552650000">
        <ele>478.60</ele>
        <time>2015-01-17T10:55:04Z</time>
      </trkpt>
      <trkpt lat="42.429750000" lon="-2.552590000">
        <ele>478.50</ele>
        <time>2015-01-17T10:55:05Z</time>
      </trkpt>
      <trkpt lat="42.429715000" lon="-2.552527000">
        <ele>478.60</ele>
        <time>2015-01-17T10:55:06Z</time>
      </trkpt>
      <trkpt lat="42.429683000" lon="-2.552452000">
        <ele>478.60</ele>
        <time>2015-01-17T10:55:07Z</time>
      </trkpt>
      <trkpt lat="42.429666000" lon="-2.552369000">
        <ele>478.70</ele>
        <time>2015-01-17T10:55:08Z</time>
      </trkpt>
      <trkpt lat="42.429664000" lon="-2.552284000">
        <ele>478.70</ele>
        <time>2015-01-17T10:55:09Z</time>
      </trkpt>
      <trkpt lat="42.429681000" lon="-2.552205000">
        <ele>478.70</ele>
        <time>2015-01-17T10:55:10Z</time>
      </trkpt>
      <trkpt lat="42.429717000" lon="-2.552142000">
        <ele>478.70</ele>
        <time>2015-01-17T10:55:11Z</time>
      </trkpt>
      <trkpt lat="42.429767000" lon="-2.552097000">
        <ele>478.90</ele>
        <time>2015-01-17T10:55:12Z</time>
      </trkpt>
      <trkpt lat="42.429821000" lon="-2.552064000">
        <ele>479.00</ele>
        <time>2015-01-17T10:55:13Z</time>
      </trkpt>
      <trkpt lat="42.429873000" lon="-2.552036000">
        <ele>479.10</ele>
        <time>2015-01-17T10:55:14Z</time>
      </trkpt>
      <trkpt lat="42.429921000" lon="-2.552005000">
        <ele>479.10</ele>
        <time>2015-01-17T10:55:15Z</time>
      </trkpt>
      <trkpt lat="42.429970000" lon="-2.551968000">
        <ele>479.00</ele>
        <time>2015-01-17T10:55:16Z</time>
      </trkpt>
      <trkpt lat="42.430014000" lon="-2.551920000">
        <ele>479.00</ele>
        <time>2015-01-17T10:55:17Z</time>
      </trkpt>
      <trkpt lat="42.430052000" lon="-2.551863000">
        <ele>478.90</ele>
        <time>2015-01-17T10:55:18Z</time>
      </trkpt>
      <trkpt lat="42.430085000" lon="-2.551798000">
        <ele>478.80</ele>
        <time>2015-01-17T10:55:19Z</time>
      </trkpt>
      <trkpt lat="42.430112000" lon="-2.551730000">
        <ele>478.70</ele>
        <time>2015-01-17T10:55:20Z</time>
      </trkpt>
      <trkpt lat="42.430139000" lon="-2.551663000">
        <ele>478.70</ele>
        <time>2015-01-17T10:55:21Z</time>
      </trkpt>
      <trkpt lat="42.430163000" lon="-2.551596000">
        <ele>478.60</ele>
        <time>2015-01-17T10:55:22Z</time>
      </trkpt>
      <trkpt lat="42.430188000" lon="-2.551528000">
        <ele>478.50</ele>
        <time>2015-01-17T10:55:23Z</time>
      </trkpt>
      <trkpt lat="42.430213000" lon="-2.551462000">
        <ele>478.30</ele>
        <time>2015-01-17T10:55:24Z</time>
      </trkpt>
      <trkpt lat="42.430237000" lon="-2.551397000">
        <ele>478.20</ele>
        <time>2015-01-17T10:55:25Z</time>
      </trkpt>
      <trkpt lat="42.430259000" lon="-2.551335000">
        <ele>478.10</ele>
        <time>2015-01-17T10:55:26Z</time>
      </trkpt>
      <trkpt lat="42.430281000" lon="-2.551274000">
        <ele>478.00</ele>
        <time>2015-01-17T10:55:27Z</time>
      </trkpt>
      <trkpt lat="42.430303000" lon="-2.551211000">
        <ele>477.90</ele>
        <time>2015-01-17T10:55:28Z</time>
      </trkpt>
      <trkpt lat="42.430324000" lon="-2.551148000">
        <ele>477.90</ele>
        <time>2015-01-17T10:55:29Z</time>
      </trkpt>
      <trkpt lat="42.430344000" lon="-2.551085000">
        <ele>477.70</ele>
        <time>2015-01-17T10:55:30Z</time>
      </trkpt>
      <trkpt lat="42.430363000" lon="-2.551024000">
        <ele>477.60</ele>
        <time>2015-01-17T10:55:31Z</time>
      </trkpt>
      <trkpt lat="42.430383000" lon="-2.550962000">
        <ele>477.60</ele>
        <time>2015-01-17T10:55:32Z</time>
      </trkpt>
      <trkpt lat="42.430399000" lon="-2.550900000">
        <ele>477.70</ele>
        <time>2015-01-17T10:55:33Z</time>
      </trkpt>
      <trkpt lat="42.430414000" lon="-2.550836000">
        <ele>477.50</ele>
        <time>2015-01-17T10:55:34Z</time>
      </trkpt>
      <trkpt lat="42.430427000" lon="-2.550769000">
        <ele>477.50</ele>
        <time>2015-01-17T10:55:35Z</time>
      </trkpt>
      <trkpt lat="42.430438000" lon="-2.550701000">
        <ele>477.40</ele>
        <time>2015-01-17T10:55:36Z</time>
      </trkpt>
      <trkpt lat="42.430445000" lon="-2.550637000">
        <ele>477.40</ele>
        <time>2015-01-17T10:55:37Z</time>
      </trkpt>
      <trkpt lat="42.430453000" lon="-2.550569000">
        <ele>477.30</ele>
        <time>2015-01-17T10:55:38Z</time>
      </trkpt>
      <trkpt lat="42.430459000" lon="-2.550498000">
        <ele>477.30</ele>
        <time>2015-01-17T10:55:39Z</time>
      </trkpt>
      <trkpt lat="42.430467000" lon="-2.550428000">
        <ele>477.30</ele>
        <time>2015-01-17T10:55:40Z</time>
      </trkpt>
      <trkpt lat="42.430479000" lon="-2.550359000">
        <ele>477.30</ele>
        <time>2015-01-17T10:55:41Z</time>
      </trkpt>
      <trkpt lat="42.430493000" lon="-2.550288000">
        <ele>477.10</ele>
        <time>2015-01-17T10:55:42Z</time>
      </trkpt>
      <trkpt lat="42.430507000" lon="-2.550221000">
        <ele>477.00</ele>
        <time>2015-01-17T10:55:43Z</time>
      </trkpt>
      <trkpt lat="42.430524000" lon="-2.550151000">
        <ele>476.90</ele>
        <time>2015-01-17T10:55:44Z</time>
      </trkpt>
      <trkpt lat="42.430545000" lon="-2.550087000">
        <ele>476.80</ele>
        <time>2015-01-17T10:55:45Z</time>
      </trkpt>
      <trkpt lat="42.430565000" lon="-2.550021000">
        <ele>476.70</ele>
        <time>2015-01-17T10:55:46Z</time>
      </trkpt>
      <trkpt lat="42.430585000" lon="-2.549956000">
        <ele>476.60</ele>
        <time>2015-01-17T10:55:47Z</time>
      </trkpt>
      <trkpt lat="42.430605000" lon="-2.549891000">
        <ele>476.60</ele>
        <time>2015-01-17T10:55:48Z</time>
      </trkpt>
      <trkpt lat="42.430625000" lon="-2.549826000">
        <ele>476.50</ele>
        <time>2015-01-17T10:55:49Z</time>
      </trkpt>
      <trkpt lat="42.430643000" lon="-2.549760000">
        <ele>476.50</ele>
        <time>2015-01-17T10:55:50Z</time>
      </trkpt>
      <trkpt lat="42.430662000" lon="-2.549696000">
        <ele>476.50</ele>
        <time>2015-01-17T10:55:51Z</time>
      </trkpt>
      <trkpt lat="42.430680000" lon="-2.549631000">
        <ele>476.50</ele>
        <time>2015-01-17T10:55:52Z</time>
      </trkpt>
      <trkpt lat="42.430698000" lon="-2.549568000">
        <ele>476.50</ele>
        <time>2015-01-17T10:55:53Z</time>
      </trkpt>
      <trkpt lat="42.430717000" lon="-2.549508000">
        <ele>476.50</ele>
        <time>2015-01-17T10:55:54Z</time>
      </trkpt>
      <trkpt lat="42.430735000" lon="-2.549446000">
        <ele>476.50</ele>
        <time>2015-01-17T10:55:55Z</time>
      </trkpt>
      <trkpt lat="42.430755000" lon="-2.549383000">
        <ele>476.50</ele>
        <time>2015-01-17T10:55:56Z</time>
      </trkpt>
      <trkpt lat="42.430775000" lon="-2.549320000">
        <ele>476.60</ele>
        <time>2015-01-17T10:55:57Z</time>
      </trkpt>
      <trkpt lat="42.430793000" lon="-2.549260000">
        <ele>476.60</ele>
        <time>2015-01-17T10:55:58Z</time>
      </trkpt>
      <trkpt lat="42.430812000" lon="-2.549201000">
        <ele>476.60</ele>
        <time>2015-01-17T10:55:59Z</time>
      </trkpt>
      <trkpt lat="42.430835000" lon="-2.549139000">
        <ele>476.60</ele>
        <time>2015-01-17T10:56:00Z</time>
      </trkpt>
      <trkpt lat="42.430876000" lon="-2.549024000">
        <ele>476.70</ele>
        <time>2015-01-17T10:56:02Z</time>
      </trkpt>
      <trkpt lat="42.430897000" lon="-2.548970000">
        <ele>476.70</ele>
        <time>2015-01-17T10:56:03Z</time>
      </trkpt>
      <trkpt lat="42.430916000" lon="-2.548912000">
        <ele>476.70</ele>
        <time>2015-01-17T10:56:04Z</time>
      </trkpt>
      <trkpt lat="42.430937000" lon="-2.548856000">
        <ele>476.70</ele>
        <time>2015-01-17T10:56:05Z</time>
      </trkpt>
      <trkpt lat="42.430959000" lon="-2.548800000">
        <ele>476.70</ele>
        <time>2015-01-17T10:56:06Z</time>
      </trkpt>
      <trkpt lat="42.430979000" lon="-2.548743000">
        <ele>476.70</ele>
        <time>2015-01-17T10:56:07Z</time>
      </trkpt>
      <trkpt lat="42.431000000" lon="-2.548686000">
        <ele>476.60</ele>
        <time>2015-01-17T10:56:08Z</time>
      </trkpt>
      <trkpt lat="42.431022000" lon="-2.548629000">
        <ele>476.60</ele>
        <time>2015-01-17T10:56:09Z</time>
      </trkpt>
      <trkpt lat="42.431044000" lon="-2.548574000">
        <ele>476.60</ele>
        <time>2015-01-17T10:56:10Z</time>
      </trkpt>
      <trkpt lat="42.431067000" lon="-2.548516000">
        <ele>476.60</ele>
        <time>2015-01-17T10:56:11Z</time>
      </trkpt>
      <trkpt lat="42.431088000" lon="-2.548455000">
        <ele>476.80</ele>
        <time>2015-01-17T10:56:12Z</time>
      </trkpt>
      <trkpt lat="42.431108000" lon="-2.548394000">
        <ele>477.00</ele>
        <time>2015-01-17T10:56:13Z</time>
      </trkpt>
      <trkpt lat="42.431128000" lon="-2.548335000">
        <ele>477.10</ele>
        <time>2015-01-17T10:56:14Z</time>
      </trkpt>
      <trkpt lat="42.431149000" lon="-2.548277000">
        <ele>477.20</ele>
        <time>2015-01-17T10:56:15Z</time>
      </trkpt>
      <trkpt lat="42.431172000" lon="-2.548220000">
        <ele>477.30</ele>
        <time>2015-01-17T10:56:16Z</time>
      </trkpt>
      <trkpt lat="42.431196000" lon="-2.548162000">
        <ele>477.30</ele>
        <time>2015-01-17T10:56:17Z</time>
      </trkpt>
      <trkpt lat="42.431217000" lon="-2.548105000">
        <ele>477.20</ele>
        <time>2015-01-17T10:56:18Z</time>
      </trkpt>
      <trkpt lat="42.431241000" lon="-2.548047000">
        <ele>477.20</ele>
        <time>2015-01-17T10:56:19Z</time>
      </trkpt>
      <trkpt lat="42.431262000" lon="-2.547988000">
        <ele>477.10</ele>
        <time>2015-01-17T10:56:20Z</time>
      </trkpt>
      <trkpt lat="42.431285000" lon="-2.547928000">
        <ele>477.10</ele>
        <time>2015-01-17T10:56:21Z</time>
      </trkpt>
      <trkpt lat="42.431308000" lon="-2.547872000">
        <ele>477.00</ele>
        <time>2015-01-17T10:56:22Z</time>
      </trkpt>
      <trkpt lat="42.431331000" lon="-2.547819000">
        <ele>476.90</ele>
        <time>2015-01-17T10:56:23Z</time>
      </trkpt>
      <trkpt lat="42.431354000" lon="-2.547766000">
        <ele>476.90</ele>
        <time>2015-01-17T10:56:24Z</time>
      </trkpt>
      <trkpt lat="42.431375000" lon="-2.547711000">
        <ele>476.80</ele>
        <time>2015-01-17T10:56:25Z</time>
      </trkpt>
      <trkpt lat="42.431400000" lon="-2.547651000">
        <ele>476.90</ele>
        <time>2015-01-17T10:56:26Z</time>
      </trkpt>
      <trkpt lat="42.431427000" lon="-2.547590000">
        <ele>477.00</ele>
        <time>2015-01-17T10:56:27Z</time>
      </trkpt>
      <trkpt lat="42.431454000" lon="-2.547532000">
        <ele>477.10</ele>
        <time>2015-01-17T10:56:28Z</time>
      </trkpt>
      <trkpt lat="42.431482000" lon="-2.547477000">
        <ele>477.20</ele>
        <time>2015-01-17T10:56:29Z</time>
      </trkpt>
      <trkpt lat="42.431509000" lon="-2.547422000">
        <ele>477.30</ele>
        <time>2015-01-17T10:56:30Z</time>
      </trkpt>
      <trkpt lat="42.431537000" lon="-2.547371000">
        <ele>477.40</ele>
        <time>2015-01-17T10:56:31Z</time>
      </trkpt>
      <trkpt lat="42.431566000" lon="-2.547325000">
        <ele>477.50</ele>
        <time>2015-01-17T10:56:32Z</time>
      </trkpt>
      <trkpt lat="42.431595000" lon="-2.547280000">
        <ele>477.60</ele>
        <time>2015-01-17T10:56:33Z</time>
      </trkpt>
      <trkpt lat="42.431624000" lon="-2.547235000">
        <ele>477.60</ele>
        <time>2015-01-17T10:56:34Z</time>
      </trkpt>
      <trkpt lat="42.431650000" lon="-2.547189000">
        <ele>477.60</ele>
        <time>2015-01-17T10:56:35Z</time>
      </trkpt>
      <trkpt lat="42.431677000" lon="-2.547143000">
        <ele>477.60</ele>
        <time>2015-01-17T10:56:36Z</time>
      </trkpt>
      <trkpt lat="42.431703000" lon="-2.547094000">
        <ele>477.60</ele>
        <time>2015-01-17T10:56:37Z</time>
      </trkpt>
      <trkpt lat="42.431728000" lon="-2.547048000">
        <ele>477.50</ele>
        <time>2015-01-17T10:56:38Z</time>
      </trkpt>
      <trkpt lat="42.431752000" lon="-2.547004000">
        <ele>477.50</ele>
        <time>2015-01-17T10:56:39Z</time>
      </trkpt>
      <trkpt lat="42.431775000" lon="-2.546960000">
        <ele>477.60</ele>
        <time>2015-01-17T10:56:40Z</time>
      </trkpt>
      <trkpt lat="42.431798000" lon="-2.546911000">
        <ele>477.60</ele>
        <time>2015-01-17T10:56:41Z</time>
      </trkpt>
      <trkpt lat="42.431818000" lon="-2.546861000">
        <ele>477.60</ele>
        <time>2015-01-17T10:56:42Z</time>
      </trkpt>
      <trkpt lat="42.431836000" lon="-2.546808000">
        <ele>477.70</ele>
        <time>2015-01-17T10:56:43Z</time>
      </trkpt>
      <trkpt lat="42.431848000" lon="-2.546753000">
        <ele>477.60</ele>
        <time>2015-01-17T10:56:44Z</time>
      </trkpt>
      <trkpt lat="42.431859000" lon="-2.546696000">
        <ele>477.60</ele>
        <time>2015-01-17T10:56:45Z</time>
      </trkpt>
      <trkpt lat="42.431870000" lon="-2.546636000">
        <ele>477.60</ele>
        <time>2015-01-17T10:56:46Z</time>
      </trkpt>
      <trkpt lat="42.431882000" lon="-2.546582000">
        <ele>477.50</ele>
        <time>2015-01-17T10:56:47Z</time>
      </trkpt>
      <trkpt lat="42.431894000" lon="-2.546531000">
        <ele>477.60</ele>
        <time>2015-01-17T10:56:48Z</time>
      </trkpt>
      <trkpt lat="42.431906000" lon="-2.546483000">
        <ele>477.60</ele>
        <time>2015-01-17T10:56:49Z</time>
      </trkpt>
      <trkpt lat="42.431916000" lon="-2.546440000">
        <ele>477.80</ele>
        <time>2015-01-17T10:56:50Z</time>
      </trkpt>
      <trkpt lat="42.431927000" lon="-2.546397000">
        <ele>477.90</ele>
        <time>2015-01-17T10:56:51Z</time>
      </trkpt>
      <trkpt lat="42.431938000" lon="-2.546354000">
        <ele>478.00</ele>
        <time>2015-01-17T10:56:52Z</time>
      </trkpt>
      <trkpt lat="42.431952000" lon="-2.546314000">
        <ele>478.10</ele>
        <time>2015-01-17T10:56:53Z</time>
      </trkpt>
      <trkpt lat="42.431962000" lon="-2.546277000">
        <ele>478.20</ele>
        <time>2015-01-17T10:56:54Z</time>
      </trkpt>
      <trkpt lat="42.431977000" lon="-2.546238000">
        <ele>478.30</ele>
        <time>2015-01-17T10:56:55Z</time>
      </trkpt>
      <trkpt lat="42.431991000" lon="-2.546203000">
        <ele>478.40</ele>
        <time>2015-01-17T10:56:56Z</time>
      </trkpt>
      <trkpt lat="42.432007000" lon="-2.546167000">
        <ele>478.50</ele>
        <time>2015-01-17T10:56:57Z</time>
      </trkpt>
      <trkpt lat="42.432023000" lon="-2.546133000">
        <ele>478.70</ele>
        <time>2015-01-17T10:56:58Z</time>
      </trkpt>
      <trkpt lat="42.432038000" lon="-2.546102000">
        <ele>478.80</ele>
        <time>2015-01-17T10:56:59Z</time>
      </trkpt>
      <trkpt lat="42.432054000" lon="-2.546071000">
        <ele>479.10</ele>
        <time>2015-01-17T10:57:00Z</time>
      </trkpt>
      <trkpt lat="42.432070000" lon="-2.546042000">
        <ele>479.30</ele>
        <time>2015-01-17T10:57:01Z</time>
      </trkpt>
      <trkpt lat="42.432090000" lon="-2.546013000">
        <ele>479.50</ele>
        <time>2015-01-17T10:57:02Z</time>
      </trkpt>
      <trkpt lat="42.432131000" lon="-2.545959000">
        <ele>479.90</ele>
        <time>2015-01-17T10:57:04Z</time>
      </trkpt>
      <trkpt lat="42.432152000" lon="-2.545935000">
        <ele>480.00</ele>
        <time>2015-01-17T10:57:05Z</time>
      </trkpt>
      <trkpt lat="42.432172000" lon="-2.545913000">
        <ele>480.30</ele>
        <time>2015-01-17T10:57:06Z</time>
      </trkpt>
      <trkpt lat="42.432191000" lon="-2.545887000">
        <ele>480.50</ele>
        <time>2015-01-17T10:57:07Z</time>
      </trkpt>
      <trkpt lat="42.432211000" lon="-2.545869000">
        <ele>481.00</ele>
        <time>2015-01-17T10:57:08Z</time>
      </trkpt>
      <trkpt lat="42.432233000" lon="-2.545858000">
        <ele>481.40</ele>
        <time>2015-01-17T10:57:09Z</time>
      </trkpt>
      <trkpt lat="42.432255000" lon="-2.545840000">
        <ele>481.60</ele>
        <time>2015-01-17T10:57:10Z</time>
      </trkpt>
      <trkpt lat="42.432275000" lon="-2.545823000">
        <ele>481.90</ele>
        <time>2015-01-17T10:57:11Z</time>
      </trkpt>
      <trkpt lat="42.432298000" lon="-2.545807000">
        <ele>482.00</ele>
        <time>2015-01-17T10:57:12Z</time>
      </trkpt>
      <trkpt lat="42.432319000" lon="-2.545789000">
        <ele>482.10</ele>
        <time>2015-01-17T10:57:13Z</time>
      </trkpt>
      <trkpt lat="42.432338000" lon="-2.545774000">
        <ele>482.40</ele>
        <time>2015-01-17T10:57:14Z</time>
      </trkpt>
      <trkpt lat="42.432358000" lon="-2.545758000">
        <ele>482.50</ele>
        <time>2015-01-17T10:57:15Z</time>
      </trkpt>
      <trkpt lat="42.432379000" lon="-2.545742000">
        <ele>482.60</ele>
        <time>2015-01-17T10:57:16Z</time>
      </trkpt>
      <trkpt lat="42.432397000" lon="-2.545731000">
        <ele>482.70</ele>
        <time>2015-01-17T10:57:17Z</time>
      </trkpt>
      <trkpt lat="42.432418000" lon="-2.545715000">
        <ele>483.10</ele>
        <time>2015-01-17T10:57:18Z</time>
      </trkpt>
      <trkpt lat="42.432440000" lon="-2.545698000">
        <ele>483.30</ele>
        <time>2015-01-17T10:57:19Z</time>
      </trkpt>
      <trkpt lat="42.432460000" lon="-2.545682000">
        <ele>483.60</ele>
        <time>2015-01-17T10:57:20Z</time>
      </trkpt>
      <trkpt lat="42.432479000" lon="-2.545669000">
        <ele>483.70</ele>
        <time>2015-01-17T10:57:21Z</time>
      </trkpt>
      <trkpt lat="42.432501000" lon="-2.545653000">
        <ele>484.00</ele>
        <time>2015-01-17T10:57:22Z</time>
      </trkpt>
      <trkpt lat="42.432525000" lon="-2.545638000">
        <ele>484.10</ele>
        <time>2015-01-17T10:57:23Z</time>
      </trkpt>
      <trkpt lat="42.432546000" lon="-2.545622000">
        <ele>484.50</ele>
        <time>2015-01-17T10:57:24Z</time>
      </trkpt>
      <trkpt lat="42.432567000" lon="-2.545609000">
        <ele>484.70</ele>
        <time>2015-01-17T10:57:25Z</time>
      </trkpt>
      <trkpt lat="42.432588000" lon="-2.545593000">
        <ele>485.10</ele>
        <time>2015-01-17T10:57:26Z</time>
      </trkpt>
      <trkpt lat="42.432611000" lon="-2.545578000">
        <ele>485.30</ele>
        <time>2015-01-17T10:57:27Z</time>
      </trkpt>
      <trkpt lat="42.432628000" lon="-2.545563000">
        <ele>485.50</ele>
        <time>2015-01-17T10:57:28Z</time>
      </trkpt>
      <trkpt lat="42.432650000" lon="-2.545548000">
        <ele>485.70</ele>
        <time>2015-01-17T10:57:29Z</time>
      </trkpt>
      <trkpt lat="42.432671000" lon="-2.545534000">
        <ele>485.90</ele>
        <time>2015-01-17T10:57:30Z</time>
      </trkpt>
      <trkpt lat="42.432694000" lon="-2.545520000">
        <ele>486.00</ele>
        <time>2015-01-17T10:57:31Z</time>
      </trkpt>
      <trkpt lat="42.432714000" lon="-2.545505000">
        <ele>486.20</ele>
        <time>2015-01-17T10:57:32Z</time>
      </trkpt>
      <trkpt lat="42.432738000" lon="-2.545488000">
        <ele>486.30</ele>
        <time>2015-01-17T10:57:33Z</time>
      </trkpt>
      <trkpt lat="42.432759000" lon="-2.545476000">
        <ele>486.60</ele>
        <time>2015-01-17T10:57:34Z</time>
      </trkpt>
      <trkpt lat="42.432778000" lon="-2.545463000">
        <ele>486.80</ele>
        <time>2015-01-17T10:57:35Z</time>
      </trkpt>
      <trkpt lat="42.432801000" lon="-2.545450000">
        <ele>487.00</ele>
        <time>2015-01-17T10:57:36Z</time>
      </trkpt>
      <trkpt lat="42.432826000" lon="-2.545433000">
        <ele>487.20</ele>
        <time>2015-01-17T10:57:37Z</time>
      </trkpt>
      <trkpt lat="42.432848000" lon="-2.545420000">
        <ele>487.40</ele>
        <time>2015-01-17T10:57:38Z</time>
      </trkpt>
      <trkpt lat="42.432872000" lon="-2.545406000">
        <ele>487.50</ele>
        <time>2015-01-17T10:57:39Z</time>
      </trkpt>
      <trkpt lat="42.432896000" lon="-2.545394000">
        <ele>487.50</ele>
        <time>2015-01-17T10:57:40Z</time>
      </trkpt>
      <trkpt lat="42.432918000" lon="-2.545374000">
        <ele>487.60</ele>
        <time>2015-01-17T10:57:41Z</time>
      </trkpt>
      <trkpt lat="42.432942000" lon="-2.545358000">
        <ele>487.60</ele>
        <time>2015-01-17T10:57:42Z</time>
      </trkpt>
      <trkpt lat="42.432961000" lon="-2.545342000">
        <ele>487.70</ele>
        <time>2015-01-17T10:57:43Z</time>
      </trkpt>
      <trkpt lat="42.432982000" lon="-2.545327000">
        <ele>487.80</ele>
        <time>2015-01-17T10:57:44Z</time>
      </trkpt>
      <trkpt lat="42.433008000" lon="-2.545308000">
        <ele>487.90</ele>
        <time>2015-01-17T10:57:45Z</time>
      </trkpt>
      <trkpt lat="42.433035000" lon="-2.545296000">
        <ele>488.00</ele>
        <time>2015-01-17T10:57:46Z</time>
      </trkpt>
      <trkpt lat="42.433058000" lon="-2.545276000">
        <ele>488.10</ele>
        <time>2015-01-17T10:57:47Z</time>
      </trkpt>
      <trkpt lat="42.433084000" lon="-2.545263000">
        <ele>488.10</ele>
        <time>2015-01-17T10:57:48Z</time>
      </trkpt>
      <trkpt lat="42.433108000" lon="-2.545245000">
        <ele>488.20</ele>
        <time>2015-01-17T10:57:49Z</time>
      </trkpt>
      <trkpt lat="42.433133000" lon="-2.545224000">
        <ele>488.30</ele>
        <time>2015-01-17T10:57:50Z</time>
      </trkpt>
      <trkpt lat="42.433159000" lon="-2.545203000">
        <ele>488.30</ele>
        <time>2015-01-17T10:57:51Z</time>
      </trkpt>
      <trkpt lat="42.433185000" lon="-2.545182000">
        <ele>488.40</ele>
        <time>2015-01-17T10:57:52Z</time>
      </trkpt>
      <trkpt lat="42.433212000" lon="-2.545163000">
        <ele>488.40</ele>
        <time>2015-01-17T10:57:53Z</time>
      </trkpt>
      <trkpt lat="42.433238000" lon="-2.545144000">
        <ele>488.50</ele>
        <time>2015-01-17T10:57:54Z</time>
      </trkpt>
      <trkpt lat="42.433267000" lon="-2.545125000">
        <ele>488.50</ele>
        <time>2015-01-17T10:57:55Z</time>
      </trkpt>
      <trkpt lat="42.433297000" lon="-2.545105000">
        <ele>488.60</ele>
        <time>2015-01-17T10:57:56Z</time>
      </trkpt>
      <trkpt lat="42.433327000" lon="-2.545080000">
        <ele>488.70</ele>
        <time>2015-01-17T10:57:57Z</time>
      </trkpt>
      <trkpt lat="42.433357000" lon="-2.545052000">
        <ele>488.60</ele>
        <time>2015-01-17T10:57:58Z</time>
      </trkpt>
      <trkpt lat="42.433385000" lon="-2.545010000">
        <ele>488.50</ele>
        <time>2015-01-17T10:57:59Z</time>
      </trkpt>
      <trkpt lat="42.433403000" lon="-2.544953000">
        <ele>488.40</ele>
        <time>2015-01-17T10:58:00Z</time>
      </trkpt>
      <trkpt lat="42.433408000" lon="-2.544892000">
        <ele>488.40</ele>
        <time>2015-01-17T10:58:01Z</time>
      </trkpt>
      <trkpt lat="42.433407000" lon="-2.544835000">
        <ele>488.10</ele>
        <time>2015-01-17T10:58:02Z</time>
      </trkpt>
      <trkpt lat="42.433403000" lon="-2.544778000">
        <ele>488.00</ele>
        <time>2015-01-17T10:58:03Z</time>
      </trkpt>
      <trkpt lat="42.433400000" lon="-2.544719000">
        <ele>487.80</ele>
        <time>2015-01-17T10:58:04Z</time>
      </trkpt>
      <trkpt lat="42.433389000" lon="-2.544599000">
        <ele>487.40</ele>
        <time>2015-01-17T10:58:06Z</time>
      </trkpt>
      <trkpt lat="42.433387000" lon="-2.544536000">
        <ele>487.20</ele>
        <time>2015-01-17T10:58:07Z</time>
      </trkpt>
      <trkpt lat="42.433385000" lon="-2.544472000">
        <ele>487.00</ele>
        <time>2015-01-17T10:58:08Z</time>
      </trkpt>
      <trkpt lat="42.433386000" lon="-2.544401000">
        <ele>486.80</ele>
        <time>2015-01-17T10:58:09Z</time>
      </trkpt>
      <trkpt lat="42.433388000" lon="-2.544325000">
        <ele>486.70</ele>
        <time>2015-01-17T10:58:10Z</time>
      </trkpt>
      <trkpt lat="42.433397000" lon="-2.544247000">
        <ele>486.50</ele>
        <time>2015-01-17T10:58:11Z</time>
      </trkpt>
      <trkpt lat="42.433411000" lon="-2.544166000">
        <ele>486.40</ele>
        <time>2015-01-17T10:58:12Z</time>
      </trkpt>
      <trkpt lat="42.433432000" lon="-2.544087000">
        <ele>486.20</ele>
        <time>2015-01-17T10:58:13Z</time>
      </trkpt>
      <trkpt lat="42.433462000" lon="-2.544011000">
        <ele>486.10</ele>
        <time>2015-01-17T10:58:14Z</time>
      </trkpt>
      <trkpt lat="42.433496000" lon="-2.543933000">
        <ele>486.10</ele>
        <time>2015-01-17T10:58:15Z</time>
      </trkpt>
      <trkpt lat="42.433534000" lon="-2.543860000">
        <ele>485.70</ele>
        <time>2015-01-17T10:58:16Z</time>
      </trkpt>
      <trkpt lat="42.433577000" lon="-2.543791000">
        <ele>485.40</ele>
        <time>2015-01-17T10:58:17Z</time>
      </trkpt>
      <trkpt lat="42.433622000" lon="-2.543725000">
        <ele>484.80</ele>
        <time>2015-01-17T10:58:18Z</time>
      </trkpt>
      <trkpt lat="42.433670000" lon="-2.543654000">
        <ele>484.40</ele>
        <time>2015-01-17T10:58:19Z</time>
      </trkpt>
      <trkpt lat="42.433718000" lon="-2.543585000">
        <ele>483.70</ele>
        <time>2015-01-17T10:58:20Z</time>
      </trkpt>
      <trkpt lat="42.433766000" lon="-2.543523000">
        <ele>483.20</ele>
        <time>2015-01-17T10:58:21Z</time>
      </trkpt>
      <trkpt lat="42.433816000" lon="-2.543461000">
        <ele>482.70</ele>
        <time>2015-01-17T10:58:22Z</time>
      </trkpt>
      <trkpt lat="42.433864000" lon="-2.543399000">
        <ele>482.40</ele>
        <time>2015-01-17T10:58:23Z</time>
      </trkpt>
      <trkpt lat="42.433909000" lon="-2.543340000">
        <ele>482.40</ele>
        <time>2015-01-17T10:58:24Z</time>
      </trkpt>
      <trkpt lat="42.433952000" lon="-2.543283000">
        <ele>482.40</ele>
        <time>2015-01-17T10:58:25Z</time>
      </trkpt>
      <trkpt lat="42.433994000" lon="-2.543230000">
        <ele>482.30</ele>
        <time>2015-01-17T10:58:26Z</time>
      </trkpt>
      <trkpt lat="42.434031000" lon="-2.543181000">
        <ele>482.30</ele>
        <time>2015-01-17T10:58:27Z</time>
      </trkpt>
      <trkpt lat="42.434066000" lon="-2.543131000">
        <ele>482.10</ele>
        <time>2015-01-17T10:58:28Z</time>
      </trkpt>
      <trkpt lat="42.434100000" lon="-2.543086000">
        <ele>482.00</ele>
        <time>2015-01-17T10:58:29Z</time>
      </trkpt>
      <trkpt lat="42.434134000" lon="-2.543043000">
        <ele>481.90</ele>
        <time>2015-01-17T10:58:30Z</time>
      </trkpt>
      <trkpt lat="42.434167000" lon="-2.543000000">
        <ele>481.80</ele>
        <time>2015-01-17T10:58:31Z</time>
      </trkpt>
      <trkpt lat="42.434198000" lon="-2.542956000">
        <ele>481.80</ele>
        <time>2015-01-17T10:58:32Z</time>
      </trkpt>
      <trkpt lat="42.434229000" lon="-2.542916000">
        <ele>481.90</ele>
        <time>2015-01-17T10:58:33Z</time>
      </trkpt>
      <trkpt lat="42.434260000" lon="-2.542876000">
        <ele>481.90</ele>
        <time>2015-01-17T10:58:34Z</time>
      </trkpt>
      <trkpt lat="42.434291000" lon="-2.542838000">
        <ele>481.90</ele>
        <time>2015-01-17T10:58:35Z</time>
      </trkpt>
      <trkpt lat="42.434322000" lon="-2.542801000">
        <ele>482.00</ele>
        <time>2015-01-17T10:58:36Z</time>
      </trkpt>
      <trkpt lat="42.434350000" lon="-2.542764000">
        <ele>482.10</ele>
        <time>2015-01-17T10:58:37Z</time>
      </trkpt>
      <trkpt lat="42.434377000" lon="-2.542727000">
        <ele>482.20</ele>
        <time>2015-01-17T10:58:38Z</time>
      </trkpt>
      <trkpt lat="42.434405000" lon="-2.542691000">
        <ele>482.20</ele>
        <time>2015-01-17T10:58:39Z</time>
      </trkpt>
      <trkpt lat="42.434435000" lon="-2.542657000">
        <ele>482.30</ele>
        <time>2015-01-17T10:58:40Z</time>
      </trkpt>
      <trkpt lat="42.434463000" lon="-2.542624000">
        <ele>482.40</ele>
        <time>2015-01-17T10:58:41Z</time>
      </trkpt>
      <trkpt lat="42.434494000" lon="-2.542592000">
        <ele>482.40</ele>
        <time>2015-01-17T10:58:42Z</time>
      </trkpt>
      <trkpt lat="42.434523000" lon="-2.542556000">
        <ele>482.40</ele>
        <time>2015-01-17T10:58:43Z</time>
      </trkpt>
      <trkpt lat="42.434552000" lon="-2.542521000">
        <ele>482.60</ele>
        <time>2015-01-17T10:58:44Z</time>
      </trkpt>
      <trkpt lat="42.434580000" lon="-2.542486000">
        <ele>482.70</ele>
        <time>2015-01-17T10:58:45Z</time>
      </trkpt>
      <trkpt lat="42.434608000" lon="-2.542448000">
        <ele>482.90</ele>
        <time>2015-01-17T10:58:46Z</time>
      </trkpt>
      <trkpt lat="42.434634000" lon="-2.542410000">
        <ele>483.00</ele>
        <time>2015-01-17T10:58:47Z</time>
      </trkpt>
      <trkpt lat="42.434660000" lon="-2.542375000">
        <ele>483.20</ele>
        <time>2015-01-17T10:58:48Z</time>
      </trkpt>
      <trkpt lat="42.434684000" lon="-2.542337000">
        <ele>483.30</ele>
        <time>2015-01-17T10:58:49Z</time>
      </trkpt>
      <trkpt lat="42.434706000" lon="-2.542305000">
        <ele>483.60</ele>
        <time>2015-01-17T10:58:50Z</time>
      </trkpt>
      <trkpt lat="42.434725000" lon="-2.542272000">
        <ele>483.80</ele>
        <time>2015-01-17T10:58:51Z</time>
      </trkpt>
      <trkpt lat="42.434745000" lon="-2.542236000">
        <ele>484.00</ele>
        <time>2015-01-17T10:58:52Z</time>
      </trkpt>
      <trkpt lat="42.434763000" lon="-2.542202000">
        <ele>484.20</ele>
        <time>2015-01-17T10:58:53Z</time>
      </trkpt>
      <trkpt lat="42.434779000" lon="-2.542166000">
        <ele>484.30</ele>
        <time>2015-01-17T10:58:54Z</time>
      </trkpt>
      <trkpt lat="42.434795000" lon="-2.542135000">
        <ele>484.30</ele>
        <time>2015-01-17T10:58:55Z</time>
      </trkpt>
      <trkpt lat="42.434810000" lon="-2.542104000">
        <ele>484.40</ele>
        <time>2015-01-17T10:58:56Z</time>
      </trkpt>
      <trkpt lat="42.434824000" lon="-2.542073000">
        <ele>484.50</ele>
        <time>2015-01-17T10:58:57Z</time>
      </trkpt>
      <trkpt lat="42.434836000" lon="-2.542039000">
        <ele>484.60</ele>
        <time>2015-01-17T10:58:58Z</time>
      </trkpt>
      <trkpt lat="42.434851000" lon="-2.542006000">
        <ele>484.60</ele>
        <time>2015-01-17T10:58:59Z</time>
      </trkpt>
      <trkpt lat="42.434865000" lon="-2.541972000">
        <ele>484.70</ele>
        <time>2015-01-17T10:59:00Z</time>
      </trkpt>
      <trkpt lat="42.434878000" lon="-2.541938000">
        <ele>484.80</ele>
        <time>2015-01-17T10:59:01Z</time>
      </trkpt>
      <trkpt lat="42.434891000" lon="-2.541906000">
        <ele>485.00</ele>
        <time>2015-01-17T10:59:02Z</time>
      </trkpt>
      <trkpt lat="42.434905000" lon="-2.541875000">
        <ele>485.10</ele>
        <time>2015-01-17T10:59:03Z</time>
      </trkpt>
      <trkpt lat="42.434921000" lon="-2.541847000">
        <ele>485.30</ele>
        <time>2015-01-17T10:59:04Z</time>
      </trkpt>
      <trkpt lat="42.434935000" lon="-2.541816000">
        <ele>485.40</ele>
        <time>2015-01-17T10:59:05Z</time>
      </trkpt>
      <trkpt lat="42.434946000" lon="-2.541790000">
        <ele>485.40</ele>
        <time>2015-01-17T10:59:06Z</time>
      </trkpt>
      <trkpt lat="42.434968000" lon="-2.541735000">
        <ele>485.70</ele>
        <time>2015-01-17T10:59:08Z</time>
      </trkpt>
      <trkpt lat="42.434980000" lon="-2.541713000">
        <ele>485.90</ele>
        <time>2015-01-17T10:59:09Z</time>
      </trkpt>
      <trkpt lat="42.434990000" lon="-2.541686000">
        <ele>486.10</ele>
        <time>2015-01-17T10:59:10Z</time>
      </trkpt>
      <trkpt lat="42.435002000" lon="-2.541654000">
        <ele>486.30</ele>
        <time>2015-01-17T10:59:11Z</time>
      </trkpt>
      <trkpt lat="42.435013000" lon="-2.541618000">
        <ele>486.50</ele>
        <time>2015-01-17T10:59:12Z</time>
      </trkpt>
      <trkpt lat="42.435024000" lon="-2.541582000">
        <ele>486.70</ele>
        <time>2015-01-17T10:59:13Z</time>
      </trkpt>
      <trkpt lat="42.435034000" lon="-2.541544000">
        <ele>487.00</ele>
        <time>2015-01-17T10:59:14Z</time>
      </trkpt>
      <trkpt lat="42.435047000" lon="-2.541508000">
        <ele>487.30</ele>
        <time>2015-01-17T10:59:15Z</time>
      </trkpt>
      <trkpt lat="42.435059000" lon="-2.541467000">
        <ele>487.50</ele>
        <time>2015-01-17T10:59:16Z</time>
      </trkpt>
      <trkpt lat="42.435074000" lon="-2.541435000">
        <ele>487.60</ele>
        <time>2015-01-17T10:59:17Z</time>
      </trkpt>
      <trkpt lat="42.435089000" lon="-2.541402000">
        <ele>487.90</ele>
        <time>2015-01-17T10:59:18Z</time>
      </trkpt>
      <trkpt lat="42.435105000" lon="-2.541371000">
        <ele>488.10</ele>
        <time>2015-01-17T10:59:19Z</time>
      </trkpt>
      <trkpt lat="42.435121000" lon="-2.541344000">
        <ele>488.40</ele>
        <time>2015-01-17T10:59:20Z</time>
      </trkpt>
      <trkpt lat="42.435139000" lon="-2.541317000">
        <ele>488.60</ele>
        <time>2015-01-17T10:59:21Z</time>
      </trkpt>
      <trkpt lat="42.435158000" lon="-2.541289000">
        <ele>488.80</ele>
        <time>2015-01-17T10:59:22Z</time>
      </trkpt>
      <trkpt lat="42.435178000" lon="-2.541260000">
        <ele>488.90</ele>
        <time>2015-01-17T10:59:23Z</time>
      </trkpt>
      <trkpt lat="42.435196000" lon="-2.541231000">
        <ele>489.20</ele>
        <time>2015-01-17T10:59:24Z</time>
      </trkpt>
      <trkpt lat="42.435215000" lon="-2.541202000">
        <ele>489.40</ele>
        <time>2015-01-17T10:59:25Z</time>
      </trkpt>
      <trkpt lat="42.435235000" lon="-2.541173000">
        <ele>489.50</ele>
        <time>2015-01-17T10:59:26Z</time>
      </trkpt>
      <trkpt lat="42.435251000" lon="-2.541142000">
        <ele>489.60</ele>
        <time>2015-01-17T10:59:27Z</time>
      </trkpt>
      <trkpt lat="42.435267000" lon="-2.541114000">
        <ele>489.90</ele>
        <time>2015-01-17T10:59:28Z</time>
      </trkpt>
      <trkpt lat="42.435285000" lon="-2.541088000">
        <ele>490.10</ele>
        <time>2015-01-17T10:59:29Z</time>
      </trkpt>
      <trkpt lat="42.435305000" lon="-2.541064000">
        <ele>490.50</ele>
        <time>2015-01-17T10:59:30Z</time>
      </trkpt>
      <trkpt lat="42.435325000" lon="-2.541036000">
        <ele>490.80</ele>
        <time>2015-01-17T10:59:31Z</time>
      </trkpt>
      <trkpt lat="42.435345000" lon="-2.541009000">
        <ele>491.20</ele>
        <time>2015-01-17T10:59:32Z</time>
      </trkpt>
      <trkpt lat="42.435364000" lon="-2.540981000">
        <ele>491.60</ele>
        <time>2015-01-17T10:59:33Z</time>
      </trkpt>
      <trkpt lat="42.435384000" lon="-2.540953000">
        <ele>491.80</ele>
        <time>2015-01-17T10:59:34Z</time>
      </trkpt>
      <trkpt lat="42.435406000" lon="-2.540925000">
        <ele>492.00</ele>
        <time>2015-01-17T10:59:35Z</time>
      </trkpt>
      <trkpt lat="42.435425000" lon="-2.540895000">
        <ele>492.10</ele>
        <time>2015-01-17T10:59:36Z</time>
      </trkpt>
      <trkpt lat="42.435452000" lon="-2.540868000">
        <ele>492.20</ele>
        <time>2015-01-17T10:59:37Z</time>
      </trkpt>
      <trkpt lat="42.435479000" lon="-2.540837000">
        <ele>492.50</ele>
        <time>2015-01-17T10:59:38Z</time>
      </trkpt>
      <trkpt lat="42.435501000" lon="-2.540806000">
        <ele>492.80</ele>
        <time>2015-01-17T10:59:39Z</time>
      </trkpt>
      <trkpt lat="42.435521000" lon="-2.540772000">
        <ele>493.10</ele>
        <time>2015-01-17T10:59:40Z</time>
      </trkpt>
      <trkpt lat="42.435542000" lon="-2.540741000">
        <ele>493.30</ele>
        <time>2015-01-17T10:59:41Z</time>
      </trkpt>
      <trkpt lat="42.435561000" lon="-2.540708000">
        <ele>493.50</ele>
        <time>2015-01-17T10:59:42Z</time>
      </trkpt>
      <trkpt lat="42.435582000" lon="-2.540675000">
        <ele>493.60</ele>
        <time>2015-01-17T10:59:43Z</time>
      </trkpt>
      <trkpt lat="42.435605000" lon="-2.540645000">
        <ele>493.80</ele>
        <time>2015-01-17T10:59:44Z</time>
      </trkpt>
      <trkpt lat="42.435627000" lon="-2.540611000">
        <ele>493.90</ele>
        <time>2015-01-17T10:59:45Z</time>
      </trkpt>
      <trkpt lat="42.435650000" lon="-2.540579000">
        <ele>494.00</ele>
        <time>2015-01-17T10:59:46Z</time>
      </trkpt>
      <trkpt lat="42.435673000" lon="-2.540548000">
        <ele>494.10</ele>
        <time>2015-01-17T10:59:47Z</time>
      </trkpt>
      <trkpt lat="42.435694000" lon="-2.540518000">
        <ele>494.10</ele>
        <time>2015-01-17T10:59:48Z</time>
      </trkpt>
      <trkpt lat="42.435714000" lon="-2.540490000">
        <ele>494.10</ele>
        <time>2015-01-17T10:59:49Z</time>
      </trkpt>
      <trkpt lat="42.435733000" lon="-2.540464000">
        <ele>494.10</ele>
        <time>2015-01-17T10:59:50Z</time>
      </trkpt>
      <trkpt lat="42.435753000" lon="-2.540437000">
        <ele>494.10</ele>
        <time>2015-01-17T10:59:51Z</time>
      </trkpt>
      <trkpt lat="42.435773000" lon="-2.540411000">
        <ele>494.10</ele>
        <time>2015-01-17T10:59:52Z</time>
      </trkpt>
      <trkpt lat="42.435791000" lon="-2.540379000">
        <ele>494.00</ele>
        <time>2015-01-17T10:59:53Z</time>
      </trkpt>
      <trkpt lat="42.435812000" lon="-2.540345000">
        <ele>494.10</ele>
        <time>2015-01-17T10:59:54Z</time>
      </trkpt>
      <trkpt lat="42.435836000" lon="-2.540315000">
        <ele>494.20</ele>
        <time>2015-01-17T10:59:55Z</time>
      </trkpt>
      <trkpt lat="42.435858000" lon="-2.540285000">
        <ele>494.30</ele>
        <time>2015-01-17T10:59:56Z</time>
      </trkpt>
      <trkpt lat="42.435881000" lon="-2.540252000">
        <ele>494.30</ele>
        <time>2015-01-17T10:59:57Z</time>
      </trkpt>
      <trkpt lat="42.435904000" lon="-2.540218000">
        <ele>494.50</ele>
        <time>2015-01-17T10:59:58Z</time>
      </trkpt>
      <trkpt lat="42.435924000" lon="-2.540185000">
        <ele>494.70</ele>
        <time>2015-01-17T10:59:59Z</time>
      </trkpt>
      <trkpt lat="42.435945000" lon="-2.540152000">
        <ele>494.90</ele>
        <time>2015-01-17T11:00:00Z</time>
      </trkpt>
      <trkpt lat="42.435965000" lon="-2.540122000">
        <ele>495.00</ele>
        <time>2015-01-17T11:00:01Z</time>
      </trkpt>
      <trkpt lat="42.435983000" lon="-2.540094000">
        <ele>495.30</ele>
        <time>2015-01-17T11:00:02Z</time>
      </trkpt>
      <trkpt lat="42.436002000" lon="-2.540063000">
        <ele>495.60</ele>
        <time>2015-01-17T11:00:03Z</time>
      </trkpt>
      <trkpt lat="42.436023000" lon="-2.540034000">
        <ele>495.80</ele>
        <time>2015-01-17T11:00:04Z</time>
      </trkpt>
      <trkpt lat="42.436045000" lon="-2.540006000">
        <ele>495.90</ele>
        <time>2015-01-17T11:00:05Z</time>
      </trkpt>
      <trkpt lat="42.436066000" lon="-2.539976000">
        <ele>496.10</ele>
        <time>2015-01-17T11:00:06Z</time>
      </trkpt>
      <trkpt lat="42.436085000" lon="-2.539946000">
        <ele>496.30</ele>
        <time>2015-01-17T11:00:07Z</time>
      </trkpt>
      <trkpt lat="42.436106000" lon="-2.539918000">
        <ele>496.40</ele>
        <time>2015-01-17T11:00:08Z</time>
      </trkpt>
      <trkpt lat="42.436146000" lon="-2.539867000">
        <ele>496.70</ele>
        <time>2015-01-17T11:00:10Z</time>
      </trkpt>
      <trkpt lat="42.436167000" lon="-2.539838000">
        <ele>496.90</ele>
        <time>2015-01-17T11:00:11Z</time>
      </trkpt>
      <trkpt lat="42.436185000" lon="-2.539813000">
        <ele>497.20</ele>
        <time>2015-01-17T11:00:12Z</time>
      </trkpt>
      <trkpt lat="42.436208000" lon="-2.539785000">
        <ele>497.40</ele>
        <time>2015-01-17T11:00:13Z</time>
      </trkpt>
      <trkpt lat="42.436229000" lon="-2.539761000">
        <ele>497.50</ele>
        <time>2015-01-17T11:00:14Z</time>
      </trkpt>
      <trkpt lat="42.436249000" lon="-2.539740000">
        <ele>497.60</ele>
        <time>2015-01-17T11:00:15Z</time>
      </trkpt>
      <trkpt lat="42.436271000" lon="-2.539719000">
        <ele>497.80</ele>
        <time>2015-01-17T11:00:16Z</time>
      </trkpt>
      <trkpt lat="42.436293000" lon="-2.539699000">
        <ele>497.90</ele>
        <time>2015-01-17T11:00:17Z</time>
      </trkpt>
      <trkpt lat="42.436315000" lon="-2.539678000">
        <ele>498.00</ele>
        <time>2015-01-17T11:00:18Z</time>
      </trkpt>
      <trkpt lat="42.436338000" lon="-2.539651000">
        <ele>498.10</ele>
        <time>2015-01-17T11:00:19Z</time>
      </trkpt>
      <trkpt lat="42.436357000" lon="-2.539626000">
        <ele>498.30</ele>
        <time>2015-01-17T11:00:20Z</time>
      </trkpt>
      <trkpt lat="42.436376000" lon="-2.539609000">
        <ele>498.60</ele>
        <time>2015-01-17T11:00:21Z</time>
      </trkpt>
      <trkpt lat="42.436399000" lon="-2.539591000">
        <ele>499.00</ele>
        <time>2015-01-17T11:00:22Z</time>
      </trkpt>
      <trkpt lat="42.436422000" lon="-2.539568000">
        <ele>499.40</ele>
        <time>2015-01-17T11:00:23Z</time>
      </trkpt>
      <trkpt lat="42.436444000" lon="-2.539543000">
        <ele>499.70</ele>
        <time>2015-01-17T11:00:24Z</time>
      </trkpt>
      <trkpt lat="42.436468000" lon="-2.539519000">
        <ele>499.90</ele>
        <time>2015-01-17T11:00:25Z</time>
      </trkpt>
      <trkpt lat="42.436489000" lon="-2.539498000">
        <ele>500.30</ele>
        <time>2015-01-17T11:00:26Z</time>
      </trkpt>
      <trkpt lat="42.436511000" lon="-2.539484000">
        <ele>500.50</ele>
        <time>2015-01-17T11:00:27Z</time>
      </trkpt>
      <trkpt lat="42.436534000" lon="-2.539468000">
        <ele>500.80</ele>
        <time>2015-01-17T11:00:28Z</time>
      </trkpt>
      <trkpt lat="42.436560000" lon="-2.539451000">
        <ele>500.90</ele>
        <time>2015-01-17T11:00:29Z</time>
      </trkpt>
      <trkpt lat="42.436588000" lon="-2.539434000">
        <ele>501.20</ele>
        <time>2015-01-17T11:00:30Z</time>
      </trkpt>
      <trkpt lat="42.436615000" lon="-2.539417000">
        <ele>501.40</ele>
        <time>2015-01-17T11:00:31Z</time>
      </trkpt>
      <trkpt lat="42.436644000" lon="-2.539401000">
        <ele>501.50</ele>
        <time>2015-01-17T11:00:32Z</time>
      </trkpt>
      <trkpt lat="42.436671000" lon="-2.539389000">
        <ele>501.70</ele>
        <time>2015-01-17T11:00:33Z</time>
      </trkpt>
      <trkpt lat="42.436696000" lon="-2.539372000">
        <ele>502.10</ele>
        <time>2015-01-17T11:00:34Z</time>
      </trkpt>
      <trkpt lat="42.436722000" lon="-2.539356000">
        <ele>502.50</ele>
        <time>2015-01-17T11:00:35Z</time>
      </trkpt>
      <trkpt lat="42.436747000" lon="-2.539341000">
        <ele>502.80</ele>
        <time>2015-01-17T11:00:36Z</time>
      </trkpt>
      <trkpt lat="42.436775000" lon="-2.539325000">
        <ele>503.00</ele>
        <time>2015-01-17T11:00:37Z</time>
      </trkpt>
      <trkpt lat="42.436802000" lon="-2.539306000">
        <ele>503.40</ele>
        <time>2015-01-17T11:00:38Z</time>
      </trkpt>
      <trkpt lat="42.436829000" lon="-2.539286000">
        <ele>503.60</ele>
        <time>2015-01-17T11:00:39Z</time>
      </trkpt>
      <trkpt lat="42.436855000" lon="-2.539263000">
        <ele>503.90</ele>
        <time>2015-01-17T11:00:40Z</time>
      </trkpt>
      <trkpt lat="42.436881000" lon="-2.539240000">
        <ele>504.00</ele>
        <time>2015-01-17T11:00:41Z</time>
      </trkpt>
      <trkpt lat="42.436906000" lon="-2.539214000">
        <ele>504.20</ele>
        <time>2015-01-17T11:00:42Z</time>
      </trkpt>
      <trkpt lat="42.436929000" lon="-2.539189000">
        <ele>504.40</ele>
        <time>2015-01-17T11:00:43Z</time>
      </trkpt>
      <trkpt lat="42.436953000" lon="-2.539161000">
        <ele>504.60</ele>
        <time>2015-01-17T11:00:44Z</time>
      </trkpt>
      <trkpt lat="42.436978000" lon="-2.539133000">
        <ele>504.80</ele>
        <time>2015-01-17T11:00:45Z</time>
      </trkpt>
      <trkpt lat="42.437002000" lon="-2.539102000">
        <ele>504.90</ele>
        <time>2015-01-17T11:00:46Z</time>
      </trkpt>
      <trkpt lat="42.437028000" lon="-2.539071000">
        <ele>505.00</ele>
        <time>2015-01-17T11:00:47Z</time>
      </trkpt>
      <trkpt lat="42.437055000" lon="-2.539039000">
        <ele>505.20</ele>
        <time>2015-01-17T11:00:48Z</time>
      </trkpt>
      <trkpt lat="42.437082000" lon="-2.539007000">
        <ele>505.30</ele>
        <time>2015-01-17T11:00:49Z</time>
      </trkpt>
      <trkpt lat="42.437109000" lon="-2.538975000">
        <ele>505.40</ele>
        <time>2015-01-17T11:00:50Z</time>
      </trkpt>
      <trkpt lat="42.437136000" lon="-2.538942000">
        <ele>505.40</ele>
        <time>2015-01-17T11:00:51Z</time>
      </trkpt>
      <trkpt lat="42.437164000" lon="-2.538905000">
        <ele>505.40</ele>
        <time>2015-01-17T11:00:52Z</time>
      </trkpt>
      <trkpt lat="42.437190000" lon="-2.538864000">
        <ele>505.40</ele>
        <time>2015-01-17T11:00:53Z</time>
      </trkpt>
      <trkpt lat="42.437218000" lon="-2.538824000">
        <ele>505.30</ele>
        <time>2015-01-17T11:00:54Z</time>
      </trkpt>
      <trkpt lat="42.437245000" lon="-2.538786000">
        <ele>505.20</ele>
        <time>2015-01-17T11:00:55Z</time>
      </trkpt>
      <trkpt lat="42.437273000" lon="-2.538746000">
        <ele>505.10</ele>
        <time>2015-01-17T11:00:56Z</time>
      </trkpt>
      <trkpt lat="42.437300000" lon="-2.538705000">
        <ele>505.10</ele>
        <time>2015-01-17T11:00:57Z</time>
      </trkpt>
      <trkpt lat="42.437328000" lon="-2.538662000">
        <ele>504.90</ele>
        <time>2015-01-17T11:00:58Z</time>
      </trkpt>
      <trkpt lat="42.437356000" lon="-2.538621000">
        <ele>504.80</ele>
        <time>2015-01-17T11:00:59Z</time>
      </trkpt>
      <trkpt lat="42.437386000" lon="-2.538578000">
        <ele>504.80</ele>
        <time>2015-01-17T11:01:00Z</time>
      </trkpt>
      <trkpt lat="42.437417000" lon="-2.538533000">
        <ele>504.70</ele>
        <time>2015-01-17T11:01:01Z</time>
      </trkpt>
      <trkpt lat="42.437450000" lon="-2.538490000">
        <ele>504.60</ele>
        <time>2015-01-17T11:01:02Z</time>
      </trkpt>
      <trkpt lat="42.437481000" lon="-2.538444000">
        <ele>504.60</ele>
        <time>2015-01-17T11:01:03Z</time>
      </trkpt>
      <trkpt lat="42.437512000" lon="-2.538399000">
        <ele>504.50</ele>
        <time>2015-01-17T11:01:04Z</time>
      </trkpt>
      <trkpt lat="42.437541000" lon="-2.538349000">
        <ele>504.40</ele>
        <time>2015-01-17T11:01:05Z</time>
      </trkpt>
      <trkpt lat="42.437566000" lon="-2.538292000">
        <ele>504.40</ele>
        <time>2015-01-17T11:01:06Z</time>
      </trkpt>
      <trkpt lat="42.437585000" lon="-2.538236000">
        <ele>504.30</ele>
        <time>2015-01-17T11:01:07Z</time>
      </trkpt>
      <trkpt lat="42.437599000" lon="-2.538183000">
        <ele>504.20</ele>
        <time>2015-01-17T11:01:08Z</time>
      </trkpt>
      <trkpt lat="42.437612000" lon="-2.538128000">
        <ele>504.10</ele>
        <time>2015-01-17T11:01:09Z</time>
      </trkpt>
      <trkpt lat="42.437626000" lon="-2.538068000">
        <ele>503.80</ele>
        <time>2015-01-17T11:01:10Z</time>
      </trkpt>
      <trkpt lat="42.437666000" lon="-2.537946000">
        <ele>503.50</ele>
        <time>2015-01-17T11:01:12Z</time>
      </trkpt>
      <trkpt lat="42.437691000" lon="-2.537888000">
        <ele>503.40</ele>
        <time>2015-01-17T11:01:13Z</time>
      </trkpt>
      <trkpt lat="42.437721000" lon="-2.537834000">
        <ele>503.20</ele>
        <time>2015-01-17T11:01:14Z</time>
      </trkpt>
      <trkpt lat="42.437747000" lon="-2.537774000">
        <ele>503.10</ele>
        <time>2015-01-17T11:01:15Z</time>
      </trkpt>
      <trkpt lat="42.437768000" lon="-2.537713000">
        <ele>502.90</ele>
        <time>2015-01-17T11:01:16Z</time>
      </trkpt>
      <trkpt lat="42.437788000" lon="-2.537653000">
        <ele>502.80</ele>
        <time>2015-01-17T11:01:17Z</time>
      </trkpt>
      <trkpt lat="42.437809000" lon="-2.537607000">
        <ele>502.60</ele>
        <time>2015-01-17T11:01:18Z</time>
      </trkpt>
      <trkpt lat="42.437831000" lon="-2.537560000">
        <ele>502.30</ele>
        <time>2015-01-17T11:01:19Z</time>
      </trkpt>
      <trkpt lat="42.437836000" lon="-2.537501000">
        <ele>502.20</ele>
        <time>2015-01-17T11:01:20Z</time>
      </trkpt>
      <trkpt lat="42.437841000" lon="-2.537447000">
        <ele>502.10</ele>
        <time>2015-01-17T11:01:21Z</time>
      </trkpt>
      <trkpt lat="42.437850000" lon="-2.537402000">
        <ele>502.20</ele>
        <time>2015-01-17T11:01:22Z</time>
      </trkpt>
      <trkpt lat="42.437870000" lon="-2.537361000">
        <ele>502.40</ele>
        <time>2015-01-17T11:01:23Z</time>
      </trkpt>
      <trkpt lat="42.437894000" lon="-2.537328000">
        <ele>502.50</ele>
        <time>2015-01-17T11:01:24Z</time>
      </trkpt>
      <trkpt lat="42.437907000" lon="-2.537293000">
        <ele>502.50</ele>
        <time>2015-01-17T11:01:25Z</time>
      </trkpt>
      <trkpt lat="42.437927000" lon="-2.537238000">
        <ele>502.50</ele>
        <time>2015-01-17T11:01:26Z</time>
      </trkpt>
      <trkpt lat="42.437941000" lon="-2.537189000">
        <ele>502.40</ele>
        <time>2015-01-17T11:01:27Z</time>
      </trkpt>
      <trkpt lat="42.437951000" lon="-2.537144000">
        <ele>502.30</ele>
        <time>2015-01-17T11:01:28Z</time>
      </trkpt>
      <trkpt lat="42.437963000" lon="-2.537100000">
        <ele>502.20</ele>
        <time>2015-01-17T11:01:29Z</time>
      </trkpt>
      <trkpt lat="42.437987000" lon="-2.537047000">
        <ele>502.00</ele>
        <time>2015-01-17T11:01:30Z</time>
      </trkpt>
      <trkpt lat="42.438003000" lon="-2.536990000">
        <ele>501.90</ele>
        <time>2015-01-17T11:01:31Z</time>
      </trkpt>
      <trkpt lat="42.438024000" lon="-2.536931000">
        <ele>501.70</ele>
        <time>2015-01-17T11:01:32Z</time>
      </trkpt>
      <trkpt lat="42.438042000" lon="-2.536870000">
        <ele>501.50</ele>
        <time>2015-01-17T11:01:33Z</time>
      </trkpt>
      <trkpt lat="42.438058000" lon="-2.536805000">
        <ele>501.30</ele>
        <time>2015-01-17T11:01:34Z</time>
      </trkpt>
      <trkpt lat="42.438073000" lon="-2.536738000">
        <ele>501.20</ele>
        <time>2015-01-17T11:01:35Z</time>
      </trkpt>
      <trkpt lat="42.438087000" lon="-2.536672000">
        <ele>501.10</ele>
        <time>2015-01-17T11:01:36Z</time>
      </trkpt>
      <trkpt lat="42.438104000" lon="-2.536613000">
        <ele>501.00</ele>
        <time>2015-01-17T11:01:37Z</time>
      </trkpt>
      <trkpt lat="42.438122000" lon="-2.536555000">
        <ele>500.90</ele>
        <time>2015-01-17T11:01:38Z</time>
      </trkpt>
      <trkpt lat="42.438138000" lon="-2.536500000">
        <ele>500.90</ele>
        <time>2015-01-17T11:01:39Z</time>
      </trkpt>
      <trkpt lat="42.438155000" lon="-2.536446000">
        <ele>501.00</ele>
        <time>2015-01-17T11:01:40Z</time>
      </trkpt>
      <trkpt lat="42.438171000" lon="-2.536395000">
        <ele>501.10</ele>
        <time>2015-01-17T11:01:41Z</time>
      </trkpt>
      <trkpt lat="42.438186000" lon="-2.536347000">
        <ele>501.10</ele>
        <time>2015-01-17T11:01:42Z</time>
      </trkpt>
      <trkpt lat="42.438202000" lon="-2.536299000">
        <ele>501.20</ele>
        <time>2015-01-17T11:01:43Z</time>
      </trkpt>
      <trkpt lat="42.438216000" lon="-2.536253000">
        <ele>501.30</ele>
        <time>2015-01-17T11:01:44Z</time>
      </trkpt>
      <trkpt lat="42.438233000" lon="-2.536206000">
        <ele>501.40</ele>
        <time>2015-01-17T11:01:45Z</time>
      </trkpt>
      <trkpt lat="42.438251000" lon="-2.536162000">
        <ele>501.50</ele>
        <time>2015-01-17T11:01:46Z</time>
      </trkpt>
      <trkpt lat="42.438268000" lon="-2.536117000">
        <ele>501.50</ele>
        <time>2015-01-17T11:01:47Z</time>
      </trkpt>
      <trkpt lat="42.438285000" lon="-2.536076000">
        <ele>501.50</ele>
        <time>2015-01-17T11:01:48Z</time>
      </trkpt>
      <trkpt lat="42.438299000" lon="-2.536035000">
        <ele>501.60</ele>
        <time>2015-01-17T11:01:49Z</time>
      </trkpt>
      <trkpt lat="42.438314000" lon="-2.535995000">
        <ele>501.60</ele>
        <time>2015-01-17T11:01:50Z</time>
      </trkpt>
      <trkpt lat="42.438325000" lon="-2.535955000">
        <ele>501.60</ele>
        <time>2015-01-17T11:01:51Z</time>
      </trkpt>
      <trkpt lat="42.438327000" lon="-2.535915000">
        <ele>501.60</ele>
        <time>2015-01-17T11:01:52Z</time>
      </trkpt>
      <trkpt lat="42.438333000" lon="-2.535886000">
        <ele>501.50</ele>
        <time>2015-01-17T11:01:53Z</time>
      </trkpt>
      <trkpt lat="42.438339000" lon="-2.535882000">
        <ele>501.50</ele>
        <time>2015-01-17T11:01:54Z</time>
      </trkpt>
      <trkpt lat="42.438341000" lon="-2.535875000">
        <ele>501.50</ele>
        <time>2015-01-17T11:01:55Z</time>
      </trkpt>
      <trkpt lat="42.438346000" lon="-2.535873000">
        <ele>501.40</ele>
        <time>2015-01-17T11:01:56Z</time>
      </trkpt>
      <trkpt lat="42.438345000" lon="-2.535876000">
        <ele>501.40</ele>
        <time>2015-01-17T11:01:57Z</time>
      </trkpt>
      <trkpt lat="42.438343000" lon="-2.535874000">
        <ele>501.40</ele>
        <time>2015-01-17T11:01:58Z</time>
      </trkpt>
      <trkpt lat="42.438339000" lon="-2.535877000">
        <ele>501.30</ele>
        <time>2015-01-17T11:01:59Z</time>
      </trkpt>
      <trkpt lat="42.438338000" lon="-2.535874000">
        <ele>501.40</ele>
        <time>2015-01-17T11:02:00Z</time>
      </trkpt>
      <trkpt lat="42.438340000" lon="-2.535874000">
        <ele>501.50</ele>
        <time>2015-01-17T11:02:01Z</time>
      </trkpt>
      <trkpt lat="42.438335000" lon="-2.535886000">
        <ele>501.70</ele>
        <time>2015-01-17T11:02:02Z</time>
      </trkpt>
      <trkpt lat="42.438333000" lon="-2.535888000">
        <ele>501.80</ele>
        <time>2015-01-17T11:02:03Z</time>
      </trkpt>
      <trkpt lat="42.438334000" lon="-2.535890000">
        <ele>501.90</ele>
        <time>2015-01-17T11:02:04Z</time>
      </trkpt>
      <trkpt lat="42.438333000" lon="-2.535895000">
        <ele>501.90</ele>
        <time>2015-01-17T11:02:05Z</time>
      </trkpt>
      <trkpt lat="42.438332000" lon="-2.535899000">
        <ele>502.00</ele>
        <time>2015-01-17T11:02:06Z</time>
      </trkpt>
      <trkpt lat="42.438326000" lon="-2.535906000">
        <ele>502.10</ele>
        <time>2015-01-17T11:02:07Z</time>
      </trkpt>
      <trkpt lat="42.438323000" lon="-2.535904000">
        <ele>502.10</ele>
        <time>2015-01-17T11:02:08Z</time>
      </trkpt>
      <trkpt lat="42.438323000" lon="-2.535903000">
        <ele>502.10</ele>
        <time>2015-01-17T11:02:09Z</time>
      </trkpt>
      <trkpt lat="42.438321000" lon="-2.535901000">
        <ele>502.20</ele>
        <time>2015-01-17T11:02:10Z</time>
      </trkpt>
      <trkpt lat="42.438319000" lon="-2.535901000">
        <ele>502.20</ele>
        <time>2015-01-17T11:02:11Z</time>
      </trkpt>
      <trkpt lat="42.438320000" lon="-2.535902000">
        <ele>502.20</ele>
        <time>2015-01-17T11:02:12Z</time>
      </trkpt>
      <trkpt lat="42.438318000" lon="-2.535903000">
        <ele>502.20</ele>
        <time>2015-01-17T11:02:14Z</time>
      </trkpt>
      <trkpt lat="42.438317000" lon="-2.535904000">
        <ele>502.20</ele>
        <time>2015-01-17T11:02:15Z</time>
      </trkpt>
      <trkpt lat="42.438317000" lon="-2.535904000">
        <ele>502.30</ele>
        <time>2015-01-17T11:02:16Z</time>
      </trkpt>
      <trkpt lat="42.438318000" lon="-2.535906000">
        <ele>502.30</ele>
        <time>2015-01-17T11:02:17Z</time>
      </trkpt>
      <trkpt lat="42.438317000" lon="-2.535908000">
        <ele>502.40</ele>
        <time>2015-01-17T11:02:18Z</time>
      </trkpt>
      <trkpt lat="42.438315000" lon="-2.535912000">
        <ele>502.40</ele>
        <time>2015-01-17T11:02:19Z</time>
      </trkpt>
      <trkpt lat="42.438316000" lon="-2.535914000">
        <ele>502.40</ele>
        <time>2015-01-17T11:02:20Z</time>
      </trkpt>
      <trkpt lat="42.438318000" lon="-2.535914000">
        <ele>502.30</ele>
        <time>2015-01-17T11:02:21Z</time>
      </trkpt>
      <trkpt lat="42.438315000" lon="-2.535914000">
        <ele>502.30</ele>
        <time>2015-01-17T11:02:22Z</time>
      </trkpt>
      <trkpt lat="42.438314000" lon="-2.535912000">
        <ele>502.30</ele>
        <time>2015-01-17T11:02:23Z</time>
      </trkpt>
      <trkpt lat="42.438314000" lon="-2.535912000">
        <ele>502.30</ele>
        <time>2015-01-17T11:02:24Z</time>
      </trkpt>
      <trkpt lat="42.438315000" lon="-2.535909000">
        <ele>502.40</ele>
        <time>2015-01-17T11:02:25Z</time>
      </trkpt>
      <trkpt lat="42.438313000" lon="-2.535913000">
        <ele>502.50</ele>
        <time>2015-01-17T11:02:26Z</time>
      </trkpt>
      <trkpt lat="42.438314000" lon="-2.535914000">
        <ele>502.50</ele>
        <time>2015-01-17T11:02:27Z</time>
      </trkpt>
      <trkpt lat="42.438313000" lon="-2.535917000">
        <ele>502.60</ele>
        <time>2015-01-17T11:02:28Z</time>
      </trkpt>
      <trkpt lat="42.438312000" lon="-2.535919000">
        <ele>502.60</ele>
        <time>2015-01-17T11:02:29Z</time>
      </trkpt>
      <trkpt lat="42.438312000" lon="-2.535919000">
        <ele>502.60</ele>
        <time>2015-01-17T11:02:30Z</time>
      </trkpt>
      <trkpt lat="42.438312000" lon="-2.535918000">
        <ele>502.60</ele>
        <time>2015-01-17T11:02:31Z</time>
      </trkpt>
      <trkpt lat="42.438313000" lon="-2.535917000">
        <ele>502.60</ele>
        <time>2015-01-17T11:02:32Z</time>
      </trkpt>
      <trkpt lat="42.438315000" lon="-2.535914000">
        <ele>502.50</ele>
        <time>2015-01-17T11:02:33Z</time>
      </trkpt>
      <trkpt lat="42.438314000" lon="-2.535913000">
        <ele>502.60</ele>
        <time>2015-01-17T11:02:34Z</time>
      </trkpt>
      <trkpt lat="42.438314000" lon="-2.535916000">
        <ele>502.60</ele>
        <time>2015-01-17T11:02:35Z</time>
      </trkpt>
      <trkpt lat="42.438315000" lon="-2.535919000">
        <ele>502.70</ele>
        <time>2015-01-17T11:02:36Z</time>
      </trkpt>
      <trkpt lat="42.438315000" lon="-2.535919000">
        <ele>502.70</ele>
        <time>2015-01-17T11:02:37Z</time>
      </trkpt>
      <trkpt lat="42.438311000" lon="-2.535921000">
        <ele>502.60</ele>
        <time>2015-01-17T11:02:38Z</time>
      </trkpt>
      <trkpt lat="42.438311000" lon="-2.535921000">
        <ele>502.60</ele>
        <time>2015-01-17T11:02:39Z</time>
      </trkpt>
      <trkpt lat="42.438311000" lon="-2.535922000">
        <ele>502.60</ele>
        <time>2015-01-17T11:02:40Z</time>
      </trkpt>
      <trkpt lat="42.438314000" lon="-2.535926000">
        <ele>502.60</ele>
        <time>2015-01-17T11:02:41Z</time>
      </trkpt>
      <trkpt lat="42.438317000" lon="-2.535931000">
        <ele>502.40</ele>
        <time>2015-01-17T11:02:42Z</time>
      </trkpt>
      <trkpt lat="42.438318000" lon="-2.535934000">
        <ele>502.30</ele>
        <time>2015-01-17T11:02:43Z</time>
      </trkpt>
      <trkpt lat="42.438318000" lon="-2.535934000">
        <ele>502.20</ele>
        <time>2015-01-17T11:02:44Z</time>
      </trkpt>
      <trkpt lat="42.438318000" lon="-2.535936000">
        <ele>502.10</ele>
        <time>2015-01-17T11:02:45Z</time>
      </trkpt>
      <trkpt lat="42.438319000" lon="-2.535937000">
        <ele>502.10</ele>
        <time>2015-01-17T11:02:46Z</time>
      </trkpt>
      <trkpt lat="42.438319000" lon="-2.535939000">
        <ele>502.00</ele>
        <time>2015-01-17T11:02:47Z</time>
      </trkpt>
      <trkpt lat="42.438318000" lon="-2.535941000">
        <ele>502.10</ele>
        <time>2015-01-17T11:02:48Z</time>
      </trkpt>
      <trkpt lat="42.438319000" lon="-2.535942000">
        <ele>502.20</ele>
        <time>2015-01-17T11:02:49Z</time>
      </trkpt>
      <trkpt lat="42.438319000" lon="-2.535943000">
        <ele>502.30</ele>
        <time>2015-01-17T11:02:50Z</time>
      </trkpt>
      <trkpt lat="42.438320000" lon="-2.535944000">
        <ele>502.40</ele>
        <time>2015-01-17T11:02:51Z</time>
      </trkpt>
      <trkpt lat="42.438320000" lon="-2.535943000">
        <ele>502.50</ele>
        <time>2015-01-17T11:02:52Z</time>
      </trkpt>
      <trkpt lat="42.438320000" lon="-2.535944000">
        <ele>502.50</ele>
        <time>2015-01-17T11:02:53Z</time>
      </trkpt>
      <trkpt lat="42.438320000" lon="-2.535942000">
        <ele>502.60</ele>
        <time>2015-01-17T11:02:54Z</time>
      </trkpt>
      <trkpt lat="42.438319000" lon="-2.535942000">
        <ele>502.60</ele>
        <time>2015-01-17T11:02:55Z</time>
      </trkpt>
      <trkpt lat="42.438318000" lon="-2.535942000">
        <ele>502.80</ele>
        <time>2015-01-17T11:02:56Z</time>
      </trkpt>
      <trkpt lat="42.438316000" lon="-2.535942000">
        <ele>503.00</ele>
        <time>2015-01-17T11:02:57Z</time>
      </trkpt>
      <trkpt lat="42.438316000" lon="-2.535941000">
        <ele>503.10</ele>
        <time>2015-01-17T11:02:58Z</time>
      </trkpt>
      <trkpt lat="42.438315000" lon="-2.535940000">
        <ele>503.20</ele>
        <time>2015-01-17T11:02:59Z</time>
      </trkpt>
      <trkpt lat="42.438314000" lon="-2.535941000">
        <ele>503.00</ele>
        <time>2015-01-17T11:03:00Z</time>
      </trkpt>
      <trkpt lat="42.438313000" lon="-2.535941000">
        <ele>503.00</ele>
        <time>2015-01-17T11:03:01Z</time>
      </trkpt>
      <trkpt lat="42.438312000" lon="-2.535941000">
        <ele>502.80</ele>
        <time>2015-01-17T11:03:02Z</time>
      </trkpt>
      <trkpt lat="42.438311000" lon="-2.535941000">
        <ele>502.70</ele>
        <time>2015-01-17T11:03:03Z</time>
      </trkpt>
      <trkpt lat="42.438309000" lon="-2.535940000">
        <ele>502.50</ele>
        <time>2015-01-17T11:03:04Z</time>
      </trkpt>
      <trkpt lat="42.438309000" lon="-2.535941000">
        <ele>502.40</ele>
        <time>2015-01-17T11:03:05Z</time>
      </trkpt>
      <trkpt lat="42.438309000" lon="-2.535941000">
        <ele>502.20</ele>
        <time>2015-01-17T11:03:06Z</time>
      </trkpt>
      <trkpt lat="42.438309000" lon="-2.535940000">
        <ele>502.10</ele>
        <time>2015-01-17T11:03:07Z</time>
      </trkpt>
      <trkpt lat="42.438308000" lon="-2.535939000">
        <ele>502.40</ele>
        <time>2015-01-17T11:03:08Z</time>
      </trkpt>
      <trkpt lat="42.438306000" lon="-2.535938000">
        <ele>502.60</ele>
        <time>2015-01-17T11:03:09Z</time>
      </trkpt>
      <trkpt lat="42.438304000" lon="-2.535938000">
        <ele>502.70</ele>
        <time>2015-01-17T11:03:10Z</time>
      </trkpt>
      <trkpt lat="42.438302000" lon="-2.535936000">
        <ele>502.80</ele>
        <time>2015-01-17T11:03:11Z</time>
      </trkpt>
      <trkpt lat="42.438298000" lon="-2.535936000">
        <ele>502.80</ele>
        <time>2015-01-17T11:03:12Z</time>
      </trkpt>
      <trkpt lat="42.438296000" lon="-2.535934000">
        <ele>502.80</ele>
        <time>2015-01-17T11:03:13Z</time>
      </trkpt>
      <trkpt lat="42.438295000" lon="-2.535933000">
        <ele>502.70</ele>
        <time>2015-01-17T11:03:14Z</time>
      </trkpt>
      <trkpt lat="42.438294000" lon="-2.535934000">
        <ele>502.70</ele>
        <time>2015-01-17T11:03:16Z</time>
      </trkpt>
      <trkpt lat="42.438293000" lon="-2.535934000">
        <ele>502.70</ele>
        <time>2015-01-17T11:03:17Z</time>
      </trkpt>
      <trkpt lat="42.438292000" lon="-2.535934000">
        <ele>502.70</ele>
        <time>2015-01-17T11:03:18Z</time>
      </trkpt>
      <trkpt lat="42.438292000" lon="-2.535934000">
        <ele>502.60</ele>
        <time>2015-01-17T11:03:19Z</time>
      </trkpt>
      <trkpt lat="42.438292000" lon="-2.535935000">
        <ele>502.60</ele>
        <time>2015-01-17T11:03:20Z</time>
      </trkpt>
      <trkpt lat="42.438291000" lon="-2.535937000">
        <ele>502.60</ele>
        <time>2015-01-17T11:03:21Z</time>
      </trkpt>
      <trkpt lat="42.438291000" lon="-2.535937000">
        <ele>502.60</ele>
        <time>2015-01-17T11:03:22Z</time>
      </trkpt>
      <trkpt lat="42.438290000" lon="-2.535939000">
        <ele>502.60</ele>
        <time>2015-01-17T11:03:23Z</time>
      </trkpt>
      <trkpt lat="42.438290000" lon="-2.535941000">
        <ele>502.50</ele>
        <time>2015-01-17T11:03:24Z</time>
      </trkpt>
      <trkpt lat="42.438291000" lon="-2.535943000">
        <ele>502.50</ele>
        <time>2015-01-17T11:03:25Z</time>
      </trkpt>
      <trkpt lat="42.438292000" lon="-2.535944000">
        <ele>502.50</ele>
        <time>2015-01-17T11:03:26Z</time>
      </trkpt>
      <trkpt lat="42.438291000" lon="-2.535944000">
        <ele>502.50</ele>
        <time>2015-01-17T11:03:27Z</time>
      </trkpt>
      <trkpt lat="42.438292000" lon="-2.535945000">
        <ele>502.50</ele>
        <time>2015-01-17T11:03:28Z</time>
      </trkpt>
      <trkpt lat="42.438291000" lon="-2.535945000">
        <ele>502.50</ele>
        <time>2015-01-17T11:03:29Z</time>
      </trkpt>
      <trkpt lat="42.438291000" lon="-2.535943000">
        <ele>502.60</ele>
        <time>2015-01-17T11:03:30Z</time>
      </trkpt>
      <trkpt lat="42.438289000" lon="-2.535941000">
        <ele>502.60</ele>
        <time>2015-01-17T11:03:31Z</time>
      </trkpt>
      <trkpt lat="42.438288000" lon="-2.535942000">
        <ele>502.50</ele>
        <time>2015-01-17T11:03:32Z</time>
      </trkpt>
      <trkpt lat="42.438287000" lon="-2.535943000">
        <ele>502.50</ele>
        <time>2015-01-17T11:03:33Z</time>
      </trkpt>
      <trkpt lat="42.438285000" lon="-2.535944000">
        <ele>502.40</ele>
        <time>2015-01-17T11:03:34Z</time>
      </trkpt>
      <trkpt lat="42.438285000" lon="-2.535944000">
        <ele>502.40</ele>
        <time>2015-01-17T11:03:35Z</time>
      </trkpt>
      <trkpt lat="42.438285000" lon="-2.535945000">
        <ele>502.40</ele>
        <time>2015-01-17T11:03:36Z</time>
      </trkpt>
      <trkpt lat="42.438284000" lon="-2.535946000">
        <ele>502.40</ele>
        <time>2015-01-17T11:03:37Z</time>
      </trkpt>
      <trkpt lat="42.438285000" lon="-2.535951000">
        <ele>502.30</ele>
        <time>2015-01-17T11:03:38Z</time>
      </trkpt>
      <trkpt lat="42.438287000" lon="-2.535944000">
        <ele>502.30</ele>
        <time>2015-01-17T11:03:39Z</time>
      </trkpt>
      <trkpt lat="42.438288000" lon="-2.535942000">
        <ele>502.30</ele>
        <time>2015-01-17T11:03:40Z</time>
      </trkpt>
      <trkpt lat="42.438290000" lon="-2.535938000">
        <ele>502.30</ele>
        <time>2015-01-17T11:03:41Z</time>
      </trkpt>
      <trkpt lat="42.438295000" lon="-2.535932000">
        <ele>502.30</ele>
        <time>2015-01-17T11:03:42Z</time>
      </trkpt>
      <trkpt lat="42.438298000" lon="-2.535922000">
        <ele>502.40</ele>
        <time>2015-01-17T11:03:43Z</time>
      </trkpt>
      <trkpt lat="42.438301000" lon="-2.535915000">
        <ele>502.40</ele>
        <time>2015-01-17T11:03:44Z</time>
      </trkpt>
      <trkpt lat="42.438309000" lon="-2.535906000">
        <ele>502.40</ele>
        <time>2015-01-17T11:03:45Z</time>
      </trkpt>
      <trkpt lat="42.438315000" lon="-2.535897000">
        <ele>502.40</ele>
        <time>2015-01-17T11:03:46Z</time>
      </trkpt>
      <trkpt lat="42.438319000" lon="-2.535892000">
        <ele>502.30</ele>
        <time>2015-01-17T11:03:47Z</time>
      </trkpt>
      <trkpt lat="42.438322000" lon="-2.535890000">
        <ele>502.30</ele>
        <time>2015-01-17T11:03:48Z</time>
      </trkpt>
      <trkpt lat="42.438325000" lon="-2.535885000">
        <ele>502.30</ele>
        <time>2015-01-17T11:03:49Z</time>
      </trkpt>
      <trkpt lat="42.438330000" lon="-2.535879000">
        <ele>502.30</ele>
        <time>2015-01-17T11:03:50Z</time>
      </trkpt>
      <trkpt lat="42.438336000" lon="-2.535870000">
        <ele>502.40</ele>
        <time>2015-01-17T11:03:51Z</time>
      </trkpt>
      <trkpt lat="42.438341000" lon="-2.535864000">
        <ele>502.40</ele>
        <time>2015-01-17T11:03:52Z</time>
      </trkpt>
      <trkpt lat="42.438344000" lon="-2.535853000">
        <ele>502.40</ele>
        <time>2015-01-17T11:03:53Z</time>
      </trkpt>
      <trkpt lat="42.438348000" lon="-2.535839000">
        <ele>502.50</ele>
        <time>2015-01-17T11:03:54Z</time>
      </trkpt>
      <trkpt lat="42.438352000" lon="-2.535830000">
        <ele>502.60</ele>
        <time>2015-01-17T11:03:55Z</time>
      </trkpt>
      <trkpt lat="42.438358000" lon="-2.535821000">
        <ele>502.60</ele>
        <time>2015-01-17T11:03:56Z</time>
      </trkpt>
      <trkpt lat="42.438363000" lon="-2.535811000">
        <ele>502.70</ele>
        <time>2015-01-17T11:03:57Z</time>
      </trkpt>
      <trkpt lat="42.438366000" lon="-2.535801000">
        <ele>502.90</ele>
        <time>2015-01-17T11:03:58Z</time>
      </trkpt>
      <trkpt lat="42.438369000" lon="-2.535790000">
        <ele>503.10</ele>
        <time>2015-01-17T11:03:59Z</time>
      </trkpt>
      <trkpt lat="42.438372000" lon="-2.535779000">
        <ele>503.30</ele>
        <time>2015-01-17T11:04:00Z</time>
      </trkpt>
      <trkpt lat="42.438378000" lon="-2.535767000">
        <ele>503.40</ele>
        <time>2015-01-17T11:04:01Z</time>
      </trkpt>
      <trkpt lat="42.438383000" lon="-2.535754000">
        <ele>503.50</ele>
        <time>2015-01-17T11:04:02Z</time>
      </trkpt>
      <trkpt lat="42.438388000" lon="-2.535745000">
        <ele>503.50</ele>
        <time>2015-01-17T11:04:03Z</time>
      </trkpt>
      <trkpt lat="42.438390000" lon="-2.535733000">
        <ele>503.50</ele>
        <time>2015-01-17T11:04:04Z</time>
      </trkpt>
      <trkpt lat="42.438397000" lon="-2.535723000">
        <ele>503.50</ele>
        <time>2015-01-17T11:04:05Z</time>
      </trkpt>
      <trkpt lat="42.438406000" lon="-2.535712000">
        <ele>503.50</ele>
        <time>2015-01-17T11:04:06Z</time>
      </trkpt>
      <trkpt lat="42.438413000" lon="-2.535701000">
        <ele>503.50</ele>
        <time>2015-01-17T11:04:07Z</time>
      </trkpt>
      <trkpt lat="42.438420000" lon="-2.535691000">
        <ele>503.50</ele>
        <time>2015-01-17T11:04:08Z</time>
      </trkpt>
      <trkpt lat="42.438428000" lon="-2.535681000">
        <ele>503.50</ele>
        <time>2015-01-17T11:04:09Z</time>
      </trkpt>
      <trkpt lat="42.438436000" lon="-2.535670000">
        <ele>503.50</ele>
        <time>2015-01-17T11:04:10Z</time>
      </trkpt>
      <trkpt lat="42.438442000" lon="-2.535661000">
        <ele>503.50</ele>
        <time>2015-01-17T11:04:11Z</time>
      </trkpt>
      <trkpt lat="42.438448000" lon="-2.535645000">
        <ele>503.50</ele>
        <time>2015-01-17T11:04:12Z</time>
      </trkpt>
      <trkpt lat="42.438453000" lon="-2.535635000">
        <ele>503.50</ele>
        <time>2015-01-17T11:04:13Z</time>
      </trkpt>
      <trkpt lat="42.438458000" lon="-2.535623000">
        <ele>503.60</ele>
        <time>2015-01-17T11:04:14Z</time>
      </trkpt>
      <trkpt lat="42.438461000" lon="-2.535612000">
        <ele>503.60</ele>
        <time>2015-01-17T11:04:15Z</time>
      </trkpt>
      <trkpt lat="42.438463000" lon="-2.535598000">
        <ele>503.70</ele>
        <time>2015-01-17T11:04:16Z</time>
      </trkpt>
      <trkpt lat="42.438471000" lon="-2.535570000">
        <ele>503.70</ele>
        <time>2015-01-17T11:04:18Z</time>
      </trkpt>
      <trkpt lat="42.438472000" lon="-2.535558000">
        <ele>503.70</ele>
        <time>2015-01-17T11:04:19Z</time>
      </trkpt>
      <trkpt lat="42.438476000" lon="-2.535542000">
        <ele>503.80</ele>
        <time>2015-01-17T11:04:20Z</time>
      </trkpt>
      <trkpt lat="42.438481000" lon="-2.535527000">
        <ele>503.80</ele>
        <time>2015-01-17T11:04:21Z</time>
      </trkpt>
      <trkpt lat="42.438485000" lon="-2.535515000">
        <ele>503.80</ele>
        <time>2015-01-17T11:04:22Z</time>
      </trkpt>
      <trkpt lat="42.438488000" lon="-2.535504000">
        <ele>503.70</ele>
        <time>2015-01-17T11:04:23Z</time>
      </trkpt>
      <trkpt lat="42.438493000" lon="-2.535493000">
        <ele>503.70</ele>
        <time>2015-01-17T11:04:24Z</time>
      </trkpt>
      <trkpt lat="42.438496000" lon="-2.535480000">
        <ele>503.70</ele>
        <time>2015-01-17T11:04:25Z</time>
      </trkpt>
      <trkpt lat="42.438499000" lon="-2.535466000">
        <ele>503.80</ele>
        <time>2015-01-17T11:04:26Z</time>
      </trkpt>
      <trkpt lat="42.438501000" lon="-2.535452000">
        <ele>503.90</ele>
        <time>2015-01-17T11:04:27Z</time>
      </trkpt>
      <trkpt lat="42.438503000" lon="-2.535441000">
        <ele>504.00</ele>
        <time>2015-01-17T11:04:28Z</time>
      </trkpt>
      <trkpt lat="42.438508000" lon="-2.535423000">
        <ele>504.00</ele>
        <time>2015-01-17T11:04:29Z</time>
      </trkpt>
      <trkpt lat="42.438510000" lon="-2.535409000">
        <ele>504.00</ele>
        <time>2015-01-17T11:04:30Z</time>
      </trkpt>
      <trkpt lat="42.438509000" lon="-2.535395000">
        <ele>504.10</ele>
        <time>2015-01-17T11:04:31Z</time>
      </trkpt>
      <trkpt lat="42.438510000" lon="-2.535381000">
        <ele>504.00</ele>
        <time>2015-01-17T11:04:32Z</time>
      </trkpt>
      <trkpt lat="42.438515000" lon="-2.535368000">
        <ele>504.00</ele>
        <time>2015-01-17T11:04:33Z</time>
      </trkpt>
      <trkpt lat="42.438520000" lon="-2.535354000">
        <ele>504.10</ele>
        <time>2015-01-17T11:04:34Z</time>
      </trkpt>
      <trkpt lat="42.438523000" lon="-2.535341000">
        <ele>504.10</ele>
        <time>2015-01-17T11:04:35Z</time>
      </trkpt>
      <trkpt lat="42.438526000" lon="-2.535328000">
        <ele>504.10</ele>
        <time>2015-01-17T11:04:36Z</time>
      </trkpt>
      <trkpt lat="42.438526000" lon="-2.535316000">
        <ele>504.10</ele>
        <time>2015-01-17T11:04:37Z</time>
      </trkpt>
      <trkpt lat="42.438526000" lon="-2.535301000">
        <ele>504.10</ele>
        <time>2015-01-17T11:04:38Z</time>
      </trkpt>
      <trkpt lat="42.438526000" lon="-2.535291000">
        <ele>504.10</ele>
        <time>2015-01-17T11:04:39Z</time>
      </trkpt>
      <trkpt lat="42.438525000" lon="-2.535276000">
        <ele>504.10</ele>
        <time>2015-01-17T11:04:40Z</time>
      </trkpt>
      <trkpt lat="42.438526000" lon="-2.535264000">
        <ele>504.00</ele>
        <time>2015-01-17T11:04:41Z</time>
      </trkpt>
      <trkpt lat="42.438529000" lon="-2.535256000">
        <ele>504.00</ele>
        <time>2015-01-17T11:04:42Z</time>
      </trkpt>
      <trkpt lat="42.438534000" lon="-2.535245000">
        <ele>504.00</ele>
        <time>2015-01-17T11:04:43Z</time>
      </trkpt>
      <trkpt lat="42.438538000" lon="-2.535232000">
        <ele>504.10</ele>
        <time>2015-01-17T11:04:44Z</time>
      </trkpt>
      <trkpt lat="42.438542000" lon="-2.535221000">
        <ele>504.10</ele>
        <time>2015-01-17T11:04:45Z</time>
      </trkpt>
      <trkpt lat="42.438546000" lon="-2.535209000">
        <ele>504.20</ele>
        <time>2015-01-17T11:04:46Z</time>
      </trkpt>
      <trkpt lat="42.438548000" lon="-2.535199000">
        <ele>504.30</ele>
        <time>2015-01-17T11:04:47Z</time>
      </trkpt>
      <trkpt lat="42.438549000" lon="-2.535187000">
        <ele>504.20</ele>
        <time>2015-01-17T11:04:48Z</time>
      </trkpt>
      <trkpt lat="42.438552000" lon="-2.535177000">
        <ele>504.20</ele>
        <time>2015-01-17T11:04:49Z</time>
      </trkpt>
      <trkpt lat="42.438555000" lon="-2.535164000">
        <ele>504.20</ele>
        <time>2015-01-17T11:04:50Z</time>
      </trkpt>
      <trkpt lat="42.438557000" lon="-2.535152000">
        <ele>504.20</ele>
        <time>2015-01-17T11:04:51Z</time>
      </trkpt>
      <trkpt lat="42.438558000" lon="-2.535142000">
        <ele>504.20</ele>
        <time>2015-01-17T11:04:52Z</time>
      </trkpt>
      <trkpt lat="42.438556000" lon="-2.535126000">
        <ele>504.30</ele>
        <time>2015-01-17T11:04:53Z</time>
      </trkpt>
      <trkpt lat="42.438555000" lon="-2.535108000">
        <ele>504.30</ele>
        <time>2015-01-17T11:04:54Z</time>
      </trkpt>
      <trkpt lat="42.438557000" lon="-2.535094000">
        <ele>504.30</ele>
        <time>2015-01-17T11:04:55Z</time>
      </trkpt>
      <trkpt lat="42.438558000" lon="-2.535082000">
        <ele>504.30</ele>
        <time>2015-01-17T11:04:56Z</time>
      </trkpt>
      <trkpt lat="42.438557000" lon="-2.535069000">
        <ele>504.40</ele>
        <time>2015-01-17T11:04:57Z</time>
      </trkpt>
      <trkpt lat="42.438559000" lon="-2.535053000">
        <ele>504.30</ele>
        <time>2015-01-17T11:04:58Z</time>
      </trkpt>
      <trkpt lat="42.438560000" lon="-2.535039000">
        <ele>504.20</ele>
        <time>2015-01-17T11:04:59Z</time>
      </trkpt>
      <trkpt lat="42.438561000" lon="-2.535024000">
        <ele>504.30</ele>
        <time>2015-01-17T11:05:00Z</time>
      </trkpt>
      <trkpt lat="42.438562000" lon="-2.535009000">
        <ele>504.40</ele>
        <time>2015-01-17T11:05:01Z</time>
      </trkpt>
      <trkpt lat="42.438567000" lon="-2.534997000">
        <ele>504.60</ele>
        <time>2015-01-17T11:05:02Z</time>
      </trkpt>
      <trkpt lat="42.438571000" lon="-2.534982000">
        <ele>504.70</ele>
        <time>2015-01-17T11:05:03Z</time>
      </trkpt>
      <trkpt lat="42.438572000" lon="-2.534968000">
        <ele>504.80</ele>
        <time>2015-01-17T11:05:04Z</time>
      </trkpt>
      <trkpt lat="42.438575000" lon="-2.534954000">
        <ele>504.90</ele>
        <time>2015-01-17T11:05:05Z</time>
      </trkpt>
      <trkpt lat="42.438577000" lon="-2.534940000">
        <ele>504.90</ele>
        <time>2015-01-17T11:05:06Z</time>
      </trkpt>
      <trkpt lat="42.438581000" lon="-2.534922000">
        <ele>505.00</ele>
        <time>2015-01-17T11:05:07Z</time>
      </trkpt>
      <trkpt lat="42.438585000" lon="-2.534910000">
        <ele>505.10</ele>
        <time>2015-01-17T11:05:08Z</time>
      </trkpt>
      <trkpt lat="42.438586000" lon="-2.534899000">
        <ele>505.10</ele>
        <time>2015-01-17T11:05:09Z</time>
      </trkpt>
      <trkpt lat="42.438586000" lon="-2.534889000">
        <ele>505.20</ele>
        <time>2015-01-17T11:05:10Z</time>
      </trkpt>
      <trkpt lat="42.438585000" lon="-2.534876000">
        <ele>505.20</ele>
        <time>2015-01-17T11:05:11Z</time>
      </trkpt>
      <trkpt lat="42.438588000" lon="-2.534863000">
        <ele>505.20</ele>
        <time>2015-01-17T11:05:12Z</time>
      </trkpt>
      <trkpt lat="42.438590000" lon="-2.534852000">
        <ele>505.20</ele>
        <time>2015-01-17T11:05:13Z</time>
      </trkpt>
      <trkpt lat="42.438593000" lon="-2.534838000">
        <ele>505.20</ele>
        <time>2015-01-17T11:05:14Z</time>
      </trkpt>
      <trkpt lat="42.438596000" lon="-2.534826000">
        <ele>505.10</ele>
        <time>2015-01-17T11:05:15Z</time>
      </trkpt>
      <trkpt lat="42.438597000" lon="-2.534809000">
        <ele>505.20</ele>
        <time>2015-01-17T11:05:16Z</time>
      </trkpt>
      <trkpt lat="42.438602000" lon="-2.534794000">
        <ele>505.20</ele>
        <time>2015-01-17T11:05:17Z</time>
      </trkpt>
      <trkpt lat="42.438605000" lon="-2.534782000">
        <ele>505.30</ele>
        <time>2015-01-17T11:05:18Z</time>
      </trkpt>
      <trkpt lat="42.438606000" lon="-2.534758000">
        <ele>505.30</ele>
        <time>2015-01-17T11:05:20Z</time>
      </trkpt>
      <trkpt lat="42.438609000" lon="-2.534745000">
        <ele>505.30</ele>
        <time>2015-01-17T11:05:21Z</time>
      </trkpt>
      <trkpt lat="42.438609000" lon="-2.534734000">
        <ele>505.30</ele>
        <time>2015-01-17T11:05:22Z</time>
      </trkpt>
      <trkpt lat="42.438609000" lon="-2.534719000">
        <ele>505.20</ele>
        <time>2015-01-17T11:05:23Z</time>
      </trkpt>
      <trkpt lat="42.438607000" lon="-2.534708000">
        <ele>505.30</ele>
        <time>2015-01-17T11:05:24Z</time>
      </trkpt>
      <trkpt lat="42.438607000" lon="-2.534696000">
        <ele>505.40</ele>
        <time>2015-01-17T11:05:25Z</time>
      </trkpt>
      <trkpt lat="42.438606000" lon="-2.534686000">
        <ele>505.50</ele>
        <time>2015-01-17T11:05:26Z</time>
      </trkpt>
      <trkpt lat="42.438604000" lon="-2.534673000">
        <ele>505.60</ele>
        <time>2015-01-17T11:05:27Z</time>
      </trkpt>
      <trkpt lat="42.438605000" lon="-2.534661000">
        <ele>505.70</ele>
        <time>2015-01-17T11:05:28Z</time>
      </trkpt>
      <trkpt lat="42.438609000" lon="-2.534649000">
        <ele>505.80</ele>
        <time>2015-01-17T11:05:29Z</time>
      </trkpt>
      <trkpt lat="42.438614000" lon="-2.534640000">
        <ele>506.00</ele>
        <time>2015-01-17T11:05:30Z</time>
      </trkpt>
      <trkpt lat="42.438613000" lon="-2.534628000">
        <ele>506.00</ele>
        <time>2015-01-17T11:05:31Z</time>
      </trkpt>
      <trkpt lat="42.438613000" lon="-2.534616000">
        <ele>506.10</ele>
        <time>2015-01-17T11:05:32Z</time>
      </trkpt>
      <trkpt lat="42.438611000" lon="-2.534604000">
        <ele>506.20</ele>
        <time>2015-01-17T11:05:33Z</time>
      </trkpt>
      <trkpt lat="42.438611000" lon="-2.534591000">
        <ele>506.20</ele>
        <time>2015-01-17T11:05:34Z</time>
      </trkpt>
      <trkpt lat="42.438610000" lon="-2.534582000">
        <ele>506.20</ele>
        <time>2015-01-17T11:05:35Z</time>
      </trkpt>
      <trkpt lat="42.438613000" lon="-2.534569000">
        <ele>506.20</ele>
        <time>2015-01-17T11:05:36Z</time>
      </trkpt>
      <trkpt lat="42.438615000" lon="-2.534559000">
        <ele>506.30</ele>
        <time>2015-01-17T11:05:37Z</time>
      </trkpt>
      <trkpt lat="42.438614000" lon="-2.534546000">
        <ele>506.50</ele>
        <time>2015-01-17T11:05:38Z</time>
      </trkpt>
      <trkpt lat="42.438612000" lon="-2.534533000">
        <ele>506.60</ele>
        <time>2015-01-17T11:05:39Z</time>
      </trkpt>
      <trkpt lat="42.438610000" lon="-2.534520000">
        <ele>506.70</ele>
        <time>2015-01-17T11:05:40Z</time>
      </trkpt>
      <trkpt lat="42.438612000" lon="-2.534503000">
        <ele>506.80</ele>
        <time>2015-01-17T11:05:41Z</time>
      </trkpt>
      <trkpt lat="42.438614000" lon="-2.534486000">
        <ele>507.00</ele>
        <time>2015-01-17T11:05:42Z</time>
      </trkpt>
      <trkpt lat="42.438618000" lon="-2.534471000">
        <ele>507.10</ele>
        <time>2015-01-17T11:05:43Z</time>
      </trkpt>
      <trkpt lat="42.438617000" lon="-2.534458000">
        <ele>507.10</ele>
        <time>2015-01-17T11:05:44Z</time>
      </trkpt>
      <trkpt lat="42.438618000" lon="-2.534442000">
        <ele>507.20</ele>
        <time>2015-01-17T11:05:45Z</time>
      </trkpt>
      <trkpt lat="42.438621000" lon="-2.534426000">
        <ele>507.20</ele>
        <time>2015-01-17T11:05:46Z</time>
      </trkpt>
      <trkpt lat="42.438622000" lon="-2.534411000">
        <ele>507.30</ele>
        <time>2015-01-17T11:05:47Z</time>
      </trkpt>
      <trkpt lat="42.438626000" lon="-2.534394000">
        <ele>507.30</ele>
        <time>2015-01-17T11:05:48Z</time>
      </trkpt>
      <trkpt lat="42.438626000" lon="-2.534383000">
        <ele>507.30</ele>
        <time>2015-01-17T11:05:49Z</time>
      </trkpt>
      <trkpt lat="42.438627000" lon="-2.534371000">
        <ele>507.30</ele>
        <time>2015-01-17T11:05:50Z</time>
      </trkpt>
      <trkpt lat="42.438625000" lon="-2.534356000">
        <ele>507.30</ele>
        <time>2015-01-17T11:05:51Z</time>
      </trkpt>
      <trkpt lat="42.438622000" lon="-2.534346000">
        <ele>507.30</ele>
        <time>2015-01-17T11:05:52Z</time>
      </trkpt>
      <trkpt lat="42.438623000" lon="-2.534337000">
        <ele>507.30</ele>
        <time>2015-01-17T11:05:53Z</time>
      </trkpt>
      <trkpt lat="42.438622000" lon="-2.534323000">
        <ele>507.50</ele>
        <time>2015-01-17T11:05:54Z</time>
      </trkpt>
      <trkpt lat="42.438622000" lon="-2.534309000">
        <ele>507.60</ele>
        <time>2015-01-17T11:05:55Z</time>
      </trkpt>
      <trkpt lat="42.438624000" lon="-2.534296000">
        <ele>507.60</ele>
        <time>2015-01-17T11:05:56Z</time>
      </trkpt>
      <trkpt lat="42.438623000" lon="-2.534283000">
        <ele>507.70</ele>
        <time>2015-01-17T11:05:57Z</time>
      </trkpt>
      <trkpt lat="42.438623000" lon="-2.534268000">
        <ele>507.70</ele>
        <time>2015-01-17T11:05:58Z</time>
      </trkpt>
      <trkpt lat="42.438626000" lon="-2.534256000">
        <ele>507.70</ele>
        <time>2015-01-17T11:05:59Z</time>
      </trkpt>
      <trkpt lat="42.438627000" lon="-2.534244000">
        <ele>507.60</ele>
        <time>2015-01-17T11:06:00Z</time>
      </trkpt>
      <trkpt lat="42.438629000" lon="-2.534228000">
        <ele>507.50</ele>
        <time>2015-01-17T11:06:01Z</time>
      </trkpt>
      <trkpt lat="42.438634000" lon="-2.534213000">
        <ele>507.50</ele>
        <time>2015-01-17T11:06:02Z</time>
      </trkpt>
      <trkpt lat="42.438640000" lon="-2.534200000">
        <ele>507.40</ele>
        <time>2015-01-17T11:06:03Z</time>
      </trkpt>
      <trkpt lat="42.438645000" lon="-2.534187000">
        <ele>507.30</ele>
        <time>2015-01-17T11:06:04Z</time>
      </trkpt>
      <trkpt lat="42.438647000" lon="-2.534177000">
        <ele>507.20</ele>
        <time>2015-01-17T11:06:05Z</time>
      </trkpt>
      <trkpt lat="42.438651000" lon="-2.534165000">
        <ele>507.00</ele>
        <time>2015-01-17T11:06:06Z</time>
      </trkpt>
      <trkpt lat="42.438655000" lon="-2.534152000">
        <ele>506.90</ele>
        <time>2015-01-17T11:06:07Z</time>
      </trkpt>
      <trkpt lat="42.438659000" lon="-2.534139000">
        <ele>506.70</ele>
        <time>2015-01-17T11:06:08Z</time>
      </trkpt>
      <trkpt lat="42.438665000" lon="-2.534125000">
        <ele>506.50</ele>
        <time>2015-01-17T11:06:09Z</time>
      </trkpt>
      <trkpt lat="42.438667000" lon="-2.534111000">
        <ele>506.40</ele>
        <time>2015-01-17T11:06:10Z</time>
      </trkpt>
      <trkpt lat="42.438672000" lon="-2.534097000">
        <ele>506.30</ele>
        <time>2015-01-17T11:06:11Z</time>
      </trkpt>
      <trkpt lat="42.438673000" lon="-2.534084000">
        <ele>506.30</ele>
        <time>2015-01-17T11:06:12Z</time>
      </trkpt>
      <trkpt lat="42.438678000" lon="-2.534071000">
        <ele>506.30</ele>
        <time>2015-01-17T11:06:13Z</time>
      </trkpt>
      <trkpt lat="42.438679000" lon="-2.534054000">
        <ele>506.40</ele>
        <time>2015-01-17T11:06:14Z</time>
      </trkpt>
      <trkpt lat="42.438683000" lon="-2.534045000">
        <ele>506.40</ele>
        <time>2015-01-17T11:06:15Z</time>
      </trkpt>
      <trkpt lat="42.438686000" lon="-2.534032000">
        <ele>506.60</ele>
        <time>2015-01-17T11:06:16Z</time>
      </trkpt>
      <trkpt lat="42.438691000" lon="-2.534022000">
        <ele>506.70</ele>
        <time>2015-01-17T11:06:17Z</time>
      </trkpt>
      <trkpt lat="42.438693000" lon="-2.534012000">
        <ele>506.80</ele>
        <time>2015-01-17T11:06:18Z</time>
      </trkpt>
      <trkpt lat="42.438696000" lon="-2.533998000">
        <ele>506.90</ele>
        <time>2015-01-17T11:06:19Z</time>
      </trkpt>
      <trkpt lat="42.438696000" lon="-2.533987000">
        <ele>506.80</ele>
        <time>2015-01-17T11:06:20Z</time>
      </trkpt>
      <trkpt lat="42.438701000" lon="-2.533969000">
        <ele>506.60</ele>
        <time>2015-01-17T11:06:22Z</time>
      </trkpt>
      <trkpt lat="42.438703000" lon="-2.533958000">
        <ele>506.60</ele>
        <time>2015-01-17T11:06:23Z</time>
      </trkpt>
      <trkpt lat="42.438708000" lon="-2.533944000">
        <ele>506.60</ele>
        <time>2015-01-17T11:06:24Z</time>
      </trkpt>
      <trkpt lat="42.438712000" lon="-2.533934000">
        <ele>506.60</ele>
        <time>2015-01-17T11:06:25Z</time>
      </trkpt>
      <trkpt lat="42.438713000" lon="-2.533923000">
        <ele>506.40</ele>
        <time>2015-01-17T11:06:26Z</time>
      </trkpt>
      <trkpt lat="42.438715000" lon="-2.533911000">
        <ele>506.20</ele>
        <time>2015-01-17T11:06:27Z</time>
      </trkpt>
      <trkpt lat="42.438718000" lon="-2.533899000">
        <ele>506.10</ele>
        <time>2015-01-17T11:06:28Z</time>
      </trkpt>
      <trkpt lat="42.438719000" lon="-2.533887000">
        <ele>506.00</ele>
        <time>2015-01-17T11:06:29Z</time>
      </trkpt>
      <trkpt lat="42.438720000" lon="-2.533871000">
        <ele>506.00</ele>
        <time>2015-01-17T11:06:30Z</time>
      </trkpt>
      <trkpt lat="42.438723000" lon="-2.533858000">
        <ele>506.00</ele>
        <time>2015-01-17T11:06:31Z</time>
      </trkpt>
      <trkpt lat="42.438724000" lon="-2.533844000">
        <ele>506.00</ele>
        <time>2015-01-17T11:06:32Z</time>
      </trkpt>
      <trkpt lat="42.438728000" lon="-2.533833000">
        <ele>506.00</ele>
        <time>2015-01-17T11:06:33Z</time>
      </trkpt>
      <trkpt lat="42.438732000" lon="-2.533821000">
        <ele>506.00</ele>
        <time>2015-01-17T11:06:34Z</time>
      </trkpt>
      <trkpt lat="42.438732000" lon="-2.533807000">
        <ele>506.00</ele>
        <time>2015-01-17T11:06:35Z</time>
      </trkpt>
      <trkpt lat="42.438733000" lon="-2.533791000">
        <ele>505.90</ele>
        <time>2015-01-17T11:06:36Z</time>
      </trkpt>
      <trkpt lat="42.438735000" lon="-2.533778000">
        <ele>505.90</ele>
        <time>2015-01-17T11:06:37Z</time>
      </trkpt>
      <trkpt lat="42.438738000" lon="-2.533768000">
        <ele>505.80</ele>
        <time>2015-01-17T11:06:38Z</time>
      </trkpt>
      <trkpt lat="42.438740000" lon="-2.533754000">
        <ele>505.80</ele>
        <time>2015-01-17T11:06:39Z</time>
      </trkpt>
      <trkpt lat="42.438745000" lon="-2.533742000">
        <ele>505.80</ele>
        <time>2015-01-17T11:06:40Z</time>
      </trkpt>
      <trkpt lat="42.438750000" lon="-2.533729000">
        <ele>505.80</ele>
        <time>2015-01-17T11:06:41Z</time>
      </trkpt>
      <trkpt lat="42.438751000" lon="-2.533713000">
        <ele>505.70</ele>
        <time>2015-01-17T11:06:42Z</time>
      </trkpt>
      <trkpt lat="42.438753000" lon="-2.533700000">
        <ele>505.70</ele>
        <time>2015-01-17T11:06:43Z</time>
      </trkpt>
      <trkpt lat="42.438755000" lon="-2.533685000">
        <ele>505.70</ele>
        <time>2015-01-17T11:06:44Z</time>
      </trkpt>
      <trkpt lat="42.438756000" lon="-2.533673000">
        <ele>505.60</ele>
        <time>2015-01-17T11:06:45Z</time>
      </trkpt>
      <trkpt lat="42.438757000" lon="-2.533661000">
        <ele>505.60</ele>
        <time>2015-01-17T11:06:46Z</time>
      </trkpt>
      <trkpt lat="42.438759000" lon="-2.533651000">
        <ele>505.50</ele>
        <time>2015-01-17T11:06:47Z</time>
      </trkpt>
      <trkpt lat="42.438762000" lon="-2.533637000">
        <ele>505.60</ele>
        <time>2015-01-17T11:06:48Z</time>
      </trkpt>
      <trkpt lat="42.438766000" lon="-2.533627000">
        <ele>505.70</ele>
        <time>2015-01-17T11:06:49Z</time>
      </trkpt>
      <trkpt lat="42.438770000" lon="-2.533616000">
        <ele>505.80</ele>
        <time>2015-01-17T11:06:50Z</time>
      </trkpt>
      <trkpt lat="42.438770000" lon="-2.533602000">
        <ele>505.80</ele>
        <time>2015-01-17T11:06:51Z</time>
      </trkpt>
      <trkpt lat="42.438773000" lon="-2.533587000">
        <ele>505.70</ele>
        <time>2015-01-17T11:06:52Z</time>
      </trkpt>
      <trkpt lat="42.438776000" lon="-2.533575000">
        <ele>505.70</ele>
        <time>2015-01-17T11:06:53Z</time>
      </trkpt>
      <trkpt lat="42.438778000" lon="-2.533561000">
        <ele>505.50</ele>
        <time>2015-01-17T11:06:54Z</time>
      </trkpt>
      <trkpt lat="42.438780000" lon="-2.533548000">
        <ele>505.40</ele>
        <time>2015-01-17T11:06:55Z</time>
      </trkpt>
      <trkpt lat="42.438785000" lon="-2.533532000">
        <ele>505.40</ele>
        <time>2015-01-17T11:06:56Z</time>
      </trkpt>
      <trkpt lat="42.438786000" lon="-2.533521000">
        <ele>505.40</ele>
        <time>2015-01-17T11:06:57Z</time>
      </trkpt>
      <trkpt lat="42.438785000" lon="-2.533507000">
        <ele>505.30</ele>
        <time>2015-01-17T11:06:58Z</time>
      </trkpt>
      <trkpt lat="42.438786000" lon="-2.533498000">
        <ele>505.30</ele>
        <time>2015-01-17T11:06:59Z</time>
      </trkpt>
      <trkpt lat="42.438787000" lon="-2.533483000">
        <ele>505.20</ele>
        <time>2015-01-17T11:07:00Z</time>
      </trkpt>
      <trkpt lat="42.438788000" lon="-2.533470000">
        <ele>505.20</ele>
        <time>2015-01-17T11:07:01Z</time>
      </trkpt>
      <trkpt lat="42.438787000" lon="-2.533455000">
        <ele>505.20</ele>
        <time>2015-01-17T11:07:02Z</time>
      </trkpt>
      <trkpt lat="42.438788000" lon="-2.533438000">
        <ele>505.20</ele>
        <time>2015-01-17T11:07:03Z</time>
      </trkpt>
      <trkpt lat="42.438788000" lon="-2.533424000">
        <ele>505.30</ele>
        <time>2015-01-17T11:07:04Z</time>
      </trkpt>
      <trkpt lat="42.438789000" lon="-2.533416000">
        <ele>505.40</ele>
        <time>2015-01-17T11:07:05Z</time>
      </trkpt>
      <trkpt lat="42.438792000" lon="-2.533409000">
        <ele>505.70</ele>
        <time>2015-01-17T11:07:06Z</time>
      </trkpt>
      <trkpt lat="42.438796000" lon="-2.533398000">
        <ele>505.90</ele>
        <time>2015-01-17T11:07:07Z</time>
      </trkpt>
      <trkpt lat="42.438800000" lon="-2.533386000">
        <ele>506.00</ele>
        <time>2015-01-17T11:07:08Z</time>
      </trkpt>
      <trkpt lat="42.438801000" lon="-2.533373000">
        <ele>506.10</ele>
        <time>2015-01-17T11:07:09Z</time>
      </trkpt>
      <trkpt lat="42.438804000" lon="-2.533360000">
        <ele>506.20</ele>
        <time>2015-01-17T11:07:10Z</time>
      </trkpt>
      <trkpt lat="42.438807000" lon="-2.533346000">
        <ele>506.30</ele>
        <time>2015-01-17T11:07:11Z</time>
      </trkpt>
      <trkpt lat="42.438807000" lon="-2.533333000">
        <ele>506.30</ele>
        <time>2015-01-17T11:07:12Z</time>
      </trkpt>
      <trkpt lat="42.438809000" lon="-2.533320000">
        <ele>506.40</ele>
        <time>2015-01-17T11:07:13Z</time>
      </trkpt>
      <trkpt lat="42.438814000" lon="-2.533305000">
        <ele>506.40</ele>
        <time>2015-01-17T11:07:14Z</time>
      </trkpt>
      <trkpt lat="42.438817000" lon="-2.533289000">
        <ele>506.40</ele>
        <time>2015-01-17T11:07:15Z</time>
      </trkpt>
      <trkpt lat="42.438816000" lon="-2.533276000">
        <ele>506.50</ele>
        <time>2015-01-17T11:07:16Z</time>
      </trkpt>
      <trkpt lat="42.438819000" lon="-2.533263000">
        <ele>506.60</ele>
        <time>2015-01-17T11:07:17Z</time>
      </trkpt>
      <trkpt lat="42.438819000" lon="-2.533251000">
        <ele>506.70</ele>
        <time>2015-01-17T11:07:18Z</time>
      </trkpt>
      <trkpt lat="42.438820000" lon="-2.533241000">
        <ele>506.80</ele>
        <time>2015-01-17T11:07:19Z</time>
      </trkpt>
      <trkpt lat="42.438822000" lon="-2.533230000">
        <ele>506.80</ele>
        <time>2015-01-17T11:07:20Z</time>
      </trkpt>
      <trkpt lat="42.438821000" lon="-2.533216000">
        <ele>506.90</ele>
        <time>2015-01-17T11:07:21Z</time>
      </trkpt>
      <trkpt lat="42.438819000" lon="-2.533199000">
        <ele>506.90</ele>
        <time>2015-01-17T11:07:22Z</time>
      </trkpt>
      <trkpt lat="42.438821000" lon="-2.533173000">
        <ele>506.90</ele>
        <time>2015-01-17T11:07:24Z</time>
      </trkpt>
      <trkpt lat="42.438825000" lon="-2.533160000">
        <ele>507.00</ele>
        <time>2015-01-17T11:07:25Z</time>
      </trkpt>
      <trkpt lat="42.438824000" lon="-2.533143000">
        <ele>507.10</ele>
        <time>2015-01-17T11:07:26Z</time>
      </trkpt>
      <trkpt lat="42.438825000" lon="-2.533133000">
        <ele>507.20</ele>
        <time>2015-01-17T11:07:27Z</time>
      </trkpt>
      <trkpt lat="42.438822000" lon="-2.533116000">
        <ele>507.00</ele>
        <time>2015-01-17T11:07:28Z</time>
      </trkpt>
      <trkpt lat="42.438819000" lon="-2.533100000">
        <ele>506.90</ele>
        <time>2015-01-17T11:07:29Z</time>
      </trkpt>
      <trkpt lat="42.438816000" lon="-2.533084000">
        <ele>506.80</ele>
        <time>2015-01-17T11:07:30Z</time>
      </trkpt>
      <trkpt lat="42.438815000" lon="-2.533070000">
        <ele>506.70</ele>
        <time>2015-01-17T11:07:31Z</time>
      </trkpt>
      <trkpt lat="42.438814000" lon="-2.533060000">
        <ele>506.70</ele>
        <time>2015-01-17T11:07:32Z</time>
      </trkpt>
      <trkpt lat="42.438814000" lon="-2.533042000">
        <ele>506.60</ele>
        <time>2015-01-17T11:07:33Z</time>
      </trkpt>
      <trkpt lat="42.438812000" lon="-2.533031000">
        <ele>506.70</ele>
        <time>2015-01-17T11:07:34Z</time>
      </trkpt>
      <trkpt lat="42.438813000" lon="-2.533020000">
        <ele>506.80</ele>
        <time>2015-01-17T11:07:35Z</time>
      </trkpt>
      <trkpt lat="42.438813000" lon="-2.533011000">
        <ele>506.80</ele>
        <time>2015-01-17T11:07:36Z</time>
      </trkpt>
      <trkpt lat="42.438819000" lon="-2.533003000">
        <ele>506.90</ele>
        <time>2015-01-17T11:07:37Z</time>
      </trkpt>
      <trkpt lat="42.438822000" lon="-2.532994000">
        <ele>506.90</ele>
        <time>2015-01-17T11:07:38Z</time>
      </trkpt>
      <trkpt lat="42.438824000" lon="-2.532984000">
        <ele>506.90</ele>
        <time>2015-01-17T11:07:39Z</time>
      </trkpt>
      <trkpt lat="42.438826000" lon="-2.532969000">
        <ele>507.00</ele>
        <time>2015-01-17T11:07:40Z</time>
      </trkpt>
      <trkpt lat="42.438827000" lon="-2.532955000">
        <ele>507.10</ele>
        <time>2015-01-17T11:07:41Z</time>
      </trkpt>
      <trkpt lat="42.438829000" lon="-2.532939000">
        <ele>507.10</ele>
        <time>2015-01-17T11:07:42Z</time>
      </trkpt>
      <trkpt lat="42.438830000" lon="-2.532922000">
        <ele>507.20</ele>
        <time>2015-01-17T11:07:43Z</time>
      </trkpt>
      <trkpt lat="42.438830000" lon="-2.532909000">
        <ele>507.20</ele>
        <time>2015-01-17T11:07:44Z</time>
      </trkpt>
      <trkpt lat="42.438829000" lon="-2.532893000">
        <ele>507.30</ele>
        <time>2015-01-17T11:07:45Z</time>
      </trkpt>
      <trkpt lat="42.438828000" lon="-2.532876000">
        <ele>507.40</ele>
        <time>2015-01-17T11:07:46Z</time>
      </trkpt>
      <trkpt lat="42.438830000" lon="-2.532863000">
        <ele>507.40</ele>
        <time>2015-01-17T11:07:47Z</time>
      </trkpt>
      <trkpt lat="42.438831000" lon="-2.532850000">
        <ele>507.40</ele>
        <time>2015-01-17T11:07:48Z</time>
      </trkpt>
      <trkpt lat="42.438834000" lon="-2.532836000">
        <ele>507.50</ele>
        <time>2015-01-17T11:07:49Z</time>
      </trkpt>
      <trkpt lat="42.438836000" lon="-2.532826000">
        <ele>507.40</ele>
        <time>2015-01-17T11:07:50Z</time>
      </trkpt>
      <trkpt lat="42.438838000" lon="-2.532806000">
        <ele>507.40</ele>
        <time>2015-01-17T11:07:51Z</time>
      </trkpt>
      <trkpt lat="42.438838000" lon="-2.532791000">
        <ele>507.30</ele>
        <time>2015-01-17T11:07:52Z</time>
      </trkpt>
      <trkpt lat="42.438839000" lon="-2.532775000">
        <ele>507.30</ele>
        <time>2015-01-17T11:07:53Z</time>
      </trkpt>
      <trkpt lat="42.438841000" lon="-2.532763000">
        <ele>507.60</ele>
        <time>2015-01-17T11:07:54Z</time>
      </trkpt>
      <trkpt lat="42.438843000" lon="-2.532750000">
        <ele>507.80</ele>
        <time>2015-01-17T11:07:55Z</time>
      </trkpt>
      <trkpt lat="42.438846000" lon="-2.532738000">
        <ele>507.90</ele>
        <time>2015-01-17T11:07:56Z</time>
      </trkpt>
      <trkpt lat="42.438847000" lon="-2.532726000">
        <ele>508.00</ele>
        <time>2015-01-17T11:07:57Z</time>
      </trkpt>
      <trkpt lat="42.438845000" lon="-2.532714000">
        <ele>508.00</ele>
        <time>2015-01-17T11:07:58Z</time>
      </trkpt>
      <trkpt lat="42.438844000" lon="-2.532700000">
        <ele>508.00</ele>
        <time>2015-01-17T11:07:59Z</time>
      </trkpt>
      <trkpt lat="42.438839000" lon="-2.532687000">
        <ele>507.90</ele>
        <time>2015-01-17T11:08:00Z</time>
      </trkpt>
      <trkpt lat="42.438838000" lon="-2.532670000">
        <ele>507.80</ele>
        <time>2015-01-17T11:08:01Z</time>
      </trkpt>
      <trkpt lat="42.438840000" lon="-2.532656000">
        <ele>507.70</ele>
        <time>2015-01-17T11:08:02Z</time>
      </trkpt>
      <trkpt lat="42.438841000" lon="-2.532643000">
        <ele>507.70</ele>
        <time>2015-01-17T11:08:03Z</time>
      </trkpt>
      <trkpt lat="42.438845000" lon="-2.532627000">
        <ele>507.60</ele>
        <time>2015-01-17T11:08:04Z</time>
      </trkpt>
      <trkpt lat="42.438848000" lon="-2.532609000">
        <ele>507.60</ele>
        <time>2015-01-17T11:08:05Z</time>
      </trkpt>
      <trkpt lat="42.438848000" lon="-2.532594000">
        <ele>507.60</ele>
        <time>2015-01-17T11:08:06Z</time>
      </trkpt>
      <trkpt lat="42.438848000" lon="-2.532578000">
        <ele>507.60</ele>
        <time>2015-01-17T11:08:07Z</time>
      </trkpt>
      <trkpt lat="42.438851000" lon="-2.532562000">
        <ele>507.60</ele>
        <time>2015-01-17T11:08:08Z</time>
      </trkpt>
      <trkpt lat="42.438852000" lon="-2.532547000">
        <ele>507.50</ele>
        <time>2015-01-17T11:08:09Z</time>
      </trkpt>
      <trkpt lat="42.438852000" lon="-2.532533000">
        <ele>507.50</ele>
        <time>2015-01-17T11:08:10Z</time>
      </trkpt>
      <trkpt lat="42.438855000" lon="-2.532519000">
        <ele>507.40</ele>
        <time>2015-01-17T11:08:11Z</time>
      </trkpt>
      <trkpt lat="42.438855000" lon="-2.532503000">
        <ele>507.40</ele>
        <time>2015-01-17T11:08:12Z</time>
      </trkpt>
      <trkpt lat="42.438856000" lon="-2.532490000">
        <ele>507.40</ele>
        <time>2015-01-17T11:08:13Z</time>
      </trkpt>
      <trkpt lat="42.438858000" lon="-2.532475000">
        <ele>507.30</ele>
        <time>2015-01-17T11:08:14Z</time>
      </trkpt>
      <trkpt lat="42.438858000" lon="-2.532456000">
        <ele>507.30</ele>
        <time>2015-01-17T11:08:15Z</time>
      </trkpt>
      <trkpt lat="42.438859000" lon="-2.532437000">
        <ele>507.40</ele>
        <time>2015-01-17T11:08:16Z</time>
      </trkpt>
      <trkpt lat="42.438863000" lon="-2.532425000">
        <ele>507.40</ele>
        <time>2015-01-17T11:08:17Z</time>
      </trkpt>
      <trkpt lat="42.438869000" lon="-2.532412000">
        <ele>507.40</ele>
        <time>2015-01-17T11:08:18Z</time>
      </trkpt>
      <trkpt lat="42.438872000" lon="-2.532398000">
        <ele>507.30</ele>
        <time>2015-01-17T11:08:19Z</time>
      </trkpt>
      <trkpt lat="42.438875000" lon="-2.532384000">
        <ele>507.40</ele>
        <time>2015-01-17T11:08:20Z</time>
      </trkpt>
      <trkpt lat="42.438875000" lon="-2.532369000">
        <ele>507.40</ele>
        <time>2015-01-17T11:08:21Z</time>
      </trkpt>
      <trkpt lat="42.438876000" lon="-2.532358000">
        <ele>507.50</ele>
        <time>2015-01-17T11:08:22Z</time>
      </trkpt>
      <trkpt lat="42.438879000" lon="-2.532346000">
        <ele>507.60</ele>
        <time>2015-01-17T11:08:23Z</time>
      </trkpt>
      <trkpt lat="42.438880000" lon="-2.532333000">
        <ele>507.60</ele>
        <time>2015-01-17T11:08:24Z</time>
      </trkpt>
      <trkpt lat="42.438885000" lon="-2.532304000">
        <ele>507.80</ele>
        <time>2015-01-17T11:08:26Z</time>
      </trkpt>
      <trkpt lat="42.438887000" lon="-2.532286000">
        <ele>507.80</ele>
        <time>2015-01-17T11:08:27Z</time>
      </trkpt>
      <trkpt lat="42.438889000" lon="-2.532271000">
        <ele>507.90</ele>
        <time>2015-01-17T11:08:28Z</time>
      </trkpt>
      <trkpt lat="42.438891000" lon="-2.532254000">
        <ele>507.90</ele>
        <time>2015-01-17T11:08:29Z</time>
      </trkpt>
      <trkpt lat="42.438890000" lon="-2.532237000">
        <ele>508.00</ele>
        <time>2015-01-17T11:08:30Z</time>
      </trkpt>
      <trkpt lat="42.438894000" lon="-2.532222000">
        <ele>508.00</ele>
        <time>2015-01-17T11:08:31Z</time>
      </trkpt>
      <trkpt lat="42.438896000" lon="-2.532209000">
        <ele>508.10</ele>
        <time>2015-01-17T11:08:32Z</time>
      </trkpt>
      <trkpt lat="42.438901000" lon="-2.532196000">
        <ele>508.20</ele>
        <time>2015-01-17T11:08:33Z</time>
      </trkpt>
      <trkpt lat="42.438902000" lon="-2.532178000">
        <ele>508.30</ele>
        <time>2015-01-17T11:08:34Z</time>
      </trkpt>
      <trkpt lat="42.438904000" lon="-2.532162000">
        <ele>508.40</ele>
        <time>2015-01-17T11:08:35Z</time>
      </trkpt>
      <trkpt lat="42.438905000" lon="-2.532144000">
        <ele>508.40</ele>
        <time>2015-01-17T11:08:36Z</time>
      </trkpt>
      <trkpt lat="42.438906000" lon="-2.532133000">
        <ele>508.50</ele>
        <time>2015-01-17T11:08:37Z</time>
      </trkpt>
      <trkpt lat="42.438908000" lon="-2.532121000">
        <ele>508.50</ele>
        <time>2015-01-17T11:08:38Z</time>
      </trkpt>
      <trkpt lat="42.438911000" lon="-2.532110000">
        <ele>508.50</ele>
        <time>2015-01-17T11:08:39Z</time>
      </trkpt>
      <trkpt lat="42.438914000" lon="-2.532098000">
        <ele>508.60</ele>
        <time>2015-01-17T11:08:40Z</time>
      </trkpt>
      <trkpt lat="42.438912000" lon="-2.532087000">
        <ele>508.60</ele>
        <time>2015-01-17T11:08:41Z</time>
      </trkpt>
      <trkpt lat="42.438911000" lon="-2.532069000">
        <ele>508.60</ele>
        <time>2015-01-17T11:08:42Z</time>
      </trkpt>
      <trkpt lat="42.438911000" lon="-2.532055000">
        <ele>508.60</ele>
        <time>2015-01-17T11:08:43Z</time>
      </trkpt>
      <trkpt lat="42.438912000" lon="-2.532038000">
        <ele>508.70</ele>
        <time>2015-01-17T11:08:44Z</time>
      </trkpt>
      <trkpt lat="42.438916000" lon="-2.532019000">
        <ele>508.70</ele>
        <time>2015-01-17T11:08:45Z</time>
      </trkpt>
      <trkpt lat="42.438920000" lon="-2.532005000">
        <ele>508.70</ele>
        <time>2015-01-17T11:08:46Z</time>
      </trkpt>
      <trkpt lat="42.438922000" lon="-2.531992000">
        <ele>508.80</ele>
        <time>2015-01-17T11:08:47Z</time>
      </trkpt>
      <trkpt lat="42.438922000" lon="-2.531978000">
        <ele>508.80</ele>
        <time>2015-01-17T11:08:48Z</time>
      </trkpt>
      <trkpt lat="42.438923000" lon="-2.531964000">
        <ele>508.80</ele>
        <time>2015-01-17T11:08:49Z</time>
      </trkpt>
      <trkpt lat="42.438921000" lon="-2.531950000">
        <ele>508.80</ele>
        <time>2015-01-17T11:08:50Z</time>
      </trkpt>
      <trkpt lat="42.438922000" lon="-2.531935000">
        <ele>508.80</ele>
        <time>2015-01-17T11:08:51Z</time>
      </trkpt>
      <trkpt lat="42.438930000" lon="-2.531921000">
        <ele>508.80</ele>
        <time>2015-01-17T11:08:52Z</time>
      </trkpt>
      <trkpt lat="42.438931000" lon="-2.531903000">
        <ele>508.80</ele>
        <time>2015-01-17T11:08:53Z</time>
      </trkpt>
      <trkpt lat="42.438933000" lon="-2.531886000">
        <ele>508.90</ele>
        <time>2015-01-17T11:08:54Z</time>
      </trkpt>
      <trkpt lat="42.438933000" lon="-2.531875000">
        <ele>509.00</ele>
        <time>2015-01-17T11:08:55Z</time>
      </trkpt>
      <trkpt lat="42.438936000" lon="-2.531864000">
        <ele>509.00</ele>
        <time>2015-01-17T11:08:56Z</time>
      </trkpt>
      <trkpt lat="42.438941000" lon="-2.531856000">
        <ele>508.90</ele>
        <time>2015-01-17T11:08:57Z</time>
      </trkpt>
      <trkpt lat="42.438945000" lon="-2.531844000">
        <ele>508.90</ele>
        <time>2015-01-17T11:08:58Z</time>
      </trkpt>
      <trkpt lat="42.438949000" lon="-2.531833000">
        <ele>508.90</ele>
        <time>2015-01-17T11:08:59Z</time>
      </trkpt>
      <trkpt lat="42.438951000" lon="-2.531821000">
        <ele>508.90</ele>
        <time>2015-01-17T11:09:00Z</time>
      </trkpt>
      <trkpt lat="42.438955000" lon="-2.531811000">
        <ele>508.90</ele>
        <time>2015-01-17T11:09:01Z</time>
      </trkpt>
      <trkpt lat="42.438960000" lon="-2.531803000">
        <ele>508.90</ele>
        <time>2015-01-17T11:09:02Z</time>
      </trkpt>
      <trkpt lat="42.438963000" lon="-2.531790000">
        <ele>508.90</ele>
        <time>2015-01-17T11:09:03Z</time>
      </trkpt>
      <trkpt lat="42.438970000" lon="-2.531780000">
        <ele>508.90</ele>
        <time>2015-01-17T11:09:04Z</time>
      </trkpt>
      <trkpt lat="42.438972000" lon="-2.531767000">
        <ele>508.90</ele>
        <time>2015-01-17T11:09:05Z</time>
      </trkpt>
      <trkpt lat="42.438976000" lon="-2.531756000">
        <ele>508.90</ele>
        <time>2015-01-17T11:09:06Z</time>
      </trkpt>
      <trkpt lat="42.438982000" lon="-2.531746000">
        <ele>508.90</ele>
        <time>2015-01-17T11:09:07Z</time>
      </trkpt>
      <trkpt lat="42.438984000" lon="-2.531734000">
        <ele>508.90</ele>
        <time>2015-01-17T11:09:08Z</time>
      </trkpt>
      <trkpt lat="42.438990000" lon="-2.531722000">
        <ele>508.90</ele>
        <time>2015-01-17T11:09:09Z</time>
      </trkpt>
      <trkpt lat="42.438994000" lon="-2.531708000">
        <ele>509.00</ele>
        <time>2015-01-17T11:09:10Z</time>
      </trkpt>
      <trkpt lat="42.438998000" lon="-2.531695000">
        <ele>509.00</ele>
        <time>2015-01-17T11:09:11Z</time>
      </trkpt>
      <trkpt lat="42.439002000" lon="-2.531681000">
        <ele>509.20</ele>
        <time>2015-01-17T11:09:12Z</time>
      </trkpt>
      <trkpt lat="42.439008000" lon="-2.531668000">
        <ele>509.30</ele>
        <time>2015-01-17T11:09:13Z</time>
      </trkpt>
      <trkpt lat="42.439014000" lon="-2.531651000">
        <ele>509.30</ele>
        <time>2015-01-17T11:09:14Z</time>
      </trkpt>
      <trkpt lat="42.439024000" lon="-2.531633000">
        <ele>509.20</ele>
        <time>2015-01-17T11:09:15Z</time>
      </trkpt>
      <trkpt lat="42.439030000" lon="-2.531617000">
        <ele>509.10</ele>
        <time>2015-01-17T11:09:16Z</time>
      </trkpt>
      <trkpt lat="42.439036000" lon="-2.531601000">
        <ele>509.00</ele>
        <time>2015-01-17T11:09:17Z</time>
      </trkpt>
      <trkpt lat="42.439040000" lon="-2.531585000">
        <ele>508.90</ele>
        <time>2015-01-17T11:09:18Z</time>
      </trkpt>
      <trkpt lat="42.439044000" lon="-2.531572000">
        <ele>508.80</ele>
        <time>2015-01-17T11:09:19Z</time>
      </trkpt>
      <trkpt lat="42.439048000" lon="-2.531560000">
        <ele>508.80</ele>
        <time>2015-01-17T11:09:20Z</time>
      </trkpt>
      <trkpt lat="42.439050000" lon="-2.531546000">
        <ele>508.80</ele>
        <time>2015-01-17T11:09:21Z</time>
      </trkpt>
      <trkpt lat="42.439052000" lon="-2.531533000">
        <ele>508.90</ele>
        <time>2015-01-17T11:09:22Z</time>
      </trkpt>
      <trkpt lat="42.439055000" lon="-2.531521000">
        <ele>508.90</ele>
        <time>2015-01-17T11:09:23Z</time>
      </trkpt>
      <trkpt lat="42.439058000" lon="-2.531506000">
        <ele>509.10</ele>
        <time>2015-01-17T11:09:24Z</time>
      </trkpt>
      <trkpt lat="42.439063000" lon="-2.531491000">
        <ele>509.30</ele>
        <time>2015-01-17T11:09:25Z</time>
      </trkpt>
      <trkpt lat="42.439067000" lon="-2.531477000">
        <ele>509.40</ele>
        <time>2015-01-17T11:09:26Z</time>
      </trkpt>
      <trkpt lat="42.439071000" lon="-2.531451000">
        <ele>509.40</ele>
        <time>2015-01-17T11:09:28Z</time>
      </trkpt>
      <trkpt lat="42.439076000" lon="-2.531436000">
        <ele>509.40</ele>
        <time>2015-01-17T11:09:29Z</time>
      </trkpt>
      <trkpt lat="42.439083000" lon="-2.531421000">
        <ele>509.30</ele>
        <time>2015-01-17T11:09:30Z</time>
      </trkpt>
      <trkpt lat="42.439089000" lon="-2.531406000">
        <ele>509.20</ele>
        <time>2015-01-17T11:09:31Z</time>
      </trkpt>
      <trkpt lat="42.439093000" lon="-2.531389000">
        <ele>509.10</ele>
        <time>2015-01-17T11:09:32Z</time>
      </trkpt>
      <trkpt lat="42.439095000" lon="-2.531375000">
        <ele>509.10</ele>
        <time>2015-01-17T11:09:33Z</time>
      </trkpt>
      <trkpt lat="42.439100000" lon="-2.531358000">
        <ele>509.20</ele>
        <time>2015-01-17T11:09:34Z</time>
      </trkpt>
      <trkpt lat="42.439104000" lon="-2.531342000">
        <ele>509.20</ele>
        <time>2015-01-17T11:09:35Z</time>
      </trkpt>
      <trkpt lat="42.439106000" lon="-2.531327000">
        <ele>509.30</ele>
        <time>2015-01-17T11:09:36Z</time>
      </trkpt>
      <trkpt lat="42.439111000" lon="-2.531314000">
        <ele>509.40</ele>
        <time>2015-01-17T11:09:37Z</time>
      </trkpt>
      <trkpt lat="42.439116000" lon="-2.531300000">
        <ele>509.40</ele>
        <time>2015-01-17T11:09:38Z</time>
      </trkpt>
      <trkpt lat="42.439123000" lon="-2.531285000">
        <ele>509.40</ele>
        <time>2015-01-17T11:09:39Z</time>
      </trkpt>
      <trkpt lat="42.439130000" lon="-2.531271000">
        <ele>509.50</ele>
        <time>2015-01-17T11:09:40Z</time>
      </trkpt>
      <trkpt lat="42.439137000" lon="-2.531258000">
        <ele>509.50</ele>
        <time>2015-01-17T11:09:41Z</time>
      </trkpt>
      <trkpt lat="42.439143000" lon="-2.531247000">
        <ele>509.50</ele>
        <time>2015-01-17T11:09:42Z</time>
      </trkpt>
      <trkpt lat="42.439148000" lon="-2.531231000">
        <ele>509.50</ele>
        <time>2015-01-17T11:09:43Z</time>
      </trkpt>
      <trkpt lat="42.439152000" lon="-2.531215000">
        <ele>509.70</ele>
        <time>2015-01-17T11:09:44Z</time>
      </trkpt>
      <trkpt lat="42.439155000" lon="-2.531203000">
        <ele>509.80</ele>
        <time>2015-01-17T11:09:45Z</time>
      </trkpt>
      <trkpt lat="42.439152000" lon="-2.531185000">
        <ele>509.90</ele>
        <time>2015-01-17T11:09:46Z</time>
      </trkpt>
      <trkpt lat="42.439158000" lon="-2.531172000">
        <ele>510.00</ele>
        <time>2015-01-17T11:09:47Z</time>
      </trkpt>
      <trkpt lat="42.439161000" lon="-2.531158000">
        <ele>510.00</ele>
        <time>2015-01-17T11:09:48Z</time>
      </trkpt>
      <trkpt lat="42.439167000" lon="-2.531145000">
        <ele>510.10</ele>
        <time>2015-01-17T11:09:49Z</time>
      </trkpt>
      <trkpt lat="42.439171000" lon="-2.531134000">
        <ele>510.00</ele>
        <time>2015-01-17T11:09:50Z</time>
      </trkpt>
      <trkpt lat="42.439174000" lon="-2.531121000">
        <ele>509.90</ele>
        <time>2015-01-17T11:09:51Z</time>
      </trkpt>
      <trkpt lat="42.439178000" lon="-2.531106000">
        <ele>509.80</ele>
        <time>2015-01-17T11:09:52Z</time>
      </trkpt>
      <trkpt lat="42.439180000" lon="-2.531092000">
        <ele>509.70</ele>
        <time>2015-01-17T11:09:53Z</time>
      </trkpt>
      <trkpt lat="42.439181000" lon="-2.531079000">
        <ele>509.60</ele>
        <time>2015-01-17T11:09:54Z</time>
      </trkpt>
      <trkpt lat="42.439183000" lon="-2.531066000">
        <ele>509.60</ele>
        <time>2015-01-17T11:09:55Z</time>
      </trkpt>
      <trkpt lat="42.439186000" lon="-2.531055000">
        <ele>509.80</ele>
        <time>2015-01-17T11:09:56Z</time>
      </trkpt>
      <trkpt lat="42.439185000" lon="-2.531042000">
        <ele>510.00</ele>
        <time>2015-01-17T11:09:57Z</time>
      </trkpt>
      <trkpt lat="42.439187000" lon="-2.531027000">
        <ele>510.10</ele>
        <time>2015-01-17T11:09:58Z</time>
      </trkpt>
      <trkpt lat="42.439190000" lon="-2.531014000">
        <ele>510.20</ele>
        <time>2015-01-17T11:09:59Z</time>
      </trkpt>
      <trkpt lat="42.439192000" lon="-2.530995000">
        <ele>510.10</ele>
        <time>2015-01-17T11:10:00Z</time>
      </trkpt>
      <trkpt lat="42.439195000" lon="-2.530980000">
        <ele>510.10</ele>
        <time>2015-01-17T11:10:01Z</time>
      </trkpt>
      <trkpt lat="42.439199000" lon="-2.530965000">
        <ele>510.00</ele>
        <time>2015-01-17T11:10:02Z</time>
      </trkpt>
      <trkpt lat="42.439200000" lon="-2.530951000">
        <ele>510.00</ele>
        <time>2015-01-17T11:10:03Z</time>
      </trkpt>
      <trkpt lat="42.439205000" lon="-2.530941000">
        <ele>510.00</ele>
        <time>2015-01-17T11:10:04Z</time>
      </trkpt>
      <trkpt lat="42.439207000" lon="-2.530925000">
        <ele>510.00</ele>
        <time>2015-01-17T11:10:05Z</time>
      </trkpt>
      <trkpt lat="42.439203000" lon="-2.530912000">
        <ele>510.00</ele>
        <time>2015-01-17T11:10:06Z</time>
      </trkpt>
      <trkpt lat="42.439206000" lon="-2.530896000">
        <ele>510.00</ele>
        <time>2015-01-17T11:10:07Z</time>
      </trkpt>
      <trkpt lat="42.439207000" lon="-2.530881000">
        <ele>510.00</ele>
        <time>2015-01-17T11:10:08Z</time>
      </trkpt>
      <trkpt lat="42.439207000" lon="-2.530861000">
        <ele>510.00</ele>
        <time>2015-01-17T11:10:09Z</time>
      </trkpt>
      <trkpt lat="42.439206000" lon="-2.530844000">
        <ele>509.90</ele>
        <time>2015-01-17T11:10:10Z</time>
      </trkpt>
      <trkpt lat="42.439210000" lon="-2.530822000">
        <ele>509.80</ele>
        <time>2015-01-17T11:10:11Z</time>
      </trkpt>
      <trkpt lat="42.439218000" lon="-2.530805000">
        <ele>509.80</ele>
        <time>2015-01-17T11:10:12Z</time>
      </trkpt>
      <trkpt lat="42.439224000" lon="-2.530785000">
        <ele>509.80</ele>
        <time>2015-01-17T11:10:13Z</time>
      </trkpt>
      <trkpt lat="42.439225000" lon="-2.530762000">
        <ele>509.80</ele>
        <time>2015-01-17T11:10:14Z</time>
      </trkpt>
      <trkpt lat="42.439228000" lon="-2.530739000">
        <ele>509.70</ele>
        <time>2015-01-17T11:10:15Z</time>
      </trkpt>
      <trkpt lat="42.439229000" lon="-2.530721000">
        <ele>510.00</ele>
        <time>2015-01-17T11:10:16Z</time>
      </trkpt>
      <trkpt lat="42.439228000" lon="-2.530710000">
        <ele>510.20</ele>
        <time>2015-01-17T11:10:17Z</time>
      </trkpt>
      <trkpt lat="42.439237000" lon="-2.530694000">
        <ele>510.30</ele>
        <time>2015-01-17T11:10:18Z</time>
      </trkpt>
      <trkpt lat="42.439237000" lon="-2.530682000">
        <ele>510.40</ele>
        <time>2015-01-17T11:10:19Z</time>
      </trkpt>
      <trkpt lat="42.439247000" lon="-2.530672000">
        <ele>510.40</ele>
        <time>2015-01-17T11:10:20Z</time>
      </trkpt>
      <trkpt lat="42.439249000" lon="-2.530656000">
        <ele>510.40</ele>
        <time>2015-01-17T11:10:21Z</time>
      </trkpt>
      <trkpt lat="42.439256000" lon="-2.530643000">
        <ele>510.30</ele>
        <time>2015-01-17T11:10:22Z</time>
      </trkpt>
      <trkpt lat="42.439260000" lon="-2.530632000">
        <ele>510.20</ele>
        <time>2015-01-17T11:10:23Z</time>
      </trkpt>
      <trkpt lat="42.439261000" lon="-2.530623000">
        <ele>510.30</ele>
        <time>2015-01-17T11:10:24Z</time>
      </trkpt>
      <trkpt lat="42.439257000" lon="-2.530614000">
        <ele>510.30</ele>
        <time>2015-01-17T11:10:25Z</time>
      </trkpt>
      <trkpt lat="42.439260000" lon="-2.530600000">
        <ele>510.30</ele>
        <time>2015-01-17T11:10:26Z</time>
      </trkpt>
      <trkpt lat="42.439266000" lon="-2.530584000">
        <ele>510.30</ele>
        <time>2015-01-17T11:10:27Z</time>
      </trkpt>
      <trkpt lat="42.439270000" lon="-2.530569000">
        <ele>510.50</ele>
        <time>2015-01-17T11:10:28Z</time>
      </trkpt>
      <trkpt lat="42.439278000" lon="-2.530538000">
        <ele>510.90</ele>
        <time>2015-01-17T11:10:30Z</time>
      </trkpt>
      <trkpt lat="42.439284000" lon="-2.530519000">
        <ele>511.00</ele>
        <time>2015-01-17T11:10:31Z</time>
      </trkpt>
      <trkpt lat="42.439286000" lon="-2.530499000">
        <ele>511.00</ele>
        <time>2015-01-17T11:10:32Z</time>
      </trkpt>
      <trkpt lat="42.439290000" lon="-2.530483000">
        <ele>511.10</ele>
        <time>2015-01-17T11:10:33Z</time>
      </trkpt>
      <trkpt lat="42.439295000" lon="-2.530471000">
        <ele>511.10</ele>
        <time>2015-01-17T11:10:34Z</time>
      </trkpt>
      <trkpt lat="42.439298000" lon="-2.530457000">
        <ele>511.00</ele>
        <time>2015-01-17T11:10:35Z</time>
      </trkpt>
      <trkpt lat="42.439299000" lon="-2.530436000">
        <ele>511.00</ele>
        <time>2015-01-17T11:10:36Z</time>
      </trkpt>
      <trkpt lat="42.439300000" lon="-2.530417000">
        <ele>511.00</ele>
        <time>2015-01-17T11:10:37Z</time>
      </trkpt>
      <trkpt lat="42.439302000" lon="-2.530405000">
        <ele>511.00</ele>
        <time>2015-01-17T11:10:38Z</time>
      </trkpt>
      <trkpt lat="42.439302000" lon="-2.530389000">
        <ele>511.00</ele>
        <time>2015-01-17T11:10:39Z</time>
      </trkpt>
      <trkpt lat="42.439305000" lon="-2.530376000">
        <ele>511.30</ele>
        <time>2015-01-17T11:10:40Z</time>
      </trkpt>
      <trkpt lat="42.439310000" lon="-2.530362000">
        <ele>511.50</ele>
        <time>2015-01-17T11:10:41Z</time>
      </trkpt>
      <trkpt lat="42.439314000" lon="-2.530351000">
        <ele>511.60</ele>
        <time>2015-01-17T11:10:42Z</time>
      </trkpt>
      <trkpt lat="42.439316000" lon="-2.530342000">
        <ele>511.70</ele>
        <time>2015-01-17T11:10:43Z</time>
      </trkpt>
      <trkpt lat="42.439320000" lon="-2.530330000">
        <ele>511.70</ele>
        <time>2015-01-17T11:10:44Z</time>
      </trkpt>
      <trkpt lat="42.439324000" lon="-2.530316000">
        <ele>511.70</ele>
        <time>2015-01-17T11:10:45Z</time>
      </trkpt>
      <trkpt lat="42.439333000" lon="-2.530302000">
        <ele>511.70</ele>
        <time>2015-01-17T11:10:46Z</time>
      </trkpt>
      <trkpt lat="42.439336000" lon="-2.530286000">
        <ele>511.70</ele>
        <time>2015-01-17T11:10:47Z</time>
      </trkpt>
      <trkpt lat="42.439331000" lon="-2.530271000">
        <ele>511.80</ele>
        <time>2015-01-17T11:10:48Z</time>
      </trkpt>
      <trkpt lat="42.439330000" lon="-2.530252000">
        <ele>511.80</ele>
        <time>2015-01-17T11:10:49Z</time>
      </trkpt>
      <trkpt lat="42.439333000" lon="-2.530236000">
        <ele>511.90</ele>
        <time>2015-01-17T11:10:50Z</time>
      </trkpt>
      <trkpt lat="42.439335000" lon="-2.530216000">
        <ele>512.00</ele>
        <time>2015-01-17T11:10:51Z</time>
      </trkpt>
      <trkpt lat="42.439339000" lon="-2.530201000">
        <ele>512.10</ele>
        <time>2015-01-17T11:10:52Z</time>
      </trkpt>
      <trkpt lat="42.439339000" lon="-2.530190000">
        <ele>512.10</ele>
        <time>2015-01-17T11:10:53Z</time>
      </trkpt>
      <trkpt lat="42.439340000" lon="-2.530175000">
        <ele>512.20</ele>
        <time>2015-01-17T11:10:54Z</time>
      </trkpt>
      <trkpt lat="42.439343000" lon="-2.530161000">
        <ele>512.20</ele>
        <time>2015-01-17T11:10:55Z</time>
      </trkpt>
      <trkpt lat="42.439344000" lon="-2.530143000">
        <ele>512.20</ele>
        <time>2015-01-17T11:10:56Z</time>
      </trkpt>
      <trkpt lat="42.439344000" lon="-2.530128000">
        <ele>512.20</ele>
        <time>2015-01-17T11:10:57Z</time>
      </trkpt>
      <trkpt lat="42.439347000" lon="-2.530113000">
        <ele>512.40</ele>
        <time>2015-01-17T11:10:58Z</time>
      </trkpt>
      <trkpt lat="42.439349000" lon="-2.530099000">
        <ele>512.60</ele>
        <time>2015-01-17T11:10:59Z</time>
      </trkpt>
      <trkpt lat="42.439353000" lon="-2.530081000">
        <ele>512.50</ele>
        <time>2015-01-17T11:11:00Z</time>
      </trkpt>
      <trkpt lat="42.439357000" lon="-2.530068000">
        <ele>512.40</ele>
        <time>2015-01-17T11:11:01Z</time>
      </trkpt>
      <trkpt lat="42.439361000" lon="-2.530047000">
        <ele>512.50</ele>
        <time>2015-01-17T11:11:02Z</time>
      </trkpt>
      <trkpt lat="42.439363000" lon="-2.530027000">
        <ele>512.60</ele>
        <time>2015-01-17T11:11:03Z</time>
      </trkpt>
      <trkpt lat="42.439367000" lon="-2.530013000">
        <ele>512.60</ele>
        <time>2015-01-17T11:11:04Z</time>
      </trkpt>
      <trkpt lat="42.439371000" lon="-2.529997000">
        <ele>512.60</ele>
        <time>2015-01-17T11:11:05Z</time>
      </trkpt>
      <trkpt lat="42.439373000" lon="-2.529980000">
        <ele>512.60</ele>
        <time>2015-01-17T11:11:06Z</time>
      </trkpt>
      <trkpt lat="42.439375000" lon="-2.529961000">
        <ele>512.70</ele>
        <time>2015-01-17T11:11:07Z</time>
      </trkpt>
      <trkpt lat="42.439376000" lon="-2.529946000">
        <ele>512.70</ele>
        <time>2015-01-17T11:11:08Z</time>
      </trkpt>
      <trkpt lat="42.439377000" lon="-2.529932000">
        <ele>512.70</ele>
        <time>2015-01-17T11:11:09Z</time>
      </trkpt>
      <trkpt lat="42.439380000" lon="-2.529916000">
        <ele>513.00</ele>
        <time>2015-01-17T11:11:10Z</time>
      </trkpt>
      <trkpt lat="42.439386000" lon="-2.529899000">
        <ele>513.20</ele>
        <time>2015-01-17T11:11:11Z</time>
      </trkpt>
      <trkpt lat="42.439391000" lon="-2.529878000">
        <ele>513.30</ele>
        <time>2015-01-17T11:11:12Z</time>
      </trkpt>
      <trkpt lat="42.439394000" lon="-2.529861000">
        <ele>513.40</ele>
        <time>2015-01-17T11:11:13Z</time>
      </trkpt>
      <trkpt lat="42.439401000" lon="-2.529845000">
        <ele>513.60</ele>
        <time>2015-01-17T11:11:14Z</time>
      </trkpt>
      <trkpt lat="42.439404000" lon="-2.529828000">
        <ele>513.70</ele>
        <time>2015-01-17T11:11:15Z</time>
      </trkpt>
      <trkpt lat="42.439407000" lon="-2.529813000">
        <ele>513.80</ele>
        <time>2015-01-17T11:11:16Z</time>
      </trkpt>
      <trkpt lat="42.439410000" lon="-2.529798000">
        <ele>513.80</ele>
        <time>2015-01-17T11:11:17Z</time>
      </trkpt>
      <trkpt lat="42.439413000" lon="-2.529784000">
        <ele>513.90</ele>
        <time>2015-01-17T11:11:18Z</time>
      </trkpt>
      <trkpt lat="42.439414000" lon="-2.529767000">
        <ele>513.90</ele>
        <time>2015-01-17T11:11:19Z</time>
      </trkpt>
      <trkpt lat="42.439419000" lon="-2.529753000">
        <ele>513.90</ele>
        <time>2015-01-17T11:11:20Z</time>
      </trkpt>
      <trkpt lat="42.439423000" lon="-2.529742000">
        <ele>514.00</ele>
        <time>2015-01-17T11:11:21Z</time>
      </trkpt>
      <trkpt lat="42.439428000" lon="-2.529728000">
        <ele>513.90</ele>
        <time>2015-01-17T11:11:22Z</time>
      </trkpt>
      <trkpt lat="42.439428000" lon="-2.529715000">
        <ele>513.90</ele>
        <time>2015-01-17T11:11:23Z</time>
      </trkpt>
      <trkpt lat="42.439431000" lon="-2.529699000">
        <ele>513.90</ele>
        <time>2015-01-17T11:11:24Z</time>
      </trkpt>
      <trkpt lat="42.439433000" lon="-2.529689000">
        <ele>513.80</ele>
        <time>2015-01-17T11:11:25Z</time>
      </trkpt>
      <trkpt lat="42.439437000" lon="-2.529676000">
        <ele>513.80</ele>
        <time>2015-01-17T11:11:26Z</time>
      </trkpt>
      <trkpt lat="42.439439000" lon="-2.529662000">
        <ele>513.80</ele>
        <time>2015-01-17T11:11:27Z</time>
      </trkpt>
      <trkpt lat="42.439443000" lon="-2.529648000">
        <ele>513.70</ele>
        <time>2015-01-17T11:11:28Z</time>
      </trkpt>
      <trkpt lat="42.439449000" lon="-2.529637000">
        <ele>513.70</ele>
        <time>2015-01-17T11:11:29Z</time>
      </trkpt>
      <trkpt lat="42.439453000" lon="-2.529623000">
        <ele>513.70</ele>
        <time>2015-01-17T11:11:30Z</time>
      </trkpt>
      <trkpt lat="42.439459000" lon="-2.529588000">
        <ele>513.70</ele>
        <time>2015-01-17T11:11:32Z</time>
      </trkpt>
      <trkpt lat="42.439463000" lon="-2.529575000">
        <ele>513.70</ele>
        <time>2015-01-17T11:11:33Z</time>
      </trkpt>
      <trkpt lat="42.439466000" lon="-2.529560000">
        <ele>513.70</ele>
        <time>2015-01-17T11:11:34Z</time>
      </trkpt>
      <trkpt lat="42.439470000" lon="-2.529540000">
        <ele>513.70</ele>
        <time>2015-01-17T11:11:35Z</time>
      </trkpt>
      <trkpt lat="42.439473000" lon="-2.529523000">
        <ele>513.80</ele>
        <time>2015-01-17T11:11:36Z</time>
      </trkpt>
      <trkpt lat="42.439477000" lon="-2.529511000">
        <ele>513.80</ele>
        <time>2015-01-17T11:11:37Z</time>
      </trkpt>
      <trkpt lat="42.439478000" lon="-2.529495000">
        <ele>514.00</ele>
        <time>2015-01-17T11:11:38Z</time>
      </trkpt>
      <trkpt lat="42.439479000" lon="-2.529479000">
        <ele>514.10</ele>
        <time>2015-01-17T11:11:39Z</time>
      </trkpt>
      <trkpt lat="42.439483000" lon="-2.529462000">
        <ele>514.20</ele>
        <time>2015-01-17T11:11:40Z</time>
      </trkpt>
      <trkpt lat="42.439485000" lon="-2.529444000">
        <ele>514.30</ele>
        <time>2015-01-17T11:11:41Z</time>
      </trkpt>
      <trkpt lat="42.439489000" lon="-2.529427000">
        <ele>514.30</ele>
        <time>2015-01-17T11:11:42Z</time>
      </trkpt>
      <trkpt lat="42.439492000" lon="-2.529413000">
        <ele>514.40</ele>
        <time>2015-01-17T11:11:43Z</time>
      </trkpt>
      <trkpt lat="42.439495000" lon="-2.529395000">
        <ele>514.40</ele>
        <time>2015-01-17T11:11:44Z</time>
      </trkpt>
      <trkpt lat="42.439500000" lon="-2.529379000">
        <ele>514.40</ele>
        <time>2015-01-17T11:11:45Z</time>
      </trkpt>
      <trkpt lat="42.439504000" lon="-2.529362000">
        <ele>514.70</ele>
        <time>2015-01-17T11:11:46Z</time>
      </trkpt>
      <trkpt lat="42.439511000" lon="-2.529343000">
        <ele>514.90</ele>
        <time>2015-01-17T11:11:47Z</time>
      </trkpt>
      <trkpt lat="42.439514000" lon="-2.529327000">
        <ele>515.00</ele>
        <time>2015-01-17T11:11:48Z</time>
      </trkpt>
      <trkpt lat="42.439516000" lon="-2.529316000">
        <ele>515.20</ele>
        <time>2015-01-17T11:11:49Z</time>
      </trkpt>
      <trkpt lat="42.439518000" lon="-2.529305000">
        <ele>515.10</ele>
        <time>2015-01-17T11:11:50Z</time>
      </trkpt>
      <trkpt lat="42.439519000" lon="-2.529294000">
        <ele>515.10</ele>
        <time>2015-01-17T11:11:51Z</time>
      </trkpt>
      <trkpt lat="42.439522000" lon="-2.529281000">
        <ele>514.90</ele>
        <time>2015-01-17T11:11:52Z</time>
      </trkpt>
      <trkpt lat="42.439526000" lon="-2.529269000">
        <ele>514.80</ele>
        <time>2015-01-17T11:11:53Z</time>
      </trkpt>
      <trkpt lat="42.439531000" lon="-2.529259000">
        <ele>514.70</ele>
        <time>2015-01-17T11:11:54Z</time>
      </trkpt>
      <trkpt lat="42.439534000" lon="-2.529246000">
        <ele>514.70</ele>
        <time>2015-01-17T11:11:55Z</time>
      </trkpt>
      <trkpt lat="42.439538000" lon="-2.529234000">
        <ele>514.70</ele>
        <time>2015-01-17T11:11:56Z</time>
      </trkpt>
      <trkpt lat="42.439540000" lon="-2.529225000">
        <ele>514.80</ele>
        <time>2015-01-17T11:11:57Z</time>
      </trkpt>
      <trkpt lat="42.439544000" lon="-2.529210000">
        <ele>514.80</ele>
        <time>2015-01-17T11:11:58Z</time>
      </trkpt>
      <trkpt lat="42.439546000" lon="-2.529198000">
        <ele>514.90</ele>
        <time>2015-01-17T11:11:59Z</time>
      </trkpt>
      <trkpt lat="42.439550000" lon="-2.529187000">
        <ele>514.90</ele>
        <time>2015-01-17T11:12:00Z</time>
      </trkpt>
      <trkpt lat="42.439552000" lon="-2.529175000">
        <ele>514.90</ele>
        <time>2015-01-17T11:12:01Z</time>
      </trkpt>
      <trkpt lat="42.439558000" lon="-2.529162000">
        <ele>514.90</ele>
        <time>2015-01-17T11:12:02Z</time>
      </trkpt>
      <trkpt lat="42.439561000" lon="-2.529149000">
        <ele>514.90</ele>
        <time>2015-01-17T11:12:03Z</time>
      </trkpt>
      <trkpt lat="42.439563000" lon="-2.529137000">
        <ele>515.00</ele>
        <time>2015-01-17T11:12:04Z</time>
      </trkpt>
      <trkpt lat="42.439564000" lon="-2.529122000">
        <ele>515.10</ele>
        <time>2015-01-17T11:12:05Z</time>
      </trkpt>
      <trkpt lat="42.439564000" lon="-2.529107000">
        <ele>515.20</ele>
        <time>2015-01-17T11:12:06Z</time>
      </trkpt>
      <trkpt lat="42.439565000" lon="-2.529091000">
        <ele>515.30</ele>
        <time>2015-01-17T11:12:07Z</time>
      </trkpt>
      <trkpt lat="42.439569000" lon="-2.529070000">
        <ele>515.30</ele>
        <time>2015-01-17T11:12:08Z</time>
      </trkpt>
      <trkpt lat="42.439572000" lon="-2.529052000">
        <ele>515.40</ele>
        <time>2015-01-17T11:12:09Z</time>
      </trkpt>
      <trkpt lat="42.439574000" lon="-2.529030000">
        <ele>515.50</ele>
        <time>2015-01-17T11:12:10Z</time>
      </trkpt>
      <trkpt lat="42.439574000" lon="-2.529011000">
        <ele>515.50</ele>
        <time>2015-01-17T11:12:11Z</time>
      </trkpt>
      <trkpt lat="42.439574000" lon="-2.528991000">
        <ele>515.60</ele>
        <time>2015-01-17T11:12:12Z</time>
      </trkpt>
      <trkpt lat="42.439574000" lon="-2.528973000">
        <ele>515.60</ele>
        <time>2015-01-17T11:12:13Z</time>
      </trkpt>
      <trkpt lat="42.439574000" lon="-2.528958000">
        <ele>515.70</ele>
        <time>2015-01-17T11:12:14Z</time>
      </trkpt>
      <trkpt lat="42.439575000" lon="-2.528943000">
        <ele>515.80</ele>
        <time>2015-01-17T11:12:15Z</time>
      </trkpt>
      <trkpt lat="42.439579000" lon="-2.528932000">
        <ele>515.90</ele>
        <time>2015-01-17T11:12:16Z</time>
      </trkpt>
      <trkpt lat="42.439583000" lon="-2.528923000">
        <ele>516.00</ele>
        <time>2015-01-17T11:12:17Z</time>
      </trkpt>
      <trkpt lat="42.439584000" lon="-2.528912000">
        <ele>516.00</ele>
        <time>2015-01-17T11:12:18Z</time>
      </trkpt>
      <trkpt lat="42.439584000" lon="-2.528902000">
        <ele>516.10</ele>
        <time>2015-01-17T11:12:19Z</time>
      </trkpt>
      <trkpt lat="42.439583000" lon="-2.528891000">
        <ele>516.10</ele>
        <time>2015-01-17T11:12:20Z</time>
      </trkpt>
      <trkpt lat="42.439581000" lon="-2.528878000">
        <ele>516.10</ele>
        <time>2015-01-17T11:12:21Z</time>
      </trkpt>
      <trkpt lat="42.439582000" lon="-2.528863000">
        <ele>516.10</ele>
        <time>2015-01-17T11:12:22Z</time>
      </trkpt>
      <trkpt lat="42.439582000" lon="-2.528849000">
        <ele>516.20</ele>
        <time>2015-01-17T11:12:23Z</time>
      </trkpt>
      <trkpt lat="42.439581000" lon="-2.528829000">
        <ele>516.20</ele>
        <time>2015-01-17T11:12:24Z</time>
      </trkpt>
      <trkpt lat="42.439584000" lon="-2.528815000">
        <ele>516.30</ele>
        <time>2015-01-17T11:12:25Z</time>
      </trkpt>
      <trkpt lat="42.439587000" lon="-2.528797000">
        <ele>516.40</ele>
        <time>2015-01-17T11:12:26Z</time>
      </trkpt>
      <trkpt lat="42.439588000" lon="-2.528778000">
        <ele>516.50</ele>
        <time>2015-01-17T11:12:27Z</time>
      </trkpt>
      <trkpt lat="42.439586000" lon="-2.528761000">
        <ele>516.60</ele>
        <time>2015-01-17T11:12:28Z</time>
      </trkpt>
      <trkpt lat="42.439587000" lon="-2.528742000">
        <ele>516.70</ele>
        <time>2015-01-17T11:12:29Z</time>
      </trkpt>
      <trkpt lat="42.439587000" lon="-2.528724000">
        <ele>516.90</ele>
        <time>2015-01-17T11:12:30Z</time>
      </trkpt>
      <trkpt lat="42.439591000" lon="-2.528709000">
        <ele>517.00</ele>
        <time>2015-01-17T11:12:31Z</time>
      </trkpt>
      <trkpt lat="42.439591000" lon="-2.528692000">
        <ele>517.20</ele>
        <time>2015-01-17T11:12:32Z</time>
      </trkpt>
      <trkpt lat="42.439593000" lon="-2.528667000">
        <ele>517.50</ele>
        <time>2015-01-17T11:12:34Z</time>
      </trkpt>
      <trkpt lat="42.439596000" lon="-2.528654000">
        <ele>517.60</ele>
        <time>2015-01-17T11:12:35Z</time>
      </trkpt>
      <trkpt lat="42.439596000" lon="-2.528643000">
        <ele>517.70</ele>
        <time>2015-01-17T11:12:36Z</time>
      </trkpt>
      <trkpt lat="42.439602000" lon="-2.528635000">
        <ele>517.70</ele>
        <time>2015-01-17T11:12:37Z</time>
      </trkpt>
      <trkpt lat="42.439604000" lon="-2.528623000">
        <ele>517.90</ele>
        <time>2015-01-17T11:12:38Z</time>
      </trkpt>
      <trkpt lat="42.439606000" lon="-2.528610000">
        <ele>518.00</ele>
        <time>2015-01-17T11:12:39Z</time>
      </trkpt>
      <trkpt lat="42.439608000" lon="-2.528602000">
        <ele>518.10</ele>
        <time>2015-01-17T11:12:40Z</time>
      </trkpt>
      <trkpt lat="42.439610000" lon="-2.528591000">
        <ele>518.10</ele>
        <time>2015-01-17T11:12:41Z</time>
      </trkpt>
      <trkpt lat="42.439612000" lon="-2.528579000">
        <ele>518.20</ele>
        <time>2015-01-17T11:12:42Z</time>
      </trkpt>
      <trkpt lat="42.439615000" lon="-2.528568000">
        <ele>518.20</ele>
        <time>2015-01-17T11:12:43Z</time>
      </trkpt>
      <trkpt lat="42.439622000" lon="-2.528558000">
        <ele>518.20</ele>
        <time>2015-01-17T11:12:44Z</time>
      </trkpt>
      <trkpt lat="42.439620000" lon="-2.528546000">
        <ele>518.20</ele>
        <time>2015-01-17T11:12:45Z</time>
      </trkpt>
      <trkpt lat="42.439620000" lon="-2.528533000">
        <ele>518.30</ele>
        <time>2015-01-17T11:12:46Z</time>
      </trkpt>
      <trkpt lat="42.439622000" lon="-2.528521000">
        <ele>518.40</ele>
        <time>2015-01-17T11:12:47Z</time>
      </trkpt>
      <trkpt lat="42.439622000" lon="-2.528511000">
        <ele>518.50</ele>
        <time>2015-01-17T11:12:48Z</time>
      </trkpt>
      <trkpt lat="42.439622000" lon="-2.528501000">
        <ele>518.60</ele>
        <time>2015-01-17T11:12:49Z</time>
      </trkpt>
      <trkpt lat="42.439621000" lon="-2.528496000">
        <ele>518.60</ele>
        <time>2015-01-17T11:12:50Z</time>
      </trkpt>
      <trkpt lat="42.439619000" lon="-2.528496000">
        <ele>518.70</ele>
        <time>2015-01-17T11:12:51Z</time>
      </trkpt>
      <trkpt lat="42.439620000" lon="-2.528480000">
        <ele>518.70</ele>
        <time>2015-01-17T11:12:52Z</time>
      </trkpt>
      <trkpt lat="42.439620000" lon="-2.528463000">
        <ele>518.70</ele>
        <time>2015-01-17T11:12:53Z</time>
      </trkpt>
      <trkpt lat="42.439623000" lon="-2.528450000">
        <ele>518.80</ele>
        <time>2015-01-17T11:12:54Z</time>
      </trkpt>
      <trkpt lat="42.439626000" lon="-2.528449000">
        <ele>518.90</ele>
        <time>2015-01-17T11:12:55Z</time>
      </trkpt>
      <trkpt lat="42.439625000" lon="-2.528454000">
        <ele>518.90</ele>
        <time>2015-01-17T11:12:56Z</time>
      </trkpt>
      <trkpt lat="42.439628000" lon="-2.528450000">
        <ele>519.00</ele>
        <time>2015-01-17T11:12:57Z</time>
      </trkpt>
      <trkpt lat="42.439636000" lon="-2.528447000">
        <ele>519.00</ele>
        <time>2015-01-17T11:12:58Z</time>
      </trkpt>
      <trkpt lat="42.439642000" lon="-2.528447000">
        <ele>519.00</ele>
        <time>2015-01-17T11:12:59Z</time>
      </trkpt>
      <trkpt lat="42.439649000" lon="-2.528448000">
        <ele>518.90</ele>
        <time>2015-01-17T11:13:00Z</time>
      </trkpt>
      <trkpt lat="42.439649000" lon="-2.528436000">
        <ele>518.90</ele>
        <time>2015-01-17T11:13:01Z</time>
      </trkpt>
      <trkpt lat="42.439652000" lon="-2.528414000">
        <ele>518.90</ele>
        <time>2015-01-17T11:13:02Z</time>
      </trkpt>
      <trkpt lat="42.439655000" lon="-2.528392000">
        <ele>519.00</ele>
        <time>2015-01-17T11:13:03Z</time>
      </trkpt>
      <trkpt lat="42.439657000" lon="-2.528368000">
        <ele>518.90</ele>
        <time>2015-01-17T11:13:04Z</time>
      </trkpt>
      <trkpt lat="42.439658000" lon="-2.528343000">
        <ele>518.90</ele>
        <time>2015-01-17T11:13:05Z</time>
      </trkpt>
      <trkpt lat="42.439661000" lon="-2.528314000">
        <ele>518.90</ele>
        <time>2015-01-17T11:13:06Z</time>
      </trkpt>
      <trkpt lat="42.439662000" lon="-2.528291000">
        <ele>518.90</ele>
        <time>2015-01-17T11:13:07Z</time>
      </trkpt>
      <trkpt lat="42.439662000" lon="-2.528270000">
        <ele>518.70</ele>
        <time>2015-01-17T11:13:08Z</time>
      </trkpt>
      <trkpt lat="42.439664000" lon="-2.528252000">
        <ele>518.60</ele>
        <time>2015-01-17T11:13:09Z</time>
      </trkpt>
      <trkpt lat="42.439666000" lon="-2.528232000">
        <ele>518.50</ele>
        <time>2015-01-17T11:13:10Z</time>
      </trkpt>
      <trkpt lat="42.439671000" lon="-2.528212000">
        <ele>518.50</ele>
        <time>2015-01-17T11:13:11Z</time>
      </trkpt>
      <trkpt lat="42.439675000" lon="-2.528195000">
        <ele>518.40</ele>
        <time>2015-01-17T11:13:12Z</time>
      </trkpt>
      <trkpt lat="42.439674000" lon="-2.528177000">
        <ele>518.40</ele>
        <time>2015-01-17T11:13:13Z</time>
      </trkpt>
      <trkpt lat="42.439675000" lon="-2.528161000">
        <ele>518.40</ele>
        <time>2015-01-17T11:13:14Z</time>
      </trkpt>
      <trkpt lat="42.439674000" lon="-2.528145000">
        <ele>518.30</ele>
        <time>2015-01-17T11:13:15Z</time>
      </trkpt>
      <trkpt lat="42.439675000" lon="-2.528134000">
        <ele>518.30</ele>
        <time>2015-01-17T11:13:16Z</time>
      </trkpt>
      <trkpt lat="42.439678000" lon="-2.528119000">
        <ele>518.30</ele>
        <time>2015-01-17T11:13:17Z</time>
      </trkpt>
      <trkpt lat="42.439683000" lon="-2.528107000">
        <ele>518.30</ele>
        <time>2015-01-17T11:13:18Z</time>
      </trkpt>
      <trkpt lat="42.439687000" lon="-2.528088000">
        <ele>518.30</ele>
        <time>2015-01-17T11:13:19Z</time>
      </trkpt>
      <trkpt lat="42.439687000" lon="-2.528069000">
        <ele>518.20</ele>
        <time>2015-01-17T11:13:20Z</time>
      </trkpt>
      <trkpt lat="42.439688000" lon="-2.528057000">
        <ele>518.10</ele>
        <time>2015-01-17T11:13:21Z</time>
      </trkpt>
      <trkpt lat="42.439693000" lon="-2.528039000">
        <ele>518.00</ele>
        <time>2015-01-17T11:13:22Z</time>
      </trkpt>
      <trkpt lat="42.439695000" lon="-2.528020000">
        <ele>518.00</ele>
        <time>2015-01-17T11:13:23Z</time>
      </trkpt>
      <trkpt lat="42.439698000" lon="-2.528012000">
        <ele>518.00</ele>
        <time>2015-01-17T11:13:24Z</time>
      </trkpt>
      <trkpt lat="42.439699000" lon="-2.528002000">
        <ele>517.90</ele>
        <time>2015-01-17T11:13:25Z</time>
      </trkpt>
      <trkpt lat="42.439701000" lon="-2.527989000">
        <ele>518.00</ele>
        <time>2015-01-17T11:13:26Z</time>
      </trkpt>
      <trkpt lat="42.439701000" lon="-2.527968000">
        <ele>518.00</ele>
        <time>2015-01-17T11:13:27Z</time>
      </trkpt>
      <trkpt lat="42.439702000" lon="-2.527950000">
        <ele>518.00</ele>
        <time>2015-01-17T11:13:28Z</time>
      </trkpt>
      <trkpt lat="42.439703000" lon="-2.527934000">
        <ele>517.90</ele>
        <time>2015-01-17T11:13:29Z</time>
      </trkpt>
      <trkpt lat="42.439706000" lon="-2.527920000">
        <ele>518.00</ele>
        <time>2015-01-17T11:13:30Z</time>
      </trkpt>
      <trkpt lat="42.439709000" lon="-2.527903000">
        <ele>518.00</ele>
        <time>2015-01-17T11:13:31Z</time>
      </trkpt>
      <trkpt lat="42.439714000" lon="-2.527883000">
        <ele>518.20</ele>
        <time>2015-01-17T11:13:32Z</time>
      </trkpt>
      <trkpt lat="42.439714000" lon="-2.527868000">
        <ele>518.30</ele>
        <time>2015-01-17T11:13:33Z</time>
      </trkpt>
      <trkpt lat="42.439717000" lon="-2.527852000">
        <ele>518.40</ele>
        <time>2015-01-17T11:13:34Z</time>
      </trkpt>
      <trkpt lat="42.439725000" lon="-2.527825000">
        <ele>518.30</ele>
        <time>2015-01-17T11:13:36Z</time>
      </trkpt>
      <trkpt lat="42.439729000" lon="-2.527810000">
        <ele>518.30</ele>
        <time>2015-01-17T11:13:37Z</time>
      </trkpt>
      <trkpt lat="42.439731000" lon="-2.527798000">
        <ele>518.20</ele>
        <time>2015-01-17T11:13:38Z</time>
      </trkpt>
      <trkpt lat="42.439729000" lon="-2.527786000">
        <ele>518.20</ele>
        <time>2015-01-17T11:13:39Z</time>
      </trkpt>
      <trkpt lat="42.439727000" lon="-2.527770000">
        <ele>518.20</ele>
        <time>2015-01-17T11:13:40Z</time>
      </trkpt>
      <trkpt lat="42.439729000" lon="-2.527754000">
        <ele>518.20</ele>
        <time>2015-01-17T11:13:41Z</time>
      </trkpt>
      <trkpt lat="42.439735000" lon="-2.527742000">
        <ele>518.20</ele>
        <time>2015-01-17T11:13:42Z</time>
      </trkpt>
      <trkpt lat="42.439740000" lon="-2.527724000">
        <ele>518.30</ele>
        <time>2015-01-17T11:13:43Z</time>
      </trkpt>
      <trkpt lat="42.439741000" lon="-2.527714000">
        <ele>518.30</ele>
        <time>2015-01-17T11:13:44Z</time>
      </trkpt>
      <trkpt lat="42.439742000" lon="-2.527698000">
        <ele>518.30</ele>
        <time>2015-01-17T11:13:45Z</time>
      </trkpt>
      <trkpt lat="42.439745000" lon="-2.527681000">
        <ele>518.40</ele>
        <time>2015-01-17T11:13:46Z</time>
      </trkpt>
      <trkpt lat="42.439743000" lon="-2.527662000">
        <ele>518.50</ele>
        <time>2015-01-17T11:13:47Z</time>
      </trkpt>
      <trkpt lat="42.439747000" lon="-2.527650000">
        <ele>518.60</ele>
        <time>2015-01-17T11:13:48Z</time>
      </trkpt>
      <trkpt lat="42.439749000" lon="-2.527633000">
        <ele>518.60</ele>
        <time>2015-01-17T11:13:49Z</time>
      </trkpt>
      <trkpt lat="42.439753000" lon="-2.527620000">
        <ele>518.70</ele>
        <time>2015-01-17T11:13:50Z</time>
      </trkpt>
      <trkpt lat="42.439755000" lon="-2.527606000">
        <ele>518.80</ele>
        <time>2015-01-17T11:13:51Z</time>
      </trkpt>
      <trkpt lat="42.439752000" lon="-2.527588000">
        <ele>518.80</ele>
        <time>2015-01-17T11:13:52Z</time>
      </trkpt>
      <trkpt lat="42.439753000" lon="-2.527571000">
        <ele>518.90</ele>
        <time>2015-01-17T11:13:53Z</time>
      </trkpt>
      <trkpt lat="42.439753000" lon="-2.527555000">
        <ele>518.90</ele>
        <time>2015-01-17T11:13:54Z</time>
      </trkpt>
      <trkpt lat="42.439756000" lon="-2.527540000">
        <ele>518.90</ele>
        <time>2015-01-17T11:13:55Z</time>
      </trkpt>
      <trkpt lat="42.439756000" lon="-2.527523000">
        <ele>518.90</ele>
        <time>2015-01-17T11:13:56Z</time>
      </trkpt>
      <trkpt lat="42.439756000" lon="-2.527509000">
        <ele>519.00</ele>
        <time>2015-01-17T11:13:57Z</time>
      </trkpt>
      <trkpt lat="42.439760000" lon="-2.527491000">
        <ele>519.00</ele>
        <time>2015-01-17T11:13:58Z</time>
      </trkpt>
      <trkpt lat="42.439766000" lon="-2.527477000">
        <ele>519.00</ele>
        <time>2015-01-17T11:13:59Z</time>
      </trkpt>
      <trkpt lat="42.439767000" lon="-2.527465000">
        <ele>519.20</ele>
        <time>2015-01-17T11:14:00Z</time>
      </trkpt>
      <trkpt lat="42.439769000" lon="-2.527452000">
        <ele>519.40</ele>
        <time>2015-01-17T11:14:01Z</time>
      </trkpt>
      <trkpt lat="42.439772000" lon="-2.527437000">
        <ele>519.60</ele>
        <time>2015-01-17T11:14:02Z</time>
      </trkpt>
      <trkpt lat="42.439775000" lon="-2.527422000">
        <ele>519.70</ele>
        <time>2015-01-17T11:14:03Z</time>
      </trkpt>
      <trkpt lat="42.439775000" lon="-2.527406000">
        <ele>519.70</ele>
        <time>2015-01-17T11:14:04Z</time>
      </trkpt>
      <trkpt lat="42.439774000" lon="-2.527394000">
        <ele>519.80</ele>
        <time>2015-01-17T11:14:05Z</time>
      </trkpt>
      <trkpt lat="42.439776000" lon="-2.527386000">
        <ele>519.70</ele>
        <time>2015-01-17T11:14:06Z</time>
      </trkpt>
      <trkpt lat="42.439777000" lon="-2.527381000">
        <ele>519.60</ele>
        <time>2015-01-17T11:14:07Z</time>
      </trkpt>
      <trkpt lat="42.439776000" lon="-2.527376000">
        <ele>519.60</ele>
        <time>2015-01-17T11:14:08Z</time>
      </trkpt>
      <trkpt lat="42.439778000" lon="-2.527368000">
        <ele>519.50</ele>
        <time>2015-01-17T11:14:09Z</time>
      </trkpt>
      <trkpt lat="42.439782000" lon="-2.527361000">
        <ele>519.70</ele>
        <time>2015-01-17T11:14:10Z</time>
      </trkpt>
      <trkpt lat="42.439783000" lon="-2.527352000">
        <ele>519.80</ele>
        <time>2015-01-17T11:14:11Z</time>
      </trkpt>
      <trkpt lat="42.439787000" lon="-2.527344000">
        <ele>520.00</ele>
        <time>2015-01-17T11:14:12Z</time>
      </trkpt>
      <trkpt lat="42.439788000" lon="-2.527331000">
        <ele>520.10</ele>
        <time>2015-01-17T11:14:13Z</time>
      </trkpt>
      <trkpt lat="42.439786000" lon="-2.527322000">
        <ele>520.20</ele>
        <time>2015-01-17T11:14:14Z</time>
      </trkpt>
      <trkpt lat="42.439787000" lon="-2.527309000">
        <ele>520.30</ele>
        <time>2015-01-17T11:14:15Z</time>
      </trkpt>
      <trkpt lat="42.439790000" lon="-2.527304000">
        <ele>520.40</ele>
        <time>2015-01-17T11:14:16Z</time>
      </trkpt>
      <trkpt lat="42.439791000" lon="-2.527293000">
        <ele>520.50</ele>
        <time>2015-01-17T11:14:17Z</time>
      </trkpt>
      <trkpt lat="42.439788000" lon="-2.527279000">
        <ele>520.60</ele>
        <time>2015-01-17T11:14:18Z</time>
      </trkpt>
      <trkpt lat="42.439788000" lon="-2.527265000">
        <ele>520.60</ele>
        <time>2015-01-17T11:14:19Z</time>
      </trkpt>
      <trkpt lat="42.439790000" lon="-2.527249000">
        <ele>521.10</ele>
        <time>2015-01-17T11:14:20Z</time>
      </trkpt>
      <trkpt lat="42.439787000" lon="-2.527237000">
        <ele>521.40</ele>
        <time>2015-01-17T11:14:21Z</time>
      </trkpt>
      <trkpt lat="42.439784000" lon="-2.527227000">
        <ele>521.60</ele>
        <time>2015-01-17T11:14:22Z</time>
      </trkpt>
      <trkpt lat="42.439787000" lon="-2.527210000">
        <ele>521.80</ele>
        <time>2015-01-17T11:14:23Z</time>
      </trkpt>
      <trkpt lat="42.439787000" lon="-2.527200000">
        <ele>521.90</ele>
        <time>2015-01-17T11:14:24Z</time>
      </trkpt>
      <trkpt lat="42.439787000" lon="-2.527187000">
        <ele>522.00</ele>
        <time>2015-01-17T11:14:25Z</time>
      </trkpt>
      <trkpt lat="42.439788000" lon="-2.527169000">
        <ele>522.00</ele>
        <time>2015-01-17T11:14:26Z</time>
      </trkpt>
      <trkpt lat="42.439788000" lon="-2.527154000">
        <ele>522.10</ele>
        <time>2015-01-17T11:14:27Z</time>
      </trkpt>
      <trkpt lat="42.439790000" lon="-2.527137000">
        <ele>522.20</ele>
        <time>2015-01-17T11:14:28Z</time>
      </trkpt>
      <trkpt lat="42.439790000" lon="-2.527119000">
        <ele>522.30</ele>
        <time>2015-01-17T11:14:29Z</time>
      </trkpt>
      <trkpt lat="42.439791000" lon="-2.527106000">
        <ele>522.50</ele>
        <time>2015-01-17T11:14:30Z</time>
      </trkpt>
      <trkpt lat="42.439790000" lon="-2.527097000">
        <ele>522.60</ele>
        <time>2015-01-17T11:14:31Z</time>
      </trkpt>
      <trkpt lat="42.439791000" lon="-2.527083000">
        <ele>522.80</ele>
        <time>2015-01-17T11:14:32Z</time>
      </trkpt>
      <trkpt lat="42.439792000" lon="-2.527072000">
        <ele>522.90</ele>
        <time>2015-01-17T11:14:33Z</time>
      </trkpt>
      <trkpt lat="42.439792000" lon="-2.527060000">
        <ele>523.10</ele>
        <time>2015-01-17T11:14:34Z</time>
      </trkpt>
      <trkpt lat="42.439792000" lon="-2.527049000">
        <ele>523.20</ele>
        <time>2015-01-17T11:14:35Z</time>
      </trkpt>
      <trkpt lat="42.439792000" lon="-2.527032000">
        <ele>523.30</ele>
        <time>2015-01-17T11:14:36Z</time>
      </trkpt>
      <trkpt lat="42.439795000" lon="-2.526994000">
        <ele>523.40</ele>
        <time>2015-01-17T11:14:38Z</time>
      </trkpt>
      <trkpt lat="42.439799000" lon="-2.526977000">
        <ele>523.50</ele>
        <time>2015-01-17T11:14:39Z</time>
      </trkpt>
      <trkpt lat="42.439799000" lon="-2.526962000">
        <ele>523.50</ele>
        <time>2015-01-17T11:14:40Z</time>
      </trkpt>
      <trkpt lat="42.439799000" lon="-2.526946000">
        <ele>523.50</ele>
        <time>2015-01-17T11:14:41Z</time>
      </trkpt>
      <trkpt lat="42.439798000" lon="-2.526932000">
        <ele>523.50</ele>
        <time>2015-01-17T11:14:42Z</time>
      </trkpt>
      <trkpt lat="42.439798000" lon="-2.526916000">
        <ele>523.60</ele>
        <time>2015-01-17T11:14:43Z</time>
      </trkpt>
      <trkpt lat="42.439799000" lon="-2.526902000">
        <ele>523.70</ele>
        <time>2015-01-17T11:14:44Z</time>
      </trkpt>
      <trkpt lat="42.439803000" lon="-2.526884000">
        <ele>523.80</ele>
        <time>2015-01-17T11:14:45Z</time>
      </trkpt>
      <trkpt lat="42.439800000" lon="-2.526872000">
        <ele>524.00</ele>
        <time>2015-01-17T11:14:46Z</time>
      </trkpt>
      <trkpt lat="42.439800000" lon="-2.526853000">
        <ele>524.10</ele>
        <time>2015-01-17T11:14:47Z</time>
      </trkpt>
      <trkpt lat="42.439798000" lon="-2.526841000">
        <ele>524.20</ele>
        <time>2015-01-17T11:14:48Z</time>
      </trkpt>
      <trkpt lat="42.439801000" lon="-2.526827000">
        <ele>524.30</ele>
        <time>2015-01-17T11:14:49Z</time>
      </trkpt>
      <trkpt lat="42.439800000" lon="-2.526811000">
        <ele>524.40</ele>
        <time>2015-01-17T11:14:50Z</time>
      </trkpt>
      <trkpt lat="42.439801000" lon="-2.526799000">
        <ele>524.40</ele>
        <time>2015-01-17T11:14:51Z</time>
      </trkpt>
      <trkpt lat="42.439800000" lon="-2.526784000">
        <ele>524.50</ele>
        <time>2015-01-17T11:14:52Z</time>
      </trkpt>
      <trkpt lat="42.439800000" lon="-2.526768000">
        <ele>524.60</ele>
        <time>2015-01-17T11:14:53Z</time>
      </trkpt>
      <trkpt lat="42.439801000" lon="-2.526750000">
        <ele>524.70</ele>
        <time>2015-01-17T11:14:54Z</time>
      </trkpt>
      <trkpt lat="42.439799000" lon="-2.526737000">
        <ele>524.90</ele>
        <time>2015-01-17T11:14:55Z</time>
      </trkpt>
      <trkpt lat="42.439797000" lon="-2.526729000">
        <ele>525.10</ele>
        <time>2015-01-17T11:14:56Z</time>
      </trkpt>
      <trkpt lat="42.439791000" lon="-2.526723000">
        <ele>525.20</ele>
        <time>2015-01-17T11:14:57Z</time>
      </trkpt>
      <trkpt lat="42.439791000" lon="-2.526704000">
        <ele>525.20</ele>
        <time>2015-01-17T11:14:58Z</time>
      </trkpt>
      <trkpt lat="42.439794000" lon="-2.526687000">
        <ele>525.30</ele>
        <time>2015-01-17T11:14:59Z</time>
      </trkpt>
      <trkpt lat="42.439797000" lon="-2.526669000">
        <ele>525.40</ele>
        <time>2015-01-17T11:15:00Z</time>
      </trkpt>
      <trkpt lat="42.439794000" lon="-2.526651000">
        <ele>525.50</ele>
        <time>2015-01-17T11:15:01Z</time>
      </trkpt>
      <trkpt lat="42.439796000" lon="-2.526639000">
        <ele>525.50</ele>
        <time>2015-01-17T11:15:02Z</time>
      </trkpt>
      <trkpt lat="42.439802000" lon="-2.526622000">
        <ele>525.40</ele>
        <time>2015-01-17T11:15:03Z</time>
      </trkpt>
      <trkpt lat="42.439804000" lon="-2.526604000">
        <ele>525.50</ele>
        <time>2015-01-17T11:15:04Z</time>
      </trkpt>
      <trkpt lat="42.439807000" lon="-2.526588000">
        <ele>525.60</ele>
        <time>2015-01-17T11:15:05Z</time>
      </trkpt>
      <trkpt lat="42.439810000" lon="-2.526572000">
        <ele>525.60</ele>
        <time>2015-01-17T11:15:06Z</time>
      </trkpt>
      <trkpt lat="42.439812000" lon="-2.526559000">
        <ele>525.50</ele>
        <time>2015-01-17T11:15:07Z</time>
      </trkpt>
      <trkpt lat="42.439811000" lon="-2.526545000">
        <ele>525.40</ele>
        <time>2015-01-17T11:15:08Z</time>
      </trkpt>
      <trkpt lat="42.439811000" lon="-2.526532000">
        <ele>525.40</ele>
        <time>2015-01-17T11:15:09Z</time>
      </trkpt>
      <trkpt lat="42.439806000" lon="-2.526528000">
        <ele>525.30</ele>
        <time>2015-01-17T11:15:10Z</time>
      </trkpt>
      <trkpt lat="42.439804000" lon="-2.526530000">
        <ele>525.30</ele>
        <time>2015-01-17T11:15:11Z</time>
      </trkpt>
      <trkpt lat="42.439807000" lon="-2.526534000">
        <ele>525.50</ele>
        <time>2015-01-17T11:15:12Z</time>
      </trkpt>
      <trkpt lat="42.439807000" lon="-2.526535000">
        <ele>525.70</ele>
        <time>2015-01-17T11:15:13Z</time>
      </trkpt>
      <trkpt lat="42.439808000" lon="-2.526535000">
        <ele>525.80</ele>
        <time>2015-01-17T11:15:14Z</time>
      </trkpt>
      <trkpt lat="42.439812000" lon="-2.526539000">
        <ele>525.90</ele>
        <time>2015-01-17T11:15:15Z</time>
      </trkpt>
      <trkpt lat="42.439817000" lon="-2.526544000">
        <ele>526.00</ele>
        <time>2015-01-17T11:15:16Z</time>
      </trkpt>
      <trkpt lat="42.439821000" lon="-2.526544000">
        <ele>526.00</ele>
        <time>2015-01-17T11:15:17Z</time>
      </trkpt>
      <trkpt lat="42.439822000" lon="-2.526541000">
        <ele>526.10</ele>
        <time>2015-01-17T11:15:18Z</time>
      </trkpt>
      <trkpt lat="42.439821000" lon="-2.526535000">
        <ele>526.10</ele>
        <time>2015-01-17T11:15:19Z</time>
      </trkpt>
      <trkpt lat="42.439818000" lon="-2.526532000">
        <ele>526.20</ele>
        <time>2015-01-17T11:15:20Z</time>
      </trkpt>
      <trkpt lat="42.439820000" lon="-2.526523000">
        <ele>526.20</ele>
        <time>2015-01-17T11:15:21Z</time>
      </trkpt>
      <trkpt lat="42.439819000" lon="-2.526520000">
        <ele>526.20</ele>
        <time>2015-01-17T11:15:22Z</time>
      </trkpt>
      <trkpt lat="42.439815000" lon="-2.526520000">
        <ele>526.20</ele>
        <time>2015-01-17T11:15:23Z</time>
      </trkpt>
      <trkpt lat="42.439816000" lon="-2.526522000">
        <ele>526.30</ele>
        <time>2015-01-17T11:15:24Z</time>
      </trkpt>
      <trkpt lat="42.439820000" lon="-2.526520000">
        <ele>526.40</ele>
        <time>2015-01-17T11:15:25Z</time>
      </trkpt>
      <trkpt lat="42.439818000" lon="-2.526519000">
        <ele>526.60</ele>
        <time>2015-01-17T11:15:26Z</time>
      </trkpt>
      <trkpt lat="42.439816000" lon="-2.526520000">
        <ele>526.70</ele>
        <time>2015-01-17T11:15:27Z</time>
      </trkpt>
      <trkpt lat="42.439821000" lon="-2.526512000">
        <ele>526.80</ele>
        <time>2015-01-17T11:15:28Z</time>
      </trkpt>
      <trkpt lat="42.439825000" lon="-2.526489000">
        <ele>526.90</ele>
        <time>2015-01-17T11:15:29Z</time>
      </trkpt>
      <trkpt lat="42.439830000" lon="-2.526455000">
        <ele>526.70</ele>
        <time>2015-01-17T11:15:30Z</time>
      </trkpt>
      <trkpt lat="42.439836000" lon="-2.526418000">
        <ele>526.50</ele>
        <time>2015-01-17T11:15:31Z</time>
      </trkpt>
      <trkpt lat="42.439838000" lon="-2.526383000">
        <ele>526.30</ele>
        <time>2015-01-17T11:15:32Z</time>
      </trkpt>
      <trkpt lat="42.439842000" lon="-2.526354000">
        <ele>526.20</ele>
        <time>2015-01-17T11:15:33Z</time>
      </trkpt>
      <trkpt lat="42.439842000" lon="-2.526316000">
        <ele>526.40</ele>
        <time>2015-01-17T11:15:34Z</time>
      </trkpt>
      <trkpt lat="42.439844000" lon="-2.526278000">
        <ele>526.50</ele>
        <time>2015-01-17T11:15:35Z</time>
      </trkpt>
      <trkpt lat="42.439846000" lon="-2.526244000">
        <ele>526.70</ele>
        <time>2015-01-17T11:15:36Z</time>
      </trkpt>
      <trkpt lat="42.439849000" lon="-2.526209000">
        <ele>526.80</ele>
        <time>2015-01-17T11:15:37Z</time>
      </trkpt>
      <trkpt lat="42.439852000" lon="-2.526170000">
        <ele>526.90</ele>
        <time>2015-01-17T11:15:38Z</time>
      </trkpt>
      <trkpt lat="42.439854000" lon="-2.526101000">
        <ele>526.80</ele>
        <time>2015-01-17T11:15:40Z</time>
      </trkpt>
      <trkpt lat="42.439860000" lon="-2.526067000">
        <ele>526.80</ele>
        <time>2015-01-17T11:15:41Z</time>
      </trkpt>
      <trkpt lat="42.439861000" lon="-2.526030000">
        <ele>526.70</ele>
        <time>2015-01-17T11:15:42Z</time>
      </trkpt>
      <trkpt lat="42.439865000" lon="-2.525995000">
        <ele>526.70</ele>
        <time>2015-01-17T11:15:43Z</time>
      </trkpt>
      <trkpt lat="42.439870000" lon="-2.525961000">
        <ele>526.60</ele>
        <time>2015-01-17T11:15:44Z</time>
      </trkpt>
      <trkpt lat="42.439872000" lon="-2.525926000">
        <ele>526.60</ele>
        <time>2015-01-17T11:15:45Z</time>
      </trkpt>
      <trkpt lat="42.439873000" lon="-2.525887000">
        <ele>526.70</ele>
        <time>2015-01-17T11:15:46Z</time>
      </trkpt>
      <trkpt lat="42.439877000" lon="-2.525848000">
        <ele>526.80</ele>
        <time>2015-01-17T11:15:47Z</time>
      </trkpt>
      <trkpt lat="42.439878000" lon="-2.525811000">
        <ele>527.00</ele>
        <time>2015-01-17T11:15:48Z</time>
      </trkpt>
      <trkpt lat="42.439880000" lon="-2.525777000">
        <ele>527.10</ele>
        <time>2015-01-17T11:15:49Z</time>
      </trkpt>
      <trkpt lat="42.439880000" lon="-2.525741000">
        <ele>527.10</ele>
        <time>2015-01-17T11:15:50Z</time>
      </trkpt>
      <trkpt lat="42.439884000" lon="-2.525709000">
        <ele>527.10</ele>
        <time>2015-01-17T11:15:51Z</time>
      </trkpt>
      <trkpt lat="42.439887000" lon="-2.525672000">
        <ele>527.30</ele>
        <time>2015-01-17T11:15:52Z</time>
      </trkpt>
      <trkpt lat="42.439889000" lon="-2.525637000">
        <ele>527.40</ele>
        <time>2015-01-17T11:15:53Z</time>
      </trkpt>
      <trkpt lat="42.439885000" lon="-2.525610000">
        <ele>527.70</ele>
        <time>2015-01-17T11:15:54Z</time>
      </trkpt>
      <trkpt lat="42.439886000" lon="-2.525572000">
        <ele>527.80</ele>
        <time>2015-01-17T11:15:55Z</time>
      </trkpt>
      <trkpt lat="42.439888000" lon="-2.525531000">
        <ele>528.00</ele>
        <time>2015-01-17T11:15:56Z</time>
      </trkpt>
      <trkpt lat="42.439886000" lon="-2.525491000">
        <ele>528.10</ele>
        <time>2015-01-17T11:15:57Z</time>
      </trkpt>
      <trkpt lat="42.439890000" lon="-2.525453000">
        <ele>528.10</ele>
        <time>2015-01-17T11:15:58Z</time>
      </trkpt>
      <trkpt lat="42.439892000" lon="-2.525414000">
        <ele>528.20</ele>
        <time>2015-01-17T11:15:59Z</time>
      </trkpt>
      <trkpt lat="42.439894000" lon="-2.525379000">
        <ele>528.20</ele>
        <time>2015-01-17T11:16:00Z</time>
      </trkpt>
      <trkpt lat="42.439897000" lon="-2.525341000">
        <ele>528.30</ele>
        <time>2015-01-17T11:16:01Z</time>
      </trkpt>
      <trkpt lat="42.439899000" lon="-2.525307000">
        <ele>528.30</ele>
        <time>2015-01-17T11:16:02Z</time>
      </trkpt>
      <trkpt lat="42.439905000" lon="-2.525270000">
        <ele>528.30</ele>
        <time>2015-01-17T11:16:03Z</time>
      </trkpt>
      <trkpt lat="42.439907000" lon="-2.525238000">
        <ele>528.30</ele>
        <time>2015-01-17T11:16:04Z</time>
      </trkpt>
      <trkpt lat="42.439908000" lon="-2.525204000">
        <ele>528.30</ele>
        <time>2015-01-17T11:16:05Z</time>
      </trkpt>
      <trkpt lat="42.439911000" lon="-2.525174000">
        <ele>528.20</ele>
        <time>2015-01-17T11:16:06Z</time>
      </trkpt>
      <trkpt lat="42.439912000" lon="-2.525145000">
        <ele>528.10</ele>
        <time>2015-01-17T11:16:07Z</time>
      </trkpt>
      <trkpt lat="42.439913000" lon="-2.525118000">
        <ele>528.10</ele>
        <time>2015-01-17T11:16:08Z</time>
      </trkpt>
      <trkpt lat="42.439918000" lon="-2.525092000">
        <ele>528.10</ele>
        <time>2015-01-17T11:16:09Z</time>
      </trkpt>
      <trkpt lat="42.439921000" lon="-2.525068000">
        <ele>528.10</ele>
        <time>2015-01-17T11:16:10Z</time>
      </trkpt>
      <trkpt lat="42.439923000" lon="-2.525043000">
        <ele>528.20</ele>
        <time>2015-01-17T11:16:11Z</time>
      </trkpt>
      <trkpt lat="42.439922000" lon="-2.525020000">
        <ele>528.20</ele>
        <time>2015-01-17T11:16:12Z</time>
      </trkpt>
      <trkpt lat="42.439923000" lon="-2.524994000">
        <ele>528.20</ele>
        <time>2015-01-17T11:16:13Z</time>
      </trkpt>
      <trkpt lat="42.439927000" lon="-2.524968000">
        <ele>528.10</ele>
        <time>2015-01-17T11:16:14Z</time>
      </trkpt>
      <trkpt lat="42.439932000" lon="-2.524942000">
        <ele>528.10</ele>
        <time>2015-01-17T11:16:15Z</time>
      </trkpt>
      <trkpt lat="42.439937000" lon="-2.524913000">
        <ele>528.10</ele>
        <time>2015-01-17T11:16:16Z</time>
      </trkpt>
      <trkpt lat="42.439942000" lon="-2.524878000">
        <ele>528.10</ele>
        <time>2015-01-17T11:16:17Z</time>
      </trkpt>
      <trkpt lat="42.439950000" lon="-2.524840000">
        <ele>528.20</ele>
        <time>2015-01-17T11:16:18Z</time>
      </trkpt>
      <trkpt lat="42.439957000" lon="-2.524797000">
        <ele>528.30</ele>
        <time>2015-01-17T11:16:19Z</time>
      </trkpt>
      <trkpt lat="42.439965000" lon="-2.524750000">
        <ele>528.30</ele>
        <time>2015-01-17T11:16:20Z</time>
      </trkpt>
      <trkpt lat="42.439970000" lon="-2.524700000">
        <ele>528.40</ele>
        <time>2015-01-17T11:16:21Z</time>
      </trkpt>
      <trkpt lat="42.439978000" lon="-2.524642000">
        <ele>528.40</ele>
        <time>2015-01-17T11:16:22Z</time>
      </trkpt>
      <trkpt lat="42.439988000" lon="-2.524580000">
        <ele>528.40</ele>
        <time>2015-01-17T11:16:23Z</time>
      </trkpt>
      <trkpt lat="42.439998000" lon="-2.524515000">
        <ele>528.30</ele>
        <time>2015-01-17T11:16:24Z</time>
      </trkpt>
      <trkpt lat="42.440009000" lon="-2.524445000">
        <ele>528.20</ele>
        <time>2015-01-17T11:16:25Z</time>
      </trkpt>
      <trkpt lat="42.440024000" lon="-2.524370000">
        <ele>528.00</ele>
        <time>2015-01-17T11:16:26Z</time>
      </trkpt>
      <trkpt lat="42.440037000" lon="-2.524290000">
        <ele>527.90</ele>
        <time>2015-01-17T11:16:27Z</time>
      </trkpt>
      <trkpt lat="42.440052000" lon="-2.524206000">
        <ele>527.50</ele>
        <time>2015-01-17T11:16:28Z</time>
      </trkpt>
      <trkpt lat="42.440066000" lon="-2.524130000">
        <ele>527.30</ele>
        <time>2015-01-17T11:16:29Z</time>
      </trkpt>
      <trkpt lat="42.440079000" lon="-2.524051000">
        <ele>526.50</ele>
        <time>2015-01-17T11:16:30Z</time>
      </trkpt>
      <trkpt lat="42.440095000" lon="-2.523969000">
        <ele>526.00</ele>
        <time>2015-01-17T11:16:31Z</time>
      </trkpt>
      <trkpt lat="42.440102000" lon="-2.523881000">
        <ele>525.50</ele>
        <time>2015-01-17T11:16:32Z</time>
      </trkpt>
      <trkpt lat="42.440094000" lon="-2.523791000">
        <ele>525.20</ele>
        <time>2015-01-17T11:16:33Z</time>
      </trkpt>
      <trkpt lat="42.440078000" lon="-2.523703000">
        <ele>524.70</ele>
        <time>2015-01-17T11:16:34Z</time>
      </trkpt>
      <trkpt lat="42.440052000" lon="-2.523615000">
        <ele>524.40</ele>
        <time>2015-01-17T11:16:35Z</time>
      </trkpt>
      <trkpt lat="42.440026000" lon="-2.523531000">
        <ele>524.00</ele>
        <time>2015-01-17T11:16:36Z</time>
      </trkpt>
      <trkpt lat="42.439998000" lon="-2.523449000">
        <ele>523.70</ele>
        <time>2015-01-17T11:16:37Z</time>
      </trkpt>
      <trkpt lat="42.439968000" lon="-2.523371000">
        <ele>523.50</ele>
        <time>2015-01-17T11:16:38Z</time>
      </trkpt>
      <trkpt lat="42.439938000" lon="-2.523294000">
        <ele>523.30</ele>
        <time>2015-01-17T11:16:39Z</time>
      </trkpt>
      <trkpt lat="42.439904000" lon="-2.523220000">
        <ele>523.10</ele>
        <time>2015-01-17T11:16:40Z</time>
      </trkpt>
      <trkpt lat="42.439828000" lon="-2.523084000">
        <ele>522.80</ele>
        <time>2015-01-17T11:16:42Z</time>
      </trkpt>
      <trkpt lat="42.439788000" lon="-2.523024000">
        <ele>522.70</ele>
        <time>2015-01-17T11:16:43Z</time>
      </trkpt>
      <trkpt lat="42.439748000" lon="-2.522969000">
        <ele>522.30</ele>
        <time>2015-01-17T11:16:44Z</time>
      </trkpt>
      <trkpt lat="42.439703000" lon="-2.522906000">
        <ele>522.10</ele>
        <time>2015-01-17T11:16:45Z</time>
      </trkpt>
      <trkpt lat="42.439670000" lon="-2.522832000">
        <ele>521.80</ele>
        <time>2015-01-17T11:16:46Z</time>
      </trkpt>
      <trkpt lat="42.439631000" lon="-2.522757000">
        <ele>521.60</ele>
        <time>2015-01-17T11:16:47Z</time>
      </trkpt>
      <trkpt lat="42.439597000" lon="-2.522679000">
        <ele>521.40</ele>
        <time>2015-01-17T11:16:48Z</time>
      </trkpt>
      <trkpt lat="42.439562000" lon="-2.522599000">
        <ele>521.30</ele>
        <time>2015-01-17T11:16:49Z</time>
      </trkpt>
      <trkpt lat="42.439531000" lon="-2.522517000">
        <ele>520.60</ele>
        <time>2015-01-17T11:16:50Z</time>
      </trkpt>
      <trkpt lat="42.439503000" lon="-2.522438000">
        <ele>520.10</ele>
        <time>2015-01-17T11:16:51Z</time>
      </trkpt>
      <trkpt lat="42.439473000" lon="-2.522358000">
        <ele>519.60</ele>
        <time>2015-01-17T11:16:52Z</time>
      </trkpt>
      <trkpt lat="42.439445000" lon="-2.522278000">
        <ele>519.30</ele>
        <time>2015-01-17T11:16:53Z</time>
      </trkpt>
      <trkpt lat="42.439420000" lon="-2.522189000">
        <ele>518.50</ele>
        <time>2015-01-17T11:16:54Z</time>
      </trkpt>
      <trkpt lat="42.439399000" lon="-2.522097000">
        <ele>518.00</ele>
        <time>2015-01-17T11:16:55Z</time>
      </trkpt>
      <trkpt lat="42.439376000" lon="-2.522006000">
        <ele>517.60</ele>
        <time>2015-01-17T11:16:56Z</time>
      </trkpt>
      <trkpt lat="42.439352000" lon="-2.521911000">
        <ele>517.20</ele>
        <time>2015-01-17T11:16:57Z</time>
      </trkpt>
      <trkpt lat="42.439326000" lon="-2.521814000">
        <ele>517.00</ele>
        <time>2015-01-17T11:16:58Z</time>
      </trkpt>
      <trkpt lat="42.439293000" lon="-2.521715000">
        <ele>516.80</ele>
        <time>2015-01-17T11:16:59Z</time>
      </trkpt>
      <trkpt lat="42.439265000" lon="-2.521612000">
        <ele>516.60</ele>
        <time>2015-01-17T11:17:00Z</time>
      </trkpt>
      <trkpt lat="42.439238000" lon="-2.521508000">
        <ele>516.40</ele>
        <time>2015-01-17T11:17:01Z</time>
      </trkpt>
      <trkpt lat="42.439210000" lon="-2.521403000">
        <ele>515.80</ele>
        <time>2015-01-17T11:17:02Z</time>
      </trkpt>
      <trkpt lat="42.439176000" lon="-2.521303000">
        <ele>515.30</ele>
        <time>2015-01-17T11:17:03Z</time>
      </trkpt>
      <trkpt lat="42.439140000" lon="-2.521211000">
        <ele>514.60</ele>
        <time>2015-01-17T11:17:04Z</time>
      </trkpt>
      <trkpt lat="42.439095000" lon="-2.521129000">
        <ele>514.10</ele>
        <time>2015-01-17T11:17:05Z</time>
      </trkpt>
      <trkpt lat="42.439046000" lon="-2.521050000">
        <ele>513.20</ele>
        <time>2015-01-17T11:17:06Z</time>
      </trkpt>
      <trkpt lat="42.438995000" lon="-2.520968000">
        <ele>512.50</ele>
        <time>2015-01-17T11:17:07Z</time>
      </trkpt>
      <trkpt lat="42.438944000" lon="-2.520879000">
        <ele>511.90</ele>
        <time>2015-01-17T11:17:08Z</time>
      </trkpt>
      <trkpt lat="42.438896000" lon="-2.520787000">
        <ele>511.40</ele>
        <time>2015-01-17T11:17:09Z</time>
      </trkpt>
      <trkpt lat="42.438847000" lon="-2.520690000">
        <ele>511.00</ele>
        <time>2015-01-17T11:17:10Z</time>
      </trkpt>
      <trkpt lat="42.438803000" lon="-2.520588000">
        <ele>510.70</ele>
        <time>2015-01-17T11:17:11Z</time>
      </trkpt>
      <trkpt lat="42.438764000" lon="-2.520482000">
        <ele>509.90</ele>
        <time>2015-01-17T11:17:12Z</time>
      </trkpt>
      <trkpt lat="42.438724000" lon="-2.520374000">
        <ele>509.20</ele>
        <time>2015-01-17T11:17:13Z</time>
      </trkpt>
      <trkpt lat="42.438686000" lon="-2.520266000">
        <ele>508.30</ele>
        <time>2015-01-17T11:17:14Z</time>
      </trkpt>
      <trkpt lat="42.438645000" lon="-2.520163000">
        <ele>507.60</ele>
        <time>2015-01-17T11:17:15Z</time>
      </trkpt>
      <trkpt lat="42.438604000" lon="-2.520063000">
        <ele>506.80</ele>
        <time>2015-01-17T11:17:16Z</time>
      </trkpt>
      <trkpt lat="42.438562000" lon="-2.519966000">
        <ele>506.20</ele>
        <time>2015-01-17T11:17:17Z</time>
      </trkpt>
      <trkpt lat="42.438512000" lon="-2.519878000">
        <ele>505.70</ele>
        <time>2015-01-17T11:17:18Z</time>
      </trkpt>
      <trkpt lat="42.438457000" lon="-2.519801000">
        <ele>505.30</ele>
        <time>2015-01-17T11:17:19Z</time>
      </trkpt>
      <trkpt lat="42.438398000" lon="-2.519728000">
        <ele>504.70</ele>
        <time>2015-01-17T11:17:20Z</time>
      </trkpt>
      <trkpt lat="42.438339000" lon="-2.519657000">
        <ele>504.20</ele>
        <time>2015-01-17T11:17:21Z</time>
      </trkpt>
      <trkpt lat="42.438289000" lon="-2.519573000">
        <ele>503.70</ele>
        <time>2015-01-17T11:17:22Z</time>
      </trkpt>
      <trkpt lat="42.438241000" lon="-2.519479000">
        <ele>503.30</ele>
        <time>2015-01-17T11:17:23Z</time>
      </trkpt>
      <trkpt lat="42.438190000" lon="-2.519379000">
        <ele>502.90</ele>
        <time>2015-01-17T11:17:24Z</time>
      </trkpt>
      <trkpt lat="42.438140000" lon="-2.519274000">
        <ele>502.50</ele>
        <time>2015-01-17T11:17:25Z</time>
      </trkpt>
      <trkpt lat="42.438087000" lon="-2.519167000">
        <ele>502.10</ele>
        <time>2015-01-17T11:17:26Z</time>
      </trkpt>
      <trkpt lat="42.438036000" lon="-2.519060000">
        <ele>501.70</ele>
        <time>2015-01-17T11:17:27Z</time>
      </trkpt>
      <trkpt lat="42.437993000" lon="-2.518945000">
        <ele>501.10</ele>
        <time>2015-01-17T11:17:28Z</time>
      </trkpt>
      <trkpt lat="42.437960000" lon="-2.518827000">
        <ele>500.70</ele>
        <time>2015-01-17T11:17:29Z</time>
      </trkpt>
      <trkpt lat="42.437928000" lon="-2.518709000">
        <ele>500.10</ele>
        <time>2015-01-17T11:17:30Z</time>
      </trkpt>
      <trkpt lat="42.437895000" lon="-2.518586000">
        <ele>499.60</ele>
        <time>2015-01-17T11:17:31Z</time>
      </trkpt>
      <trkpt lat="42.437859000" lon="-2.518460000">
        <ele>498.90</ele>
        <time>2015-01-17T11:17:32Z</time>
      </trkpt>
      <trkpt lat="42.437819000" lon="-2.518330000">
        <ele>498.40</ele>
        <time>2015-01-17T11:17:33Z</time>
      </trkpt>
      <trkpt lat="42.437776000" lon="-2.518201000">
        <ele>497.90</ele>
        <time>2015-01-17T11:17:34Z</time>
      </trkpt>
      <trkpt lat="42.437733000" lon="-2.518076000">
        <ele>497.60</ele>
        <time>2015-01-17T11:17:35Z</time>
      </trkpt>
      <trkpt lat="42.437684000" lon="-2.517957000">
        <ele>496.70</ele>
        <time>2015-01-17T11:17:36Z</time>
      </trkpt>
      <trkpt lat="42.437626000" lon="-2.517845000">
        <ele>496.00</ele>
        <time>2015-01-17T11:17:37Z</time>
      </trkpt>
      <trkpt lat="42.437562000" lon="-2.517739000">
        <ele>495.30</ele>
        <time>2015-01-17T11:17:38Z</time>
      </trkpt>
      <trkpt lat="42.437500000" lon="-2.517640000">
        <ele>494.80</ele>
        <time>2015-01-17T11:17:39Z</time>
      </trkpt>
      <trkpt lat="42.437438000" lon="-2.517545000">
        <ele>494.40</ele>
        <time>2015-01-17T11:17:40Z</time>
      </trkpt>
      <trkpt lat="42.437377000" lon="-2.517453000">
        <ele>494.00</ele>
        <time>2015-01-17T11:17:41Z</time>
      </trkpt>
      <trkpt lat="42.437315000" lon="-2.517367000">
        <ele>493.70</ele>
        <time>2015-01-17T11:17:42Z</time>
      </trkpt>
      <trkpt lat="42.437188000" lon="-2.517204000">
        <ele>493.20</ele>
        <time>2015-01-17T11:17:44Z</time>
      </trkpt>
      <trkpt lat="42.437129000" lon="-2.517125000">
        <ele>493.00</ele>
        <time>2015-01-17T11:17:45Z</time>
      </trkpt>
      <trkpt lat="42.437071000" lon="-2.517044000">
        <ele>492.40</ele>
        <time>2015-01-17T11:17:46Z</time>
      </trkpt>
      <trkpt lat="42.437014000" lon="-2.516966000">
        <ele>491.90</ele>
        <time>2015-01-17T11:17:47Z</time>
      </trkpt>
      <trkpt lat="42.436959000" lon="-2.516891000">
        <ele>491.60</ele>
        <time>2015-01-17T11:17:48Z</time>
      </trkpt>
      <trkpt lat="42.436907000" lon="-2.516814000">
        <ele>491.30</ele>
        <time>2015-01-17T11:17:49Z</time>
      </trkpt>
      <trkpt lat="42.436858000" lon="-2.516733000">
        <ele>491.10</ele>
        <time>2015-01-17T11:17:50Z</time>
      </trkpt>
      <trkpt lat="42.436813000" lon="-2.516657000">
        <ele>491.00</ele>
        <time>2015-01-17T11:17:51Z</time>
      </trkpt>
      <trkpt lat="42.436767000" lon="-2.516586000">
        <ele>490.80</ele>
        <time>2015-01-17T11:17:52Z</time>
      </trkpt>
      <trkpt lat="42.436716000" lon="-2.516519000">
        <ele>490.70</ele>
        <time>2015-01-17T11:17:53Z</time>
      </trkpt>
      <trkpt lat="42.436662000" lon="-2.516458000">
        <ele>490.50</ele>
        <time>2015-01-17T11:17:54Z</time>
      </trkpt>
      <trkpt lat="42.436615000" lon="-2.516399000">
        <ele>490.40</ele>
        <time>2015-01-17T11:17:55Z</time>
      </trkpt>
      <trkpt lat="42.436585000" lon="-2.516333000">
        <ele>490.20</ele>
        <time>2015-01-17T11:17:56Z</time>
      </trkpt>
      <trkpt lat="42.436579000" lon="-2.516263000">
        <ele>489.90</ele>
        <time>2015-01-17T11:17:57Z</time>
      </trkpt>
      <trkpt lat="42.436600000" lon="-2.516196000">
        <ele>489.50</ele>
        <time>2015-01-17T11:17:58Z</time>
      </trkpt>
      <trkpt lat="42.436634000" lon="-2.516126000">
        <ele>489.10</ele>
        <time>2015-01-17T11:17:59Z</time>
      </trkpt>
      <trkpt lat="42.436675000" lon="-2.516055000">
        <ele>488.90</ele>
        <time>2015-01-17T11:18:00Z</time>
      </trkpt>
      <trkpt lat="42.436720000" lon="-2.515981000">
        <ele>488.70</ele>
        <time>2015-01-17T11:18:01Z</time>
      </trkpt>
      <trkpt lat="42.436772000" lon="-2.515903000">
        <ele>487.90</ele>
        <time>2015-01-17T11:18:02Z</time>
      </trkpt>
      <trkpt lat="42.436832000" lon="-2.515831000">
        <ele>487.30</ele>
        <time>2015-01-17T11:18:03Z</time>
      </trkpt>
      <trkpt lat="42.436905000" lon="-2.515770000">
        <ele>486.90</ele>
        <time>2015-01-17T11:18:04Z</time>
      </trkpt>
      <trkpt lat="42.436982000" lon="-2.515713000">
        <ele>486.60</ele>
        <time>2015-01-17T11:18:05Z</time>
      </trkpt>
      <trkpt lat="42.437060000" lon="-2.515651000">
        <ele>486.00</ele>
        <time>2015-01-17T11:18:06Z</time>
      </trkpt>
      <trkpt lat="42.437133000" lon="-2.515580000">
        <ele>485.50</ele>
        <time>2015-01-17T11:18:07Z</time>
      </trkpt>
      <trkpt lat="42.437201000" lon="-2.515499000">
        <ele>485.00</ele>
        <time>2015-01-17T11:18:08Z</time>
      </trkpt>
      <trkpt lat="42.437264000" lon="-2.515413000">
        <ele>484.60</ele>
        <time>2015-01-17T11:18:09Z</time>
      </trkpt>
      <trkpt lat="42.437321000" lon="-2.515330000">
        <ele>483.20</ele>
        <time>2015-01-17T11:18:10Z</time>
      </trkpt>
      <trkpt lat="42.437365000" lon="-2.515246000">
        <ele>482.10</ele>
        <time>2015-01-17T11:18:11Z</time>
      </trkpt>
      <trkpt lat="42.437403000" lon="-2.515162000">
        <ele>480.60</ele>
        <time>2015-01-17T11:18:12Z</time>
      </trkpt>
      <trkpt lat="42.437442000" lon="-2.515074000">
        <ele>479.40</ele>
        <time>2015-01-17T11:18:13Z</time>
      </trkpt>
      <trkpt lat="42.437482000" lon="-2.514987000">
        <ele>478.30</ele>
        <time>2015-01-17T11:18:14Z</time>
      </trkpt>
      <trkpt lat="42.437524000" lon="-2.514898000">
        <ele>477.50</ele>
        <time>2015-01-17T11:18:15Z</time>
      </trkpt>
      <trkpt lat="42.437568000" lon="-2.514809000">
        <ele>476.20</ele>
        <time>2015-01-17T11:18:16Z</time>
      </trkpt>
      <trkpt lat="42.437611000" lon="-2.514721000">
        <ele>475.30</ele>
        <time>2015-01-17T11:18:17Z</time>
      </trkpt>
      <trkpt lat="42.437650000" lon="-2.514640000">
        <ele>474.40</ele>
        <time>2015-01-17T11:18:18Z</time>
      </trkpt>
      <trkpt lat="42.437681000" lon="-2.514574000">
        <ele>473.80</ele>
        <time>2015-01-17T11:18:19Z</time>
      </trkpt>
      <trkpt lat="42.437705000" lon="-2.514522000">
        <ele>472.80</ele>
        <time>2015-01-17T11:18:20Z</time>
      </trkpt>
      <trkpt lat="42.437714000" lon="-2.514483000">
        <ele>472.00</ele>
        <time>2015-01-17T11:18:21Z</time>
      </trkpt>
      <trkpt lat="42.437707000" lon="-2.514453000">
        <ele>471.20</ele>
        <time>2015-01-17T11:18:22Z</time>
      </trkpt>
      <trkpt lat="42.437687000" lon="-2.514434000">
        <ele>470.70</ele>
        <time>2015-01-17T11:18:23Z</time>
      </trkpt>
      <trkpt lat="42.437659000" lon="-2.514431000">
        <ele>469.80</ele>
        <time>2015-01-17T11:18:24Z</time>
      </trkpt>
      <trkpt lat="42.437638000" lon="-2.514447000">
        <ele>469.10</ele>
        <time>2015-01-17T11:18:25Z</time>
      </trkpt>
      <trkpt lat="42.437621000" lon="-2.514469000">
        <ele>468.50</ele>
        <time>2015-01-17T11:18:26Z</time>
      </trkpt>
      <trkpt lat="42.437602000" lon="-2.514490000">
        <ele>468.10</ele>
        <time>2015-01-17T11:18:27Z</time>
      </trkpt>
      <trkpt lat="42.437580000" lon="-2.514511000">
        <ele>467.70</ele>
        <time>2015-01-17T11:18:28Z</time>
      </trkpt>
      <trkpt lat="42.437553000" lon="-2.514538000">
        <ele>467.40</ele>
        <time>2015-01-17T11:18:29Z</time>
      </trkpt>
      <trkpt lat="42.437522000" lon="-2.514566000">
        <ele>467.00</ele>
        <time>2015-01-17T11:18:30Z</time>
      </trkpt>
      <trkpt lat="42.437490000" lon="-2.514591000">
        <ele>466.70</ele>
        <time>2015-01-17T11:18:31Z</time>
      </trkpt>
      <trkpt lat="42.437458000" lon="-2.514619000">
        <ele>466.40</ele>
        <time>2015-01-17T11:18:32Z</time>
      </trkpt>
      <trkpt lat="42.437424000" lon="-2.514641000">
        <ele>466.20</ele>
        <time>2015-01-17T11:18:33Z</time>
      </trkpt>
      <trkpt lat="42.437387000" lon="-2.514659000">
        <ele>466.10</ele>
        <time>2015-01-17T11:18:34Z</time>
      </trkpt>
      <trkpt lat="42.437349000" lon="-2.514678000">
        <ele>466.00</ele>
        <time>2015-01-17T11:18:35Z</time>
      </trkpt>
      <trkpt lat="42.437306000" lon="-2.514692000">
        <ele>465.90</ele>
        <time>2015-01-17T11:18:36Z</time>
      </trkpt>
      <trkpt lat="42.437258000" lon="-2.514697000">
        <ele>465.80</ele>
        <time>2015-01-17T11:18:37Z</time>
      </trkpt>
      <trkpt lat="42.437207000" lon="-2.514690000">
        <ele>465.80</ele>
        <time>2015-01-17T11:18:38Z</time>
      </trkpt>
      <trkpt lat="42.437158000" lon="-2.514670000">
        <ele>465.70</ele>
        <time>2015-01-17T11:18:39Z</time>
      </trkpt>
      <trkpt lat="42.437113000" lon="-2.514630000">
        <ele>465.40</ele>
        <time>2015-01-17T11:18:40Z</time>
      </trkpt>
      <trkpt lat="42.437081000" lon="-2.514564000">
        <ele>465.20</ele>
        <time>2015-01-17T11:18:41Z</time>
      </trkpt>
      <trkpt lat="42.437050000" lon="-2.514496000">
        <ele>464.90</ele>
        <time>2015-01-17T11:18:42Z</time>
      </trkpt>
      <trkpt lat="42.437018000" lon="-2.514425000">
        <ele>464.70</ele>
        <time>2015-01-17T11:18:43Z</time>
      </trkpt>
      <trkpt lat="42.436986000" lon="-2.514347000">
        <ele>464.40</ele>
        <time>2015-01-17T11:18:44Z</time>
      </trkpt>
      <trkpt lat="42.436918000" lon="-2.514193000">
        <ele>464.00</ele>
        <time>2015-01-17T11:18:46Z</time>
      </trkpt>
      <trkpt lat="42.436881000" lon="-2.514113000">
        <ele>463.80</ele>
        <time>2015-01-17T11:18:47Z</time>
      </trkpt>
      <trkpt lat="42.436847000" lon="-2.514032000">
        <ele>463.40</ele>
        <time>2015-01-17T11:18:48Z</time>
      </trkpt>
      <trkpt lat="42.436810000" lon="-2.513951000">
        <ele>463.10</ele>
        <time>2015-01-17T11:18:49Z</time>
      </trkpt>
      <trkpt lat="42.436770000" lon="-2.513872000">
        <ele>462.70</ele>
        <time>2015-01-17T11:18:50Z</time>
      </trkpt>
      <trkpt lat="42.436735000" lon="-2.513793000">
        <ele>462.40</ele>
        <time>2015-01-17T11:18:51Z</time>
      </trkpt>
      <trkpt lat="42.436701000" lon="-2.513711000">
        <ele>462.10</ele>
        <time>2015-01-17T11:18:52Z</time>
      </trkpt>
      <trkpt lat="42.436669000" lon="-2.513632000">
        <ele>461.90</ele>
        <time>2015-01-17T11:18:53Z</time>
      </trkpt>
      <trkpt lat="42.436636000" lon="-2.513552000">
        <ele>461.70</ele>
        <time>2015-01-17T11:18:54Z</time>
      </trkpt>
      <trkpt lat="42.436603000" lon="-2.513472000">
        <ele>461.60</ele>
        <time>2015-01-17T11:18:55Z</time>
      </trkpt>
      <trkpt lat="42.436570000" lon="-2.513387000">
        <ele>461.30</ele>
        <time>2015-01-17T11:18:56Z</time>
      </trkpt>
      <trkpt lat="42.436541000" lon="-2.513301000">
        <ele>461.10</ele>
        <time>2015-01-17T11:18:57Z</time>
      </trkpt>
      <trkpt lat="42.436515000" lon="-2.513215000">
        <ele>461.00</ele>
        <time>2015-01-17T11:18:58Z</time>
      </trkpt>
      <trkpt lat="42.436498000" lon="-2.513127000">
        <ele>460.90</ele>
        <time>2015-01-17T11:18:59Z</time>
      </trkpt>
      <trkpt lat="42.436481000" lon="-2.513039000">
        <ele>460.70</ele>
        <time>2015-01-17T11:19:00Z</time>
      </trkpt>
      <trkpt lat="42.436465000" lon="-2.512953000">
        <ele>460.60</ele>
        <time>2015-01-17T11:19:01Z</time>
      </trkpt>
      <trkpt lat="42.436449000" lon="-2.512872000">
        <ele>460.60</ele>
        <time>2015-01-17T11:19:02Z</time>
      </trkpt>
      <trkpt lat="42.436433000" lon="-2.512793000">
        <ele>460.50</ele>
        <time>2015-01-17T11:19:03Z</time>
      </trkpt>
      <trkpt lat="42.436415000" lon="-2.512716000">
        <ele>460.30</ele>
        <time>2015-01-17T11:19:04Z</time>
      </trkpt>
      <trkpt lat="42.436397000" lon="-2.512639000">
        <ele>460.20</ele>
        <time>2015-01-17T11:19:05Z</time>
      </trkpt>
      <trkpt lat="42.436381000" lon="-2.512564000">
        <ele>460.10</ele>
        <time>2015-01-17T11:19:06Z</time>
      </trkpt>
      <trkpt lat="42.436365000" lon="-2.512492000">
        <ele>460.10</ele>
        <time>2015-01-17T11:19:07Z</time>
      </trkpt>
      <trkpt lat="42.436347000" lon="-2.512422000">
        <ele>460.10</ele>
        <time>2015-01-17T11:19:08Z</time>
      </trkpt>
      <trkpt lat="42.436330000" lon="-2.512352000">
        <ele>460.10</ele>
        <time>2015-01-17T11:19:09Z</time>
      </trkpt>
      <trkpt lat="42.436313000" lon="-2.512284000">
        <ele>460.30</ele>
        <time>2015-01-17T11:19:10Z</time>
      </trkpt>
      <trkpt lat="42.436297000" lon="-2.512216000">
        <ele>460.50</ele>
        <time>2015-01-17T11:19:11Z</time>
      </trkpt>
      <trkpt lat="42.436282000" lon="-2.512152000">
        <ele>460.70</ele>
        <time>2015-01-17T11:19:12Z</time>
      </trkpt>
      <trkpt lat="42.436267000" lon="-2.512087000">
        <ele>460.80</ele>
        <time>2015-01-17T11:19:13Z</time>
      </trkpt>
      <trkpt lat="42.436252000" lon="-2.512024000">
        <ele>461.00</ele>
        <time>2015-01-17T11:19:14Z</time>
      </trkpt>
      <trkpt lat="42.436239000" lon="-2.511963000">
        <ele>461.10</ele>
        <time>2015-01-17T11:19:15Z</time>
      </trkpt>
      <trkpt lat="42.436224000" lon="-2.511903000">
        <ele>461.30</ele>
        <time>2015-01-17T11:19:16Z</time>
      </trkpt>
      <trkpt lat="42.436212000" lon="-2.511841000">
        <ele>461.40</ele>
        <time>2015-01-17T11:19:17Z</time>
      </trkpt>
      <trkpt lat="42.436200000" lon="-2.511780000">
        <ele>461.60</ele>
        <time>2015-01-17T11:19:18Z</time>
      </trkpt>
      <trkpt lat="42.436190000" lon="-2.511721000">
        <ele>461.70</ele>
        <time>2015-01-17T11:19:19Z</time>
      </trkpt>
      <trkpt lat="42.436178000" lon="-2.511665000">
        <ele>461.90</ele>
        <time>2015-01-17T11:19:20Z</time>
      </trkpt>
      <trkpt lat="42.436166000" lon="-2.511607000">
        <ele>462.00</ele>
        <time>2015-01-17T11:19:21Z</time>
      </trkpt>
      <trkpt lat="42.436152000" lon="-2.511548000">
        <ele>462.20</ele>
        <time>2015-01-17T11:19:22Z</time>
      </trkpt>
      <trkpt lat="42.436137000" lon="-2.511486000">
        <ele>462.30</ele>
        <time>2015-01-17T11:19:23Z</time>
      </trkpt>
      <trkpt lat="42.436119000" lon="-2.511425000">
        <ele>462.40</ele>
        <time>2015-01-17T11:19:24Z</time>
      </trkpt>
      <trkpt lat="42.436101000" lon="-2.511361000">
        <ele>462.50</ele>
        <time>2015-01-17T11:19:25Z</time>
      </trkpt>
      <trkpt lat="42.436086000" lon="-2.511294000">
        <ele>462.50</ele>
        <time>2015-01-17T11:19:26Z</time>
      </trkpt>
      <trkpt lat="42.436068000" lon="-2.511229000">
        <ele>462.60</ele>
        <time>2015-01-17T11:19:27Z</time>
      </trkpt>
      <trkpt lat="42.436051000" lon="-2.511169000">
        <ele>462.20</ele>
        <time>2015-01-17T11:19:28Z</time>
      </trkpt>
      <trkpt lat="42.436036000" lon="-2.511113000">
        <ele>462.00</ele>
        <time>2015-01-17T11:19:29Z</time>
      </trkpt>
      <trkpt lat="42.436026000" lon="-2.511062000">
        <ele>461.80</ele>
        <time>2015-01-17T11:19:30Z</time>
      </trkpt>
      <trkpt lat="42.436032000" lon="-2.511022000">
        <ele>461.70</ele>
        <time>2015-01-17T11:19:31Z</time>
      </trkpt>
      <trkpt lat="42.436032000" lon="-2.510996000">
        <ele>461.60</ele>
        <time>2015-01-17T11:19:32Z</time>
      </trkpt>
      <trkpt lat="42.436057000" lon="-2.510969000">
        <ele>461.60</ele>
        <time>2015-01-17T11:19:33Z</time>
      </trkpt>
      <trkpt lat="42.436094000" lon="-2.510952000">
        <ele>461.60</ele>
        <time>2015-01-17T11:19:34Z</time>
      </trkpt>
      <trkpt lat="42.436138000" lon="-2.510942000">
        <ele>461.50</ele>
        <time>2015-01-17T11:19:35Z</time>
      </trkpt>
      <trkpt lat="42.436183000" lon="-2.510932000">
        <ele>461.50</ele>
        <time>2015-01-17T11:19:36Z</time>
      </trkpt>
      <trkpt lat="42.436232000" lon="-2.510921000">
        <ele>461.40</ele>
        <time>2015-01-17T11:19:37Z</time>
      </trkpt>
      <trkpt lat="42.436282000" lon="-2.510908000">
        <ele>461.20</ele>
        <time>2015-01-17T11:19:38Z</time>
      </trkpt>
      <trkpt lat="42.436335000" lon="-2.510892000">
        <ele>461.00</ele>
        <time>2015-01-17T11:19:39Z</time>
      </trkpt>
      <trkpt lat="42.436388000" lon="-2.510874000">
        <ele>460.90</ele>
        <time>2015-01-17T11:19:40Z</time>
      </trkpt>
      <trkpt lat="42.436440000" lon="-2.510853000">
        <ele>460.80</ele>
        <time>2015-01-17T11:19:41Z</time>
      </trkpt>
      <trkpt lat="42.436493000" lon="-2.510829000">
        <ele>460.60</ele>
        <time>2015-01-17T11:19:42Z</time>
      </trkpt>
      <trkpt lat="42.436548000" lon="-2.510806000">
        <ele>460.50</ele>
        <time>2015-01-17T11:19:43Z</time>
      </trkpt>
      <trkpt lat="42.436603000" lon="-2.510784000">
        <ele>460.20</ele>
        <time>2015-01-17T11:19:44Z</time>
      </trkpt>
      <trkpt lat="42.436659000" lon="-2.510766000">
        <ele>459.90</ele>
        <time>2015-01-17T11:19:45Z</time>
      </trkpt>
      <trkpt lat="42.436716000" lon="-2.510744000">
        <ele>459.80</ele>
        <time>2015-01-17T11:19:46Z</time>
      </trkpt>
      <trkpt lat="42.436833000" lon="-2.510706000">
        <ele>459.70</ele>
        <time>2015-01-17T11:19:48Z</time>
      </trkpt>
      <trkpt lat="42.436891000" lon="-2.510686000">
        <ele>459.60</ele>
        <time>2015-01-17T11:19:49Z</time>
      </trkpt>
      <trkpt lat="42.436950000" lon="-2.510661000">
        <ele>459.60</ele>
        <time>2015-01-17T11:19:50Z</time>
      </trkpt>
      <trkpt lat="42.437011000" lon="-2.510634000">
        <ele>459.40</ele>
        <time>2015-01-17T11:19:51Z</time>
      </trkpt>
      <trkpt lat="42.437070000" lon="-2.510606000">
        <ele>459.20</ele>
        <time>2015-01-17T11:19:52Z</time>
      </trkpt>
      <trkpt lat="42.437128000" lon="-2.510578000">
        <ele>458.90</ele>
        <time>2015-01-17T11:19:53Z</time>
      </trkpt>
      <trkpt lat="42.437187000" lon="-2.510551000">
        <ele>458.60</ele>
        <time>2015-01-17T11:19:54Z</time>
      </trkpt>
      <trkpt lat="42.437247000" lon="-2.510527000">
        <ele>458.40</ele>
        <time>2015-01-17T11:19:55Z</time>
      </trkpt>
      <trkpt lat="42.437307000" lon="-2.510500000">
        <ele>458.20</ele>
        <time>2015-01-17T11:19:56Z</time>
      </trkpt>
      <trkpt lat="42.437369000" lon="-2.510476000">
        <ele>457.80</ele>
        <time>2015-01-17T11:19:57Z</time>
      </trkpt>
      <trkpt lat="42.437431000" lon="-2.510454000">
        <ele>457.50</ele>
        <time>2015-01-17T11:19:58Z</time>
      </trkpt>
      <trkpt lat="42.437492000" lon="-2.510432000">
        <ele>457.20</ele>
        <time>2015-01-17T11:19:59Z</time>
      </trkpt>
      <trkpt lat="42.437555000" lon="-2.510415000">
        <ele>457.10</ele>
        <time>2015-01-17T11:20:00Z</time>
      </trkpt>
      <trkpt lat="42.437618000" lon="-2.510396000">
        <ele>457.00</ele>
        <time>2015-01-17T11:20:01Z</time>
      </trkpt>
      <trkpt lat="42.437680000" lon="-2.510378000">
        <ele>456.90</ele>
        <time>2015-01-17T11:20:02Z</time>
      </trkpt>
      <trkpt lat="42.437741000" lon="-2.510359000">
        <ele>456.80</ele>
        <time>2015-01-17T11:20:03Z</time>
      </trkpt>
      <trkpt lat="42.437802000" lon="-2.510339000">
        <ele>456.70</ele>
        <time>2015-01-17T11:20:04Z</time>
      </trkpt>
      <trkpt lat="42.437861000" lon="-2.510319000">
        <ele>456.40</ele>
        <time>2015-01-17T11:20:05Z</time>
      </trkpt>
      <trkpt lat="42.437913000" lon="-2.510296000">
        <ele>456.20</ele>
        <time>2015-01-17T11:20:06Z</time>
      </trkpt>
      <trkpt lat="42.437952000" lon="-2.510263000">
        <ele>455.90</ele>
        <time>2015-01-17T11:20:07Z</time>
      </trkpt>
      <trkpt lat="42.437977000" lon="-2.510215000">
        <ele>455.70</ele>
        <time>2015-01-17T11:20:08Z</time>
      </trkpt>
      <trkpt lat="42.437987000" lon="-2.510156000">
        <ele>455.50</ele>
        <time>2015-01-17T11:20:09Z</time>
      </trkpt>
      <trkpt lat="42.437985000" lon="-2.510091000">
        <ele>455.40</ele>
        <time>2015-01-17T11:20:10Z</time>
      </trkpt>
      <trkpt lat="42.437985000" lon="-2.510025000">
        <ele>455.30</ele>
        <time>2015-01-17T11:20:11Z</time>
      </trkpt>
      <trkpt lat="42.437987000" lon="-2.509960000">
        <ele>455.20</ele>
        <time>2015-01-17T11:20:12Z</time>
      </trkpt>
      <trkpt lat="42.437993000" lon="-2.509894000">
        <ele>455.20</ele>
        <time>2015-01-17T11:20:13Z</time>
      </trkpt>
      <trkpt lat="42.438001000" lon="-2.509823000">
        <ele>455.10</ele>
        <time>2015-01-17T11:20:14Z</time>
      </trkpt>
      <trkpt lat="42.438011000" lon="-2.509754000">
        <ele>454.90</ele>
        <time>2015-01-17T11:20:15Z</time>
      </trkpt>
      <trkpt lat="42.438025000" lon="-2.509684000">
        <ele>454.80</ele>
        <time>2015-01-17T11:20:16Z</time>
      </trkpt>
      <trkpt lat="42.438040000" lon="-2.509615000">
        <ele>454.80</ele>
        <time>2015-01-17T11:20:17Z</time>
      </trkpt>
      <trkpt lat="42.438054000" lon="-2.509547000">
        <ele>454.80</ele>
        <time>2015-01-17T11:20:18Z</time>
      </trkpt>
      <trkpt lat="42.438071000" lon="-2.509480000">
        <ele>454.90</ele>
        <time>2015-01-17T11:20:19Z</time>
      </trkpt>
      <trkpt lat="42.438087000" lon="-2.509410000">
        <ele>454.90</ele>
        <time>2015-01-17T11:20:20Z</time>
      </trkpt>
      <trkpt lat="42.438100000" lon="-2.509342000">
        <ele>454.90</ele>
        <time>2015-01-17T11:20:21Z</time>
      </trkpt>
      <trkpt lat="42.438116000" lon="-2.509274000">
        <ele>454.90</ele>
        <time>2015-01-17T11:20:22Z</time>
      </trkpt>
      <trkpt lat="42.438132000" lon="-2.509209000">
        <ele>455.00</ele>
        <time>2015-01-17T11:20:23Z</time>
      </trkpt>
      <trkpt lat="42.438147000" lon="-2.509140000">
        <ele>455.10</ele>
        <time>2015-01-17T11:20:24Z</time>
      </trkpt>
      <trkpt lat="42.438160000" lon="-2.509071000">
        <ele>455.20</ele>
        <time>2015-01-17T11:20:25Z</time>
      </trkpt>
      <trkpt lat="42.438171000" lon="-2.509007000">
        <ele>455.30</ele>
        <time>2015-01-17T11:20:26Z</time>
      </trkpt>
      <trkpt lat="42.438184000" lon="-2.508945000">
        <ele>455.30</ele>
        <time>2015-01-17T11:20:27Z</time>
      </trkpt>
      <trkpt lat="42.438192000" lon="-2.508882000">
        <ele>455.40</ele>
        <time>2015-01-17T11:20:28Z</time>
      </trkpt>
      <trkpt lat="42.438203000" lon="-2.508818000">
        <ele>455.40</ele>
        <time>2015-01-17T11:20:29Z</time>
      </trkpt>
      <trkpt lat="42.438214000" lon="-2.508756000">
        <ele>455.50</ele>
        <time>2015-01-17T11:20:30Z</time>
      </trkpt>
      <trkpt lat="42.438223000" lon="-2.508694000">
        <ele>455.60</ele>
        <time>2015-01-17T11:20:31Z</time>
      </trkpt>
      <trkpt lat="42.438233000" lon="-2.508630000">
        <ele>455.70</ele>
        <time>2015-01-17T11:20:32Z</time>
      </trkpt>
      <trkpt lat="42.438243000" lon="-2.508564000">
        <ele>456.00</ele>
        <time>2015-01-17T11:20:33Z</time>
      </trkpt>
      <trkpt lat="42.438254000" lon="-2.508498000">
        <ele>456.10</ele>
        <time>2015-01-17T11:20:34Z</time>
      </trkpt>
      <trkpt lat="42.438264000" lon="-2.508433000">
        <ele>456.30</ele>
        <time>2015-01-17T11:20:35Z</time>
      </trkpt>
      <trkpt lat="42.438275000" lon="-2.508368000">
        <ele>456.50</ele>
        <time>2015-01-17T11:20:36Z</time>
      </trkpt>
      <trkpt lat="42.438288000" lon="-2.508303000">
        <ele>456.60</ele>
        <time>2015-01-17T11:20:37Z</time>
      </trkpt>
      <trkpt lat="42.438299000" lon="-2.508240000">
        <ele>456.70</ele>
        <time>2015-01-17T11:20:38Z</time>
      </trkpt>
      <trkpt lat="42.438312000" lon="-2.508177000">
        <ele>456.70</ele>
        <time>2015-01-17T11:20:39Z</time>
      </trkpt>
      <trkpt lat="42.438324000" lon="-2.508113000">
        <ele>456.80</ele>
        <time>2015-01-17T11:20:40Z</time>
      </trkpt>
      <trkpt lat="42.438335000" lon="-2.508048000">
        <ele>456.80</ele>
        <time>2015-01-17T11:20:41Z</time>
      </trkpt>
      <trkpt lat="42.438347000" lon="-2.507988000">
        <ele>456.80</ele>
        <time>2015-01-17T11:20:42Z</time>
      </trkpt>
      <trkpt lat="42.438361000" lon="-2.507925000">
        <ele>456.90</ele>
        <time>2015-01-17T11:20:43Z</time>
      </trkpt>
      <trkpt lat="42.438374000" lon="-2.507864000">
        <ele>457.00</ele>
        <time>2015-01-17T11:20:44Z</time>
      </trkpt>
      <trkpt lat="42.438385000" lon="-2.507803000">
        <ele>457.10</ele>
        <time>2015-01-17T11:20:45Z</time>
      </trkpt>
      <trkpt lat="42.438397000" lon="-2.507741000">
        <ele>457.20</ele>
        <time>2015-01-17T11:20:46Z</time>
      </trkpt>
      <trkpt lat="42.438407000" lon="-2.507684000">
        <ele>457.40</ele>
        <time>2015-01-17T11:20:47Z</time>
      </trkpt>
      <trkpt lat="42.438432000" lon="-2.507571000">
        <ele>457.70</ele>
        <time>2015-01-17T11:20:49Z</time>
      </trkpt>
      <trkpt lat="42.438443000" lon="-2.507513000">
        <ele>457.80</ele>
        <time>2015-01-17T11:20:50Z</time>
      </trkpt>
      <trkpt lat="42.438457000" lon="-2.507459000">
        <ele>458.00</ele>
        <time>2015-01-17T11:20:51Z</time>
      </trkpt>
      <trkpt lat="42.438470000" lon="-2.507407000">
        <ele>458.10</ele>
        <time>2015-01-17T11:20:52Z</time>
      </trkpt>
      <trkpt lat="42.438484000" lon="-2.507354000">
        <ele>458.30</ele>
        <time>2015-01-17T11:20:53Z</time>
      </trkpt>
      <trkpt lat="42.438501000" lon="-2.507305000">
        <ele>458.40</ele>
        <time>2015-01-17T11:20:54Z</time>
      </trkpt>
      <trkpt lat="42.438516000" lon="-2.507259000">
        <ele>458.50</ele>
        <time>2015-01-17T11:20:55Z</time>
      </trkpt>
      <trkpt lat="42.438531000" lon="-2.507217000">
        <ele>458.50</ele>
        <time>2015-01-17T11:20:56Z</time>
      </trkpt>
      <trkpt lat="42.438547000" lon="-2.507173000">
        <ele>458.80</ele>
        <time>2015-01-17T11:20:57Z</time>
      </trkpt>
      <trkpt lat="42.438567000" lon="-2.507131000">
        <ele>459.00</ele>
        <time>2015-01-17T11:20:58Z</time>
      </trkpt>
      <trkpt lat="42.438588000" lon="-2.507089000">
        <ele>459.20</ele>
        <time>2015-01-17T11:20:59Z</time>
      </trkpt>
      <trkpt lat="42.438610000" lon="-2.507043000">
        <ele>459.40</ele>
        <time>2015-01-17T11:21:00Z</time>
      </trkpt>
      <trkpt lat="42.438632000" lon="-2.506994000">
        <ele>459.50</ele>
        <time>2015-01-17T11:21:01Z</time>
      </trkpt>
      <trkpt lat="42.438657000" lon="-2.506942000">
        <ele>459.60</ele>
        <time>2015-01-17T11:21:02Z</time>
      </trkpt>
      <trkpt lat="42.438682000" lon="-2.506889000">
        <ele>459.60</ele>
        <time>2015-01-17T11:21:03Z</time>
      </trkpt>
      <trkpt lat="42.438710000" lon="-2.506831000">
        <ele>459.60</ele>
        <time>2015-01-17T11:21:04Z</time>
      </trkpt>
      <trkpt lat="42.438743000" lon="-2.506768000">
        <ele>459.50</ele>
        <time>2015-01-17T11:21:05Z</time>
      </trkpt>
      <trkpt lat="42.438775000" lon="-2.506702000">
        <ele>459.50</ele>
        <time>2015-01-17T11:21:06Z</time>
      </trkpt>
      <trkpt lat="42.438811000" lon="-2.506629000">
        <ele>459.40</ele>
        <time>2015-01-17T11:21:07Z</time>
      </trkpt>
      <trkpt lat="42.438848000" lon="-2.506547000">
        <ele>459.40</ele>
        <time>2015-01-17T11:21:08Z</time>
      </trkpt>
      <trkpt lat="42.438886000" lon="-2.506461000">
        <ele>459.10</ele>
        <time>2015-01-17T11:21:09Z</time>
      </trkpt>
      <trkpt lat="42.438925000" lon="-2.506373000">
        <ele>458.90</ele>
        <time>2015-01-17T11:21:10Z</time>
      </trkpt>
      <trkpt lat="42.438963000" lon="-2.506284000">
        <ele>458.50</ele>
        <time>2015-01-17T11:21:11Z</time>
      </trkpt>
      <trkpt lat="42.439001000" lon="-2.506197000">
        <ele>458.20</ele>
        <time>2015-01-17T11:21:12Z</time>
      </trkpt>
      <trkpt lat="42.439040000" lon="-2.506113000">
        <ele>457.90</ele>
        <time>2015-01-17T11:21:13Z</time>
      </trkpt>
      <trkpt lat="42.439082000" lon="-2.506029000">
        <ele>457.70</ele>
        <time>2015-01-17T11:21:14Z</time>
      </trkpt>
      <trkpt lat="42.439124000" lon="-2.505948000">
        <ele>457.10</ele>
        <time>2015-01-17T11:21:15Z</time>
      </trkpt>
      <trkpt lat="42.439168000" lon="-2.505869000">
        <ele>456.60</ele>
        <time>2015-01-17T11:21:16Z</time>
      </trkpt>
      <trkpt lat="42.439214000" lon="-2.505791000">
        <ele>456.20</ele>
        <time>2015-01-17T11:21:17Z</time>
      </trkpt>
      <trkpt lat="42.439259000" lon="-2.505712000">
        <ele>455.90</ele>
        <time>2015-01-17T11:21:18Z</time>
      </trkpt>
      <trkpt lat="42.439307000" lon="-2.505634000">
        <ele>455.70</ele>
        <time>2015-01-17T11:21:19Z</time>
      </trkpt>
      <trkpt lat="42.439354000" lon="-2.505564000">
        <ele>455.40</ele>
        <time>2015-01-17T11:21:20Z</time>
      </trkpt>
      <trkpt lat="42.439401000" lon="-2.505494000">
        <ele>455.20</ele>
        <time>2015-01-17T11:21:21Z</time>
      </trkpt>
      <trkpt lat="42.439447000" lon="-2.505431000">
        <ele>454.70</ele>
        <time>2015-01-17T11:21:22Z</time>
      </trkpt>
      <trkpt lat="42.439490000" lon="-2.505368000">
        <ele>454.40</ele>
        <time>2015-01-17T11:21:23Z</time>
      </trkpt>
      <trkpt lat="42.439534000" lon="-2.505306000">
        <ele>454.10</ele>
        <time>2015-01-17T11:21:24Z</time>
      </trkpt>
      <trkpt lat="42.439576000" lon="-2.505245000">
        <ele>453.90</ele>
        <time>2015-01-17T11:21:25Z</time>
      </trkpt>
      <trkpt lat="42.439617000" lon="-2.505191000">
        <ele>453.70</ele>
        <time>2015-01-17T11:21:26Z</time>
      </trkpt>
      <trkpt lat="42.439655000" lon="-2.505135000">
        <ele>453.60</ele>
        <time>2015-01-17T11:21:27Z</time>
      </trkpt>
      <trkpt lat="42.439689000" lon="-2.505077000">
        <ele>453.50</ele>
        <time>2015-01-17T11:21:28Z</time>
      </trkpt>
      <trkpt lat="42.439717000" lon="-2.505018000">
        <ele>453.40</ele>
        <time>2015-01-17T11:21:29Z</time>
      </trkpt>
      <trkpt lat="42.439738000" lon="-2.504953000">
        <ele>453.50</ele>
        <time>2015-01-17T11:21:30Z</time>
      </trkpt>
      <trkpt lat="42.439756000" lon="-2.504885000">
        <ele>453.60</ele>
        <time>2015-01-17T11:21:31Z</time>
      </trkpt>
      <trkpt lat="42.439770000" lon="-2.504815000">
        <ele>453.70</ele>
        <time>2015-01-17T11:21:32Z</time>
      </trkpt>
      <trkpt lat="42.439786000" lon="-2.504743000">
        <ele>453.70</ele>
        <time>2015-01-17T11:21:33Z</time>
      </trkpt>
      <trkpt lat="42.439804000" lon="-2.504671000">
        <ele>453.80</ele>
        <time>2015-01-17T11:21:34Z</time>
      </trkpt>
      <trkpt lat="42.439823000" lon="-2.504602000">
        <ele>453.90</ele>
        <time>2015-01-17T11:21:35Z</time>
      </trkpt>
      <trkpt lat="42.439839000" lon="-2.504535000">
        <ele>453.90</ele>
        <time>2015-01-17T11:21:36Z</time>
      </trkpt>
      <trkpt lat="42.439851000" lon="-2.504468000">
        <ele>453.90</ele>
        <time>2015-01-17T11:21:37Z</time>
      </trkpt>
      <trkpt lat="42.439862000" lon="-2.504400000">
        <ele>453.90</ele>
        <time>2015-01-17T11:21:38Z</time>
      </trkpt>
      <trkpt lat="42.439874000" lon="-2.504332000">
        <ele>453.90</ele>
        <time>2015-01-17T11:21:39Z</time>
      </trkpt>
      <trkpt lat="42.439883000" lon="-2.504261000">
        <ele>453.60</ele>
        <time>2015-01-17T11:21:40Z</time>
      </trkpt>
      <trkpt lat="42.439893000" lon="-2.504192000">
        <ele>453.30</ele>
        <time>2015-01-17T11:21:41Z</time>
      </trkpt>
      <trkpt lat="42.439906000" lon="-2.504123000">
        <ele>453.30</ele>
        <time>2015-01-17T11:21:42Z</time>
      </trkpt>
      <trkpt lat="42.439916000" lon="-2.504054000">
        <ele>453.40</ele>
        <time>2015-01-17T11:21:43Z</time>
      </trkpt>
      <trkpt lat="42.439928000" lon="-2.503987000">
        <ele>453.20</ele>
        <time>2015-01-17T11:21:44Z</time>
      </trkpt>
      <trkpt lat="42.439943000" lon="-2.503920000">
        <ele>453.10</ele>
        <time>2015-01-17T11:21:45Z</time>
      </trkpt>
      <trkpt lat="42.439957000" lon="-2.503852000">
        <ele>453.20</ele>
        <time>2015-01-17T11:21:46Z</time>
      </trkpt>
      <trkpt lat="42.439974000" lon="-2.503783000">
        <ele>453.20</ele>
        <time>2015-01-17T11:21:47Z</time>
      </trkpt>
      <trkpt lat="42.439989000" lon="-2.503717000">
        <ele>453.30</ele>
        <time>2015-01-17T11:21:48Z</time>
      </trkpt>
      <trkpt lat="42.440024000" lon="-2.503585000">
        <ele>453.30</ele>
        <time>2015-01-17T11:21:50Z</time>
      </trkpt>
      <trkpt lat="42.440041000" lon="-2.503525000">
        <ele>453.30</ele>
        <time>2015-01-17T11:21:51Z</time>
      </trkpt>
      <trkpt lat="42.440058000" lon="-2.503465000">
        <ele>453.20</ele>
        <time>2015-01-17T11:21:52Z</time>
      </trkpt>
      <trkpt lat="42.440075000" lon="-2.503406000">
        <ele>453.10</ele>
        <time>2015-01-17T11:21:53Z</time>
      </trkpt>
      <trkpt lat="42.440090000" lon="-2.503342000">
        <ele>453.10</ele>
        <time>2015-01-17T11:21:54Z</time>
      </trkpt>
      <trkpt lat="42.440108000" lon="-2.503280000">
        <ele>453.00</ele>
        <time>2015-01-17T11:21:55Z</time>
      </trkpt>
      <trkpt lat="42.440125000" lon="-2.503216000">
        <ele>453.00</ele>
        <time>2015-01-17T11:21:56Z</time>
      </trkpt>
      <trkpt lat="42.440142000" lon="-2.503150000">
        <ele>453.00</ele>
        <time>2015-01-17T11:21:57Z</time>
      </trkpt>
      <trkpt lat="42.440162000" lon="-2.503079000">
        <ele>453.00</ele>
        <time>2015-01-17T11:21:58Z</time>
      </trkpt>
      <trkpt lat="42.440179000" lon="-2.503011000">
        <ele>453.00</ele>
        <time>2015-01-17T11:21:59Z</time>
      </trkpt>
      <trkpt lat="42.440196000" lon="-2.502944000">
        <ele>453.00</ele>
        <time>2015-01-17T11:22:00Z</time>
      </trkpt>
      <trkpt lat="42.440205000" lon="-2.502873000">
        <ele>452.90</ele>
        <time>2015-01-17T11:22:01Z</time>
      </trkpt>
      <trkpt lat="42.440215000" lon="-2.502802000">
        <ele>452.80</ele>
        <time>2015-01-17T11:22:02Z</time>
      </trkpt>
      <trkpt lat="42.440219000" lon="-2.502732000">
        <ele>452.70</ele>
        <time>2015-01-17T11:22:03Z</time>
      </trkpt>
      <trkpt lat="42.440224000" lon="-2.502658000">
        <ele>452.70</ele>
        <time>2015-01-17T11:22:04Z</time>
      </trkpt>
      <trkpt lat="42.440229000" lon="-2.502581000">
        <ele>452.60</ele>
        <time>2015-01-17T11:22:05Z</time>
      </trkpt>
      <trkpt lat="42.440239000" lon="-2.502504000">
        <ele>452.80</ele>
        <time>2015-01-17T11:22:06Z</time>
      </trkpt>
      <trkpt lat="42.440257000" lon="-2.502428000">
        <ele>452.90</ele>
        <time>2015-01-17T11:22:07Z</time>
      </trkpt>
      <trkpt lat="42.440272000" lon="-2.502357000">
        <ele>453.00</ele>
        <time>2015-01-17T11:22:08Z</time>
      </trkpt>
      <trkpt lat="42.440289000" lon="-2.502292000">
        <ele>453.10</ele>
        <time>2015-01-17T11:22:09Z</time>
      </trkpt>
      <trkpt lat="42.440307000" lon="-2.502227000">
        <ele>453.10</ele>
        <time>2015-01-17T11:22:10Z</time>
      </trkpt>
      <trkpt lat="42.440325000" lon="-2.502162000">
        <ele>453.20</ele>
        <time>2015-01-17T11:22:11Z</time>
      </trkpt>
      <trkpt lat="42.440343000" lon="-2.502096000">
        <ele>453.00</ele>
        <time>2015-01-17T11:22:12Z</time>
      </trkpt>
      <trkpt lat="42.440360000" lon="-2.502035000">
        <ele>452.90</ele>
        <time>2015-01-17T11:22:13Z</time>
      </trkpt>
      <trkpt lat="42.440380000" lon="-2.501971000">
        <ele>453.00</ele>
        <time>2015-01-17T11:22:14Z</time>
      </trkpt>
      <trkpt lat="42.440396000" lon="-2.501906000">
        <ele>453.00</ele>
        <time>2015-01-17T11:22:15Z</time>
      </trkpt>
      <trkpt lat="42.440411000" lon="-2.501841000">
        <ele>453.10</ele>
        <time>2015-01-17T11:22:16Z</time>
      </trkpt>
      <trkpt lat="42.440423000" lon="-2.501770000">
        <ele>453.10</ele>
        <time>2015-01-17T11:22:17Z</time>
      </trkpt>
      <trkpt lat="42.440436000" lon="-2.501704000">
        <ele>453.30</ele>
        <time>2015-01-17T11:22:18Z</time>
      </trkpt>
      <trkpt lat="42.440451000" lon="-2.501640000">
        <ele>453.40</ele>
        <time>2015-01-17T11:22:19Z</time>
      </trkpt>
      <trkpt lat="42.440472000" lon="-2.501578000">
        <ele>453.50</ele>
        <time>2015-01-17T11:22:20Z</time>
      </trkpt>
      <trkpt lat="42.440500000" lon="-2.501519000">
        <ele>453.50</ele>
        <time>2015-01-17T11:22:21Z</time>
      </trkpt>
      <trkpt lat="42.440536000" lon="-2.501464000">
        <ele>453.60</ele>
        <time>2015-01-17T11:22:22Z</time>
      </trkpt>
      <trkpt lat="42.440574000" lon="-2.501417000">
        <ele>453.60</ele>
        <time>2015-01-17T11:22:23Z</time>
      </trkpt>
      <trkpt lat="42.440612000" lon="-2.501373000">
        <ele>453.60</ele>
        <time>2015-01-17T11:22:24Z</time>
      </trkpt>
      <trkpt lat="42.440651000" lon="-2.501325000">
        <ele>453.70</ele>
        <time>2015-01-17T11:22:25Z</time>
      </trkpt>
      <trkpt lat="42.440689000" lon="-2.501272000">
        <ele>453.60</ele>
        <time>2015-01-17T11:22:26Z</time>
      </trkpt>
      <trkpt lat="42.440727000" lon="-2.501221000">
        <ele>453.50</ele>
        <time>2015-01-17T11:22:27Z</time>
      </trkpt>
      <trkpt lat="42.440761000" lon="-2.501166000">
        <ele>453.40</ele>
        <time>2015-01-17T11:22:28Z</time>
      </trkpt>
      <trkpt lat="42.440798000" lon="-2.501110000">
        <ele>453.40</ele>
        <time>2015-01-17T11:22:29Z</time>
      </trkpt>
      <trkpt lat="42.440834000" lon="-2.501052000">
        <ele>453.40</ele>
        <time>2015-01-17T11:22:30Z</time>
      </trkpt>
      <trkpt lat="42.440871000" lon="-2.500995000">
        <ele>453.40</ele>
        <time>2015-01-17T11:22:31Z</time>
      </trkpt>
      <trkpt lat="42.440909000" lon="-2.500937000">
        <ele>453.50</ele>
        <time>2015-01-17T11:22:32Z</time>
      </trkpt>
      <trkpt lat="42.440946000" lon="-2.500880000">
        <ele>453.50</ele>
        <time>2015-01-17T11:22:33Z</time>
      </trkpt>
      <trkpt lat="42.440983000" lon="-2.500822000">
        <ele>453.80</ele>
        <time>2015-01-17T11:22:34Z</time>
      </trkpt>
      <trkpt lat="42.441016000" lon="-2.500764000">
        <ele>454.00</ele>
        <time>2015-01-17T11:22:35Z</time>
      </trkpt>
      <trkpt lat="42.441048000" lon="-2.500701000">
        <ele>454.10</ele>
        <time>2015-01-17T11:22:36Z</time>
      </trkpt>
      <trkpt lat="42.441077000" lon="-2.500638000">
        <ele>454.20</ele>
        <time>2015-01-17T11:22:37Z</time>
      </trkpt>
      <trkpt lat="42.441106000" lon="-2.500575000">
        <ele>454.30</ele>
        <time>2015-01-17T11:22:38Z</time>
      </trkpt>
      <trkpt lat="42.441133000" lon="-2.500513000">
        <ele>454.40</ele>
        <time>2015-01-17T11:22:39Z</time>
      </trkpt>
      <trkpt lat="42.441162000" lon="-2.500445000">
        <ele>454.60</ele>
        <time>2015-01-17T11:22:40Z</time>
      </trkpt>
      <trkpt lat="42.441192000" lon="-2.500377000">
        <ele>454.70</ele>
        <time>2015-01-17T11:22:41Z</time>
      </trkpt>
      <trkpt lat="42.441223000" lon="-2.500310000">
        <ele>454.90</ele>
        <time>2015-01-17T11:22:42Z</time>
      </trkpt>
      <trkpt lat="42.441254000" lon="-2.500244000">
        <ele>455.10</ele>
        <time>2015-01-17T11:22:43Z</time>
      </trkpt>
      <trkpt lat="42.441288000" lon="-2.500178000">
        <ele>455.30</ele>
        <time>2015-01-17T11:22:44Z</time>
      </trkpt>
      <trkpt lat="42.441326000" lon="-2.500115000">
        <ele>455.40</ele>
        <time>2015-01-17T11:22:45Z</time>
      </trkpt>
      <trkpt lat="42.441368000" lon="-2.500060000">
        <ele>455.10</ele>
        <time>2015-01-17T11:22:46Z</time>
      </trkpt>
      <trkpt lat="42.441412000" lon="-2.500009000">
        <ele>454.80</ele>
        <time>2015-01-17T11:22:47Z</time>
      </trkpt>
      <trkpt lat="42.441458000" lon="-2.499968000">
        <ele>454.70</ele>
        <time>2015-01-17T11:22:48Z</time>
      </trkpt>
      <trkpt lat="42.441503000" lon="-2.499928000">
        <ele>454.50</ele>
        <time>2015-01-17T11:22:49Z</time>
      </trkpt>
      <trkpt lat="42.441547000" lon="-2.499891000">
        <ele>454.50</ele>
        <time>2015-01-17T11:22:50Z</time>
      </trkpt>
      <trkpt lat="42.441630000" lon="-2.499817000">
        <ele>454.30</ele>
        <time>2015-01-17T11:22:52Z</time>
      </trkpt>
      <trkpt lat="42.441671000" lon="-2.499783000">
        <ele>454.30</ele>
        <time>2015-01-17T11:22:53Z</time>
      </trkpt>
      <trkpt lat="42.441709000" lon="-2.499750000">
        <ele>454.10</ele>
        <time>2015-01-17T11:22:54Z</time>
      </trkpt>
      <trkpt lat="42.441744000" lon="-2.499718000">
        <ele>453.90</ele>
        <time>2015-01-17T11:22:55Z</time>
      </trkpt>
      <trkpt lat="42.441778000" lon="-2.499680000">
        <ele>453.80</ele>
        <time>2015-01-17T11:22:56Z</time>
      </trkpt>
      <trkpt lat="42.441806000" lon="-2.499635000">
        <ele>453.70</ele>
        <time>2015-01-17T11:22:57Z</time>
      </trkpt>
      <trkpt lat="42.441827000" lon="-2.499585000">
        <ele>453.70</ele>
        <time>2015-01-17T11:22:58Z</time>
      </trkpt>
      <trkpt lat="42.441844000" lon="-2.499533000">
        <ele>453.80</ele>
        <time>2015-01-17T11:22:59Z</time>
      </trkpt>
      <trkpt lat="42.441854000" lon="-2.499482000">
        <ele>454.00</ele>
        <time>2015-01-17T11:23:00Z</time>
      </trkpt>
      <trkpt lat="42.441866000" lon="-2.499433000">
        <ele>454.20</ele>
        <time>2015-01-17T11:23:01Z</time>
      </trkpt>
      <trkpt lat="42.441883000" lon="-2.499386000">
        <ele>454.30</ele>
        <time>2015-01-17T11:23:02Z</time>
      </trkpt>
      <trkpt lat="42.441903000" lon="-2.499335000">
        <ele>454.50</ele>
        <time>2015-01-17T11:23:03Z</time>
      </trkpt>
      <trkpt lat="42.441931000" lon="-2.499282000">
        <ele>454.60</ele>
        <time>2015-01-17T11:23:04Z</time>
      </trkpt>
      <trkpt lat="42.441960000" lon="-2.499225000">
        <ele>454.60</ele>
        <time>2015-01-17T11:23:05Z</time>
      </trkpt>
      <trkpt lat="42.441990000" lon="-2.499171000">
        <ele>454.60</ele>
        <time>2015-01-17T11:23:06Z</time>
      </trkpt>
      <trkpt lat="42.442020000" lon="-2.499123000">
        <ele>454.50</ele>
        <time>2015-01-17T11:23:07Z</time>
      </trkpt>
      <trkpt lat="42.442052000" lon="-2.499080000">
        <ele>454.30</ele>
        <time>2015-01-17T11:23:08Z</time>
      </trkpt>
      <trkpt lat="42.442080000" lon="-2.499047000">
        <ele>454.20</ele>
        <time>2015-01-17T11:23:09Z</time>
      </trkpt>
      <trkpt lat="42.442109000" lon="-2.499030000">
        <ele>454.00</ele>
        <time>2015-01-17T11:23:10Z</time>
      </trkpt>
      <trkpt lat="42.442144000" lon="-2.499014000">
        <ele>453.80</ele>
        <time>2015-01-17T11:23:11Z</time>
      </trkpt>
      <trkpt lat="42.442186000" lon="-2.499006000">
        <ele>453.60</ele>
        <time>2015-01-17T11:23:12Z</time>
      </trkpt>
      <trkpt lat="42.442229000" lon="-2.499007000">
        <ele>453.50</ele>
        <time>2015-01-17T11:23:13Z</time>
      </trkpt>
      <trkpt lat="42.442271000" lon="-2.499007000">
        <ele>453.30</ele>
        <time>2015-01-17T11:23:14Z</time>
      </trkpt>
      <trkpt lat="42.442317000" lon="-2.499007000">
        <ele>453.20</ele>
        <time>2015-01-17T11:23:15Z</time>
      </trkpt>
      <trkpt lat="42.442361000" lon="-2.499010000">
        <ele>453.00</ele>
        <time>2015-01-17T11:23:16Z</time>
      </trkpt>
      <trkpt lat="42.442408000" lon="-2.499015000">
        <ele>452.90</ele>
        <time>2015-01-17T11:23:17Z</time>
      </trkpt>
      <trkpt lat="42.442451000" lon="-2.499021000">
        <ele>452.80</ele>
        <time>2015-01-17T11:23:18Z</time>
      </trkpt>
      <trkpt lat="42.442493000" lon="-2.499025000">
        <ele>452.70</ele>
        <time>2015-01-17T11:23:19Z</time>
      </trkpt>
      <trkpt lat="42.442535000" lon="-2.499026000">
        <ele>452.70</ele>
        <time>2015-01-17T11:23:20Z</time>
      </trkpt>
      <trkpt lat="42.442579000" lon="-2.499027000">
        <ele>452.60</ele>
        <time>2015-01-17T11:23:21Z</time>
      </trkpt>
      <trkpt lat="42.442623000" lon="-2.499031000">
        <ele>452.60</ele>
        <time>2015-01-17T11:23:22Z</time>
      </trkpt>
      <trkpt lat="42.442666000" lon="-2.499029000">
        <ele>452.60</ele>
        <time>2015-01-17T11:23:23Z</time>
      </trkpt>
      <trkpt lat="42.442703000" lon="-2.499032000">
        <ele>452.90</ele>
        <time>2015-01-17T11:23:24Z</time>
      </trkpt>
      <trkpt lat="42.442737000" lon="-2.499028000">
        <ele>453.10</ele>
        <time>2015-01-17T11:23:25Z</time>
      </trkpt>
      <trkpt lat="42.442770000" lon="-2.499027000">
        <ele>453.20</ele>
        <time>2015-01-17T11:23:26Z</time>
      </trkpt>
      <trkpt lat="42.442806000" lon="-2.499019000">
        <ele>453.40</ele>
        <time>2015-01-17T11:23:27Z</time>
      </trkpt>
      <trkpt lat="42.442838000" lon="-2.499015000">
        <ele>453.50</ele>
        <time>2015-01-17T11:23:28Z</time>
      </trkpt>
      <trkpt lat="42.442871000" lon="-2.499008000">
        <ele>453.50</ele>
        <time>2015-01-17T11:23:29Z</time>
      </trkpt>
      <trkpt lat="42.442902000" lon="-2.499003000">
        <ele>453.60</ele>
        <time>2015-01-17T11:23:30Z</time>
      </trkpt>
      <trkpt lat="42.442933000" lon="-2.499002000">
        <ele>453.60</ele>
        <time>2015-01-17T11:23:31Z</time>
      </trkpt>
      <trkpt lat="42.442963000" lon="-2.499010000">
        <ele>453.60</ele>
        <time>2015-01-17T11:23:32Z</time>
      </trkpt>
      <trkpt lat="42.442985000" lon="-2.499029000">
        <ele>453.70</ele>
        <time>2015-01-17T11:23:33Z</time>
      </trkpt>
      <trkpt lat="42.443011000" lon="-2.499049000">
        <ele>453.70</ele>
        <time>2015-01-17T11:23:34Z</time>
      </trkpt>
      <trkpt lat="42.443036000" lon="-2.499080000">
        <ele>453.80</ele>
        <time>2015-01-17T11:23:35Z</time>
      </trkpt>
      <trkpt lat="42.443059000" lon="-2.499117000">
        <ele>453.80</ele>
        <time>2015-01-17T11:23:36Z</time>
      </trkpt>
      <trkpt lat="42.443086000" lon="-2.499152000">
        <ele>453.80</ele>
        <time>2015-01-17T11:23:37Z</time>
      </trkpt>
      <trkpt lat="42.443123000" lon="-2.499189000">
        <ele>453.80</ele>
        <time>2015-01-17T11:23:38Z</time>
      </trkpt>
      <trkpt lat="42.443162000" lon="-2.499227000">
        <ele>453.80</ele>
        <time>2015-01-17T11:23:39Z</time>
      </trkpt>
      <trkpt lat="42.443213000" lon="-2.499257000">
        <ele>453.70</ele>
        <time>2015-01-17T11:23:40Z</time>
      </trkpt>
      <trkpt lat="42.443268000" lon="-2.499284000">
        <ele>453.60</ele>
        <time>2015-01-17T11:23:41Z</time>
      </trkpt>
      <trkpt lat="42.443324000" lon="-2.499302000">
        <ele>453.30</ele>
        <time>2015-01-17T11:23:42Z</time>
      </trkpt>
      <trkpt lat="42.443380000" lon="-2.499322000">
        <ele>453.20</ele>
        <time>2015-01-17T11:23:43Z</time>
      </trkpt>
      <trkpt lat="42.443436000" lon="-2.499342000">
        <ele>452.90</ele>
        <time>2015-01-17T11:23:44Z</time>
      </trkpt>
      <trkpt lat="42.443494000" lon="-2.499367000">
        <ele>452.70</ele>
        <time>2015-01-17T11:23:45Z</time>
      </trkpt>
      <trkpt lat="42.443558000" lon="-2.499392000">
        <ele>451.90</ele>
        <time>2015-01-17T11:23:46Z</time>
      </trkpt>
      <trkpt lat="42.443621000" lon="-2.499417000">
        <ele>451.20</ele>
        <time>2015-01-17T11:23:47Z</time>
      </trkpt>
      <trkpt lat="42.443684000" lon="-2.499447000">
        <ele>450.70</ele>
        <time>2015-01-17T11:23:48Z</time>
      </trkpt>
      <trkpt lat="42.443748000" lon="-2.499472000">
        <ele>450.40</ele>
        <time>2015-01-17T11:23:49Z</time>
      </trkpt>
      <trkpt lat="42.443812000" lon="-2.499493000">
        <ele>449.90</ele>
        <time>2015-01-17T11:23:50Z</time>
      </trkpt>
      <trkpt lat="42.443874000" lon="-2.499510000">
        <ele>449.60</ele>
        <time>2015-01-17T11:23:51Z</time>
      </trkpt>
      <trkpt lat="42.443930000" lon="-2.499530000">
        <ele>449.10</ele>
        <time>2015-01-17T11:23:52Z</time>
      </trkpt>
      <trkpt lat="42.444041000" lon="-2.499537000">
        <ele>448.40</ele>
        <time>2015-01-17T11:23:54Z</time>
      </trkpt>
      <trkpt lat="42.444089000" lon="-2.499540000">
        <ele>448.10</ele>
        <time>2015-01-17T11:23:55Z</time>
      </trkpt>
      <trkpt lat="42.444135000" lon="-2.499543000">
        <ele>447.60</ele>
        <time>2015-01-17T11:23:56Z</time>
      </trkpt>
      <trkpt lat="42.444174000" lon="-2.499551000">
        <ele>447.30</ele>
        <time>2015-01-17T11:23:57Z</time>
      </trkpt>
      <trkpt lat="42.444211000" lon="-2.499556000">
        <ele>446.50</ele>
        <time>2015-01-17T11:23:58Z</time>
      </trkpt>
      <trkpt lat="42.444256000" lon="-2.499553000">
        <ele>446.00</ele>
        <time>2015-01-17T11:23:59Z</time>
      </trkpt>
      <trkpt lat="42.444303000" lon="-2.499551000">
        <ele>445.40</ele>
        <time>2015-01-17T11:24:00Z</time>
      </trkpt>
      <trkpt lat="42.444347000" lon="-2.499554000">
        <ele>444.90</ele>
        <time>2015-01-17T11:24:01Z</time>
      </trkpt>
      <trkpt lat="42.444392000" lon="-2.499553000">
        <ele>444.60</ele>
        <time>2015-01-17T11:24:02Z</time>
      </trkpt>
      <trkpt lat="42.444435000" lon="-2.499558000">
        <ele>444.40</ele>
        <time>2015-01-17T11:24:03Z</time>
      </trkpt>
      <trkpt lat="42.444474000" lon="-2.499564000">
        <ele>444.20</ele>
        <time>2015-01-17T11:24:04Z</time>
      </trkpt>
      <trkpt lat="42.444514000" lon="-2.499581000">
        <ele>444.10</ele>
        <time>2015-01-17T11:24:05Z</time>
      </trkpt>
      <trkpt lat="42.444553000" lon="-2.499597000">
        <ele>444.10</ele>
        <time>2015-01-17T11:24:06Z</time>
      </trkpt>
      <trkpt lat="42.444589000" lon="-2.499612000">
        <ele>444.20</ele>
        <time>2015-01-17T11:24:07Z</time>
      </trkpt>
      <trkpt lat="42.444629000" lon="-2.499628000">
        <ele>444.10</ele>
        <time>2015-01-17T11:24:08Z</time>
      </trkpt>
      <trkpt lat="42.444675000" lon="-2.499631000">
        <ele>444.00</ele>
        <time>2015-01-17T11:24:09Z</time>
      </trkpt>
      <trkpt lat="42.444720000" lon="-2.499615000">
        <ele>444.10</ele>
        <time>2015-01-17T11:24:10Z</time>
      </trkpt>
      <trkpt lat="42.444765000" lon="-2.499589000">
        <ele>444.30</ele>
        <time>2015-01-17T11:24:11Z</time>
      </trkpt>
      <trkpt lat="42.444810000" lon="-2.499559000">
        <ele>444.40</ele>
        <time>2015-01-17T11:24:12Z</time>
      </trkpt>
      <trkpt lat="42.444851000" lon="-2.499524000">
        <ele>444.50</ele>
        <time>2015-01-17T11:24:13Z</time>
      </trkpt>
      <trkpt lat="42.444891000" lon="-2.499487000">
        <ele>444.50</ele>
        <time>2015-01-17T11:24:14Z</time>
      </trkpt>
      <trkpt lat="42.444936000" lon="-2.499456000">
        <ele>444.50</ele>
        <time>2015-01-17T11:24:15Z</time>
      </trkpt>
      <trkpt lat="42.444983000" lon="-2.499429000">
        <ele>444.60</ele>
        <time>2015-01-17T11:24:16Z</time>
      </trkpt>
      <trkpt lat="42.445030000" lon="-2.499405000">
        <ele>444.70</ele>
        <time>2015-01-17T11:24:17Z</time>
      </trkpt>
      <trkpt lat="42.445082000" lon="-2.499381000">
        <ele>444.70</ele>
        <time>2015-01-17T11:24:18Z</time>
      </trkpt>
      <trkpt lat="42.445132000" lon="-2.499356000">
        <ele>444.60</ele>
        <time>2015-01-17T11:24:19Z</time>
      </trkpt>
      <trkpt lat="42.445181000" lon="-2.499332000">
        <ele>444.70</ele>
        <time>2015-01-17T11:24:20Z</time>
      </trkpt>
      <trkpt lat="42.445226000" lon="-2.499305000">
        <ele>444.70</ele>
        <time>2015-01-17T11:24:21Z</time>
      </trkpt>
      <trkpt lat="42.445272000" lon="-2.499289000">
        <ele>444.80</ele>
        <time>2015-01-17T11:24:22Z</time>
      </trkpt>
      <trkpt lat="42.445318000" lon="-2.499277000">
        <ele>444.90</ele>
        <time>2015-01-17T11:24:23Z</time>
      </trkpt>
      <trkpt lat="42.445366000" lon="-2.499265000">
        <ele>444.90</ele>
        <time>2015-01-17T11:24:24Z</time>
      </trkpt>
      <trkpt lat="42.445419000" lon="-2.499251000">
        <ele>445.00</ele>
        <time>2015-01-17T11:24:25Z</time>
      </trkpt>
      <trkpt lat="42.445470000" lon="-2.499236000">
        <ele>445.10</ele>
        <time>2015-01-17T11:24:26Z</time>
      </trkpt>
      <trkpt lat="42.445524000" lon="-2.499219000">
        <ele>445.30</ele>
        <time>2015-01-17T11:24:27Z</time>
      </trkpt>
      <trkpt lat="42.445580000" lon="-2.499203000">
        <ele>445.30</ele>
        <time>2015-01-17T11:24:28Z</time>
      </trkpt>
      <trkpt lat="42.445636000" lon="-2.499189000">
        <ele>445.30</ele>
        <time>2015-01-17T11:24:29Z</time>
      </trkpt>
      <trkpt lat="42.445689000" lon="-2.499178000">
        <ele>445.30</ele>
        <time>2015-01-17T11:24:30Z</time>
      </trkpt>
      <trkpt lat="42.445739000" lon="-2.499168000">
        <ele>445.30</ele>
        <time>2015-01-17T11:24:31Z</time>
      </trkpt>
      <trkpt lat="42.445787000" lon="-2.499163000">
        <ele>445.30</ele>
        <time>2015-01-17T11:24:32Z</time>
      </trkpt>
      <trkpt lat="42.445832000" lon="-2.499156000">
        <ele>445.30</ele>
        <time>2015-01-17T11:24:33Z</time>
      </trkpt>
      <trkpt lat="42.445881000" lon="-2.499149000">
        <ele>445.30</ele>
        <time>2015-01-17T11:24:34Z</time>
      </trkpt>
      <trkpt lat="42.445931000" lon="-2.499145000">
        <ele>445.30</ele>
        <time>2015-01-17T11:24:35Z</time>
      </trkpt>
      <trkpt lat="42.445980000" lon="-2.499143000">
        <ele>445.30</ele>
        <time>2015-01-17T11:24:36Z</time>
      </trkpt>
      <trkpt lat="42.446026000" lon="-2.499136000">
        <ele>445.30</ele>
        <time>2015-01-17T11:24:37Z</time>
      </trkpt>
      <trkpt lat="42.446072000" lon="-2.499138000">
        <ele>445.20</ele>
        <time>2015-01-17T11:24:38Z</time>
      </trkpt>
      <trkpt lat="42.446118000" lon="-2.499146000">
        <ele>445.20</ele>
        <time>2015-01-17T11:24:39Z</time>
      </trkpt>
      <trkpt lat="42.446160000" lon="-2.499167000">
        <ele>445.10</ele>
        <time>2015-01-17T11:24:40Z</time>
      </trkpt>
      <trkpt lat="42.446199000" lon="-2.499200000">
        <ele>445.00</ele>
        <time>2015-01-17T11:24:41Z</time>
      </trkpt>
      <trkpt lat="42.446234000" lon="-2.499230000">
        <ele>444.80</ele>
        <time>2015-01-17T11:24:42Z</time>
      </trkpt>
      <trkpt lat="42.446268000" lon="-2.499275000">
        <ele>444.60</ele>
        <time>2015-01-17T11:24:43Z</time>
      </trkpt>
      <trkpt lat="42.446299000" lon="-2.499324000">
        <ele>444.50</ele>
        <time>2015-01-17T11:24:44Z</time>
      </trkpt>
      <trkpt lat="42.446331000" lon="-2.499371000">
        <ele>444.40</ele>
        <time>2015-01-17T11:24:45Z</time>
      </trkpt>
      <trkpt lat="42.446363000" lon="-2.499419000">
        <ele>444.40</ele>
        <time>2015-01-17T11:24:46Z</time>
      </trkpt>
      <trkpt lat="42.446396000" lon="-2.499465000">
        <ele>444.40</ele>
        <time>2015-01-17T11:24:47Z</time>
      </trkpt>
      <trkpt lat="42.446421000" lon="-2.499492000">
        <ele>444.40</ele>
        <time>2015-01-17T11:24:48Z</time>
      </trkpt>
      <trkpt lat="42.446455000" lon="-2.499529000">
        <ele>444.40</ele>
        <time>2015-01-17T11:24:49Z</time>
      </trkpt>
      <trkpt lat="42.446482000" lon="-2.499566000">
        <ele>444.40</ele>
        <time>2015-01-17T11:24:50Z</time>
      </trkpt>
      <trkpt lat="42.446513000" lon="-2.499605000">
        <ele>444.40</ele>
        <time>2015-01-17T11:24:51Z</time>
      </trkpt>
      <trkpt lat="42.446545000" lon="-2.499640000">
        <ele>444.40</ele>
        <time>2015-01-17T11:24:52Z</time>
      </trkpt>
      <trkpt lat="42.446575000" lon="-2.499671000">
        <ele>444.40</ele>
        <time>2015-01-17T11:24:53Z</time>
      </trkpt>
      <trkpt lat="42.446604000" lon="-2.499701000">
        <ele>444.40</ele>
        <time>2015-01-17T11:24:54Z</time>
      </trkpt>
      <trkpt lat="42.446663000" lon="-2.499751000">
        <ele>444.30</ele>
        <time>2015-01-17T11:24:56Z</time>
      </trkpt>
      <trkpt lat="42.446691000" lon="-2.499781000">
        <ele>444.20</ele>
        <time>2015-01-17T11:24:57Z</time>
      </trkpt>
      <trkpt lat="42.446718000" lon="-2.499807000">
        <ele>444.30</ele>
        <time>2015-01-17T11:24:58Z</time>
      </trkpt>
      <trkpt lat="42.446746000" lon="-2.499832000">
        <ele>444.40</ele>
        <time>2015-01-17T11:24:59Z</time>
      </trkpt>
      <trkpt lat="42.446775000" lon="-2.499859000">
        <ele>444.50</ele>
        <time>2015-01-17T11:25:00Z</time>
      </trkpt>
      <trkpt lat="42.446802000" lon="-2.499891000">
        <ele>444.50</ele>
        <time>2015-01-17T11:25:01Z</time>
      </trkpt>
      <trkpt lat="42.446822000" lon="-2.499927000">
        <ele>444.40</ele>
        <time>2015-01-17T11:25:02Z</time>
      </trkpt>
      <trkpt lat="42.446846000" lon="-2.499959000">
        <ele>444.30</ele>
        <time>2015-01-17T11:25:03Z</time>
      </trkpt>
      <trkpt lat="42.446869000" lon="-2.499990000">
        <ele>444.30</ele>
        <time>2015-01-17T11:25:04Z</time>
      </trkpt>
      <trkpt lat="42.446889000" lon="-2.500020000">
        <ele>444.20</ele>
        <time>2015-01-17T11:25:05Z</time>
      </trkpt>
      <trkpt lat="42.446908000" lon="-2.500056000">
        <ele>444.20</ele>
        <time>2015-01-17T11:25:06Z</time>
      </trkpt>
      <trkpt lat="42.446927000" lon="-2.500089000">
        <ele>444.20</ele>
        <time>2015-01-17T11:25:07Z</time>
      </trkpt>
      <trkpt lat="42.446943000" lon="-2.500119000">
        <ele>444.10</ele>
        <time>2015-01-17T11:25:08Z</time>
      </trkpt>
      <trkpt lat="42.446963000" lon="-2.500146000">
        <ele>444.10</ele>
        <time>2015-01-17T11:25:09Z</time>
      </trkpt>
      <trkpt lat="42.446984000" lon="-2.500170000">
        <ele>444.20</ele>
        <time>2015-01-17T11:25:10Z</time>
      </trkpt>
      <trkpt lat="42.447008000" lon="-2.500196000">
        <ele>444.30</ele>
        <time>2015-01-17T11:25:11Z</time>
      </trkpt>
      <trkpt lat="42.447032000" lon="-2.500227000">
        <ele>444.50</ele>
        <time>2015-01-17T11:25:12Z</time>
      </trkpt>
      <trkpt lat="42.447062000" lon="-2.500262000">
        <ele>444.70</ele>
        <time>2015-01-17T11:25:13Z</time>
      </trkpt>
      <trkpt lat="42.447098000" lon="-2.500298000">
        <ele>444.80</ele>
        <time>2015-01-17T11:25:14Z</time>
      </trkpt>
      <trkpt lat="42.447140000" lon="-2.500333000">
        <ele>444.90</ele>
        <time>2015-01-17T11:25:15Z</time>
      </trkpt>
      <trkpt lat="42.447185000" lon="-2.500361000">
        <ele>444.80</ele>
        <time>2015-01-17T11:25:16Z</time>
      </trkpt>
      <trkpt lat="42.447235000" lon="-2.500371000">
        <ele>444.70</ele>
        <time>2015-01-17T11:25:17Z</time>
      </trkpt>
      <trkpt lat="42.447288000" lon="-2.500361000">
        <ele>444.70</ele>
        <time>2015-01-17T11:25:18Z</time>
      </trkpt>
      <trkpt lat="42.447337000" lon="-2.500340000">
        <ele>444.70</ele>
        <time>2015-01-17T11:25:19Z</time>
      </trkpt>
      <trkpt lat="42.447385000" lon="-2.500302000">
        <ele>444.30</ele>
        <time>2015-01-17T11:25:20Z</time>
      </trkpt>
      <trkpt lat="42.447426000" lon="-2.500254000">
        <ele>444.00</ele>
        <time>2015-01-17T11:25:21Z</time>
      </trkpt>
      <trkpt lat="42.447465000" lon="-2.500196000">
        <ele>443.70</ele>
        <time>2015-01-17T11:25:22Z</time>
      </trkpt>
      <trkpt lat="42.447502000" lon="-2.500132000">
        <ele>443.40</ele>
        <time>2015-01-17T11:25:23Z</time>
      </trkpt>
      <trkpt lat="42.447539000" lon="-2.500061000">
        <ele>443.30</ele>
        <time>2015-01-17T11:25:24Z</time>
      </trkpt>
      <trkpt lat="42.447576000" lon="-2.499990000">
        <ele>443.20</ele>
        <time>2015-01-17T11:25:25Z</time>
      </trkpt>
      <trkpt lat="42.447607000" lon="-2.499934000">
        <ele>442.90</ele>
        <time>2015-01-17T11:25:26Z</time>
      </trkpt>
      <trkpt lat="42.447637000" lon="-2.499900000">
        <ele>442.80</ele>
        <time>2015-01-17T11:25:27Z</time>
      </trkpt>
      <trkpt lat="42.447680000" lon="-2.499879000">
        <ele>442.60</ele>
        <time>2015-01-17T11:25:28Z</time>
      </trkpt>
      <trkpt lat="42.447722000" lon="-2.499878000">
        <ele>442.40</ele>
        <time>2015-01-17T11:25:29Z</time>
      </trkpt>
      <trkpt lat="42.447766000" lon="-2.499892000">
        <ele>442.00</ele>
        <time>2015-01-17T11:25:30Z</time>
      </trkpt>
      <trkpt lat="42.447807000" lon="-2.499914000">
        <ele>441.70</ele>
        <time>2015-01-17T11:25:31Z</time>
      </trkpt>
      <trkpt lat="42.447850000" lon="-2.499927000">
        <ele>441.30</ele>
        <time>2015-01-17T11:25:32Z</time>
      </trkpt>
      <trkpt lat="42.447893000" lon="-2.499924000">
        <ele>441.00</ele>
        <time>2015-01-17T11:25:33Z</time>
      </trkpt>
      <trkpt lat="42.447936000" lon="-2.499905000">
        <ele>440.30</ele>
        <time>2015-01-17T11:25:34Z</time>
      </trkpt>
      <trkpt lat="42.447984000" lon="-2.499872000">
        <ele>439.80</ele>
        <time>2015-01-17T11:25:35Z</time>
      </trkpt>
      <trkpt lat="42.448032000" lon="-2.499833000">
        <ele>439.30</ele>
        <time>2015-01-17T11:25:36Z</time>
      </trkpt>
      <trkpt lat="42.448076000" lon="-2.499797000">
        <ele>438.90</ele>
        <time>2015-01-17T11:25:37Z</time>
      </trkpt>
      <trkpt lat="42.448114000" lon="-2.499758000">
        <ele>438.50</ele>
        <time>2015-01-17T11:25:38Z</time>
      </trkpt>
      <trkpt lat="42.448142000" lon="-2.499711000">
        <ele>438.10</ele>
        <time>2015-01-17T11:25:39Z</time>
      </trkpt>
      <trkpt lat="42.448162000" lon="-2.499659000">
        <ele>437.60</ele>
        <time>2015-01-17T11:25:40Z</time>
      </trkpt>
      <trkpt lat="42.448179000" lon="-2.499609000">
        <ele>437.30</ele>
        <time>2015-01-17T11:25:41Z</time>
      </trkpt>
      <trkpt lat="42.448193000" lon="-2.499557000">
        <ele>437.00</ele>
        <time>2015-01-17T11:25:42Z</time>
      </trkpt>
      <trkpt lat="42.448207000" lon="-2.499510000">
        <ele>436.80</ele>
        <time>2015-01-17T11:25:43Z</time>
      </trkpt>
      <trkpt lat="42.448227000" lon="-2.499466000">
        <ele>436.60</ele>
        <time>2015-01-17T11:25:44Z</time>
      </trkpt>
      <trkpt lat="42.448247000" lon="-2.499419000">
        <ele>436.50</ele>
        <time>2015-01-17T11:25:45Z</time>
      </trkpt>
      <trkpt lat="42.448264000" lon="-2.499372000">
        <ele>436.40</ele>
        <time>2015-01-17T11:25:46Z</time>
      </trkpt>
      <trkpt lat="42.448280000" lon="-2.499317000">
        <ele>436.30</ele>
        <time>2015-01-17T11:25:47Z</time>
      </trkpt>
      <trkpt lat="42.448296000" lon="-2.499270000">
        <ele>436.60</ele>
        <time>2015-01-17T11:25:48Z</time>
      </trkpt>
      <trkpt lat="42.448317000" lon="-2.499223000">
        <ele>436.70</ele>
        <time>2015-01-17T11:25:49Z</time>
      </trkpt>
      <trkpt lat="42.448346000" lon="-2.499179000">
        <ele>437.10</ele>
        <time>2015-01-17T11:25:50Z</time>
      </trkpt>
      <trkpt lat="42.448384000" lon="-2.499142000">
        <ele>437.30</ele>
        <time>2015-01-17T11:25:51Z</time>
      </trkpt>
      <trkpt lat="42.448423000" lon="-2.499110000">
        <ele>437.50</ele>
        <time>2015-01-17T11:25:52Z</time>
      </trkpt>
      <trkpt lat="42.448463000" lon="-2.499081000">
        <ele>437.60</ele>
        <time>2015-01-17T11:25:53Z</time>
      </trkpt>
      <trkpt lat="42.448503000" lon="-2.499051000">
        <ele>437.70</ele>
        <time>2015-01-17T11:25:54Z</time>
      </trkpt>
      <trkpt lat="42.448537000" lon="-2.499028000">
        <ele>437.80</ele>
        <time>2015-01-17T11:25:55Z</time>
      </trkpt>
      <trkpt lat="42.448571000" lon="-2.499002000">
        <ele>437.90</ele>
        <time>2015-01-17T11:25:56Z</time>
      </trkpt>
      <trkpt lat="42.448624000" lon="-2.498919000">
        <ele>438.00</ele>
        <time>2015-01-17T11:25:58Z</time>
      </trkpt>
      <trkpt lat="42.448642000" lon="-2.498874000">
        <ele>438.10</ele>
        <time>2015-01-17T11:25:59Z</time>
      </trkpt>
      <trkpt lat="42.448663000" lon="-2.498831000">
        <ele>438.10</ele>
        <time>2015-01-17T11:26:00Z</time>
      </trkpt>
      <trkpt lat="42.448686000" lon="-2.498789000">
        <ele>438.20</ele>
        <time>2015-01-17T11:26:01Z</time>
      </trkpt>
      <trkpt lat="42.448709000" lon="-2.498748000">
        <ele>438.10</ele>
        <time>2015-01-17T11:26:02Z</time>
      </trkpt>
      <trkpt lat="42.448727000" lon="-2.498704000">
        <ele>438.10</ele>
        <time>2015-01-17T11:26:03Z</time>
      </trkpt>
      <trkpt lat="42.448743000" lon="-2.498659000">
        <ele>438.10</ele>
        <time>2015-01-17T11:26:04Z</time>
      </trkpt>
      <trkpt lat="42.448757000" lon="-2.498611000">
        <ele>438.10</ele>
        <time>2015-01-17T11:26:05Z</time>
      </trkpt>
      <trkpt lat="42.448770000" lon="-2.498561000">
        <ele>438.10</ele>
        <time>2015-01-17T11:26:06Z</time>
      </trkpt>
      <trkpt lat="42.448776000" lon="-2.498503000">
        <ele>438.10</ele>
        <time>2015-01-17T11:26:07Z</time>
      </trkpt>
      <trkpt lat="42.448777000" lon="-2.498444000">
        <ele>438.40</ele>
        <time>2015-01-17T11:26:08Z</time>
      </trkpt>
      <trkpt lat="42.448778000" lon="-2.498384000">
        <ele>438.50</ele>
        <time>2015-01-17T11:26:09Z</time>
      </trkpt>
      <trkpt lat="42.448788000" lon="-2.498328000">
        <ele>438.80</ele>
        <time>2015-01-17T11:26:10Z</time>
      </trkpt>
      <trkpt lat="42.448812000" lon="-2.498286000">
        <ele>438.90</ele>
        <time>2015-01-17T11:26:11Z</time>
      </trkpt>
      <trkpt lat="42.448848000" lon="-2.498263000">
        <ele>439.10</ele>
        <time>2015-01-17T11:26:12Z</time>
      </trkpt>
      <trkpt lat="42.448895000" lon="-2.498257000">
        <ele>439.20</ele>
        <time>2015-01-17T11:26:13Z</time>
      </trkpt>
      <trkpt lat="42.448947000" lon="-2.498255000">
        <ele>439.30</ele>
        <time>2015-01-17T11:26:14Z</time>
      </trkpt>
      <trkpt lat="42.449003000" lon="-2.498252000">
        <ele>439.30</ele>
        <time>2015-01-17T11:26:15Z</time>
      </trkpt>
      <trkpt lat="42.449058000" lon="-2.498250000">
        <ele>439.40</ele>
        <time>2015-01-17T11:26:16Z</time>
      </trkpt>
      <trkpt lat="42.449103000" lon="-2.498251000">
        <ele>439.50</ele>
        <time>2015-01-17T11:26:17Z</time>
      </trkpt>
      <trkpt lat="42.449141000" lon="-2.498257000">
        <ele>439.80</ele>
        <time>2015-01-17T11:26:18Z</time>
      </trkpt>
      <trkpt lat="42.449177000" lon="-2.498255000">
        <ele>439.90</ele>
        <time>2015-01-17T11:26:19Z</time>
      </trkpt>
      <trkpt lat="42.449210000" lon="-2.498250000">
        <ele>440.10</ele>
        <time>2015-01-17T11:26:20Z</time>
      </trkpt>
      <trkpt lat="42.449240000" lon="-2.498234000">
        <ele>440.20</ele>
        <time>2015-01-17T11:26:21Z</time>
      </trkpt>
      <trkpt lat="42.449264000" lon="-2.498211000">
        <ele>440.60</ele>
        <time>2015-01-17T11:26:22Z</time>
      </trkpt>
      <trkpt lat="42.449291000" lon="-2.498186000">
        <ele>441.00</ele>
        <time>2015-01-17T11:26:23Z</time>
      </trkpt>
      <trkpt lat="42.449318000" lon="-2.498164000">
        <ele>441.20</ele>
        <time>2015-01-17T11:26:24Z</time>
      </trkpt>
      <trkpt lat="42.449349000" lon="-2.498142000">
        <ele>441.40</ele>
        <time>2015-01-17T11:26:25Z</time>
      </trkpt>
      <trkpt lat="42.449381000" lon="-2.498119000">
        <ele>441.70</ele>
        <time>2015-01-17T11:26:26Z</time>
      </trkpt>
      <trkpt lat="42.449413000" lon="-2.498095000">
        <ele>441.90</ele>
        <time>2015-01-17T11:26:27Z</time>
      </trkpt>
      <trkpt lat="42.449445000" lon="-2.498073000">
        <ele>441.90</ele>
        <time>2015-01-17T11:26:28Z</time>
      </trkpt>
      <trkpt lat="42.449475000" lon="-2.498050000">
        <ele>442.00</ele>
        <time>2015-01-17T11:26:29Z</time>
      </trkpt>
      <trkpt lat="42.449506000" lon="-2.498029000">
        <ele>442.10</ele>
        <time>2015-01-17T11:26:30Z</time>
      </trkpt>
      <trkpt lat="42.449528000" lon="-2.498006000">
        <ele>442.20</ele>
        <time>2015-01-17T11:26:31Z</time>
      </trkpt>
      <trkpt lat="42.449552000" lon="-2.497982000">
        <ele>442.10</ele>
        <time>2015-01-17T11:26:32Z</time>
      </trkpt>
      <trkpt lat="42.449579000" lon="-2.497960000">
        <ele>442.00</ele>
        <time>2015-01-17T11:26:33Z</time>
      </trkpt>
      <trkpt lat="42.449602000" lon="-2.497938000">
        <ele>441.90</ele>
        <time>2015-01-17T11:26:34Z</time>
      </trkpt>
      <trkpt lat="42.449627000" lon="-2.497916000">
        <ele>441.80</ele>
        <time>2015-01-17T11:26:35Z</time>
      </trkpt>
      <trkpt lat="42.449656000" lon="-2.497895000">
        <ele>441.70</ele>
        <time>2015-01-17T11:26:36Z</time>
      </trkpt>
      <trkpt lat="42.449686000" lon="-2.497870000">
        <ele>441.70</ele>
        <time>2015-01-17T11:26:37Z</time>
      </trkpt>
      <trkpt lat="42.449719000" lon="-2.497844000">
        <ele>441.80</ele>
        <time>2015-01-17T11:26:38Z</time>
      </trkpt>
      <trkpt lat="42.449752000" lon="-2.497811000">
        <ele>441.90</ele>
        <time>2015-01-17T11:26:39Z</time>
      </trkpt>
      <trkpt lat="42.449784000" lon="-2.497775000">
        <ele>442.00</ele>
        <time>2015-01-17T11:26:40Z</time>
      </trkpt>
      <trkpt lat="42.449814000" lon="-2.497731000">
        <ele>442.00</ele>
        <time>2015-01-17T11:26:41Z</time>
      </trkpt>
      <trkpt lat="42.449841000" lon="-2.497675000">
        <ele>441.90</ele>
        <time>2015-01-17T11:26:42Z</time>
      </trkpt>
      <trkpt lat="42.449864000" lon="-2.497609000">
        <ele>441.90</ele>
        <time>2015-01-17T11:26:43Z</time>
      </trkpt>
      <trkpt lat="42.449880000" lon="-2.497540000">
        <ele>441.70</ele>
        <time>2015-01-17T11:26:44Z</time>
      </trkpt>
      <trkpt lat="42.449895000" lon="-2.497466000">
        <ele>441.70</ele>
        <time>2015-01-17T11:26:45Z</time>
      </trkpt>
      <trkpt lat="42.449906000" lon="-2.497388000">
        <ele>441.30</ele>
        <time>2015-01-17T11:26:46Z</time>
      </trkpt>
      <trkpt lat="42.449916000" lon="-2.497310000">
        <ele>441.00</ele>
        <time>2015-01-17T11:26:47Z</time>
      </trkpt>
      <trkpt lat="42.449922000" lon="-2.497227000">
        <ele>440.70</ele>
        <time>2015-01-17T11:26:48Z</time>
      </trkpt>
      <trkpt lat="42.449926000" lon="-2.497140000">
        <ele>440.50</ele>
        <time>2015-01-17T11:26:49Z</time>
      </trkpt>
      <trkpt lat="42.449929000" lon="-2.497051000">
        <ele>440.10</ele>
        <time>2015-01-17T11:26:50Z</time>
      </trkpt>
      <trkpt lat="42.449930000" lon="-2.496959000">
        <ele>439.90</ele>
        <time>2015-01-17T11:26:51Z</time>
      </trkpt>
      <trkpt lat="42.449929000" lon="-2.496868000">
        <ele>439.50</ele>
        <time>2015-01-17T11:26:52Z</time>
      </trkpt>
      <trkpt lat="42.449932000" lon="-2.496779000">
        <ele>439.30</ele>
        <time>2015-01-17T11:26:53Z</time>
      </trkpt>
      <trkpt lat="42.449936000" lon="-2.496691000">
        <ele>439.10</ele>
        <time>2015-01-17T11:26:54Z</time>
      </trkpt>
      <trkpt lat="42.449946000" lon="-2.496604000">
        <ele>439.00</ele>
        <time>2015-01-17T11:26:55Z</time>
      </trkpt>
      <trkpt lat="42.449959000" lon="-2.496521000">
        <ele>438.70</ele>
        <time>2015-01-17T11:26:56Z</time>
      </trkpt>
      <trkpt lat="42.449969000" lon="-2.496440000">
        <ele>438.60</ele>
        <time>2015-01-17T11:26:57Z</time>
      </trkpt>
      <trkpt lat="42.449977000" lon="-2.496358000">
        <ele>438.20</ele>
        <time>2015-01-17T11:26:58Z</time>
      </trkpt>
      <trkpt lat="42.449986000" lon="-2.496196000">
        <ele>437.40</ele>
        <time>2015-01-17T11:27:00Z</time>
      </trkpt>
      <trkpt lat="42.449986000" lon="-2.496114000">
        <ele>437.10</ele>
        <time>2015-01-17T11:27:01Z</time>
      </trkpt>
      <trkpt lat="42.449985000" lon="-2.496032000">
        <ele>436.80</ele>
        <time>2015-01-17T11:27:02Z</time>
      </trkpt>
      <trkpt lat="42.449979000" lon="-2.495948000">
        <ele>436.50</ele>
        <time>2015-01-17T11:27:03Z</time>
      </trkpt>
      <trkpt lat="42.449976000" lon="-2.495862000">
        <ele>436.20</ele>
        <time>2015-01-17T11:27:04Z</time>
      </trkpt>
      <trkpt lat="42.449970000" lon="-2.495773000">
        <ele>436.00</ele>
        <time>2015-01-17T11:27:05Z</time>
      </trkpt>
      <trkpt lat="42.449965000" lon="-2.495685000">
        <ele>435.60</ele>
        <time>2015-01-17T11:27:06Z</time>
      </trkpt>
      <trkpt lat="42.449959000" lon="-2.495599000">
        <ele>435.40</ele>
        <time>2015-01-17T11:27:07Z</time>
      </trkpt>
      <trkpt lat="42.449953000" lon="-2.495514000">
        <ele>435.00</ele>
        <time>2015-01-17T11:27:08Z</time>
      </trkpt>
      <trkpt lat="42.449949000" lon="-2.495431000">
        <ele>434.70</ele>
        <time>2015-01-17T11:27:09Z</time>
      </trkpt>
      <trkpt lat="42.449952000" lon="-2.495349000">
        <ele>434.30</ele>
        <time>2015-01-17T11:27:10Z</time>
      </trkpt>
      <trkpt lat="42.449957000" lon="-2.495265000">
        <ele>434.10</ele>
        <time>2015-01-17T11:27:11Z</time>
      </trkpt>
      <trkpt lat="42.449967000" lon="-2.495182000">
        <ele>433.70</ele>
        <time>2015-01-17T11:27:12Z</time>
      </trkpt>
      <trkpt lat="42.449982000" lon="-2.495103000">
        <ele>433.30</ele>
        <time>2015-01-17T11:27:13Z</time>
      </trkpt>
      <trkpt lat="42.450005000" lon="-2.495035000">
        <ele>433.10</ele>
        <time>2015-01-17T11:27:14Z</time>
      </trkpt>
      <trkpt lat="42.450035000" lon="-2.494982000">
        <ele>432.90</ele>
        <time>2015-01-17T11:27:15Z</time>
      </trkpt>
      <trkpt lat="42.450063000" lon="-2.494954000">
        <ele>432.60</ele>
        <time>2015-01-17T11:27:16Z</time>
      </trkpt>
      <trkpt lat="42.450086000" lon="-2.494945000">
        <ele>432.30</ele>
        <time>2015-01-17T11:27:17Z</time>
      </trkpt>
      <trkpt lat="42.450107000" lon="-2.494940000">
        <ele>432.10</ele>
        <time>2015-01-17T11:27:18Z</time>
      </trkpt>
      <trkpt lat="42.450130000" lon="-2.494943000">
        <ele>432.00</ele>
        <time>2015-01-17T11:27:19Z</time>
      </trkpt>
      <trkpt lat="42.450151000" lon="-2.494947000">
        <ele>431.90</ele>
        <time>2015-01-17T11:27:20Z</time>
      </trkpt>
      <trkpt lat="42.450168000" lon="-2.494958000">
        <ele>431.80</ele>
        <time>2015-01-17T11:27:21Z</time>
      </trkpt>
      <trkpt lat="42.450187000" lon="-2.494972000">
        <ele>431.80</ele>
        <time>2015-01-17T11:27:22Z</time>
      </trkpt>
      <trkpt lat="42.450203000" lon="-2.494989000">
        <ele>431.70</ele>
        <time>2015-01-17T11:27:23Z</time>
      </trkpt>
      <trkpt lat="42.450222000" lon="-2.495008000">
        <ele>431.70</ele>
        <time>2015-01-17T11:27:24Z</time>
      </trkpt>
      <trkpt lat="42.450246000" lon="-2.495027000">
        <ele>431.70</ele>
        <time>2015-01-17T11:27:25Z</time>
      </trkpt>
      <trkpt lat="42.450273000" lon="-2.495050000">
        <ele>431.40</ele>
        <time>2015-01-17T11:27:26Z</time>
      </trkpt>
      <trkpt lat="42.450304000" lon="-2.495059000">
        <ele>431.30</ele>
        <time>2015-01-17T11:27:27Z</time>
      </trkpt>
      <trkpt lat="42.450336000" lon="-2.495051000">
        <ele>431.20</ele>
        <time>2015-01-17T11:27:28Z</time>
      </trkpt>
      <trkpt lat="42.450367000" lon="-2.495020000">
        <ele>431.10</ele>
        <time>2015-01-17T11:27:29Z</time>
      </trkpt>
      <trkpt lat="42.450394000" lon="-2.494977000">
        <ele>430.80</ele>
        <time>2015-01-17T11:27:30Z</time>
      </trkpt>
      <trkpt lat="42.450418000" lon="-2.494925000">
        <ele>430.60</ele>
        <time>2015-01-17T11:27:31Z</time>
      </trkpt>
      <trkpt lat="42.450438000" lon="-2.494871000">
        <ele>430.30</ele>
        <time>2015-01-17T11:27:32Z</time>
      </trkpt>
      <trkpt lat="42.450456000" lon="-2.494810000">
        <ele>430.00</ele>
        <time>2015-01-17T11:27:33Z</time>
      </trkpt>
      <trkpt lat="42.450478000" lon="-2.494748000">
        <ele>429.60</ele>
        <time>2015-01-17T11:27:34Z</time>
      </trkpt>
      <trkpt lat="42.450498000" lon="-2.494686000">
        <ele>429.20</ele>
        <time>2015-01-17T11:27:35Z</time>
      </trkpt>
      <trkpt lat="42.450519000" lon="-2.494623000">
        <ele>429.00</ele>
        <time>2015-01-17T11:27:36Z</time>
      </trkpt>
      <trkpt lat="42.450540000" lon="-2.494558000">
        <ele>428.80</ele>
        <time>2015-01-17T11:27:37Z</time>
      </trkpt>
      <trkpt lat="42.450558000" lon="-2.494497000">
        <ele>428.60</ele>
        <time>2015-01-17T11:27:38Z</time>
      </trkpt>
      <trkpt lat="42.450575000" lon="-2.494437000">
        <ele>428.40</ele>
        <time>2015-01-17T11:27:39Z</time>
      </trkpt>
      <trkpt lat="42.450593000" lon="-2.494380000">
        <ele>428.10</ele>
        <time>2015-01-17T11:27:40Z</time>
      </trkpt>
      <trkpt lat="42.450611000" lon="-2.494325000">
        <ele>427.90</ele>
        <time>2015-01-17T11:27:41Z</time>
      </trkpt>
      <trkpt lat="42.450630000" lon="-2.494268000">
        <ele>427.70</ele>
        <time>2015-01-17T11:27:42Z</time>
      </trkpt>
      <trkpt lat="42.450648000" lon="-2.494211000">
        <ele>427.60</ele>
        <time>2015-01-17T11:27:43Z</time>
      </trkpt>
      <trkpt lat="42.450663000" lon="-2.494153000">
        <ele>427.50</ele>
        <time>2015-01-17T11:27:44Z</time>
      </trkpt>
      <trkpt lat="42.450675000" lon="-2.494095000">
        <ele>427.40</ele>
        <time>2015-01-17T11:27:45Z</time>
      </trkpt>
      <trkpt lat="42.450691000" lon="-2.494037000">
        <ele>427.40</ele>
        <time>2015-01-17T11:27:46Z</time>
      </trkpt>
      <trkpt lat="42.450714000" lon="-2.493981000">
        <ele>427.40</ele>
        <time>2015-01-17T11:27:47Z</time>
      </trkpt>
      <trkpt lat="42.450738000" lon="-2.493921000">
        <ele>427.40</ele>
        <time>2015-01-17T11:27:48Z</time>
      </trkpt>
      <trkpt lat="42.450758000" lon="-2.493859000">
        <ele>427.30</ele>
        <time>2015-01-17T11:27:49Z</time>
      </trkpt>
      <trkpt lat="42.450776000" lon="-2.493792000">
        <ele>427.00</ele>
        <time>2015-01-17T11:27:50Z</time>
      </trkpt>
      <trkpt lat="42.450795000" lon="-2.493727000">
        <ele>426.80</ele>
        <time>2015-01-17T11:27:51Z</time>
      </trkpt>
      <trkpt lat="42.450815000" lon="-2.493666000">
        <ele>426.70</ele>
        <time>2015-01-17T11:27:52Z</time>
      </trkpt>
      <trkpt lat="42.450834000" lon="-2.493607000">
        <ele>426.50</ele>
        <time>2015-01-17T11:27:53Z</time>
      </trkpt>
      <trkpt lat="42.450854000" lon="-2.493547000">
        <ele>426.40</ele>
        <time>2015-01-17T11:27:54Z</time>
      </trkpt>
      <trkpt lat="42.450872000" lon="-2.493488000">
        <ele>426.40</ele>
        <time>2015-01-17T11:27:55Z</time>
      </trkpt>
      <trkpt lat="42.450888000" lon="-2.493429000">
        <ele>426.40</ele>
        <time>2015-01-17T11:27:56Z</time>
      </trkpt>
      <trkpt lat="42.450903000" lon="-2.493364000">
        <ele>426.40</ele>
        <time>2015-01-17T11:27:57Z</time>
      </trkpt>
      <trkpt lat="42.450919000" lon="-2.493301000">
        <ele>426.20</ele>
        <time>2015-01-17T11:27:58Z</time>
      </trkpt>
      <trkpt lat="42.450929000" lon="-2.493236000">
        <ele>426.10</ele>
        <time>2015-01-17T11:27:59Z</time>
      </trkpt>
      <trkpt lat="42.450942000" lon="-2.493173000">
        <ele>425.90</ele>
        <time>2015-01-17T11:28:00Z</time>
      </trkpt>
      <trkpt lat="42.450970000" lon="-2.493045000">
        <ele>425.70</ele>
        <time>2015-01-17T11:28:02Z</time>
      </trkpt>
      <trkpt lat="42.450985000" lon="-2.492976000">
        <ele>425.60</ele>
        <time>2015-01-17T11:28:03Z</time>
      </trkpt>
      <trkpt lat="42.451000000" lon="-2.492907000">
        <ele>425.60</ele>
        <time>2015-01-17T11:28:04Z</time>
      </trkpt>
      <trkpt lat="42.451015000" lon="-2.492836000">
        <ele>425.60</ele>
        <time>2015-01-17T11:28:05Z</time>
      </trkpt>
      <trkpt lat="42.451034000" lon="-2.492768000">
        <ele>425.60</ele>
        <time>2015-01-17T11:28:06Z</time>
      </trkpt>
      <trkpt lat="42.451051000" lon="-2.492700000">
        <ele>425.60</ele>
        <time>2015-01-17T11:28:07Z</time>
      </trkpt>
      <trkpt lat="42.451069000" lon="-2.492632000">
        <ele>425.80</ele>
        <time>2015-01-17T11:28:08Z</time>
      </trkpt>
      <trkpt lat="42.451087000" lon="-2.492563000">
        <ele>425.90</ele>
        <time>2015-01-17T11:28:09Z</time>
      </trkpt>
      <trkpt lat="42.451106000" lon="-2.492492000">
        <ele>425.70</ele>
        <time>2015-01-17T11:28:10Z</time>
      </trkpt>
      <trkpt lat="42.451125000" lon="-2.492422000">
        <ele>425.50</ele>
        <time>2015-01-17T11:28:11Z</time>
      </trkpt>
      <trkpt lat="42.451145000" lon="-2.492353000">
        <ele>425.40</ele>
        <time>2015-01-17T11:28:12Z</time>
      </trkpt>
      <trkpt lat="42.451164000" lon="-2.492283000">
        <ele>425.40</ele>
        <time>2015-01-17T11:28:13Z</time>
      </trkpt>
      <trkpt lat="42.451183000" lon="-2.492213000">
        <ele>425.30</ele>
        <time>2015-01-17T11:28:14Z</time>
      </trkpt>
      <trkpt lat="42.451201000" lon="-2.492142000">
        <ele>425.30</ele>
        <time>2015-01-17T11:28:15Z</time>
      </trkpt>
      <trkpt lat="42.451221000" lon="-2.492070000">
        <ele>425.20</ele>
        <time>2015-01-17T11:28:16Z</time>
      </trkpt>
      <trkpt lat="42.451241000" lon="-2.491998000">
        <ele>425.20</ele>
        <time>2015-01-17T11:28:17Z</time>
      </trkpt>
      <trkpt lat="42.451263000" lon="-2.491924000">
        <ele>425.20</ele>
        <time>2015-01-17T11:28:18Z</time>
      </trkpt>
      <trkpt lat="42.451286000" lon="-2.491849000">
        <ele>425.20</ele>
        <time>2015-01-17T11:28:19Z</time>
      </trkpt>
      <trkpt lat="42.451307000" lon="-2.491773000">
        <ele>424.90</ele>
        <time>2015-01-17T11:28:20Z</time>
      </trkpt>
      <trkpt lat="42.451327000" lon="-2.491697000">
        <ele>424.70</ele>
        <time>2015-01-17T11:28:21Z</time>
      </trkpt>
      <trkpt lat="42.451347000" lon="-2.491619000">
        <ele>424.50</ele>
        <time>2015-01-17T11:28:22Z</time>
      </trkpt>
      <trkpt lat="42.451369000" lon="-2.491540000">
        <ele>424.30</ele>
        <time>2015-01-17T11:28:23Z</time>
      </trkpt>
      <trkpt lat="42.451391000" lon="-2.491463000">
        <ele>424.20</ele>
        <time>2015-01-17T11:28:24Z</time>
      </trkpt>
      <trkpt lat="42.451413000" lon="-2.491386000">
        <ele>424.10</ele>
        <time>2015-01-17T11:28:25Z</time>
      </trkpt>
      <trkpt lat="42.451433000" lon="-2.491310000">
        <ele>424.00</ele>
        <time>2015-01-17T11:28:26Z</time>
      </trkpt>
      <trkpt lat="42.451455000" lon="-2.491237000">
        <ele>424.00</ele>
        <time>2015-01-17T11:28:27Z</time>
      </trkpt>
      <trkpt lat="42.451475000" lon="-2.491161000">
        <ele>423.80</ele>
        <time>2015-01-17T11:28:28Z</time>
      </trkpt>
      <trkpt lat="42.451496000" lon="-2.491084000">
        <ele>423.60</ele>
        <time>2015-01-17T11:28:29Z</time>
      </trkpt>
      <trkpt lat="42.451515000" lon="-2.491007000">
        <ele>423.50</ele>
        <time>2015-01-17T11:28:30Z</time>
      </trkpt>
      <trkpt lat="42.451534000" lon="-2.490927000">
        <ele>423.40</ele>
        <time>2015-01-17T11:28:31Z</time>
      </trkpt>
      <trkpt lat="42.451551000" lon="-2.490848000">
        <ele>423.30</ele>
        <time>2015-01-17T11:28:32Z</time>
      </trkpt>
      <trkpt lat="42.451568000" lon="-2.490770000">
        <ele>423.20</ele>
        <time>2015-01-17T11:28:33Z</time>
      </trkpt>
      <trkpt lat="42.451585000" lon="-2.490691000">
        <ele>423.20</ele>
        <time>2015-01-17T11:28:34Z</time>
      </trkpt>
      <trkpt lat="42.451604000" lon="-2.490613000">
        <ele>423.20</ele>
        <time>2015-01-17T11:28:35Z</time>
      </trkpt>
      <trkpt lat="42.451622000" lon="-2.490535000">
        <ele>423.10</ele>
        <time>2015-01-17T11:28:36Z</time>
      </trkpt>
      <trkpt lat="42.451642000" lon="-2.490455000">
        <ele>423.10</ele>
        <time>2015-01-17T11:28:37Z</time>
      </trkpt>
      <trkpt lat="42.451662000" lon="-2.490375000">
        <ele>423.20</ele>
        <time>2015-01-17T11:28:38Z</time>
      </trkpt>
      <trkpt lat="42.451683000" lon="-2.490296000">
        <ele>423.30</ele>
        <time>2015-01-17T11:28:39Z</time>
      </trkpt>
      <trkpt lat="42.451708000" lon="-2.490219000">
        <ele>423.40</ele>
        <time>2015-01-17T11:28:40Z</time>
      </trkpt>
      <trkpt lat="42.451732000" lon="-2.490141000">
        <ele>423.40</ele>
        <time>2015-01-17T11:28:41Z</time>
      </trkpt>
      <trkpt lat="42.451759000" lon="-2.490065000">
        <ele>423.20</ele>
        <time>2015-01-17T11:28:42Z</time>
      </trkpt>
      <trkpt lat="42.451786000" lon="-2.489990000">
        <ele>423.00</ele>
        <time>2015-01-17T11:28:43Z</time>
      </trkpt>
      <trkpt lat="42.451814000" lon="-2.489916000">
        <ele>422.90</ele>
        <time>2015-01-17T11:28:44Z</time>
      </trkpt>
      <trkpt lat="42.451839000" lon="-2.489840000">
        <ele>422.80</ele>
        <time>2015-01-17T11:28:45Z</time>
      </trkpt>
      <trkpt lat="42.451869000" lon="-2.489763000">
        <ele>422.60</ele>
        <time>2015-01-17T11:28:46Z</time>
      </trkpt>
      <trkpt lat="42.451899000" lon="-2.489686000">
        <ele>422.50</ele>
        <time>2015-01-17T11:28:47Z</time>
      </trkpt>
      <trkpt lat="42.451928000" lon="-2.489607000">
        <ele>422.20</ele>
        <time>2015-01-17T11:28:48Z</time>
      </trkpt>
      <trkpt lat="42.451957000" lon="-2.489529000">
        <ele>422.10</ele>
        <time>2015-01-17T11:28:49Z</time>
      </trkpt>
      <trkpt lat="42.451987000" lon="-2.489453000">
        <ele>421.90</ele>
        <time>2015-01-17T11:28:50Z</time>
      </trkpt>
      <trkpt lat="42.452016000" lon="-2.489377000">
        <ele>421.80</ele>
        <time>2015-01-17T11:28:51Z</time>
      </trkpt>
      <trkpt lat="42.452045000" lon="-2.489301000">
        <ele>421.70</ele>
        <time>2015-01-17T11:28:52Z</time>
      </trkpt>
      <trkpt lat="42.452075000" lon="-2.489224000">
        <ele>421.60</ele>
        <time>2015-01-17T11:28:53Z</time>
      </trkpt>
      <trkpt lat="42.452096000" lon="-2.489156000">
        <ele>421.50</ele>
        <time>2015-01-17T11:28:54Z</time>
      </trkpt>
      <trkpt lat="42.452127000" lon="-2.489097000">
        <ele>421.50</ele>
        <time>2015-01-17T11:28:55Z</time>
      </trkpt>
      <trkpt lat="42.452152000" lon="-2.489025000">
        <ele>421.40</ele>
        <time>2015-01-17T11:28:56Z</time>
      </trkpt>
      <trkpt lat="42.452181000" lon="-2.488951000">
        <ele>421.30</ele>
        <time>2015-01-17T11:28:57Z</time>
      </trkpt>
      <trkpt lat="42.452211000" lon="-2.488878000">
        <ele>421.30</ele>
        <time>2015-01-17T11:28:58Z</time>
      </trkpt>
      <trkpt lat="42.452240000" lon="-2.488803000">
        <ele>421.20</ele>
        <time>2015-01-17T11:28:59Z</time>
      </trkpt>
      <trkpt lat="42.452267000" lon="-2.488726000">
        <ele>421.20</ele>
        <time>2015-01-17T11:29:00Z</time>
      </trkpt>
      <trkpt lat="42.452296000" lon="-2.488649000">
        <ele>421.20</ele>
        <time>2015-01-17T11:29:01Z</time>
      </trkpt>
      <trkpt lat="42.452323000" lon="-2.488572000">
        <ele>421.20</ele>
        <time>2015-01-17T11:29:02Z</time>
      </trkpt>
      <trkpt lat="42.452380000" lon="-2.488419000">
        <ele>421.30</ele>
        <time>2015-01-17T11:29:04Z</time>
      </trkpt>
      <trkpt lat="42.452407000" lon="-2.488346000">
        <ele>421.30</ele>
        <time>2015-01-17T11:29:05Z</time>
      </trkpt>
      <trkpt lat="42.452435000" lon="-2.488273000">
        <ele>421.30</ele>
        <time>2015-01-17T11:29:06Z</time>
      </trkpt>
      <trkpt lat="42.452464000" lon="-2.488201000">
        <ele>421.40</ele>
        <time>2015-01-17T11:29:07Z</time>
      </trkpt>
      <trkpt lat="42.452497000" lon="-2.488131000">
        <ele>421.40</ele>
        <time>2015-01-17T11:29:08Z</time>
      </trkpt>
      <trkpt lat="42.452525000" lon="-2.488063000">
        <ele>421.40</ele>
        <time>2015-01-17T11:29:09Z</time>
      </trkpt>
      <trkpt lat="42.452552000" lon="-2.487993000">
        <ele>421.40</ele>
        <time>2015-01-17T11:29:10Z</time>
      </trkpt>
      <trkpt lat="42.452577000" lon="-2.487924000">
        <ele>421.40</ele>
        <time>2015-01-17T11:29:11Z</time>
      </trkpt>
      <trkpt lat="42.452604000" lon="-2.487853000">
        <ele>421.20</ele>
        <time>2015-01-17T11:29:12Z</time>
      </trkpt>
      <trkpt lat="42.452630000" lon="-2.487781000">
        <ele>421.00</ele>
        <time>2015-01-17T11:29:13Z</time>
      </trkpt>
      <trkpt lat="42.452659000" lon="-2.487711000">
        <ele>420.90</ele>
        <time>2015-01-17T11:29:14Z</time>
      </trkpt>
      <trkpt lat="42.452686000" lon="-2.487641000">
        <ele>420.80</ele>
        <time>2015-01-17T11:29:15Z</time>
      </trkpt>
      <trkpt lat="42.452716000" lon="-2.487572000">
        <ele>420.80</ele>
        <time>2015-01-17T11:29:16Z</time>
      </trkpt>
      <trkpt lat="42.452746000" lon="-2.487503000">
        <ele>420.70</ele>
        <time>2015-01-17T11:29:17Z</time>
      </trkpt>
      <trkpt lat="42.452776000" lon="-2.487433000">
        <ele>420.70</ele>
        <time>2015-01-17T11:29:18Z</time>
      </trkpt>
      <trkpt lat="42.452806000" lon="-2.487363000">
        <ele>420.70</ele>
        <time>2015-01-17T11:29:19Z</time>
      </trkpt>
      <trkpt lat="42.452837000" lon="-2.487292000">
        <ele>420.80</ele>
        <time>2015-01-17T11:29:20Z</time>
      </trkpt>
      <trkpt lat="42.452868000" lon="-2.487224000">
        <ele>420.80</ele>
        <time>2015-01-17T11:29:21Z</time>
      </trkpt>
      <trkpt lat="42.452900000" lon="-2.487153000">
        <ele>420.90</ele>
        <time>2015-01-17T11:29:22Z</time>
      </trkpt>
      <trkpt lat="42.452929000" lon="-2.487083000">
        <ele>421.00</ele>
        <time>2015-01-17T11:29:23Z</time>
      </trkpt>
      <trkpt lat="42.452960000" lon="-2.487011000">
        <ele>421.00</ele>
        <time>2015-01-17T11:29:24Z</time>
      </trkpt>
      <trkpt lat="42.452988000" lon="-2.486939000">
        <ele>421.00</ele>
        <time>2015-01-17T11:29:25Z</time>
      </trkpt>
      <trkpt lat="42.453012000" lon="-2.486864000">
        <ele>420.70</ele>
        <time>2015-01-17T11:29:26Z</time>
      </trkpt>
      <trkpt lat="42.453031000" lon="-2.486786000">
        <ele>420.40</ele>
        <time>2015-01-17T11:29:27Z</time>
      </trkpt>
      <trkpt lat="42.453042000" lon="-2.486706000">
        <ele>420.20</ele>
        <time>2015-01-17T11:29:28Z</time>
      </trkpt>
      <trkpt lat="42.453051000" lon="-2.486624000">
        <ele>420.10</ele>
        <time>2015-01-17T11:29:29Z</time>
      </trkpt>
      <trkpt lat="42.453058000" lon="-2.486539000">
        <ele>419.80</ele>
        <time>2015-01-17T11:29:30Z</time>
      </trkpt>
      <trkpt lat="42.453064000" lon="-2.486456000">
        <ele>419.50</ele>
        <time>2015-01-17T11:29:31Z</time>
      </trkpt>
      <trkpt lat="42.453071000" lon="-2.486375000">
        <ele>419.30</ele>
        <time>2015-01-17T11:29:32Z</time>
      </trkpt>
      <trkpt lat="42.453077000" lon="-2.486293000">
        <ele>419.10</ele>
        <time>2015-01-17T11:29:33Z</time>
      </trkpt>
      <trkpt lat="42.453083000" lon="-2.486210000">
        <ele>419.00</ele>
        <time>2015-01-17T11:29:34Z</time>
      </trkpt>
      <trkpt lat="42.453091000" lon="-2.486127000">
        <ele>418.90</ele>
        <time>2015-01-17T11:29:35Z</time>
      </trkpt>
      <trkpt lat="42.453098000" lon="-2.486046000">
        <ele>418.80</ele>
        <time>2015-01-17T11:29:36Z</time>
      </trkpt>
      <trkpt lat="42.453105000" lon="-2.485964000">
        <ele>418.80</ele>
        <time>2015-01-17T11:29:37Z</time>
      </trkpt>
      <trkpt lat="42.453112000" lon="-2.485884000">
        <ele>418.80</ele>
        <time>2015-01-17T11:29:38Z</time>
      </trkpt>
      <trkpt lat="42.453118000" lon="-2.485803000">
        <ele>418.80</ele>
        <time>2015-01-17T11:29:39Z</time>
      </trkpt>
      <trkpt lat="42.453126000" lon="-2.485723000">
        <ele>418.60</ele>
        <time>2015-01-17T11:29:40Z</time>
      </trkpt>
      <trkpt lat="42.453133000" lon="-2.485641000">
        <ele>418.50</ele>
        <time>2015-01-17T11:29:41Z</time>
      </trkpt>
      <trkpt lat="42.453144000" lon="-2.485561000">
        <ele>418.40</ele>
        <time>2015-01-17T11:29:42Z</time>
      </trkpt>
      <trkpt lat="42.453156000" lon="-2.485477000">
        <ele>418.40</ele>
        <time>2015-01-17T11:29:43Z</time>
      </trkpt>
      <trkpt lat="42.453166000" lon="-2.485392000">
        <ele>418.40</ele>
        <time>2015-01-17T11:29:44Z</time>
      </trkpt>
      <trkpt lat="42.453178000" lon="-2.485310000">
        <ele>418.40</ele>
        <time>2015-01-17T11:29:45Z</time>
      </trkpt>
      <trkpt lat="42.453189000" lon="-2.485226000">
        <ele>418.40</ele>
        <time>2015-01-17T11:29:46Z</time>
      </trkpt>
      <trkpt lat="42.453200000" lon="-2.485143000">
        <ele>418.40</ele>
        <time>2015-01-17T11:29:47Z</time>
      </trkpt>
      <trkpt lat="42.453212000" lon="-2.485060000">
        <ele>418.40</ele>
        <time>2015-01-17T11:29:48Z</time>
      </trkpt>
      <trkpt lat="42.453224000" lon="-2.484975000">
        <ele>418.40</ele>
        <time>2015-01-17T11:29:49Z</time>
      </trkpt>
      <trkpt lat="42.453235000" lon="-2.484892000">
        <ele>418.30</ele>
        <time>2015-01-17T11:29:50Z</time>
      </trkpt>
      <trkpt lat="42.453250000" lon="-2.484808000">
        <ele>418.30</ele>
        <time>2015-01-17T11:29:51Z</time>
      </trkpt>
      <trkpt lat="42.453264000" lon="-2.484726000">
        <ele>418.30</ele>
        <time>2015-01-17T11:29:52Z</time>
      </trkpt>
      <trkpt lat="42.453278000" lon="-2.484642000">
        <ele>418.30</ele>
        <time>2015-01-17T11:29:53Z</time>
      </trkpt>
      <trkpt lat="42.453292000" lon="-2.484559000">
        <ele>418.10</ele>
        <time>2015-01-17T11:29:54Z</time>
      </trkpt>
      <trkpt lat="42.453304000" lon="-2.484473000">
        <ele>418.00</ele>
        <time>2015-01-17T11:29:55Z</time>
      </trkpt>
      <trkpt lat="42.453316000" lon="-2.484390000">
        <ele>417.80</ele>
        <time>2015-01-17T11:29:56Z</time>
      </trkpt>
      <trkpt lat="42.453328000" lon="-2.484306000">
        <ele>417.70</ele>
        <time>2015-01-17T11:29:57Z</time>
      </trkpt>
      <trkpt lat="42.453339000" lon="-2.484224000">
        <ele>417.60</ele>
        <time>2015-01-17T11:29:58Z</time>
      </trkpt>
      <trkpt lat="42.453351000" lon="-2.484142000">
        <ele>417.50</ele>
        <time>2015-01-17T11:29:59Z</time>
      </trkpt>
      <trkpt lat="42.453362000" lon="-2.484064000">
        <ele>417.50</ele>
        <time>2015-01-17T11:30:00Z</time>
      </trkpt>
      <trkpt lat="42.453372000" lon="-2.483988000">
        <ele>417.40</ele>
        <time>2015-01-17T11:30:01Z</time>
      </trkpt>
      <trkpt lat="42.453382000" lon="-2.483913000">
        <ele>417.60</ele>
        <time>2015-01-17T11:30:02Z</time>
      </trkpt>
      <trkpt lat="42.453394000" lon="-2.483839000">
        <ele>417.70</ele>
        <time>2015-01-17T11:30:03Z</time>
      </trkpt>
      <trkpt lat="42.453408000" lon="-2.483762000">
        <ele>417.80</ele>
        <time>2015-01-17T11:30:04Z</time>
      </trkpt>
      <trkpt lat="42.453433000" lon="-2.483606000">
        <ele>417.90</ele>
        <time>2015-01-17T11:30:06Z</time>
      </trkpt>
      <trkpt lat="42.453445000" lon="-2.483531000">
        <ele>417.90</ele>
        <time>2015-01-17T11:30:07Z</time>
      </trkpt>
      <trkpt lat="42.453455000" lon="-2.483455000">
        <ele>417.80</ele>
        <time>2015-01-17T11:30:08Z</time>
      </trkpt>
      <trkpt lat="42.453469000" lon="-2.483378000">
        <ele>417.70</ele>
        <time>2015-01-17T11:30:09Z</time>
      </trkpt>
      <trkpt lat="42.453483000" lon="-2.483304000">
        <ele>417.70</ele>
        <time>2015-01-17T11:30:10Z</time>
      </trkpt>
      <trkpt lat="42.453497000" lon="-2.483229000">
        <ele>417.70</ele>
        <time>2015-01-17T11:30:11Z</time>
      </trkpt>
      <trkpt lat="42.453512000" lon="-2.483154000">
        <ele>417.60</ele>
        <time>2015-01-17T11:30:12Z</time>
      </trkpt>
      <trkpt lat="42.453530000" lon="-2.483081000">
        <ele>417.60</ele>
        <time>2015-01-17T11:30:13Z</time>
      </trkpt>
      <trkpt lat="42.453549000" lon="-2.483007000">
        <ele>417.30</ele>
        <time>2015-01-17T11:30:14Z</time>
      </trkpt>
      <trkpt lat="42.453571000" lon="-2.482935000">
        <ele>417.10</ele>
        <time>2015-01-17T11:30:15Z</time>
      </trkpt>
      <trkpt lat="42.453594000" lon="-2.482862000">
        <ele>417.00</ele>
        <time>2015-01-17T11:30:16Z</time>
      </trkpt>
      <trkpt lat="42.453617000" lon="-2.482793000">
        <ele>416.90</ele>
        <time>2015-01-17T11:30:17Z</time>
      </trkpt>
      <trkpt lat="42.453638000" lon="-2.482724000">
        <ele>416.80</ele>
        <time>2015-01-17T11:30:18Z</time>
      </trkpt>
      <trkpt lat="42.453660000" lon="-2.482656000">
        <ele>416.90</ele>
        <time>2015-01-17T11:30:19Z</time>
      </trkpt>
      <trkpt lat="42.453683000" lon="-2.482590000">
        <ele>416.90</ele>
        <time>2015-01-17T11:30:20Z</time>
      </trkpt>
      <trkpt lat="42.453705000" lon="-2.482520000">
        <ele>417.00</ele>
        <time>2015-01-17T11:30:21Z</time>
      </trkpt>
      <trkpt lat="42.453728000" lon="-2.482455000">
        <ele>417.10</ele>
        <time>2015-01-17T11:30:22Z</time>
      </trkpt>
      <trkpt lat="42.453750000" lon="-2.482390000">
        <ele>417.20</ele>
        <time>2015-01-17T11:30:23Z</time>
      </trkpt>
      <trkpt lat="42.453772000" lon="-2.482324000">
        <ele>417.30</ele>
        <time>2015-01-17T11:30:24Z</time>
      </trkpt>
      <trkpt lat="42.453795000" lon="-2.482260000">
        <ele>417.40</ele>
        <time>2015-01-17T11:30:25Z</time>
      </trkpt>
      <trkpt lat="42.453818000" lon="-2.482194000">
        <ele>417.50</ele>
        <time>2015-01-17T11:30:26Z</time>
      </trkpt>
      <trkpt lat="42.453842000" lon="-2.482129000">
        <ele>417.60</ele>
        <time>2015-01-17T11:30:27Z</time>
      </trkpt>
      <trkpt lat="42.453866000" lon="-2.482061000">
        <ele>417.70</ele>
        <time>2015-01-17T11:30:28Z</time>
      </trkpt>
      <trkpt lat="42.453889000" lon="-2.481994000">
        <ele>417.70</ele>
        <time>2015-01-17T11:30:29Z</time>
      </trkpt>
      <trkpt lat="42.453912000" lon="-2.481928000">
        <ele>417.70</ele>
        <time>2015-01-17T11:30:30Z</time>
      </trkpt>
      <trkpt lat="42.453939000" lon="-2.481865000">
        <ele>417.80</ele>
        <time>2015-01-17T11:30:31Z</time>
      </trkpt>
      <trkpt lat="42.453965000" lon="-2.481801000">
        <ele>417.80</ele>
        <time>2015-01-17T11:30:32Z</time>
      </trkpt>
      <trkpt lat="42.453991000" lon="-2.481737000">
        <ele>417.70</ele>
        <time>2015-01-17T11:30:33Z</time>
      </trkpt>
      <trkpt lat="42.454017000" lon="-2.481674000">
        <ele>417.60</ele>
        <time>2015-01-17T11:30:34Z</time>
      </trkpt>
      <trkpt lat="42.454043000" lon="-2.481611000">
        <ele>417.40</ele>
        <time>2015-01-17T11:30:35Z</time>
      </trkpt>
      <trkpt lat="42.454069000" lon="-2.481548000">
        <ele>417.30</ele>
        <time>2015-01-17T11:30:36Z</time>
      </trkpt>
      <trkpt lat="42.454096000" lon="-2.481481000">
        <ele>417.30</ele>
        <time>2015-01-17T11:30:37Z</time>
      </trkpt>
      <trkpt lat="42.454124000" lon="-2.481416000">
        <ele>417.20</ele>
        <time>2015-01-17T11:30:38Z</time>
      </trkpt>
      <trkpt lat="42.454156000" lon="-2.481353000">
        <ele>417.00</ele>
        <time>2015-01-17T11:30:39Z</time>
      </trkpt>
      <trkpt lat="42.454186000" lon="-2.481291000">
        <ele>416.90</ele>
        <time>2015-01-17T11:30:40Z</time>
      </trkpt>
      <trkpt lat="42.454216000" lon="-2.481228000">
        <ele>416.90</ele>
        <time>2015-01-17T11:30:41Z</time>
      </trkpt>
      <trkpt lat="42.454249000" lon="-2.481166000">
        <ele>417.00</ele>
        <time>2015-01-17T11:30:42Z</time>
      </trkpt>
      <trkpt lat="42.454281000" lon="-2.481105000">
        <ele>417.00</ele>
        <time>2015-01-17T11:30:43Z</time>
      </trkpt>
      <trkpt lat="42.454310000" lon="-2.481040000">
        <ele>417.00</ele>
        <time>2015-01-17T11:30:44Z</time>
      </trkpt>
      <trkpt lat="42.454338000" lon="-2.480974000">
        <ele>417.10</ele>
        <time>2015-01-17T11:30:45Z</time>
      </trkpt>
      <trkpt lat="42.454367000" lon="-2.480909000">
        <ele>417.10</ele>
        <time>2015-01-17T11:30:46Z</time>
      </trkpt>
      <trkpt lat="42.454395000" lon="-2.480846000">
        <ele>417.20</ele>
        <time>2015-01-17T11:30:47Z</time>
      </trkpt>
      <trkpt lat="42.454425000" lon="-2.480785000">
        <ele>417.30</ele>
        <time>2015-01-17T11:30:48Z</time>
      </trkpt>
      <trkpt lat="42.454453000" lon="-2.480722000">
        <ele>417.40</ele>
        <time>2015-01-17T11:30:49Z</time>
      </trkpt>
      <trkpt lat="42.454483000" lon="-2.480657000">
        <ele>417.40</ele>
        <time>2015-01-17T11:30:50Z</time>
      </trkpt>
      <trkpt lat="42.454514000" lon="-2.480596000">
        <ele>417.40</ele>
        <time>2015-01-17T11:30:51Z</time>
      </trkpt>
      <trkpt lat="42.454544000" lon="-2.480535000">
        <ele>417.40</ele>
        <time>2015-01-17T11:30:52Z</time>
      </trkpt>
      <trkpt lat="42.454574000" lon="-2.480471000">
        <ele>417.30</ele>
        <time>2015-01-17T11:30:53Z</time>
      </trkpt>
      <trkpt lat="42.454604000" lon="-2.480407000">
        <ele>417.20</ele>
        <time>2015-01-17T11:30:54Z</time>
      </trkpt>
      <trkpt lat="42.454633000" lon="-2.480344000">
        <ele>417.10</ele>
        <time>2015-01-17T11:30:55Z</time>
      </trkpt>
      <trkpt lat="42.454664000" lon="-2.480283000">
        <ele>417.00</ele>
        <time>2015-01-17T11:30:56Z</time>
      </trkpt>
      <trkpt lat="42.454695000" lon="-2.480219000">
        <ele>417.00</ele>
        <time>2015-01-17T11:30:57Z</time>
      </trkpt>
      <trkpt lat="42.454724000" lon="-2.480157000">
        <ele>416.90</ele>
        <time>2015-01-17T11:30:58Z</time>
      </trkpt>
      <trkpt lat="42.454751000" lon="-2.480097000">
        <ele>416.90</ele>
        <time>2015-01-17T11:30:59Z</time>
      </trkpt>
      <trkpt lat="42.454781000" lon="-2.480038000">
        <ele>416.90</ele>
        <time>2015-01-17T11:31:00Z</time>
      </trkpt>
      <trkpt lat="42.454811000" lon="-2.479978000">
        <ele>416.80</ele>
        <time>2015-01-17T11:31:01Z</time>
      </trkpt>
      <trkpt lat="42.454842000" lon="-2.479915000">
        <ele>416.80</ele>
        <time>2015-01-17T11:31:02Z</time>
      </trkpt>
      <trkpt lat="42.454872000" lon="-2.479856000">
        <ele>416.80</ele>
        <time>2015-01-17T11:31:03Z</time>
      </trkpt>
      <trkpt lat="42.454904000" lon="-2.479798000">
        <ele>416.70</ele>
        <time>2015-01-17T11:31:04Z</time>
      </trkpt>
      <trkpt lat="42.454935000" lon="-2.479736000">
        <ele>416.80</ele>
        <time>2015-01-17T11:31:05Z</time>
      </trkpt>
      <trkpt lat="42.454975000" lon="-2.479600000">
        <ele>416.80</ele>
        <time>2015-01-17T11:31:07Z</time>
      </trkpt>
      <trkpt lat="42.454990000" lon="-2.479532000">
        <ele>416.90</ele>
        <time>2015-01-17T11:31:08Z</time>
      </trkpt>
      <trkpt lat="42.455002000" lon="-2.479463000">
        <ele>417.10</ele>
        <time>2015-01-17T11:31:09Z</time>
      </trkpt>
      <trkpt lat="42.455013000" lon="-2.479391000">
        <ele>417.20</ele>
        <time>2015-01-17T11:31:10Z</time>
      </trkpt>
      <trkpt lat="42.455025000" lon="-2.479319000">
        <ele>417.10</ele>
        <time>2015-01-17T11:31:11Z</time>
      </trkpt>
      <trkpt lat="42.455036000" lon="-2.479246000">
        <ele>417.10</ele>
        <time>2015-01-17T11:31:12Z</time>
      </trkpt>
      <trkpt lat="42.455044000" lon="-2.479176000">
        <ele>417.10</ele>
        <time>2015-01-17T11:31:13Z</time>
      </trkpt>
      <trkpt lat="42.455054000" lon="-2.479104000">
        <ele>417.10</ele>
        <time>2015-01-17T11:31:14Z</time>
      </trkpt>
      <trkpt lat="42.455067000" lon="-2.479034000">
        <ele>417.00</ele>
        <time>2015-01-17T11:31:15Z</time>
      </trkpt>
      <trkpt lat="42.455081000" lon="-2.478965000">
        <ele>417.00</ele>
        <time>2015-01-17T11:31:16Z</time>
      </trkpt>
      <trkpt lat="42.455096000" lon="-2.478893000">
        <ele>416.90</ele>
        <time>2015-01-17T11:31:17Z</time>
      </trkpt>
      <trkpt lat="42.455109000" lon="-2.478818000">
        <ele>416.90</ele>
        <time>2015-01-17T11:31:18Z</time>
      </trkpt>
      <trkpt lat="42.455120000" lon="-2.478746000">
        <ele>416.90</ele>
        <time>2015-01-17T11:31:19Z</time>
      </trkpt>
      <trkpt lat="42.455135000" lon="-2.478676000">
        <ele>417.00</ele>
        <time>2015-01-17T11:31:20Z</time>
      </trkpt>
      <trkpt lat="42.455152000" lon="-2.478606000">
        <ele>417.00</ele>
        <time>2015-01-17T11:31:21Z</time>
      </trkpt>
      <trkpt lat="42.455165000" lon="-2.478537000">
        <ele>417.10</ele>
        <time>2015-01-17T11:31:22Z</time>
      </trkpt>
      <trkpt lat="42.455178000" lon="-2.478467000">
        <ele>417.20</ele>
        <time>2015-01-17T11:31:23Z</time>
      </trkpt>
      <trkpt lat="42.455189000" lon="-2.478398000">
        <ele>417.30</ele>
        <time>2015-01-17T11:31:24Z</time>
      </trkpt>
      <trkpt lat="42.455204000" lon="-2.478331000">
        <ele>417.40</ele>
        <time>2015-01-17T11:31:25Z</time>
      </trkpt>
      <trkpt lat="42.455218000" lon="-2.478263000">
        <ele>417.40</ele>
        <time>2015-01-17T11:31:26Z</time>
      </trkpt>
      <trkpt lat="42.455231000" lon="-2.478196000">
        <ele>417.50</ele>
        <time>2015-01-17T11:31:27Z</time>
      </trkpt>
      <trkpt lat="42.455246000" lon="-2.478129000">
        <ele>417.50</ele>
        <time>2015-01-17T11:31:28Z</time>
      </trkpt>
      <trkpt lat="42.455261000" lon="-2.478060000">
        <ele>417.20</ele>
        <time>2015-01-17T11:31:29Z</time>
      </trkpt>
      <trkpt lat="42.455274000" lon="-2.477991000">
        <ele>417.10</ele>
        <time>2015-01-17T11:31:30Z</time>
      </trkpt>
      <trkpt lat="42.455288000" lon="-2.477921000">
        <ele>416.90</ele>
        <time>2015-01-17T11:31:31Z</time>
      </trkpt>
      <trkpt lat="42.455298000" lon="-2.477846000">
        <ele>416.80</ele>
        <time>2015-01-17T11:31:32Z</time>
      </trkpt>
      <trkpt lat="42.455310000" lon="-2.477767000">
        <ele>416.80</ele>
        <time>2015-01-17T11:31:33Z</time>
      </trkpt>
      <trkpt lat="42.455317000" lon="-2.477690000">
        <ele>416.70</ele>
        <time>2015-01-17T11:31:34Z</time>
      </trkpt>
      <trkpt lat="42.455323000" lon="-2.477610000">
        <ele>416.40</ele>
        <time>2015-01-17T11:31:35Z</time>
      </trkpt>
      <trkpt lat="42.455331000" lon="-2.477538000">
        <ele>416.10</ele>
        <time>2015-01-17T11:31:36Z</time>
      </trkpt>
      <trkpt lat="42.455345000" lon="-2.477480000">
        <ele>415.90</ele>
        <time>2015-01-17T11:31:37Z</time>
      </trkpt>
      <trkpt lat="42.455365000" lon="-2.477442000">
        <ele>415.80</ele>
        <time>2015-01-17T11:31:38Z</time>
      </trkpt>
      <trkpt lat="42.455393000" lon="-2.477420000">
        <ele>415.40</ele>
        <time>2015-01-17T11:31:39Z</time>
      </trkpt>
      <trkpt lat="42.455427000" lon="-2.477424000">
        <ele>415.00</ele>
        <time>2015-01-17T11:31:40Z</time>
      </trkpt>
      <trkpt lat="42.455468000" lon="-2.477423000">
        <ele>414.80</ele>
        <time>2015-01-17T11:31:41Z</time>
      </trkpt>
      <trkpt lat="42.455512000" lon="-2.477423000">
        <ele>414.60</ele>
        <time>2015-01-17T11:31:42Z</time>
      </trkpt>
      <trkpt lat="42.455560000" lon="-2.477428000">
        <ele>414.50</ele>
        <time>2015-01-17T11:31:43Z</time>
      </trkpt>
      <trkpt lat="42.455608000" lon="-2.477429000">
        <ele>414.40</ele>
        <time>2015-01-17T11:31:44Z</time>
      </trkpt>
      <trkpt lat="42.455657000" lon="-2.477429000">
        <ele>414.30</ele>
        <time>2015-01-17T11:31:45Z</time>
      </trkpt>
      <trkpt lat="42.455687000" lon="-2.477403000">
        <ele>414.30</ele>
        <time>2015-01-17T11:31:46Z</time>
      </trkpt>
      <trkpt lat="42.455724000" lon="-2.477424000">
        <ele>414.20</ele>
        <time>2015-01-17T11:31:47Z</time>
      </trkpt>
      <trkpt lat="42.455754000" lon="-2.477405000">
        <ele>414.10</ele>
        <time>2015-01-17T11:31:48Z</time>
      </trkpt>
      <trkpt lat="42.455781000" lon="-2.477363000">
        <ele>414.00</ele>
        <time>2015-01-17T11:31:49Z</time>
      </trkpt>
      <trkpt lat="42.455796000" lon="-2.477307000">
        <ele>414.00</ele>
        <time>2015-01-17T11:31:50Z</time>
      </trkpt>
      <trkpt lat="42.455810000" lon="-2.477252000">
        <ele>414.00</ele>
        <time>2015-01-17T11:31:51Z</time>
      </trkpt>
      <trkpt lat="42.455828000" lon="-2.477188000">
        <ele>413.90</ele>
        <time>2015-01-17T11:31:52Z</time>
      </trkpt>
      <trkpt lat="42.455845000" lon="-2.477127000">
        <ele>414.10</ele>
        <time>2015-01-17T11:31:53Z</time>
      </trkpt>
      <trkpt lat="42.455864000" lon="-2.477065000">
        <ele>414.20</ele>
        <time>2015-01-17T11:31:54Z</time>
      </trkpt>
      <trkpt lat="42.455879000" lon="-2.477007000">
        <ele>414.50</ele>
        <time>2015-01-17T11:31:55Z</time>
      </trkpt>
      <trkpt lat="42.455894000" lon="-2.476948000">
        <ele>414.60</ele>
        <time>2015-01-17T11:31:56Z</time>
      </trkpt>
      <trkpt lat="42.455909000" lon="-2.476892000">
        <ele>414.90</ele>
        <time>2015-01-17T11:31:57Z</time>
      </trkpt>
      <trkpt lat="42.455925000" lon="-2.476839000">
        <ele>415.00</ele>
        <time>2015-01-17T11:31:58Z</time>
      </trkpt>
      <trkpt lat="42.455942000" lon="-2.476783000">
        <ele>415.20</ele>
        <time>2015-01-17T11:31:59Z</time>
      </trkpt>
      <trkpt lat="42.455956000" lon="-2.476726000">
        <ele>415.30</ele>
        <time>2015-01-17T11:32:00Z</time>
      </trkpt>
      <trkpt lat="42.455967000" lon="-2.476671000">
        <ele>415.50</ele>
        <time>2015-01-17T11:32:01Z</time>
      </trkpt>
      <trkpt lat="42.455975000" lon="-2.476618000">
        <ele>415.60</ele>
        <time>2015-01-17T11:32:02Z</time>
      </trkpt>
      <trkpt lat="42.455984000" lon="-2.476572000">
        <ele>416.30</ele>
        <time>2015-01-17T11:32:03Z</time>
      </trkpt>
      <trkpt lat="42.455991000" lon="-2.476531000">
        <ele>416.70</ele>
        <time>2015-01-17T11:32:04Z</time>
      </trkpt>
      <trkpt lat="42.455997000" lon="-2.476493000">
        <ele>417.10</ele>
        <time>2015-01-17T11:32:05Z</time>
      </trkpt>
      <trkpt lat="42.456000000" lon="-2.476462000">
        <ele>417.40</ele>
        <time>2015-01-17T11:32:06Z</time>
      </trkpt>
      <trkpt lat="42.456005000" lon="-2.476430000">
        <ele>417.90</ele>
        <time>2015-01-17T11:32:07Z</time>
      </trkpt>
      <trkpt lat="42.456017000" lon="-2.476367000">
        <ele>418.60</ele>
        <time>2015-01-17T11:32:09Z</time>
      </trkpt>
      <trkpt lat="42.456024000" lon="-2.476340000">
        <ele>418.90</ele>
        <time>2015-01-17T11:32:10Z</time>
      </trkpt>
      <trkpt lat="42.456027000" lon="-2.476315000">
        <ele>419.10</ele>
        <time>2015-01-17T11:32:11Z</time>
      </trkpt>
      <trkpt lat="42.456030000" lon="-2.476291000">
        <ele>419.30</ele>
        <time>2015-01-17T11:32:12Z</time>
      </trkpt>
      <trkpt lat="42.456032000" lon="-2.476267000">
        <ele>419.40</ele>
        <time>2015-01-17T11:32:13Z</time>
      </trkpt>
      <trkpt lat="42.456035000" lon="-2.476248000">
        <ele>419.50</ele>
        <time>2015-01-17T11:32:14Z</time>
      </trkpt>
      <trkpt lat="42.456041000" lon="-2.476222000">
        <ele>419.80</ele>
        <time>2015-01-17T11:32:15Z</time>
      </trkpt>
      <trkpt lat="42.456046000" lon="-2.476194000">
        <ele>420.10</ele>
        <time>2015-01-17T11:32:16Z</time>
      </trkpt>
      <trkpt lat="42.456051000" lon="-2.476161000">
        <ele>420.30</ele>
        <time>2015-01-17T11:32:17Z</time>
      </trkpt>
      <trkpt lat="42.456059000" lon="-2.476127000">
        <ele>420.40</ele>
        <time>2015-01-17T11:32:18Z</time>
      </trkpt>
      <trkpt lat="42.456066000" lon="-2.476093000">
        <ele>420.50</ele>
        <time>2015-01-17T11:32:19Z</time>
      </trkpt>
      <trkpt lat="42.456072000" lon="-2.476053000">
        <ele>420.50</ele>
        <time>2015-01-17T11:32:20Z</time>
      </trkpt>
      <trkpt lat="42.456081000" lon="-2.476012000">
        <ele>420.50</ele>
        <time>2015-01-17T11:32:21Z</time>
      </trkpt>
      <trkpt lat="42.456088000" lon="-2.475976000">
        <ele>420.60</ele>
        <time>2015-01-17T11:32:22Z</time>
      </trkpt>
      <trkpt lat="42.456098000" lon="-2.475934000">
        <ele>420.70</ele>
        <time>2015-01-17T11:32:23Z</time>
      </trkpt>
      <trkpt lat="42.456104000" lon="-2.475896000">
        <ele>420.80</ele>
        <time>2015-01-17T11:32:24Z</time>
      </trkpt>
      <trkpt lat="42.456110000" lon="-2.475855000">
        <ele>421.00</ele>
        <time>2015-01-17T11:32:25Z</time>
      </trkpt>
      <trkpt lat="42.456117000" lon="-2.475815000">
        <ele>421.20</ele>
        <time>2015-01-17T11:32:26Z</time>
      </trkpt>
      <trkpt lat="42.456122000" lon="-2.475778000">
        <ele>421.30</ele>
        <time>2015-01-17T11:32:27Z</time>
      </trkpt>
      <trkpt lat="42.456129000" lon="-2.475740000">
        <ele>421.50</ele>
        <time>2015-01-17T11:32:28Z</time>
      </trkpt>
      <trkpt lat="42.456129000" lon="-2.475706000">
        <ele>421.60</ele>
        <time>2015-01-17T11:32:29Z</time>
      </trkpt>
      <trkpt lat="42.456128000" lon="-2.475676000">
        <ele>421.80</ele>
        <time>2015-01-17T11:32:30Z</time>
      </trkpt>
      <trkpt lat="42.456128000" lon="-2.475642000">
        <ele>421.90</ele>
        <time>2015-01-17T11:32:31Z</time>
      </trkpt>
      <trkpt lat="42.456125000" lon="-2.475608000">
        <ele>422.00</ele>
        <time>2015-01-17T11:32:32Z</time>
      </trkpt>
      <trkpt lat="42.456131000" lon="-2.475579000">
        <ele>422.10</ele>
        <time>2015-01-17T11:32:33Z</time>
      </trkpt>
      <trkpt lat="42.456136000" lon="-2.475551000">
        <ele>422.20</ele>
        <time>2015-01-17T11:32:34Z</time>
      </trkpt>
      <trkpt lat="42.456145000" lon="-2.475526000">
        <ele>422.20</ele>
        <time>2015-01-17T11:32:35Z</time>
      </trkpt>
      <trkpt lat="42.456157000" lon="-2.475497000">
        <ele>422.30</ele>
        <time>2015-01-17T11:32:36Z</time>
      </trkpt>
      <trkpt lat="42.456165000" lon="-2.475467000">
        <ele>422.30</ele>
        <time>2015-01-17T11:32:37Z</time>
      </trkpt>
      <trkpt lat="42.456176000" lon="-2.475442000">
        <ele>422.30</ele>
        <time>2015-01-17T11:32:38Z</time>
      </trkpt>
      <trkpt lat="42.456183000" lon="-2.475415000">
        <ele>422.30</ele>
        <time>2015-01-17T11:32:39Z</time>
      </trkpt>
      <trkpt lat="42.456192000" lon="-2.475387000">
        <ele>422.30</ele>
        <time>2015-01-17T11:32:40Z</time>
      </trkpt>
      <trkpt lat="42.456202000" lon="-2.475358000">
        <ele>422.40</ele>
        <time>2015-01-17T11:32:41Z</time>
      </trkpt>
      <trkpt lat="42.456213000" lon="-2.475332000">
        <ele>422.40</ele>
        <time>2015-01-17T11:32:42Z</time>
      </trkpt>
      <trkpt lat="42.456225000" lon="-2.475304000">
        <ele>422.60</ele>
        <time>2015-01-17T11:32:43Z</time>
      </trkpt>
      <trkpt lat="42.456235000" lon="-2.475276000">
        <ele>422.80</ele>
        <time>2015-01-17T11:32:44Z</time>
      </trkpt>
      <trkpt lat="42.456244000" lon="-2.475247000">
        <ele>422.90</ele>
        <time>2015-01-17T11:32:45Z</time>
      </trkpt>
      <trkpt lat="42.456254000" lon="-2.475217000">
        <ele>423.00</ele>
        <time>2015-01-17T11:32:46Z</time>
      </trkpt>
      <trkpt lat="42.456264000" lon="-2.475188000">
        <ele>423.00</ele>
        <time>2015-01-17T11:32:47Z</time>
      </trkpt>
      <trkpt lat="42.456274000" lon="-2.475155000">
        <ele>423.10</ele>
        <time>2015-01-17T11:32:48Z</time>
      </trkpt>
      <trkpt lat="42.456281000" lon="-2.475124000">
        <ele>422.90</ele>
        <time>2015-01-17T11:32:49Z</time>
      </trkpt>
      <trkpt lat="42.456291000" lon="-2.475093000">
        <ele>422.80</ele>
        <time>2015-01-17T11:32:50Z</time>
      </trkpt>
      <trkpt lat="42.456301000" lon="-2.475062000">
        <ele>422.90</ele>
        <time>2015-01-17T11:32:51Z</time>
      </trkpt>
      <trkpt lat="42.456311000" lon="-2.475032000">
        <ele>422.90</ele>
        <time>2015-01-17T11:32:52Z</time>
      </trkpt>
      <trkpt lat="42.456324000" lon="-2.475002000">
        <ele>422.90</ele>
        <time>2015-01-17T11:32:53Z</time>
      </trkpt>
      <trkpt lat="42.456341000" lon="-2.474969000">
        <ele>422.90</ele>
        <time>2015-01-17T11:32:54Z</time>
      </trkpt>
      <trkpt lat="42.456354000" lon="-2.474937000">
        <ele>423.10</ele>
        <time>2015-01-17T11:32:55Z</time>
      </trkpt>
      <trkpt lat="42.456367000" lon="-2.474898000">
        <ele>423.20</ele>
        <time>2015-01-17T11:32:56Z</time>
      </trkpt>
      <trkpt lat="42.456379000" lon="-2.474860000">
        <ele>423.30</ele>
        <time>2015-01-17T11:32:57Z</time>
      </trkpt>
      <trkpt lat="42.456388000" lon="-2.474819000">
        <ele>423.30</ele>
        <time>2015-01-17T11:32:58Z</time>
      </trkpt>
      <trkpt lat="42.456396000" lon="-2.474781000">
        <ele>423.10</ele>
        <time>2015-01-17T11:32:59Z</time>
      </trkpt>
      <trkpt lat="42.456403000" lon="-2.474745000">
        <ele>422.90</ele>
        <time>2015-01-17T11:33:00Z</time>
      </trkpt>
      <trkpt lat="42.456415000" lon="-2.474701000">
        <ele>422.80</ele>
        <time>2015-01-17T11:33:01Z</time>
      </trkpt>
      <trkpt lat="42.456420000" lon="-2.474664000">
        <ele>422.70</ele>
        <time>2015-01-17T11:33:02Z</time>
      </trkpt>
      <trkpt lat="42.456426000" lon="-2.474623000">
        <ele>422.70</ele>
        <time>2015-01-17T11:33:03Z</time>
      </trkpt>
      <trkpt lat="42.456433000" lon="-2.474580000">
        <ele>422.60</ele>
        <time>2015-01-17T11:33:04Z</time>
      </trkpt>
      <trkpt lat="42.456436000" lon="-2.474533000">
        <ele>422.60</ele>
        <time>2015-01-17T11:33:05Z</time>
      </trkpt>
      <trkpt lat="42.456438000" lon="-2.474488000">
        <ele>422.60</ele>
        <time>2015-01-17T11:33:06Z</time>
      </trkpt>
      <trkpt lat="42.456440000" lon="-2.474442000">
        <ele>422.50</ele>
        <time>2015-01-17T11:33:07Z</time>
      </trkpt>
      <trkpt lat="42.456443000" lon="-2.474396000">
        <ele>422.50</ele>
        <time>2015-01-17T11:33:08Z</time>
      </trkpt>
      <trkpt lat="42.456445000" lon="-2.474299000">
        <ele>422.30</ele>
        <time>2015-01-17T11:33:10Z</time>
      </trkpt>
      <trkpt lat="42.456450000" lon="-2.474248000">
        <ele>422.00</ele>
        <time>2015-01-17T11:33:11Z</time>
      </trkpt>
      <trkpt lat="42.456458000" lon="-2.474194000">
        <ele>421.80</ele>
        <time>2015-01-17T11:33:12Z</time>
      </trkpt>
      <trkpt lat="42.456460000" lon="-2.474140000">
        <ele>421.70</ele>
        <time>2015-01-17T11:33:13Z</time>
      </trkpt>
      <trkpt lat="42.456466000" lon="-2.474082000">
        <ele>421.50</ele>
        <time>2015-01-17T11:33:14Z</time>
      </trkpt>
      <trkpt lat="42.456469000" lon="-2.474021000">
        <ele>421.40</ele>
        <time>2015-01-17T11:33:15Z</time>
      </trkpt>
      <trkpt lat="42.456474000" lon="-2.473964000">
        <ele>421.30</ele>
        <time>2015-01-17T11:33:16Z</time>
      </trkpt>
      <trkpt lat="42.456484000" lon="-2.473902000">
        <ele>421.20</ele>
        <time>2015-01-17T11:33:17Z</time>
      </trkpt>
      <trkpt lat="42.456489000" lon="-2.473843000">
        <ele>421.20</ele>
        <time>2015-01-17T11:33:18Z</time>
      </trkpt>
      <trkpt lat="42.456493000" lon="-2.473785000">
        <ele>421.10</ele>
        <time>2015-01-17T11:33:19Z</time>
      </trkpt>
      <trkpt lat="42.456499000" lon="-2.473726000">
        <ele>421.10</ele>
        <time>2015-01-17T11:33:20Z</time>
      </trkpt>
      <trkpt lat="42.456510000" lon="-2.473665000">
        <ele>421.10</ele>
        <time>2015-01-17T11:33:21Z</time>
      </trkpt>
      <trkpt lat="42.456522000" lon="-2.473605000">
        <ele>420.90</ele>
        <time>2015-01-17T11:33:22Z</time>
      </trkpt>
      <trkpt lat="42.456537000" lon="-2.473547000">
        <ele>420.90</ele>
        <time>2015-01-17T11:33:23Z</time>
      </trkpt>
      <trkpt lat="42.456550000" lon="-2.473493000">
        <ele>420.70</ele>
        <time>2015-01-17T11:33:24Z</time>
      </trkpt>
      <trkpt lat="42.456562000" lon="-2.473443000">
        <ele>420.50</ele>
        <time>2015-01-17T11:33:25Z</time>
      </trkpt>
      <trkpt lat="42.456572000" lon="-2.473400000">
        <ele>420.40</ele>
        <time>2015-01-17T11:33:26Z</time>
      </trkpt>
      <trkpt lat="42.456586000" lon="-2.473357000">
        <ele>420.30</ele>
        <time>2015-01-17T11:33:27Z</time>
      </trkpt>
      <trkpt lat="42.456601000" lon="-2.473314000">
        <ele>420.10</ele>
        <time>2015-01-17T11:33:28Z</time>
      </trkpt>
      <trkpt lat="42.456623000" lon="-2.473276000">
        <ele>420.00</ele>
        <time>2015-01-17T11:33:29Z</time>
      </trkpt>
      <trkpt lat="42.456651000" lon="-2.473237000">
        <ele>419.80</ele>
        <time>2015-01-17T11:33:30Z</time>
      </trkpt>
      <trkpt lat="42.456677000" lon="-2.473195000">
        <ele>419.60</ele>
        <time>2015-01-17T11:33:31Z</time>
      </trkpt>
      <trkpt lat="42.456705000" lon="-2.473148000">
        <ele>419.50</ele>
        <time>2015-01-17T11:33:32Z</time>
      </trkpt>
      <trkpt lat="42.456733000" lon="-2.473103000">
        <ele>419.40</ele>
        <time>2015-01-17T11:33:33Z</time>
      </trkpt>
      <trkpt lat="42.456762000" lon="-2.473061000">
        <ele>419.30</ele>
        <time>2015-01-17T11:33:34Z</time>
      </trkpt>
      <trkpt lat="42.456793000" lon="-2.473020000">
        <ele>419.30</ele>
        <time>2015-01-17T11:33:35Z</time>
      </trkpt>
      <trkpt lat="42.456825000" lon="-2.472988000">
        <ele>419.00</ele>
        <time>2015-01-17T11:33:36Z</time>
      </trkpt>
      <trkpt lat="42.456854000" lon="-2.472961000">
        <ele>418.80</ele>
        <time>2015-01-17T11:33:37Z</time>
      </trkpt>
      <trkpt lat="42.456887000" lon="-2.472937000">
        <ele>418.60</ele>
        <time>2015-01-17T11:33:38Z</time>
      </trkpt>
      <trkpt lat="42.456921000" lon="-2.472909000">
        <ele>418.40</ele>
        <time>2015-01-17T11:33:39Z</time>
      </trkpt>
      <trkpt lat="42.456949000" lon="-2.472887000">
        <ele>418.20</ele>
        <time>2015-01-17T11:33:40Z</time>
      </trkpt>
      <trkpt lat="42.456975000" lon="-2.472871000">
        <ele>418.10</ele>
        <time>2015-01-17T11:33:41Z</time>
      </trkpt>
      <trkpt lat="42.457007000" lon="-2.472872000">
        <ele>417.90</ele>
        <time>2015-01-17T11:33:42Z</time>
      </trkpt>
      <trkpt lat="42.457037000" lon="-2.472873000">
        <ele>417.80</ele>
        <time>2015-01-17T11:33:43Z</time>
      </trkpt>
      <trkpt lat="42.457070000" lon="-2.472879000">
        <ele>417.70</ele>
        <time>2015-01-17T11:33:44Z</time>
      </trkpt>
      <trkpt lat="42.457102000" lon="-2.472872000">
        <ele>417.60</ele>
        <time>2015-01-17T11:33:45Z</time>
      </trkpt>
      <trkpt lat="42.457123000" lon="-2.472857000">
        <ele>417.60</ele>
        <time>2015-01-17T11:33:46Z</time>
      </trkpt>
      <trkpt lat="42.457135000" lon="-2.472834000">
        <ele>417.50</ele>
        <time>2015-01-17T11:33:47Z</time>
      </trkpt>
      <trkpt lat="42.457142000" lon="-2.472808000">
        <ele>417.40</ele>
        <time>2015-01-17T11:33:48Z</time>
      </trkpt>
      <trkpt lat="42.457156000" lon="-2.472769000">
        <ele>417.30</ele>
        <time>2015-01-17T11:33:49Z</time>
      </trkpt>
      <trkpt lat="42.457176000" lon="-2.472716000">
        <ele>417.10</ele>
        <time>2015-01-17T11:33:50Z</time>
      </trkpt>
      <trkpt lat="42.457198000" lon="-2.472670000">
        <ele>416.90</ele>
        <time>2015-01-17T11:33:51Z</time>
      </trkpt>
      <trkpt lat="42.457217000" lon="-2.472619000">
        <ele>416.80</ele>
        <time>2015-01-17T11:33:52Z</time>
      </trkpt>
      <trkpt lat="42.457237000" lon="-2.472567000">
        <ele>416.70</ele>
        <time>2015-01-17T11:33:53Z</time>
      </trkpt>
      <trkpt lat="42.457253000" lon="-2.472513000">
        <ele>416.70</ele>
        <time>2015-01-17T11:33:54Z</time>
      </trkpt>
      <trkpt lat="42.457273000" lon="-2.472460000">
        <ele>416.80</ele>
        <time>2015-01-17T11:33:55Z</time>
      </trkpt>
      <trkpt lat="42.457291000" lon="-2.472409000">
        <ele>416.80</ele>
        <time>2015-01-17T11:33:56Z</time>
      </trkpt>
      <trkpt lat="42.457307000" lon="-2.472358000">
        <ele>416.80</ele>
        <time>2015-01-17T11:33:57Z</time>
      </trkpt>
      <trkpt lat="42.457327000" lon="-2.472309000">
        <ele>416.80</ele>
        <time>2015-01-17T11:33:58Z</time>
      </trkpt>
      <trkpt lat="42.457349000" lon="-2.472259000">
        <ele>416.80</ele>
        <time>2015-01-17T11:33:59Z</time>
      </trkpt>
      <trkpt lat="42.457373000" lon="-2.472212000">
        <ele>416.70</ele>
        <time>2015-01-17T11:34:00Z</time>
      </trkpt>
      <trkpt lat="42.457396000" lon="-2.472164000">
        <ele>416.70</ele>
        <time>2015-01-17T11:34:01Z</time>
      </trkpt>
      <trkpt lat="42.457416000" lon="-2.472115000">
        <ele>416.60</ele>
        <time>2015-01-17T11:34:02Z</time>
      </trkpt>
      <trkpt lat="42.457437000" lon="-2.472071000">
        <ele>416.60</ele>
        <time>2015-01-17T11:34:03Z</time>
      </trkpt>
      <trkpt lat="42.457467000" lon="-2.472049000">
        <ele>416.50</ele>
        <time>2015-01-17T11:34:04Z</time>
      </trkpt>
      <trkpt lat="42.457500000" lon="-2.472036000">
        <ele>416.40</ele>
        <time>2015-01-17T11:34:05Z</time>
      </trkpt>
      <trkpt lat="42.457537000" lon="-2.472024000">
        <ele>416.40</ele>
        <time>2015-01-17T11:34:06Z</time>
      </trkpt>
      <trkpt lat="42.457564000" lon="-2.472005000">
        <ele>416.30</ele>
        <time>2015-01-17T11:34:07Z</time>
      </trkpt>
      <trkpt lat="42.457584000" lon="-2.471976000">
        <ele>416.30</ele>
        <time>2015-01-17T11:34:08Z</time>
      </trkpt>
      <trkpt lat="42.457604000" lon="-2.471942000">
        <ele>416.40</ele>
        <time>2015-01-17T11:34:09Z</time>
      </trkpt>
      <trkpt lat="42.457620000" lon="-2.471905000">
        <ele>416.50</ele>
        <time>2015-01-17T11:34:10Z</time>
      </trkpt>
      <trkpt lat="42.457648000" lon="-2.471811000">
        <ele>416.60</ele>
        <time>2015-01-17T11:34:12Z</time>
      </trkpt>
      <trkpt lat="42.457663000" lon="-2.471763000">
        <ele>416.70</ele>
        <time>2015-01-17T11:34:13Z</time>
      </trkpt>
      <trkpt lat="42.457677000" lon="-2.471718000">
        <ele>417.00</ele>
        <time>2015-01-17T11:34:14Z</time>
      </trkpt>
      <trkpt lat="42.457692000" lon="-2.471677000">
        <ele>417.20</ele>
        <time>2015-01-17T11:34:15Z</time>
      </trkpt>
      <trkpt lat="42.457706000" lon="-2.471635000">
        <ele>417.50</ele>
        <time>2015-01-17T11:34:16Z</time>
      </trkpt>
      <trkpt lat="42.457716000" lon="-2.471591000">
        <ele>417.80</ele>
        <time>2015-01-17T11:34:17Z</time>
      </trkpt>
      <trkpt lat="42.457729000" lon="-2.471548000">
        <ele>418.10</ele>
        <time>2015-01-17T11:34:18Z</time>
      </trkpt>
      <trkpt lat="42.457745000" lon="-2.471507000">
        <ele>418.30</ele>
        <time>2015-01-17T11:34:19Z</time>
      </trkpt>
      <trkpt lat="42.457758000" lon="-2.471467000">
        <ele>418.50</ele>
        <time>2015-01-17T11:34:20Z</time>
      </trkpt>
      <trkpt lat="42.457775000" lon="-2.471427000">
        <ele>418.60</ele>
        <time>2015-01-17T11:34:21Z</time>
      </trkpt>
      <trkpt lat="42.457791000" lon="-2.471388000">
        <ele>418.80</ele>
        <time>2015-01-17T11:34:22Z</time>
      </trkpt>
      <trkpt lat="42.457805000" lon="-2.471346000">
        <ele>419.00</ele>
        <time>2015-01-17T11:34:23Z</time>
      </trkpt>
      <trkpt lat="42.457819000" lon="-2.471302000">
        <ele>419.20</ele>
        <time>2015-01-17T11:34:24Z</time>
      </trkpt>
      <trkpt lat="42.457833000" lon="-2.471258000">
        <ele>419.30</ele>
        <time>2015-01-17T11:34:25Z</time>
      </trkpt>
      <trkpt lat="42.457849000" lon="-2.471215000">
        <ele>419.50</ele>
        <time>2015-01-17T11:34:26Z</time>
      </trkpt>
      <trkpt lat="42.457867000" lon="-2.471172000">
        <ele>419.60</ele>
        <time>2015-01-17T11:34:27Z</time>
      </trkpt>
      <trkpt lat="42.457883000" lon="-2.471129000">
        <ele>419.70</ele>
        <time>2015-01-17T11:34:28Z</time>
      </trkpt>
      <trkpt lat="42.457899000" lon="-2.471089000">
        <ele>419.80</ele>
        <time>2015-01-17T11:34:29Z</time>
      </trkpt>
      <trkpt lat="42.457918000" lon="-2.471045000">
        <ele>419.70</ele>
        <time>2015-01-17T11:34:30Z</time>
      </trkpt>
      <trkpt lat="42.457941000" lon="-2.471004000">
        <ele>419.70</ele>
        <time>2015-01-17T11:34:31Z</time>
      </trkpt>
      <trkpt lat="42.457963000" lon="-2.470959000">
        <ele>419.70</ele>
        <time>2015-01-17T11:34:32Z</time>
      </trkpt>
      <trkpt lat="42.457985000" lon="-2.470917000">
        <ele>419.70</ele>
        <time>2015-01-17T11:34:33Z</time>
      </trkpt>
      <trkpt lat="42.458010000" lon="-2.470875000">
        <ele>419.70</ele>
        <time>2015-01-17T11:34:34Z</time>
      </trkpt>
      <trkpt lat="42.458035000" lon="-2.470835000">
        <ele>419.70</ele>
        <time>2015-01-17T11:34:35Z</time>
      </trkpt>
      <trkpt lat="42.458057000" lon="-2.470797000">
        <ele>419.70</ele>
        <time>2015-01-17T11:34:36Z</time>
      </trkpt>
      <trkpt lat="42.458078000" lon="-2.470757000">
        <ele>419.70</ele>
        <time>2015-01-17T11:34:37Z</time>
      </trkpt>
      <trkpt lat="42.458099000" lon="-2.470714000">
        <ele>419.70</ele>
        <time>2015-01-17T11:34:38Z</time>
      </trkpt>
      <trkpt lat="42.458124000" lon="-2.470672000">
        <ele>419.60</ele>
        <time>2015-01-17T11:34:39Z</time>
      </trkpt>
      <trkpt lat="42.458149000" lon="-2.470628000">
        <ele>419.50</ele>
        <time>2015-01-17T11:34:40Z</time>
      </trkpt>
      <trkpt lat="42.458171000" lon="-2.470580000">
        <ele>419.50</ele>
        <time>2015-01-17T11:34:41Z</time>
      </trkpt>
      <trkpt lat="42.458190000" lon="-2.470534000">
        <ele>419.40</ele>
        <time>2015-01-17T11:34:42Z</time>
      </trkpt>
      <trkpt lat="42.458205000" lon="-2.470489000">
        <ele>419.40</ele>
        <time>2015-01-17T11:34:43Z</time>
      </trkpt>
      <trkpt lat="42.458221000" lon="-2.470443000">
        <ele>419.20</ele>
        <time>2015-01-17T11:34:44Z</time>
      </trkpt>
      <trkpt lat="42.458239000" lon="-2.470396000">
        <ele>419.00</ele>
        <time>2015-01-17T11:34:45Z</time>
      </trkpt>
      <trkpt lat="42.458253000" lon="-2.470349000">
        <ele>418.90</ele>
        <time>2015-01-17T11:34:46Z</time>
      </trkpt>
      <trkpt lat="42.458266000" lon="-2.470301000">
        <ele>418.80</ele>
        <time>2015-01-17T11:34:47Z</time>
      </trkpt>
      <trkpt lat="42.458277000" lon="-2.470251000">
        <ele>418.70</ele>
        <time>2015-01-17T11:34:48Z</time>
      </trkpt>
      <trkpt lat="42.458289000" lon="-2.470204000">
        <ele>418.70</ele>
        <time>2015-01-17T11:34:49Z</time>
      </trkpt>
      <trkpt lat="42.458299000" lon="-2.470160000">
        <ele>418.80</ele>
        <time>2015-01-17T11:34:50Z</time>
      </trkpt>
      <trkpt lat="42.458311000" lon="-2.470114000">
        <ele>418.80</ele>
        <time>2015-01-17T11:34:51Z</time>
      </trkpt>
      <trkpt lat="42.458320000" lon="-2.470063000">
        <ele>418.90</ele>
        <time>2015-01-17T11:34:52Z</time>
      </trkpt>
      <trkpt lat="42.458328000" lon="-2.470012000">
        <ele>418.90</ele>
        <time>2015-01-17T11:34:53Z</time>
      </trkpt>
      <trkpt lat="42.458335000" lon="-2.469956000">
        <ele>418.90</ele>
        <time>2015-01-17T11:34:54Z</time>
      </trkpt>
      <trkpt lat="42.458338000" lon="-2.469903000">
        <ele>418.80</ele>
        <time>2015-01-17T11:34:55Z</time>
      </trkpt>
      <trkpt lat="42.458341000" lon="-2.469851000">
        <ele>418.80</ele>
        <time>2015-01-17T11:34:56Z</time>
      </trkpt>
      <trkpt lat="42.458345000" lon="-2.469800000">
        <ele>418.80</ele>
        <time>2015-01-17T11:34:57Z</time>
      </trkpt>
      <trkpt lat="42.458349000" lon="-2.469750000">
        <ele>418.80</ele>
        <time>2015-01-17T11:34:58Z</time>
      </trkpt>
      <trkpt lat="42.458349000" lon="-2.469698000">
        <ele>418.80</ele>
        <time>2015-01-17T11:34:59Z</time>
      </trkpt>
      <trkpt lat="42.458352000" lon="-2.469644000">
        <ele>418.70</ele>
        <time>2015-01-17T11:35:00Z</time>
      </trkpt>
      <trkpt lat="42.458356000" lon="-2.469593000">
        <ele>418.60</ele>
        <time>2015-01-17T11:35:01Z</time>
      </trkpt>
      <trkpt lat="42.458358000" lon="-2.469544000">
        <ele>418.50</ele>
        <time>2015-01-17T11:35:02Z</time>
      </trkpt>
      <trkpt lat="42.458359000" lon="-2.469499000">
        <ele>418.40</ele>
        <time>2015-01-17T11:35:03Z</time>
      </trkpt>
      <trkpt lat="42.458357000" lon="-2.469449000">
        <ele>418.30</ele>
        <time>2015-01-17T11:35:04Z</time>
      </trkpt>
      <trkpt lat="42.458353000" lon="-2.469401000">
        <ele>418.20</ele>
        <time>2015-01-17T11:35:05Z</time>
      </trkpt>
      <trkpt lat="42.458349000" lon="-2.469353000">
        <ele>418.10</ele>
        <time>2015-01-17T11:35:06Z</time>
      </trkpt>
      <trkpt lat="42.458346000" lon="-2.469302000">
        <ele>418.10</ele>
        <time>2015-01-17T11:35:07Z</time>
      </trkpt>
      <trkpt lat="42.458346000" lon="-2.469248000">
        <ele>418.10</ele>
        <time>2015-01-17T11:35:08Z</time>
      </trkpt>
      <trkpt lat="42.458344000" lon="-2.469197000">
        <ele>418.10</ele>
        <time>2015-01-17T11:35:09Z</time>
      </trkpt>
      <trkpt lat="42.458336000" lon="-2.469149000">
        <ele>418.00</ele>
        <time>2015-01-17T11:35:10Z</time>
      </trkpt>
      <trkpt lat="42.458330000" lon="-2.469097000">
        <ele>418.00</ele>
        <time>2015-01-17T11:35:11Z</time>
      </trkpt>
      <trkpt lat="42.458321000" lon="-2.468992000">
        <ele>418.00</ele>
        <time>2015-01-17T11:35:13Z</time>
      </trkpt>
      <trkpt lat="42.458318000" lon="-2.468937000">
        <ele>418.30</ele>
        <time>2015-01-17T11:35:14Z</time>
      </trkpt>
      <trkpt lat="42.458319000" lon="-2.468883000">
        <ele>418.60</ele>
        <time>2015-01-17T11:35:15Z</time>
      </trkpt>
      <trkpt lat="42.458310000" lon="-2.468827000">
        <ele>418.80</ele>
        <time>2015-01-17T11:35:16Z</time>
      </trkpt>
      <trkpt lat="42.458304000" lon="-2.468771000">
        <ele>419.00</ele>
        <time>2015-01-17T11:35:17Z</time>
      </trkpt>
      <trkpt lat="42.458298000" lon="-2.468718000">
        <ele>419.10</ele>
        <time>2015-01-17T11:35:18Z</time>
      </trkpt>
      <trkpt lat="42.458294000" lon="-2.468662000">
        <ele>419.20</ele>
        <time>2015-01-17T11:35:19Z</time>
      </trkpt>
      <trkpt lat="42.458288000" lon="-2.468606000">
        <ele>419.10</ele>
        <time>2015-01-17T11:35:20Z</time>
      </trkpt>
      <trkpt lat="42.458284000" lon="-2.468548000">
        <ele>419.10</ele>
        <time>2015-01-17T11:35:21Z</time>
      </trkpt>
      <trkpt lat="42.458279000" lon="-2.468487000">
        <ele>419.00</ele>
        <time>2015-01-17T11:35:22Z</time>
      </trkpt>
      <trkpt lat="42.458272000" lon="-2.468426000">
        <ele>419.00</ele>
        <time>2015-01-17T11:35:23Z</time>
      </trkpt>
      <trkpt lat="42.458268000" lon="-2.468368000">
        <ele>418.60</ele>
        <time>2015-01-17T11:35:24Z</time>
      </trkpt>
      <trkpt lat="42.458264000" lon="-2.468308000">
        <ele>418.30</ele>
        <time>2015-01-17T11:35:25Z</time>
      </trkpt>
      <trkpt lat="42.458257000" lon="-2.468254000">
        <ele>418.10</ele>
        <time>2015-01-17T11:35:26Z</time>
      </trkpt>
      <trkpt lat="42.458259000" lon="-2.468208000">
        <ele>417.90</ele>
        <time>2015-01-17T11:35:27Z</time>
      </trkpt>
      <trkpt lat="42.458268000" lon="-2.468168000">
        <ele>418.00</ele>
        <time>2015-01-17T11:35:28Z</time>
      </trkpt>
      <trkpt lat="42.458280000" lon="-2.468129000">
        <ele>418.00</ele>
        <time>2015-01-17T11:35:29Z</time>
      </trkpt>
      <trkpt lat="42.458299000" lon="-2.468096000">
        <ele>418.00</ele>
        <time>2015-01-17T11:35:30Z</time>
      </trkpt>
      <trkpt lat="42.458324000" lon="-2.468065000">
        <ele>418.00</ele>
        <time>2015-01-17T11:35:31Z</time>
      </trkpt>
      <trkpt lat="42.458343000" lon="-2.468048000">
        <ele>418.00</ele>
        <time>2015-01-17T11:35:32Z</time>
      </trkpt>
      <trkpt lat="42.458376000" lon="-2.468033000">
        <ele>418.00</ele>
        <time>2015-01-17T11:35:33Z</time>
      </trkpt>
      <trkpt lat="42.458415000" lon="-2.468024000">
        <ele>418.00</ele>
        <time>2015-01-17T11:35:34Z</time>
      </trkpt>
      <trkpt lat="42.458453000" lon="-2.468021000">
        <ele>418.00</ele>
        <time>2015-01-17T11:35:35Z</time>
      </trkpt>
      <trkpt lat="42.458492000" lon="-2.468017000">
        <ele>418.00</ele>
        <time>2015-01-17T11:35:36Z</time>
      </trkpt>
      <trkpt lat="42.458534000" lon="-2.468017000">
        <ele>418.00</ele>
        <time>2015-01-17T11:35:37Z</time>
      </trkpt>
      <trkpt lat="42.458576000" lon="-2.468019000">
        <ele>418.00</ele>
        <time>2015-01-17T11:35:38Z</time>
      </trkpt>
      <trkpt lat="42.458617000" lon="-2.468021000">
        <ele>418.00</ele>
        <time>2015-01-17T11:35:39Z</time>
      </trkpt>
      <trkpt lat="42.458658000" lon="-2.468018000">
        <ele>418.00</ele>
        <time>2015-01-17T11:35:40Z</time>
      </trkpt>
      <trkpt lat="42.458702000" lon="-2.468017000">
        <ele>417.90</ele>
        <time>2015-01-17T11:35:41Z</time>
      </trkpt>
      <trkpt lat="42.458742000" lon="-2.468011000">
        <ele>417.90</ele>
        <time>2015-01-17T11:35:42Z</time>
      </trkpt>
      <trkpt lat="42.458782000" lon="-2.468002000">
        <ele>417.90</ele>
        <time>2015-01-17T11:35:43Z</time>
      </trkpt>
      <trkpt lat="42.458823000" lon="-2.467987000">
        <ele>417.90</ele>
        <time>2015-01-17T11:35:44Z</time>
      </trkpt>
      <trkpt lat="42.458862000" lon="-2.467976000">
        <ele>417.90</ele>
        <time>2015-01-17T11:35:45Z</time>
      </trkpt>
      <trkpt lat="42.458900000" lon="-2.467960000">
        <ele>417.70</ele>
        <time>2015-01-17T11:35:46Z</time>
      </trkpt>
      <trkpt lat="42.458938000" lon="-2.467945000">
        <ele>417.50</ele>
        <time>2015-01-17T11:35:47Z</time>
      </trkpt>
      <trkpt lat="42.458978000" lon="-2.467921000">
        <ele>417.40</ele>
        <time>2015-01-17T11:35:48Z</time>
      </trkpt>
      <trkpt lat="42.459019000" lon="-2.467891000">
        <ele>417.30</ele>
        <time>2015-01-17T11:35:49Z</time>
      </trkpt>
      <trkpt lat="42.459054000" lon="-2.467851000">
        <ele>417.20</ele>
        <time>2015-01-17T11:35:50Z</time>
      </trkpt>
      <trkpt lat="42.459085000" lon="-2.467801000">
        <ele>417.20</ele>
        <time>2015-01-17T11:35:51Z</time>
      </trkpt>
      <trkpt lat="42.459105000" lon="-2.467743000">
        <ele>417.10</ele>
        <time>2015-01-17T11:35:52Z</time>
      </trkpt>
      <trkpt lat="42.459122000" lon="-2.467671000">
        <ele>417.00</ele>
        <time>2015-01-17T11:35:53Z</time>
      </trkpt>
      <trkpt lat="42.459133000" lon="-2.467596000">
        <ele>416.80</ele>
        <time>2015-01-17T11:35:54Z</time>
      </trkpt>
      <trkpt lat="42.459141000" lon="-2.467517000">
        <ele>416.70</ele>
        <time>2015-01-17T11:35:55Z</time>
      </trkpt>
      <trkpt lat="42.459146000" lon="-2.467435000">
        <ele>416.40</ele>
        <time>2015-01-17T11:35:56Z</time>
      </trkpt>
      <trkpt lat="42.459147000" lon="-2.467354000">
        <ele>416.20</ele>
        <time>2015-01-17T11:35:57Z</time>
      </trkpt>
      <trkpt lat="42.459146000" lon="-2.467275000">
        <ele>416.10</ele>
        <time>2015-01-17T11:35:58Z</time>
      </trkpt>
      <trkpt lat="42.459145000" lon="-2.467197000">
        <ele>415.90</ele>
        <time>2015-01-17T11:35:59Z</time>
      </trkpt>
      <trkpt lat="42.459144000" lon="-2.467119000">
        <ele>415.70</ele>
        <time>2015-01-17T11:36:00Z</time>
      </trkpt>
      <trkpt lat="42.459146000" lon="-2.467046000">
        <ele>415.60</ele>
        <time>2015-01-17T11:36:01Z</time>
      </trkpt>
      <trkpt lat="42.459148000" lon="-2.466971000">
        <ele>415.40</ele>
        <time>2015-01-17T11:36:02Z</time>
      </trkpt>
      <trkpt lat="42.459149000" lon="-2.466900000">
        <ele>415.30</ele>
        <time>2015-01-17T11:36:03Z</time>
      </trkpt>
      <trkpt lat="42.459152000" lon="-2.466829000">
        <ele>415.10</ele>
        <time>2015-01-17T11:36:04Z</time>
      </trkpt>
      <trkpt lat="42.459157000" lon="-2.466761000">
        <ele>414.90</ele>
        <time>2015-01-17T11:36:05Z</time>
      </trkpt>
      <trkpt lat="42.459164000" lon="-2.466698000">
        <ele>414.80</ele>
        <time>2015-01-17T11:36:06Z</time>
      </trkpt>
      <trkpt lat="42.459168000" lon="-2.466639000">
        <ele>414.70</ele>
        <time>2015-01-17T11:36:07Z</time>
      </trkpt>
      <trkpt lat="42.459183000" lon="-2.466580000">
        <ele>414.60</ele>
        <time>2015-01-17T11:36:08Z</time>
      </trkpt>
      <trkpt lat="42.459200000" lon="-2.466524000">
        <ele>414.60</ele>
        <time>2015-01-17T11:36:09Z</time>
      </trkpt>
      <trkpt lat="42.459221000" lon="-2.466472000">
        <ele>414.30</ele>
        <time>2015-01-17T11:36:10Z</time>
      </trkpt>
      <trkpt lat="42.459239000" lon="-2.466419000">
        <ele>414.00</ele>
        <time>2015-01-17T11:36:11Z</time>
      </trkpt>
      <trkpt lat="42.459257000" lon="-2.466363000">
        <ele>413.90</ele>
        <time>2015-01-17T11:36:12Z</time>
      </trkpt>
      <trkpt lat="42.459286000" lon="-2.466259000">
        <ele>413.80</ele>
        <time>2015-01-17T11:36:14Z</time>
      </trkpt>
      <trkpt lat="42.459297000" lon="-2.466210000">
        <ele>413.90</ele>
        <time>2015-01-17T11:36:15Z</time>
      </trkpt>
      <trkpt lat="42.459307000" lon="-2.466163000">
        <ele>414.00</ele>
        <time>2015-01-17T11:36:16Z</time>
      </trkpt>
      <trkpt lat="42.459320000" lon="-2.466115000">
        <ele>414.00</ele>
        <time>2015-01-17T11:36:17Z</time>
      </trkpt>
      <trkpt lat="42.459326000" lon="-2.466070000">
        <ele>414.00</ele>
        <time>2015-01-17T11:36:18Z</time>
      </trkpt>
      <trkpt lat="42.459334000" lon="-2.466023000">
        <ele>414.10</ele>
        <time>2015-01-17T11:36:19Z</time>
      </trkpt>
      <trkpt lat="42.459341000" lon="-2.465980000">
        <ele>414.10</ele>
        <time>2015-01-17T11:36:20Z</time>
      </trkpt>
      <trkpt lat="42.459347000" lon="-2.465935000">
        <ele>414.10</ele>
        <time>2015-01-17T11:36:21Z</time>
      </trkpt>
      <trkpt lat="42.459356000" lon="-2.465893000">
        <ele>414.10</ele>
        <time>2015-01-17T11:36:22Z</time>
      </trkpt>
      <trkpt lat="42.459360000" lon="-2.465856000">
        <ele>414.10</ele>
        <time>2015-01-17T11:36:23Z</time>
      </trkpt>
      <trkpt lat="42.459367000" lon="-2.465817000">
        <ele>414.20</ele>
        <time>2015-01-17T11:36:24Z</time>
      </trkpt>
      <trkpt lat="42.459374000" lon="-2.465776000">
        <ele>414.20</ele>
        <time>2015-01-17T11:36:25Z</time>
      </trkpt>
      <trkpt lat="42.459383000" lon="-2.465736000">
        <ele>414.30</ele>
        <time>2015-01-17T11:36:26Z</time>
      </trkpt>
      <trkpt lat="42.459392000" lon="-2.465698000">
        <ele>414.30</ele>
        <time>2015-01-17T11:36:27Z</time>
      </trkpt>
      <trkpt lat="42.459400000" lon="-2.465658000">
        <ele>414.30</ele>
        <time>2015-01-17T11:36:28Z</time>
      </trkpt>
      <trkpt lat="42.459411000" lon="-2.465609000">
        <ele>414.30</ele>
        <time>2015-01-17T11:36:29Z</time>
      </trkpt>
      <trkpt lat="42.459422000" lon="-2.465562000">
        <ele>414.20</ele>
        <time>2015-01-17T11:36:30Z</time>
      </trkpt>
      <trkpt lat="42.459435000" lon="-2.465513000">
        <ele>414.10</ele>
        <time>2015-01-17T11:36:31Z</time>
      </trkpt>
      <trkpt lat="42.459451000" lon="-2.465460000">
        <ele>414.00</ele>
        <time>2015-01-17T11:36:32Z</time>
      </trkpt>
      <trkpt lat="42.459467000" lon="-2.465404000">
        <ele>413.90</ele>
        <time>2015-01-17T11:36:33Z</time>
      </trkpt>
      <trkpt lat="42.459482000" lon="-2.465340000">
        <ele>413.70</ele>
        <time>2015-01-17T11:36:34Z</time>
      </trkpt>
      <trkpt lat="42.459495000" lon="-2.465279000">
        <ele>413.60</ele>
        <time>2015-01-17T11:36:35Z</time>
      </trkpt>
      <trkpt lat="42.459510000" lon="-2.465214000">
        <ele>413.40</ele>
        <time>2015-01-17T11:36:36Z</time>
      </trkpt>
      <trkpt lat="42.459524000" lon="-2.465152000">
        <ele>413.40</ele>
        <time>2015-01-17T11:36:37Z</time>
      </trkpt>
      <trkpt lat="42.459540000" lon="-2.465089000">
        <ele>413.10</ele>
        <time>2015-01-17T11:36:38Z</time>
      </trkpt>
      <trkpt lat="42.459555000" lon="-2.465025000">
        <ele>412.90</ele>
        <time>2015-01-17T11:36:39Z</time>
      </trkpt>
      <trkpt lat="42.459569000" lon="-2.464964000">
        <ele>412.70</ele>
        <time>2015-01-17T11:36:40Z</time>
      </trkpt>
      <trkpt lat="42.459584000" lon="-2.464895000">
        <ele>412.50</ele>
        <time>2015-01-17T11:36:41Z</time>
      </trkpt>
      <trkpt lat="42.459597000" lon="-2.464831000">
        <ele>412.30</ele>
        <time>2015-01-17T11:36:42Z</time>
      </trkpt>
      <trkpt lat="42.459615000" lon="-2.464769000">
        <ele>412.10</ele>
        <time>2015-01-17T11:36:43Z</time>
      </trkpt>
      <trkpt lat="42.459633000" lon="-2.464708000">
        <ele>411.90</ele>
        <time>2015-01-17T11:36:44Z</time>
      </trkpt>
      <trkpt lat="42.459652000" lon="-2.464649000">
        <ele>411.80</ele>
        <time>2015-01-17T11:36:45Z</time>
      </trkpt>
      <trkpt lat="42.459661000" lon="-2.464588000">
        <ele>411.60</ele>
        <time>2015-01-17T11:36:46Z</time>
      </trkpt>
      <trkpt lat="42.459670000" lon="-2.464526000">
        <ele>411.50</ele>
        <time>2015-01-17T11:36:47Z</time>
      </trkpt>
      <trkpt lat="42.459677000" lon="-2.464471000">
        <ele>411.40</ele>
        <time>2015-01-17T11:36:48Z</time>
      </trkpt>
      <trkpt lat="42.459689000" lon="-2.464417000">
        <ele>411.30</ele>
        <time>2015-01-17T11:36:49Z</time>
      </trkpt>
      <trkpt lat="42.459709000" lon="-2.464366000">
        <ele>411.10</ele>
        <time>2015-01-17T11:36:50Z</time>
      </trkpt>
      <trkpt lat="42.459728000" lon="-2.464309000">
        <ele>410.90</ele>
        <time>2015-01-17T11:36:51Z</time>
      </trkpt>
      <trkpt lat="42.459745000" lon="-2.464251000">
        <ele>410.70</ele>
        <time>2015-01-17T11:36:52Z</time>
      </trkpt>
      <trkpt lat="42.459766000" lon="-2.464198000">
        <ele>410.50</ele>
        <time>2015-01-17T11:36:53Z</time>
      </trkpt>
      <trkpt lat="42.459797000" lon="-2.464148000">
        <ele>410.40</ele>
        <time>2015-01-17T11:36:54Z</time>
      </trkpt>
      <trkpt lat="42.459832000" lon="-2.464109000">
        <ele>410.20</ele>
        <time>2015-01-17T11:36:55Z</time>
      </trkpt>
      <trkpt lat="42.459865000" lon="-2.464072000">
        <ele>410.10</ele>
        <time>2015-01-17T11:36:56Z</time>
      </trkpt>
      <trkpt lat="42.459903000" lon="-2.464042000">
        <ele>409.90</ele>
        <time>2015-01-17T11:36:57Z</time>
      </trkpt>
      <trkpt lat="42.459943000" lon="-2.464017000">
        <ele>409.90</ele>
        <time>2015-01-17T11:36:58Z</time>
      </trkpt>
      <trkpt lat="42.459981000" lon="-2.463996000">
        <ele>409.80</ele>
        <time>2015-01-17T11:36:59Z</time>
      </trkpt>
      <trkpt lat="42.460038000" lon="-2.463965000">
        <ele>409.70</ele>
        <time>2015-01-17T11:37:00Z</time>
      </trkpt>
      <trkpt lat="42.460086000" lon="-2.463937000">
        <ele>409.60</ele>
        <time>2015-01-17T11:37:01Z</time>
      </trkpt>
      <trkpt lat="42.460132000" lon="-2.463911000">
        <ele>409.30</ele>
        <time>2015-01-17T11:37:02Z</time>
      </trkpt>
      <trkpt lat="42.460182000" lon="-2.463881000">
        <ele>409.20</ele>
        <time>2015-01-17T11:37:03Z</time>
      </trkpt>
      <trkpt lat="42.460230000" lon="-2.463851000">
        <ele>408.80</ele>
        <time>2015-01-17T11:37:04Z</time>
      </trkpt>
      <trkpt lat="42.460282000" lon="-2.463822000">
        <ele>408.50</ele>
        <time>2015-01-17T11:37:05Z</time>
      </trkpt>
      <trkpt lat="42.460330000" lon="-2.463790000">
        <ele>408.30</ele>
        <time>2015-01-17T11:37:06Z</time>
      </trkpt>
      <trkpt lat="42.460380000" lon="-2.463758000">
        <ele>408.10</ele>
        <time>2015-01-17T11:37:07Z</time>
      </trkpt>
      <trkpt lat="42.460433000" lon="-2.463726000">
        <ele>408.00</ele>
        <time>2015-01-17T11:37:08Z</time>
      </trkpt>
      <trkpt lat="42.460487000" lon="-2.463695000">
        <ele>407.90</ele>
        <time>2015-01-17T11:37:09Z</time>
      </trkpt>
      <trkpt lat="42.460543000" lon="-2.463662000">
        <ele>407.60</ele>
        <time>2015-01-17T11:37:10Z</time>
      </trkpt>
      <trkpt lat="42.460595000" lon="-2.463628000">
        <ele>407.40</ele>
        <time>2015-01-17T11:37:11Z</time>
      </trkpt>
      <trkpt lat="42.460644000" lon="-2.463595000">
        <ele>407.20</ele>
        <time>2015-01-17T11:37:12Z</time>
      </trkpt>
      <trkpt lat="42.460695000" lon="-2.463568000">
        <ele>407.00</ele>
        <time>2015-01-17T11:37:13Z</time>
      </trkpt>
      <trkpt lat="42.460740000" lon="-2.463552000">
        <ele>406.70</ele>
        <time>2015-01-17T11:37:14Z</time>
      </trkpt>
      <trkpt lat="42.460821000" lon="-2.463559000">
        <ele>406.20</ele>
        <time>2015-01-17T11:37:16Z</time>
      </trkpt>
      <trkpt lat="42.460855000" lon="-2.463584000">
        <ele>406.00</ele>
        <time>2015-01-17T11:37:17Z</time>
      </trkpt>
      <trkpt lat="42.460878000" lon="-2.463614000">
        <ele>405.60</ele>
        <time>2015-01-17T11:37:18Z</time>
      </trkpt>
      <trkpt lat="42.460915000" lon="-2.463639000">
        <ele>405.30</ele>
        <time>2015-01-17T11:37:19Z</time>
      </trkpt>
      <trkpt lat="42.460956000" lon="-2.463665000">
        <ele>405.00</ele>
        <time>2015-01-17T11:37:20Z</time>
      </trkpt>
      <trkpt lat="42.460994000" lon="-2.463689000">
        <ele>404.70</ele>
        <time>2015-01-17T11:37:21Z</time>
      </trkpt>
      <trkpt lat="42.461028000" lon="-2.463702000">
        <ele>404.50</ele>
        <time>2015-01-17T11:37:22Z</time>
      </trkpt>
      <trkpt lat="42.461067000" lon="-2.463719000">
        <ele>404.40</ele>
        <time>2015-01-17T11:37:23Z</time>
      </trkpt>
      <trkpt lat="42.461097000" lon="-2.463731000">
        <ele>404.10</ele>
        <time>2015-01-17T11:37:24Z</time>
      </trkpt>
      <trkpt lat="42.461114000" lon="-2.463741000">
        <ele>403.90</ele>
        <time>2015-01-17T11:37:25Z</time>
      </trkpt>
      <trkpt lat="42.461115000" lon="-2.463758000">
        <ele>403.70</ele>
        <time>2015-01-17T11:37:26Z</time>
      </trkpt>
      <trkpt lat="42.461102000" lon="-2.463771000">
        <ele>403.60</ele>
        <time>2015-01-17T11:37:27Z</time>
      </trkpt>
      <trkpt lat="42.461086000" lon="-2.463778000">
        <ele>403.50</ele>
        <time>2015-01-17T11:37:28Z</time>
      </trkpt>
      <trkpt lat="42.461070000" lon="-2.463789000">
        <ele>403.50</ele>
        <time>2015-01-17T11:37:29Z</time>
      </trkpt>
      <trkpt lat="42.461056000" lon="-2.463802000">
        <ele>403.50</ele>
        <time>2015-01-17T11:37:30Z</time>
      </trkpt>
      <trkpt lat="42.461040000" lon="-2.463820000">
        <ele>403.50</ele>
        <time>2015-01-17T11:37:31Z</time>
      </trkpt>
      <trkpt lat="42.461028000" lon="-2.463837000">
        <ele>403.50</ele>
        <time>2015-01-17T11:37:32Z</time>
      </trkpt>
      <trkpt lat="42.461013000" lon="-2.463856000">
        <ele>403.50</ele>
        <time>2015-01-17T11:37:33Z</time>
      </trkpt>
      <trkpt lat="42.461002000" lon="-2.463878000">
        <ele>403.50</ele>
        <time>2015-01-17T11:37:34Z</time>
      </trkpt>
      <trkpt lat="42.460993000" lon="-2.463898000">
        <ele>403.60</ele>
        <time>2015-01-17T11:37:35Z</time>
      </trkpt>
      <trkpt lat="42.460984000" lon="-2.463917000">
        <ele>403.60</ele>
        <time>2015-01-17T11:37:36Z</time>
      </trkpt>
      <trkpt lat="42.460979000" lon="-2.463928000">
        <ele>403.60</ele>
        <time>2015-01-17T11:37:37Z</time>
      </trkpt>
      <trkpt lat="42.460970000" lon="-2.463952000">
        <ele>403.60</ele>
        <time>2015-01-17T11:37:38Z</time>
      </trkpt>
      <trkpt lat="42.460960000" lon="-2.463974000">
        <ele>403.60</ele>
        <time>2015-01-17T11:37:39Z</time>
      </trkpt>
      <trkpt lat="42.460949000" lon="-2.463997000">
        <ele>403.60</ele>
        <time>2015-01-17T11:37:40Z</time>
      </trkpt>
      <trkpt lat="42.460938000" lon="-2.464024000">
        <ele>403.60</ele>
        <time>2015-01-17T11:37:41Z</time>
      </trkpt>
      <trkpt lat="42.460926000" lon="-2.464051000">
        <ele>403.60</ele>
        <time>2015-01-17T11:37:42Z</time>
      </trkpt>
      <trkpt lat="42.460915000" lon="-2.464074000">
        <ele>403.60</ele>
        <time>2015-01-17T11:37:43Z</time>
      </trkpt>
      <trkpt lat="42.460911000" lon="-2.464094000">
        <ele>403.40</ele>
        <time>2015-01-17T11:37:44Z</time>
      </trkpt>
      <trkpt lat="42.460906000" lon="-2.464104000">
        <ele>403.30</ele>
        <time>2015-01-17T11:37:45Z</time>
      </trkpt>
      <trkpt lat="42.460901000" lon="-2.464112000">
        <ele>403.40</ele>
        <time>2015-01-17T11:37:46Z</time>
      </trkpt>
      <trkpt lat="42.460897000" lon="-2.464116000">
        <ele>403.40</ele>
        <time>2015-01-17T11:37:47Z</time>
      </trkpt>
      <trkpt lat="42.460894000" lon="-2.464119000">
        <ele>403.50</ele>
        <time>2015-01-17T11:37:48Z</time>
      </trkpt>
      <trkpt lat="42.460887000" lon="-2.464119000">
        <ele>403.50</ele>
        <time>2015-01-17T11:37:49Z</time>
      </trkpt>
      <trkpt lat="42.460880000" lon="-2.464118000">
        <ele>403.50</ele>
        <time>2015-01-17T11:37:50Z</time>
      </trkpt>
      <trkpt lat="42.460877000" lon="-2.464116000">
        <ele>403.50</ele>
        <time>2015-01-17T11:37:51Z</time>
      </trkpt>
      <trkpt lat="42.460873000" lon="-2.464115000">
        <ele>403.50</ele>
        <time>2015-01-17T11:37:52Z</time>
      </trkpt>
      <trkpt lat="42.460875000" lon="-2.464117000">
        <ele>403.50</ele>
        <time>2015-01-17T11:37:53Z</time>
      </trkpt>
      <trkpt lat="42.460872000" lon="-2.464118000">
        <ele>403.80</ele>
        <time>2015-01-17T11:37:54Z</time>
      </trkpt>
      <trkpt lat="42.460870000" lon="-2.464119000">
        <ele>404.00</ele>
        <time>2015-01-17T11:37:55Z</time>
      </trkpt>
      <trkpt lat="42.460866000" lon="-2.464120000">
        <ele>404.10</ele>
        <time>2015-01-17T11:37:56Z</time>
      </trkpt>
      <trkpt lat="42.460862000" lon="-2.464121000">
        <ele>404.30</ele>
        <time>2015-01-17T11:37:57Z</time>
      </trkpt>
      <trkpt lat="42.460862000" lon="-2.464121000">
        <ele>404.30</ele>
        <time>2015-01-17T11:37:58Z</time>
      </trkpt>
      <trkpt lat="42.460868000" lon="-2.464120000">
        <ele>404.40</ele>
        <time>2015-01-17T11:37:59Z</time>
      </trkpt>
      <trkpt lat="42.460869000" lon="-2.464121000">
        <ele>401.20</ele>
        <time>2015-01-17T11:38:00Z</time>
      </trkpt>
      <trkpt lat="42.460869000" lon="-2.464121000">
        <ele>401.20</ele>
        <time>2015-01-17T11:38:00Z</time>
      </trkpt>
    </trkseg>
  </trk>
</gpx>
